<?xml version='1.0' encoding='UTF-8'?><gpx version="1.1" creator="JPX - https://github.com/jenetics/jpx" xmlns="http://www.topografix.com/GPX/1/1"><trk><trkseg><trkpt lat="44.016265167128466" lon="8.189584070379698"><ele>11.0</ele><time>2026-03-29T06:54:55.683Z</time></trkpt><trkpt lat="44.01623973709003" lon="8.189503761781333"><ele>11.0</ele><time>2026-03-29T06:54:56.683Z</time></trkpt><trkpt lat="44.016170420238204" lon="8.189559364431904"><ele>11.0</ele><time>2026-03-29T06:55:00.683Z</time></trkpt><trkpt lat="44.016078098904956" lon="8.189532748390933"><ele>11.0</ele><time>2026-03-29T06:55:03.683Z</time></trkpt><trkpt lat="44.01597132926343" lon="8.189507441151646"><ele>11.0</ele><time>2026-03-29T06:55:05.683Z</time></trkpt><trkpt lat="44.016014072252965" lon="8.189582943807372"><ele>11.0</ele><time>2026-03-29T06:55:10.683Z</time></trkpt><trkpt lat="44.01594463234462" lon="8.18959037510867"><ele>11.0</ele><time>2026-03-29T06:55:14.683Z</time></trkpt><trkpt lat="44.01600707983651" lon="8.189624581599897"><ele>11.0</ele><time>2026-03-29T06:55:49.683Z</time></trkpt><trkpt lat="44.015930090760484" lon="8.189625435402554"><ele>11.0</ele><time>2026-03-29T06:56:08.983Z</time></trkpt><trkpt lat="44.015830967956354" lon="8.189654263968276"><ele>11.0</ele><time>2026-03-29T06:56:27.983Z</time></trkpt><trkpt lat="44.01597920120438" lon="8.189651041069109"><ele>11.0</ele><time>2026-03-29T06:56:50.983Z</time></trkpt><trkpt lat="44.016105155637625" lon="8.18965573834285"><ele>11.0</ele><time>2026-03-29T06:56:56.983Z</time></trkpt><trkpt lat="44.016053067378714" lon="8.189601537947862"><ele>11.0</ele><time>2026-03-29T06:57:36.998Z</time></trkpt><trkpt lat="44.01598954886691" lon="8.18958872292378"><ele>11.0</ele><time>2026-03-29T06:57:41.998Z</time></trkpt><trkpt lat="44.016086778995145" lon="8.1895912574314"><ele>11.0</ele><time>2026-03-29T06:57:57.999Z</time></trkpt><trkpt lat="44.015919524954775" lon="8.189611899374562"><ele>11.0</ele><time>2026-03-29T06:58:32Z</time></trkpt><trkpt lat="44.01599589391719" lon="8.189588337006946"><ele>11.0</ele><time>2026-03-29T06:58:58Z</time></trkpt><trkpt lat="44.015988727130626" lon="8.189471403039018"><ele>11.0</ele><time>2026-03-29T06:59:46Z</time></trkpt><trkpt lat="44.01596429477962" lon="8.189300273590353"><ele>11.0</ele><time>2026-03-29T06:59:48Z</time></trkpt><trkpt lat="44.01594353301517" lon="8.189199471862056"><ele>11.0</ele><time>2026-03-29T06:59:49Z</time></trkpt><trkpt lat="44.01591331636406" lon="8.189108809066742"><ele>11.0</ele><time>2026-03-29T06:59:50Z</time></trkpt><trkpt lat="44.01588661377051" lon="8.189027864805606"><ele>11.0</ele><time>2026-03-29T06:59:51Z</time></trkpt><trkpt lat="44.015858083378774" lon="8.18894972804197"><ele>9.0</ele><time>2026-03-29T06:59:52Z</time></trkpt><trkpt lat="44.015814106808136" lon="8.188787764034757"><ele>7.000000000000001</ele><time>2026-03-29T06:59:54Z</time></trkpt><trkpt lat="44.01579688352633" lon="8.188701132747642"><ele>5.0</ele><time>2026-03-29T06:59:55Z</time></trkpt><trkpt lat="44.01578237402211" lon="8.188613333257065"><ele>3.0</ele><time>2026-03-29T06:59:56Z</time></trkpt><trkpt lat="44.015758532826986" lon="8.188442064856801"><ele>1.0</ele><time>2026-03-29T06:59:58Z</time></trkpt><trkpt lat="44.015736395253995" lon="8.188280418785395"><ele>1.4</ele><time>2026-03-29T07:00:00Z</time></trkpt><trkpt lat="44.01571195132679" lon="8.188125437500409"><ele>1.8</ele><time>2026-03-29T07:00:02Z</time></trkpt><trkpt lat="44.01569004970508" lon="8.187962018519848"><ele>2.1999999999999997</ele><time>2026-03-29T07:00:04Z</time></trkpt><trkpt lat="44.0156823773325" lon="8.187806887248177"><ele>2.6</ele><time>2026-03-29T07:00:06Z</time></trkpt><trkpt lat="44.01567461349541" lon="8.187666006427818"><ele>3.0</ele><time>2026-03-29T07:00:08Z</time></trkpt><trkpt lat="44.0156658716703" lon="8.187516203094862"><ele>3.0</ele><time>2026-03-29T07:00:10Z</time></trkpt><trkpt lat="44.01565306322258" lon="8.18734685178214"><ele>3.0</ele><time>2026-03-29T07:00:12Z</time></trkpt><trkpt lat="44.01563798343655" lon="8.18725219666853"><ele>3.0</ele><time>2026-03-29T07:00:13Z</time></trkpt><trkpt lat="44.015625525788295" lon="8.187160001003171"><ele>3.0</ele><time>2026-03-29T07:00:14Z</time></trkpt><trkpt lat="44.0156101348182" lon="8.187063737929757"><ele>3.0</ele><time>2026-03-29T07:00:15Z</time></trkpt><trkpt lat="44.01559159491671" lon="8.186966784196617"><ele>3.0</ele><time>2026-03-29T07:00:16Z</time></trkpt><trkpt lat="44.015579645548705" lon="8.186871570503891"><ele>2.8333333333333335</ele><time>2026-03-29T07:00:17Z</time></trkpt><trkpt lat="44.01556617767778" lon="8.186773286182119"><ele>2.6666666666666665</ele><time>2026-03-29T07:00:18Z</time></trkpt><trkpt lat="44.01555696907569" lon="8.186662723947908"><ele>2.5</ele><time>2026-03-29T07:00:19Z</time></trkpt><trkpt lat="44.01555531157948" lon="8.186554426569382"><ele>2.333333333333333</ele><time>2026-03-29T07:00:20Z</time></trkpt><trkpt lat="44.01554979987298" lon="8.186441603683583"><ele>2.1666666666666665</ele><time>2026-03-29T07:00:21Z</time></trkpt><trkpt lat="44.01554747949309" lon="8.186327770478966"><ele>2.0</ele><time>2026-03-29T07:00:22Z</time></trkpt><trkpt lat="44.01554298788096" lon="8.18621705030049"><ele>1.9999999999999998</ele><time>2026-03-29T07:00:23Z</time></trkpt><trkpt lat="44.01554349675177" lon="8.186107799419078"><ele>2.0</ele><time>2026-03-29T07:00:24Z</time></trkpt><trkpt lat="44.015544514682404" lon="8.186002824314556"><ele>2.0</ele><time>2026-03-29T07:00:25Z</time></trkpt><trkpt lat="44.01554180770728" lon="8.185893614706925"><ele>2.0</ele><time>2026-03-29T07:00:26Z</time></trkpt><trkpt lat="44.01553984864212" lon="8.185777465639378"><ele>1.9999999999999998</ele><time>2026-03-29T07:00:26.999Z</time></trkpt><trkpt lat="44.01552375056911" lon="8.185664134534548"><ele>2.0</ele><time>2026-03-29T07:00:27.999Z</time></trkpt><trkpt lat="44.0154947612379" lon="8.185551000174556"><ele>2.5</ele><time>2026-03-29T07:00:28.999Z</time></trkpt><trkpt lat="44.01546246733598" lon="8.185439503146847"><ele>3.0</ele><time>2026-03-29T07:00:29.999Z</time></trkpt><trkpt lat="44.01542453946453" lon="8.185332645611776"><ele>3.5</ele><time>2026-03-29T07:00:30.999Z</time></trkpt><trkpt lat="44.015379475977625" lon="8.185224862027743"><ele>4.0</ele><time>2026-03-29T07:00:31.999Z</time></trkpt><trkpt lat="44.015334581580504" lon="8.185119796916943"><ele>4.5</ele><time>2026-03-29T07:00:32.999Z</time></trkpt><trkpt lat="44.01528910252707" lon="8.185006387188976"><ele>5.0</ele><time>2026-03-29T07:00:33.999Z</time></trkpt><trkpt lat="44.01524345974175" lon="8.184895139467013"><ele>6.0</ele><time>2026-03-29T07:00:34.999Z</time></trkpt><trkpt lat="44.01519901374303" lon="8.184783833941111"><ele>7.0</ele><time>2026-03-29T07:00:35.999Z</time></trkpt><trkpt lat="44.015156910253495" lon="8.18467140264124"><ele>8.0</ele><time>2026-03-29T07:00:36.999Z</time></trkpt><trkpt lat="44.01510639613297" lon="8.184564416322532"><ele>9.0</ele><time>2026-03-29T07:00:37.999Z</time></trkpt><trkpt lat="44.01506670738396" lon="8.184457336150432"><ele>10.0</ele><time>2026-03-29T07:00:38.999Z</time></trkpt><trkpt lat="44.015023382311604" lon="8.184345443536689"><ele>9.0</ele><time>2026-03-29T07:00:39.999Z</time></trkpt><trkpt lat="44.01497817193657" lon="8.184226298550865"><ele>8.0</ele><time>2026-03-29T07:00:40.999Z</time></trkpt><trkpt lat="44.01493185809455" lon="8.18411693911134"><ele>7.0</ele><time>2026-03-29T07:00:41.999Z</time></trkpt><trkpt lat="44.01488887129216" lon="8.184005815632384"><ele>6.0</ele><time>2026-03-29T07:00:42.999Z</time></trkpt><trkpt lat="44.01484628156252" lon="8.183896502005641"><ele>5.0</ele><time>2026-03-29T07:00:43.999Z</time></trkpt><trkpt lat="44.0148011691893" lon="8.183788766159285"><ele>5.0</ele><time>2026-03-29T07:00:44.999Z</time></trkpt><trkpt lat="44.01475635158442" lon="8.18368494948454"><ele>5.0</ele><time>2026-03-29T07:00:45.999Z</time></trkpt><trkpt lat="44.014709637669334" lon="8.183577178778085"><ele>5.0</ele><time>2026-03-29T07:00:46.999Z</time></trkpt><trkpt lat="44.014663814145905" lon="8.18347369192964"><ele>5.0</ele><time>2026-03-29T07:00:47.999Z</time></trkpt><trkpt lat="44.01461766161527" lon="8.183367917083398"><ele>5.0</ele><time>2026-03-29T07:00:48.999Z</time></trkpt><trkpt lat="44.01457131326462" lon="8.183266354912659"><ele>5.0</ele><time>2026-03-29T07:00:49.999Z</time></trkpt><trkpt lat="44.014524631367536" lon="8.183172098179362"><ele>6.2</ele><time>2026-03-29T07:00:50.999Z</time></trkpt><trkpt lat="44.01447713022976" lon="8.183039629356886"><ele>7.4</ele><time>2026-03-29T07:00:52.999Z</time></trkpt><trkpt lat="44.01451430800306" lon="8.182938696459463"><ele>8.600000000000001</ele><time>2026-03-29T07:00:54.999Z</time></trkpt><trkpt lat="44.01459865367813" lon="8.18289147213416"><ele>9.8</ele><time>2026-03-29T07:00:56.999Z</time></trkpt><trkpt lat="44.01469144039365" lon="8.182852790103956"><ele>11.0</ele><time>2026-03-29T07:00:59Z</time></trkpt><trkpt lat="44.014758359979695" lon="8.182793829016832"><ele>11.0</ele><time>2026-03-29T07:01:06Z</time></trkpt><trkpt lat="44.01473595530764" lon="8.182600908161572"><ele>11.0</ele><time>2026-03-29T07:01:09Z</time></trkpt><trkpt lat="44.01469802446224" lon="8.18251403116813"><ele>11.0</ele><time>2026-03-29T07:01:10Z</time></trkpt><trkpt lat="44.01465816257284" lon="8.182421483504992"><ele>11.0</ele><time>2026-03-29T07:01:11Z</time></trkpt><trkpt lat="44.01461587364846" lon="8.18231790341253"><ele>11.0</ele><time>2026-03-29T07:01:12Z</time></trkpt><trkpt lat="44.01457186692652" lon="8.182205770944178"><ele>11.600000000000001</ele><time>2026-03-29T07:01:13Z</time></trkpt><trkpt lat="44.01452363020482" lon="8.182091140797066"><ele>12.2</ele><time>2026-03-29T07:01:14Z</time></trkpt><trkpt lat="44.01447229587633" lon="8.181972405453665"><ele>12.799999999999999</ele><time>2026-03-29T07:01:15Z</time></trkpt><trkpt lat="44.01442306950745" lon="8.181845760645926"><ele>13.399999999999999</ele><time>2026-03-29T07:01:16.001Z</time></trkpt><trkpt lat="44.01437230301613" lon="8.181714717166866"><ele>14.0</ele><time>2026-03-29T07:01:17.001Z</time></trkpt><trkpt lat="44.014320371786255" lon="8.181580394037988"><ele>14.0</ele><time>2026-03-29T07:01:18.001Z</time></trkpt><trkpt lat="44.014270677739525" lon="8.181445221180576"><ele>14.0</ele><time>2026-03-29T07:01:19.001Z</time></trkpt><trkpt lat="44.01421736622912" lon="8.181308409372459"><ele>14.0</ele><time>2026-03-29T07:01:20.001Z</time></trkpt><trkpt lat="44.014163554555196" lon="8.181166415524194"><ele>14.0</ele><time>2026-03-29T07:01:21.001Z</time></trkpt><trkpt lat="44.01410929317199" lon="8.18102361394487"><ele>13.25</ele><time>2026-03-29T07:01:22.001Z</time></trkpt><trkpt lat="44.01405504601214" lon="8.180878016804366"><ele>12.5</ele><time>2026-03-29T07:01:23.001Z</time></trkpt><trkpt lat="44.01400112516884" lon="8.180733258340348"><ele>11.75</ele><time>2026-03-29T07:01:24.001Z</time></trkpt><trkpt lat="44.013944061918295" lon="8.180588099960831"><ele>11.0</ele><time>2026-03-29T07:01:25.001Z</time></trkpt><trkpt lat="44.013888771692656" lon="8.180444029618654"><ele>11.0</ele><time>2026-03-29T07:01:26.001Z</time></trkpt><trkpt lat="44.01383075369987" lon="8.180302292962853"><ele>11.0</ele><time>2026-03-29T07:01:27.001Z</time></trkpt><trkpt lat="44.013769958153546" lon="8.18016201051294"><ele>11.0</ele><time>2026-03-29T07:01:28.001Z</time></trkpt><trkpt lat="44.01370766551119" lon="8.180024207572606"><ele>11.0</ele><time>2026-03-29T07:01:29.001Z</time></trkpt><trkpt lat="44.013645341753985" lon="8.179894003136422"><ele>13.0</ele><time>2026-03-29T07:01:30.001Z</time></trkpt><trkpt lat="44.013577735400595" lon="8.179766198200017"><ele>15.0</ele><time>2026-03-29T07:01:31.001Z</time></trkpt><trkpt lat="44.01350489977283" lon="8.179637924726622"><ele>17.0</ele><time>2026-03-29T07:01:32.001Z</time></trkpt><trkpt lat="44.01342892883775" lon="8.179509612438927"><ele>19.0</ele><time>2026-03-29T07:01:33.001Z</time></trkpt><trkpt lat="44.0133501351882" lon="8.17938824871461"><ele>18.5</ele><time>2026-03-29T07:01:34.001Z</time></trkpt><trkpt lat="44.01326987988428" lon="8.179260660263306"><ele>18.0</ele><time>2026-03-29T07:01:35.001Z</time></trkpt><trkpt lat="44.01318886244382" lon="8.179137846618463"><ele>17.5</ele><time>2026-03-29T07:01:36.001Z</time></trkpt><trkpt lat="44.013103370074674" lon="8.17901808632828"><ele>17.0</ele><time>2026-03-29T07:01:37.001Z</time></trkpt><trkpt lat="44.013014679403966" lon="8.178898250935497"><ele>17.0</ele><time>2026-03-29T07:01:38.001Z</time></trkpt><trkpt lat="44.01292565697501" lon="8.178778791467384"><ele>17.0</ele><time>2026-03-29T07:01:39.001Z</time></trkpt><trkpt lat="44.01283861959118" lon="8.178659766456486"><ele>17.0</ele><time>2026-03-29T07:01:40.001Z</time></trkpt><trkpt lat="44.01274895323143" lon="8.17854698131453"><ele>17.0</ele><time>2026-03-29T07:01:41.001Z</time></trkpt><trkpt lat="44.01265876206549" lon="8.178435163765224"><ele>17.0</ele><time>2026-03-29T07:01:42.001Z</time></trkpt><trkpt lat="44.012569526352976" lon="8.17832365545115"><ele>17.0</ele><time>2026-03-29T07:01:43.001Z</time></trkpt><trkpt lat="44.012480081073626" lon="8.178215565897673"><ele>17.0</ele><time>2026-03-29T07:01:44.001Z</time></trkpt><trkpt lat="44.012388397211765" lon="8.178110846657393"><ele>17.0</ele><time>2026-03-29T07:01:45.001Z</time></trkpt><trkpt lat="44.01229672554648" lon="8.178005878572593"><ele>16.5</ele><time>2026-03-29T07:01:46.001Z</time></trkpt><trkpt lat="44.01220815979185" lon="8.177901549028444"><ele>16.0</ele><time>2026-03-29T07:01:47.001Z</time></trkpt><trkpt lat="44.012120729771524" lon="8.177800537403979"><ele>15.5</ele><time>2026-03-29T07:01:48.001Z</time></trkpt><trkpt lat="44.01203669054585" lon="8.177694711521719"><ele>15.0</ele><time>2026-03-29T07:01:49.001Z</time></trkpt><trkpt lat="44.01195603859836" lon="8.177588021430093"><ele>15.0</ele><time>2026-03-29T07:01:50.001Z</time></trkpt><trkpt lat="44.01187839500058" lon="8.177479797481375"><ele>15.0</ele><time>2026-03-29T07:01:51.001Z</time></trkpt><trkpt lat="44.01180406136433" lon="8.17737590298816"><ele>15.0</ele><time>2026-03-29T07:01:52.001Z</time></trkpt><trkpt lat="44.011732427617794" lon="8.177274374384883"><ele>15.0</ele><time>2026-03-29T07:01:53.001Z</time></trkpt><trkpt lat="44.01166082299681" lon="8.177166083887485"><ele>15.0</ele><time>2026-03-29T07:01:54.001Z</time></trkpt><trkpt lat="44.01159100511441" lon="8.17705770440414"><ele>14.4</ele><time>2026-03-29T07:01:55.001Z</time></trkpt><trkpt lat="44.01152572639287" lon="8.17695738952713"><ele>13.8</ele><time>2026-03-29T07:01:56.001Z</time></trkpt><trkpt lat="44.01145892165711" lon="8.17685551644415"><ele>13.2</ele><time>2026-03-29T07:01:57.001Z</time></trkpt><trkpt lat="44.01139411222552" lon="8.17674979063072"><ele>12.6</ele><time>2026-03-29T07:01:58.001Z</time></trkpt><trkpt lat="44.01133115989" lon="8.176634751219181"><ele>12.0</ele><time>2026-03-29T07:01:59.001Z</time></trkpt><trkpt lat="44.01127046777448" lon="8.176512554741423"><ele>12.0</ele><time>2026-03-29T07:02:00.001Z</time></trkpt><trkpt lat="44.01121548443008" lon="8.176387003037648"><ele>12.0</ele><time>2026-03-29T07:02:01.001Z</time></trkpt><trkpt lat="44.01116386342047" lon="8.176248488681459"><ele>12.0</ele><time>2026-03-29T07:02:02.001Z</time></trkpt><trkpt lat="44.01111005690569" lon="8.176113468911346"><ele>12.0</ele><time>2026-03-29T07:02:03.001Z</time></trkpt><trkpt lat="44.01105859853403" lon="8.175975172138246"><ele>12.0</ele><time>2026-03-29T07:02:04.001Z</time></trkpt><trkpt lat="44.01100845026354" lon="8.17583981135555"><ele>12.0</ele><time>2026-03-29T07:02:05.001Z</time></trkpt><trkpt lat="44.01095525959736" lon="8.175705398736508"><ele>12.0</ele><time>2026-03-29T07:02:06Z</time></trkpt><trkpt lat="44.010894593936555" lon="8.17557140184642"><ele>12.0</ele><time>2026-03-29T07:02:07Z</time></trkpt><trkpt lat="44.01082752977727" lon="8.175441231607705"><ele>12.0</ele><time>2026-03-29T07:02:08Z</time></trkpt><trkpt lat="44.01075410763719" lon="8.175319159939434"><ele>11.75</ele><time>2026-03-29T07:02:09Z</time></trkpt><trkpt lat="44.010672036675636" lon="8.17520239160481"><ele>11.5</ele><time>2026-03-29T07:02:10Z</time></trkpt><trkpt lat="44.01058231426701" lon="8.175099147101221"><ele>11.25</ele><time>2026-03-29T07:02:11Z</time></trkpt><trkpt lat="44.01048694776892" lon="8.175004716488418"><ele>11.0</ele><time>2026-03-29T07:02:12Z</time></trkpt><trkpt lat="44.01038619528133" lon="8.174912913478726"><ele>11.75</ele><time>2026-03-29T07:02:13Z</time></trkpt><trkpt lat="44.010284530003915" lon="8.174821579381865"><ele>12.5</ele><time>2026-03-29T07:02:14Z</time></trkpt><trkpt lat="44.010180403792525" lon="8.174732761624371"><ele>13.25</ele><time>2026-03-29T07:02:15Z</time></trkpt><trkpt lat="44.010077104719784" lon="8.174648622963256"><ele>14.0</ele><time>2026-03-29T07:02:16Z</time></trkpt><trkpt lat="44.00997422607216" lon="8.17456763591123"><ele>14.25</ele><time>2026-03-29T07:02:17Z</time></trkpt><trkpt lat="44.00987135518174" lon="8.174484170429169"><ele>14.5</ele><time>2026-03-29T07:02:18Z</time></trkpt><trkpt lat="44.00976844071364" lon="8.17439458498415"><ele>14.75</ele><time>2026-03-29T07:02:19Z</time></trkpt><trkpt lat="44.00966650792339" lon="8.174304361197251"><ele>15.0</ele><time>2026-03-29T07:02:20Z</time></trkpt><trkpt lat="44.009562411834985" lon="8.174222413228511"><ele>15.0</ele><time>2026-03-29T07:02:21Z</time></trkpt><trkpt lat="44.00945632387328" lon="8.174139365797572"><ele>15.0</ele><time>2026-03-29T07:02:22Z</time></trkpt><trkpt lat="44.00935205381608" lon="8.1740609511424"><ele>15.0</ele><time>2026-03-29T07:02:23Z</time></trkpt><trkpt lat="44.0092679831463" lon="8.173977723634172"><ele>15.0</ele><time>2026-03-29T07:02:24Z</time></trkpt><trkpt lat="44.00918024774291" lon="8.173906164570122"><ele>15.0</ele><time>2026-03-29T07:02:25Z</time></trkpt><trkpt lat="44.00909889221068" lon="8.173849666397324"><ele>14.5</ele><time>2026-03-29T07:02:26Z</time></trkpt><trkpt lat="44.0090168889406" lon="8.17377737536846"><ele>14.0</ele><time>2026-03-29T07:02:27Z</time></trkpt><trkpt lat="44.008936412056045" lon="8.173705126052736"><ele>13.5</ele><time>2026-03-29T07:02:28Z</time></trkpt><trkpt lat="44.00886174364391" lon="8.173643072929048"><ele>13.0</ele><time>2026-03-29T07:02:29Z</time></trkpt><trkpt lat="44.00879697744674" lon="8.173593070688593"><ele>12.5</ele><time>2026-03-29T07:02:30Z</time></trkpt><trkpt lat="44.0087398574508" lon="8.17354872019552"><ele>12.0</ele><time>2026-03-29T07:02:31Z</time></trkpt><trkpt lat="44.008678905747246" lon="8.17349259569102"><ele>12.0</ele><time>2026-03-29T07:02:33Z</time></trkpt><trkpt lat="44.00862197829284" lon="8.173436407049333"><ele>12.0</ele><time>2026-03-29T07:02:37Z</time></trkpt><trkpt lat="44.00854994526684" lon="8.173544369997957"><ele>12.0</ele><time>2026-03-29T07:02:39Z</time></trkpt><trkpt lat="44.00853681970787" lon="8.173647791258604"><ele>12.0</ele><time>2026-03-29T07:02:40Z</time></trkpt><trkpt lat="44.00850822124941" lon="8.173733340849866"><ele>12.0</ele><time>2026-03-29T07:02:41Z</time></trkpt><trkpt lat="44.008479409627036" lon="8.17382150253557"><ele>12.0</ele><time>2026-03-29T07:02:42Z</time></trkpt><trkpt lat="44.008452340017726" lon="8.173906555279693"><ele>12.0</ele><time>2026-03-29T07:02:43Z</time></trkpt><trkpt lat="44.008420313263095" lon="8.17399300823057"><ele>12.0</ele><time>2026-03-29T07:02:44Z</time></trkpt><trkpt lat="44.00837396605898" lon="8.174132372583772"><ele>12.0</ele><time>2026-03-29T07:02:46Z</time></trkpt><trkpt lat="44.00833732527703" lon="8.174254504918617"><ele>12.0</ele><time>2026-03-29T07:02:48Z</time></trkpt><trkpt lat="44.00829482466332" lon="8.174366623429227"><ele>12.0</ele><time>2026-03-29T07:02:50Z</time></trkpt><trkpt lat="44.00830183429485" lon="8.174495137706652"><ele>12.6</ele><time>2026-03-29T07:02:52Z</time></trkpt><trkpt lat="44.00836354022775" lon="8.174601962538434"><ele>13.2</ele><time>2026-03-29T07:02:54Z</time></trkpt><trkpt lat="44.008443717187475" lon="8.174688184563022"><ele>13.8</ele><time>2026-03-29T07:02:56Z</time></trkpt><trkpt lat="44.008510875822225" lon="8.174772598632062"><ele>14.4</ele><time>2026-03-29T07:02:58Z</time></trkpt><trkpt lat="44.00839926721496" lon="8.174877417092294"><ele>15.0</ele><time>2026-03-29T07:03:05Z</time></trkpt><trkpt lat="44.008333676484476" lon="8.174905466073218"><ele>15.0</ele><time>2026-03-29T07:03:08Z</time></trkpt><trkpt lat="44.00831019950109" lon="8.174989286235618"><ele>15.0</ele><time>2026-03-29T07:03:12Z</time></trkpt><trkpt lat="44.00835145209999" lon="8.175071577525443"><ele>15.0</ele><time>2026-03-29T07:19:45Z</time></trkpt><trkpt lat="44.00840384777156" lon="8.175126471071682"><ele>15.0</ele><time>2026-03-29T07:19:50Z</time></trkpt><trkpt lat="44.00847959938792" lon="8.175123120487003"><ele>15.0</ele><time>2026-03-29T07:20:19Z</time></trkpt><trkpt lat="44.00854146047403" lon="8.175105955354043"><ele>15.0</ele><time>2026-03-29T07:20:24Z</time></trkpt><trkpt lat="44.008632336203" lon="8.175044685799715"><ele>15.0</ele><time>2026-03-29T07:21:07Z</time></trkpt><trkpt lat="44.00870052835898" lon="8.17501218275648"><ele>15.0</ele><time>2026-03-29T07:21:11Z</time></trkpt><trkpt lat="44.00876741168097" lon="8.175033175532157"><ele>15.0</ele><time>2026-03-29T07:21:13Z</time></trkpt><trkpt lat="44.00882362076154" lon="8.17495524402899"><ele>15.0</ele><time>2026-03-29T07:21:15Z</time></trkpt><trkpt lat="44.008864257148964" lon="8.174869110830887"><ele>15.0</ele><time>2026-03-29T07:21:17Z</time></trkpt><trkpt lat="44.00892007312781" lon="8.174796501596083"><ele>15.0</ele><time>2026-03-29T07:21:19Z</time></trkpt><trkpt lat="44.008881320214016" lon="8.174681623249134"><ele>15.0</ele><time>2026-03-29T07:21:22Z</time></trkpt><trkpt lat="44.008794352660885" lon="8.174583749342627"><ele>15.166666666666666</ele><time>2026-03-29T07:21:24Z</time></trkpt><trkpt lat="44.00869994168433" lon="8.174479165286899"><ele>15.333333333333332</ele><time>2026-03-29T07:21:26Z</time></trkpt><trkpt lat="44.00864816743929" lon="8.174413898980317"><ele>15.5</ele><time>2026-03-29T07:21:27Z</time></trkpt><trkpt lat="44.00858925423579" lon="8.17435916219891"><ele>15.666666666666666</ele><time>2026-03-29T07:21:28Z</time></trkpt><trkpt lat="44.00853531477688" lon="8.17429433497413"><ele>15.833333333333332</ele><time>2026-03-29T07:21:29Z</time></trkpt><trkpt lat="44.00845656685308" lon="8.174189158903257"><ele>16.0</ele><time>2026-03-29T07:21:31Z</time></trkpt><trkpt lat="44.00842702616587" lon="8.174076430492969"><ele>15.333333333333332</ele><time>2026-03-29T07:21:33Z</time></trkpt><trkpt lat="44.008471257442174" lon="8.17392983268836"><ele>14.666666666666666</ele><time>2026-03-29T07:21:35Z</time></trkpt><trkpt lat="44.00850681653642" lon="8.173848569979915"><ele>14.0</ele><time>2026-03-29T07:21:36Z</time></trkpt><trkpt lat="44.00853843505158" lon="8.173765870163118"><ele>13.333333333333332</ele><time>2026-03-29T07:21:37Z</time></trkpt><trkpt lat="44.00856566057288" lon="8.173680561077807"><ele>12.666666666666666</ele><time>2026-03-29T07:21:38Z</time></trkpt><trkpt lat="44.00859729464615" lon="8.17359918202948"><ele>12.0</ele><time>2026-03-29T07:21:39Z</time></trkpt><trkpt lat="44.00862063264329" lon="8.173477978378099"><ele>12.0</ele><time>2026-03-29T07:21:46Z</time></trkpt><trkpt lat="44.00856387193446" lon="8.173326195478992"><ele>12.0</ele><time>2026-03-29T07:21:48Z</time></trkpt><trkpt lat="44.00850399747008" lon="8.173257455391138"><ele>12.0</ele><time>2026-03-29T07:21:49Z</time></trkpt><trkpt lat="44.00843593608794" lon="8.173183978728769"><ele>12.0</ele><time>2026-03-29T07:21:50Z</time></trkpt><trkpt lat="44.008368709779205" lon="8.173096011539439"><ele>12.0</ele><time>2026-03-29T07:21:51Z</time></trkpt><trkpt lat="44.00830012894372" lon="8.173004228903823"><ele>11.6</ele><time>2026-03-29T07:21:52Z</time></trkpt><trkpt lat="44.008239172142964" lon="8.172916483945341"><ele>11.2</ele><time>2026-03-29T07:21:53Z</time></trkpt><trkpt lat="44.00816180861741" lon="8.172815159050712"><ele>10.8</ele><time>2026-03-29T07:21:54Z</time></trkpt><trkpt lat="44.00809139304029" lon="8.172734249567961"><ele>10.4</ele><time>2026-03-29T07:21:55Z</time></trkpt><trkpt lat="44.00802465890172" lon="8.172653137287043"><ele>10.0</ele><time>2026-03-29T07:21:56Z</time></trkpt><trkpt lat="44.007954755318536" lon="8.172569449619107"><ele>10.0</ele><time>2026-03-29T07:21:57Z</time></trkpt><trkpt lat="44.00788235872762" lon="8.172488935129328"><ele>10.0</ele><time>2026-03-29T07:21:58Z</time></trkpt><trkpt lat="44.00781393950489" lon="8.172403911465425"><ele>10.0</ele><time>2026-03-29T07:21:59Z</time></trkpt><trkpt lat="44.00775069944142" lon="8.172329248142008"><ele>10.0</ele><time>2026-03-29T07:22:00Z</time></trkpt><trkpt lat="44.007696899493986" lon="8.172261150829549"><ele>10.0</ele><time>2026-03-29T07:22:01Z</time></trkpt><trkpt lat="44.00762622391561" lon="8.172155190152278"><ele>10.0</ele><time>2026-03-29T07:22:03Z</time></trkpt><trkpt lat="44.00757560151996" lon="8.172040410177699"><ele>10.166666666666668</ele><time>2026-03-29T07:22:05Z</time></trkpt><trkpt lat="44.007520353508085" lon="8.171933585801993"><ele>10.333333333333334</ele><time>2026-03-29T07:22:07Z</time></trkpt><trkpt lat="44.00745500800084" lon="8.171840536590892"><ele>10.5</ele><time>2026-03-29T07:22:09Z</time></trkpt><trkpt lat="44.007408131109436" lon="8.171768046612378"><ele>10.666666666666666</ele><time>2026-03-29T07:22:11Z</time></trkpt><trkpt lat="44.00733889901154" lon="8.171720211220242"><ele>10.833333333333332</ele><time>2026-03-29T07:22:38Z</time></trkpt><trkpt lat="44.00723303155426" lon="8.171672722625113"><ele>11.0</ele><time>2026-03-29T07:22:40Z</time></trkpt><trkpt lat="44.00718020104876" lon="8.171607420069462"><ele>11.0</ele><time>2026-03-29T07:22:41Z</time></trkpt><trkpt lat="44.00711772717468" lon="8.1715362771179"><ele>11.0</ele><time>2026-03-29T07:22:42Z</time></trkpt><trkpt lat="44.00705608173597" lon="8.171463581807004"><ele>11.0</ele><time>2026-03-29T07:22:43Z</time></trkpt><trkpt lat="44.00698204612032" lon="8.171383121963025"><ele>11.0</ele><time>2026-03-29T07:22:44Z</time></trkpt><trkpt lat="44.00690935022412" lon="8.171299455856051"><ele>11.0</ele><time>2026-03-29T07:22:45Z</time></trkpt><trkpt lat="44.00684378738381" lon="8.171222983439446"><ele>11.0</ele><time>2026-03-29T07:22:46Z</time></trkpt><trkpt lat="44.006774662401824" lon="8.171144068408331"><ele>11.200000000000001</ele><time>2026-03-29T07:22:47Z</time></trkpt><trkpt lat="44.00669585976467" lon="8.171058134328126"><ele>11.4</ele><time>2026-03-29T07:22:48Z</time></trkpt><trkpt lat="44.00661570074697" lon="8.170964403719303"><ele>11.6</ele><time>2026-03-29T07:22:49Z</time></trkpt><trkpt lat="44.00653829838451" lon="8.170869009100034"><ele>11.8</ele><time>2026-03-29T07:22:50Z</time></trkpt><trkpt lat="44.00646414048308" lon="8.170776041548894"><ele>12.0</ele><time>2026-03-29T07:22:51Z</time></trkpt><trkpt lat="44.00638881742841" lon="8.170686127711633"><ele>11.2</ele><time>2026-03-29T07:22:52Z</time></trkpt><trkpt lat="44.00631876317773" lon="8.170596609433007"><ele>10.399999999999999</ele><time>2026-03-29T07:22:53Z</time></trkpt><trkpt lat="44.006247593814294" lon="8.17050592223172"><ele>9.600000000000001</ele><time>2026-03-29T07:22:54Z</time></trkpt><trkpt lat="44.006176678945316" lon="8.17041397167618"><ele>8.8</ele><time>2026-03-29T07:22:55Z</time></trkpt><trkpt lat="44.00610489997298" lon="8.170321325104672"><ele>8.0</ele><time>2026-03-29T07:22:56Z</time></trkpt><trkpt lat="44.00603144886829" lon="8.170232138975425"><ele>8.0</ele><time>2026-03-29T07:22:57Z</time></trkpt><trkpt lat="44.00595590287213" lon="8.170144425335758"><ele>8.0</ele><time>2026-03-29T07:22:58Z</time></trkpt><trkpt lat="44.00588012985503" lon="8.170051429589618"><ele>8.0</ele><time>2026-03-29T07:22:59Z</time></trkpt><trkpt lat="44.00580367741258" lon="8.16995610780372"><ele>8.0</ele><time>2026-03-29T07:23:00Z</time></trkpt><trkpt lat="44.005726531647916" lon="8.169860255882831"><ele>8.0</ele><time>2026-03-29T07:23:01Z</time></trkpt><trkpt lat="44.00564977543252" lon="8.169762776882239"><ele>8.200000000000001</ele><time>2026-03-29T07:23:02Z</time></trkpt><trkpt lat="44.00557024508268" lon="8.169668693401452"><ele>8.4</ele><time>2026-03-29T07:23:03Z</time></trkpt><trkpt lat="44.005487682354776" lon="8.169575313286101"><ele>8.600000000000001</ele><time>2026-03-29T07:23:04Z</time></trkpt><trkpt lat="44.00540820297195" lon="8.169478987264647"><ele>8.8</ele><time>2026-03-29T07:23:05Z</time></trkpt><trkpt lat="44.005327886111196" lon="8.169382634523839"><ele>9.0</ele><time>2026-03-29T07:23:06Z</time></trkpt><trkpt lat="44.00524483053184" lon="8.169290031317269"><ele>9.0</ele><time>2026-03-29T07:23:07Z</time></trkpt><trkpt lat="44.00516566196298" lon="8.169197550468812"><ele>9.0</ele><time>2026-03-29T07:23:08Z</time></trkpt><trkpt lat="44.005106814927856" lon="8.169097173158477"><ele>9.0</ele><time>2026-03-29T07:23:09Z</time></trkpt><trkpt lat="44.00504565466385" lon="8.169048625648534"><ele>9.0</ele><time>2026-03-29T07:23:10Z</time></trkpt><trkpt lat="44.00498748065259" lon="8.168972689492735"><ele>9.0</ele><time>2026-03-29T07:23:12Z</time></trkpt><trkpt lat="44.00493503768158" lon="8.16890958768737"><ele>9.0</ele><time>2026-03-29T07:23:16Z</time></trkpt><trkpt lat="44.00488403519885" lon="8.168840509266266"><ele>9.2</ele><time>2026-03-29T07:23:19Z</time></trkpt><trkpt lat="44.00478292420376" lon="8.168867699965993"><ele>9.4</ele><time>2026-03-29T07:23:21Z</time></trkpt><trkpt lat="44.00486053830872" lon="8.168754594781007"><ele>9.6</ele><time>2026-03-29T07:23:47Z</time></trkpt><trkpt lat="44.00482753800574" lon="8.168674872860404"><ele>9.8</ele><time>2026-03-29T07:23:58Z</time></trkpt><trkpt lat="44.00473953281801" lon="8.168659061893798"><ele>10.0</ele><time>2026-03-29T07:25:12Z</time></trkpt><trkpt lat="44.004641929804535" lon="8.168648952626949"><ele>10.0</ele><time>2026-03-29T07:25:13Z</time></trkpt><trkpt lat="44.004579530726154" lon="8.16860264942236"><ele>10.0</ele><time>2026-03-29T07:25:14Z</time></trkpt><trkpt lat="44.00448875683857" lon="8.16855919647326"><ele>10.0</ele><time>2026-03-29T07:25:15Z</time></trkpt><trkpt lat="44.00443666799235" lon="8.168382929617716"><ele>10.0</ele><time>2026-03-29T07:25:16Z</time></trkpt><trkpt lat="44.004393471054605" lon="8.168215881010989"><ele>10.0</ele><time>2026-03-29T07:25:17Z</time></trkpt><trkpt lat="44.00431310821554" lon="8.16811785175929"><ele>10.5</ele><time>2026-03-29T07:25:18Z</time></trkpt><trkpt lat="44.00420847088121" lon="8.168056955131863"><ele>11.0</ele><time>2026-03-29T07:25:19Z</time></trkpt><trkpt lat="44.00412774592468" lon="8.167964429483698"><ele>11.5</ele><time>2026-03-29T07:25:20Z</time></trkpt><trkpt lat="44.00402933065995" lon="8.167887039117259"><ele>12.0</ele><time>2026-03-29T07:25:21Z</time></trkpt><trkpt lat="44.00392079476014" lon="8.167819215604824"><ele>12.2</ele><time>2026-03-29T07:25:22Z</time></trkpt><trkpt lat="44.003810808802776" lon="8.167763514276615"><ele>12.399999999999999</ele><time>2026-03-29T07:25:23Z</time></trkpt><trkpt lat="44.00371852665746" lon="8.167704359542352"><ele>12.600000000000001</ele><time>2026-03-29T07:25:24Z</time></trkpt><trkpt lat="44.00365704663573" lon="8.167660142210584"><ele>12.8</ele><time>2026-03-29T07:25:25Z</time></trkpt><trkpt lat="44.003564286786364" lon="8.167583069965957"><ele>13.0</ele><time>2026-03-29T07:25:34Z</time></trkpt><trkpt lat="44.00349287951226" lon="8.16755452157989"><ele>12.999999999999998</ele><time>2026-03-29T07:25:35Z</time></trkpt><trkpt lat="44.00341706795466" lon="8.167507808987091"><ele>13.0</ele><time>2026-03-29T07:25:36Z</time></trkpt><trkpt lat="44.00334951277066" lon="8.16742450678176"><ele>13.0</ele><time>2026-03-29T07:25:37Z</time></trkpt><trkpt lat="44.00327794153738" lon="8.167371040662589"><ele>13.0</ele><time>2026-03-29T07:25:38Z</time></trkpt><trkpt lat="44.0031900197517" lon="8.167305805080694"><ele>12.999999999999998</ele><time>2026-03-29T07:25:39Z</time></trkpt><trkpt lat="44.003100791045654" lon="8.167259903057234"><ele>13.0</ele><time>2026-03-29T07:25:40Z</time></trkpt><trkpt lat="44.00301067031461" lon="8.167186507336243"><ele>12.8</ele><time>2026-03-29T07:25:41Z</time></trkpt><trkpt lat="44.002920531085856" lon="8.167104417823888"><ele>12.600000000000001</ele><time>2026-03-29T07:25:42Z</time></trkpt><trkpt lat="44.002822720074974" lon="8.167031110979984"><ele>12.399999999999999</ele><time>2026-03-29T07:25:43Z</time></trkpt><trkpt lat="44.002750128191316" lon="8.1669769465877"><ele>12.2</ele><time>2026-03-29T07:25:44Z</time></trkpt><trkpt lat="44.002683246848676" lon="8.166925503746006"><ele>12.0</ele><time>2026-03-29T07:25:46Z</time></trkpt><trkpt lat="44.00267318270713" lon="8.166824011678044"><ele>12.0</ele><time>2026-03-29T07:25:49Z</time></trkpt><trkpt lat="44.002757521989594" lon="8.16666660690504"><ele>12.0</ele><time>2026-03-29T07:25:51Z</time></trkpt><trkpt lat="44.002820553489116" lon="8.166557835961536"><ele>12.0</ele><time>2026-03-29T07:25:52Z</time></trkpt><trkpt lat="44.002877524026" lon="8.166463099228789"><ele>12.0</ele><time>2026-03-29T07:25:53Z</time></trkpt><trkpt lat="44.00292463350406" lon="8.1663573924849"><ele>12.0</ele><time>2026-03-29T07:25:54Z</time></trkpt><trkpt lat="44.00297076891576" lon="8.16624515880161"><ele>11.8</ele><time>2026-03-29T07:25:55Z</time></trkpt><trkpt lat="44.00301970927203" lon="8.166144148202969"><ele>11.6</ele><time>2026-03-29T07:25:56Z</time></trkpt><trkpt lat="44.00307570745575" lon="8.166035367698598"><ele>11.4</ele><time>2026-03-29T07:25:57Z</time></trkpt><trkpt lat="44.003135612226686" lon="8.1659316801246"><ele>11.200000000000001</ele><time>2026-03-29T07:25:58Z</time></trkpt><trkpt lat="44.00319383828956" lon="8.165822900855662"><ele>11.0</ele><time>2026-03-29T07:25:59Z</time></trkpt><trkpt lat="44.00324200176065" lon="8.165712556407918"><ele>11.0</ele><time>2026-03-29T07:26:00Z</time></trkpt><trkpt lat="44.00328962855146" lon="8.165621220718403"><ele>11.0</ele><time>2026-03-29T07:26:01Z</time></trkpt><trkpt lat="44.003331579722854" lon="8.16552729685589"><ele>11.0</ele><time>2026-03-29T07:26:02Z</time></trkpt><trkpt lat="44.00337619982507" lon="8.165435154674519"><ele>11.0</ele><time>2026-03-29T07:26:03Z</time></trkpt><trkpt lat="44.00341102412253" lon="8.165357097278875"><ele>11.0</ele><time>2026-03-29T07:26:04Z</time></trkpt><trkpt lat="44.00348548301897" lon="8.165228830602944"><ele>11.0</ele><time>2026-03-29T07:26:06Z</time></trkpt><trkpt lat="44.00361520670635" lon="8.165281801846856"><ele>11.0</ele><time>2026-03-29T07:26:09Z</time></trkpt><trkpt lat="44.00369359943047" lon="8.165322195424665"><ele>11.0</ele><time>2026-03-29T07:26:10Z</time></trkpt><trkpt lat="44.00375286501609" lon="8.165363592866976"><ele>11.0</ele><time>2026-03-29T07:26:11Z</time></trkpt><trkpt lat="44.003854974632134" lon="8.165339382085307"><ele>11.0</ele><time>2026-03-29T07:26:13Z</time></trkpt><trkpt lat="44.003904207697424" lon="8.165189949252909"><ele>11.0</ele><time>2026-03-29T07:26:15Z</time></trkpt><trkpt lat="44.003937164875204" lon="8.165105737745698"><ele>11.0</ele><time>2026-03-29T07:26:16Z</time></trkpt><trkpt lat="44.00397294408858" lon="8.16499903219996"><ele>11.0</ele><time>2026-03-29T07:26:17Z</time></trkpt><trkpt lat="44.004016412626775" lon="8.164883176117728"><ele>11.0</ele><time>2026-03-29T07:26:18Z</time></trkpt><trkpt lat="44.00406943809999" lon="8.164771792935275"><ele>11.0</ele><time>2026-03-29T07:26:19Z</time></trkpt><trkpt lat="44.00413380833577" lon="8.164664621252633"><ele>11.0</ele><time>2026-03-29T07:26:20Z</time></trkpt><trkpt lat="44.00420550528083" lon="8.164558850502242"><ele>11.0</ele><time>2026-03-29T07:26:21Z</time></trkpt><trkpt lat="44.0042785909437" lon="8.164449668594573"><ele>11.200000000000001</ele><time>2026-03-29T07:26:22Z</time></trkpt><trkpt lat="44.004351480087536" lon="8.164338882536738"><ele>11.4</ele><time>2026-03-29T07:26:23Z</time></trkpt><trkpt lat="44.004424020102725" lon="8.16422447203002"><ele>11.6</ele><time>2026-03-29T07:26:24Z</time></trkpt><trkpt lat="44.00449809967647" lon="8.164104422201866"><ele>11.8</ele><time>2026-03-29T07:26:25Z</time></trkpt><trkpt lat="44.00456982765722" lon="8.163981715942445"><ele>12.0</ele><time>2026-03-29T07:26:26Z</time></trkpt><trkpt lat="44.004632894939306" lon="8.163859386831454"><ele>14.2</ele><time>2026-03-29T07:26:27Z</time></trkpt><trkpt lat="44.00468105314219" lon="8.163746688714891"><ele>16.4</ele><time>2026-03-29T07:26:28Z</time></trkpt><trkpt lat="44.004715086855875" lon="8.163633174350768"><ele>18.599999999999998</ele><time>2026-03-29T07:26:29Z</time></trkpt><trkpt lat="44.00475747610588" lon="8.163517312428151"><ele>20.799999999999997</ele><time>2026-03-29T07:26:30Z</time></trkpt><trkpt lat="44.00482092233779" lon="8.163425959069382"><ele>23.0</ele><time>2026-03-29T07:26:31Z</time></trkpt><trkpt lat="44.00489283793118" lon="8.163347039099545"><ele>23.0</ele><time>2026-03-29T07:26:32Z</time></trkpt><trkpt lat="44.004963838763395" lon="8.163278523231376"><ele>23.0</ele><time>2026-03-29T07:26:33Z</time></trkpt><trkpt lat="44.00503414298684" lon="8.163205572915851"><ele>23.0</ele><time>2026-03-29T07:26:34Z</time></trkpt><trkpt lat="44.005102993791155" lon="8.163132072209647"><ele>23.0</ele><time>2026-03-29T07:26:35Z</time></trkpt><trkpt lat="44.005173097172865" lon="8.163082947467519"><ele>23.0</ele><time>2026-03-29T07:26:36Z</time></trkpt><trkpt lat="44.00524223451661" lon="8.163043588444589"><ele>23.0</ele><time>2026-03-29T07:26:37Z</time></trkpt><trkpt lat="44.00534187062343" lon="8.163070456049677"><ele>23.666666666666668</ele><time>2026-03-29T07:26:38Z</time></trkpt><trkpt lat="44.005420244428485" lon="8.163045104673524"><ele>24.333333333333336</ele><time>2026-03-29T07:26:39Z</time></trkpt><trkpt lat="44.00547371547337" lon="8.162987245408893"><ele>25.0</ele><time>2026-03-29T07:26:40Z</time></trkpt><trkpt lat="44.00550096136637" lon="8.162893147125665"><ele>25.666666666666668</ele><time>2026-03-29T07:26:41Z</time></trkpt><trkpt lat="44.00549332824561" lon="8.16278720550267"><ele>26.333333333333332</ele><time>2026-03-29T07:26:42Z</time></trkpt><trkpt lat="44.00545572027639" lon="8.162684958262446"><ele>27.0</ele><time>2026-03-29T07:26:43Z</time></trkpt><trkpt lat="44.00542020348955" lon="8.1625767645302"><ele>27.0</ele><time>2026-03-29T07:26:44Z</time></trkpt><trkpt lat="44.00542392543292" lon="8.16246264526599"><ele>27.000000000000004</ele><time>2026-03-29T07:26:45Z</time></trkpt><trkpt lat="44.00546348894979" lon="8.162337928687391"><ele>27.000000000000004</ele><time>2026-03-29T07:26:46Z</time></trkpt><trkpt lat="44.005530547714045" lon="8.162208667652529"><ele>27.0</ele><time>2026-03-29T07:26:47Z</time></trkpt><trkpt lat="44.00562208942114" lon="8.162058109874843"><ele>27.0</ele><time>2026-03-29T07:26:48Z</time></trkpt><trkpt lat="44.00572072449065" lon="8.161887942837211"><ele>28.0</ele><time>2026-03-29T07:26:49Z</time></trkpt><trkpt lat="44.00583668671944" lon="8.161689888848624"><ele>29.0</ele><time>2026-03-29T07:26:50Z</time></trkpt><trkpt lat="44.00595650539347" lon="8.161495659052953"><ele>30.0</ele><time>2026-03-29T07:26:51Z</time></trkpt><trkpt lat="44.006064787337806" lon="8.161281923258318"><ele>36.33333333333333</ele><time>2026-03-29T07:26:52Z</time></trkpt><trkpt lat="44.006151534459" lon="8.161041946776194"><ele>42.666666666666664</ele><time>2026-03-29T07:26:53Z</time></trkpt><trkpt lat="44.006222702978185" lon="8.160781625638785"><ele>49.0</ele><time>2026-03-29T07:26:54Z</time></trkpt><trkpt lat="44.00629388158242" lon="8.16052472167785"><ele>54.33333333333333</ele><time>2026-03-29T07:26:55Z</time></trkpt><trkpt lat="44.006364945821005" lon="8.16028129497894"><ele>59.66666666666667</ele><time>2026-03-29T07:26:56Z</time></trkpt><trkpt lat="44.006456216969966" lon="8.15998764213371"><ele>65.0</ele><time>2026-03-29T07:26:57Z</time></trkpt><trkpt lat="44.006515649893316" lon="8.159694058029055"><ele>62.0</ele><time>2026-03-29T07:26:58Z</time></trkpt><trkpt lat="44.00659187588796" lon="8.159422034167548"><ele>59.0</ele><time>2026-03-29T07:26:59Z</time></trkpt><trkpt lat="44.006665848016105" lon="8.159141745159523"><ele>56.0</ele><time>2026-03-29T07:27:00Z</time></trkpt><trkpt lat="44.0067368485217" lon="8.158856949802702"><ele>56.0</ele><time>2026-03-29T07:27:01Z</time></trkpt><trkpt lat="44.00680784351523" lon="8.15857063398189"><ele>56.0</ele><time>2026-03-29T07:27:02Z</time></trkpt><trkpt lat="44.00688111038185" lon="8.158285049181215"><ele>56.0</ele><time>2026-03-29T07:27:03Z</time></trkpt><trkpt lat="44.00695595326915" lon="8.158001266207712"><ele>63.333333333333336</ele><time>2026-03-29T07:27:04Z</time></trkpt><trkpt lat="44.00702786234661" lon="8.157715845827573"><ele>70.66666666666667</ele><time>2026-03-29T07:27:05Z</time></trkpt><trkpt lat="44.00709898109546" lon="8.157429817144862"><ele>78.0</ele><time>2026-03-29T07:27:06Z</time></trkpt><trkpt lat="44.00716750614389" lon="8.157142793475007"><ele>81.66666666666667</ele><time>2026-03-29T07:27:07Z</time></trkpt><trkpt lat="44.00722446632324" lon="8.156853150806011"><ele>85.33333333333334</ele><time>2026-03-29T07:27:08Z</time></trkpt><trkpt lat="44.0072653609094" lon="8.156536112099017"><ele>89.0</ele><time>2026-03-29T07:27:09.073Z</time></trkpt><trkpt lat="44.00728585985561" lon="8.156232409909803"><ele>89.0</ele><time>2026-03-29T07:27:10.062Z</time></trkpt><trkpt lat="44.00728706508161" lon="8.155922666014241"><ele>89.0</ele><time>2026-03-29T07:27:11.062Z</time></trkpt><trkpt lat="44.00748897462086" lon="8.156243475945082"><ele>87.0</ele><time>2026-03-29T07:27:12.3Z</time></trkpt><trkpt lat="44.00726823001229" lon="8.155334484967868"><ele>87.0</ele><time>2026-03-29T07:27:13Z</time></trkpt><trkpt lat="44.007269879592386" lon="8.155015624397118"><ele>87.0</ele><time>2026-03-29T07:27:14Z</time></trkpt><trkpt lat="44.00725865770953" lon="8.154724612908007"><ele>87.0</ele><time>2026-03-29T07:27:15Z</time></trkpt><trkpt lat="44.00725164000435" lon="8.154414438548086"><ele>87.33333333333333</ele><time>2026-03-29T07:27:16Z</time></trkpt><trkpt lat="44.00725451033947" lon="8.154103958748673"><ele>87.66666666666666</ele><time>2026-03-29T07:27:17Z</time></trkpt><trkpt lat="44.007261566056755" lon="8.1537957378978"><ele>88.0</ele><time>2026-03-29T07:27:18Z</time></trkpt><trkpt lat="44.007272439241454" lon="8.153485978221234"><ele>98.0</ele><time>2026-03-29T07:27:19Z</time></trkpt><trkpt lat="44.007287112831335" lon="8.153173780502966"><ele>108.0</ele><time>2026-03-29T07:27:20Z</time></trkpt><trkpt lat="44.007307360595014" lon="8.152858367928214"><ele>108.0</ele><time>2026-03-29T07:27:21Z</time></trkpt><trkpt lat="44.007333983002084" lon="8.15254582865332"><ele>108.0</ele><time>2026-03-29T07:27:22Z</time></trkpt><trkpt lat="44.007364529149555" lon="8.15223608032932"><ele>115.33333333333334</ele><time>2026-03-29T07:27:23Z</time></trkpt><trkpt lat="44.00740091211179" lon="8.151927468964136"><ele>122.66666666666667</ele><time>2026-03-29T07:27:24Z</time></trkpt><trkpt lat="44.00744153244804" lon="8.151620577259342"><ele>130.0</ele><time>2026-03-29T07:27:25Z</time></trkpt><trkpt lat="44.007489489750625" lon="8.151316448838323"><ele>129.33333333333334</ele><time>2026-03-29T07:27:26Z</time></trkpt><trkpt lat="44.00754283791972" lon="8.151013525222165"><ele>128.66666666666666</ele><time>2026-03-29T07:27:27Z</time></trkpt><trkpt lat="44.00759828371976" lon="8.150710579701023"><ele>128.0</ele><time>2026-03-29T07:27:28Z</time></trkpt><trkpt lat="44.00766164162437" lon="8.150394071935617"><ele>128.0</ele><time>2026-03-29T07:27:29.06Z</time></trkpt><trkpt lat="44.00772627075799" lon="8.150102842847437"><ele>128.0</ele><time>2026-03-29T07:27:30.049Z</time></trkpt><trkpt lat="44.00779386934072" lon="8.149809328665686"><ele>128.0</ele><time>2026-03-29T07:27:31.05Z</time></trkpt><trkpt lat="44.00896913237433" lon="8.146534762626708"><ele>227.0</ele><time>2026-03-29T07:27:35.252Z</time></trkpt><trkpt lat="44.00933703551749" lon="8.14582642518134"><ele>259.0</ele><time>2026-03-29T07:27:36.252Z</time></trkpt><trkpt lat="44.00974362093188" lon="8.145160094874486"><ele>276.0</ele><time>2026-03-29T07:27:37.252Z</time></trkpt><trkpt lat="44.01016935944462" lon="8.144516841029464"><ele>305.0</ele><time>2026-03-29T07:27:38.252Z</time></trkpt><trkpt lat="44.0106280153632" lon="8.143918661179711"><ele>296.0</ele><time>2026-03-29T07:27:39.252Z</time></trkpt><trkpt lat="44.01111004928594" lon="8.143357320016221"><ele>332.0</ele><time>2026-03-29T07:27:40.252Z</time></trkpt><trkpt lat="44.011617194430464" lon="8.142839488860675"><ele>329.5</ele><time>2026-03-29T07:27:41.252Z</time></trkpt><trkpt lat="44.0117861" lon="8.1426772"><ele>327.0</ele><time>2026-03-29T07:27:42.252Z</time></trkpt><trkpt lat="44.02296984733264" lon="8.130170656923635"><ele>273.75</ele><time>2026-03-29T07:29:20Z</time></trkpt><trkpt lat="44.023092255690706" lon="8.130165513525492"><ele>220.5</ele><time>2026-03-29T07:29:21Z</time></trkpt><trkpt lat="44.023245768056405" lon="8.130127248909393"><ele>167.25</ele><time>2026-03-29T07:29:22Z</time></trkpt><trkpt lat="44.0233990693247" lon="8.130106670871864"><ele>114.0</ele><time>2026-03-29T07:29:23Z</time></trkpt><trkpt lat="44.02356506730132" lon="8.130092374264452"><ele>114.0</ele><time>2026-03-29T07:29:24Z</time></trkpt><trkpt lat="44.02373574901289" lon="8.130084327118844"><ele>114.0</ele><time>2026-03-29T07:29:24.999Z</time></trkpt><trkpt lat="44.023911095692974" lon="8.130098186127384"><ele>114.0</ele><time>2026-03-29T07:29:26Z</time></trkpt><trkpt lat="44.0240878270324" lon="8.130113008079794"><ele>113.66666666666666</ele><time>2026-03-29T07:29:27Z</time></trkpt><trkpt lat="44.02426504869706" lon="8.130129146258088"><ele>113.33333333333333</ele><time>2026-03-29T07:29:28Z</time></trkpt><trkpt lat="44.024444807716264" lon="8.130138702368457"><ele>113.0</ele><time>2026-03-29T07:29:29Z</time></trkpt><trkpt lat="44.0246235480199" lon="8.130146098188806"><ele>113.0</ele><time>2026-03-29T07:29:30Z</time></trkpt><trkpt lat="44.02480233442808" lon="8.130157397219117"><ele>113.0</ele><time>2026-03-29T07:29:31Z</time></trkpt><trkpt lat="44.02498118629341" lon="8.130165168881295"><ele>113.0</ele><time>2026-03-29T07:29:32Z</time></trkpt><trkpt lat="44.025162433879444" lon="8.130169273579641"><ele>112.0</ele><time>2026-03-29T07:29:33Z</time></trkpt><trkpt lat="44.02534279147427" lon="8.130193612666947"><ele>111.0</ele><time>2026-03-29T07:29:34Z</time></trkpt><trkpt lat="44.02552421906779" lon="8.13021912888506"><ele>110.0</ele><time>2026-03-29T07:29:35Z</time></trkpt><trkpt lat="44.025699910940695" lon="8.130262822579072"><ele>106.66666666666666</ele><time>2026-03-29T07:29:36Z</time></trkpt><trkpt lat="44.025881380429325" lon="8.13031202075339"><ele>103.33333333333334</ele><time>2026-03-29T07:29:37Z</time></trkpt><trkpt lat="44.02605924568797" lon="8.130372979745658"><ele>100.0</ele><time>2026-03-29T07:29:38Z</time></trkpt><trkpt lat="44.02623764411905" lon="8.130445311444491"><ele>100.0</ele><time>2026-03-29T07:29:39Z</time></trkpt><trkpt lat="44.02641332750687" lon="8.130519333796322"><ele>100.0</ele><time>2026-03-29T07:29:40Z</time></trkpt><trkpt lat="44.026589763081695" lon="8.13059358903202"><ele>100.0</ele><time>2026-03-29T07:29:41Z</time></trkpt><trkpt lat="44.02676444337702" lon="8.130669996064618"><ele>104.0</ele><time>2026-03-29T07:29:42Z</time></trkpt><trkpt lat="44.02693882486398" lon="8.130746186245611"><ele>108.0</ele><time>2026-03-29T07:29:43Z</time></trkpt><trkpt lat="44.027112327003195" lon="8.130816203131545"><ele>112.0</ele><time>2026-03-29T07:29:44Z</time></trkpt><trkpt lat="44.02728391266089" lon="8.130891709755334"><ele>112.0</ele><time>2026-03-29T07:29:45Z</time></trkpt><trkpt lat="44.027454866909515" lon="8.1309671659212"><ele>112.0</ele><time>2026-03-29T07:29:46Z</time></trkpt><trkpt lat="44.02762674371327" lon="8.131043939806743"><ele>112.0</ele><time>2026-03-29T07:29:47Z</time></trkpt><trkpt lat="44.027799645801046" lon="8.13111620370945"><ele>109.66666666666667</ele><time>2026-03-29T07:29:48Z</time></trkpt><trkpt lat="44.02797347508953" lon="8.131189976244674"><ele>107.33333333333334</ele><time>2026-03-29T07:29:49Z</time></trkpt><trkpt lat="44.028146292537855" lon="8.131266757896654"><ele>105.0</ele><time>2026-03-29T07:29:50Z</time></trkpt><trkpt lat="44.028315661554316" lon="8.131338392451584"><ele>104.0</ele><time>2026-03-29T07:29:51Z</time></trkpt><trkpt lat="44.02848638840164" lon="8.131411699449615"><ele>103.0</ele><time>2026-03-29T07:29:52Z</time></trkpt><trkpt lat="44.02865712683595" lon="8.131482626633085"><ele>102.0</ele><time>2026-03-29T07:29:53Z</time></trkpt><trkpt lat="44.02882699220068" lon="8.131554804153739"><ele>100.33333333333334</ele><time>2026-03-29T07:29:54Z</time></trkpt><trkpt lat="44.0289969316047" lon="8.131631286164327"><ele>98.66666666666667</ele><time>2026-03-29T07:29:55Z</time></trkpt><trkpt lat="44.029171311006806" lon="8.131707331304286"><ele>97.0</ele><time>2026-03-29T07:29:56Z</time></trkpt><trkpt lat="44.02935033105849" lon="8.131784550882902"><ele>97.0</ele><time>2026-03-29T07:29:57Z</time></trkpt><trkpt lat="44.029532772853706" lon="8.131863291390133"><ele>97.0</ele><time>2026-03-29T07:29:58Z</time></trkpt><trkpt lat="44.029716694966645" lon="8.131943023900046"><ele>97.0</ele><time>2026-03-29T07:29:59Z</time></trkpt><trkpt lat="44.02990118444371" lon="8.132024575868606"><ele>97.33333333333334</ele><time>2026-03-29T07:30:00Z</time></trkpt><trkpt lat="44.03008754849076" lon="8.132110063877873"><ele>97.66666666666666</ele><time>2026-03-29T07:30:01Z</time></trkpt><trkpt lat="44.03027226657026" lon="8.132160585904389"><ele>98.0</ele><time>2026-03-29T07:30:02Z</time></trkpt><trkpt lat="44.030443831233434" lon="8.13227050123548"><ele>98.0</ele><time>2026-03-29T07:30:03Z</time></trkpt><trkpt lat="44.03061656754202" lon="8.132351955829037"><ele>98.0</ele><time>2026-03-29T07:30:04Z</time></trkpt><trkpt lat="44.030798817410066" lon="8.132429104266068"><ele>98.0</ele><time>2026-03-29T07:30:05Z</time></trkpt><trkpt lat="44.030985203233584" lon="8.132505624296549"><ele>98.33333333333333</ele><time>2026-03-29T07:30:06Z</time></trkpt><trkpt lat="44.031175046301776" lon="8.132588819705306"><ele>98.66666666666666</ele><time>2026-03-29T07:30:07Z</time></trkpt><trkpt lat="44.0313677868658" lon="8.132673142771015"><ele>99.0</ele><time>2026-03-29T07:30:08Z</time></trkpt><trkpt lat="44.031560433599864" lon="8.132756093483117"><ele>97.0</ele><time>2026-03-29T07:30:09Z</time></trkpt><trkpt lat="44.03175352841794" lon="8.132837307432219"><ele>95.0</ele><time>2026-03-29T07:30:10Z</time></trkpt><trkpt lat="44.03194430962269" lon="8.132913395113455"><ele>93.0</ele><time>2026-03-29T07:30:11Z</time></trkpt><trkpt lat="44.03213512787518" lon="8.132982724405782"><ele>93.0</ele><time>2026-03-29T07:30:12Z</time></trkpt><trkpt lat="44.03232990454857" lon="8.133031163111584"><ele>93.0</ele><time>2026-03-29T07:30:13Z</time></trkpt><trkpt lat="44.03252544545734" lon="8.133064594424637"><ele>93.0</ele><time>2026-03-29T07:30:14Z</time></trkpt><trkpt lat="44.03272574094996" lon="8.133083490495151"><ele>87.0</ele><time>2026-03-29T07:30:15Z</time></trkpt><trkpt lat="44.032929726479324" lon="8.133086946878818"><ele>81.0</ele><time>2026-03-29T07:30:16Z</time></trkpt><trkpt lat="44.033133003731415" lon="8.13307490285737"><ele>75.0</ele><time>2026-03-29T07:30:17Z</time></trkpt><trkpt lat="44.03333514833912" lon="8.13304915951004"><ele>72.66666666666667</ele><time>2026-03-29T07:30:18Z</time></trkpt><trkpt lat="44.03353643585745" lon="8.133011047515168"><ele>70.33333333333334</ele><time>2026-03-29T07:30:19Z</time></trkpt><trkpt lat="44.033734939794684" lon="8.132954043231276"><ele>68.0</ele><time>2026-03-29T07:30:20Z</time></trkpt><trkpt lat="44.03392789429884" lon="8.132883101965957"><ele>68.0</ele><time>2026-03-29T07:30:21Z</time></trkpt><trkpt lat="44.03411252902082" lon="8.13280427394682"><ele>68.0</ele><time>2026-03-29T07:30:22Z</time></trkpt><trkpt lat="44.034286964271715" lon="8.13271604429157"><ele>68.0</ele><time>2026-03-29T07:30:23Z</time></trkpt><trkpt lat="44.034450844478904" lon="8.132621582886577"><ele>69.66666666666667</ele><time>2026-03-29T07:30:24Z</time></trkpt><trkpt lat="44.034604722316224" lon="8.132535990213626"><ele>71.33333333333333</ele><time>2026-03-29T07:30:25Z</time></trkpt><trkpt lat="44.03474816049525" lon="8.13245887637105"><ele>73.0</ele><time>2026-03-29T07:30:26Z</time></trkpt><trkpt lat="44.034883800153544" lon="8.132387656190536"><ele>71.0</ele><time>2026-03-29T07:30:27Z</time></trkpt><trkpt lat="44.035015652463635" lon="8.132315296457023"><ele>69.0</ele><time>2026-03-29T07:30:28Z</time></trkpt><trkpt lat="44.03514825573351" lon="8.132253441438593"><ele>67.0</ele><time>2026-03-29T07:30:29Z</time></trkpt><trkpt lat="44.03527655430869" lon="8.132215900820754"><ele>65.0</ele><time>2026-03-29T07:30:30Z</time></trkpt><trkpt lat="44.03540537085148" lon="8.132215311142325"><ele>65.0</ele><time>2026-03-29T07:30:31Z</time></trkpt><trkpt lat="44.03552863849867" lon="8.13224777728373"><ele>65.0</ele><time>2026-03-29T07:30:32Z</time></trkpt><trkpt lat="44.03564623196829" lon="8.1323312656332"><ele>65.0</ele><time>2026-03-29T07:30:33Z</time></trkpt><trkpt lat="44.03576538602943" lon="8.132446876526204"><ele>65.0</ele><time>2026-03-29T07:30:34Z</time></trkpt><trkpt lat="44.03589327315339" lon="8.132553832378466"><ele>65.75</ele><time>2026-03-29T07:30:35Z</time></trkpt><trkpt lat="44.036036270558014" lon="8.132623062748374"><ele>66.5</ele><time>2026-03-29T07:30:36Z</time></trkpt><trkpt lat="44.03618411793613" lon="8.13265192076041"><ele>67.25</ele><time>2026-03-29T07:30:37Z</time></trkpt><trkpt lat="44.03632574782806" lon="8.132626248384808"><ele>68.0</ele><time>2026-03-29T07:30:38Z</time></trkpt><trkpt lat="44.03645466895936" lon="8.13255001589019"><ele>68.0</ele><time>2026-03-29T07:30:39Z</time></trkpt><trkpt lat="44.03657226462196" lon="8.132424159766055"><ele>68.0</ele><time>2026-03-29T07:30:40Z</time></trkpt><trkpt lat="44.03665108437549" lon="8.132271435254316"><ele>68.0</ele><time>2026-03-29T07:30:41Z</time></trkpt><trkpt lat="44.03669545987792" lon="8.132093944387925"><ele>68.0</ele><time>2026-03-29T07:30:42Z</time></trkpt><trkpt lat="44.03670828567562" lon="8.131896993462782"><ele>66.33333333333334</ele><time>2026-03-29T07:30:43Z</time></trkpt><trkpt lat="44.036689463869315" lon="8.131687584963425"><ele>64.66666666666667</ele><time>2026-03-29T07:30:44Z</time></trkpt><trkpt lat="44.03664937041994" lon="8.131469267019066"><ele>63.0</ele><time>2026-03-29T07:30:45Z</time></trkpt><trkpt lat="44.03661184338174" lon="8.131248982113162"><ele>61.75</ele><time>2026-03-29T07:30:46Z</time></trkpt><trkpt lat="44.03659361537847" lon="8.13103865303447"><ele>60.5</ele><time>2026-03-29T07:30:47Z</time></trkpt><trkpt lat="44.036605487776534" lon="8.13083202845706"><ele>59.25</ele><time>2026-03-29T07:30:48Z</time></trkpt><trkpt lat="44.03665452635313" lon="8.130642397320065"><ele>58.0</ele><time>2026-03-29T07:30:49Z</time></trkpt><trkpt lat="44.036732812260404" lon="8.130501090295551"><ele>56.0</ele><time>2026-03-29T07:30:50Z</time></trkpt><trkpt lat="44.03683694511316" lon="8.130393654085859"><ele>54.0</ele><time>2026-03-29T07:30:51Z</time></trkpt><trkpt lat="44.03696655195901" lon="8.130311093969544"><ele>52.0</ele><time>2026-03-29T07:30:52Z</time></trkpt><trkpt lat="44.03711339352419" lon="8.130240187567201"><ele>50.0</ele><time>2026-03-29T07:30:53Z</time></trkpt><trkpt lat="44.03727483737464" lon="8.130184504075698"><ele>50.0</ele><time>2026-03-29T07:30:54Z</time></trkpt><trkpt lat="44.0374500142204" lon="8.130147882456052"><ele>50.0</ele><time>2026-03-29T07:30:55Z</time></trkpt><trkpt lat="44.037632698408025" lon="8.13013009123537"><ele>50.0</ele><time>2026-03-29T07:30:56Z</time></trkpt><trkpt lat="44.03782182784141" lon="8.13012237466646"><ele>49.0</ele><time>2026-03-29T07:30:57Z</time></trkpt><trkpt lat="44.038015513015175" lon="8.130120369224665"><ele>48.0</ele><time>2026-03-29T07:30:58Z</time></trkpt><trkpt lat="44.038212754911825" lon="8.130124170638656"><ele>47.0</ele><time>2026-03-29T07:30:59Z</time></trkpt><trkpt lat="44.03841303619114" lon="8.130138341347456"><ele>45.666666666666664</ele><time>2026-03-29T07:31:00Z</time></trkpt><trkpt lat="44.03861610413719" lon="8.130166209901741"><ele>44.333333333333336</ele><time>2026-03-29T07:31:01Z</time></trkpt><trkpt lat="44.03882165942112" lon="8.130204820309821"><ele>43.0</ele><time>2026-03-29T07:31:02Z</time></trkpt><trkpt lat="44.03902649566271" lon="8.130254735929668"><ele>41.66666666666667</ele><time>2026-03-29T07:31:03Z</time></trkpt><trkpt lat="44.039227516126275" lon="8.130312614907435"><ele>40.333333333333336</ele><time>2026-03-29T07:31:04Z</time></trkpt><trkpt lat="44.03942645821124" lon="8.130371251428203"><ele>39.0</ele><time>2026-03-29T07:31:05Z</time></trkpt><trkpt lat="44.03962000380113" lon="8.130420218815333"><ele>39.0</ele><time>2026-03-29T07:31:06Z</time></trkpt><trkpt lat="44.03981289354068" lon="8.130446431383055"><ele>39.0</ele><time>2026-03-29T07:31:07Z</time></trkpt><trkpt lat="44.04000628925674" lon="8.130448467220246"><ele>39.0</ele><time>2026-03-29T07:31:08Z</time></trkpt><trkpt lat="44.04020131242154" lon="8.130428381710447"><ele>37.333333333333336</ele><time>2026-03-29T07:31:09Z</time></trkpt><trkpt lat="44.04039569132377" lon="8.130391433844041"><ele>35.66666666666667</ele><time>2026-03-29T07:31:10Z</time></trkpt><trkpt lat="44.040588182998555" lon="8.130331141844424"><ele>34.0</ele><time>2026-03-29T07:31:11Z</time></trkpt><trkpt lat="44.04077588297403" lon="8.130254305365648"><ele>33.0</ele><time>2026-03-29T07:31:12Z</time></trkpt><trkpt lat="44.04096089231558" lon="8.13016413940818"><ele>32.0</ele><time>2026-03-29T07:31:13Z</time></trkpt><trkpt lat="44.04114302841198" lon="8.13006605937583"><ele>31.0</ele><time>2026-03-29T07:31:14Z</time></trkpt><trkpt lat="44.04132700883267" lon="8.129969819521653"><ele>31.333333333333336</ele><time>2026-03-29T07:31:15Z</time></trkpt><trkpt lat="44.04151182718677" lon="8.129890361889574"><ele>31.666666666666664</ele><time>2026-03-29T07:31:16Z</time></trkpt><trkpt lat="44.0416956101518" lon="8.129828421310608"><ele>32.0</ele><time>2026-03-29T07:31:17Z</time></trkpt><trkpt lat="44.04187747630307" lon="8.129775287900499"><ele>32.33333333333333</ele><time>2026-03-29T07:31:18Z</time></trkpt><trkpt lat="44.0420489518299" lon="8.129727587108643"><ele>32.666666666666664</ele><time>2026-03-29T07:31:19Z</time></trkpt><trkpt lat="44.0422030413594" lon="8.129690825262697"><ele>33.0</ele><time>2026-03-29T07:31:20Z</time></trkpt><trkpt lat="44.04233718627504" lon="8.129652068034291"><ele>33.0</ele><time>2026-03-29T07:31:21Z</time></trkpt><trkpt lat="44.04245011363988" lon="8.12962284335923"><ele>33.0</ele><time>2026-03-29T07:31:22Z</time></trkpt><trkpt lat="44.042548061524585" lon="8.129614624371511"><ele>33.0</ele><time>2026-03-29T07:31:23Z</time></trkpt><trkpt lat="44.0426373952049" lon="8.129595254800218"><ele>33.0</ele><time>2026-03-29T07:31:24Z</time></trkpt><trkpt lat="44.042708870934" lon="8.129580424204585"><ele>33.0</ele><time>2026-03-29T07:31:25Z</time></trkpt><trkpt lat="44.042775449847326" lon="8.129734347362577"><ele>32.75</ele><time>2026-03-29T07:31:26Z</time></trkpt><trkpt lat="44.04280693873435" lon="8.129845505352373"><ele>32.5</ele><time>2026-03-29T07:31:27Z</time></trkpt><trkpt lat="44.04282449401102" lon="8.129992138485234"><ele>32.25</ele><time>2026-03-29T07:31:28Z</time></trkpt><trkpt lat="44.04283589562661" lon="8.130161837673276"><ele>32.0</ele><time>2026-03-29T07:31:29Z</time></trkpt><trkpt lat="44.04284052109538" lon="8.13035989535766"><ele>31.666666666666664</ele><time>2026-03-29T07:31:30Z</time></trkpt><trkpt lat="44.04284414026547" lon="8.130591812488307"><ele>31.333333333333336</ele><time>2026-03-29T07:31:31Z</time></trkpt><trkpt lat="44.042862938323715" lon="8.13083581577655"><ele>31.0</ele><time>2026-03-29T07:31:32Z</time></trkpt><trkpt lat="44.042894502196965" lon="8.131088798132447"><ele>30.333333333333336</ele><time>2026-03-29T07:31:33Z</time></trkpt><trkpt lat="44.042939128658084" lon="8.131342469018355"><ele>29.666666666666664</ele><time>2026-03-29T07:31:34Z</time></trkpt><trkpt lat="44.04299667874939" lon="8.131594828384728"><ele>29.0</ele><time>2026-03-29T07:31:35Z</time></trkpt><trkpt lat="44.043070149477614" lon="8.131842264671743"><ele>29.0</ele><time>2026-03-29T07:31:36Z</time></trkpt><trkpt lat="44.04315980212037" lon="8.132080560224502"><ele>29.0</ele><time>2026-03-29T07:31:37Z</time></trkpt><trkpt lat="44.043268417878025" lon="8.132304109523112"><ele>29.0</ele><time>2026-03-29T07:31:38Z</time></trkpt><trkpt lat="44.043389204411135" lon="8.132513251847763"><ele>29.0</ele><time>2026-03-29T07:31:39Z</time></trkpt><trkpt lat="44.043513191698274" lon="8.132701464313271"><ele>29.0</ele><time>2026-03-29T07:31:40Z</time></trkpt><trkpt lat="44.04364668261856" lon="8.132857504188406"><ele>29.0</ele><time>2026-03-29T07:31:41Z</time></trkpt><trkpt lat="44.04378573824878" lon="8.132974306805522"><ele>29.0</ele><time>2026-03-29T07:31:42Z</time></trkpt><trkpt lat="44.04390692239133" lon="8.13305320460103"><ele>29.0</ele><time>2026-03-29T07:31:43Z</time></trkpt><trkpt lat="44.04400892523104" lon="8.133122863938604"><ele>29.0</ele><time>2026-03-29T07:31:44Z</time></trkpt><trkpt lat="44.04409221436567" lon="8.133208353044015"><ele>29.0</ele><time>2026-03-29T07:31:45Z</time></trkpt><trkpt lat="44.04416625913003" lon="8.133323953471908"><ele>30.75</ele><time>2026-03-29T07:31:46Z</time></trkpt><trkpt lat="44.04425124126435" lon="8.133458701607035"><ele>32.5</ele><time>2026-03-29T07:31:47Z</time></trkpt><trkpt lat="44.044333915258875" lon="8.133592493752992"><ele>34.25</ele><time>2026-03-29T07:31:48Z</time></trkpt><trkpt lat="44.0443798988701" lon="8.133735805069824"><ele>36.0</ele><time>2026-03-29T07:31:49Z</time></trkpt><trkpt lat="44.044397245489606" lon="8.133912543716939"><ele>35.666666666666664</ele><time>2026-03-29T07:31:50Z</time></trkpt><trkpt lat="44.044400721228826" lon="8.134112691759542"><ele>35.33333333333333</ele><time>2026-03-29T07:31:51Z</time></trkpt><trkpt lat="44.04441227398217" lon="8.134328007664008"><ele>35.0</ele><time>2026-03-29T07:31:52Z</time></trkpt><trkpt lat="44.0444293073823" lon="8.134553563739235"><ele>35.0</ele><time>2026-03-29T07:31:53Z</time></trkpt><trkpt lat="44.04445328997466" lon="8.134790109572826"><ele>35.0</ele><time>2026-03-29T07:31:54Z</time></trkpt><trkpt lat="44.04448434569786" lon="8.1350373089668"><ele>35.0</ele><time>2026-03-29T07:31:55Z</time></trkpt><trkpt lat="44.04451945527662" lon="8.135293379904267"><ele>35.33333333333333</ele><time>2026-03-29T07:31:56Z</time></trkpt><trkpt lat="44.04455677237495" lon="8.135558580485878"><ele>35.666666666666664</ele><time>2026-03-29T07:31:57Z</time></trkpt><trkpt lat="44.04459706558526" lon="8.135830555850578"><ele>36.0</ele><time>2026-03-29T07:31:58Z</time></trkpt><trkpt lat="44.044637508911464" lon="8.136104565432486"><ele>35.333333333333336</ele><time>2026-03-29T07:31:59Z</time></trkpt><trkpt lat="44.04467662061395" lon="8.13638062954934"><ele>34.66666666666667</ele><time>2026-03-29T07:32:00Z</time></trkpt><trkpt lat="44.04471653758606" lon="8.136646458067055"><ele>34.0</ele><time>2026-03-29T07:32:01Z</time></trkpt><trkpt lat="44.04475379338155" lon="8.13688796736985"><ele>34.0</ele><time>2026-03-29T07:32:02Z</time></trkpt><trkpt lat="44.04478954163351" lon="8.137112909493585"><ele>34.0</ele><time>2026-03-29T07:32:03Z</time></trkpt><trkpt lat="44.04482523140807" lon="8.137330793918846"><ele>34.0</ele><time>2026-03-29T07:32:04Z</time></trkpt><trkpt lat="44.04486636075843" lon="8.137549791137308"><ele>33.75</ele><time>2026-03-29T07:32:05Z</time></trkpt><trkpt lat="44.04491175034758" lon="8.137757001297853"><ele>33.5</ele><time>2026-03-29T07:32:06Z</time></trkpt><trkpt lat="44.04495812046034" lon="8.13794545921902"><ele>33.25</ele><time>2026-03-29T07:32:07Z</time></trkpt><trkpt lat="44.045005368111994" lon="8.138117353968635"><ele>33.0</ele><time>2026-03-29T07:32:08Z</time></trkpt><trkpt lat="44.04505096926235" lon="8.138283271008815"><ele>32.75</ele><time>2026-03-29T07:32:09Z</time></trkpt><trkpt lat="44.04509457308556" lon="8.138441127533707"><ele>32.5</ele><time>2026-03-29T07:32:10Z</time></trkpt><trkpt lat="44.0451395012398" lon="8.138595267421803"><ele>32.25</ele><time>2026-03-29T07:32:11Z</time></trkpt><trkpt lat="44.04518163855588" lon="8.138751269408873"><ele>32.0</ele><time>2026-03-29T07:32:12Z</time></trkpt><trkpt lat="44.04522161175685" lon="8.138903249920876"><ele>32.5</ele><time>2026-03-29T07:32:13Z</time></trkpt><trkpt lat="44.045262446651165" lon="8.139056186040676"><ele>33.0</ele><time>2026-03-29T07:32:14Z</time></trkpt><trkpt lat="44.04530619376424" lon="8.139210223964103"><ele>33.5</ele><time>2026-03-29T07:32:15Z</time></trkpt><trkpt lat="44.04535179276346" lon="8.139369222217837"><ele>34.0</ele><time>2026-03-29T07:32:16Z</time></trkpt><trkpt lat="44.04540350872964" lon="8.139525282170203"><ele>34.0</ele><time>2026-03-29T07:32:17Z</time></trkpt><trkpt lat="44.045453400001506" lon="8.13966778698363"><ele>34.0</ele><time>2026-03-29T07:32:18Z</time></trkpt><trkpt lat="44.04549663602347" lon="8.139800983541166"><ele>34.0</ele><time>2026-03-29T07:32:19Z</time></trkpt><trkpt lat="44.045523549003406" lon="8.139934882098784"><ele>34.0</ele><time>2026-03-29T07:32:20Z</time></trkpt><trkpt lat="44.04551335543212" lon="8.140064252350436"><ele>34.0</ele><time>2026-03-29T07:32:21Z</time></trkpt><trkpt lat="44.045466052411456" lon="8.140192883917976"><ele>33.5</ele><time>2026-03-29T07:32:22Z</time></trkpt><trkpt lat="44.04539533179608" lon="8.140321981708658"><ele>33.0</ele><time>2026-03-29T07:32:23Z</time></trkpt><trkpt lat="44.045324714091414" lon="8.140463121519579"><ele>32.5</ele><time>2026-03-29T07:32:24Z</time></trkpt><trkpt lat="44.04525555670054" lon="8.140617331434077"><ele>32.0</ele><time>2026-03-29T07:32:25Z</time></trkpt><trkpt lat="44.045187592994935" lon="8.140781285586362"><ele>31.5</ele><time>2026-03-29T07:32:26Z</time></trkpt><trkpt lat="44.04514089645099" lon="8.140952902520736"><ele>31.0</ele><time>2026-03-29T07:32:27Z</time></trkpt><trkpt lat="44.04512088701835" lon="8.141135011453116"><ele>30.5</ele><time>2026-03-29T07:32:28Z</time></trkpt><trkpt lat="44.04512912297319" lon="8.141320919426159"><ele>30.0</ele><time>2026-03-29T07:32:29Z</time></trkpt><trkpt lat="44.045167098477044" lon="8.141502072694797"><ele>30.0</ele><time>2026-03-29T07:32:30Z</time></trkpt><trkpt lat="44.04522507430333" lon="8.141685985724191"><ele>30.0</ele><time>2026-03-29T07:32:31Z</time></trkpt><trkpt lat="44.04528916482036" lon="8.141867197163057"><ele>30.0</ele><time>2026-03-29T07:32:32Z</time></trkpt><trkpt lat="44.04535409617945" lon="8.142048156003103"><ele>30.0</ele><time>2026-03-29T07:32:33Z</time></trkpt><trkpt lat="44.04541872756928" lon="8.142218813536722"><ele>29.25</ele><time>2026-03-29T07:32:34Z</time></trkpt><trkpt lat="44.04548352876787" lon="8.14239436542408"><ele>28.5</ele><time>2026-03-29T07:32:35Z</time></trkpt><trkpt lat="44.04554684165706" lon="8.142570241776623"><ele>27.75</ele><time>2026-03-29T07:32:36Z</time></trkpt><trkpt lat="44.045606716732784" lon="8.142736168315015"><ele>27.0</ele><time>2026-03-29T07:32:37Z</time></trkpt><trkpt lat="44.04566281025806" lon="8.142893262700886"><ele>27.0</ele><time>2026-03-29T07:32:38Z</time></trkpt><trkpt lat="44.045710270736976" lon="8.143033736893637"><ele>27.000000000000004</ele><time>2026-03-29T07:32:39Z</time></trkpt><trkpt lat="44.04574615574166" lon="8.143154520146618"><ele>27.000000000000004</ele><time>2026-03-29T07:32:40Z</time></trkpt><trkpt lat="44.045772617377985" lon="8.143263170678127"><ele>27.0</ele><time>2026-03-29T07:32:41Z</time></trkpt><trkpt lat="44.0457910775891" lon="8.143376050355918"><ele>27.0</ele><time>2026-03-29T07:32:42Z</time></trkpt><trkpt lat="44.04583092497272" lon="8.143495938593324"><ele>27.5</ele><time>2026-03-29T07:32:43Z</time></trkpt><trkpt lat="44.04589873120955" lon="8.143619915735474"><ele>28.0</ele><time>2026-03-29T07:32:44Z</time></trkpt><trkpt lat="44.0459657831353" lon="8.143764544122241"><ele>28.5</ele><time>2026-03-29T07:32:45Z</time></trkpt><trkpt lat="44.04602677228679" lon="8.14392496454251"><ele>29.0</ele><time>2026-03-29T07:32:46Z</time></trkpt><trkpt lat="44.046101890309274" lon="8.144080457051247"><ele>29.0</ele><time>2026-03-29T07:32:47Z</time></trkpt><trkpt lat="44.04619170437018" lon="8.144233477086061"><ele>29.0</ele><time>2026-03-29T07:32:48Z</time></trkpt><trkpt lat="44.04629379139246" lon="8.144385396595553"><ele>29.0</ele><time>2026-03-29T07:32:49Z</time></trkpt><trkpt lat="44.046411396579835" lon="8.144528195010139"><ele>29.0</ele><time>2026-03-29T07:32:50Z</time></trkpt><trkpt lat="44.046540177065545" lon="8.144665632782022"><ele>28.333333333333332</ele><time>2026-03-29T07:32:51Z</time></trkpt><trkpt lat="44.04667717597977" lon="8.144804136744526"><ele>27.666666666666664</ele><time>2026-03-29T07:32:52Z</time></trkpt><trkpt lat="44.04681622623658" lon="8.144946201264693"><ele>27.0</ele><time>2026-03-29T07:32:53Z</time></trkpt><trkpt lat="44.046960502540955" lon="8.14509068106034"><ele>27.0</ele><time>2026-03-29T07:32:54Z</time></trkpt><trkpt lat="44.04710615897928" lon="8.145238832717663"><ele>27.0</ele><time>2026-03-29T07:32:55Z</time></trkpt><trkpt lat="44.04725401959955" lon="8.145386859785745"><ele>27.0</ele><time>2026-03-29T07:32:56Z</time></trkpt><trkpt lat="44.04740184357345" lon="8.145539984103843"><ele>27.0</ele><time>2026-03-29T07:32:57Z</time></trkpt><trkpt lat="44.04755239284337" lon="8.145692304505562"><ele>27.0</ele><time>2026-03-29T07:32:58Z</time></trkpt><trkpt lat="44.04770579676988" lon="8.145843166666019"><ele>27.0</ele><time>2026-03-29T07:32:59Z</time></trkpt><trkpt lat="44.04785882666019" lon="8.145998306470208"><ele>26.0</ele><time>2026-03-29T07:33:00Z</time></trkpt><trkpt lat="44.0480115543393" lon="8.146157647649583"><ele>25.0</ele><time>2026-03-29T07:33:01Z</time></trkpt><trkpt lat="44.048165207133216" lon="8.14631563849217"><ele>24.0</ele><time>2026-03-29T07:33:02Z</time></trkpt><trkpt lat="44.048318860847914" lon="8.146474004772529"><ele>24.666666666666664</ele><time>2026-03-29T07:33:03Z</time></trkpt><trkpt lat="44.048471455908654" lon="8.14663483990662"><ele>25.333333333333332</ele><time>2026-03-29T07:33:04Z</time></trkpt><trkpt lat="44.04862402844997" lon="8.146796495319958"><ele>26.0</ele><time>2026-03-29T07:33:05Z</time></trkpt><trkpt lat="44.04877734111284" lon="8.146959398552164"><ele>26.0</ele><time>2026-03-29T07:33:06Z</time></trkpt><trkpt lat="44.04893199769432" lon="8.147119014819626"><ele>26.0</ele><time>2026-03-29T07:33:07Z</time></trkpt><trkpt lat="44.04908922326573" lon="8.14727607885364"><ele>26.0</ele><time>2026-03-29T07:33:08Z</time></trkpt><trkpt lat="44.049231471256526" lon="8.14742238034296"><ele>26.333333333333332</ele><time>2026-03-29T07:33:09Z</time></trkpt><trkpt lat="44.04936444188004" lon="8.147545895532025"><ele>26.666666666666664</ele><time>2026-03-29T07:33:10Z</time></trkpt><trkpt lat="44.04950586709791" lon="8.147635146165017"><ele>27.0</ele><time>2026-03-29T07:33:11Z</time></trkpt><trkpt lat="44.049662994409076" lon="8.147689726152421"><ele>27.0</ele><time>2026-03-29T07:33:12Z</time></trkpt><trkpt lat="44.0498272901258" lon="8.147694380358855"><ele>27.0</ele><time>2026-03-29T07:33:13Z</time></trkpt><trkpt lat="44.049988458165934" lon="8.147646650679116"><ele>27.0</ele><time>2026-03-29T07:33:14Z</time></trkpt><trkpt lat="44.050147498954765" lon="8.147570358609931"><ele>27.5</ele><time>2026-03-29T07:33:15Z</time></trkpt><trkpt lat="44.05029424319705" lon="8.147493712270679"><ele>28.0</ele><time>2026-03-29T07:33:16Z</time></trkpt><trkpt lat="44.050421835994406" lon="8.147426630596495"><ele>28.5</ele><time>2026-03-29T07:33:17Z</time></trkpt><trkpt lat="44.05052823843548" lon="8.14737360851108"><ele>29.0</ele><time>2026-03-29T07:33:18Z</time></trkpt><trkpt lat="44.05061909213596" lon="8.14732972980036"><ele>29.2</ele><time>2026-03-29T07:33:19Z</time></trkpt><trkpt lat="44.0506907264732" lon="8.147296367836438"><ele>29.4</ele><time>2026-03-29T07:33:20Z</time></trkpt><trkpt lat="44.050798750029124" lon="8.147289806049345"><ele>29.6</ele><time>2026-03-29T07:33:22Z</time></trkpt><trkpt lat="44.050871857325404" lon="8.147408702642325"><ele>29.8</ele><time>2026-03-29T07:33:24Z</time></trkpt><trkpt lat="44.050893244508025" lon="8.147536017928642"><ele>30.0</ele><time>2026-03-29T07:33:25Z</time></trkpt><trkpt lat="44.05092460556539" lon="8.14768315944825"><ele>30.0</ele><time>2026-03-29T07:33:26Z</time></trkpt><trkpt lat="44.05097119773089" lon="8.147840332619769"><ele>30.0</ele><time>2026-03-29T07:33:27Z</time></trkpt><trkpt lat="44.051018535012474" lon="8.148020982595996"><ele>30.0</ele><time>2026-03-29T07:33:28Z</time></trkpt><trkpt lat="44.05106628789098" lon="8.148205840255464"><ele>30.0</ele><time>2026-03-29T07:33:29Z</time></trkpt><trkpt lat="44.051115370011786" lon="8.148404420339105"><ele>29.333333333333336</ele><time>2026-03-29T07:33:30Z</time></trkpt><trkpt lat="44.05116171302647" lon="8.148614141087418"><ele>28.666666666666668</ele><time>2026-03-29T07:33:31Z</time></trkpt><trkpt lat="44.05119269448888" lon="8.148832765394245"><ele>28.0</ele><time>2026-03-29T07:33:32Z</time></trkpt><trkpt lat="44.05121576498698" lon="8.149065750746576"><ele>27.0</ele><time>2026-03-29T07:33:33Z</time></trkpt><trkpt lat="44.05124734348502" lon="8.149300050182783"><ele>26.0</ele><time>2026-03-29T07:33:34Z</time></trkpt><trkpt lat="44.05129936320433" lon="8.149534220619861"><ele>25.0</ele><time>2026-03-29T07:33:35Z</time></trkpt><trkpt lat="44.05137653245197" lon="8.14975875342832"><ele>24.666666666666668</ele><time>2026-03-29T07:33:36Z</time></trkpt><trkpt lat="44.05147108390125" lon="8.149970276317548"><ele>24.333333333333336</ele><time>2026-03-29T07:33:37Z</time></trkpt><trkpt lat="44.051587477986416" lon="8.150158697763532"><ele>24.0</ele><time>2026-03-29T07:33:38Z</time></trkpt><trkpt lat="44.05171919101767" lon="8.150335940748535"><ele>24.0</ele><time>2026-03-29T07:33:39Z</time></trkpt><trkpt lat="44.051858677006315" lon="8.150507752400856"><ele>24.0</ele><time>2026-03-29T07:33:40Z</time></trkpt><trkpt lat="44.051996781171695" lon="8.150683525988697"><ele>24.0</ele><time>2026-03-29T07:33:41Z</time></trkpt><trkpt lat="44.05213496581712" lon="8.150864080531983"><ele>23.666666666666668</ele><time>2026-03-29T07:33:42Z</time></trkpt><trkpt lat="44.05227844551401" lon="8.151049044994707"><ele>23.333333333333336</ele><time>2026-03-29T07:33:43Z</time></trkpt><trkpt lat="44.05242159007947" lon="8.151233735920696"><ele>23.0</ele><time>2026-03-29T07:33:44Z</time></trkpt><trkpt lat="44.05256109391167" lon="8.151425136524933"><ele>23.0</ele><time>2026-03-29T07:33:45Z</time></trkpt><trkpt lat="44.05269331680305" lon="8.151628131583921"><ele>23.0</ele><time>2026-03-29T07:33:46Z</time></trkpt><trkpt lat="44.05281752290313" lon="8.15183362873828"><ele>23.0</ele><time>2026-03-29T07:33:47Z</time></trkpt><trkpt lat="44.05294039497413" lon="8.152038107168275"><ele>23.0</ele><time>2026-03-29T07:33:48Z</time></trkpt><trkpt lat="44.05307008784474" lon="8.152231790329534"><ele>23.0</ele><time>2026-03-29T07:33:49Z</time></trkpt><trkpt lat="44.053205232983125" lon="8.152411493902335"><ele>23.0</ele><time>2026-03-29T07:33:50Z</time></trkpt><trkpt lat="44.053343304958666" lon="8.152583590887993"><ele>23.666666666666668</ele><time>2026-03-29T07:33:51Z</time></trkpt><trkpt lat="44.053469706427656" lon="8.152747300405665"><ele>24.333333333333336</ele><time>2026-03-29T07:33:52Z</time></trkpt><trkpt lat="44.05358339314169" lon="8.15291346796391"><ele>25.0</ele><time>2026-03-29T07:33:53Z</time></trkpt><trkpt lat="44.05368919868375" lon="8.153096608849252"><ele>24.0</ele><time>2026-03-29T07:33:54Z</time></trkpt><trkpt lat="44.05378500647621" lon="8.153286085979017"><ele>23.0</ele><time>2026-03-29T07:33:55Z</time></trkpt><trkpt lat="44.05387887887513" lon="8.153483011873798"><ele>22.0</ele><time>2026-03-29T07:33:56Z</time></trkpt><trkpt lat="44.05397105321785" lon="8.153677081396475"><ele>22.0</ele><time>2026-03-29T07:33:57Z</time></trkpt><trkpt lat="44.054064600758444" lon="8.153870725029611"><ele>22.0</ele><time>2026-03-29T07:33:58Z</time></trkpt><trkpt lat="44.05415720327504" lon="8.1540665712699"><ele>22.0</ele><time>2026-03-29T07:33:59Z</time></trkpt><trkpt lat="44.054250830207366" lon="8.15426394550492"><ele>23.333333333333332</ele><time>2026-03-29T07:34:00Z</time></trkpt><trkpt lat="44.05434242677235" lon="8.15445712576362"><ele>24.666666666666664</ele><time>2026-03-29T07:34:01Z</time></trkpt><trkpt lat="44.05443214064754" lon="8.154647983363361"><ele>26.0</ele><time>2026-03-29T07:34:02Z</time></trkpt><trkpt lat="44.05452185294834" lon="8.154834910222116"><ele>25.5</ele><time>2026-03-29T07:34:03Z</time></trkpt><trkpt lat="44.054603957077305" lon="8.155004703984842"><ele>25.0</ele><time>2026-03-29T07:34:04Z</time></trkpt><trkpt lat="44.054683797148925" lon="8.155175038094024"><ele>24.5</ele><time>2026-03-29T07:34:05Z</time></trkpt><trkpt lat="44.054755473478885" lon="8.155345168467331"><ele>24.0</ele><time>2026-03-29T07:34:06Z</time></trkpt><trkpt lat="44.05482101754194" lon="8.15549679751889"><ele>24.0</ele><time>2026-03-29T07:34:07Z</time></trkpt><trkpt lat="44.054881117683685" lon="8.155630982334996"><ele>24.0</ele><time>2026-03-29T07:34:08Z</time></trkpt><trkpt lat="44.0549432787072" lon="8.155763409174309"><ele>24.0</ele><time>2026-03-29T07:34:09Z</time></trkpt><trkpt lat="44.05500955610952" lon="8.155890245413591"><ele>24.0</ele><time>2026-03-29T07:34:10Z</time></trkpt><trkpt lat="44.055086567117634" lon="8.156011134679877"><ele>23.5</ele><time>2026-03-29T07:34:11Z</time></trkpt><trkpt lat="44.05518169997213" lon="8.15611388094093"><ele>23.0</ele><time>2026-03-29T07:34:12Z</time></trkpt><trkpt lat="44.05529280623974" lon="8.156183704050076"><ele>22.5</ele><time>2026-03-29T07:34:13Z</time></trkpt><trkpt lat="44.05541328705523" lon="8.156239333403184"><ele>22.0</ele><time>2026-03-29T07:34:14Z</time></trkpt><trkpt lat="44.05553441911569" lon="8.156319347549813"><ele>22.0</ele><time>2026-03-29T07:34:15Z</time></trkpt><trkpt lat="44.055661335083535" lon="8.156403766213264"><ele>22.0</ele><time>2026-03-29T07:34:16Z</time></trkpt><trkpt lat="44.0557864922145" lon="8.156496383614043"><ele>22.0</ele><time>2026-03-29T07:34:17Z</time></trkpt><trkpt lat="44.05589895632671" lon="8.156628257500307"><ele>22.0</ele><time>2026-03-29T07:34:18Z</time></trkpt><trkpt lat="44.056006568625335" lon="8.156791851845375"><ele>22.0</ele><time>2026-03-29T07:34:19Z</time></trkpt><trkpt lat="44.05609714179249" lon="8.156979799083006"><ele>22.0</ele><time>2026-03-29T07:34:20Z</time></trkpt><trkpt lat="44.056166962607996" lon="8.157188805794048"><ele>22.0</ele><time>2026-03-29T07:34:21Z</time></trkpt><trkpt lat="44.05622375338438" lon="8.157416831652444"><ele>21.333333333333332</ele><time>2026-03-29T07:34:22Z</time></trkpt><trkpt lat="44.05626832045115" lon="8.157657771615238"><ele>20.666666666666668</ele><time>2026-03-29T07:34:23Z</time></trkpt><trkpt lat="44.05631055113471" lon="8.157906003157226"><ele>20.0</ele><time>2026-03-29T07:34:24Z</time></trkpt><trkpt lat="44.056351513988034" lon="8.158159601026918"><ele>19.333333333333336</ele><time>2026-03-29T07:34:25Z</time></trkpt><trkpt lat="44.05639313898265" lon="8.158415936202708"><ele>18.666666666666668</ele><time>2026-03-29T07:34:26Z</time></trkpt><trkpt lat="44.0564355914524" lon="8.158676718781662"><ele>18.0</ele><time>2026-03-29T07:34:27Z</time></trkpt><trkpt lat="44.0564741810932" lon="8.158938463173898"><ele>18.333333333333332</ele><time>2026-03-29T07:34:28Z</time></trkpt><trkpt lat="44.056512519952825" lon="8.159199337434284"><ele>18.666666666666664</ele><time>2026-03-29T07:34:29Z</time></trkpt><trkpt lat="44.05655120927055" lon="8.159457251065032"><ele>19.0</ele><time>2026-03-29T07:34:30Z</time></trkpt><trkpt lat="44.05658823309662" lon="8.159714302507213"><ele>18.333333333333332</ele><time>2026-03-29T07:34:31Z</time></trkpt><trkpt lat="44.05661604343865" lon="8.159967566145475"><ele>17.666666666666668</ele><time>2026-03-29T07:34:32Z</time></trkpt><trkpt lat="44.05663018891881" lon="8.16022673541063"><ele>17.0</ele><time>2026-03-29T07:34:33Z</time></trkpt><trkpt lat="44.05663243817046" lon="8.16049105486538"><ele>20.333333333333336</ele><time>2026-03-29T07:34:34Z</time></trkpt><trkpt lat="44.056636192015254" lon="8.160758006141302"><ele>23.666666666666668</ele><time>2026-03-29T07:34:35Z</time></trkpt><trkpt lat="44.05664647533416" lon="8.161029374412344"><ele>27.0</ele><time>2026-03-29T07:34:36Z</time></trkpt><trkpt lat="44.05665879487973" lon="8.161293854833788"><ele>26.666666666666664</ele><time>2026-03-29T07:34:37Z</time></trkpt><trkpt lat="44.05667068614686" lon="8.161556939940787"><ele>26.333333333333332</ele><time>2026-03-29T07:34:38Z</time></trkpt><trkpt lat="44.056684489965214" lon="8.16181606063039"><ele>26.0</ele><time>2026-03-29T07:34:39Z</time></trkpt><trkpt lat="44.05669801151019" lon="8.162073471325058"><ele>26.0</ele><time>2026-03-29T07:34:40Z</time></trkpt><trkpt lat="44.05671168805027" lon="8.162332240205997"><ele>26.0</ele><time>2026-03-29T07:34:41Z</time></trkpt><trkpt lat="44.056726085214535" lon="8.162593160518323"><ele>26.0</ele><time>2026-03-29T07:34:42Z</time></trkpt><trkpt lat="44.05674235012185" lon="8.16284886530186"><ele>25.666666666666664</ele><time>2026-03-29T07:34:43Z</time></trkpt><trkpt lat="44.05675964432088" lon="8.163084154136127"><ele>25.333333333333336</ele><time>2026-03-29T07:34:44Z</time></trkpt><trkpt lat="44.05678230287007" lon="8.163300958128763"><ele>25.0</ele><time>2026-03-29T07:34:45Z</time></trkpt><trkpt lat="44.05681250507642" lon="8.163509754966007"><ele>24.2</ele><time>2026-03-29T07:34:46Z</time></trkpt><trkpt lat="44.05686247106532" lon="8.163705036773687"><ele>23.4</ele><time>2026-03-29T07:34:47Z</time></trkpt><trkpt lat="44.05690750371346" lon="8.163834184121603"><ele>22.6</ele><time>2026-03-29T07:34:48Z</time></trkpt><trkpt lat="44.05694465311366" lon="8.163919099743005"><ele>21.8</ele><time>2026-03-29T07:34:49Z</time></trkpt><trkpt lat="44.05697901631908" lon="8.163998722753188"><ele>21.0</ele><time>2026-03-29T07:34:50Z</time></trkpt><trkpt lat="44.05704098544238" lon="8.16412149241543"><ele>20.400000000000002</ele><time>2026-03-29T07:34:52Z</time></trkpt><trkpt lat="44.05707144904169" lon="8.164202134283821"><ele>19.8</ele><time>2026-03-29T07:34:54Z</time></trkpt><trkpt lat="44.057199292329265" lon="8.164116359593553"><ele>19.200000000000003</ele><time>2026-03-29T07:34:55Z</time></trkpt><trkpt lat="44.05733012256533" lon="8.16406800877271"><ele>18.6</ele><time>2026-03-29T07:34:57Z</time></trkpt><trkpt lat="44.057417362518635" lon="8.164037457192862"><ele>18.0</ele><time>2026-03-29T07:34:58Z</time></trkpt><trkpt lat="44.057502638385955" lon="8.163974520918403"><ele>23.0</ele><time>2026-03-29T07:34:59Z</time></trkpt><trkpt lat="44.057599064632115" lon="8.163921222345747"><ele>28.0</ele><time>2026-03-29T07:35:00Z</time></trkpt><trkpt lat="44.05768813397321" lon="8.163813405949243"><ele>33.0</ele><time>2026-03-29T07:35:01Z</time></trkpt><trkpt lat="44.05775617131893" lon="8.163669566788647"><ele>38.0</ele><time>2026-03-29T07:35:02Z</time></trkpt><trkpt lat="44.057808790644" lon="8.163511404896884"><ele>38.0</ele><time>2026-03-29T07:35:03Z</time></trkpt><trkpt lat="44.05789849422757" lon="8.16340193680443"><ele>38.0</ele><time>2026-03-29T07:35:04Z</time></trkpt><trkpt lat="44.05798228677037" lon="8.163267887813227"><ele>38.0</ele><time>2026-03-29T07:35:05Z</time></trkpt><trkpt lat="44.05806538408396" lon="8.163114985923034"><ele>38.0</ele><time>2026-03-29T07:35:06Z</time></trkpt><trkpt lat="44.05811853368382" lon="8.162930165048621"><ele>40.0</ele><time>2026-03-29T07:35:07Z</time></trkpt><trkpt lat="44.0582033236272" lon="8.162755661395495"><ele>42.0</ele><time>2026-03-29T07:35:08Z</time></trkpt><trkpt lat="44.058250909407164" lon="8.162546096145727"><ele>44.0</ele><time>2026-03-29T07:35:09Z</time></trkpt><trkpt lat="44.058322792901116" lon="8.162346770751297"><ele>46.666666666666664</ele><time>2026-03-29T07:35:10Z</time></trkpt><trkpt lat="44.05841081878674" lon="8.162156515452788"><ele>49.33333333333333</ele><time>2026-03-29T07:35:11Z</time></trkpt><trkpt lat="44.05849964015521" lon="8.16196734046091"><ele>52.0</ele><time>2026-03-29T07:35:12Z</time></trkpt><trkpt lat="44.0585729421353" lon="8.16176081204259"><ele>52.0</ele><time>2026-03-29T07:35:13Z</time></trkpt><trkpt lat="44.05863088371018" lon="8.161547467572372"><ele>52.0</ele><time>2026-03-29T07:35:14Z</time></trkpt><trkpt lat="44.058695058473255" lon="8.161349785193881"><ele>52.0</ele><time>2026-03-29T07:35:15Z</time></trkpt><trkpt lat="44.058776092071795" lon="8.161181351564897"><ele>54.8</ele><time>2026-03-29T07:35:16Z</time></trkpt><trkpt lat="44.058900030253994" lon="8.161068071153112"><ele>57.6</ele><time>2026-03-29T07:35:17Z</time></trkpt><trkpt lat="44.058998762035166" lon="8.160986154312672"><ele>60.39999999999999</ele><time>2026-03-29T07:35:18Z</time></trkpt><trkpt lat="44.059066476952914" lon="8.160967161324967"><ele>63.199999999999996</ele><time>2026-03-29T07:35:19Z</time></trkpt><trkpt lat="44.05906981354633" lon="8.161055144277231"><ele>66.0</ele><time>2026-03-29T07:35:22Z</time></trkpt><trkpt lat="44.0590273559892" lon="8.161144835280943"><ele>66.0</ele><time>2026-03-29T07:35:24Z</time></trkpt><trkpt lat="44.05898379828697" lon="8.161239417761935"><ele>66.0</ele><time>2026-03-29T07:35:25Z</time></trkpt><trkpt lat="44.058951556076806" lon="8.161365176319524"><ele>66.0</ele><time>2026-03-29T07:35:26Z</time></trkpt><trkpt lat="44.05896934611693" lon="8.161505304800666"><ele>66.0</ele><time>2026-03-29T07:35:27Z</time></trkpt><trkpt lat="44.05898094828195" lon="8.161659264305658"><ele>66.0</ele><time>2026-03-29T07:35:28Z</time></trkpt><trkpt lat="44.058993525735936" lon="8.161822044957171"><ele>62.5</ele><time>2026-03-29T07:35:29Z</time></trkpt><trkpt lat="44.05900712844424" lon="8.161986154010123"><ele>59.0</ele><time>2026-03-29T07:35:30Z</time></trkpt><trkpt lat="44.05901781422513" lon="8.162149010977583"><ele>55.5</ele><time>2026-03-29T07:35:31Z</time></trkpt><trkpt lat="44.059020242930515" lon="8.162317749226254"><ele>52.0</ele><time>2026-03-29T07:35:32Z</time></trkpt><trkpt lat="44.05902146165977" lon="8.162511648574142"><ele>51.0</ele><time>2026-03-29T07:35:33Z</time></trkpt><trkpt lat="44.05902642976267" lon="8.162696401982691"><ele>50.0</ele><time>2026-03-29T07:35:34Z</time></trkpt><trkpt lat="44.0590353896485" lon="8.162864252171588"><ele>49.0</ele><time>2026-03-29T07:35:35Z</time></trkpt><trkpt lat="44.05905027748404" lon="8.162993206849801"><ele>48.0</ele><time>2026-03-29T07:35:36Z</time></trkpt><trkpt lat="44.05908682078128" lon="8.163074762075503"><ele>47.0</ele><time>2026-03-29T07:35:37Z</time></trkpt><trkpt lat="44.05914539933538" lon="8.163143582444851"><ele>49.0</ele><time>2026-03-29T07:35:38Z</time></trkpt><trkpt lat="44.05920271472139" lon="8.163190477013545"><ele>51.0</ele><time>2026-03-29T07:35:39Z</time></trkpt><trkpt lat="44.05930996125214" lon="8.163162609785198"><ele>53.0</ele><time>2026-03-29T07:35:41Z</time></trkpt><trkpt lat="44.059347116999795" lon="8.163090060369845"><ele>55.0</ele><time>2026-03-29T07:35:42Z</time></trkpt><trkpt lat="44.059374831872596" lon="8.163001387143598"><ele>57.00000000000001</ele><time>2026-03-29T07:35:43Z</time></trkpt><trkpt lat="44.05940763951471" lon="8.162844280955506"><ele>59.0</ele><time>2026-03-29T07:35:45Z</time></trkpt><trkpt lat="44.059416599228356" lon="8.162740934290659"><ele>59.00000000000001</ele><time>2026-03-29T07:35:46Z</time></trkpt><trkpt lat="44.05943124967493" lon="8.162643993804751"><ele>59.0</ele><time>2026-03-29T07:35:47Z</time></trkpt><trkpt lat="44.05943741308551" lon="8.16255233393784"><ele>59.0</ele><time>2026-03-29T07:35:48Z</time></trkpt><trkpt lat="44.05945564182197" lon="8.162452215929697"><ele>59.0</ele><time>2026-03-29T07:35:49Z</time></trkpt><trkpt lat="44.05945762941163" lon="8.16232829449935"><ele>59.00000000000001</ele><time>2026-03-29T07:35:50Z</time></trkpt><trkpt lat="44.05949515930397" lon="8.16224249001367"><ele>59.0</ele><time>2026-03-29T07:35:51Z</time></trkpt><trkpt lat="44.05956433133812" lon="8.162145553883539"><ele>59.5</ele><time>2026-03-29T07:35:52Z</time></trkpt><trkpt lat="44.05963228291235" lon="8.162025144795981"><ele>60.0</ele><time>2026-03-29T07:35:53Z</time></trkpt><trkpt lat="44.059690244132796" lon="8.161881042019393"><ele>60.5</ele><time>2026-03-29T07:35:54Z</time></trkpt><trkpt lat="44.0597450543219" lon="8.161732755864568"><ele>61.0</ele><time>2026-03-29T07:35:55Z</time></trkpt><trkpt lat="44.05979344628957" lon="8.161591110858812"><ele>63.0</ele><time>2026-03-29T07:35:56Z</time></trkpt><trkpt lat="44.05984525190989" lon="8.16143934806438"><ele>65.0</ele><time>2026-03-29T07:35:57Z</time></trkpt><trkpt lat="44.059880555607826" lon="8.161283895707273"><ele>67.0</ele><time>2026-03-29T07:35:58Z</time></trkpt><trkpt lat="44.05991309582549" lon="8.161136565935776"><ele>69.0</ele><time>2026-03-29T07:35:59Z</time></trkpt><trkpt lat="44.059939639932516" lon="8.160992046323566"><ele>69.60000000000001</ele><time>2026-03-29T07:36:00Z</time></trkpt><trkpt lat="44.05995762670182" lon="8.160848024032171"><ele>70.2</ele><time>2026-03-29T07:36:01Z</time></trkpt><trkpt lat="44.059984191421236" lon="8.160695984099974"><ele>70.80000000000001</ele><time>2026-03-29T07:36:02Z</time></trkpt><trkpt lat="44.06000532845947" lon="8.160529578025725"><ele>71.4</ele><time>2026-03-29T07:36:03Z</time></trkpt><trkpt lat="44.06000643826539" lon="8.160375853967935"><ele>72.0</ele><time>2026-03-29T07:36:04Z</time></trkpt><trkpt lat="44.05999279558747" lon="8.160214016944822"><ele>73.5</ele><time>2026-03-29T07:36:05Z</time></trkpt><trkpt lat="44.05996050311202" lon="8.160065172850624"><ele>75.0</ele><time>2026-03-29T07:36:06Z</time></trkpt><trkpt lat="44.05990617020843" lon="8.15989530151867"><ele>76.5</ele><time>2026-03-29T07:36:07Z</time></trkpt><trkpt lat="44.059851138331766" lon="8.159732743890384"><ele>78.0</ele><time>2026-03-29T07:36:08Z</time></trkpt><trkpt lat="44.05980239812663" lon="8.159569047537449"><ele>79.2</ele><time>2026-03-29T07:36:09Z</time></trkpt><trkpt lat="44.05977356101178" lon="8.159431420305845"><ele>80.4</ele><time>2026-03-29T07:36:10Z</time></trkpt><trkpt lat="44.059772529134236" lon="8.159317793856701"><ele>81.60000000000001</ele><time>2026-03-29T07:36:11Z</time></trkpt><trkpt lat="44.05979533440951" lon="8.159216129310188"><ele>82.8</ele><time>2026-03-29T07:36:12Z</time></trkpt><trkpt lat="44.05985445855155" lon="8.15909684036824"><ele>84.0</ele><time>2026-03-29T07:36:13Z</time></trkpt><trkpt lat="44.059909119249575" lon="8.158998403469829"><ele>84.0</ele><time>2026-03-29T07:36:14Z</time></trkpt><trkpt lat="44.05990954267324" lon="8.158826802500403"><ele>84.0</ele><time>2026-03-29T07:36:16Z</time></trkpt><trkpt lat="44.059857558842886" lon="8.158727451909964"><ele>84.0</ele><time>2026-03-29T07:36:17Z</time></trkpt><trkpt lat="44.05979366542648" lon="8.158624152690496"><ele>84.0</ele><time>2026-03-29T07:36:18Z</time></trkpt><trkpt lat="44.059758803680964" lon="8.158512959395821"><ele>84.0</ele><time>2026-03-29T07:36:19Z</time></trkpt><trkpt lat="44.05977141138783" lon="8.158399586003666"><ele>84.0</ele><time>2026-03-29T07:36:20Z</time></trkpt><trkpt lat="44.05982268078727" lon="8.158273163386667"><ele>84.0</ele><time>2026-03-29T07:36:21Z</time></trkpt><trkpt lat="44.05988871238913" lon="8.158152113081819"><ele>84.0</ele><time>2026-03-29T07:36:22Z</time></trkpt><trkpt lat="44.059961434182625" lon="8.158025802562028"><ele>84.0</ele><time>2026-03-29T07:36:23Z</time></trkpt><trkpt lat="44.06002217204827" lon="8.157885376734857"><ele>84.0</ele><time>2026-03-29T07:36:24Z</time></trkpt><trkpt lat="44.06006279691296" lon="8.157746132186311"><ele>83.6</ele><time>2026-03-29T07:36:25Z</time></trkpt><trkpt lat="44.060075089427336" lon="8.15762233581295"><ele>83.2</ele><time>2026-03-29T07:36:26Z</time></trkpt><trkpt lat="44.06003866414918" lon="8.157514960863187"><ele>82.8</ele><time>2026-03-29T07:36:27Z</time></trkpt><trkpt lat="44.05997597524088" lon="8.157409159459307"><ele>82.39999999999999</ele><time>2026-03-29T07:36:28Z</time></trkpt><trkpt lat="44.05988821423767" lon="8.157296598419956"><ele>82.0</ele><time>2026-03-29T07:36:29Z</time></trkpt><trkpt lat="44.05984263837344" lon="8.157191457570436"><ele>81.8</ele><time>2026-03-29T07:36:30Z</time></trkpt><trkpt lat="44.05984192782866" lon="8.157078415171418"><ele>81.6</ele><time>2026-03-29T07:36:31Z</time></trkpt><trkpt lat="44.05987853698809" lon="8.156926583270138"><ele>81.39999999999999</ele><time>2026-03-29T07:36:32Z</time></trkpt><trkpt lat="44.05993520354451" lon="8.156789551275171"><ele>81.19999999999999</ele><time>2026-03-29T07:36:33Z</time></trkpt><trkpt lat="44.05998720997284" lon="8.156644982363366"><ele>81.0</ele><time>2026-03-29T07:36:34Z</time></trkpt><trkpt lat="44.0600740822631" lon="8.156525717075462"><ele>78.25</ele><time>2026-03-29T07:36:35Z</time></trkpt><trkpt lat="44.060154032966594" lon="8.156404944104162"><ele>75.5</ele><time>2026-03-29T07:36:36Z</time></trkpt><trkpt lat="44.060247608809924" lon="8.156283931048344"><ele>72.75</ele><time>2026-03-29T07:36:37Z</time></trkpt><trkpt lat="44.060334258406904" lon="8.156157211752683"><ele>70.0</ele><time>2026-03-29T07:36:38Z</time></trkpt><trkpt lat="44.06043696484043" lon="8.156042768884314"><ele>70.0</ele><time>2026-03-29T07:36:39Z</time></trkpt><trkpt lat="44.06053697619724" lon="8.155895820205705"><ele>70.0</ele><time>2026-03-29T07:36:40Z</time></trkpt><trkpt lat="44.060618585108244" lon="8.15571185969686"><ele>70.0</ele><time>2026-03-29T07:36:41Z</time></trkpt><trkpt lat="44.060683698027" lon="8.155526076183078"><ele>70.0</ele><time>2026-03-29T07:36:42Z</time></trkpt><trkpt lat="44.06073293392425" lon="8.155336748345372"><ele>69.5</ele><time>2026-03-29T07:36:43Z</time></trkpt><trkpt lat="44.060754475620605" lon="8.155144254062751"><ele>69.0</ele><time>2026-03-29T07:36:44Z</time></trkpt><trkpt lat="44.06076044621117" lon="8.154972752935599"><ele>68.5</ele><time>2026-03-29T07:36:45Z</time></trkpt><trkpt lat="44.0607731808304" lon="8.15482095115535"><ele>68.0</ele><time>2026-03-29T07:36:46Z</time></trkpt><trkpt lat="44.060796926616696" lon="8.154698573617017"><ele>72.6</ele><time>2026-03-29T07:36:47Z</time></trkpt><trkpt lat="44.06083388168528" lon="8.154560571204279"><ele>77.19999999999999</ele><time>2026-03-29T07:36:48Z</time></trkpt><trkpt lat="44.06087602156533" lon="8.154437321959133"><ele>81.8</ele><time>2026-03-29T07:36:49Z</time></trkpt><trkpt lat="44.060939824552214" lon="8.15432151984334"><ele>86.39999999999999</ele><time>2026-03-29T07:36:50Z</time></trkpt><trkpt lat="44.06101597906592" lon="8.154242161989004"><ele>91.0</ele><time>2026-03-29T07:36:51Z</time></trkpt><trkpt lat="44.06111934680592" lon="8.1541743888691"><ele>91.0</ele><time>2026-03-29T07:36:52Z</time></trkpt><trkpt lat="44.06123811119145" lon="8.154100457349813"><ele>91.0</ele><time>2026-03-29T07:36:53Z</time></trkpt><trkpt lat="44.0613635310901" lon="8.153992018949092"><ele>91.0</ele><time>2026-03-29T07:36:54Z</time></trkpt><trkpt lat="44.061476828860734" lon="8.153849421914941"><ele>91.0</ele><time>2026-03-29T07:36:55Z</time></trkpt><trkpt lat="44.061571542842515" lon="8.15369698252213"><ele>94.0</ele><time>2026-03-29T07:36:56Z</time></trkpt><trkpt lat="44.0616466411613" lon="8.153532682751559"><ele>97.0</ele><time>2026-03-29T07:36:57Z</time></trkpt><trkpt lat="44.06171576770556" lon="8.153388325354042"><ele>100.0</ele><time>2026-03-29T07:36:58Z</time></trkpt><trkpt lat="44.06179539591498" lon="8.153296093887603"><ele>103.0</ele><time>2026-03-29T07:36:59Z</time></trkpt><trkpt lat="44.061882028103575" lon="8.15323342743919"><ele>99.75</ele><time>2026-03-29T07:37:00Z</time></trkpt><trkpt lat="44.06199485945698" lon="8.153146803107322"><ele>96.5</ele><time>2026-03-29T07:37:01Z</time></trkpt><trkpt lat="44.06211964185264" lon="8.153064493271193"><ele>93.25</ele><time>2026-03-29T07:37:02Z</time></trkpt><trkpt lat="44.062255776847984" lon="8.152992839512397"><ele>90.0</ele><time>2026-03-29T07:37:03Z</time></trkpt><trkpt lat="44.06239464106482" lon="8.152914984066138"><ele>90.0</ele><time>2026-03-29T07:37:04Z</time></trkpt><trkpt lat="44.06250819117767" lon="8.152816111394312"><ele>90.0</ele><time>2026-03-29T07:37:05Z</time></trkpt><trkpt lat="44.062619116917055" lon="8.152699844488476"><ele>90.0</ele><time>2026-03-29T07:37:06Z</time></trkpt><trkpt lat="44.062710836939395" lon="8.152529930474039"><ele>90.0</ele><time>2026-03-29T07:37:07Z</time></trkpt><trkpt lat="44.062782574597065" lon="8.152334083158527"><ele>90.0</ele><time>2026-03-29T07:37:08Z</time></trkpt><trkpt lat="44.06287496116476" lon="8.152123433280467"><ele>90.0</ele><time>2026-03-29T07:37:09Z</time></trkpt><trkpt lat="44.0629440142819" lon="8.151956625923901"><ele>90.0</ele><time>2026-03-29T07:37:10Z</time></trkpt><trkpt lat="44.06299673639192" lon="8.15178897834073"><ele>90.0</ele><time>2026-03-29T07:37:11Z</time></trkpt><trkpt lat="44.06302961574022" lon="8.151663902318278"><ele>90.0</ele><time>2026-03-29T07:37:12Z</time></trkpt><trkpt lat="44.06309495513482" lon="8.151577734106201"><ele>90.0</ele><time>2026-03-29T07:37:14Z</time></trkpt><trkpt lat="44.06314721037088" lon="8.151481778107469"><ele>90.0</ele><time>2026-03-29T07:37:16Z</time></trkpt><trkpt lat="44.06312270817416" lon="8.151395726033277"><ele>90.0</ele><time>2026-03-29T07:37:17Z</time></trkpt><trkpt lat="44.06307375273462" lon="8.151287481489424"><ele>90.0</ele><time>2026-03-29T07:37:18Z</time></trkpt><trkpt lat="44.06303011834673" lon="8.15116767420342"><ele>90.0</ele><time>2026-03-29T07:37:19Z</time></trkpt><trkpt lat="44.06300343160574" lon="8.151047474858531"><ele>89.4</ele><time>2026-03-29T07:37:20Z</time></trkpt><trkpt lat="44.06298754072612" lon="8.150920475020213"><ele>88.8</ele><time>2026-03-29T07:37:21Z</time></trkpt><trkpt lat="44.06297805269546" lon="8.15077563662159"><ele>88.19999999999999</ele><time>2026-03-29T07:37:22Z</time></trkpt><trkpt lat="44.06297447569894" lon="8.150630591871217"><ele>87.6</ele><time>2026-03-29T07:37:23Z</time></trkpt><trkpt lat="44.062951501856844" lon="8.150506967489248"><ele>87.0</ele><time>2026-03-29T07:37:24Z</time></trkpt><trkpt lat="44.0629156896857" lon="8.150397132895005"><ele>87.0</ele><time>2026-03-29T07:37:25Z</time></trkpt><trkpt lat="44.06286333201613" lon="8.150299155744602"><ele>87.0</ele><time>2026-03-29T07:37:26Z</time></trkpt><trkpt lat="44.06279675799681" lon="8.15019471188067"><ele>87.0</ele><time>2026-03-29T07:37:27Z</time></trkpt><trkpt lat="44.06275091181771" lon="8.150105166087291"><ele>87.0</ele><time>2026-03-29T07:37:28Z</time></trkpt><trkpt lat="44.06277465448746" lon="8.1499406070743"><ele>87.0</ele><time>2026-03-29T07:37:30Z</time></trkpt><trkpt lat="44.06281678187354" lon="8.149851448084489"><ele>86.8</ele><time>2026-03-29T07:37:31Z</time></trkpt><trkpt lat="44.06286879651292" lon="8.14977834587476"><ele>86.6</ele><time>2026-03-29T07:37:32Z</time></trkpt><trkpt lat="44.06293681818963" lon="8.149691569022476"><ele>86.39999999999999</ele><time>2026-03-29T07:37:33Z</time></trkpt><trkpt lat="44.06301912734932" lon="8.149575492010785"><ele>86.19999999999999</ele><time>2026-03-29T07:37:34Z</time></trkpt><trkpt lat="44.06307840595464" lon="8.149428940698623"><ele>86.0</ele><time>2026-03-29T07:37:35Z</time></trkpt><trkpt lat="44.063125904144236" lon="8.149250394309428"><ele>86.0</ele><time>2026-03-29T07:37:36Z</time></trkpt><trkpt lat="44.0631836820047" lon="8.149087657446714"><ele>86.0</ele><time>2026-03-29T07:37:37Z</time></trkpt><trkpt lat="44.063259269985764" lon="8.14894841209056"><ele>86.0</ele><time>2026-03-29T07:37:38Z</time></trkpt><trkpt lat="44.0633176991025" lon="8.148805736788104"><ele>86.0</ele><time>2026-03-29T07:37:39Z</time></trkpt><trkpt lat="44.06333879086303" lon="8.14863220763753"><ele>88.0</ele><time>2026-03-29T07:37:40Z</time></trkpt><trkpt lat="44.06333999749013" lon="8.148444250109184"><ele>90.0</ele><time>2026-03-29T07:37:41Z</time></trkpt><trkpt lat="44.06333744063909" lon="8.148244982181453"><ele>92.0</ele><time>2026-03-29T07:37:42Z</time></trkpt><trkpt lat="44.06332521561479" lon="8.148048614677556"><ele>94.0</ele><time>2026-03-29T07:37:43Z</time></trkpt><trkpt lat="44.06330068616474" lon="8.147844120411527"><ele>95.0</ele><time>2026-03-29T07:37:44Z</time></trkpt><trkpt lat="44.06327035152082" lon="8.147636829800303"><ele>96.0</ele><time>2026-03-29T07:37:45Z</time></trkpt><trkpt lat="44.06324092093068" lon="8.147426273889463"><ele>97.0</ele><time>2026-03-29T07:37:46Z</time></trkpt><trkpt lat="44.06320595250058" lon="8.147205548200326"><ele>97.0</ele><time>2026-03-29T07:37:47Z</time></trkpt><trkpt lat="44.06315007263444" lon="8.146994327734882"><ele>97.0</ele><time>2026-03-29T07:37:48Z</time></trkpt><trkpt lat="44.06308626186582" lon="8.146789575995438"><ele>97.0</ele><time>2026-03-29T07:37:49Z</time></trkpt><trkpt lat="44.06303413555423" lon="8.14660101839918"><ele>99.75</ele><time>2026-03-29T07:37:50Z</time></trkpt><trkpt lat="44.06299694586586" lon="8.14641992721877"><ele>102.5</ele><time>2026-03-29T07:37:51Z</time></trkpt><trkpt lat="44.06296421396024" lon="8.146241342917756"><ele>105.25</ele><time>2026-03-29T07:37:52Z</time></trkpt><trkpt lat="44.06293660708634" lon="8.146060140665252"><ele>108.0</ele><time>2026-03-29T07:37:53Z</time></trkpt><trkpt lat="44.06293074578196" lon="8.14586331727215"><ele>107.5</ele><time>2026-03-29T07:37:54Z</time></trkpt><trkpt lat="44.06295438297727" lon="8.145668603825277"><ele>107.0</ele><time>2026-03-29T07:37:55Z</time></trkpt><trkpt lat="44.06298258742051" lon="8.145485503315694"><ele>106.5</ele><time>2026-03-29T07:37:56Z</time></trkpt><trkpt lat="44.063004411508345" lon="8.14528674605552"><ele>106.0</ele><time>2026-03-29T07:37:57Z</time></trkpt><trkpt lat="44.06303010762167" lon="8.145092693562594"><ele>106.0</ele><time>2026-03-29T07:37:58Z</time></trkpt><trkpt lat="44.063060840398315" lon="8.144926782359487"><ele>106.0</ele><time>2026-03-29T07:37:59Z</time></trkpt><trkpt lat="44.06309972307499" lon="8.144780596964855"><ele>106.0</ele><time>2026-03-29T07:38:00Z</time></trkpt><trkpt lat="44.063152366732986" lon="8.144643563540232"><ele>106.0</ele><time>2026-03-29T07:38:01Z</time></trkpt><trkpt lat="44.06322028243562" lon="8.144516489942156"><ele>106.19999999999999</ele><time>2026-03-29T07:38:02Z</time></trkpt><trkpt lat="44.063289466182155" lon="8.144406539560412"><ele>106.39999999999999</ele><time>2026-03-29T07:38:03Z</time></trkpt><trkpt lat="44.06334535991379" lon="8.144288468928423"><ele>106.6</ele><time>2026-03-29T07:38:04Z</time></trkpt><trkpt lat="44.06339947206698" lon="8.144166800861873"><ele>106.8</ele><time>2026-03-29T07:38:05Z</time></trkpt><trkpt lat="44.06345697168727" lon="8.144040917470758"><ele>107.0</ele><time>2026-03-29T07:38:06Z</time></trkpt><trkpt lat="44.063523234100934" lon="8.143911112557715"><ele>107.0</ele><time>2026-03-29T07:38:07Z</time></trkpt><trkpt lat="44.06359878484651" lon="8.143793996448832"><ele>106.99999999999999</ele><time>2026-03-29T07:38:08Z</time></trkpt><trkpt lat="44.063666905942014" lon="8.143698303169483"><ele>106.99999999999999</ele><time>2026-03-29T07:38:09Z</time></trkpt><trkpt lat="44.06374695005358" lon="8.143640579168983"><ele>107.0</ele><time>2026-03-29T07:38:10Z</time></trkpt><trkpt lat="44.06384333734814" lon="8.143581761747823"><ele>107.0</ele><time>2026-03-29T07:38:11Z</time></trkpt><trkpt lat="44.063939589933796" lon="8.143510685193586"><ele>107.0</ele><time>2026-03-29T07:38:12Z</time></trkpt><trkpt lat="44.063991141712975" lon="8.143386961309481"><ele>106.99999999999999</ele><time>2026-03-29T07:38:13Z</time></trkpt><trkpt lat="44.064016145206146" lon="8.143253752006997"><ele>106.99999999999999</ele><time>2026-03-29T07:38:14Z</time></trkpt><trkpt lat="44.06405694619996" lon="8.14312633127356"><ele>107.0</ele><time>2026-03-29T07:38:15Z</time></trkpt><trkpt lat="44.06410063548727" lon="8.14300939388904"><ele>107.0</ele><time>2026-03-29T07:38:16Z</time></trkpt><trkpt lat="44.064150408653965" lon="8.142910102090006"><ele>110.0</ele><time>2026-03-29T07:38:17Z</time></trkpt><trkpt lat="44.06421426900038" lon="8.142859168488755"><ele>112.99999999999999</ele><time>2026-03-29T07:38:18Z</time></trkpt><trkpt lat="44.06429361362163" lon="8.142830769340737"><ele>115.99999999999999</ele><time>2026-03-29T07:38:19Z</time></trkpt><trkpt lat="44.06438308124548" lon="8.142812174118491"><ele>119.0</ele><time>2026-03-29T07:38:20Z</time></trkpt><trkpt lat="44.064479754435816" lon="8.14278208963147"><ele>122.0</ele><time>2026-03-29T07:38:21Z</time></trkpt><trkpt lat="44.064597667944234" lon="8.14274309800316"><ele>122.0</ele><time>2026-03-29T07:38:22Z</time></trkpt><trkpt lat="44.06473634179418" lon="8.142690933245683"><ele>122.0</ele><time>2026-03-29T07:38:23Z</time></trkpt><trkpt lat="44.06487677081463" lon="8.14260774955386"><ele>122.0</ele><time>2026-03-29T07:38:24Z</time></trkpt><trkpt lat="44.064994958322586" lon="8.142521064884122"><ele>122.0</ele><time>2026-03-29T07:38:25Z</time></trkpt><trkpt lat="44.065080817418966" lon="8.142421385773725"><ele>121.5</ele><time>2026-03-29T07:38:26Z</time></trkpt><trkpt lat="44.06514693936501" lon="8.142294841557899"><ele>121.0</ele><time>2026-03-29T07:38:27Z</time></trkpt><trkpt lat="44.06523257141514" lon="8.142141252458265"><ele>120.5</ele><time>2026-03-29T07:38:28Z</time></trkpt><trkpt lat="44.06530543461164" lon="8.141978064625446"><ele>120.0</ele><time>2026-03-29T07:38:29Z</time></trkpt><trkpt lat="44.0653435606676" lon="8.141795451889019"><ele>120.0</ele><time>2026-03-29T07:38:30Z</time></trkpt><trkpt lat="44.06536646623763" lon="8.141561596917816"><ele>120.0</ele><time>2026-03-29T07:38:31Z</time></trkpt><trkpt lat="44.065380758084125" lon="8.14132353338194"><ele>120.0</ele><time>2026-03-29T07:38:32Z</time></trkpt><trkpt lat="44.065411137761146" lon="8.141102317334857"><ele>120.33333333333334</ele><time>2026-03-29T07:38:33Z</time></trkpt><trkpt lat="44.065447516248156" lon="8.140881980210608"><ele>120.66666666666667</ele><time>2026-03-29T07:38:34Z</time></trkpt><trkpt lat="44.06547458103381" lon="8.140653509884382"><ele>121.0</ele><time>2026-03-29T07:38:35Z</time></trkpt><trkpt lat="44.0655114508549" lon="8.140454313107757"><ele>119.25</ele><time>2026-03-29T07:38:36Z</time></trkpt><trkpt lat="44.065561502916324" lon="8.14029260451906"><ele>117.5</ele><time>2026-03-29T07:38:37Z</time></trkpt><trkpt lat="44.06563048654689" lon="8.140162595121403"><ele>115.75</ele><time>2026-03-29T07:38:38Z</time></trkpt><trkpt lat="44.065710003350084" lon="8.140043972477885"><ele>114.0</ele><time>2026-03-29T07:38:39Z</time></trkpt><trkpt lat="44.065816198728996" lon="8.139931230126903"><ele>116.0</ele><time>2026-03-29T07:38:40Z</time></trkpt><trkpt lat="44.06592376978432" lon="8.13979323455365"><ele>118.0</ele><time>2026-03-29T07:38:41Z</time></trkpt><trkpt lat="44.066023165313325" lon="8.139631314124168"><ele>120.0</ele><time>2026-03-29T07:38:42Z</time></trkpt><trkpt lat="44.06610219743625" lon="8.13944583829346"><ele>120.0</ele><time>2026-03-29T07:38:43Z</time></trkpt><trkpt lat="44.06617223496009" lon="8.139265118853057"><ele>120.0</ele><time>2026-03-29T07:38:44Z</time></trkpt><trkpt lat="44.066225184665214" lon="8.139047791866707"><ele>120.0</ele><time>2026-03-29T07:38:45Z</time></trkpt><trkpt lat="44.06626246671149" lon="8.13882014628764"><ele>120.25</ele><time>2026-03-29T07:38:46Z</time></trkpt><trkpt lat="44.066312149892845" lon="8.138583644394757"><ele>120.5</ele><time>2026-03-29T07:38:47Z</time></trkpt><trkpt lat="44.066361296897384" lon="8.138394966018478"><ele>120.75</ele><time>2026-03-29T07:38:48Z</time></trkpt><trkpt lat="44.066390502321646" lon="8.13822233089794"><ele>121.0</ele><time>2026-03-29T07:38:49Z</time></trkpt><trkpt lat="44.06639180053757" lon="8.138069576966585"><ele>119.75</ele><time>2026-03-29T07:38:50Z</time></trkpt><trkpt lat="44.066398934486635" lon="8.137908509009828"><ele>118.5</ele><time>2026-03-29T07:38:51Z</time></trkpt><trkpt lat="44.06644833978534" lon="8.137743479421458"><ele>117.25</ele><time>2026-03-29T07:38:52Z</time></trkpt><trkpt lat="44.066529596851225" lon="8.137560373168144"><ele>116.0</ele><time>2026-03-29T07:38:53Z</time></trkpt><trkpt lat="44.06660862605137" lon="8.137376668771886"><ele>120.25</ele><time>2026-03-29T07:38:54Z</time></trkpt><trkpt lat="44.06666155400215" lon="8.137186167542934"><ele>124.5</ele><time>2026-03-29T07:38:55Z</time></trkpt><trkpt lat="44.06671034627143" lon="8.13703752941725"><ele>128.75</ele><time>2026-03-29T07:38:56Z</time></trkpt><trkpt lat="44.06679130418875" lon="8.136930632096545"><ele>133.0</ele><time>2026-03-29T07:38:57Z</time></trkpt><trkpt lat="44.06688340363286" lon="8.136827847391633"><ele>133.0</ele><time>2026-03-29T07:38:58Z</time></trkpt><trkpt lat="44.06699282203185" lon="8.136691474067021"><ele>133.0</ele><time>2026-03-29T07:38:59Z</time></trkpt><trkpt lat="44.06710089253167" lon="8.13652158904905"><ele>133.0</ele><time>2026-03-29T07:39:00Z</time></trkpt><trkpt lat="44.06720744417807" lon="8.13633600122936"><ele>135.33333333333334</ele><time>2026-03-29T07:39:01Z</time></trkpt><trkpt lat="44.06732291938134" lon="8.136164027679843"><ele>137.66666666666666</ele><time>2026-03-29T07:39:02Z</time></trkpt><trkpt lat="44.06744711052143" lon="8.136004926444459"><ele>140.0</ele><time>2026-03-29T07:39:03Z</time></trkpt><trkpt lat="44.06756484215395" lon="8.135841522215486"><ele>138.75</ele><time>2026-03-29T07:39:04Z</time></trkpt><trkpt lat="44.067650262434135" lon="8.135677799494726"><ele>137.5</ele><time>2026-03-29T07:39:05Z</time></trkpt><trkpt lat="44.0677306898121" lon="8.13550708314622"><ele>136.25</ele><time>2026-03-29T07:39:06Z</time></trkpt><trkpt lat="44.067800940452265" lon="8.135352113358682"><ele>135.0</ele><time>2026-03-29T07:39:07Z</time></trkpt><trkpt lat="44.06786861460274" lon="8.135196041310953"><ele>135.0</ele><time>2026-03-29T07:39:08Z</time></trkpt><trkpt lat="44.06788986832488" lon="8.13502211454928"><ele>135.0</ele><time>2026-03-29T07:39:09Z</time></trkpt><trkpt lat="44.06792240196519" lon="8.13482781209652"><ele>135.0</ele><time>2026-03-29T07:39:10Z</time></trkpt><trkpt lat="44.06796338563656" lon="8.134626655751406"><ele>135.0</ele><time>2026-03-29T07:39:11Z</time></trkpt><trkpt lat="44.06797950353016" lon="8.13444821681873"><ele>135.6</ele><time>2026-03-29T07:39:12Z</time></trkpt><trkpt lat="44.06799492642533" lon="8.134303292264896"><ele>136.2</ele><time>2026-03-29T07:39:13Z</time></trkpt><trkpt lat="44.06802149373105" lon="8.13416417642542"><ele>136.8</ele><time>2026-03-29T07:39:14Z</time></trkpt><trkpt lat="44.068041026140136" lon="8.134025140258663"><ele>137.4</ele><time>2026-03-29T07:39:15Z</time></trkpt><trkpt lat="44.06804840134483" lon="8.133888713588394"><ele>138.0</ele><time>2026-03-29T07:39:16Z</time></trkpt><trkpt lat="44.06807433091511" lon="8.133779608767606"><ele>141.25</ele><time>2026-03-29T07:39:17Z</time></trkpt><trkpt lat="44.06812193371058" lon="8.13363931810446"><ele>144.5</ele><time>2026-03-29T07:39:18Z</time></trkpt><trkpt lat="44.06818644225284" lon="8.133493741850051"><ele>147.75</ele><time>2026-03-29T07:39:19Z</time></trkpt><trkpt lat="44.06823624511316" lon="8.133332096396087"><ele>151.0</ele><time>2026-03-29T07:39:20Z</time></trkpt><trkpt lat="44.06827581578338" lon="8.133152925070881"><ele>154.25</ele><time>2026-03-29T07:39:21Z</time></trkpt><trkpt lat="44.06829795196982" lon="8.132970064648232"><ele>157.5</ele><time>2026-03-29T07:39:22Z</time></trkpt><trkpt lat="44.068320411923814" lon="8.132784801516733"><ele>160.75</ele><time>2026-03-29T07:39:23Z</time></trkpt><trkpt lat="44.06837098449316" lon="8.13263542513327"><ele>164.0</ele><time>2026-03-29T07:39:24Z</time></trkpt><trkpt lat="44.06844860975946" lon="8.132532776907494"><ele>164.0</ele><time>2026-03-29T07:39:25Z</time></trkpt><trkpt lat="44.06853353065802" lon="8.132455052808876"><ele>164.0</ele><time>2026-03-29T07:39:26Z</time></trkpt><trkpt lat="44.06861781352304" lon="8.132374879658324"><ele>164.0</ele><time>2026-03-29T07:39:27Z</time></trkpt><trkpt lat="44.068701045158946" lon="8.132256772372044"><ele>164.0</ele><time>2026-03-29T07:39:28Z</time></trkpt><trkpt lat="44.068793978107585" lon="8.132117486128521"><ele>163.25</ele><time>2026-03-29T07:39:29Z</time></trkpt><trkpt lat="44.06888098428781" lon="8.131993340489375"><ele>162.5</ele><time>2026-03-29T07:39:30Z</time></trkpt><trkpt lat="44.068975072680594" lon="8.131893398450659"><ele>161.75</ele><time>2026-03-29T07:39:31Z</time></trkpt><trkpt lat="44.06908892607644" lon="8.13180688496057"><ele>161.0</ele><time>2026-03-29T07:39:32Z</time></trkpt><trkpt lat="44.06921180603317" lon="8.131689455046063"><ele>158.5</ele><time>2026-03-29T07:39:33Z</time></trkpt><trkpt lat="44.06931155581446" lon="8.131540380742846"><ele>156.0</ele><time>2026-03-29T07:39:34Z</time></trkpt><trkpt lat="44.06938029353893" lon="8.131367881159374"><ele>153.5</ele><time>2026-03-29T07:39:35Z</time></trkpt><trkpt lat="44.06943371324091" lon="8.131178171572945"><ele>151.0</ele><time>2026-03-29T07:39:36Z</time></trkpt><trkpt lat="44.06949332660809" lon="8.130967968366585"><ele>151.0</ele><time>2026-03-29T07:39:37Z</time></trkpt><trkpt lat="44.06954454701932" lon="8.130751764676354"><ele>151.0</ele><time>2026-03-29T07:39:38Z</time></trkpt><trkpt lat="44.069601746260766" lon="8.130544462646029"><ele>151.0</ele><time>2026-03-29T07:39:39Z</time></trkpt><trkpt lat="44.06964459775044" lon="8.130344195364588"><ele>150.8</ele><time>2026-03-29T07:39:40Z</time></trkpt><trkpt lat="44.06967483921998" lon="8.13016196154399"><ele>150.6</ele><time>2026-03-29T07:39:41Z</time></trkpt><trkpt lat="44.06972609835852" lon="8.130005756257425"><ele>150.4</ele><time>2026-03-29T07:39:42Z</time></trkpt><trkpt lat="44.06979517759648" lon="8.129905291449775"><ele>150.2</ele><time>2026-03-29T07:39:43Z</time></trkpt><trkpt lat="44.069865347701544" lon="8.129835814249128"><ele>150.0</ele><time>2026-03-29T07:39:44Z</time></trkpt><trkpt lat="44.06991555383655" lon="8.129762375560526"><ele>153.25</ele><time>2026-03-29T07:39:45Z</time></trkpt><trkpt lat="44.069909512515096" lon="8.129573686752956"><ele>156.5</ele><time>2026-03-29T07:39:47Z</time></trkpt><trkpt lat="44.06987603561347" lon="8.12942264493465"><ele>159.75</ele><time>2026-03-29T07:39:48Z</time></trkpt><trkpt lat="44.069834134296386" lon="8.129235435231692"><ele>163.0</ele><time>2026-03-29T07:39:49Z</time></trkpt><trkpt lat="44.06978347197451" lon="8.129054097662706"><ele>166.0</ele><time>2026-03-29T07:39:50Z</time></trkpt><trkpt lat="44.069740299609755" lon="8.128863391031242"><ele>169.0</ele><time>2026-03-29T07:39:51Z</time></trkpt><trkpt lat="44.069690347925345" lon="8.128672351802347"><ele>172.0</ele><time>2026-03-29T07:39:52Z</time></trkpt><trkpt lat="44.06964841163738" lon="8.128500049832292"><ele>175.0</ele><time>2026-03-29T07:39:53Z</time></trkpt><trkpt lat="44.069621222751394" lon="8.128372010926087"><ele>175.0</ele><time>2026-03-29T07:39:54Z</time></trkpt><trkpt lat="44.069558844879545" lon="8.12830514813329"><ele>175.0</ele><time>2026-03-29T07:39:56Z</time></trkpt><trkpt lat="44.069427680418656" lon="8.128371264753406"><ele>175.0</ele><time>2026-03-29T07:39:58Z</time></trkpt><trkpt lat="44.06933351239224" lon="8.128397659744225"><ele>175.0</ele><time>2026-03-29T07:39:59Z</time></trkpt><trkpt lat="44.0692285775439" lon="8.128393985654549"><ele>175.0</ele><time>2026-03-29T07:40:00Z</time></trkpt><trkpt lat="44.069115441857235" lon="8.128377980396838"><ele>170.4</ele><time>2026-03-29T07:40:01Z</time></trkpt><trkpt lat="44.069013022961215" lon="8.128365246241987"><ele>165.8</ele><time>2026-03-29T07:40:02Z</time></trkpt><trkpt lat="44.06892164862908" lon="8.128365902070852"><ele>161.2</ele><time>2026-03-29T07:40:03Z</time></trkpt><trkpt lat="44.06885207940983" lon="8.128375230408501"><ele>156.6</ele><time>2026-03-29T07:40:04Z</time></trkpt><trkpt lat="44.06874248055904" lon="8.128352505473822"><ele>152.0</ele><time>2026-03-29T07:40:06Z</time></trkpt><trkpt lat="44.06870383791143" lon="8.128192618537714"><ele>151.5</ele><time>2026-03-29T07:40:08Z</time></trkpt><trkpt lat="44.06870081613709" lon="8.128066351129993"><ele>151.0</ele><time>2026-03-29T07:40:09Z</time></trkpt><trkpt lat="44.06870518146938" lon="8.127911990247796"><ele>150.5</ele><time>2026-03-29T07:40:10Z</time></trkpt><trkpt lat="44.06871039596477" lon="8.127728925039747"><ele>150.0</ele><time>2026-03-29T07:40:11Z</time></trkpt><trkpt lat="44.0687153074189" lon="8.127538764435092"><ele>152.0</ele><time>2026-03-29T07:40:12Z</time></trkpt><trkpt lat="44.06872613446416" lon="8.127375261400251"><ele>154.0</ele><time>2026-03-29T07:40:13Z</time></trkpt><trkpt lat="44.06871936030568" lon="8.12724255965952"><ele>156.0</ele><time>2026-03-29T07:40:14Z</time></trkpt><trkpt lat="44.068699096596625" lon="8.12712469898003"><ele>158.0</ele><time>2026-03-29T07:40:15Z</time></trkpt><trkpt lat="44.0686956672093" lon="8.12695391663235"><ele>160.0</ele><time>2026-03-29T07:40:16Z</time></trkpt><trkpt lat="44.068695898703304" lon="8.1267904104409"><ele>160.0</ele><time>2026-03-29T07:40:17Z</time></trkpt><trkpt lat="44.06868538523475" lon="8.126623736851135"><ele>160.0</ele><time>2026-03-29T07:40:18Z</time></trkpt><trkpt lat="44.06864376427161" lon="8.126489655780274"><ele>160.0</ele><time>2026-03-29T07:40:19Z</time></trkpt><trkpt lat="44.06857992418869" lon="8.12641588600335"><ele>160.0</ele><time>2026-03-29T07:40:20Z</time></trkpt><trkpt lat="44.06858373721213" lon="8.126255901923574"><ele>160.0</ele><time>2026-03-29T07:40:22Z</time></trkpt><trkpt lat="44.06849522487603" lon="8.126210207373973"><ele>158.66666666666669</ele><time>2026-03-29T07:40:25Z</time></trkpt><trkpt lat="44.068436210131836" lon="8.126252816724584"><ele>157.33333333333334</ele><time>2026-03-29T07:40:26Z</time></trkpt><trkpt lat="44.06836289437562" lon="8.126295871852324"><ele>156.0</ele><time>2026-03-29T07:40:27Z</time></trkpt><trkpt lat="44.0682780013944" lon="8.126314328629887"><ele>154.66666666666666</ele><time>2026-03-29T07:40:28Z</time></trkpt><trkpt lat="44.06817926134304" lon="8.126307852846132"><ele>153.33333333333331</ele><time>2026-03-29T07:40:29Z</time></trkpt><trkpt lat="44.06809151981292" lon="8.126285137671426"><ele>152.0</ele><time>2026-03-29T07:40:30Z</time></trkpt><trkpt lat="44.06803590370072" lon="8.126226953002137"><ele>152.0</ele><time>2026-03-29T07:40:31Z</time></trkpt><trkpt lat="44.0680070522503" lon="8.12614729677283"><ele>152.0</ele><time>2026-03-29T07:40:32Z</time></trkpt><trkpt lat="44.06799841703483" lon="8.12605690267123"><ele>152.0</ele><time>2026-03-29T07:40:33Z</time></trkpt><trkpt lat="44.06800853817606" lon="8.125951422689075"><ele>152.0</ele><time>2026-03-29T07:40:34Z</time></trkpt><trkpt lat="44.06803046186994" lon="8.125813980087681"><ele>152.0</ele><time>2026-03-29T07:40:35Z</time></trkpt><trkpt lat="44.06805239506803" lon="8.125666177864211"><ele>152.0</ele><time>2026-03-29T07:40:36Z</time></trkpt><trkpt lat="44.068071936897454" lon="8.125497750512846"><ele>152.0</ele><time>2026-03-29T07:40:37Z</time></trkpt><trkpt lat="44.06810271952507" lon="8.12531757416119"><ele>152.0</ele><time>2026-03-29T07:40:38Z</time></trkpt><trkpt lat="44.06814912909184" lon="8.125133269786087"><ele>152.0</ele><time>2026-03-29T07:40:39Z</time></trkpt><trkpt lat="44.06819833095758" lon="8.124949606249894"><ele>152.0</ele><time>2026-03-29T07:40:40Z</time></trkpt><trkpt lat="44.06824704759146" lon="8.124773112014921"><ele>156.2</ele><time>2026-03-29T07:40:41Z</time></trkpt><trkpt lat="44.068312218269504" lon="8.12463120790218"><ele>160.39999999999998</ele><time>2026-03-29T07:40:42Z</time></trkpt><trkpt lat="44.06836419021178" lon="8.124520945663125"><ele>164.60000000000002</ele><time>2026-03-29T07:40:43Z</time></trkpt><trkpt lat="44.068405047103994" lon="8.124402797625743"><ele>168.8</ele><time>2026-03-29T07:40:44Z</time></trkpt><trkpt lat="44.068446701320845" lon="8.124257248902602"><ele>173.0</ele><time>2026-03-29T07:40:45Z</time></trkpt><trkpt lat="44.06851022132024" lon="8.12412230761516"><ele>174.2</ele><time>2026-03-29T07:40:46Z</time></trkpt><trkpt lat="44.068563122993375" lon="8.123988885451908"><ele>175.4</ele><time>2026-03-29T07:40:47Z</time></trkpt><trkpt lat="44.0686084903632" lon="8.123856106794287"><ele>176.6</ele><time>2026-03-29T07:40:48Z</time></trkpt><trkpt lat="44.06865859721435" lon="8.123735842402592"><ele>177.79999999999998</ele><time>2026-03-29T07:40:49Z</time></trkpt><trkpt lat="44.068713868171" lon="8.123610884036575"><ele>179.0</ele><time>2026-03-29T07:40:50Z</time></trkpt><trkpt lat="44.06876648307704" lon="8.12345531573269"><ele>179.0</ele><time>2026-03-29T07:40:51Z</time></trkpt><trkpt lat="44.06881947249588" lon="8.123279222888899"><ele>179.0</ele><time>2026-03-29T07:40:52Z</time></trkpt><trkpt lat="44.068862462384075" lon="8.123128145020928"><ele>179.0</ele><time>2026-03-29T07:40:53Z</time></trkpt><trkpt lat="44.06891694955257" lon="8.123021807358574"><ele>179.0</ele><time>2026-03-29T07:40:54Z</time></trkpt><trkpt lat="44.06897443954847" lon="8.122934316613566"><ele>179.0</ele><time>2026-03-29T07:40:55Z</time></trkpt><trkpt lat="44.06903553245287" lon="8.122856539720699"><ele>179.0</ele><time>2026-03-29T07:40:56Z</time></trkpt><trkpt lat="44.06910231775056" lon="8.122793969545633"><ele>179.0</ele><time>2026-03-29T07:40:57Z</time></trkpt><trkpt lat="44.06916328460652" lon="8.122733477920423"><ele>179.0</ele><time>2026-03-29T07:40:58Z</time></trkpt><trkpt lat="44.069222724453134" lon="8.122615719849016"><ele>179.0</ele><time>2026-03-29T07:41:00Z</time></trkpt><trkpt lat="44.06923412501953" lon="8.122512902916514"><ele>179.0</ele><time>2026-03-29T07:41:01Z</time></trkpt><trkpt lat="44.06926892528299" lon="8.122378465226817"><ele>179.0</ele><time>2026-03-29T07:41:02Z</time></trkpt><trkpt lat="44.06929519756088" lon="8.122284714590078"><ele>177.39999999999998</ele><time>2026-03-29T07:41:03Z</time></trkpt><trkpt lat="44.06930972618647" lon="8.122168488161726"><ele>175.8</ele><time>2026-03-29T07:41:05Z</time></trkpt><trkpt lat="44.06930608703365" lon="8.122038849987758"><ele>174.2</ele><time>2026-03-29T07:41:07Z</time></trkpt><trkpt lat="44.069304871562615" lon="8.121880067022058"><ele>172.60000000000002</ele><time>2026-03-29T07:41:09Z</time></trkpt><trkpt lat="44.06939462073874" lon="8.12178117112039"><ele>171.0</ele><time>2026-03-29T07:41:11Z</time></trkpt><trkpt lat="44.06944756775905" lon="8.121631632243986"><ele>168.20000000000002</ele><time>2026-03-29T07:41:15Z</time></trkpt><trkpt lat="44.069363786193954" lon="8.12148093179595"><ele>165.4</ele><time>2026-03-29T07:41:16Z</time></trkpt><trkpt lat="44.069309606650506" lon="8.121407751442694"><ele>162.6</ele><time>2026-03-29T07:41:17Z</time></trkpt><trkpt lat="44.06925869871377" lon="8.12131359083164"><ele>159.8</ele><time>2026-03-29T07:41:18Z</time></trkpt><trkpt lat="44.06919890739209" lon="8.121271994599946"><ele>157.0</ele><time>2026-03-29T07:41:19Z</time></trkpt><trkpt lat="44.06912951708819" lon="8.121128851233465"><ele>157.0</ele><time>2026-03-29T07:41:21Z</time></trkpt><trkpt lat="44.06909457042911" lon="8.121031988865326"><ele>157.0</ele><time>2026-03-29T07:41:23Z</time></trkpt><trkpt lat="44.069227835781795" lon="8.121130052873843"><ele>157.0</ele><time>2026-03-29T07:41:27Z</time></trkpt><trkpt lat="44.06932218429189" lon="8.121215471604666"><ele>157.0</ele><time>2026-03-29T07:41:29Z</time></trkpt><trkpt lat="44.06940201625793" lon="8.121152932676166"><ele>157.0</ele><time>2026-03-29T07:41:31Z</time></trkpt><trkpt lat="44.06946283879606" lon="8.121071431290153"><ele>157.0</ele><time>2026-03-29T07:41:32Z</time></trkpt><trkpt lat="44.06947870986656" lon="8.120966625021886"><ele>157.0</ele><time>2026-03-29T07:41:33Z</time></trkpt><trkpt lat="44.069524847258535" lon="8.120834897798646"><ele>157.0</ele><time>2026-03-29T07:41:34Z</time></trkpt><trkpt lat="44.06958405555945" lon="8.120751563249552"><ele>157.0</ele><time>2026-03-29T07:41:35Z</time></trkpt><trkpt lat="44.06964578591807" lon="8.12070586316796"><ele>157.0</ele><time>2026-03-29T07:41:36Z</time></trkpt><trkpt lat="44.069727553539636" lon="8.120567447847945"><ele>154.83333333333334</ele><time>2026-03-29T07:41:38Z</time></trkpt><trkpt lat="44.06975200150784" lon="8.120472477861345"><ele>152.66666666666669</ele><time>2026-03-29T07:41:39Z</time></trkpt><trkpt lat="44.06975982955386" lon="8.12032591104811"><ele>150.5</ele><time>2026-03-29T07:41:40Z</time></trkpt><trkpt lat="44.06978409020401" lon="8.120183615342288"><ele>148.33333333333334</ele><time>2026-03-29T07:41:41Z</time></trkpt><trkpt lat="44.06977369284156" lon="8.120071535879319"><ele>146.16666666666666</ele><time>2026-03-29T07:41:42Z</time></trkpt><trkpt lat="44.06980139205316" lon="8.119960407999036"><ele>144.0</ele><time>2026-03-29T07:41:43Z</time></trkpt><trkpt lat="44.069848009749535" lon="8.119871493858371"><ele>145.6</ele><time>2026-03-29T07:41:44Z</time></trkpt><trkpt lat="44.069923524644615" lon="8.119842911085783"><ele>147.2</ele><time>2026-03-29T07:41:45Z</time></trkpt><trkpt lat="44.07003404036867" lon="8.119813339293504"><ele>148.79999999999998</ele><time>2026-03-29T07:41:46Z</time></trkpt><trkpt lat="44.07012883747477" lon="8.119822941389783"><ele>150.4</ele><time>2026-03-29T07:41:47Z</time></trkpt><trkpt lat="44.070203668259445" lon="8.119857679456956"><ele>152.0</ele><time>2026-03-29T07:41:48Z</time></trkpt><trkpt lat="44.070284615983006" lon="8.119909317852741"><ele>149.0</ele><time>2026-03-29T07:41:50Z</time></trkpt><trkpt lat="44.070308671386044" lon="8.119789091312098"><ele>146.0</ele><time>2026-03-29T07:41:52Z</time></trkpt><trkpt lat="44.07025654468298" lon="8.119739050000906"><ele>143.0</ele><time>2026-03-29T07:41:53Z</time></trkpt><trkpt lat="44.07018481589914" lon="8.119723127654785"><ele>140.0</ele><time>2026-03-29T07:41:54Z</time></trkpt><trkpt lat="44.070114505271235" lon="8.119680283369748"><ele>137.0</ele><time>2026-03-29T07:41:55Z</time></trkpt><trkpt lat="44.07002619338298" lon="8.119649028661273"><ele>134.0</ele><time>2026-03-29T07:41:56Z</time></trkpt><trkpt lat="44.069955178207444" lon="8.119620419025718"><ele>133.16666666666666</ele><time>2026-03-29T07:41:57Z</time></trkpt><trkpt lat="44.06987756873404" lon="8.119586654002493"><ele>132.33333333333331</ele><time>2026-03-29T07:41:58Z</time></trkpt><trkpt lat="44.06981444451954" lon="8.119562684665901"><ele>131.5</ele><time>2026-03-29T07:41:59Z</time></trkpt><trkpt lat="44.06972024077703" lon="8.119548008088657"><ele>130.66666666666666</ele><time>2026-03-29T07:42:01Z</time></trkpt><trkpt lat="44.06963759175005" lon="8.119660014188955"><ele>129.83333333333334</ele><time>2026-03-29T07:42:03Z</time></trkpt><trkpt lat="44.06963799280715" lon="8.119767008507475"><ele>129.0</ele><time>2026-03-29T07:42:05Z</time></trkpt><trkpt lat="44.06957727668636" lon="8.119885647707784"><ele>129.0</ele><time>2026-03-29T07:42:07Z</time></trkpt><trkpt lat="44.06950008734824" lon="8.119825459505567"><ele>129.0</ele><time>2026-03-29T07:42:10Z</time></trkpt><trkpt lat="44.06953051737662" lon="8.119642365663386"><ele>129.0</ele><time>2026-03-29T07:42:12Z</time></trkpt><trkpt lat="44.06956692969285" lon="8.11955796517577"><ele>129.0</ele><time>2026-03-29T07:42:13Z</time></trkpt><trkpt lat="44.069599563962655" lon="8.119480284663924"><ele>129.0</ele><time>2026-03-29T07:42:14Z</time></trkpt><trkpt lat="44.06965033164739" lon="8.119413328593508"><ele>129.0</ele><time>2026-03-29T07:42:15Z</time></trkpt><trkpt lat="44.069707501633665" lon="8.119352094287267"><ele>129.0</ele><time>2026-03-29T07:42:16Z</time></trkpt><trkpt lat="44.069821369300314" lon="8.119300928557502"><ele>129.0</ele><time>2026-03-29T07:42:18Z</time></trkpt><trkpt lat="44.069910846145866" lon="8.119274844050514"><ele>129.0</ele><time>2026-03-29T07:42:20Z</time></trkpt><trkpt lat="44.07000059315516" lon="8.119258408538384"><ele>129.0</ele><time>2026-03-29T07:42:21Z</time></trkpt><trkpt lat="44.070107703077625" lon="8.119250114864668"><ele>129.0</ele><time>2026-03-29T07:42:22Z</time></trkpt><trkpt lat="44.070189800361746" lon="8.119227499370847"><ele>129.66666666666666</ele><time>2026-03-29T07:42:23Z</time></trkpt><trkpt lat="44.070255017973274" lon="8.119181574284664"><ele>130.33333333333334</ele><time>2026-03-29T07:42:24Z</time></trkpt><trkpt lat="44.07033610083546" lon="8.11908473660207"><ele>131.0</ele><time>2026-03-29T07:42:26Z</time></trkpt><trkpt lat="44.07031058507364" lon="8.11893990649102"><ele>131.66666666666669</ele><time>2026-03-29T07:42:28Z</time></trkpt><trkpt lat="44.07027713164811" lon="8.118857130077927"><ele>132.33333333333334</ele><time>2026-03-29T07:42:29Z</time></trkpt><trkpt lat="44.0702160349824" lon="8.118778496619065"><ele>133.0</ele><time>2026-03-29T07:42:30Z</time></trkpt><trkpt lat="44.07014209857263" lon="8.11872148240129"><ele>133.0</ele><time>2026-03-29T07:42:31Z</time></trkpt><trkpt lat="44.0700592082812" lon="8.118686556635998"><ele>133.0</ele><time>2026-03-29T07:42:32Z</time></trkpt><trkpt lat="44.06998849323164" lon="8.118640185783732"><ele>133.0</ele><time>2026-03-29T07:42:33Z</time></trkpt><trkpt lat="44.06994371494335" lon="8.118567369235073"><ele>133.0</ele><time>2026-03-29T07:42:34Z</time></trkpt><trkpt lat="44.069851151751436" lon="8.118401766891926"><ele>133.0</ele><time>2026-03-29T07:42:36Z</time></trkpt><trkpt lat="44.069786051157806" lon="8.118321448529725"><ele>130.20000000000002</ele><time>2026-03-29T07:42:37Z</time></trkpt><trkpt lat="44.0697295659848" lon="8.118243034225236"><ele>127.4</ele><time>2026-03-29T07:42:38Z</time></trkpt><trkpt lat="44.069623981812285" lon="8.118116076962082"><ele>124.60000000000001</ele><time>2026-03-29T07:42:40Z</time></trkpt><trkpt lat="44.069560158972386" lon="8.11806024225362"><ele>121.80000000000001</ele><time>2026-03-29T07:42:41Z</time></trkpt><trkpt lat="44.06949291427108" lon="8.118015879028011"><ele>119.0</ele><time>2026-03-29T07:42:42Z</time></trkpt><trkpt lat="44.06941529643267" lon="8.117966149540832"><ele>118.99999999999999</ele><time>2026-03-29T07:42:43Z</time></trkpt><trkpt lat="44.06936396897146" lon="8.117909467651655"><ele>119.0</ele><time>2026-03-29T07:42:44Z</time></trkpt><trkpt lat="44.06933195540902" lon="8.11776625920789"><ele>119.0</ele><time>2026-03-29T07:42:46Z</time></trkpt><trkpt lat="44.06934035736337" lon="8.117672467619352"><ele>119.0</ele><time>2026-03-29T07:42:47Z</time></trkpt><trkpt lat="44.069371720503504" lon="8.117565322128177"><ele>118.99999999999999</ele><time>2026-03-29T07:42:48Z</time></trkpt><trkpt lat="44.06940135284994" lon="8.117456618695497"><ele>119.0</ele><time>2026-03-29T07:42:49Z</time></trkpt><trkpt lat="44.06943808556562" lon="8.1173517071543"><ele>117.99999999999999</ele><time>2026-03-29T07:42:50Z</time></trkpt><trkpt lat="44.06947518855383" lon="8.117253094982692"><ele>117.0</ele><time>2026-03-29T07:42:51Z</time></trkpt><trkpt lat="44.06950866860504" lon="8.117157650931789"><ele>116.0</ele><time>2026-03-29T07:42:52Z</time></trkpt><trkpt lat="44.069533768088945" lon="8.117048212850541"><ele>115.0</ele><time>2026-03-29T07:42:53Z</time></trkpt><trkpt lat="44.0695526776859" lon="8.116935288097407"><ele>113.99999999999999</ele><time>2026-03-29T07:42:54Z</time></trkpt><trkpt lat="44.06957792315564" lon="8.116816583300455"><ele>113.0</ele><time>2026-03-29T07:42:55Z</time></trkpt><trkpt lat="44.069609674081654" lon="8.116712970811681"><ele>113.0</ele><time>2026-03-29T07:42:56Z</time></trkpt><trkpt lat="44.0696150168189" lon="8.11661513699867"><ele>113.00000000000001</ele><time>2026-03-29T07:42:57Z</time></trkpt><trkpt lat="44.069579392862224" lon="8.116450367996002"><ele>113.00000000000001</ele><time>2026-03-29T07:42:59Z</time></trkpt><trkpt lat="44.06953554699366" lon="8.116320973503363"><ele>113.0</ele><time>2026-03-29T07:43:01Z</time></trkpt><trkpt lat="44.06957055435543" lon="8.116139623609477"><ele>113.0</ele><time>2026-03-29T07:43:03Z</time></trkpt><trkpt lat="44.06959042364026" lon="8.116020313272623"><ele>111.80000000000001</ele><time>2026-03-29T07:43:04Z</time></trkpt><trkpt lat="44.06961197075102" lon="8.11588792566678"><ele>110.60000000000001</ele><time>2026-03-29T07:43:05Z</time></trkpt><trkpt lat="44.069638974773255" lon="8.115761943231474"><ele>109.39999999999999</ele><time>2026-03-29T07:43:06Z</time></trkpt><trkpt lat="44.06965925578759" lon="8.115636861521718"><ele>108.19999999999999</ele><time>2026-03-29T07:43:07Z</time></trkpt><trkpt lat="44.06967659471286" lon="8.115510312027338"><ele>107.0</ele><time>2026-03-29T07:43:08Z</time></trkpt><trkpt lat="44.069697612455464" lon="8.115384363339556"><ele>106.99999999999999</ele><time>2026-03-29T07:43:09Z</time></trkpt><trkpt lat="44.06972846309468" lon="8.115267330317716"><ele>107.0</ele><time>2026-03-29T07:43:10Z</time></trkpt><trkpt lat="44.06976530936238" lon="8.115155268042304"><ele>107.0</ele><time>2026-03-29T07:43:11Z</time></trkpt><trkpt lat="44.069800063932" lon="8.115061228521578"><ele>107.0</ele><time>2026-03-29T07:43:12Z</time></trkpt><trkpt lat="44.069824831806294" lon="8.114929774760075"><ele>106.99999999999999</ele><time>2026-03-29T07:43:14Z</time></trkpt><trkpt lat="44.069779387994245" lon="8.11483777504045"><ele>107.0</ele><time>2026-03-29T07:43:16Z</time></trkpt><trkpt lat="44.06971019399938" lon="8.114701070876835"><ele>107.0</ele><time>2026-03-29T07:43:18Z</time></trkpt><trkpt lat="44.069716089150766" lon="8.114593159143654"><ele>106.99999999999999</ele><time>2026-03-29T07:43:19Z</time></trkpt><trkpt lat="44.06975151019253" lon="8.114472903495287"><ele>106.99999999999999</ele><time>2026-03-29T07:43:20Z</time></trkpt><trkpt lat="44.06977905275098" lon="8.114353136353593"><ele>107.0</ele><time>2026-03-29T07:43:21Z</time></trkpt><trkpt lat="44.06979938241522" lon="8.114239171874814"><ele>107.0</ele><time>2026-03-29T07:43:22Z</time></trkpt><trkpt lat="44.06979231726125" lon="8.11408913621876"><ele>107.0</ele><time>2026-03-29T07:43:24Z</time></trkpt><trkpt lat="44.06969016170921" lon="8.114017225226034"><ele>106.99999999999999</ele><time>2026-03-29T07:43:26Z</time></trkpt><trkpt lat="44.069611521554734" lon="8.11401170324001"><ele>106.99999999999999</ele><time>2026-03-29T07:43:27Z</time></trkpt><trkpt lat="44.06954292538953" lon="8.11399127201245"><ele>107.0</ele><time>2026-03-29T07:43:28Z</time></trkpt><trkpt lat="44.06947757002905" lon="8.114025302331866"><ele>107.0</ele><time>2026-03-29T07:43:30Z</time></trkpt><trkpt lat="44.06940109047947" lon="8.114184609911424"><ele>106.99999999999999</ele><time>2026-03-29T07:43:32Z</time></trkpt><trkpt lat="44.069361748509586" lon="8.11428338874329"><ele>107.0</ele><time>2026-03-29T07:43:33Z</time></trkpt><trkpt lat="44.069307035909105" lon="8.114375722149866"><ele>107.0</ele><time>2026-03-29T07:43:34Z</time></trkpt><trkpt lat="44.06925964223358" lon="8.1144623220296"><ele>107.0</ele><time>2026-03-29T07:43:35Z</time></trkpt><trkpt lat="44.069217442930004" lon="8.114550703516263"><ele>106.99999999999999</ele><time>2026-03-29T07:43:36Z</time></trkpt><trkpt lat="44.06916550237467" lon="8.114635229209123"><ele>107.0</ele><time>2026-03-29T07:43:37Z</time></trkpt><trkpt lat="44.06911613947218" lon="8.114725380665394"><ele>106.99999999999999</ele><time>2026-03-29T07:43:38Z</time></trkpt><trkpt lat="44.06906917585052" lon="8.114822847376995"><ele>107.0</ele><time>2026-03-29T07:43:39Z</time></trkpt><trkpt lat="44.069022349108856" lon="8.114923221878815"><ele>107.0</ele><time>2026-03-29T07:43:40Z</time></trkpt><trkpt lat="44.06897355631363" lon="8.115028096198479"><ele>107.0</ele><time>2026-03-29T07:43:41Z</time></trkpt><trkpt lat="44.06890709295269" lon="8.115115122704195"><ele>106.99999999999999</ele><time>2026-03-29T07:43:42Z</time></trkpt><trkpt lat="44.06885311424444" lon="8.115193293996459"><ele>107.0</ele><time>2026-03-29T07:43:43Z</time></trkpt><trkpt lat="44.068797843866356" lon="8.115264824032925"><ele>106.99999999999999</ele><time>2026-03-29T07:43:44Z</time></trkpt><trkpt lat="44.06873461800682" lon="8.115328840499801"><ele>107.0</ele><time>2026-03-29T07:43:45Z</time></trkpt><trkpt lat="44.0686679268619" lon="8.115384218537487"><ele>107.0</ele><time>2026-03-29T07:43:46Z</time></trkpt><trkpt lat="44.068641400361784" lon="8.115464108141563"><ele>107.0</ele><time>2026-03-29T07:43:47Z</time></trkpt><trkpt lat="44.06863576264335" lon="8.115592886557524"><ele>106.99999999999999</ele><time>2026-03-29T07:43:49Z</time></trkpt><trkpt lat="44.06866090494243" lon="8.11569010351409"><ele>107.0</ele><time>2026-03-29T07:43:50Z</time></trkpt><trkpt lat="44.06869235001679" lon="8.115789703101873"><ele>106.49999999999999</ele><time>2026-03-29T07:43:51Z</time></trkpt><trkpt lat="44.068709386479206" lon="8.115893428943158"><ele>106.0</ele><time>2026-03-29T07:43:52Z</time></trkpt><trkpt lat="44.068698208188906" lon="8.116008456853194"><ele>105.5</ele><time>2026-03-29T07:43:53Z</time></trkpt><trkpt lat="44.0686678893771" lon="8.116126158171408"><ele>105.0</ele><time>2026-03-29T07:43:54Z</time></trkpt><trkpt lat="44.068630550341595" lon="8.11623583954748"><ele>104.49999999999999</ele><time>2026-03-29T07:43:55Z</time></trkpt><trkpt lat="44.068593245197555" lon="8.116337609089417"><ele>104.0</ele><time>2026-03-29T07:43:56Z</time></trkpt><trkpt lat="44.068556145619525" lon="8.1164403142274"><ele>104.0</ele><time>2026-03-29T07:43:57Z</time></trkpt><trkpt lat="44.068516268492054" lon="8.116521560065067"><ele>104.0</ele><time>2026-03-29T07:43:58Z</time></trkpt><trkpt lat="44.06840651308407" lon="8.116552651850858"><ele>104.0</ele><time>2026-03-29T07:44:00Z</time></trkpt><trkpt lat="44.06832580922309" lon="8.116528044011007"><ele>104.0</ele><time>2026-03-29T07:44:01Z</time></trkpt><trkpt lat="44.06822173891411" lon="8.116471322510096"><ele>104.0</ele><time>2026-03-29T07:44:02Z</time></trkpt><trkpt lat="44.068114299668274" lon="8.116393265620227"><ele>105.49999999999999</ele><time>2026-03-29T07:44:03Z</time></trkpt><trkpt lat="44.06802769576931" lon="8.116319191833822"><ele>107.0</ele><time>2026-03-29T07:44:04Z</time></trkpt><trkpt lat="44.06795249816335" lon="8.1163133571322"><ele>108.5</ele><time>2026-03-29T07:44:05Z</time></trkpt><trkpt lat="44.06787917403442" lon="8.116369228758352"><ele>110.0</ele><time>2026-03-29T07:44:06Z</time></trkpt><trkpt lat="44.0678283985811" lon="8.116436888907675"><ele>111.49999999999999</ele><time>2026-03-29T07:44:07Z</time></trkpt><trkpt lat="44.067775729542085" lon="8.11649498006793"><ele>113.0</ele><time>2026-03-29T07:44:08Z</time></trkpt><trkpt lat="44.06770693347422" lon="8.116569294342188"><ele>111.0</ele><time>2026-03-29T07:44:09Z</time></trkpt><trkpt lat="44.06764881633296" lon="8.116653543303936"><ele>109.00000000000001</ele><time>2026-03-29T07:44:10Z</time></trkpt><trkpt lat="44.067582887944546" lon="8.1167119086294"><ele>107.0</ele><time>2026-03-29T07:44:11Z</time></trkpt><trkpt lat="44.06752001463735" lon="8.116701271477304"><ele>105.0</ele><time>2026-03-29T07:44:12Z</time></trkpt><trkpt lat="44.06742448553433" lon="8.116638472364905"><ele>103.0</ele><time>2026-03-29T07:44:14Z</time></trkpt><trkpt lat="44.06736964665508" lon="8.116460484398772"><ele>112.0</ele><time>2026-03-29T07:44:16Z</time></trkpt><trkpt lat="44.067345302605354" lon="8.116340962843134"><ele>121.0</ele><time>2026-03-29T07:44:17Z</time></trkpt><trkpt lat="44.06729238939146" lon="8.116174593715236"><ele>130.0</ele><time>2026-03-29T07:44:18Z</time></trkpt><trkpt lat="44.06728332555751" lon="8.11604511668625"><ele>139.0</ele><time>2026-03-29T07:44:19Z</time></trkpt><trkpt lat="44.06729886265641" lon="8.115935397913168"><ele>148.0</ele><time>2026-03-29T07:44:20Z</time></trkpt><trkpt lat="44.06736173739655" lon="8.11582428291711"><ele>149.25</ele><time>2026-03-29T07:44:21Z</time></trkpt><trkpt lat="44.06740528426096" lon="8.115680978589063"><ele>150.5</ele><time>2026-03-29T07:44:22Z</time></trkpt><trkpt lat="44.067452466958954" lon="8.115478174464345"><ele>151.75</ele><time>2026-03-29T07:44:23Z</time></trkpt><trkpt lat="44.067494700104234" lon="8.115273832884977"><ele>153.0</ele><time>2026-03-29T07:44:24Z</time></trkpt><trkpt lat="44.067528300071956" lon="8.115075218297685"><ele>152.66666666666666</ele><time>2026-03-29T07:44:25Z</time></trkpt><trkpt lat="44.06759897500843" lon="8.114913190450643"><ele>152.33333333333331</ele><time>2026-03-29T07:44:26Z</time></trkpt><trkpt lat="44.067718506357146" lon="8.114737977959093"><ele>152.0</ele><time>2026-03-29T07:44:27Z</time></trkpt><trkpt lat="44.06783152135703" lon="8.1145584791408"><ele>152.0</ele><time>2026-03-29T07:44:28Z</time></trkpt><trkpt lat="44.06793258635622" lon="8.114358219838438"><ele>152.0</ele><time>2026-03-29T07:44:29Z</time></trkpt><trkpt lat="44.06803062562896" lon="8.114133453113936"><ele>152.0</ele><time>2026-03-29T07:44:30Z</time></trkpt><trkpt lat="44.06811343738608" lon="8.113898531492781"><ele>156.33333333333331</ele><time>2026-03-29T07:44:31Z</time></trkpt><trkpt lat="44.06820252342683" lon="8.113669858723993"><ele>160.66666666666666</ele><time>2026-03-29T07:44:32Z</time></trkpt><trkpt lat="44.0682898730156" lon="8.11344982691201"><ele>165.0</ele><time>2026-03-29T07:44:33Z</time></trkpt><trkpt lat="44.06836419308804" lon="8.11327521051981"><ele>162.0</ele><time>2026-03-29T07:44:34Z</time></trkpt><trkpt lat="44.06842700738947" lon="8.113114351855012"><ele>159.0</ele><time>2026-03-29T07:44:35Z</time></trkpt><trkpt lat="44.06852414581402" lon="8.11296375328741"><ele>156.0</ele><time>2026-03-29T07:44:36Z</time></trkpt><trkpt lat="44.068636880098246" lon="8.112834207358315"><ele>153.0</ele><time>2026-03-29T07:44:37Z</time></trkpt><trkpt lat="44.068748532612645" lon="8.112700044824672"><ele>153.0</ele><time>2026-03-29T07:44:38Z</time></trkpt><trkpt lat="44.06880749502175" lon="8.112553047040201"><ele>153.0</ele><time>2026-03-29T07:44:39Z</time></trkpt><trkpt lat="44.06886278589505" lon="8.112380148527203"><ele>153.0</ele><time>2026-03-29T07:44:40Z</time></trkpt><trkpt lat="44.068929326109355" lon="8.1122082207309"><ele>153.0</ele><time>2026-03-29T07:44:41Z</time></trkpt><trkpt lat="44.068976752123845" lon="8.11205859524382"><ele>153.4</ele><time>2026-03-29T07:44:42Z</time></trkpt><trkpt lat="44.068993403970076" lon="8.111947493936638"><ele>153.8</ele><time>2026-03-29T07:44:43Z</time></trkpt><trkpt lat="44.06905190341144" lon="8.11188403618049"><ele>154.2</ele><time>2026-03-29T07:44:44Z</time></trkpt><trkpt lat="44.069165273053706" lon="8.111787413134115"><ele>154.6</ele><time>2026-03-29T07:44:45Z</time></trkpt><trkpt lat="44.06924842181135" lon="8.111628090183961"><ele>155.0</ele><time>2026-03-29T07:44:46Z</time></trkpt><trkpt lat="44.06932806518232" lon="8.111467111708674"><ele>155.0</ele><time>2026-03-29T07:44:47Z</time></trkpt><trkpt lat="44.06937589482936" lon="8.111293360478646"><ele>155.0</ele><time>2026-03-29T07:44:48Z</time></trkpt><trkpt lat="44.0694319179001" lon="8.1111511696851"><ele>155.0</ele><time>2026-03-29T07:44:49Z</time></trkpt><trkpt lat="44.06951387030822" lon="8.11103129481975"><ele>155.0</ele><time>2026-03-29T07:44:50Z</time></trkpt><trkpt lat="44.06961915840072" lon="8.110894691876412"><ele>158.0</ele><time>2026-03-29T07:44:51Z</time></trkpt><trkpt lat="44.06964938294139" lon="8.110701190489348"><ele>161.0</ele><time>2026-03-29T07:44:52Z</time></trkpt><trkpt lat="44.069624818065854" lon="8.110519274604298"><ele>164.0</ele><time>2026-03-29T07:44:53Z</time></trkpt><trkpt lat="44.06958890633973" lon="8.110372714852735"><ele>167.0</ele><time>2026-03-29T07:44:54Z</time></trkpt><trkpt lat="44.069597303170994" lon="8.110230258441998"><ele>167.0</ele><time>2026-03-29T07:44:55Z</time></trkpt><trkpt lat="44.069621986078886" lon="8.110099996875498"><ele>167.0</ele><time>2026-03-29T07:44:56Z</time></trkpt><trkpt lat="44.06960194878587" lon="8.109992278776563"><ele>167.0</ele><time>2026-03-29T07:44:57Z</time></trkpt><trkpt lat="44.069551222212375" lon="8.109878247926504"><ele>167.0</ele><time>2026-03-29T07:44:58Z</time></trkpt><trkpt lat="44.0695135446042" lon="8.109735384828767"><ele>167.0</ele><time>2026-03-29T07:44:59Z</time></trkpt><trkpt lat="44.0695242731711" lon="8.109625007391958"><ele>167.0</ele><time>2026-03-29T07:45:01Z</time></trkpt><trkpt lat="44.06958924273394" lon="8.109597243314493"><ele>167.0</ele><time>2026-03-29T07:45:02Z</time></trkpt><trkpt lat="44.06969573059162" lon="8.109603516768491"><ele>167.0</ele><time>2026-03-29T07:45:03Z</time></trkpt><trkpt lat="44.06980297845996" lon="8.10965857216724"><ele>167.0</ele><time>2026-03-29T07:45:04Z</time></trkpt><trkpt lat="44.069912928292204" lon="8.109694826390776"><ele>167.0</ele><time>2026-03-29T07:45:05Z</time></trkpt><trkpt lat="44.07001235812105" lon="8.109658335294862"><ele>167.0</ele><time>2026-03-29T07:45:06Z</time></trkpt><trkpt lat="44.07013165002497" lon="8.109590670110133"><ele>167.0</ele><time>2026-03-29T07:45:07Z</time></trkpt><trkpt lat="44.07026203852681" lon="8.109531126926326"><ele>167.0</ele><time>2026-03-29T07:45:08Z</time></trkpt><trkpt lat="44.07039284023423" lon="8.109534852874434"><ele>167.0</ele><time>2026-03-29T07:45:09Z</time></trkpt><trkpt lat="44.07049223223254" lon="8.10953116576584"><ele>167.0</ele><time>2026-03-29T07:45:10Z</time></trkpt><trkpt lat="44.07057382208516" lon="8.109490540833573"><ele>167.0</ele><time>2026-03-29T07:45:11Z</time></trkpt><trkpt lat="44.07062567016335" lon="8.109394814527969"><ele>167.0</ele><time>2026-03-29T07:45:12Z</time></trkpt><trkpt lat="44.07067399457146" lon="8.10925602942196"><ele>167.0</ele><time>2026-03-29T07:45:13Z</time></trkpt><trkpt lat="44.07064822847773" lon="8.10911469811354"><ele>167.0</ele><time>2026-03-29T07:45:14Z</time></trkpt><trkpt lat="44.070609515684126" lon="8.108981165405078"><ele>165.6</ele><time>2026-03-29T07:45:15Z</time></trkpt><trkpt lat="44.07057901136375" lon="8.108838869824206"><ele>164.2</ele><time>2026-03-29T07:45:16Z</time></trkpt><trkpt lat="44.07061443193361" lon="8.108738181133566"><ele>162.8</ele><time>2026-03-29T07:45:17Z</time></trkpt><trkpt lat="44.070693103237375" lon="8.108655917377174"><ele>161.4</ele><time>2026-03-29T07:45:18Z</time></trkpt><trkpt lat="44.070777707426124" lon="8.108553097236422"><ele>160.0</ele><time>2026-03-29T07:45:19Z</time></trkpt><trkpt lat="44.070786622111804" lon="8.10845690199922"><ele>160.0</ele><time>2026-03-29T07:45:20Z</time></trkpt><trkpt lat="44.0707925194239" lon="8.108329223274174"><ele>160.0</ele><time>2026-03-29T07:45:21Z</time></trkpt><trkpt lat="44.070755454441176" lon="8.108209645912916"><ele>160.0</ele><time>2026-03-29T07:45:22Z</time></trkpt><trkpt lat="44.070691558901565" lon="8.108102883458272"><ele>160.0</ele><time>2026-03-29T07:45:23Z</time></trkpt><trkpt lat="44.070623325765915" lon="8.107994736994947"><ele>160.0</ele><time>2026-03-29T07:45:24Z</time></trkpt><trkpt lat="44.07052418023547" lon="8.107886267558927"><ele>165.25</ele><time>2026-03-29T07:45:25Z</time></trkpt><trkpt lat="44.07044122709245" lon="8.10777340055225"><ele>170.5</ele><time>2026-03-29T07:45:26Z</time></trkpt><trkpt lat="44.07038805150334" lon="8.107650386187133"><ele>175.75</ele><time>2026-03-29T07:45:27Z</time></trkpt><trkpt lat="44.070302110689006" lon="8.107502558036696"><ele>181.0</ele><time>2026-03-29T07:45:28Z</time></trkpt><trkpt lat="44.07021989925481" lon="8.107390850768127"><ele>181.0</ele><time>2026-03-29T07:45:29Z</time></trkpt><trkpt lat="44.070140271165606" lon="8.10725943915309"><ele>181.0</ele><time>2026-03-29T07:45:30Z</time></trkpt><trkpt lat="44.070088250925245" lon="8.107141442342881"><ele>181.0</ele><time>2026-03-29T07:45:31Z</time></trkpt><trkpt lat="44.07004918272495" lon="8.107015762137465"><ele>181.0</ele><time>2026-03-29T07:45:32Z</time></trkpt><trkpt lat="44.07002927644624" lon="8.106866483485666"><ele>181.0</ele><time>2026-03-29T07:45:33Z</time></trkpt><trkpt lat="44.07001276496539" lon="8.106719858862506"><ele>181.0</ele><time>2026-03-29T07:45:34Z</time></trkpt><trkpt lat="44.069984067059266" lon="8.10658599492441"><ele>181.0</ele><time>2026-03-29T07:45:35Z</time></trkpt><trkpt lat="44.07006176718496" lon="8.10639060525264"><ele>181.0</ele><time>2026-03-29T07:45:37Z</time></trkpt><trkpt lat="44.0701294689528" lon="8.106257749123193"><ele>181.0</ele><time>2026-03-29T07:45:38Z</time></trkpt><trkpt lat="44.0701829866737" lon="8.106184321057125"><ele>183.33333333333334</ele><time>2026-03-29T07:45:39Z</time></trkpt><trkpt lat="44.07025359243361" lon="8.106152872560015"><ele>185.66666666666669</ele><time>2026-03-29T07:45:40Z</time></trkpt><trkpt lat="44.07031896193265" lon="8.10617013109965"><ele>188.0</ele><time>2026-03-29T07:45:41Z</time></trkpt><trkpt lat="44.07039234720094" lon="8.106210845046805"><ele>190.33333333333334</ele><time>2026-03-29T07:45:42Z</time></trkpt><trkpt lat="44.070479578606225" lon="8.106252450384577"><ele>192.66666666666666</ele><time>2026-03-29T07:45:43Z</time></trkpt><trkpt lat="44.07060416643444" lon="8.106270059827807"><ele>195.0</ele><time>2026-03-29T07:45:44Z</time></trkpt><trkpt lat="44.07072928819274" lon="8.10629823306755"><ele>194.5</ele><time>2026-03-29T07:45:45Z</time></trkpt><trkpt lat="44.07081608276022" lon="8.106225180740639"><ele>194.0</ele><time>2026-03-29T07:45:47Z</time></trkpt><trkpt lat="44.07086123601248" lon="8.106134133860788"><ele>193.5</ele><time>2026-03-29T07:45:48Z</time></trkpt><trkpt lat="44.070874759084695" lon="8.106020217621438"><ele>193.0</ele><time>2026-03-29T07:45:49Z</time></trkpt><trkpt lat="44.07089065341189" lon="8.105912207491984"><ele>192.5</ele><time>2026-03-29T07:45:50Z</time></trkpt><trkpt lat="44.07089697571834" lon="8.105801581683666"><ele>192.0</ele><time>2026-03-29T07:45:51Z</time></trkpt><trkpt lat="44.07089276952188" lon="8.10568377175981"><ele>192.0</ele><time>2026-03-29T07:45:52Z</time></trkpt><trkpt lat="44.07086507426328" lon="8.105598367040198"><ele>192.0</ele><time>2026-03-29T07:45:53Z</time></trkpt><trkpt lat="44.070872472789134" lon="8.10544594086108"><ele>192.0</ele><time>2026-03-29T07:45:55Z</time></trkpt><trkpt lat="44.07088109363639" lon="8.105330912548357"><ele>192.0</ele><time>2026-03-29T07:45:56Z</time></trkpt><trkpt lat="44.07091323431409" lon="8.105230185529718"><ele>192.0</ele><time>2026-03-29T07:45:57Z</time></trkpt><trkpt lat="44.07095849266691" lon="8.105131374530012"><ele>192.0</ele><time>2026-03-29T07:45:58Z</time></trkpt><trkpt lat="44.07089507204297" lon="8.104922789284027"><ele>193.39999999999998</ele><time>2026-03-29T07:46:00Z</time></trkpt><trkpt lat="44.070851592672696" lon="8.10478667694447"><ele>194.79999999999998</ele><time>2026-03-29T07:46:01Z</time></trkpt><trkpt lat="44.0708364391763" lon="8.1046467594738"><ele>196.2</ele><time>2026-03-29T07:46:02Z</time></trkpt><trkpt lat="44.0708582142181" lon="8.10451604081261"><ele>197.6</ele><time>2026-03-29T07:46:03Z</time></trkpt><trkpt lat="44.070913303109535" lon="8.104393715782757"><ele>199.0</ele><time>2026-03-29T07:46:04Z</time></trkpt><trkpt lat="44.07097307996488" lon="8.104278285902144"><ele>199.0</ele><time>2026-03-29T07:46:05Z</time></trkpt><trkpt lat="44.07101954253876" lon="8.104140223181881"><ele>199.0</ele><time>2026-03-29T07:46:06Z</time></trkpt><trkpt lat="44.07103651913247" lon="8.103988231341395"><ele>199.0</ele><time>2026-03-29T07:46:07Z</time></trkpt><trkpt lat="44.071019629143926" lon="8.103833057678935"><ele>199.0</ele><time>2026-03-29T07:46:08Z</time></trkpt><trkpt lat="44.071013747353476" lon="8.103710781075803"><ele>199.0</ele><time>2026-03-29T07:46:09Z</time></trkpt><trkpt lat="44.07104937719074" lon="8.103585562808881"><ele>200.79999999999998</ele><time>2026-03-29T07:46:10Z</time></trkpt><trkpt lat="44.07110368120526" lon="8.103484076817779"><ele>202.6</ele><time>2026-03-29T07:46:11Z</time></trkpt><trkpt lat="44.07114937798226" lon="8.103393406574103"><ele>204.4</ele><time>2026-03-29T07:46:12Z</time></trkpt><trkpt lat="44.07119596031802" lon="8.103288253403354"><ele>206.2</ele><time>2026-03-29T07:46:13Z</time></trkpt><trkpt lat="44.07121809899246" lon="8.10316504535028"><ele>208.0</ele><time>2026-03-29T07:46:14Z</time></trkpt><trkpt lat="44.07121631909144" lon="8.103021963573187"><ele>210.2</ele><time>2026-03-29T07:46:15Z</time></trkpt><trkpt lat="44.071246710833165" lon="8.10288224490988"><ele>212.4</ele><time>2026-03-29T07:46:16Z</time></trkpt><trkpt lat="44.071293207739885" lon="8.102747765090625"><ele>214.59999999999997</ele><time>2026-03-29T07:46:17Z</time></trkpt><trkpt lat="44.07134648688205" lon="8.102633532063244"><ele>216.79999999999998</ele><time>2026-03-29T07:46:18Z</time></trkpt><trkpt lat="44.07141853212068" lon="8.10253031408309"><ele>219.0</ele><time>2026-03-29T07:46:19Z</time></trkpt><trkpt lat="44.071471343881655" lon="8.10241272776676"><ele>221.33333333333334</ele><time>2026-03-29T07:46:20Z</time></trkpt><trkpt lat="44.071490782309446" lon="8.102285034839367"><ele>223.66666666666669</ele><time>2026-03-29T07:46:21Z</time></trkpt><trkpt lat="44.0715095577575" lon="8.10216020414233"><ele>226.0</ele><time>2026-03-29T07:46:22Z</time></trkpt><trkpt lat="44.07150957012747" lon="8.102063992163755"><ele>228.33333333333334</ele><time>2026-03-29T07:46:23Z</time></trkpt><trkpt lat="44.07151767018619" lon="8.101954055498776"><ele>230.66666666666669</ele><time>2026-03-29T07:46:24Z</time></trkpt><trkpt lat="44.07152261277663" lon="8.101825589206246"><ele>233.0</ele><time>2026-03-29T07:46:25Z</time></trkpt><trkpt lat="44.071515794624446" lon="8.101709631724525"><ele>233.0</ele><time>2026-03-29T07:46:26Z</time></trkpt><trkpt lat="44.0714989232958" lon="8.101591471966143"><ele>233.0</ele><time>2026-03-29T07:46:27Z</time></trkpt><trkpt lat="44.071454422241615" lon="8.10148436628212"><ele>233.0</ele><time>2026-03-29T07:46:28Z</time></trkpt><trkpt lat="44.071376825953585" lon="8.101374403910956"><ele>233.0</ele><time>2026-03-29T07:46:29Z</time></trkpt><trkpt lat="44.071286463739185" lon="8.10127040546693"><ele>233.0</ele><time>2026-03-29T07:46:30Z</time></trkpt><trkpt lat="44.071213984893866" lon="8.101139994862368"><ele>233.8</ele><time>2026-03-29T07:46:31Z</time></trkpt><trkpt lat="44.07118003056939" lon="8.101002718199359"><ele>234.60000000000002</ele><time>2026-03-29T07:46:32Z</time></trkpt><trkpt lat="44.071167567784705" lon="8.100856943807797"><ele>235.39999999999998</ele><time>2026-03-29T07:46:33Z</time></trkpt><trkpt lat="44.07116788744161" lon="8.100716300856213"><ele>236.2</ele><time>2026-03-29T07:46:34Z</time></trkpt><trkpt lat="44.0711617184966" lon="8.10058790410329"><ele>237.0</ele><time>2026-03-29T07:46:35Z</time></trkpt><trkpt lat="44.07111278609021" lon="8.100461652253914"><ele>235.16666666666666</ele><time>2026-03-29T07:46:36Z</time></trkpt><trkpt lat="44.071048284667626" lon="8.100336630633226"><ele>233.33333333333331</ele><time>2026-03-29T07:46:37Z</time></trkpt><trkpt lat="44.071000404434734" lon="8.100250817082731"><ele>231.5</ele><time>2026-03-29T07:46:38Z</time></trkpt><trkpt lat="44.07096890105598" lon="8.100170017417925"><ele>229.66666666666666</ele><time>2026-03-29T07:46:39Z</time></trkpt><trkpt lat="44.070939137926196" lon="8.100088450590613"><ele>227.83333333333331</ele><time>2026-03-29T07:46:40Z</time></trkpt><trkpt lat="44.07093466610842" lon="8.09997174182196"><ele>226.0</ele><time>2026-03-29T07:46:42Z</time></trkpt><trkpt lat="44.07101300589672" lon="8.099969979441124"><ele>226.0</ele><time>2026-03-29T07:46:44Z</time></trkpt><trkpt lat="44.0711131972103" lon="8.100085112530625"><ele>226.00000000000003</ele><time>2026-03-29T07:46:46Z</time></trkpt><trkpt lat="44.071201450129905" lon="8.100132665175598"><ele>226.00000000000003</ele><time>2026-03-29T07:46:47Z</time></trkpt><trkpt lat="44.07129409597088" lon="8.100155563329581"><ele>226.0</ele><time>2026-03-29T07:46:48Z</time></trkpt><trkpt lat="44.071389842499094" lon="8.10015579956701"><ele>226.0</ele><time>2026-03-29T07:46:49Z</time></trkpt><trkpt lat="44.07149427424984" lon="8.100123852962426"><ele>226.0</ele><time>2026-03-29T07:46:50Z</time></trkpt><trkpt lat="44.071588117006144" lon="8.100127072301778"><ele>226.0</ele><time>2026-03-29T07:46:51Z</time></trkpt><trkpt lat="44.071719923093035" lon="8.10012473461881"><ele>226.0</ele><time>2026-03-29T07:46:52Z</time></trkpt><trkpt lat="44.07184068297898" lon="8.100121434916527"><ele>226.0</ele><time>2026-03-29T07:46:53Z</time></trkpt><trkpt lat="44.071950667110826" lon="8.100111070961656"><ele>225.0</ele><time>2026-03-29T07:46:54Z</time></trkpt><trkpt lat="44.07204848992883" lon="8.10010926841948"><ele>224.00000000000003</ele><time>2026-03-29T07:46:55Z</time></trkpt><trkpt lat="44.072123073923144" lon="8.100094567644222"><ele>223.00000000000003</ele><time>2026-03-29T07:46:56Z</time></trkpt><trkpt lat="44.072191985061444" lon="8.100037264806867"><ele>222.0</ele><time>2026-03-29T07:46:57Z</time></trkpt><trkpt lat="44.07225663326337" lon="8.099913802679058"><ele>221.0</ele><time>2026-03-29T07:46:58Z</time></trkpt><trkpt lat="44.072312033052235" lon="8.099758659738555"><ele>224.0</ele><time>2026-03-29T07:46:59Z</time></trkpt><trkpt lat="44.0723179385467" lon="8.099564014111758"><ele>227.0</ele><time>2026-03-29T07:47:01Z</time></trkpt><trkpt lat="44.07229284459383" lon="8.099413172937611"><ele>230.0</ele><time>2026-03-29T07:47:02Z</time></trkpt><trkpt lat="44.07228795523254" lon="8.09925769832123"><ele>233.0</ele><time>2026-03-29T07:47:03Z</time></trkpt><trkpt lat="44.07236493509815" lon="8.099179512314587"><ele>231.4</ele><time>2026-03-29T07:47:04Z</time></trkpt><trkpt lat="44.07246196119765" lon="8.099166813510582"><ele>229.8</ele><time>2026-03-29T07:47:05Z</time></trkpt><trkpt lat="44.07255396162409" lon="8.099195881454625"><ele>228.2</ele><time>2026-03-29T07:47:06Z</time></trkpt><trkpt lat="44.07265050301403" lon="8.099196570058961"><ele>226.6</ele><time>2026-03-29T07:47:07Z</time></trkpt><trkpt lat="44.07271233209573" lon="8.099110359727547"><ele>225.0</ele><time>2026-03-29T07:47:08Z</time></trkpt><trkpt lat="44.072728040694194" lon="8.098993847321044"><ele>225.0</ele><time>2026-03-29T07:47:09Z</time></trkpt><trkpt lat="44.07276963334721" lon="8.09887019301359"><ele>225.0</ele><time>2026-03-29T07:47:10Z</time></trkpt><trkpt lat="44.07278031662488" lon="8.098760587157209"><ele>225.0</ele><time>2026-03-29T07:47:11Z</time></trkpt><trkpt lat="44.072839751719066" lon="8.098693533910781"><ele>225.0</ele><time>2026-03-29T07:47:12Z</time></trkpt><trkpt lat="44.07293630037082" lon="8.09866566530154"><ele>225.0</ele><time>2026-03-29T07:47:13Z</time></trkpt><trkpt lat="44.073058033433455" lon="8.098702438438147"><ele>225.0</ele><time>2026-03-29T07:47:14Z</time></trkpt><trkpt lat="44.073141878514505" lon="8.098679008800527"><ele>225.0</ele><time>2026-03-29T07:47:15Z</time></trkpt><trkpt lat="44.07317710627439" lon="8.098573760446065"><ele>225.0</ele><time>2026-03-29T07:47:16Z</time></trkpt><trkpt lat="44.07317963054635" lon="8.098421744153805"><ele>225.0</ele><time>2026-03-29T07:47:17Z</time></trkpt><trkpt lat="44.07318548788732" lon="8.098269440412919"><ele>225.0</ele><time>2026-03-29T07:47:18Z</time></trkpt><trkpt lat="44.07325060677016" lon="8.098206984563273"><ele>224.75</ele><time>2026-03-29T07:47:19Z</time></trkpt><trkpt lat="44.07335925965836" lon="8.098143375033727"><ele>224.5</ele><time>2026-03-29T07:47:20Z</time></trkpt><trkpt lat="44.07339791549824" lon="8.098044163952512"><ele>224.25</ele><time>2026-03-29T07:47:21Z</time></trkpt><trkpt lat="44.07347486566718" lon="8.097891156960975"><ele>224.0</ele><time>2026-03-29T07:47:22Z</time></trkpt><trkpt lat="44.07355963572159" lon="8.097765167701121"><ele>224.0</ele><time>2026-03-29T07:47:23Z</time></trkpt><trkpt lat="44.073642953258755" lon="8.09768362054529"><ele>223.99999999999997</ele><time>2026-03-29T07:47:24Z</time></trkpt><trkpt lat="44.073693936591155" lon="8.097595400769771"><ele>223.99999999999997</ele><time>2026-03-29T07:47:25Z</time></trkpt><trkpt lat="44.07383966374903" lon="8.09750927934451"><ele>224.0</ele><time>2026-03-29T07:47:27Z</time></trkpt><trkpt lat="44.07391687825962" lon="8.09742676487778"><ele>224.0</ele><time>2026-03-29T07:47:28Z</time></trkpt><trkpt lat="44.073988253835566" lon="8.097393104836453"><ele>225.39999999999998</ele><time>2026-03-29T07:47:29Z</time></trkpt><trkpt lat="44.07408439886167" lon="8.09741498506256"><ele>226.79999999999998</ele><time>2026-03-29T07:47:30Z</time></trkpt><trkpt lat="44.07416174888919" lon="8.097476770767654"><ele>228.20000000000002</ele><time>2026-03-29T07:47:31Z</time></trkpt><trkpt lat="44.07424091876476" lon="8.09746059980853"><ele>229.60000000000002</ele><time>2026-03-29T07:47:32Z</time></trkpt><trkpt lat="44.074367894439554" lon="8.097355068812735"><ele>231.0</ele><time>2026-03-29T07:47:34Z</time></trkpt><trkpt lat="44.07442640252853" lon="8.097268388841318"><ele>231.0</ele><time>2026-03-29T07:47:35Z</time></trkpt><trkpt lat="44.074479475789566" lon="8.097148434825328"><ele>231.00000000000003</ele><time>2026-03-29T07:47:36Z</time></trkpt><trkpt lat="44.07449548196676" lon="8.097012476197824"><ele>231.00000000000003</ele><time>2026-03-29T07:47:37Z</time></trkpt><trkpt lat="44.07451609156221" lon="8.096854872923755"><ele>231.0</ele><time>2026-03-29T07:47:38Z</time></trkpt><trkpt lat="44.07452614698411" lon="8.096703921747116"><ele>231.0</ele><time>2026-03-29T07:47:39Z</time></trkpt><trkpt lat="44.07451341200994" lon="8.096578601618459"><ele>231.0</ele><time>2026-03-29T07:47:40Z</time></trkpt><trkpt lat="44.074499417759384" lon="8.096472490997945"><ele>231.0</ele><time>2026-03-29T07:47:41Z</time></trkpt><trkpt lat="44.07456881680961" lon="8.096434550957992"><ele>231.0</ele><time>2026-03-29T07:47:43Z</time></trkpt><trkpt lat="44.074644284484016" lon="8.096450800087048"><ele>231.0</ele><time>2026-03-29T07:47:45Z</time></trkpt><trkpt lat="44.0747039421538" lon="8.096495917494854"><ele>231.0</ele><time>2026-03-29T07:47:47Z</time></trkpt><trkpt lat="44.07476808493635" lon="8.096542581046668"><ele>231.0</ele><time>2026-03-29T07:47:48Z</time></trkpt><trkpt lat="44.07482183381583" lon="8.096633865131787"><ele>231.0</ele><time>2026-03-29T07:47:49Z</time></trkpt><trkpt lat="44.07485908215872" lon="8.09674560293168"><ele>231.0</ele><time>2026-03-29T07:47:50Z</time></trkpt><trkpt lat="44.07488445097082" lon="8.096842531186274"><ele>231.0</ele><time>2026-03-29T07:47:51Z</time></trkpt><trkpt lat="44.074931655093486" lon="8.096939372459085"><ele>231.0</ele><time>2026-03-29T07:47:52Z</time></trkpt><trkpt lat="44.07499959160919" lon="8.097002052001262"><ele>231.0</ele><time>2026-03-29T07:47:53Z</time></trkpt><trkpt lat="44.07507873639344" lon="8.097078507562228"><ele>231.0</ele><time>2026-03-29T07:47:55Z</time></trkpt><trkpt lat="44.075176799918886" lon="8.097061495504882"><ele>229.5</ele><time>2026-03-29T07:47:57Z</time></trkpt><trkpt lat="44.07529442833984" lon="8.097005898207366"><ele>228.0</ele><time>2026-03-29T07:47:59Z</time></trkpt><trkpt lat="44.07544558665467" lon="8.096969489975164"><ele>226.5</ele><time>2026-03-29T07:48:01Z</time></trkpt><trkpt lat="44.07553861101262" lon="8.096997739418017"><ele>225.0</ele><time>2026-03-29T07:48:02Z</time></trkpt><trkpt lat="44.07564154681771" lon="8.097004659033121"><ele>225.0</ele><time>2026-03-29T07:48:03Z</time></trkpt><trkpt lat="44.07572890124342" lon="8.097045123651958"><ele>225.0</ele><time>2026-03-29T07:48:04Z</time></trkpt><trkpt lat="44.07579199223257" lon="8.097069734113761"><ele>225.0</ele><time>2026-03-29T07:48:05Z</time></trkpt><trkpt lat="44.07581159028629" lon="8.096978641452756"><ele>225.0</ele><time>2026-03-29T07:48:08Z</time></trkpt><trkpt lat="44.07570521354566" lon="8.096888439773032"><ele>225.0</ele><time>2026-03-29T07:48:10Z</time></trkpt><trkpt lat="44.07558056913461" lon="8.096814371507442"><ele>225.0</ele><time>2026-03-29T07:48:12Z</time></trkpt><trkpt lat="44.075511424258046" lon="8.096765372882649"><ele>225.0</ele><time>2026-03-29T07:48:13Z</time></trkpt><trkpt lat="44.07543435874258" lon="8.096710120427229"><ele>225.0</ele><time>2026-03-29T07:48:14Z</time></trkpt><trkpt lat="44.07534545448626" lon="8.096665056993176"><ele>225.0</ele><time>2026-03-29T07:48:15Z</time></trkpt><trkpt lat="44.075270988276245" lon="8.096636721316745"><ele>225.0</ele><time>2026-03-29T07:48:16Z</time></trkpt><trkpt lat="44.07524036182109" lon="8.096470317896284"><ele>227.16666666666666</ele><time>2026-03-29T07:48:18Z</time></trkpt><trkpt lat="44.075251170297896" lon="8.096369916570556"><ele>229.33333333333331</ele><time>2026-03-29T07:48:19Z</time></trkpt><trkpt lat="44.07534909572968" lon="8.096348106163846"><ele>231.5</ele><time>2026-03-29T07:48:21Z</time></trkpt><trkpt lat="44.07541782867284" lon="8.09643724472663"><ele>233.66666666666666</ele><time>2026-03-29T07:48:22Z</time></trkpt><trkpt lat="44.07546067745968" lon="8.096507163135295"><ele>235.83333333333331</ele><time>2026-03-29T07:48:23Z</time></trkpt><trkpt lat="44.0755220592373" lon="8.096529030586652"><ele>238.0</ele><time>2026-03-29T07:48:24Z</time></trkpt><trkpt lat="44.07560858811063" lon="8.096538694655484"><ele>238.0</ele><time>2026-03-29T07:48:25Z</time></trkpt><trkpt lat="44.07570367671487" lon="8.096545947070167"><ele>238.0</ele><time>2026-03-29T07:48:26Z</time></trkpt><trkpt lat="44.07578369718362" lon="8.096527867461436"><ele>238.0</ele><time>2026-03-29T07:48:27Z</time></trkpt><trkpt lat="44.07586292599819" lon="8.096521466355181"><ele>238.0</ele><time>2026-03-29T07:48:28Z</time></trkpt><trkpt lat="44.075967826241886" lon="8.096570476768663"><ele>238.0</ele><time>2026-03-29T07:48:29Z</time></trkpt><trkpt lat="44.07605023489753" lon="8.096630525545848"><ele>238.49999999999997</ele><time>2026-03-29T07:48:30Z</time></trkpt><trkpt lat="44.07611941263596" lon="8.096657275392099"><ele>239.0</ele><time>2026-03-29T07:48:31Z</time></trkpt><trkpt lat="44.07620899378454" lon="8.09664311881427"><ele>239.5</ele><time>2026-03-29T07:48:32Z</time></trkpt><trkpt lat="44.07627120786144" lon="8.096662394514723"><ele>240.0</ele><time>2026-03-29T07:48:33Z</time></trkpt><trkpt lat="44.07631398243508" lon="8.096751206748216"><ele>240.49999999999997</ele><time>2026-03-29T07:48:34Z</time></trkpt><trkpt lat="44.07637160488789" lon="8.096823055170518"><ele>241.0</ele><time>2026-03-29T07:48:35Z</time></trkpt><trkpt lat="44.076413654154486" lon="8.096942191391193"><ele>241.0</ele><time>2026-03-29T07:48:36Z</time></trkpt><trkpt lat="44.076424449055494" lon="8.097073202179844"><ele>241.00000000000003</ele><time>2026-03-29T07:48:37Z</time></trkpt><trkpt lat="44.07641297153799" lon="8.097217262261891"><ele>241.00000000000003</ele><time>2026-03-29T07:48:38Z</time></trkpt><trkpt lat="44.07647214407883" lon="8.097379123722591"><ele>241.0</ele><time>2026-03-29T07:48:40Z</time></trkpt><trkpt lat="44.07655320141839" lon="8.097396872236539"><ele>241.0</ele><time>2026-03-29T07:48:41Z</time></trkpt><trkpt lat="44.076651810992146" lon="8.097376417456134"><ele>244.20000000000002</ele><time>2026-03-29T07:48:42Z</time></trkpt><trkpt lat="44.07672674479685" lon="8.097338221216669"><ele>247.40000000000003</ele><time>2026-03-29T07:48:43Z</time></trkpt><trkpt lat="44.076855549255086" lon="8.09723700083027"><ele>250.6</ele><time>2026-03-29T07:48:45Z</time></trkpt><trkpt lat="44.0768680674782" lon="8.097149370768458"><ele>253.8</ele><time>2026-03-29T07:48:47Z</time></trkpt><trkpt lat="44.07675449635476" lon="8.09703282137639"><ele>257.0</ele><time>2026-03-29T07:48:49Z</time></trkpt><trkpt lat="44.076693186345835" lon="8.09696625550851"><ele>257.0</ele><time>2026-03-29T07:48:50Z</time></trkpt><trkpt lat="44.076644207228874" lon="8.09684183793424"><ele>257.0</ele><time>2026-03-29T07:48:51Z</time></trkpt><trkpt lat="44.07662821692671" lon="8.09670049930981"><ele>257.0</ele><time>2026-03-29T07:48:52Z</time></trkpt><trkpt lat="44.07659270086246" lon="8.096559025677902"><ele>257.0</ele><time>2026-03-29T07:48:53Z</time></trkpt><trkpt lat="44.076560132221594" lon="8.096423628483832"><ele>257.0</ele><time>2026-03-29T07:48:54Z</time></trkpt><trkpt lat="44.076540545034476" lon="8.096313826724542"><ele>256.6</ele><time>2026-03-29T07:48:55Z</time></trkpt><trkpt lat="44.076495714318575" lon="8.096208046583946"><ele>256.2</ele><time>2026-03-29T07:48:56Z</time></trkpt><trkpt lat="44.07644137718979" lon="8.096152396928483"><ele>255.8</ele><time>2026-03-29T07:48:57Z</time></trkpt><trkpt lat="44.07631393116175" lon="8.096180075667801"><ele>255.4</ele><time>2026-03-29T07:48:59Z</time></trkpt><trkpt lat="44.07623438843987" lon="8.096185443969123"><ele>255.0</ele><time>2026-03-29T07:49:00Z</time></trkpt><trkpt lat="44.076151771179326" lon="8.096151041305891"><ele>255.0</ele><time>2026-03-29T07:49:01Z</time></trkpt><trkpt lat="44.07607476706353" lon="8.096120194878484"><ele>255.0</ele><time>2026-03-29T07:49:02Z</time></trkpt><trkpt lat="44.076009779028865" lon="8.096120208678684"><ele>255.0</ele><time>2026-03-29T07:49:03Z</time></trkpt><trkpt lat="44.07598520238182" lon="8.096004636742348"><ele>255.0</ele><time>2026-03-29T07:49:05Z</time></trkpt><trkpt lat="44.07607016055587" lon="8.095831328153698"><ele>255.0</ele><time>2026-03-29T07:49:07Z</time></trkpt><trkpt lat="44.075991319478874" lon="8.095709587455627"><ele>255.0</ele><time>2026-03-29T07:49:09Z</time></trkpt><trkpt lat="44.07593087781569" lon="8.095612728932498"><ele>255.0</ele><time>2026-03-29T07:49:10Z</time></trkpt><trkpt lat="44.07586546099736" lon="8.095492047404804"><ele>255.0</ele><time>2026-03-29T07:49:11Z</time></trkpt><trkpt lat="44.07580632922085" lon="8.095379584508688"><ele>255.0</ele><time>2026-03-29T07:49:12Z</time></trkpt><trkpt lat="44.07574555629892" lon="8.095296308519936"><ele>255.0</ele><time>2026-03-29T07:49:13Z</time></trkpt><trkpt lat="44.07565919055113" lon="8.09522775497614"><ele>255.0</ele><time>2026-03-29T07:49:14Z</time></trkpt><trkpt lat="44.07558030430417" lon="8.095189324575106"><ele>255.0</ele><time>2026-03-29T07:49:15Z</time></trkpt><trkpt lat="44.07552760457333" lon="8.095116262826322"><ele>255.0</ele><time>2026-03-29T07:49:16Z</time></trkpt><trkpt lat="44.07549419559116" lon="8.094989021319376"><ele>255.0</ele><time>2026-03-29T07:49:17Z</time></trkpt><trkpt lat="44.07544355002594" lon="8.094840890832382"><ele>255.0</ele><time>2026-03-29T07:49:18Z</time></trkpt><trkpt lat="44.07537402268855" lon="8.09469877457553"><ele>258.75</ele><time>2026-03-29T07:49:19Z</time></trkpt><trkpt lat="44.07527263480271" lon="8.094567758831436"><ele>262.5</ele><time>2026-03-29T07:49:20Z</time></trkpt><trkpt lat="44.07517717028947" lon="8.094445917060703"><ele>266.25</ele><time>2026-03-29T07:49:21Z</time></trkpt><trkpt lat="44.07510179442767" lon="8.094370797540753"><ele>270.0</ele><time>2026-03-29T07:49:22Z</time></trkpt><trkpt lat="44.075018726601535" lon="8.094314058862592"><ele>270.0</ele><time>2026-03-29T07:49:23Z</time></trkpt><trkpt lat="44.07493886077812" lon="8.09429129981518"><ele>270.0</ele><time>2026-03-29T07:49:24Z</time></trkpt><trkpt lat="44.07484709779105" lon="8.094408386440652"><ele>270.0</ele><time>2026-03-29T07:49:26Z</time></trkpt><trkpt lat="44.07481964550619" lon="8.09452028159943"><ele>270.0</ele><time>2026-03-29T07:49:27Z</time></trkpt><trkpt lat="44.07477948689418" lon="8.094647435975682"><ele>270.0</ele><time>2026-03-29T07:49:28Z</time></trkpt><trkpt lat="44.07471772062057" lon="8.094771615082387"><ele>268.75</ele><time>2026-03-29T07:49:29Z</time></trkpt><trkpt lat="44.074646178830335" lon="8.094896367589415"><ele>267.5</ele><time>2026-03-29T07:49:30Z</time></trkpt><trkpt lat="44.07453609061072" lon="8.094997849156156"><ele>266.25</ele><time>2026-03-29T07:49:31Z</time></trkpt><trkpt lat="44.07443348086346" lon="8.095116413494896"><ele>265.0</ele><time>2026-03-29T07:49:32Z</time></trkpt><trkpt lat="44.074337657987726" lon="8.095250371420297"><ele>265.0</ele><time>2026-03-29T07:49:33Z</time></trkpt><trkpt lat="44.074249207743414" lon="8.095332236695025"><ele>265.0</ele><time>2026-03-29T07:49:34Z</time></trkpt><trkpt lat="44.0741771149375" lon="8.095388432576812"><ele>265.0</ele><time>2026-03-29T07:49:35Z</time></trkpt><trkpt lat="44.07408873869296" lon="8.095426710590004"><ele>265.0</ele><time>2026-03-29T07:49:36Z</time></trkpt><trkpt lat="44.07400125643721" lon="8.095522366332837"><ele>265.0</ele><time>2026-03-29T07:49:37Z</time></trkpt><trkpt lat="44.07393769655512" lon="8.095592026762734"><ele>261.0</ele><time>2026-03-29T07:49:38Z</time></trkpt><trkpt lat="44.073884426309455" lon="8.095685228549446"><ele>257.0</ele><time>2026-03-29T07:49:39Z</time></trkpt><trkpt lat="44.073818457003114" lon="8.095810422601783"><ele>253.0</ele><time>2026-03-29T07:49:41Z</time></trkpt><trkpt lat="44.073721105091025" lon="8.095879997499408"><ele>249.0</ele><time>2026-03-29T07:49:43Z</time></trkpt><trkpt lat="44.07368884483674" lon="8.09599781557382"><ele>245.0</ele><time>2026-03-29T07:49:44Z</time></trkpt><trkpt lat="44.073602198266805" lon="8.096013547678215"><ele>245.0</ele><time>2026-03-29T07:49:45Z</time></trkpt><trkpt lat="44.073522115433875" lon="8.095991771849484"><ele>245.0</ele><time>2026-03-29T07:49:46Z</time></trkpt><trkpt lat="44.07345751170656" lon="8.095932577305408"><ele>245.0</ele><time>2026-03-29T07:49:47Z</time></trkpt><trkpt lat="44.07335657288399" lon="8.095917827694148"><ele>245.0</ele><time>2026-03-29T07:49:49Z</time></trkpt><trkpt lat="44.073339026635566" lon="8.096080313032989"><ele>245.0</ele><time>2026-03-29T07:49:51Z</time></trkpt><trkpt lat="44.073391556211426" lon="8.096176322708788"><ele>245.00000000000003</ele><time>2026-03-29T07:49:52Z</time></trkpt><trkpt lat="44.07346237738436" lon="8.096240549789147"><ele>245.0</ele><time>2026-03-29T07:49:53Z</time></trkpt><trkpt lat="44.07353090710596" lon="8.096249294181307"><ele>245.0</ele><time>2026-03-29T07:49:54Z</time></trkpt><trkpt lat="44.073587564319055" lon="8.096296470122994"><ele>245.0</ele><time>2026-03-29T07:49:56Z</time></trkpt><trkpt lat="44.07350786676547" lon="8.096347197871706"><ele>245.00000000000003</ele><time>2026-03-29T07:49:58Z</time></trkpt><trkpt lat="44.07343190396164" lon="8.09633065466631"><ele>245.0</ele><time>2026-03-29T07:49:59Z</time></trkpt><trkpt lat="44.073338855898776" lon="8.096321323200899"><ele>239.8</ele><time>2026-03-29T07:50:00Z</time></trkpt><trkpt lat="44.07326468761386" lon="8.096315648685625"><ele>234.6</ele><time>2026-03-29T07:50:01Z</time></trkpt><trkpt lat="44.073158435386055" lon="8.096390725692133"><ele>229.39999999999998</ele><time>2026-03-29T07:50:03Z</time></trkpt><trkpt lat="44.073115145777244" lon="8.096499182408857"><ele>224.2</ele><time>2026-03-29T07:50:04Z</time></trkpt><trkpt lat="44.073065951715705" lon="8.096643089573753"><ele>219.0</ele><time>2026-03-29T07:50:05Z</time></trkpt><trkpt lat="44.072996077818786" lon="8.09678219490289"><ele>219.0</ele><time>2026-03-29T07:50:06Z</time></trkpt><trkpt lat="44.07292412431996" lon="8.096933539835502"><ele>219.0</ele><time>2026-03-29T07:50:07Z</time></trkpt><trkpt lat="44.072844628418686" lon="8.097100208513885"><ele>219.0</ele><time>2026-03-29T07:50:08Z</time></trkpt><trkpt lat="44.07276613445417" lon="8.097256770514269"><ele>219.0</ele><time>2026-03-29T07:50:09Z</time></trkpt><trkpt lat="44.07269574324922" lon="8.097392743318192"><ele>220.75</ele><time>2026-03-29T07:50:10Z</time></trkpt><trkpt lat="44.072635104449226" lon="8.097535758858813"><ele>222.5</ele><time>2026-03-29T07:50:11Z</time></trkpt><trkpt lat="44.072582056742235" lon="8.097699190640899"><ele>224.25</ele><time>2026-03-29T07:50:12Z</time></trkpt><trkpt lat="44.0725469218438" lon="8.097873813642579"><ele>226.0</ele><time>2026-03-29T07:50:13Z</time></trkpt><trkpt lat="44.072494979019915" lon="8.098022360812712"><ele>224.5</ele><time>2026-03-29T07:50:14Z</time></trkpt><trkpt lat="44.07241048794007" lon="8.098136995399443"><ele>223.0</ele><time>2026-03-29T07:50:15Z</time></trkpt><trkpt lat="44.072310394002464" lon="8.09826858914022"><ele>221.5</ele><time>2026-03-29T07:50:16Z</time></trkpt><trkpt lat="44.07221880691215" lon="8.098394982823"><ele>220.0</ele><time>2026-03-29T07:50:17Z</time></trkpt><trkpt lat="44.07213911902261" lon="8.098536536720982"><ele>220.0</ele><time>2026-03-29T07:50:18Z</time></trkpt><trkpt lat="44.0720506513462" lon="8.098662509376208"><ele>220.0</ele><time>2026-03-29T07:50:19Z</time></trkpt><trkpt lat="44.07199015481368" lon="8.098798037007395"><ele>220.0</ele><time>2026-03-29T07:50:20Z</time></trkpt><trkpt lat="44.07196004387104" lon="8.098973638745823"><ele>220.0</ele><time>2026-03-29T07:50:21Z</time></trkpt><trkpt lat="44.071953365807396" lon="8.099187351903655"><ele>222.6</ele><time>2026-03-29T07:50:22Z</time></trkpt><trkpt lat="44.07192482945277" lon="8.099390387212914"><ele>225.2</ele><time>2026-03-29T07:50:23Z</time></trkpt><trkpt lat="44.07191351177291" lon="8.09955546657472"><ele>227.8</ele><time>2026-03-29T07:50:24Z</time></trkpt><trkpt lat="44.07190759075558" lon="8.099664769912563"><ele>230.4</ele><time>2026-03-29T07:50:25Z</time></trkpt><trkpt lat="44.071886475990524" lon="8.099752808869676"><ele>233.0</ele><time>2026-03-29T07:50:26Z</time></trkpt><trkpt lat="44.07182486422333" lon="8.09980458187729"><ele>233.0</ele><time>2026-03-29T07:50:27Z</time></trkpt><trkpt lat="44.07171337914875" lon="8.099836309088568"><ele>233.0</ele><time>2026-03-29T07:50:28Z</time></trkpt><trkpt lat="44.07159646035338" lon="8.099828320248397"><ele>233.0</ele><time>2026-03-29T07:50:29Z</time></trkpt><trkpt lat="44.071495065720455" lon="8.099785600592948"><ele>233.0</ele><time>2026-03-29T07:50:30Z</time></trkpt><trkpt lat="44.07137209942887" lon="8.099812191097596"><ele>231.83333333333334</ele><time>2026-03-29T07:50:31Z</time></trkpt><trkpt lat="44.071262446175496" lon="8.099836384003119"><ele>230.66666666666669</ele><time>2026-03-29T07:50:32Z</time></trkpt><trkpt lat="44.071172264234605" lon="8.09986379917622"><ele>229.5</ele><time>2026-03-29T07:50:33Z</time></trkpt><trkpt lat="44.071096813226944" lon="8.099854102728173"><ele>228.33333333333331</ele><time>2026-03-29T07:50:34Z</time></trkpt><trkpt lat="44.071023354620124" lon="8.099876460139871"><ele>227.16666666666666</ele><time>2026-03-29T07:50:35Z</time></trkpt><trkpt lat="44.070960912406214" lon="8.09993192546688"><ele>226.0</ele><time>2026-03-29T07:50:37Z</time></trkpt><trkpt lat="44.07094047035181" lon="8.099828675359989"><ele>223.60000000000002</ele><time>2026-03-29T07:50:39Z</time></trkpt><trkpt lat="44.07098492749454" lon="8.099665274438761"><ele>221.20000000000002</ele><time>2026-03-29T07:50:41Z</time></trkpt><trkpt lat="44.0710163893458" lon="8.099540462603489"><ele>218.79999999999998</ele><time>2026-03-29T07:50:42Z</time></trkpt><trkpt lat="44.071057215585036" lon="8.099424452015631"><ele>216.39999999999998</ele><time>2026-03-29T07:50:43Z</time></trkpt><trkpt lat="44.0711298968738" lon="8.099281744019056"><ele>214.0</ele><time>2026-03-29T07:50:44Z</time></trkpt><trkpt lat="44.071202885067606" lon="8.099138786815974"><ele>210.6</ele><time>2026-03-29T07:50:45Z</time></trkpt><trkpt lat="44.07126198679797" lon="8.098985182467773"><ele>207.2</ele><time>2026-03-29T07:50:46Z</time></trkpt><trkpt lat="44.071287369749825" lon="8.098829648920043"><ele>203.79999999999998</ele><time>2026-03-29T07:50:47Z</time></trkpt><trkpt lat="44.071317988886406" lon="8.098693603146573"><ele>200.39999999999998</ele><time>2026-03-29T07:50:48Z</time></trkpt><trkpt lat="44.07133269474586" lon="8.098569834635962"><ele>197.0</ele><time>2026-03-29T07:50:49Z</time></trkpt><trkpt lat="44.07133704282135" lon="8.098447518047381"><ele>197.0</ele><time>2026-03-29T07:50:50Z</time></trkpt><trkpt lat="44.07133301860915" lon="8.09832411407454"><ele>197.0</ele><time>2026-03-29T07:50:51Z</time></trkpt><trkpt lat="44.07135398909247" lon="8.098240410148419"><ele>197.0</ele><time>2026-03-29T07:50:52Z</time></trkpt><trkpt lat="44.07147850121" lon="8.09813276386349"><ele>197.0</ele><time>2026-03-29T07:50:54Z</time></trkpt><trkpt lat="44.0715840053976" lon="8.098105961249896"><ele>197.0</ele><time>2026-03-29T07:50:55Z</time></trkpt><trkpt lat="44.0716515084139" lon="8.098073562489526"><ele>198.00000000000003</ele><time>2026-03-29T07:50:56Z</time></trkpt><trkpt lat="44.07169869046964" lon="8.098004101122738"><ele>199.0</ele><time>2026-03-29T07:50:57Z</time></trkpt><trkpt lat="44.07174575950525" lon="8.097908415062735"><ele>200.0</ele><time>2026-03-29T07:50:58Z</time></trkpt><trkpt lat="44.07178109537128" lon="8.097799675683916"><ele>201.0</ele><time>2026-03-29T07:50:59Z</time></trkpt><trkpt lat="44.07175677434115" lon="8.09770331337272"><ele>202.00000000000003</ele><time>2026-03-29T07:51:01Z</time></trkpt><trkpt lat="44.07168966873123" lon="8.097737540543646"><ele>203.0</ele><time>2026-03-29T07:51:04Z</time></trkpt><trkpt lat="44.07160253147196" lon="8.097848584920783"><ele>199.00000000000003</ele><time>2026-03-29T07:51:06Z</time></trkpt><trkpt lat="44.07154408314518" lon="8.097917965773748"><ele>195.0</ele><time>2026-03-29T07:51:07Z</time></trkpt><trkpt lat="44.07147914537901" lon="8.097956640510073"><ele>191.0</ele><time>2026-03-29T07:51:08Z</time></trkpt><trkpt lat="44.07138881017606" lon="8.097956710361968"><ele>187.0</ele><time>2026-03-29T07:51:09Z</time></trkpt><trkpt lat="44.07130720948641" lon="8.097931736245942"><ele>183.0</ele><time>2026-03-29T07:51:10Z</time></trkpt><trkpt lat="44.07123553936106" lon="8.097928986342705"><ele>179.0</ele><time>2026-03-29T07:51:11Z</time></trkpt><trkpt lat="44.07112232912933" lon="8.09798423852008"><ele>179.0</ele><time>2026-03-29T07:51:13Z</time></trkpt><trkpt lat="44.07106053635658" lon="8.09795702295491"><ele>179.0</ele><time>2026-03-29T07:51:14Z</time></trkpt><trkpt lat="44.07098724481412" lon="8.097919886430887"><ele>179.0</ele><time>2026-03-29T07:51:15Z</time></trkpt><trkpt lat="44.07090874961808" lon="8.09788945807141"><ele>179.0</ele><time>2026-03-29T07:51:16Z</time></trkpt><trkpt lat="44.070822780819775" lon="8.09788046559458"><ele>179.0</ele><time>2026-03-29T07:51:17Z</time></trkpt><trkpt lat="44.07072977479199" lon="8.09791322279497"><ele>179.0</ele><time>2026-03-29T07:51:18Z</time></trkpt><trkpt lat="44.07066230618211" lon="8.097954061637015"><ele>178.75</ele><time>2026-03-29T07:51:19Z</time></trkpt><trkpt lat="44.070610923244615" lon="8.098013598914344"><ele>178.5</ele><time>2026-03-29T07:51:20Z</time></trkpt><trkpt lat="44.07056711870136" lon="8.09819485809533"><ele>178.25</ele><time>2026-03-29T07:51:22Z</time></trkpt><trkpt lat="44.07051905343494" lon="8.098353098611835"><ele>178.0</ele><time>2026-03-29T07:51:23Z</time></trkpt><trkpt lat="44.07043431965039" lon="8.098534958448882"><ele>178.0</ele><time>2026-03-29T07:51:24Z</time></trkpt><trkpt lat="44.07033788836607" lon="8.098691687539462"><ele>178.0</ele><time>2026-03-29T07:51:25Z</time></trkpt><trkpt lat="44.0702491245956" lon="8.098865319620531"><ele>178.0</ele><time>2026-03-29T07:51:26Z</time></trkpt><trkpt lat="44.070191397162134" lon="8.098960255066356"><ele>178.0</ele><time>2026-03-29T07:51:27Z</time></trkpt><trkpt lat="44.07013566870661" lon="8.099013536061081"><ele>178.0</ele><time>2026-03-29T07:51:28Z</time></trkpt><trkpt lat="44.070017978355466" lon="8.098969755439095"><ele>178.0</ele><time>2026-03-29T07:51:30Z</time></trkpt><trkpt lat="44.06995288685854" lon="8.098970303568828"><ele>178.0</ele><time>2026-03-29T07:51:31Z</time></trkpt><trkpt lat="44.069886827212" lon="8.099134938495398"><ele>178.0</ele><time>2026-03-29T07:51:33Z</time></trkpt><trkpt lat="44.069792274126826" lon="8.099137242897815"><ele>178.0</ele><time>2026-03-29T07:51:35Z</time></trkpt><trkpt lat="44.06974023347207" lon="8.09907725926919"><ele>178.5</ele><time>2026-03-29T07:51:36Z</time></trkpt><trkpt lat="44.069658987749605" lon="8.099004568023053"><ele>179.0</ele><time>2026-03-29T07:51:37Z</time></trkpt><trkpt lat="44.06957780355585" lon="8.098983148141997"><ele>179.5</ele><time>2026-03-29T07:51:38Z</time></trkpt><trkpt lat="44.06950265725039" lon="8.098977610713648"><ele>180.0</ele><time>2026-03-29T07:51:39Z</time></trkpt><trkpt lat="44.069439524129955" lon="8.099021378206233"><ele>180.5</ele><time>2026-03-29T07:51:40Z</time></trkpt><trkpt lat="44.06933651053828" lon="8.09909646379035"><ele>181.0</ele><time>2026-03-29T07:51:41Z</time></trkpt><trkpt lat="44.06922758010536" lon="8.099147008140342"><ele>181.0</ele><time>2026-03-29T07:51:42Z</time></trkpt><trkpt lat="44.069120378905325" lon="8.099212146648732"><ele>181.0</ele><time>2026-03-29T07:51:43Z</time></trkpt><trkpt lat="44.06902427931171" lon="8.099273345399338"><ele>181.0</ele><time>2026-03-29T07:51:44Z</time></trkpt><trkpt lat="44.06893589187483" lon="8.09931375405923"><ele>181.0</ele><time>2026-03-29T07:51:45Z</time></trkpt><trkpt lat="44.068843754421636" lon="8.099365937056046"><ele>181.0</ele><time>2026-03-29T07:51:46Z</time></trkpt><trkpt lat="44.06876788061552" lon="8.099372481352647"><ele>177.66666666666669</ele><time>2026-03-29T07:51:47Z</time></trkpt><trkpt lat="44.06865423095521" lon="8.099346015506178"><ele>174.33333333333334</ele><time>2026-03-29T07:51:49Z</time></trkpt><trkpt lat="44.06858698071046" lon="8.099402603794923"><ele>171.0</ele><time>2026-03-29T07:51:50Z</time></trkpt><trkpt lat="44.06851958828966" lon="8.099470039437785"><ele>167.66666666666666</ele><time>2026-03-29T07:51:51Z</time></trkpt><trkpt lat="44.06844840017883" lon="8.09947413936914"><ele>164.33333333333331</ele><time>2026-03-29T07:51:52Z</time></trkpt><trkpt lat="44.068349539748255" lon="8.099460691578583"><ele>161.0</ele><time>2026-03-29T07:51:53Z</time></trkpt><trkpt lat="44.06826073437583" lon="8.09947599850201"><ele>157.16666666666666</ele><time>2026-03-29T07:51:54Z</time></trkpt><trkpt lat="44.06817474324143" lon="8.099477984286468"><ele>153.33333333333331</ele><time>2026-03-29T07:51:55Z</time></trkpt><trkpt lat="44.06810150093709" lon="8.099460438847684"><ele>149.5</ele><time>2026-03-29T07:51:56Z</time></trkpt><trkpt lat="44.068018489746144" lon="8.099446463143169"><ele>145.66666666666666</ele><time>2026-03-29T07:51:57Z</time></trkpt><trkpt lat="44.06793654639165" lon="8.099430538956073"><ele>141.83333333333334</ele><time>2026-03-29T07:51:58Z</time></trkpt><trkpt lat="44.067853411812955" lon="8.099457529709717"><ele>138.0</ele><time>2026-03-29T07:52:00Z</time></trkpt><trkpt lat="44.06792003366258" lon="8.099351511213358"><ele>138.0</ele><time>2026-03-29T07:52:03Z</time></trkpt><trkpt lat="44.06796224426024" lon="8.09926237241777"><ele>138.0</ele><time>2026-03-29T07:52:04Z</time></trkpt><trkpt lat="44.068038499925464" lon="8.099123233557993"><ele>138.0</ele><time>2026-03-29T07:52:05Z</time></trkpt><trkpt lat="44.068056107203326" lon="8.099007417675255"><ele>138.0</ele><time>2026-03-29T07:52:06Z</time></trkpt><trkpt lat="44.068118388981944" lon="8.09890331977931"><ele>138.0</ele><time>2026-03-29T07:52:07Z</time></trkpt><trkpt lat="44.06817030964492" lon="8.098762380937467"><ele>136.33333333333334</ele><time>2026-03-29T07:52:08Z</time></trkpt><trkpt lat="44.06818926166588" lon="8.098647712337902"><ele>134.66666666666666</ele><time>2026-03-29T07:52:09Z</time></trkpt><trkpt lat="44.06819589709972" lon="8.098558455166145"><ele>133.0</ele><time>2026-03-29T07:52:10Z</time></trkpt><trkpt lat="44.068211489261536" lon="8.098466049418317"><ele>131.33333333333331</ele><time>2026-03-29T07:52:11Z</time></trkpt><trkpt lat="44.068284975464714" lon="8.098366214497979"><ele>129.66666666666666</ele><time>2026-03-29T07:52:12Z</time></trkpt><trkpt lat="44.068372901971685" lon="8.098253609485615"><ele>128.0</ele><time>2026-03-29T07:52:13Z</time></trkpt><trkpt lat="44.0684661929259" lon="8.09817444623909"><ele>128.0</ele><time>2026-03-29T07:52:14Z</time></trkpt><trkpt lat="44.06854297935084" lon="8.098064775143625"><ele>128.0</ele><time>2026-03-29T07:52:15Z</time></trkpt><trkpt lat="44.06860439647255" lon="8.097956244628087"><ele>128.0</ele><time>2026-03-29T07:52:16Z</time></trkpt><trkpt lat="44.068665305483435" lon="8.097860631822515"><ele>128.0</ele><time>2026-03-29T07:52:17Z</time></trkpt><trkpt lat="44.068742955236196" lon="8.097840821098695"><ele>128.0</ele><time>2026-03-29T07:52:18Z</time></trkpt><trkpt lat="44.06881632539444" lon="8.097821696076458"><ele>127.99999999999999</ele><time>2026-03-29T07:52:19Z</time></trkpt><trkpt lat="44.06887105734823" lon="8.09775795564839"><ele>128.0</ele><time>2026-03-29T07:52:20Z</time></trkpt><trkpt lat="44.06889593805128" lon="8.097626431534449"><ele>128.0</ele><time>2026-03-29T07:52:21Z</time></trkpt><trkpt lat="44.06892008647341" lon="8.097482946386814"><ele>128.0</ele><time>2026-03-29T07:52:22Z</time></trkpt><trkpt lat="44.06895488880843" lon="8.097376578704527"><ele>127.99999999999999</ele><time>2026-03-29T07:52:23Z</time></trkpt><trkpt lat="44.06888702229206" lon="8.097336854504572"><ele>128.0</ele><time>2026-03-29T07:52:27Z</time></trkpt><trkpt lat="44.06883598423861" lon="8.097409648196846"><ele>127.99999999999999</ele><time>2026-03-29T07:52:28Z</time></trkpt><trkpt lat="44.0687907406175" lon="8.0975204060598"><ele>128.0</ele><time>2026-03-29T07:52:29Z</time></trkpt><trkpt lat="44.068726191620755" lon="8.097612024462114"><ele>128.0</ele><time>2026-03-29T07:52:30Z</time></trkpt><trkpt lat="44.068650236577305" lon="8.097674176393767"><ele>128.0</ele><time>2026-03-29T07:52:31Z</time></trkpt><trkpt lat="44.068579944481755" lon="8.097679767093698"><ele>127.99999999999999</ele><time>2026-03-29T07:52:32Z</time></trkpt><trkpt lat="44.06849955964814" lon="8.097635753811332"><ele>128.0</ele><time>2026-03-29T07:52:33Z</time></trkpt><trkpt lat="44.0683512151278" lon="8.097645639961383"><ele>126.2</ele><time>2026-03-29T07:52:35Z</time></trkpt><trkpt lat="44.06823279880301" lon="8.097637810803642"><ele>124.4</ele><time>2026-03-29T07:52:36Z</time></trkpt><trkpt lat="44.06810632914883" lon="8.097580586013567"><ele>122.60000000000001</ele><time>2026-03-29T07:52:37Z</time></trkpt><trkpt lat="44.068015393620655" lon="8.097518176319134"><ele>120.80000000000001</ele><time>2026-03-29T07:52:38Z</time></trkpt><trkpt lat="44.06794484138945" lon="8.097515448141026"><ele>119.0</ele><time>2026-03-29T07:52:39Z</time></trkpt><trkpt lat="44.0678715415066" lon="8.097559138618243"><ele>119.0</ele><time>2026-03-29T07:52:40Z</time></trkpt><trkpt lat="44.06781611644667" lon="8.097618798678706"><ele>119.0</ele><time>2026-03-29T07:52:41Z</time></trkpt><trkpt lat="44.06770517963382" lon="8.097530651481813"><ele>119.0</ele><time>2026-03-29T07:52:43Z</time></trkpt><trkpt lat="44.0676326745001" lon="8.097493197563834"><ele>119.0</ele><time>2026-03-29T07:52:44Z</time></trkpt><trkpt lat="44.06753653937785" lon="8.097508299816905"><ele>119.0</ele><time>2026-03-29T07:52:45Z</time></trkpt><trkpt lat="44.06746210698148" lon="8.097552979806963"><ele>122.25</ele><time>2026-03-29T07:52:46Z</time></trkpt><trkpt lat="44.067371532912176" lon="8.097668586916804"><ele>125.5</ele><time>2026-03-29T07:52:47Z</time></trkpt><trkpt lat="44.06727809619149" lon="8.097819636596316"><ele>128.75</ele><time>2026-03-29T07:52:48Z</time></trkpt><trkpt lat="44.067186892685676" lon="8.09789986533043"><ele>132.0</ele><time>2026-03-29T07:52:49Z</time></trkpt><trkpt lat="44.06709118246193" lon="8.097916508803387"><ele>132.0</ele><time>2026-03-29T07:52:50Z</time></trkpt><trkpt lat="44.06698932522496" lon="8.09796062193471"><ele>132.0</ele><time>2026-03-29T07:52:51Z</time></trkpt><trkpt lat="44.066915594883" lon="8.09803756823896"><ele>132.0</ele><time>2026-03-29T07:52:52Z</time></trkpt><trkpt lat="44.06685097273364" lon="8.098135305485012"><ele>132.0</ele><time>2026-03-29T07:52:53Z</time></trkpt><trkpt lat="44.06680557959984" lon="8.098254767005223"><ele>132.0</ele><time>2026-03-29T07:52:54Z</time></trkpt><trkpt lat="44.06678880729334" lon="8.098376863682827"><ele>128.4</ele><time>2026-03-29T07:52:55Z</time></trkpt><trkpt lat="44.06679943507081" lon="8.098504169452186"><ele>124.79999999999998</ele><time>2026-03-29T07:52:56Z</time></trkpt><trkpt lat="44.0668175133554" lon="8.09860771251588"><ele>121.2</ele><time>2026-03-29T07:52:57Z</time></trkpt><trkpt lat="44.066782617400364" lon="8.0987669176756"><ele>117.6</ele><time>2026-03-29T07:52:59Z</time></trkpt><trkpt lat="44.06670182336274" lon="8.098854230844394"><ele>114.0</ele><time>2026-03-29T07:53:00Z</time></trkpt><trkpt lat="44.06663585673757" lon="8.098935435836243"><ele>114.33333333333333</ele><time>2026-03-29T07:53:01Z</time></trkpt><trkpt lat="44.06659080590288" lon="8.099067186804007"><ele>114.66666666666666</ele><time>2026-03-29T07:53:02Z</time></trkpt><trkpt lat="44.066574003489414" lon="8.099190716693439"><ele>115.0</ele><time>2026-03-29T07:53:03Z</time></trkpt><trkpt lat="44.06655184395719" lon="8.099288037772993"><ele>115.33333333333333</ele><time>2026-03-29T07:53:04Z</time></trkpt><trkpt lat="44.066516709263446" lon="8.099384473640328"><ele>115.66666666666666</ele><time>2026-03-29T07:53:05Z</time></trkpt><trkpt lat="44.066455296332265" lon="8.099463442203497"><ele>116.0</ele><time>2026-03-29T07:53:06Z</time></trkpt><trkpt lat="44.06635445955496" lon="8.099511101942472"><ele>116.0</ele><time>2026-03-29T07:53:07Z</time></trkpt><trkpt lat="44.06626362599911" lon="8.099555068526724"><ele>116.0</ele><time>2026-03-29T07:53:08Z</time></trkpt><trkpt lat="44.06619427010264" lon="8.099625677855768"><ele>116.0</ele><time>2026-03-29T07:53:09Z</time></trkpt><trkpt lat="44.066144838743476" lon="8.099734045522556"><ele>116.0</ele><time>2026-03-29T07:53:10Z</time></trkpt><trkpt lat="44.06612605596351" lon="8.099894088765097"><ele>116.0</ele><time>2026-03-29T07:53:11Z</time></trkpt><trkpt lat="44.066117594466014" lon="8.100057132907"><ele>115.0</ele><time>2026-03-29T07:53:12Z</time></trkpt><trkpt lat="44.06609139665856" lon="8.100185900045265"><ele>114.0</ele><time>2026-03-29T07:53:13Z</time></trkpt><trkpt lat="44.06600912040886" lon="8.100273049456282"><ele>113.0</ele><time>2026-03-29T07:53:14Z</time></trkpt><trkpt lat="44.06590401784672" lon="8.100325671269076"><ele>112.0</ele><time>2026-03-29T07:53:15Z</time></trkpt><trkpt lat="44.065788194446164" lon="8.100403635378107"><ele>111.0</ele><time>2026-03-29T07:53:16Z</time></trkpt><trkpt lat="44.06570084140701" lon="8.100510005923436"><ele>111.0</ele><time>2026-03-29T07:53:17Z</time></trkpt><trkpt lat="44.065614394024756" lon="8.10064496731292"><ele>111.0</ele><time>2026-03-29T07:53:18Z</time></trkpt><trkpt lat="44.06555841298663" lon="8.100798291627951"><ele>111.0</ele><time>2026-03-29T07:53:19Z</time></trkpt><trkpt lat="44.06550665186463" lon="8.100959210674244"><ele>111.0</ele><time>2026-03-29T07:53:20Z</time></trkpt><trkpt lat="44.065456922121946" lon="8.101101720100864"><ele>109.16666666666667</ele><time>2026-03-29T07:53:21Z</time></trkpt><trkpt lat="44.065417198140864" lon="8.101230369424442"><ele>107.33333333333334</ele><time>2026-03-29T07:53:22Z</time></trkpt><trkpt lat="44.06537164025056" lon="8.101340221461903"><ele>105.5</ele><time>2026-03-29T07:53:23Z</time></trkpt><trkpt lat="44.06531882084084" lon="8.101395766708615"><ele>103.66666666666667</ele><time>2026-03-29T07:53:24Z</time></trkpt><trkpt lat="44.06524805619159" lon="8.101418775401973"><ele>101.83333333333334</ele><time>2026-03-29T07:53:25Z</time></trkpt><trkpt lat="44.06516397688209" lon="8.101449457485378"><ele>100.0</ele><time>2026-03-29T07:53:26Z</time></trkpt><trkpt lat="44.06507542994452" lon="8.101483739162344"><ele>100.00000000000001</ele><time>2026-03-29T07:53:27Z</time></trkpt><trkpt lat="44.06501176219304" lon="8.10148532732843"><ele>100.0</ele><time>2026-03-29T07:53:28Z</time></trkpt><trkpt lat="44.064931520538146" lon="8.101570678439668"><ele>100.0</ele><time>2026-03-29T07:53:30Z</time></trkpt><trkpt lat="44.06484229311098" lon="8.101646499548313"><ele>100.0</ele><time>2026-03-29T07:53:32Z</time></trkpt><trkpt lat="44.064779956312684" lon="8.101686746160931"><ele>100.00000000000001</ele><time>2026-03-29T07:53:33Z</time></trkpt><trkpt lat="44.06470718685226" lon="8.10175538824168"><ele>100.0</ele><time>2026-03-29T07:53:34Z</time></trkpt><trkpt lat="44.0646318578694" lon="8.101829661746056"><ele>98.4</ele><time>2026-03-29T07:53:35Z</time></trkpt><trkpt lat="44.06456524589261" lon="8.10193656677472"><ele>96.8</ele><time>2026-03-29T07:53:36Z</time></trkpt><trkpt lat="44.064501236193195" lon="8.1020338055288"><ele>95.19999999999999</ele><time>2026-03-29T07:53:37Z</time></trkpt><trkpt lat="44.064444802980226" lon="8.102123553518918"><ele>93.6</ele><time>2026-03-29T07:53:38Z</time></trkpt><trkpt lat="44.064399561436176" lon="8.10220985295273"><ele>92.0</ele><time>2026-03-29T07:53:39Z</time></trkpt><trkpt lat="44.06436192620976" lon="8.102331428151428"><ele>92.0</ele><time>2026-03-29T07:53:41Z</time></trkpt><trkpt lat="44.064326060300566" lon="8.102215514938989"><ele>92.0</ele><time>2026-03-29T07:53:44Z</time></trkpt><trkpt lat="44.06436071161974" lon="8.102113599837057"><ele>92.0</ele><time>2026-03-29T07:53:45Z</time></trkpt><trkpt lat="44.06439275409129" lon="8.102026606984053"><ele>92.0</ele><time>2026-03-29T07:53:46Z</time></trkpt><trkpt lat="44.064327031467876" lon="8.101901648727187"><ele>92.0</ele><time>2026-03-29T07:53:48Z</time></trkpt><trkpt lat="44.06422616705456" lon="8.101839403941675"><ele>92.0</ele><time>2026-03-29T07:53:49Z</time></trkpt><trkpt lat="44.064120938616206" lon="8.101744476309303"><ele>92.0</ele><time>2026-03-29T07:53:50Z</time></trkpt><trkpt lat="44.06404567224392" lon="8.101652541076433"><ele>92.0</ele><time>2026-03-29T07:53:51Z</time></trkpt><trkpt lat="44.06399773515398" lon="8.10156593693709"><ele>92.0</ele><time>2026-03-29T07:53:52Z</time></trkpt><trkpt lat="44.06397122786778" lon="8.101467198287216"><ele>92.0</ele><time>2026-03-29T07:53:53Z</time></trkpt><trkpt lat="44.06395005903363" lon="8.101354335795794"><ele>94.19999999999999</ele><time>2026-03-29T07:53:54Z</time></trkpt><trkpt lat="44.06391981354528" lon="8.10125533834474"><ele>96.4</ele><time>2026-03-29T07:53:55Z</time></trkpt><trkpt lat="44.063806042933784" lon="8.101179172300146"><ele>98.6</ele><time>2026-03-29T07:53:57Z</time></trkpt><trkpt lat="44.063693512389996" lon="8.10114781114907"><ele>100.80000000000001</ele><time>2026-03-29T07:53:59Z</time></trkpt><trkpt lat="44.0636326102185" lon="8.101087643632262"><ele>103.0</ele><time>2026-03-29T07:54:01Z</time></trkpt><trkpt lat="44.063604970774655" lon="8.101002045983378"><ele>103.0</ele><time>2026-03-29T07:54:03Z</time></trkpt><trkpt lat="44.06359228556686" lon="8.100828440289469"><ele>103.0</ele><time>2026-03-29T07:54:05Z</time></trkpt><trkpt lat="44.06362662964117" lon="8.100729995824679"><ele>103.0</ele><time>2026-03-29T07:54:06Z</time></trkpt><trkpt lat="44.06365612780528" lon="8.100613244170006"><ele>103.0</ele><time>2026-03-29T07:54:07Z</time></trkpt><trkpt lat="44.063668144843504" lon="8.100462724454825"><ele>103.0</ele><time>2026-03-29T07:54:08Z</time></trkpt><trkpt lat="44.06366080275105" lon="8.100304160645852"><ele>105.0</ele><time>2026-03-29T07:54:09Z</time></trkpt><trkpt lat="44.0636095869901" lon="8.100120273285828"><ele>107.0</ele><time>2026-03-29T07:54:10Z</time></trkpt><trkpt lat="44.06355421946122" lon="8.099935459010794"><ele>109.0</ele><time>2026-03-29T07:54:11Z</time></trkpt><trkpt lat="44.06351211181133" lon="8.099769855935644"><ele>111.0</ele><time>2026-03-29T07:54:12Z</time></trkpt><trkpt lat="44.06348699961685" lon="8.099618098271835"><ele>112.25</ele><time>2026-03-29T07:54:13Z</time></trkpt><trkpt lat="44.06346611386827" lon="8.099441740795104"><ele>113.5</ele><time>2026-03-29T07:54:14Z</time></trkpt><trkpt lat="44.06346094775701" lon="8.099277678173289"><ele>114.75</ele><time>2026-03-29T07:54:15Z</time></trkpt><trkpt lat="44.06348522190501" lon="8.09911648462412"><ele>116.0</ele><time>2026-03-29T07:54:16Z</time></trkpt><trkpt lat="44.06348460517478" lon="8.098986852792228"><ele>116.75</ele><time>2026-03-29T07:54:17Z</time></trkpt><trkpt lat="44.063453930842535" lon="8.098862635516571"><ele>117.5</ele><time>2026-03-29T07:54:18Z</time></trkpt><trkpt lat="44.06341861019839" lon="8.098703940916014"><ele>118.25</ele><time>2026-03-29T07:54:19Z</time></trkpt><trkpt lat="44.06336258568782" lon="8.098543598174928"><ele>119.0</ele><time>2026-03-29T07:54:20Z</time></trkpt><trkpt lat="44.06330325848984" lon="8.098390107936769"><ele>123.75</ele><time>2026-03-29T07:54:21Z</time></trkpt><trkpt lat="44.06323828078644" lon="8.098241532856903"><ele>128.5</ele><time>2026-03-29T07:54:22Z</time></trkpt><trkpt lat="44.06319306384424" lon="8.09808671355061"><ele>133.25</ele><time>2026-03-29T07:54:23Z</time></trkpt><trkpt lat="44.063126594440895" lon="8.097927409450254"><ele>138.0</ele><time>2026-03-29T07:54:24Z</time></trkpt><trkpt lat="44.063065495752745" lon="8.097760612647827"><ele>138.0</ele><time>2026-03-29T07:54:25Z</time></trkpt><trkpt lat="44.063043042655565" lon="8.097626226343921"><ele>138.0</ele><time>2026-03-29T07:54:26Z</time></trkpt><trkpt lat="44.06302987108468" lon="8.097484043200165"><ele>138.0</ele><time>2026-03-29T07:54:27Z</time></trkpt><trkpt lat="44.06300063040832" lon="8.097311834317876"><ele>138.0</ele><time>2026-03-29T07:54:28Z</time></trkpt><trkpt lat="44.06294564155482" lon="8.097122646585992"><ele>136.33333333333334</ele><time>2026-03-29T07:54:29Z</time></trkpt><trkpt lat="44.06284472135585" lon="8.096932828266967"><ele>134.66666666666669</ele><time>2026-03-29T07:54:30Z</time></trkpt><trkpt lat="44.06272561747389" lon="8.096769792980423"><ele>133.0</ele><time>2026-03-29T07:54:31Z</time></trkpt><trkpt lat="44.062638316192626" lon="8.09664003933755"><ele>133.0</ele><time>2026-03-29T07:54:32Z</time></trkpt><trkpt lat="44.06255500441478" lon="8.09656145150906"><ele>133.0</ele><time>2026-03-29T07:54:33Z</time></trkpt><trkpt lat="44.062453040030626" lon="8.096488503201796"><ele>133.0</ele><time>2026-03-29T07:54:34Z</time></trkpt><trkpt lat="44.062400650176485" lon="8.096395836294867"><ele>133.0</ele><time>2026-03-29T07:54:35Z</time></trkpt><trkpt lat="44.06241012220661" lon="8.096266814850585"><ele>133.0</ele><time>2026-03-29T07:54:36Z</time></trkpt><trkpt lat="44.06241919430577" lon="8.096100373804198"><ele>135.4</ele><time>2026-03-29T07:54:37Z</time></trkpt><trkpt lat="44.06242070906175" lon="8.095943762222875"><ele>137.8</ele><time>2026-03-29T07:54:38Z</time></trkpt><trkpt lat="44.06239340331743" lon="8.095799354318999"><ele>140.2</ele><time>2026-03-29T07:54:39Z</time></trkpt><trkpt lat="44.06234479085844" lon="8.095676443322606"><ele>142.6</ele><time>2026-03-29T07:54:40Z</time></trkpt><trkpt lat="44.062272808441904" lon="8.09556771306863"><ele>145.0</ele><time>2026-03-29T07:54:41Z</time></trkpt><trkpt lat="44.06217881636015" lon="8.095456805943776"><ele>145.0</ele><time>2026-03-29T07:54:42Z</time></trkpt><trkpt lat="44.062073459273094" lon="8.095343704062387"><ele>145.0</ele><time>2026-03-29T07:54:43Z</time></trkpt><trkpt lat="44.061966753868525" lon="8.095217785280159"><ele>145.0</ele><time>2026-03-29T07:54:44Z</time></trkpt><trkpt lat="44.06183985809392" lon="8.095157220242514"><ele>145.0</ele><time>2026-03-29T07:54:45Z</time></trkpt><trkpt lat="44.061748191368366" lon="8.095110806313631"><ele>145.0</ele><time>2026-03-29T07:54:46Z</time></trkpt><trkpt lat="44.06178236523149" lon="8.095014075871287"><ele>145.0</ele><time>2026-03-29T07:54:49Z</time></trkpt><trkpt lat="44.061780999318614" lon="8.094893160404142"><ele>145.0</ele><time>2026-03-29T07:54:51Z</time></trkpt><trkpt lat="44.06169636828556" lon="8.094773742385499"><ele>145.0</ele><time>2026-03-29T07:54:53Z</time></trkpt><trkpt lat="44.06162920634054" lon="8.094747740035762"><ele>145.0</ele><time>2026-03-29T07:54:54Z</time></trkpt><trkpt lat="44.06155274799951" lon="8.094721789674812"><ele>145.0</ele><time>2026-03-29T07:54:55Z</time></trkpt><trkpt lat="44.06148088009597" lon="8.094709698867268"><ele>142.66666666666669</ele><time>2026-03-29T07:54:56Z</time></trkpt><trkpt lat="44.06141480352503" lon="8.094721859879813"><ele>140.33333333333334</ele><time>2026-03-29T07:54:57Z</time></trkpt><trkpt lat="44.06135354217364" lon="8.094783244116204"><ele>138.0</ele><time>2026-03-29T07:54:58Z</time></trkpt><trkpt lat="44.06127840070755" lon="8.094860905523529"><ele>135.66666666666666</ele><time>2026-03-29T07:55:00Z</time></trkpt><trkpt lat="44.06120822692276" lon="8.094877504988744"><ele>133.33333333333331</ele><time>2026-03-29T07:55:01Z</time></trkpt><trkpt lat="44.06113230276577" lon="8.094851013785695"><ele>131.0</ele><time>2026-03-29T07:55:02Z</time></trkpt><trkpt lat="44.06107042794143" lon="8.094785897760445"><ele>131.0</ele><time>2026-03-29T07:55:03Z</time></trkpt><trkpt lat="44.0610026910184" lon="8.09470266350851"><ele>131.0</ele><time>2026-03-29T07:55:04Z</time></trkpt><trkpt lat="44.06093798162913" lon="8.094642227894754"><ele>131.0</ele><time>2026-03-29T07:55:05Z</time></trkpt><trkpt lat="44.06086350914411" lon="8.09456883625548"><ele>131.0</ele><time>2026-03-29T07:55:07Z</time></trkpt><trkpt lat="44.06077580350395" lon="8.094519849692702"><ele>131.0</ele><time>2026-03-29T07:55:11Z</time></trkpt><trkpt lat="44.06068567043798" lon="8.09445017534496"><ele>128.2</ele><time>2026-03-29T07:55:13Z</time></trkpt><trkpt lat="44.06061092744295" lon="8.094388809351589"><ele>125.39999999999999</ele><time>2026-03-29T07:55:14Z</time></trkpt><trkpt lat="44.060529996873676" lon="8.094341836485151"><ele>122.6</ele><time>2026-03-29T07:55:15Z</time></trkpt><trkpt lat="44.06045511090552" lon="8.094286446852006"><ele>119.8</ele><time>2026-03-29T07:55:16Z</time></trkpt><trkpt lat="44.060366707434014" lon="8.094220837962695"><ele>117.0</ele><time>2026-03-29T07:55:17Z</time></trkpt><trkpt lat="44.06028447346476" lon="8.094147251287415"><ele>117.0</ele><time>2026-03-29T07:55:18Z</time></trkpt><trkpt lat="44.060225976731424" lon="8.094090442971366"><ele>117.0</ele><time>2026-03-29T07:55:19Z</time></trkpt><trkpt lat="44.06015815460183" lon="8.094066107090542"><ele>117.0</ele><time>2026-03-29T07:55:20Z</time></trkpt><trkpt lat="44.06007516573521" lon="8.094054086515769"><ele>117.0</ele><time>2026-03-29T07:55:21Z</time></trkpt><trkpt lat="44.06000231873869" lon="8.094020201452905"><ele>117.0</ele><time>2026-03-29T07:55:22Z</time></trkpt><trkpt lat="44.05993398062396" lon="8.093970878501693"><ele>117.0</ele><time>2026-03-29T07:55:23Z</time></trkpt><trkpt lat="44.05986470198435" lon="8.093937535444807"><ele>115.71428571428572</ele><time>2026-03-29T07:55:24Z</time></trkpt><trkpt lat="44.05979605009457" lon="8.093906626872712"><ele>114.42857142857144</ele><time>2026-03-29T07:55:25Z</time></trkpt><trkpt lat="44.05973348832026" lon="8.09386890673192"><ele>113.14285714285714</ele><time>2026-03-29T07:55:26Z</time></trkpt><trkpt lat="44.0596695221241" lon="8.093818754079471"><ele>111.85714285714286</ele><time>2026-03-29T07:55:27Z</time></trkpt><trkpt lat="44.05961776069778" lon="8.093750641597598"><ele>110.57142857142857</ele><time>2026-03-29T07:55:28Z</time></trkpt><trkpt lat="44.059568353589874" lon="8.093681537207368"><ele>109.28571428571428</ele><time>2026-03-29T07:55:29Z</time></trkpt><trkpt lat="44.059499177674354" lon="8.093663164953814"><ele>108.0</ele><time>2026-03-29T07:55:30Z</time></trkpt><trkpt lat="44.059388471264405" lon="8.09365525078485"><ele>108.0</ele><time>2026-03-29T07:55:31Z</time></trkpt><trkpt lat="44.0592957384038" lon="8.093637831045804"><ele>108.00000000000001</ele><time>2026-03-29T07:55:32Z</time></trkpt><trkpt lat="44.0592097352513" lon="8.093600181501936"><ele>108.00000000000001</ele><time>2026-03-29T07:55:33Z</time></trkpt><trkpt lat="44.05910401979086" lon="8.093549018514695"><ele>108.0</ele><time>2026-03-29T07:55:34Z</time></trkpt><trkpt lat="44.05902336270795" lon="8.093520218406898"><ele>108.0</ele><time>2026-03-29T07:55:35Z</time></trkpt><trkpt lat="44.058939675529906" lon="8.09353724684923"><ele>104.80000000000001</ele><time>2026-03-29T07:55:36Z</time></trkpt><trkpt lat="44.05883496609559" lon="8.093606824584064"><ele>101.60000000000001</ele><time>2026-03-29T07:55:37Z</time></trkpt><trkpt lat="44.058728488878835" lon="8.093677707229942"><ele>98.4</ele><time>2026-03-29T07:55:38Z</time></trkpt><trkpt lat="44.05864075512783" lon="8.093735505928858"><ele>95.19999999999999</ele><time>2026-03-29T07:55:39Z</time></trkpt><trkpt lat="44.058581408068314" lon="8.093828476038986"><ele>92.0</ele><time>2026-03-29T07:55:40Z</time></trkpt><trkpt lat="44.058519860671346" lon="8.093965010996577"><ele>92.0</ele><time>2026-03-29T07:55:41Z</time></trkpt><trkpt lat="44.058466157953575" lon="8.094053049965193"><ele>92.0</ele><time>2026-03-29T07:55:42Z</time></trkpt><trkpt lat="44.05838484765345" lon="8.094128439042061"><ele>92.0</ele><time>2026-03-29T07:55:43Z</time></trkpt><trkpt lat="44.05827038999594" lon="8.094176203792529"><ele>92.0</ele><time>2026-03-29T07:55:44Z</time></trkpt><trkpt lat="44.058147809165696" lon="8.094191016651605"><ele>92.0</ele><time>2026-03-29T07:55:45Z</time></trkpt><trkpt lat="44.05802927817383" lon="8.094187899788867"><ele>91.19999999999999</ele><time>2026-03-29T07:55:46Z</time></trkpt><trkpt lat="44.057947631008766" lon="8.094237489081994"><ele>90.4</ele><time>2026-03-29T07:55:47Z</time></trkpt><trkpt lat="44.057879287554854" lon="8.094322398395683"><ele>89.6</ele><time>2026-03-29T07:55:48Z</time></trkpt><trkpt lat="44.05782843096061" lon="8.094458405824103"><ele>88.80000000000001</ele><time>2026-03-29T07:55:49Z</time></trkpt><trkpt lat="44.05777208248846" lon="8.094599171959038"><ele>88.0</ele><time>2026-03-29T07:55:50Z</time></trkpt><trkpt lat="44.057709030268725" lon="8.094692419889643"><ele>88.0</ele><time>2026-03-29T07:55:51Z</time></trkpt><trkpt lat="44.057636836596934" lon="8.094727970495981"><ele>88.0</ele><time>2026-03-29T07:55:52Z</time></trkpt><trkpt lat="44.057549336311666" lon="8.094734899999327"><ele>88.0</ele><time>2026-03-29T07:55:53Z</time></trkpt><trkpt lat="44.05745794329391" lon="8.09471194808191"><ele>88.0</ele><time>2026-03-29T07:55:54Z</time></trkpt><trkpt lat="44.05736178719414" lon="8.094681676628436"><ele>88.0</ele><time>2026-03-29T07:55:55Z</time></trkpt><trkpt lat="44.0572931393797" lon="8.094677149596867"><ele>88.0</ele><time>2026-03-29T07:55:56Z</time></trkpt><trkpt lat="44.05719712443189" lon="8.094723330872954"><ele>88.66666666666666</ele><time>2026-03-29T07:55:58Z</time></trkpt><trkpt lat="44.05713513465393" lon="8.094798249796646"><ele>89.33333333333333</ele><time>2026-03-29T07:56:00Z</time></trkpt><trkpt lat="44.05713155959355" lon="8.094895567245622"><ele>90.0</ele><time>2026-03-29T07:56:01Z</time></trkpt><trkpt lat="44.05707918641211" lon="8.094969879224445"><ele>90.66666666666667</ele><time>2026-03-29T07:56:02Z</time></trkpt><trkpt lat="44.0570386666906" lon="8.095065609740873"><ele>91.33333333333334</ele><time>2026-03-29T07:56:03Z</time></trkpt><trkpt lat="44.05698715482848" lon="8.095148686194053"><ele>92.0</ele><time>2026-03-29T07:56:04Z</time></trkpt><trkpt lat="44.05693078296362" lon="8.095222802086312"><ele>92.0</ele><time>2026-03-29T07:56:05Z</time></trkpt><trkpt lat="44.056864992761504" lon="8.095328982391552"><ele>92.0</ele><time>2026-03-29T07:56:06Z</time></trkpt><trkpt lat="44.05680350604183" lon="8.09544369544028"><ele>92.0</ele><time>2026-03-29T07:56:07Z</time></trkpt><trkpt lat="44.056723433605924" lon="8.095526190172889"><ele>92.0</ele><time>2026-03-29T07:56:08Z</time></trkpt><trkpt lat="44.05665378291214" lon="8.095590378554967"><ele>92.0</ele><time>2026-03-29T07:56:09Z</time></trkpt><trkpt lat="44.056589839129586" lon="8.095652061696475"><ele>90.0</ele><time>2026-03-29T07:56:10Z</time></trkpt><trkpt lat="44.056520188340656" lon="8.09570711516725"><ele>88.0</ele><time>2026-03-29T07:56:11Z</time></trkpt><trkpt lat="44.05645096083489" lon="8.0957498112243"><ele>86.0</ele><time>2026-03-29T07:56:12Z</time></trkpt><trkpt lat="44.05638076537799" lon="8.095790751270245"><ele>84.0</ele><time>2026-03-29T07:56:13Z</time></trkpt><trkpt lat="44.05631429217995" lon="8.09582835215151"><ele>82.0</ele><time>2026-03-29T07:56:14Z</time></trkpt><trkpt lat="44.05624729101686" lon="8.095863164826127"><ele>80.0</ele><time>2026-03-29T07:56:15Z</time></trkpt><trkpt lat="44.0561858431081" lon="8.095898145160959"><ele>78.0</ele><time>2026-03-29T07:56:16Z</time></trkpt><trkpt lat="44.056111569751224" lon="8.096076548445733"><ele>76.6</ele><time>2026-03-29T07:56:18Z</time></trkpt><trkpt lat="44.05606824701536" lon="8.09620071609456"><ele>75.19999999999999</ele><time>2026-03-29T07:56:19Z</time></trkpt><trkpt lat="44.05602348253935" lon="8.096317224433765"><ele>73.8</ele><time>2026-03-29T07:56:20Z</time></trkpt><trkpt lat="44.05597515387247" lon="8.096436031664325"><ele>72.39999999999999</ele><time>2026-03-29T07:56:21Z</time></trkpt><trkpt lat="44.05592862466551" lon="8.096556025459467"><ele>71.0</ele><time>2026-03-29T07:56:22Z</time></trkpt><trkpt lat="44.055888512176665" lon="8.096664391646328"><ele>70.6</ele><time>2026-03-29T07:56:23Z</time></trkpt><trkpt lat="44.05585214157559" lon="8.09677703936043"><ele>70.19999999999999</ele><time>2026-03-29T07:56:24Z</time></trkpt><trkpt lat="44.05582108848827" lon="8.09688786223606"><ele>69.80000000000001</ele><time>2026-03-29T07:56:25Z</time></trkpt><trkpt lat="44.05578828275343" lon="8.096999100349363"><ele>69.4</ele><time>2026-03-29T07:56:26Z</time></trkpt><trkpt lat="44.05575212527241" lon="8.097115018442885"><ele>69.0</ele><time>2026-03-29T07:56:27Z</time></trkpt><trkpt lat="44.05570851145347" lon="8.097243844641064"><ele>68.25</ele><time>2026-03-29T07:56:28Z</time></trkpt><trkpt lat="44.05564882600539" lon="8.097373974758748"><ele>67.5</ele><time>2026-03-29T07:56:29Z</time></trkpt><trkpt lat="44.055576450211916" lon="8.097501136145867"><ele>66.75</ele><time>2026-03-29T07:56:30Z</time></trkpt><trkpt lat="44.0555048699809" lon="8.097623930722975"><ele>66.0</ele><time>2026-03-29T07:56:31Z</time></trkpt><trkpt lat="44.05541443986635" lon="8.097734208033327"><ele>65.75</ele><time>2026-03-29T07:56:32Z</time></trkpt><trkpt lat="44.055331101752955" lon="8.097874584395461"><ele>65.5</ele><time>2026-03-29T07:56:33Z</time></trkpt><trkpt lat="44.05525323228045" lon="8.098039049035355"><ele>65.25</ele><time>2026-03-29T07:56:34Z</time></trkpt><trkpt lat="44.05516555519953" lon="8.098176702198979"><ele>65.0</ele><time>2026-03-29T07:56:35Z</time></trkpt><trkpt lat="44.055072815711256" lon="8.098297285783978"><ele>64.8</ele><time>2026-03-29T07:56:36Z</time></trkpt><trkpt lat="44.05498873138887" lon="8.098405638993949"><ele>64.6</ele><time>2026-03-29T07:56:37Z</time></trkpt><trkpt lat="44.0549112710835" lon="8.098513187840432"><ele>64.4</ele><time>2026-03-29T07:56:38Z</time></trkpt><trkpt lat="44.05484560869134" lon="8.098619500160787"><ele>64.2</ele><time>2026-03-29T07:56:39Z</time></trkpt><trkpt lat="44.05480427888222" lon="8.098734103243231"><ele>64.0</ele><time>2026-03-29T07:56:40Z</time></trkpt><trkpt lat="44.05477776184024" lon="8.098849930037188"><ele>63.666666666666664</ele><time>2026-03-29T07:56:41Z</time></trkpt><trkpt lat="44.05475507959431" lon="8.098956894113817"><ele>63.33333333333333</ele><time>2026-03-29T07:56:42Z</time></trkpt><trkpt lat="44.054740681866484" lon="8.099053017428789"><ele>63.0</ele><time>2026-03-29T07:56:43Z</time></trkpt><trkpt lat="44.0547220308896" lon="8.099166612367002"><ele>62.66666666666667</ele><time>2026-03-29T07:56:45Z</time></trkpt><trkpt lat="44.05460275497617" lon="8.099196314499368"><ele>62.333333333333336</ele><time>2026-03-29T07:56:48Z</time></trkpt><trkpt lat="44.054520587478294" lon="8.099199104630324"><ele>62.0</ele><time>2026-03-29T07:56:49Z</time></trkpt><trkpt lat="44.05443510821441" lon="8.099194896001388"><ele>62.00000000000001</ele><time>2026-03-29T07:56:50Z</time></trkpt><trkpt lat="44.054336373790534" lon="8.09919046862687"><ele>62.0</ele><time>2026-03-29T07:56:51Z</time></trkpt><trkpt lat="44.05423306243084" lon="8.099179093777245"><ele>62.0</ele><time>2026-03-29T07:56:52Z</time></trkpt><trkpt lat="44.054146176469956" lon="8.09917291743825"><ele>62.0</ele><time>2026-03-29T07:56:53Z</time></trkpt><trkpt lat="44.05407872477949" lon="8.099170817710212"><ele>62.00000000000001</ele><time>2026-03-29T07:56:54Z</time></trkpt><trkpt lat="44.054016891857145" lon="8.099149246475712"><ele>62.0</ele><time>2026-03-29T07:56:56Z</time></trkpt><trkpt lat="44.05395296809268" lon="8.09912842626816"><ele>61.833333333333336</ele><time>2026-03-29T07:57:00Z</time></trkpt><trkpt lat="44.053826877326074" lon="8.099095510934767"><ele>61.66666666666667</ele><time>2026-03-29T07:57:02Z</time></trkpt><trkpt lat="44.0537590214279" lon="8.099110786502928"><ele>61.5</ele><time>2026-03-29T07:57:03Z</time></trkpt><trkpt lat="44.05368528776706" lon="8.099140418730604"><ele>61.33333333333333</ele><time>2026-03-29T07:57:04Z</time></trkpt><trkpt lat="44.053621879418294" lon="8.0992194628848"><ele>61.166666666666664</ele><time>2026-03-29T07:57:05Z</time></trkpt><trkpt lat="44.0535504191685" lon="8.099268023302933"><ele>61.0</ele><time>2026-03-29T07:57:06Z</time></trkpt><trkpt lat="44.05346815072396" lon="8.099273348595876"><ele>60.99999999999999</ele><time>2026-03-29T07:57:07Z</time></trkpt><trkpt lat="44.05338809438491" lon="8.099275427476977"><ele>61.0</ele><time>2026-03-29T07:57:08Z</time></trkpt><trkpt lat="44.053321277211104" lon="8.099277175192363"><ele>61.0</ele><time>2026-03-29T07:57:09Z</time></trkpt><trkpt lat="44.05324055911629" lon="8.099255491134963"><ele>61.0</ele><time>2026-03-29T07:57:11Z</time></trkpt><trkpt lat="44.05322827968558" lon="8.099160118196105"><ele>60.99999999999999</ele><time>2026-03-29T07:57:14Z</time></trkpt><trkpt lat="44.05320066162588" lon="8.099076807769134"><ele>61.0</ele><time>2026-03-29T07:57:18Z</time></trkpt><trkpt lat="44.05306473156501" lon="8.099112330341747"><ele>60.33333333333333</ele><time>2026-03-29T07:57:20Z</time></trkpt><trkpt lat="44.05299339922026" lon="8.09911191175193"><ele>59.666666666666664</ele><time>2026-03-29T07:57:21Z</time></trkpt><trkpt lat="44.05291135302948" lon="8.099109040311728"><ele>59.0</ele><time>2026-03-29T07:57:22Z</time></trkpt><trkpt lat="44.05282315724115" lon="8.09910984864934"><ele>58.33333333333333</ele><time>2026-03-29T07:57:23Z</time></trkpt><trkpt lat="44.05272763072361" lon="8.099111190572387"><ele>57.666666666666664</ele><time>2026-03-29T07:57:24Z</time></trkpt><trkpt lat="44.052626583917096" lon="8.099110810827101"><ele>57.0</ele><time>2026-03-29T07:57:25Z</time></trkpt><trkpt lat="44.052521574931326" lon="8.099110807324893"><ele>56.2</ele><time>2026-03-29T07:57:26Z</time></trkpt><trkpt lat="44.0524145443854" lon="8.099111647856061"><ele>55.400000000000006</ele><time>2026-03-29T07:57:27Z</time></trkpt><trkpt lat="44.052304875742884" lon="8.099110004651457"><ele>54.599999999999994</ele><time>2026-03-29T07:57:28Z</time></trkpt><trkpt lat="44.05219093457468" lon="8.099107890013194"><ele>53.8</ele><time>2026-03-29T07:57:29Z</time></trkpt><trkpt lat="44.05207569704893" lon="8.099107088904548"><ele>53.0</ele><time>2026-03-29T07:57:30Z</time></trkpt><trkpt lat="44.05196148579301" lon="8.09910770926947"><ele>53.0</ele><time>2026-03-29T07:57:31Z</time></trkpt><trkpt lat="44.051841452321675" lon="8.099110064057758"><ele>53.0</ele><time>2026-03-29T07:57:32Z</time></trkpt><trkpt lat="44.051728145075714" lon="8.099110476917307"><ele>53.0</ele><time>2026-03-29T07:57:33Z</time></trkpt><trkpt lat="44.05162290267729" lon="8.099113209710668"><ele>53.0</ele><time>2026-03-29T07:57:34Z</time></trkpt><trkpt lat="44.051526116394804" lon="8.099117799147146"><ele>53.0</ele><time>2026-03-29T07:57:35Z</time></trkpt><trkpt lat="44.05143635107333" lon="8.099118927774343"><ele>56.16666666666667</ele><time>2026-03-29T07:57:36Z</time></trkpt><trkpt lat="44.05135574071885" lon="8.099096936793243"><ele>59.333333333333336</ele><time>2026-03-29T07:57:37Z</time></trkpt><trkpt lat="44.05127869467629" lon="8.099114842255014"><ele>62.5</ele><time>2026-03-29T07:57:38Z</time></trkpt><trkpt lat="44.051206456794326" lon="8.099112413978553"><ele>65.66666666666667</ele><time>2026-03-29T07:57:39Z</time></trkpt><trkpt lat="44.05114156925885" lon="8.099100893253835"><ele>68.83333333333333</ele><time>2026-03-29T07:57:40Z</time></trkpt><trkpt lat="44.051043854930306" lon="8.099093973389717"><ele>72.0</ele><time>2026-03-29T07:57:42Z</time></trkpt><trkpt lat="44.05112388611237" lon="8.098890778332324"><ele>72.2</ele><time>2026-03-29T07:57:44Z</time></trkpt><trkpt lat="44.05113524344593" lon="8.098792216624034"><ele>72.4</ele><time>2026-03-29T07:57:45Z</time></trkpt><trkpt lat="44.05114875025029" lon="8.098676197101925"><ele>72.6</ele><time>2026-03-29T07:57:46Z</time></trkpt><trkpt lat="44.051164219745004" lon="8.098510415297747"><ele>72.8</ele><time>2026-03-29T07:57:47Z</time></trkpt><trkpt lat="44.05116533348199" lon="8.09834821995646"><ele>73.0</ele><time>2026-03-29T07:57:48Z</time></trkpt><trkpt lat="44.051158578845595" lon="8.098217689200975"><ele>73.8</ele><time>2026-03-29T07:57:49Z</time></trkpt><trkpt lat="44.05115381559548" lon="8.098125641521541"><ele>74.6</ele><time>2026-03-29T07:57:50Z</time></trkpt><trkpt lat="44.05120973045055" lon="8.098009948550386"><ele>75.4</ele><time>2026-03-29T07:57:55Z</time></trkpt><trkpt lat="44.05127539360002" lon="8.097883713067725"><ele>76.2</ele><time>2026-03-29T07:57:57Z</time></trkpt><trkpt lat="44.05132384010996" lon="8.097791585915473"><ele>77.0</ele><time>2026-03-29T07:57:58Z</time></trkpt><trkpt lat="44.051377767802705" lon="8.097688182252126"><ele>77.0</ele><time>2026-03-29T07:57:59Z</time></trkpt><trkpt lat="44.05144777268658" lon="8.097547157652853"><ele>77.0</ele><time>2026-03-29T07:58:00Z</time></trkpt><trkpt lat="44.05154364784302" lon="8.097335698961245"><ele>77.0</ele><time>2026-03-29T07:58:01Z</time></trkpt><trkpt lat="44.05156193332446" lon="8.097184808945672"><ele>77.0</ele><time>2026-03-29T07:58:02Z</time></trkpt><trkpt lat="44.051592323653715" lon="8.097035239792685"><ele>81.0</ele><time>2026-03-29T07:58:03Z</time></trkpt><trkpt lat="44.051616843335026" lon="8.096840016441341"><ele>85.0</ele><time>2026-03-29T07:58:04Z</time></trkpt><trkpt lat="44.051638088464884" lon="8.096643200214436"><ele>89.0</ele><time>2026-03-29T07:58:05Z</time></trkpt><trkpt lat="44.05111652019959" lon="8.09606726828649"><ele>91.66666666666667</ele><time>2026-03-29T07:58:06Z</time></trkpt><trkpt lat="44.05115834243775" lon="8.095859696930178"><ele>94.33333333333334</ele><time>2026-03-29T07:58:07Z</time></trkpt><trkpt lat="44.05118869336148" lon="8.095648966354355"><ele>97.0</ele><time>2026-03-29T07:58:08Z</time></trkpt><trkpt lat="44.05122477965426" lon="8.095445479366346"><ele>99.66666666666667</ele><time>2026-03-29T07:58:09Z</time></trkpt><trkpt lat="44.05126144924361" lon="8.095235543986927"><ele>102.33333333333334</ele><time>2026-03-29T07:58:10Z</time></trkpt><trkpt lat="44.051302148493384" lon="8.095024719556632"><ele>105.0</ele><time>2026-03-29T07:58:11Z</time></trkpt><trkpt lat="44.0513423250155" lon="8.094814174279941"><ele>105.0</ele><time>2026-03-29T07:58:12Z</time></trkpt><trkpt lat="44.051379896762576" lon="8.0945991212099"><ele>105.0</ele><time>2026-03-29T07:58:13Z</time></trkpt><trkpt lat="44.05140506331558" lon="8.094377380658607"><ele>105.0</ele><time>2026-03-29T07:58:14Z</time></trkpt><trkpt lat="44.05142776601193" lon="8.094153043599682"><ele>106.0</ele><time>2026-03-29T07:58:15Z</time></trkpt><trkpt lat="44.05144988116319" lon="8.09392907943341"><ele>107.0</ele><time>2026-03-29T07:58:16Z</time></trkpt><trkpt lat="44.05146439294634" lon="8.093704579339363"><ele>108.0</ele><time>2026-03-29T07:58:17Z</time></trkpt><trkpt lat="44.05146653604793" lon="8.093476687666453"><ele>110.0</ele><time>2026-03-29T07:58:18Z</time></trkpt><trkpt lat="44.05147147445534" lon="8.093245172018895"><ele>112.0</ele><time>2026-03-29T07:58:19Z</time></trkpt><trkpt lat="44.05147982085261" lon="8.093016875850557"><ele>114.0</ele><time>2026-03-29T07:58:20Z</time></trkpt><trkpt lat="44.051494043137325" lon="8.092794957210018"><ele>114.0</ele><time>2026-03-29T07:58:21Z</time></trkpt><trkpt lat="44.05150353093917" lon="8.092573819696268"><ele>114.0</ele><time>2026-03-29T07:58:22Z</time></trkpt><trkpt lat="44.05151307739759" lon="8.092357144646437"><ele>114.0</ele><time>2026-03-29T07:58:23Z</time></trkpt><trkpt lat="44.051537639316656" lon="8.092145374437704"><ele>117.0</ele><time>2026-03-29T07:58:24Z</time></trkpt><trkpt lat="44.05156382457885" lon="8.09194529552841"><ele>120.0</ele><time>2026-03-29T07:58:25Z</time></trkpt><trkpt lat="44.0515938146561" lon="8.091742929758537"><ele>123.0</ele><time>2026-03-29T07:58:26Z</time></trkpt><trkpt lat="44.05162964613582" lon="8.091543428745702"><ele>126.0</ele><time>2026-03-29T07:58:27Z</time></trkpt><trkpt lat="44.05167837779504" lon="8.091346891413915"><ele>118.0</ele><time>2026-03-29T07:58:28Z</time></trkpt><trkpt lat="44.051736238379696" lon="8.091152945442794"><ele>110.0</ele><time>2026-03-29T07:58:29Z</time></trkpt><trkpt lat="44.05178782751289" lon="8.090961426550558"><ele>102.0</ele><time>2026-03-29T07:58:30Z</time></trkpt><trkpt lat="44.05183248325128" lon="8.09076739526432"><ele>94.0</ele><time>2026-03-29T07:58:31Z</time></trkpt><trkpt lat="44.05186638641799" lon="8.090576162369615"><ele>94.0</ele><time>2026-03-29T07:58:32Z</time></trkpt><trkpt lat="44.051896504701" lon="8.090386130555075"><ele>94.0</ele><time>2026-03-29T07:58:33Z</time></trkpt><trkpt lat="44.05190734455154" lon="8.090229401669234"><ele>94.0</ele><time>2026-03-29T07:58:34Z</time></trkpt><trkpt lat="44.05191444434986" lon="8.09008419315536"><ele>94.0</ele><time>2026-03-29T07:58:35Z</time></trkpt><trkpt lat="44.05193214946614" lon="8.089965873162651"><ele>94.0</ele><time>2026-03-29T07:58:36Z</time></trkpt><trkpt lat="44.05197854372211" lon="8.089870379053924"><ele>95.0</ele><time>2026-03-29T07:58:37Z</time></trkpt><trkpt lat="44.0520105750721" lon="8.089756684595372"><ele>96.0</ele><time>2026-03-29T07:58:38Z</time></trkpt><trkpt lat="44.05199514141018" lon="8.08963371640976"><ele>97.0</ele><time>2026-03-29T07:58:39Z</time></trkpt><trkpt lat="44.051982999635854" lon="8.089497470321712"><ele>98.0</ele><time>2026-03-29T07:58:40Z</time></trkpt><trkpt lat="44.05194548653716" lon="8.089334927680943"><ele>99.0</ele><time>2026-03-29T07:58:41Z</time></trkpt><trkpt lat="44.051920351917204" lon="8.089156282419513"><ele>100.0</ele><time>2026-03-29T07:58:42Z</time></trkpt><trkpt lat="44.051907920130105" lon="8.088980354404088"><ele>101.0</ele><time>2026-03-29T07:58:43Z</time></trkpt><trkpt lat="44.05190785901318" lon="8.088796905412925"><ele>102.0</ele><time>2026-03-29T07:58:44Z</time></trkpt><trkpt lat="44.05191712433161" lon="8.08859435901188"><ele>103.0</ele><time>2026-03-29T07:58:45Z</time></trkpt><trkpt lat="44.05193141720441" lon="8.088377894045268"><ele>104.0</ele><time>2026-03-29T07:58:46Z</time></trkpt><trkpt lat="44.05196746918218" lon="8.088159579043824"><ele>105.0</ele><time>2026-03-29T07:58:47Z</time></trkpt><trkpt lat="44.05197770062332" lon="8.087951494689475"><ele>106.0</ele><time>2026-03-29T07:58:48Z</time></trkpt><trkpt lat="44.05199641846938" lon="8.0877472728665"><ele>106.0</ele><time>2026-03-29T07:58:49Z</time></trkpt><trkpt lat="44.05202804049608" lon="8.087534138862493"><ele>106.0</ele><time>2026-03-29T07:58:50Z</time></trkpt><trkpt lat="44.05206104883824" lon="8.087332709474818"><ele>106.0</ele><time>2026-03-29T07:58:51Z</time></trkpt><trkpt lat="44.052098919317196" lon="8.087135212328011"><ele>105.75</ele><time>2026-03-29T07:58:52Z</time></trkpt><trkpt lat="44.05212304524391" lon="8.0869361084762"><ele>105.5</ele><time>2026-03-29T07:58:53Z</time></trkpt><trkpt lat="44.05211734912344" lon="8.086725957203472"><ele>105.25</ele><time>2026-03-29T07:58:54Z</time></trkpt><trkpt lat="44.05209302712966" lon="8.086525291274938"><ele>105.0</ele><time>2026-03-29T07:58:55Z</time></trkpt><trkpt lat="44.052060592908234" lon="8.086324123716484"><ele>103.25</ele><time>2026-03-29T07:58:56Z</time></trkpt><trkpt lat="44.052016503782895" lon="8.0861355510239"><ele>101.5</ele><time>2026-03-29T07:58:57Z</time></trkpt><trkpt lat="44.05197584190874" lon="8.08596433697466"><ele>99.75</ele><time>2026-03-29T07:58:58Z</time></trkpt><trkpt lat="44.05195907693889" lon="8.085774761185094"><ele>98.0</ele><time>2026-03-29T07:58:59Z</time></trkpt><trkpt lat="44.05194158412475" lon="8.085579119747969"><ele>97.33333333333333</ele><time>2026-03-29T07:59:00Z</time></trkpt><trkpt lat="44.05194067989902" lon="8.085370361447092"><ele>96.66666666666666</ele><time>2026-03-29T07:59:01Z</time></trkpt><trkpt lat="44.05194155587694" lon="8.085143053569245"><ele>96.0</ele><time>2026-03-29T07:59:02Z</time></trkpt><trkpt lat="44.05195220610813" lon="8.084923957729394"><ele>95.66666666666667</ele><time>2026-03-29T07:59:03Z</time></trkpt><trkpt lat="44.0519798463862" lon="8.084706768925429"><ele>95.33333333333334</ele><time>2026-03-29T07:59:04Z</time></trkpt><trkpt lat="44.052014332221404" lon="8.084492397361604"><ele>95.0</ele><time>2026-03-29T07:59:05Z</time></trkpt><trkpt lat="44.0520477354865" lon="8.08427457343136"><ele>97.33333333333334</ele><time>2026-03-29T07:59:06Z</time></trkpt><trkpt lat="44.052073844477114" lon="8.084057155343098"><ele>99.66666666666667</ele><time>2026-03-29T07:59:07Z</time></trkpt><trkpt lat="44.05210315702615" lon="8.083827784318089"><ele>102.0</ele><time>2026-03-29T07:59:08Z</time></trkpt><trkpt lat="44.05212502857921" lon="8.083609267344126"><ele>102.0</ele><time>2026-03-29T07:59:09Z</time></trkpt><trkpt lat="44.052154510690556" lon="8.083381360311892"><ele>102.0</ele><time>2026-03-29T07:59:10Z</time></trkpt><trkpt lat="44.052185934530755" lon="8.08316915951498"><ele>102.0</ele><time>2026-03-29T07:59:11Z</time></trkpt><trkpt lat="44.05223678019188" lon="8.082988926720251"><ele>103.0</ele><time>2026-03-29T07:59:12Z</time></trkpt><trkpt lat="44.05226028399408" lon="8.082817423804817"><ele>104.0</ele><time>2026-03-29T07:59:13Z</time></trkpt><trkpt lat="44.0522535330256" lon="8.082636103846237"><ele>105.0</ele><time>2026-03-29T07:59:14Z</time></trkpt><trkpt lat="44.05223174714771" lon="8.082445691835122"><ele>106.0</ele><time>2026-03-29T07:59:15Z</time></trkpt><trkpt lat="44.052237087419236" lon="8.082249919843735"><ele>109.75</ele><time>2026-03-29T07:59:16Z</time></trkpt><trkpt lat="44.05225208997364" lon="8.082054486502374"><ele>113.5</ele><time>2026-03-29T07:59:17Z</time></trkpt><trkpt lat="44.05228737412663" lon="8.081868000940299"><ele>117.25</ele><time>2026-03-29T07:59:18Z</time></trkpt><trkpt lat="44.05232214037598" lon="8.081679195984384"><ele>121.0</ele><time>2026-03-29T07:59:19Z</time></trkpt><trkpt lat="44.05236214116493" lon="8.081485727367541"><ele>124.0</ele><time>2026-03-29T07:59:20Z</time></trkpt><trkpt lat="44.05241579042112" lon="8.081281808409647"><ele>127.0</ele><time>2026-03-29T07:59:21Z</time></trkpt><trkpt lat="44.05245982263116" lon="8.081072480783309"><ele>130.0</ele><time>2026-03-29T07:59:22Z</time></trkpt><trkpt lat="44.052485107109746" lon="8.080855412670864"><ele>114.33333333333334</ele><time>2026-03-29T07:59:23Z</time></trkpt><trkpt lat="44.052500299999416" lon="8.08063648884393"><ele>98.66666666666667</ele><time>2026-03-29T07:59:24Z</time></trkpt><trkpt lat="44.052520373101125" lon="8.080416673374417"><ele>83.0</ele><time>2026-03-29T07:59:25Z</time></trkpt><trkpt lat="44.052536130224276" lon="8.080192321855971"><ele>83.0</ele><time>2026-03-29T07:59:26Z</time></trkpt><trkpt lat="44.052550827743175" lon="8.07996760243357"><ele>83.0</ele><time>2026-03-29T07:59:27Z</time></trkpt><trkpt lat="44.05257698354077" lon="8.079759112124417"><ele>83.0</ele><time>2026-03-29T07:59:28Z</time></trkpt><trkpt lat="44.05261372752584" lon="8.079565776002907"><ele>83.25</ele><time>2026-03-29T07:59:29Z</time></trkpt><trkpt lat="44.052638146246416" lon="8.079389989967687"><ele>83.5</ele><time>2026-03-29T07:59:30Z</time></trkpt><trkpt lat="44.05263824432813" lon="8.07922876363325"><ele>83.75</ele><time>2026-03-29T07:59:31Z</time></trkpt><trkpt lat="44.052616044951115" lon="8.07906911504022"><ele>84.0</ele><time>2026-03-29T07:59:32Z</time></trkpt><trkpt lat="44.052587115821666" lon="8.078905840058745"><ele>84.0</ele><time>2026-03-29T07:59:33Z</time></trkpt><trkpt lat="44.05257191314871" lon="8.078754847243784"><ele>84.0</ele><time>2026-03-29T07:59:34Z</time></trkpt><trkpt lat="44.05258181457387" lon="8.078606023416228"><ele>84.0</ele><time>2026-03-29T07:59:35Z</time></trkpt><trkpt lat="44.05256295986956" lon="8.078454994587096"><ele>84.0</ele><time>2026-03-29T07:59:36Z</time></trkpt><trkpt lat="44.05253696065712" lon="8.07829803262586"><ele>84.0</ele><time>2026-03-29T07:59:37Z</time></trkpt><trkpt lat="44.052469917427246" lon="8.078151145065906"><ele>93.5</ele><time>2026-03-29T07:59:38Z</time></trkpt><trkpt lat="44.052402744835945" lon="8.078014536145512"><ele>103.0</ele><time>2026-03-29T07:59:39Z</time></trkpt><trkpt lat="44.05236251630734" lon="8.077866695554818"><ele>112.5</ele><time>2026-03-29T07:59:40Z</time></trkpt><trkpt lat="44.052341603853165" lon="8.077688289882659"><ele>122.0</ele><time>2026-03-29T07:59:41Z</time></trkpt><trkpt lat="44.052335561056275" lon="8.07750465851464"><ele>121.75</ele><time>2026-03-29T07:59:42Z</time></trkpt><trkpt lat="44.052344919822765" lon="8.077339311819799"><ele>121.5</ele><time>2026-03-29T07:59:43Z</time></trkpt><trkpt lat="44.0523707414064" lon="8.077174202908411"><ele>121.25</ele><time>2026-03-29T07:59:44Z</time></trkpt><trkpt lat="44.052385649960904" lon="8.076994853478618"><ele>121.0</ele><time>2026-03-29T07:59:45Z</time></trkpt><trkpt lat="44.052382920701284" lon="8.07680040364022"><ele>120.0</ele><time>2026-03-29T07:59:46Z</time></trkpt><trkpt lat="44.0523716481626" lon="8.076590918748996"><ele>119.0</ele><time>2026-03-29T07:59:47Z</time></trkpt><trkpt lat="44.05235588105764" lon="8.076375557340207"><ele>118.0</ele><time>2026-03-29T07:59:48Z</time></trkpt><trkpt lat="44.05234969719869" lon="8.076151350055513"><ele>118.0</ele><time>2026-03-29T07:59:49Z</time></trkpt><trkpt lat="44.0523446663325" lon="8.075932863847727"><ele>118.0</ele><time>2026-03-29T07:59:50Z</time></trkpt><trkpt lat="44.05233029271101" lon="8.075720925179276"><ele>118.0</ele><time>2026-03-29T07:59:51Z</time></trkpt><trkpt lat="44.05231968021953" lon="8.07549707806491"><ele>118.0</ele><time>2026-03-29T07:59:52Z</time></trkpt><trkpt lat="44.05227663742381" lon="8.07528352112575"><ele>118.0</ele><time>2026-03-29T07:59:53Z</time></trkpt><trkpt lat="44.05226529091233" lon="8.075078690449226"><ele>118.0</ele><time>2026-03-29T07:59:54Z</time></trkpt><trkpt lat="44.05226607278658" lon="8.074878820420649"><ele>118.0</ele><time>2026-03-29T07:59:55Z</time></trkpt><trkpt lat="44.05230247568858" lon="8.074678356296726"><ele>118.0</ele><time>2026-03-29T07:59:56Z</time></trkpt><trkpt lat="44.05234113154814" lon="8.074484378471572"><ele>118.0</ele><time>2026-03-29T07:59:57Z</time></trkpt><trkpt lat="44.05238486362051" lon="8.074292793503002"><ele>118.0</ele><time>2026-03-29T07:59:58Z</time></trkpt><trkpt lat="44.052391658377125" lon="8.074100652801498"><ele>118.25</ele><time>2026-03-29T07:59:59Z</time></trkpt><trkpt lat="44.052367329196976" lon="8.073909656863497"><ele>118.5</ele><time>2026-03-29T08:00:00Z</time></trkpt><trkpt lat="44.052326415938886" lon="8.073725294452842"><ele>118.75</ele><time>2026-03-29T08:00:01Z</time></trkpt><trkpt lat="44.05227460048096" lon="8.073503801223348"><ele>119.0</ele><time>2026-03-29T08:00:02Z</time></trkpt><trkpt lat="44.052242865132584" lon="8.073281498438542"><ele>120.25</ele><time>2026-03-29T08:00:03Z</time></trkpt><trkpt lat="44.052233289247866" lon="8.073057113237379"><ele>121.5</ele><time>2026-03-29T08:00:04Z</time></trkpt><trkpt lat="44.05224110167231" lon="8.072863467899078"><ele>122.75</ele><time>2026-03-29T08:00:05Z</time></trkpt><trkpt lat="44.05225304367813" lon="8.072706863406221"><ele>124.0</ele><time>2026-03-29T08:00:06Z</time></trkpt><trkpt lat="44.05228416064913" lon="8.072550598840357"><ele>126.5</ele><time>2026-03-29T08:00:07Z</time></trkpt><trkpt lat="44.05232981398531" lon="8.07240234598324"><ele>129.0</ele><time>2026-03-29T08:00:08Z</time></trkpt><trkpt lat="44.052350592385736" lon="8.072259849125967"><ele>131.5</ele><time>2026-03-29T08:00:09Z</time></trkpt><trkpt lat="44.05235127405836" lon="8.072108084114863"><ele>134.0</ele><time>2026-03-29T08:00:10Z</time></trkpt><trkpt lat="44.05233939067541" lon="8.071934395164387"><ele>134.0</ele><time>2026-03-29T08:00:11Z</time></trkpt><trkpt lat="44.0523250037076" lon="8.071733921545205"><ele>134.0</ele><time>2026-03-29T08:00:12Z</time></trkpt><trkpt lat="44.05235821399733" lon="8.07156886746001"><ele>134.0</ele><time>2026-03-29T08:00:13Z</time></trkpt><trkpt lat="44.05236052363743" lon="8.071422676434729"><ele>134.0</ele><time>2026-03-29T08:00:14Z</time></trkpt><trkpt lat="44.05238639364157" lon="8.071269074859558"><ele>139.0</ele><time>2026-03-29T08:00:15Z</time></trkpt><trkpt lat="44.05242361614444" lon="8.071106549083945"><ele>144.0</ele><time>2026-03-29T08:00:16Z</time></trkpt><trkpt lat="44.05247402336369" lon="8.07094369345663"><ele>149.0</ele><time>2026-03-29T08:00:17Z</time></trkpt><trkpt lat="44.0525324852215" lon="8.070780830337114"><ele>154.0</ele><time>2026-03-29T08:00:18Z</time></trkpt><trkpt lat="44.052598799820956" lon="8.070611897224437"><ele>139.0</ele><time>2026-03-29T08:00:19Z</time></trkpt><trkpt lat="44.0526544084006" lon="8.070442979982035"><ele>124.0</ele><time>2026-03-29T08:00:20Z</time></trkpt><trkpt lat="44.052702642473925" lon="8.070279444650007"><ele>109.0</ele><time>2026-03-29T08:00:21Z</time></trkpt><trkpt lat="44.052737374162824" lon="8.070127125372736"><ele>94.0</ele><time>2026-03-29T08:00:22Z</time></trkpt><trkpt lat="44.052780486540485" lon="8.069984308362223"><ele>95.80000000000001</ele><time>2026-03-29T08:00:23Z</time></trkpt><trkpt lat="44.052805517060115" lon="8.06983152955224"><ele>97.60000000000001</ele><time>2026-03-29T08:00:24Z</time></trkpt><trkpt lat="44.052804273892" lon="8.069682456414212"><ele>99.4</ele><time>2026-03-29T08:00:25Z</time></trkpt><trkpt lat="44.05277855419038" lon="8.069556982506016"><ele>101.2</ele><time>2026-03-29T08:00:26Z</time></trkpt><trkpt lat="44.05273217798209" lon="8.069447816061667"><ele>103.0</ele><time>2026-03-29T08:00:27Z</time></trkpt><trkpt lat="44.0526860817817" lon="8.069331353712418"><ele>103.0</ele><time>2026-03-29T08:00:28Z</time></trkpt><trkpt lat="44.052700185022694" lon="8.069188996578585"><ele>103.0</ele><time>2026-03-29T08:00:29Z</time></trkpt><trkpt lat="44.052745858743734" lon="8.069036610416502"><ele>103.0</ele><time>2026-03-29T08:00:30Z</time></trkpt><trkpt lat="44.05278999652401" lon="8.068880826417864"><ele>103.0</ele><time>2026-03-29T08:00:31Z</time></trkpt><trkpt lat="44.052823125826905" lon="8.06872297052715"><ele>108.0</ele><time>2026-03-29T08:00:32Z</time></trkpt><trkpt lat="44.05288290466135" lon="8.068573296389367"><ele>113.0</ele><time>2026-03-29T08:00:33Z</time></trkpt><trkpt lat="44.05294446540051" lon="8.068450750216078"><ele>118.0</ele><time>2026-03-29T08:00:34Z</time></trkpt><trkpt lat="44.05298770045449" lon="8.068315122885956"><ele>123.0</ele><time>2026-03-29T08:00:35Z</time></trkpt><trkpt lat="44.05301471722661" lon="8.068145840357825"><ele>128.0</ele><time>2026-03-29T08:00:36Z</time></trkpt><trkpt lat="44.05303926289403" lon="8.067954773334963"><ele>133.0</ele><time>2026-03-29T08:00:37Z</time></trkpt><trkpt lat="44.0530894256091" lon="8.067795156182711"><ele>138.0</ele><time>2026-03-29T08:00:38Z</time></trkpt><trkpt lat="44.05316426790859" lon="8.06765904210492"><ele>143.0</ele><time>2026-03-29T08:00:39Z</time></trkpt><trkpt lat="44.053246409320934" lon="8.067527131567044"><ele>132.5</ele><time>2026-03-29T08:00:40Z</time></trkpt><trkpt lat="44.053301096549966" lon="8.06736920595165"><ele>122.0</ele><time>2026-03-29T08:00:41Z</time></trkpt><trkpt lat="44.053353896987126" lon="8.067199595480504"><ele>111.5</ele><time>2026-03-29T08:00:42Z</time></trkpt><trkpt lat="44.0533856246188" lon="8.067015199452177"><ele>101.0</ele><time>2026-03-29T08:00:43Z</time></trkpt><trkpt lat="44.05343283758763" lon="8.066834479385797"><ele>101.0</ele><time>2026-03-29T08:00:44Z</time></trkpt><trkpt lat="44.05350389619243" lon="8.066666641346496"><ele>101.0</ele><time>2026-03-29T08:00:45Z</time></trkpt><trkpt lat="44.05356799004791" lon="8.066514533711272"><ele>101.0</ele><time>2026-03-29T08:00:46Z</time></trkpt><trkpt lat="44.05361934558665" lon="8.06636766541682"><ele>101.0</ele><time>2026-03-29T08:00:47Z</time></trkpt><trkpt lat="44.05368612987081" lon="8.06621450801676"><ele>104.0</ele><time>2026-03-29T08:00:48Z</time></trkpt><trkpt lat="44.053755770727676" lon="8.066063154358186"><ele>107.0</ele><time>2026-03-29T08:00:49Z</time></trkpt><trkpt lat="44.053794798662075" lon="8.065928755233914"><ele>110.0</ele><time>2026-03-29T08:00:50Z</time></trkpt><trkpt lat="44.053815333535056" lon="8.065810939190651"><ele>113.0</ele><time>2026-03-29T08:00:51Z</time></trkpt><trkpt lat="44.05384427641698" lon="8.065712360295809"><ele>116.0</ele><time>2026-03-29T08:00:52Z</time></trkpt><trkpt lat="44.05386691594924" lon="8.065625574545356"><ele>117.33333333333333</ele><time>2026-03-29T08:00:53Z</time></trkpt><trkpt lat="44.05388637645207" lon="8.065522001259561"><ele>118.66666666666666</ele><time>2026-03-29T08:00:54Z</time></trkpt><trkpt lat="44.05390346266424" lon="8.065404446463956"><ele>120.0</ele><time>2026-03-29T08:00:55Z</time></trkpt><trkpt lat="44.05392286108077" lon="8.065281499053063"><ele>121.33333333333334</ele><time>2026-03-29T08:00:56Z</time></trkpt><trkpt lat="44.05394326781594" lon="8.065162100944955"><ele>122.66666666666667</ele><time>2026-03-29T08:00:57Z</time></trkpt><trkpt lat="44.053957396803874" lon="8.065041160926778"><ele>124.0</ele><time>2026-03-29T08:00:58Z</time></trkpt><trkpt lat="44.053956508376366" lon="8.064926602939806"><ele>125.80000000000001</ele><time>2026-03-29T08:00:59Z</time></trkpt><trkpt lat="44.053964745976664" lon="8.064825611778577"><ele>127.60000000000001</ele><time>2026-03-29T08:01:00Z</time></trkpt><trkpt lat="44.05401999445095" lon="8.064681379942488"><ele>129.4</ele><time>2026-03-29T08:01:02Z</time></trkpt><trkpt lat="44.054070845143336" lon="8.064582484331659"><ele>131.20000000000002</ele><time>2026-03-29T08:01:03Z</time></trkpt><trkpt lat="44.05410477017926" lon="8.064459098796593"><ele>133.0</ele><time>2026-03-29T08:01:04Z</time></trkpt><trkpt lat="44.0541371385014" lon="8.064326743438695"><ele>128.8</ele><time>2026-03-29T08:01:05Z</time></trkpt><trkpt lat="44.05416182711208" lon="8.064182759937982"><ele>124.60000000000001</ele><time>2026-03-29T08:01:06Z</time></trkpt><trkpt lat="44.05418418238459" lon="8.064034441444557"><ele>120.39999999999999</ele><time>2026-03-29T08:01:07Z</time></trkpt><trkpt lat="44.05420989061463" lon="8.06388696464418"><ele>116.19999999999999</ele><time>2026-03-29T08:01:08Z</time></trkpt><trkpt lat="44.0542495573756" lon="8.063744482931329"><ele>112.0</ele><time>2026-03-29T08:01:09Z</time></trkpt><trkpt lat="44.054304669662486" lon="8.063607573724331"><ele>112.0</ele><time>2026-03-29T08:01:10Z</time></trkpt><trkpt lat="44.05436954030858" lon="8.063471282530355"><ele>112.0</ele><time>2026-03-29T08:01:11Z</time></trkpt><trkpt lat="44.054431193611784" lon="8.063325816304571"><ele>112.0</ele><time>2026-03-29T08:01:12Z</time></trkpt><trkpt lat="44.05447943531834" lon="8.063165841256824"><ele>112.0</ele><time>2026-03-29T08:01:13Z</time></trkpt><trkpt lat="44.054522663112245" lon="8.063020015224824"><ele>111.8</ele><time>2026-03-29T08:01:14Z</time></trkpt><trkpt lat="44.054556647227166" lon="8.062891404835796"><ele>111.6</ele><time>2026-03-29T08:01:15Z</time></trkpt><trkpt lat="44.05458951442139" lon="8.062763126841423"><ele>111.39999999999999</ele><time>2026-03-29T08:01:16Z</time></trkpt><trkpt lat="44.05460955885327" lon="8.062621291444204"><ele>111.19999999999999</ele><time>2026-03-29T08:01:17Z</time></trkpt><trkpt lat="44.054627735280306" lon="8.062462632921624"><ele>111.0</ele><time>2026-03-29T08:01:18Z</time></trkpt><trkpt lat="44.0546402312294" lon="8.06231679323545"><ele>109.0</ele><time>2026-03-29T08:01:19Z</time></trkpt><trkpt lat="44.0546463083803" lon="8.06218935708107"><ele>107.0</ele><time>2026-03-29T08:01:20Z</time></trkpt><trkpt lat="44.054643333420394" lon="8.062083403455512"><ele>105.0</ele><time>2026-03-29T08:01:21Z</time></trkpt><trkpt lat="44.054615225002586" lon="8.061993195974226"><ele>103.0</ele><time>2026-03-29T08:01:22Z</time></trkpt><trkpt lat="44.05456853943771" lon="8.061903236609853"><ele>101.0</ele><time>2026-03-29T08:01:23Z</time></trkpt><trkpt lat="44.05450567128494" lon="8.061791531924033"><ele>99.0</ele><time>2026-03-29T08:01:24Z</time></trkpt><trkpt lat="44.05445938808337" lon="8.061685790964656"><ele>98.2</ele><time>2026-03-29T08:01:25Z</time></trkpt><trkpt lat="44.05441629162072" lon="8.061569696557129"><ele>97.4</ele><time>2026-03-29T08:01:26Z</time></trkpt><trkpt lat="44.05438100352631" lon="8.06148961892438"><ele>96.6</ele><time>2026-03-29T08:01:27Z</time></trkpt><trkpt lat="44.054375845338065" lon="8.061312385676812"><ele>95.8</ele><time>2026-03-29T08:01:29Z</time></trkpt><trkpt lat="44.05441550789922" lon="8.061194213166742"><ele>95.0</ele><time>2026-03-29T08:01:30Z</time></trkpt><trkpt lat="44.05444092531881" lon="8.061075507959451"><ele>95.0</ele><time>2026-03-29T08:01:31Z</time></trkpt><trkpt lat="44.0544273771075" lon="8.060945721131649"><ele>95.0</ele><time>2026-03-29T08:01:32Z</time></trkpt><trkpt lat="44.05439221625358" lon="8.060809276849122"><ele>95.0</ele><time>2026-03-29T08:01:33Z</time></trkpt><trkpt lat="44.054359991326976" lon="8.060681625322935"><ele>95.0</ele><time>2026-03-29T08:01:34Z</time></trkpt><trkpt lat="44.05428834557779" lon="8.060605785958844"><ele>95.0</ele><time>2026-03-29T08:01:35Z</time></trkpt><trkpt lat="44.05423905896305" lon="8.060533077268682"><ele>94.0</ele><time>2026-03-29T08:01:36Z</time></trkpt><trkpt lat="44.054135099203855" lon="8.060466712052781"><ele>93.0</ele><time>2026-03-29T08:01:38Z</time></trkpt><trkpt lat="44.05407251403721" lon="8.060491912158701"><ele>92.0</ele><time>2026-03-29T08:01:39Z</time></trkpt><trkpt lat="44.05400979820107" lon="8.060525139987886"><ele>91.0</ele><time>2026-03-29T08:01:40Z</time></trkpt><trkpt lat="44.0539379426873" lon="8.060546361076035"><ele>90.0</ele><time>2026-03-29T08:01:41Z</time></trkpt><trkpt lat="44.05386631559615" lon="8.06055139952087"><ele>89.0</ele><time>2026-03-29T08:01:42Z</time></trkpt><trkpt lat="44.053772083514204" lon="8.060530612579477"><ele>91.33333333333334</ele><time>2026-03-29T08:01:44Z</time></trkpt><trkpt lat="44.05370613504598" lon="8.06047791489564"><ele>93.66666666666667</ele><time>2026-03-29T08:01:46Z</time></trkpt><trkpt lat="44.05362654458393" lon="8.060362560459726"><ele>96.0</ele><time>2026-03-29T08:03:28Z</time></trkpt><trkpt lat="44.053570634575706" lon="8.060308558505438"><ele>98.33333333333334</ele><time>2026-03-29T08:11:05Z</time></trkpt><trkpt lat="44.0535042748532" lon="8.060232109854226"><ele>100.66666666666667</ele><time>2026-03-29T08:11:08Z</time></trkpt><trkpt lat="44.05345219558032" lon="8.06016218012014"><ele>103.0</ele><time>2026-03-29T08:11:12Z</time></trkpt><trkpt lat="44.05340235930365" lon="8.060049248202345"><ele>103.0</ele><time>2026-03-29T08:11:51Z</time></trkpt><trkpt lat="44.05333166486285" lon="8.060006667277758"><ele>103.0</ele><time>2026-03-29T08:17:08Z</time></trkpt><trkpt lat="44.053295758863094" lon="8.059930812512976"><ele>103.0</ele><time>2026-03-29T08:18:05Z</time></trkpt><trkpt lat="44.05325823018531" lon="8.059832014806174"><ele>103.0</ele><time>2026-03-29T08:19:01Z</time></trkpt><trkpt lat="44.05317771856272" lon="8.059688886649583"><ele>103.0</ele><time>2026-03-29T08:19:03Z</time></trkpt><trkpt lat="44.05310053691368" lon="8.059501445963354"><ele>107.33333333333334</ele><time>2026-03-29T08:19:04Z</time></trkpt><trkpt lat="44.05298930885341" lon="8.059306597077883"><ele>111.66666666666666</ele><time>2026-03-29T08:19:05Z</time></trkpt><trkpt lat="44.052871477897426" lon="8.059123779506447"><ele>116.0</ele><time>2026-03-29T08:19:06Z</time></trkpt><trkpt lat="44.052795974172284" lon="8.059023615172674"><ele>116.0</ele><time>2026-03-29T08:19:07Z</time></trkpt><trkpt lat="44.052753338109476" lon="8.058844181583718"><ele>116.0</ele><time>2026-03-29T08:19:08Z</time></trkpt><trkpt lat="44.05268316337803" lon="8.058644326175365"><ele>116.0</ele><time>2026-03-29T08:19:09Z</time></trkpt><trkpt lat="44.05261155009935" lon="8.058551128541747"><ele>116.0</ele><time>2026-03-29T08:19:10Z</time></trkpt><trkpt lat="44.05251853847045" lon="8.058440811574002"><ele>115.99999999999999</ele><time>2026-03-29T08:19:11Z</time></trkpt><trkpt lat="44.052464204150034" lon="8.058319428661266"><ele>116.0</ele><time>2026-03-29T08:19:12Z</time></trkpt><trkpt lat="44.0523776109778" lon="8.058258184330173"><ele>116.0</ele><time>2026-03-29T08:19:13Z</time></trkpt><trkpt lat="44.052314996609084" lon="8.058228772577714"><ele>116.0</ele><time>2026-03-29T08:19:14Z</time></trkpt><trkpt lat="44.05226190565145" lon="8.058312618233906"><ele>115.99999999999999</ele><time>2026-03-29T08:19:16Z</time></trkpt><trkpt lat="44.052311310114554" lon="8.05843283876657"><ele>116.0</ele><time>2026-03-29T08:19:18Z</time></trkpt><trkpt lat="44.05234997966475" lon="8.058518812830963"><ele>125.5</ele><time>2026-03-29T08:19:19Z</time></trkpt><trkpt lat="44.05235658156467" lon="8.05865764404925"><ele>135.0</ele><time>2026-03-29T08:19:20Z</time></trkpt><trkpt lat="44.052379278346635" lon="8.058853936491897"><ele>144.5</ele><time>2026-03-29T08:19:21Z</time></trkpt><trkpt lat="44.052423396145876" lon="8.059009733336955"><ele>154.0</ele><time>2026-03-29T08:19:22Z</time></trkpt><trkpt lat="44.05241761730542" lon="8.059133091790258"><ele>154.0</ele><time>2026-03-29T08:19:24Z</time></trkpt><trkpt lat="44.05233224188174" lon="8.059028447662689"><ele>154.0</ele><time>2026-03-29T08:19:26Z</time></trkpt><trkpt lat="44.05230335363435" lon="8.05892876589083"><ele>154.0</ele><time>2026-03-29T08:19:27Z</time></trkpt><trkpt lat="44.05225049725104" lon="8.05878948711506"><ele>154.0</ele><time>2026-03-29T08:19:28Z</time></trkpt><trkpt lat="44.05219420991285" lon="8.058705704068467"><ele>154.0</ele><time>2026-03-29T08:19:29Z</time></trkpt><trkpt lat="44.05208538533405" lon="8.058638841209062"><ele>154.0</ele><time>2026-03-29T08:19:30Z</time></trkpt><trkpt lat="44.05199080729101" lon="8.05864040231226"><ele>154.0</ele><time>2026-03-29T08:19:31Z</time></trkpt><trkpt lat="44.051864768132916" lon="8.05863250515569"><ele>154.0</ele><time>2026-03-29T08:19:32Z</time></trkpt><trkpt lat="44.05176226326973" lon="8.058616444194364"><ele>154.0</ele><time>2026-03-29T08:19:32.999Z</time></trkpt><trkpt lat="44.05165858748866" lon="8.058599678996767"><ele>154.0</ele><time>2026-03-29T08:19:33.999Z</time></trkpt><trkpt lat="44.051568613875254" lon="8.058553553504954"><ele>158.8</ele><time>2026-03-29T08:19:34.999Z</time></trkpt><trkpt lat="44.05148132845012" lon="8.058515190878763"><ele>163.60000000000002</ele><time>2026-03-29T08:19:35.999Z</time></trkpt><trkpt lat="44.05138462610939" lon="8.058482753169404"><ele>168.4</ele><time>2026-03-29T08:19:36.999Z</time></trkpt><trkpt lat="44.05128808635183" lon="8.058506486921358"><ele>173.20000000000002</ele><time>2026-03-29T08:19:37.999Z</time></trkpt><trkpt lat="44.05121213855433" lon="8.058487429900508"><ele>178.0</ele><time>2026-03-29T08:19:38.999Z</time></trkpt><trkpt lat="44.05112454282129" lon="8.05842957262422"><ele>178.0</ele><time>2026-03-29T08:19:39.999Z</time></trkpt><trkpt lat="44.05104843608283" lon="8.058398097793937"><ele>178.0</ele><time>2026-03-29T08:19:40.999Z</time></trkpt><trkpt lat="44.05095498592885" lon="8.058418943472198"><ele>178.0</ele><time>2026-03-29T08:19:41.999Z</time></trkpt><trkpt lat="44.05082560317427" lon="8.05848645331305"><ele>178.0</ele><time>2026-03-29T08:19:42.999Z</time></trkpt><trkpt lat="44.050688999290124" lon="8.058539711389525"><ele>181.2</ele><time>2026-03-29T08:19:43.999Z</time></trkpt><trkpt lat="44.0506093167848" lon="8.058586285086204"><ele>184.4</ele><time>2026-03-29T08:19:44.999Z</time></trkpt><trkpt lat="44.05058394539108" lon="8.058726753292028"><ele>187.6</ele><time>2026-03-29T08:19:46.999Z</time></trkpt><trkpt lat="44.050492553186835" lon="8.058745248624989"><ele>190.79999999999998</ele><time>2026-03-29T08:19:48Z</time></trkpt><trkpt lat="44.05042771271933" lon="8.058795974977594"><ele>194.0</ele><time>2026-03-29T08:19:49Z</time></trkpt><trkpt lat="44.05035692202884" lon="8.058878490463917"><ele>194.0</ele><time>2026-03-29T08:19:50Z</time></trkpt><trkpt lat="44.05027620096994" lon="8.05898119351255"><ele>194.0</ele><time>2026-03-29T08:19:51Z</time></trkpt><trkpt lat="44.050183112743184" lon="8.059070173333836"><ele>194.0</ele><time>2026-03-29T08:19:52Z</time></trkpt><trkpt lat="44.050116926061335" lon="8.059161086525311"><ele>194.0</ele><time>2026-03-29T08:19:53Z</time></trkpt><trkpt lat="44.05003158742167" lon="8.059116298175871"><ele>194.0</ele><time>2026-03-29T08:19:56Z</time></trkpt><trkpt lat="44.04987499536374" lon="8.059080913268682"><ele>197.79999999999998</ele><time>2026-03-29T08:19:58Z</time></trkpt><trkpt lat="44.04989094700244" lon="8.058927041566859"><ele>201.6</ele><time>2026-03-29T08:19:59Z</time></trkpt><trkpt lat="44.04987296289354" lon="8.058842449787054"><ele>205.4</ele><time>2026-03-29T08:20:00Z</time></trkpt><trkpt lat="44.04983241129556" lon="8.058719433109758"><ele>209.2</ele><time>2026-03-29T08:20:01Z</time></trkpt><trkpt lat="44.04972836554986" lon="8.058595712933611"><ele>213.0</ele><time>2026-03-29T08:20:02Z</time></trkpt><trkpt lat="44.04961911304274" lon="8.058595110166442"><ele>213.0</ele><time>2026-03-29T08:20:03Z</time></trkpt><trkpt lat="44.04950412148535" lon="8.058610049055691"><ele>213.0</ele><time>2026-03-29T08:20:04Z</time></trkpt><trkpt lat="44.049406102646756" lon="8.058607194118931"><ele>213.0</ele><time>2026-03-29T08:20:05Z</time></trkpt><trkpt lat="44.04928704159993" lon="8.058596060307673"><ele>213.0</ele><time>2026-03-29T08:20:06Z</time></trkpt><trkpt lat="44.04917222572256" lon="8.058565933154462"><ele>215.75</ele><time>2026-03-29T08:20:07Z</time></trkpt><trkpt lat="44.049044832124125" lon="8.05850756700446"><ele>218.5</ele><time>2026-03-29T08:20:08Z</time></trkpt><trkpt lat="44.04892932581568" lon="8.058382122078056"><ele>221.25</ele><time>2026-03-29T08:20:09Z</time></trkpt><trkpt lat="44.048795690068324" lon="8.058264191675933"><ele>224.0</ele><time>2026-03-29T08:20:10Z</time></trkpt><trkpt lat="44.04867866951836" lon="8.058169102649414"><ele>224.0</ele><time>2026-03-29T08:20:11Z</time></trkpt><trkpt lat="44.04855043130862" lon="8.058059696093606"><ele>224.0</ele><time>2026-03-29T08:20:12Z</time></trkpt><trkpt lat="44.048455892057724" lon="8.057999180360802"><ele>224.0</ele><time>2026-03-29T08:20:13Z</time></trkpt><trkpt lat="44.04837135400689" lon="8.05794306111889"><ele>224.0</ele><time>2026-03-29T08:20:14Z</time></trkpt><trkpt lat="44.048341530086425" lon="8.05775094074525"><ele>231.25</ele><time>2026-03-29T08:20:16Z</time></trkpt><trkpt lat="44.048247172809035" lon="8.057602043235788"><ele>238.5</ele><time>2026-03-29T08:20:17Z</time></trkpt><trkpt lat="44.04817402610737" lon="8.057514811766987"><ele>245.75</ele><time>2026-03-29T08:20:18Z</time></trkpt><trkpt lat="44.04809139606642" lon="8.057405241491763"><ele>253.0</ele><time>2026-03-29T08:20:19Z</time></trkpt><trkpt lat="44.0479807720035" lon="8.057277912476204"><ele>253.0</ele><time>2026-03-29T08:20:20Z</time></trkpt><trkpt lat="44.047900116337196" lon="8.057134093966843"><ele>253.0</ele><time>2026-03-29T08:20:21Z</time></trkpt><trkpt lat="44.04783793796624" lon="8.057014013879453"><ele>253.0</ele><time>2026-03-29T08:20:22Z</time></trkpt><trkpt lat="44.04776826950853" lon="8.05694396907101"><ele>253.0</ele><time>2026-03-29T08:20:23Z</time></trkpt><trkpt lat="44.047706352729215" lon="8.056877728223212"><ele>253.0</ele><time>2026-03-29T08:20:24Z</time></trkpt><trkpt lat="44.047738589884794" lon="8.056740995358787"><ele>253.0</ele><time>2026-03-29T08:20:26Z</time></trkpt><trkpt lat="44.04780941942979" lon="8.056711649553712"><ele>253.0</ele><time>2026-03-29T08:20:27Z</time></trkpt><trkpt lat="44.04790545785862" lon="8.056727220385358"><ele>253.0</ele><time>2026-03-29T08:20:28Z</time></trkpt><trkpt lat="44.0480472066703" lon="8.056776244804558"><ele>253.0</ele><time>2026-03-29T08:20:29Z</time></trkpt><trkpt lat="44.04821262107059" lon="8.056822387497572"><ele>251.0</ele><time>2026-03-29T08:20:30Z</time></trkpt><trkpt lat="44.04832837505807" lon="8.056779538196603"><ele>249.0</ele><time>2026-03-29T08:20:31Z</time></trkpt><trkpt lat="44.0484598948707" lon="8.056710279600702"><ele>247.0</ele><time>2026-03-29T08:20:32Z</time></trkpt><trkpt lat="44.04862757129585" lon="8.0566501908853"><ele>245.0</ele><time>2026-03-29T08:20:33Z</time></trkpt><trkpt lat="44.04880086894769" lon="8.056576879477115"><ele>252.75</ele><time>2026-03-29T08:20:34Z</time></trkpt><trkpt lat="44.048943702982655" lon="8.056520320711847"><ele>260.5</ele><time>2026-03-29T08:20:35Z</time></trkpt><trkpt lat="44.04905473515591" lon="8.056485211566153"><ele>268.25</ele><time>2026-03-29T08:20:36Z</time></trkpt><trkpt lat="44.04916459486523" lon="8.056475227533152"><ele>276.0</ele><time>2026-03-29T08:20:37Z</time></trkpt><trkpt lat="44.049266264188454" lon="8.056461758972386"><ele>276.0</ele><time>2026-03-29T08:20:38Z</time></trkpt><trkpt lat="44.049278349807665" lon="8.056358576566288"><ele>276.0</ele><time>2026-03-29T08:20:40Z</time></trkpt><trkpt lat="44.04922444463422" lon="8.056312839448813"><ele>276.0</ele><time>2026-03-29T08:20:41Z</time></trkpt><trkpt lat="44.04913284254912" lon="8.056161013829668"><ele>276.0</ele><time>2026-03-29T08:20:43Z</time></trkpt><trkpt lat="44.04902613287072" lon="8.056071023327757"><ele>276.0</ele><time>2026-03-29T08:20:44Z</time></trkpt><trkpt lat="44.04897650105493" lon="8.05596121797307"><ele>276.0</ele><time>2026-03-29T08:20:46Z</time></trkpt><trkpt lat="44.049096568330675" lon="8.055949605424932"><ele>276.0</ele><time>2026-03-29T08:20:48Z</time></trkpt><trkpt lat="44.049133863872036" lon="8.055863028809913"><ele>276.0</ele><time>2026-03-29T08:20:51Z</time></trkpt><trkpt lat="44.049498034931574" lon="8.05577902533385"><ele>282.6</ele><time>2026-03-29T08:20:52Z</time></trkpt><trkpt lat="44.049623745176504" lon="8.055759332069895"><ele>289.20000000000005</ele><time>2026-03-29T08:20:53Z</time></trkpt><trkpt lat="44.04971784349353" lon="8.055729314788223"><ele>295.79999999999995</ele><time>2026-03-29T08:20:54Z</time></trkpt><trkpt lat="44.04979014130583" lon="8.055690232900096"><ele>302.4</ele><time>2026-03-29T08:20:55Z</time></trkpt><trkpt lat="44.04985596897518" lon="8.055564061583278"><ele>309.0</ele><time>2026-03-29T08:20:57Z</time></trkpt><trkpt lat="44.04978668165253" lon="8.055425719089778"><ele>309.0</ele><time>2026-03-29T08:20:59Z</time></trkpt><trkpt lat="44.04969301693935" lon="8.055387643996509"><ele>309.0</ele><time>2026-03-29T08:21:00Z</time></trkpt><trkpt lat="44.04960941384032" lon="8.055375727096424"><ele>309.0</ele><time>2026-03-29T08:21:01Z</time></trkpt><trkpt lat="44.04940426920608" lon="8.055327039104831"><ele>309.0</ele><time>2026-03-29T08:21:02Z</time></trkpt><trkpt lat="44.04924226618085" lon="8.055305482380273"><ele>310.75</ele><time>2026-03-29T08:21:03Z</time></trkpt><trkpt lat="44.04908030176724" lon="8.055291913279717"><ele>312.5</ele><time>2026-03-29T08:21:04Z</time></trkpt><trkpt lat="44.0489497513188" lon="8.05531235264199"><ele>314.25</ele><time>2026-03-29T08:21:05Z</time></trkpt><trkpt lat="44.048814720330505" lon="8.055350158764698"><ele>316.0</ele><time>2026-03-29T08:21:06Z</time></trkpt><trkpt lat="44.04867463290112" lon="8.055410262639377"><ele>316.0</ele><time>2026-03-29T08:21:07Z</time></trkpt><trkpt lat="44.048537499290944" lon="8.055479902430559"><ele>316.0</ele><time>2026-03-29T08:21:08Z</time></trkpt><trkpt lat="44.04840023477347" lon="8.055552660058105"><ele>316.0</ele><time>2026-03-29T08:21:09Z</time></trkpt><trkpt lat="44.04827047424588" lon="8.055601753598706"><ele>316.0</ele><time>2026-03-29T08:21:10Z</time></trkpt><trkpt lat="44.04815631016307" lon="8.055590051143811"><ele>311.3333333333333</ele><time>2026-03-29T08:21:11Z</time></trkpt><trkpt lat="44.048040421582286" lon="8.055505507841621"><ele>306.6666666666667</ele><time>2026-03-29T08:21:12Z</time></trkpt><trkpt lat="44.04781469138511" lon="8.055404943472293"><ele>302.0</ele><time>2026-03-29T08:21:13Z</time></trkpt><trkpt lat="44.04773682060638" lon="8.055324280995446"><ele>302.0</ele><time>2026-03-29T08:21:14Z</time></trkpt><trkpt lat="44.047665299265724" lon="8.055138870027486"><ele>302.0</ele><time>2026-03-29T08:21:15Z</time></trkpt><trkpt lat="44.04756056236905" lon="8.054984179641915"><ele>302.0</ele><time>2026-03-29T08:21:16Z</time></trkpt><trkpt lat="44.04747397594953" lon="8.054888535674072"><ele>302.0</ele><time>2026-03-29T08:21:17Z</time></trkpt><trkpt lat="44.047392263317086" lon="8.054856226204578"><ele>308.2</ele><time>2026-03-29T08:21:18Z</time></trkpt><trkpt lat="44.0473031568409" lon="8.054909435035531"><ele>314.4</ele><time>2026-03-29T08:21:19Z</time></trkpt><trkpt lat="44.047226970783406" lon="8.054896643160689"><ele>320.59999999999997</ele><time>2026-03-29T08:21:20Z</time></trkpt><trkpt lat="44.0471403417494" lon="8.05481021154273"><ele>326.79999999999995</ele><time>2026-03-29T08:21:21Z</time></trkpt><trkpt lat="44.04703803430578" lon="8.054780058519524"><ele>333.0</ele><time>2026-03-29T08:21:22Z</time></trkpt><trkpt lat="44.04688666161762" lon="8.054772863015623"><ele>333.0</ele><time>2026-03-29T08:21:23Z</time></trkpt><trkpt lat="44.046757397188834" lon="8.05469335904638"><ele>333.0</ele><time>2026-03-29T08:21:24Z</time></trkpt><trkpt lat="44.04660951165497" lon="8.054613964516523"><ele>333.0</ele><time>2026-03-29T08:21:25Z</time></trkpt><trkpt lat="44.046489251057544" lon="8.054554180008356"><ele>333.0</ele><time>2026-03-29T08:21:26Z</time></trkpt><trkpt lat="44.04641491549142" lon="8.05449269248284"><ele>336.4</ele><time>2026-03-29T08:21:27Z</time></trkpt><trkpt lat="44.04632266743903" lon="8.054458824335098"><ele>339.79999999999995</ele><time>2026-03-29T08:21:28Z</time></trkpt><trkpt lat="44.04625333194523" lon="8.054452104268375"><ele>343.2</ele><time>2026-03-29T08:21:29Z</time></trkpt><trkpt lat="44.04621158225341" lon="8.054592199467905"><ele>346.6</ele><time>2026-03-29T08:21:31Z</time></trkpt><trkpt lat="44.04622670458015" lon="8.05472523470154"><ele>350.0</ele><time>2026-03-29T08:21:32Z</time></trkpt><trkpt lat="44.04623158831738" lon="8.05486218275807"><ele>348.25</ele><time>2026-03-29T08:21:33Z</time></trkpt><trkpt lat="44.04622538632097" lon="8.05503188633459"><ele>346.5</ele><time>2026-03-29T08:21:34Z</time></trkpt><trkpt lat="44.046247233498164" lon="8.05523952941028"><ele>344.75</ele><time>2026-03-29T08:21:35Z</time></trkpt><trkpt lat="44.04624986686943" lon="8.05542793341718"><ele>343.0</ele><time>2026-03-29T08:21:36Z</time></trkpt><trkpt lat="44.04625362566048" lon="8.05556702458771"><ele>343.0</ele><time>2026-03-29T08:21:37Z</time></trkpt><trkpt lat="44.04619153850454" lon="8.055662300267059"><ele>343.0</ele><time>2026-03-29T08:21:39Z</time></trkpt><trkpt lat="44.046114335355114" lon="8.055759100899209"><ele>343.0</ele><time>2026-03-29T08:21:40Z</time></trkpt><trkpt lat="44.046018899017014" lon="8.055857197123231"><ele>343.0</ele><time>2026-03-29T08:21:41Z</time></trkpt><trkpt lat="44.04591356035457" lon="8.05596618877569"><ele>343.0</ele><time>2026-03-29T08:21:41.999Z</time></trkpt><trkpt lat="44.045806781017255" lon="8.056080004144276"><ele>346.75</ele><time>2026-03-29T08:21:42.999Z</time></trkpt><trkpt lat="44.04564678400373" lon="8.056065684598652"><ele>350.5</ele><time>2026-03-29T08:21:44.999Z</time></trkpt><trkpt lat="44.045545593327184" lon="8.056044310984062"><ele>354.25</ele><time>2026-03-29T08:21:45.999Z</time></trkpt><trkpt lat="44.045433328608794" lon="8.056051414016725"><ele>358.0</ele><time>2026-03-29T08:21:46.999Z</time></trkpt><trkpt lat="44.045354471217756" lon="8.05611356849303"><ele>358.0</ele><time>2026-03-29T08:21:47.999Z</time></trkpt><trkpt lat="44.045279547096676" lon="8.056218174197761"><ele>358.0</ele><time>2026-03-29T08:21:48.999Z</time></trkpt><trkpt lat="44.045309418060526" lon="8.056368835804419"><ele>358.0</ele><time>2026-03-29T08:21:49.999Z</time></trkpt><trkpt lat="44.045344070012206" lon="8.056549668357624"><ele>358.0</ele><time>2026-03-29T08:21:50.999Z</time></trkpt><trkpt lat="44.04534219722357" lon="8.056744768217852"><ele>354.75</ele><time>2026-03-29T08:21:51.999Z</time></trkpt><trkpt lat="44.04528336022607" lon="8.056848333508501"><ele>351.5</ele><time>2026-03-29T08:21:53Z</time></trkpt><trkpt lat="44.045170653615706" lon="8.056942981368993"><ele>348.25</ele><time>2026-03-29T08:21:54Z</time></trkpt><trkpt lat="44.04507752402927" lon="8.057044327178799"><ele>345.0</ele><time>2026-03-29T08:21:55Z</time></trkpt><trkpt lat="44.04501851782893" lon="8.057168858307692"><ele>345.0</ele><time>2026-03-29T08:21:56Z</time></trkpt><trkpt lat="44.04502302016794" lon="8.057256260429911"><ele>345.0</ele><time>2026-03-29T08:21:57Z</time></trkpt><trkpt lat="44.045033942693905" lon="8.057371802042551"><ele>345.0</ele><time>2026-03-29T08:21:58Z</time></trkpt><trkpt lat="44.04497888008362" lon="8.05751732374046"><ele>345.0</ele><time>2026-03-29T08:21:59Z</time></trkpt><trkpt lat="44.044959843208" lon="8.057699152090379"><ele>345.0</ele><time>2026-03-29T08:22:00Z</time></trkpt><trkpt lat="44.0450147119406" lon="8.057935070857264"><ele>345.75</ele><time>2026-03-29T08:22:01Z</time></trkpt><trkpt lat="44.045064086875364" lon="8.058108712380719"><ele>346.5</ele><time>2026-03-29T08:22:02Z</time></trkpt><trkpt lat="44.04515267360106" lon="8.058275142153555"><ele>347.25</ele><time>2026-03-29T08:22:03Z</time></trkpt><trkpt lat="44.045257445589826" lon="8.058426969001047"><ele>348.0</ele><time>2026-03-29T08:22:04Z</time></trkpt><trkpt lat="44.04533333892521" lon="8.05860488597938"><ele>350.2</ele><time>2026-03-29T08:22:05Z</time></trkpt><trkpt lat="44.04538129647904" lon="8.058764314473398"><ele>352.4</ele><time>2026-03-29T08:22:06Z</time></trkpt><trkpt lat="44.04537838401548" lon="8.058852992225445"><ele>354.59999999999997</ele><time>2026-03-29T08:22:07Z</time></trkpt><trkpt lat="44.045439128691775" lon="8.058953052347995"><ele>356.79999999999995</ele><time>2026-03-29T08:22:09Z</time></trkpt><trkpt lat="44.04547989120699" lon="8.059043586742945"><ele>359.0</ele><time>2026-03-29T08:22:10Z</time></trkpt><trkpt lat="44.045558487486026" lon="8.059161390311216"><ele>359.0</ele><time>2026-03-29T08:22:12Z</time></trkpt><trkpt lat="44.04553826341105" lon="8.059251822858368"><ele>359.0</ele><time>2026-03-29T08:22:15Z</time></trkpt><trkpt lat="44.04545358532653" lon="8.059141647537418"><ele>359.0</ele><time>2026-03-29T08:22:17Z</time></trkpt><trkpt lat="44.045391686195984" lon="8.05903957871507"><ele>359.0</ele><time>2026-03-29T08:22:18Z</time></trkpt><trkpt lat="44.04533102395697" lon="8.058945795479437"><ele>359.0</ele><time>2026-03-29T08:22:19Z</time></trkpt><trkpt lat="44.045273142141696" lon="8.05886548679156"><ele>359.0</ele><time>2026-03-29T08:22:20Z</time></trkpt><trkpt lat="44.0452367642047" lon="8.058772332428642"><ele>359.0</ele><time>2026-03-29T08:22:21Z</time></trkpt><trkpt lat="44.04520372117131" lon="8.058679546480732"><ele>359.0</ele><time>2026-03-29T08:22:22Z</time></trkpt><trkpt lat="44.045151389346394" lon="8.05858408742926"><ele>359.0</ele><time>2026-03-29T08:22:23Z</time></trkpt><trkpt lat="44.04508933650568" lon="8.058520036153485"><ele>359.0</ele><time>2026-03-29T08:22:24Z</time></trkpt><trkpt lat="44.0450248022354" lon="8.058564222283916"><ele>359.0</ele><time>2026-03-29T08:22:26Z</time></trkpt><trkpt lat="44.045077763766024" lon="8.058713985088575"><ele>359.0</ele><time>2026-03-29T08:22:28Z</time></trkpt><trkpt lat="44.04498017031952" lon="8.058632582247885"><ele>359.0</ele><time>2026-03-29T08:22:32Z</time></trkpt><trkpt lat="44.04492407931447" lon="8.058469107233966"><ele>359.0</ele><time>2026-03-29T08:22:34Z</time></trkpt><trkpt lat="44.04487963807831" lon="8.058400810916995"><ele>359.0</ele><time>2026-03-29T08:22:35Z</time></trkpt><trkpt lat="44.04485216687058" lon="8.0583165618149"><ele>359.0</ele><time>2026-03-29T08:22:36Z</time></trkpt><trkpt lat="44.04477205343569" lon="8.058278858119447"><ele>361.0</ele><time>2026-03-29T08:22:37Z</time></trkpt><trkpt lat="44.04471074001617" lon="8.058218804639356"><ele>363.0</ele><time>2026-03-29T08:22:38Z</time></trkpt><trkpt lat="44.0446501647244" lon="8.058171214599732"><ele>365.0</ele><time>2026-03-29T08:22:39Z</time></trkpt><trkpt lat="44.04458576327215" lon="8.058124359481504"><ele>367.0</ele><time>2026-03-29T08:22:40Z</time></trkpt><trkpt lat="44.044525563068575" lon="8.058074972439496"><ele>369.0</ele><time>2026-03-29T08:22:41Z</time></trkpt><trkpt lat="44.04442866055671" lon="8.057967307311346"><ele>371.0</ele><time>2026-03-29T08:22:43Z</time></trkpt><trkpt lat="44.04438891856613" lon="8.057881851126202"><ele>371.0</ele><time>2026-03-29T08:22:44Z</time></trkpt><trkpt lat="44.04436772840153" lon="8.057795917546265"><ele>371.0</ele><time>2026-03-29T08:22:45Z</time></trkpt><trkpt lat="44.04430614472576" lon="8.057635466856071"><ele>371.0</ele><time>2026-03-29T08:22:47Z</time></trkpt><trkpt lat="44.04426057382404" lon="8.057556915313592"><ele>371.0</ele><time>2026-03-29T08:22:48Z</time></trkpt><trkpt lat="44.04422886041989" lon="8.057465098243618"><ele>371.0</ele><time>2026-03-29T08:22:49Z</time></trkpt><trkpt lat="44.04420358717836" lon="8.057368542814386"><ele>371.0</ele><time>2026-03-29T08:22:50Z</time></trkpt><trkpt lat="44.044180934732566" lon="8.057271258403153"><ele>372.85714285714283</ele><time>2026-03-29T08:22:51Z</time></trkpt><trkpt lat="44.04415460808188" lon="8.057177143235661"><ele>374.7142857142857</ele><time>2026-03-29T08:22:52Z</time></trkpt><trkpt lat="44.044134580449494" lon="8.057089009148369"><ele>376.57142857142856</ele><time>2026-03-29T08:22:53Z</time></trkpt><trkpt lat="44.0441077730716" lon="8.057000049763614"><ele>378.42857142857144</ele><time>2026-03-29T08:22:54Z</time></trkpt><trkpt lat="44.04410365508803" lon="8.056903317087837"><ele>380.2857142857143</ele><time>2026-03-29T08:22:55Z</time></trkpt><trkpt lat="44.044098926354714" lon="8.056798198935871"><ele>382.1428571428571</ele><time>2026-03-29T08:22:56Z</time></trkpt><trkpt lat="44.044101133633134" lon="8.056690677287273"><ele>384.0</ele><time>2026-03-29T08:22:57Z</time></trkpt><trkpt lat="44.04411640400843" lon="8.056598890129376"><ele>387.0</ele><time>2026-03-29T08:22:58Z</time></trkpt><trkpt lat="44.04414410882595" lon="8.056507376202225"><ele>390.0</ele><time>2026-03-29T08:22:59Z</time></trkpt><trkpt lat="44.0441862079788" lon="8.056441946387654"><ele>393.0</ele><time>2026-03-29T08:23:00Z</time></trkpt><trkpt lat="44.0442581590758" lon="8.056309404516599"><ele>396.0</ele><time>2026-03-29T08:23:02Z</time></trkpt><trkpt lat="44.04417353557429" lon="8.05625822649146"><ele>399.0</ele><time>2026-03-29T08:23:04Z</time></trkpt><trkpt lat="44.04407429267288" lon="8.05642821445608"><ele>400.0</ele><time>2026-03-29T08:23:06Z</time></trkpt><trkpt lat="44.04402608839323" lon="8.05648745531749"><ele>401.0</ele><time>2026-03-29T08:23:07Z</time></trkpt><trkpt lat="44.04398030730914" lon="8.056585553779025"><ele>402.0</ele><time>2026-03-29T08:23:08Z</time></trkpt><trkpt lat="44.043944719996034" lon="8.0566790831714"><ele>403.0</ele><time>2026-03-29T08:23:09Z</time></trkpt><trkpt lat="44.04391387231466" lon="8.05676813162059"><ele>404.0</ele><time>2026-03-29T08:23:10Z</time></trkpt><trkpt lat="44.04387148906218" lon="8.056835970032289"><ele>405.0</ele><time>2026-03-29T08:23:11Z</time></trkpt><trkpt lat="44.04374303016788" lon="8.056850315925528"><ele>405.0</ele><time>2026-03-29T08:23:13Z</time></trkpt><trkpt lat="44.0436772683116" lon="8.056797707960447"><ele>405.0</ele><time>2026-03-29T08:23:14Z</time></trkpt><trkpt lat="44.04362902666296" lon="8.056720473898265"><ele>405.0</ele><time>2026-03-29T08:23:15Z</time></trkpt><trkpt lat="44.04358395056929" lon="8.056656065778126"><ele>405.0</ele><time>2026-03-29T08:23:16Z</time></trkpt><trkpt lat="44.04353397231758" lon="8.056590343607947"><ele>405.0</ele><time>2026-03-29T08:23:17Z</time></trkpt><trkpt lat="44.043434202519705" lon="8.056470134518657"><ele>405.0</ele><time>2026-03-29T08:23:19Z</time></trkpt><trkpt lat="44.04338131721113" lon="8.056419511203844"><ele>405.0</ele><time>2026-03-29T08:23:20Z</time></trkpt><trkpt lat="44.043328338901844" lon="8.05636245103696"><ele>405.0</ele><time>2026-03-29T08:23:21Z</time></trkpt><trkpt lat="44.04323709703514" lon="8.056286175355433"><ele>405.0</ele><time>2026-03-29T08:23:23Z</time></trkpt><trkpt lat="44.043139286745586" lon="8.056254418355905"><ele>405.0</ele><time>2026-03-29T08:23:25Z</time></trkpt><trkpt lat="44.04307468044502" lon="8.056271340783553"><ele>405.0</ele><time>2026-03-29T08:23:26Z</time></trkpt><trkpt lat="44.0430087433216" lon="8.05617244249412"><ele>405.0</ele><time>2026-03-29T08:23:28Z</time></trkpt><trkpt lat="44.04302873280573" lon="8.05601608103001"><ele>400.8</ele><time>2026-03-29T08:23:30Z</time></trkpt><trkpt lat="44.0431046416791" lon="8.05592087019283"><ele>396.6</ele><time>2026-03-29T08:23:33Z</time></trkpt><trkpt lat="44.04321524368683" lon="8.05584559895553"><ele>392.4</ele><time>2026-03-29T08:23:35Z</time></trkpt><trkpt lat="44.043232176779085" lon="8.055680973102026"><ele>388.2</ele><time>2026-03-29T08:23:37Z</time></trkpt><trkpt lat="44.04328637192287" lon="8.055592834204374"><ele>384.0</ele><time>2026-03-29T08:23:39Z</time></trkpt><trkpt lat="44.043289545841446" lon="8.055704624940764"><ele>382.79999999999995</ele><time>2026-03-29T08:23:42Z</time></trkpt><trkpt lat="44.04327794533582" lon="8.055799676016228"><ele>381.59999999999997</ele><time>2026-03-29T08:23:43Z</time></trkpt><trkpt lat="44.0432803706171" lon="8.055894789649036"><ele>380.4</ele><time>2026-03-29T08:23:44Z</time></trkpt><trkpt lat="44.04335628521014" lon="8.056034116211967"><ele>379.2</ele><time>2026-03-29T08:23:46Z</time></trkpt><trkpt lat="44.043476085898796" lon="8.056056651806514"><ele>378.0</ele><time>2026-03-29T08:23:48Z</time></trkpt><trkpt lat="44.04355269166871" lon="8.056049760808044"><ele>383.4</ele><time>2026-03-29T08:23:49Z</time></trkpt><trkpt lat="44.04365916360134" lon="8.056033733094328"><ele>388.79999999999995</ele><time>2026-03-29T08:23:51Z</time></trkpt><trkpt lat="44.04372309470281" lon="8.055910006692395"><ele>394.2</ele><time>2026-03-29T08:23:52.999Z</time></trkpt><trkpt lat="44.043697974568246" lon="8.055793908622588"><ele>399.6</ele><time>2026-03-29T08:23:53.999Z</time></trkpt><trkpt lat="44.04373488518985" lon="8.055699942579325"><ele>405.0</ele><time>2026-03-29T08:23:54.999Z</time></trkpt><trkpt lat="44.0437430899981" lon="8.055592558057855"><ele>405.5</ele><time>2026-03-29T08:23:55.999Z</time></trkpt><trkpt lat="44.043750649788656" lon="8.055492330583395"><ele>406.0</ele><time>2026-03-29T08:23:56.999Z</time></trkpt><trkpt lat="44.04375731611855" lon="8.055397195869393"><ele>406.5</ele><time>2026-03-29T08:23:57.999Z</time></trkpt><trkpt lat="44.04376421834587" lon="8.05529869460592"><ele>407.0</ele><time>2026-03-29T08:23:59Z</time></trkpt><trkpt lat="44.04377104079219" lon="8.055205108303255"><ele>407.5</ele><time>2026-03-29T08:24:00Z</time></trkpt><trkpt lat="44.04379505730603" lon="8.055036932157384"><ele>408.0</ele><time>2026-03-29T08:24:02Z</time></trkpt><trkpt lat="44.043859567271824" lon="8.054996153893043"><ele>409.0</ele><time>2026-03-29T08:24:03Z</time></trkpt><trkpt lat="44.04391279213246" lon="8.054932862937068"><ele>410.0</ele><time>2026-03-29T08:24:04Z</time></trkpt><trkpt lat="44.0439867748858" lon="8.054788568453576"><ele>411.0</ele><time>2026-03-29T08:24:06Z</time></trkpt><trkpt lat="44.04395310878399" lon="8.054674611777955"><ele>412.0</ele><time>2026-03-29T08:24:07Z</time></trkpt><trkpt lat="44.04403595733657" lon="8.054537623670528"><ele>413.0</ele><time>2026-03-29T08:24:09Z</time></trkpt><trkpt lat="44.04398356057594" lon="8.054158004559005"><ele>415.75</ele><time>2026-03-29T08:24:10Z</time></trkpt><trkpt lat="44.04411586327502" lon="8.054026680997739"><ele>418.5</ele><time>2026-03-29T08:24:11Z</time></trkpt><trkpt lat="44.04419544875104" lon="8.053947684545326"><ele>421.25</ele><time>2026-03-29T08:24:12Z</time></trkpt><trkpt lat="44.04410077973822" lon="8.053979789207283"><ele>424.0</ele><time>2026-03-29T08:24:14Z</time></trkpt><trkpt lat="44.0443634310059" lon="8.05400200808351"><ele>427.25</ele><time>2026-03-29T08:24:15Z</time></trkpt><trkpt lat="44.04438912175593" lon="8.053793293248253"><ele>430.5</ele><time>2026-03-29T08:24:16Z</time></trkpt><trkpt lat="44.04439561389585" lon="8.053584616933108"><ele>433.75</ele><time>2026-03-29T08:24:17Z</time></trkpt><trkpt lat="44.044359529034736" lon="8.053440764321625"><ele>437.0</ele><time>2026-03-29T08:24:18Z</time></trkpt><trkpt lat="44.044343066898556" lon="8.053302874261268"><ele>440.0</ele><time>2026-03-29T08:24:19Z</time></trkpt><trkpt lat="44.04436165390408" lon="8.053129029172682"><ele>443.0</ele><time>2026-03-29T08:24:20Z</time></trkpt><trkpt lat="44.04440485715845" lon="8.052905161938549"><ele>446.0</ele><time>2026-03-29T08:24:21Z</time></trkpt><trkpt lat="44.04441924918067" lon="8.052751104528081"><ele>449.0</ele><time>2026-03-29T08:24:22Z</time></trkpt><trkpt lat="44.0444928923374" lon="8.05264818735896"><ele>449.0</ele><time>2026-03-29T08:24:23Z</time></trkpt><trkpt lat="44.04455269366683" lon="8.052514682681345"><ele>449.0</ele><time>2026-03-29T08:24:24Z</time></trkpt><trkpt lat="44.04464958929735" lon="8.052453077870545"><ele>449.0</ele><time>2026-03-29T08:24:25Z</time></trkpt><trkpt lat="44.04471755511676" lon="8.052449804623906"><ele>449.0</ele><time>2026-03-29T08:24:26Z</time></trkpt><trkpt lat="44.04473317091552" lon="8.052357981185203"><ele>449.0</ele><time>2026-03-29T08:24:27Z</time></trkpt><trkpt lat="44.044771828506825" lon="8.052196219242399"><ele>448.8333333333333</ele><time>2026-03-29T08:24:28Z</time></trkpt><trkpt lat="44.044832135867715" lon="8.052108361579236"><ele>448.66666666666663</ele><time>2026-03-29T08:24:29Z</time></trkpt><trkpt lat="44.04493037181074" lon="8.0521299987061"><ele>448.5</ele><time>2026-03-29T08:24:30Z</time></trkpt><trkpt lat="44.04500071096908" lon="8.052163402591642"><ele>448.33333333333337</ele><time>2026-03-29T08:24:31Z</time></trkpt><trkpt lat="44.04508874382564" lon="8.052228374933957"><ele>448.1666666666667</ele><time>2026-03-29T08:24:32Z</time></trkpt><trkpt lat="44.04516644077189" lon="8.052220603584015"><ele>448.0</ele><time>2026-03-29T08:24:33Z</time></trkpt><trkpt lat="44.04528205208804" lon="8.052190382302568"><ele>448.0</ele><time>2026-03-29T08:24:34Z</time></trkpt><trkpt lat="44.045425239195275" lon="8.05218041927805"><ele>448.0</ele><time>2026-03-29T08:24:35Z</time></trkpt><trkpt lat="44.045491740633494" lon="8.05210475694125"><ele>448.0</ele><time>2026-03-29T08:24:37Z</time></trkpt><trkpt lat="44.04549663410039" lon="8.051888595637962"><ele>448.0</ele><time>2026-03-29T08:24:39Z</time></trkpt><trkpt lat="44.045507382531916" lon="8.051780248664844"><ele>448.0</ele><time>2026-03-29T08:24:41Z</time></trkpt><trkpt lat="44.0455800990187" lon="8.051808548151977"><ele>448.0</ele><time>2026-03-29T08:24:42Z</time></trkpt><trkpt lat="44.04566852986755" lon="8.05185719291216"><ele>448.0</ele><time>2026-03-29T08:24:43Z</time></trkpt><trkpt lat="44.0457982886907" lon="8.051891258382089"><ele>448.0</ele><time>2026-03-29T08:24:44Z</time></trkpt><trkpt lat="44.045970847713846" lon="8.051879994678128"><ele>443.75</ele><time>2026-03-29T08:24:45Z</time></trkpt><trkpt lat="44.04613907880461" lon="8.051893629435488"><ele>439.5</ele><time>2026-03-29T08:24:46Z</time></trkpt><trkpt lat="44.04626767508989" lon="8.051945716471414"><ele>435.25</ele><time>2026-03-29T08:24:47Z</time></trkpt><trkpt lat="44.04639302079667" lon="8.051874586257824"><ele>431.0</ele><time>2026-03-29T08:24:49Z</time></trkpt><trkpt lat="44.04648398312972" lon="8.05177346050021"><ele>431.0</ele><time>2026-03-29T08:24:50Z</time></trkpt><trkpt lat="44.04654146049783" lon="8.051672312440894"><ele>431.0</ele><time>2026-03-29T08:24:51Z</time></trkpt><trkpt lat="44.04655191537014" lon="8.05157577891685"><ele>431.0</ele><time>2026-03-29T08:24:52Z</time></trkpt><trkpt lat="44.046544828370514" lon="8.05139897202712"><ele>431.0</ele><time>2026-03-29T08:24:53Z</time></trkpt><trkpt lat="44.04655587565945" lon="8.051236660251625"><ele>431.0</ele><time>2026-03-29T08:24:54Z</time></trkpt><trkpt lat="44.046508942575535" lon="8.051132788870888"><ele>432.8</ele><time>2026-03-29T08:24:56Z</time></trkpt><trkpt lat="44.04645540191995" lon="8.05105594576133"><ele>434.6</ele><time>2026-03-29T08:24:57Z</time></trkpt><trkpt lat="44.0463906652509" lon="8.05091719921142"><ele>436.4</ele><time>2026-03-29T08:24:58Z</time></trkpt><trkpt lat="44.046363777986315" lon="8.050750371756353"><ele>438.2</ele><time>2026-03-29T08:24:59Z</time></trkpt><trkpt lat="44.04636740365537" lon="8.050589972787703"><ele>440.0</ele><time>2026-03-29T08:25:00Z</time></trkpt><trkpt lat="44.04632793303446" lon="8.050509942250601"><ele>434.75</ele><time>2026-03-29T08:25:01Z</time></trkpt><trkpt lat="44.046262264706485" lon="8.05044397564914"><ele>429.5</ele><time>2026-03-29T08:25:02Z</time></trkpt><trkpt lat="44.04615222093802" lon="8.050349457210599"><ele>424.25</ele><time>2026-03-29T08:25:03Z</time></trkpt><trkpt lat="44.04600579060659" lon="8.050216104256409"><ele>419.0</ele><time>2026-03-29T08:25:04Z</time></trkpt><trkpt lat="44.04588060199693" lon="8.050139390417455"><ele>420.0</ele><time>2026-03-29T08:25:05Z</time></trkpt><trkpt lat="44.04579413562462" lon="8.050049361986876"><ele>421.0</ele><time>2026-03-29T08:25:06Z</time></trkpt><trkpt lat="44.0457349666862" lon="8.049948513475103"><ele>422.0</ele><time>2026-03-29T08:25:07Z</time></trkpt><trkpt lat="44.045635880409556" lon="8.049895893181597"><ele>423.0</ele><time>2026-03-29T08:25:08Z</time></trkpt><trkpt lat="44.04549978068416" lon="8.049894874392951"><ele>424.0</ele><time>2026-03-29T08:25:09Z</time></trkpt><trkpt lat="44.045361231799" lon="8.049827862122283"><ele>424.0</ele><time>2026-03-29T08:25:10Z</time></trkpt><trkpt lat="44.04525940884565" lon="8.049762898545175"><ele>424.0</ele><time>2026-03-29T08:25:11Z</time></trkpt><trkpt lat="44.045181096408776" lon="8.049683100658132"><ele>424.0</ele><time>2026-03-29T08:25:12Z</time></trkpt><trkpt lat="44.04513431540571" lon="8.049539737700275"><ele>424.0</ele><time>2026-03-29T08:25:13Z</time></trkpt><trkpt lat="44.045095601971504" lon="8.049412225997557"><ele>424.0</ele><time>2026-03-29T08:25:14Z</time></trkpt><trkpt lat="44.04507140676395" lon="8.049280322157927"><ele>424.0</ele><time>2026-03-29T08:25:15Z</time></trkpt><trkpt lat="44.04505082878896" lon="8.049146825210103"><ele>424.0</ele><time>2026-03-29T08:25:16Z</time></trkpt><trkpt lat="44.04497384139682" lon="8.049032279083294"><ele>424.0</ele><time>2026-03-29T08:25:17Z</time></trkpt><trkpt lat="44.04493183540985" lon="8.048905652505143"><ele>424.0</ele><time>2026-03-29T08:25:18Z</time></trkpt><trkpt lat="44.044846651537156" lon="8.048785190008052"><ele>424.0</ele><time>2026-03-29T08:25:20Z</time></trkpt><trkpt lat="44.044734878343725" lon="8.04877889170763"><ele>425.25</ele><time>2026-03-29T08:25:21Z</time></trkpt><trkpt lat="44.044568479803246" lon="8.048767083213836"><ele>426.5</ele><time>2026-03-29T08:25:22Z</time></trkpt><trkpt lat="44.044402024605056" lon="8.048726222866813"><ele>427.75</ele><time>2026-03-29T08:25:23Z</time></trkpt><trkpt lat="44.04430743610474" lon="8.048714232133483"><ele>429.0</ele><time>2026-03-29T08:25:24Z</time></trkpt><trkpt lat="44.04423170793158" lon="8.048711584207272"><ele>429.0</ele><time>2026-03-29T08:25:25Z</time></trkpt><trkpt lat="44.04422420737072" lon="8.048571093093233"><ele>429.0</ele><time>2026-03-29T08:25:27Z</time></trkpt><trkpt lat="44.044250057905195" lon="8.04840659782168"><ele>429.0</ele><time>2026-03-29T08:25:28Z</time></trkpt><trkpt lat="44.04427594591589" lon="8.048239071192636"><ele>429.0</ele><time>2026-03-29T08:25:29Z</time></trkpt><trkpt lat="44.044268674093196" lon="8.048094844518621"><ele>429.0</ele><time>2026-03-29T08:25:31Z</time></trkpt><trkpt lat="44.0442043275136" lon="8.048036783473503"><ele>434.6</ele><time>2026-03-29T08:25:33Z</time></trkpt><trkpt lat="44.044101795749825" lon="8.048025366819923"><ele>440.2</ele><time>2026-03-29T08:25:34Z</time></trkpt><trkpt lat="44.044040033626146" lon="8.047979262121011"><ele>445.80000000000007</ele><time>2026-03-29T08:25:35Z</time></trkpt><trkpt lat="44.04399819358264" lon="8.047874111760484"><ele>451.40000000000003</ele><time>2026-03-29T08:25:36Z</time></trkpt><trkpt lat="44.04394212685943" lon="8.047816349909453"><ele>457.0</ele><time>2026-03-29T08:25:37Z</time></trkpt><trkpt lat="44.04386903407955" lon="8.047613751854735"><ele>457.0</ele><time>2026-03-29T08:25:39Z</time></trkpt><trkpt lat="44.04386082077314" lon="8.047521589897178"><ele>457.00000000000006</ele><time>2026-03-29T08:25:40Z</time></trkpt><trkpt lat="44.043894833685584" lon="8.04737356071889"><ele>457.00000000000006</ele><time>2026-03-29T08:25:41Z</time></trkpt><trkpt lat="44.04396235961175" lon="8.047224640324742"><ele>457.0</ele><time>2026-03-29T08:25:42Z</time></trkpt><trkpt lat="44.04390263709115" lon="8.047048578053774"><ele>457.0</ele><time>2026-03-29T08:25:44Z</time></trkpt><trkpt lat="44.0438702270676" lon="8.046894118405266"><ele>453.0</ele><time>2026-03-29T08:25:45Z</time></trkpt><trkpt lat="44.04384657621921" lon="8.046730556886097"><ele>449.0</ele><time>2026-03-29T08:25:47Z</time></trkpt><trkpt lat="44.0438008203881" lon="8.04659252473234"><ele>445.0</ele><time>2026-03-29T08:25:48Z</time></trkpt><trkpt lat="44.04374247834653" lon="8.046414910499271"><ele>441.0</ele><time>2026-03-29T08:25:49Z</time></trkpt><trkpt lat="44.043694058833985" lon="8.046298378711562"><ele>436.0</ele><time>2026-03-29T08:25:50Z</time></trkpt><trkpt lat="44.04365639834526" lon="8.046156849652997"><ele>431.0</ele><time>2026-03-29T08:25:51Z</time></trkpt><trkpt lat="44.04363655575996" lon="8.046040163149192"><ele>426.0</ele><time>2026-03-29T08:25:52Z</time></trkpt><trkpt lat="44.04350836131425" lon="8.045956447735376"><ele>421.0</ele><time>2026-03-29T08:25:53.999Z</time></trkpt><trkpt lat="44.04346357981709" lon="8.045872448847513"><ele>416.0</ele><time>2026-03-29T08:25:54.999Z</time></trkpt><trkpt lat="44.04345396752701" lon="8.045754206113104"><ele>411.75</ele><time>2026-03-29T08:25:55.999Z</time></trkpt><trkpt lat="44.04342658243072" lon="8.04559404282382"><ele>407.5</ele><time>2026-03-29T08:25:56.999Z</time></trkpt><trkpt lat="44.043459828603325" lon="8.045399516135058"><ele>403.25</ele><time>2026-03-29T08:25:57.999Z</time></trkpt><trkpt lat="44.04347196772377" lon="8.04519078847807"><ele>399.0</ele><time>2026-03-29T08:25:58.999Z</time></trkpt><trkpt lat="44.04342615000354" lon="8.045055710364773"><ele>399.6</ele><time>2026-03-29T08:25:59.999Z</time></trkpt><trkpt lat="44.043395101043686" lon="8.044946672725597"><ele>400.2</ele><time>2026-03-29T08:26:00.999Z</time></trkpt><trkpt lat="44.043320740454014" lon="8.044828328258106"><ele>400.8</ele><time>2026-03-29T08:26:01.999Z</time></trkpt><trkpt lat="44.043269273321634" lon="8.044667244464483"><ele>401.40000000000003</ele><time>2026-03-29T08:26:02.999Z</time></trkpt><trkpt lat="44.04318654773362" lon="8.044537697250222"><ele>402.0</ele><time>2026-03-29T08:26:03.999Z</time></trkpt><trkpt lat="44.043146265774396" lon="8.044463616208871"><ele>409.8</ele><time>2026-03-29T08:26:05Z</time></trkpt><trkpt lat="44.043059914202985" lon="8.044402594183998"><ele>417.6</ele><time>2026-03-29T08:26:06Z</time></trkpt><trkpt lat="44.043011781707406" lon="8.044277683411856"><ele>425.40000000000003</ele><time>2026-03-29T08:26:08Z</time></trkpt><trkpt lat="44.04307344967038" lon="8.044182511566165"><ele>433.20000000000005</ele><time>2026-03-29T08:26:10Z</time></trkpt><trkpt lat="44.04316706180792" lon="8.044128546942162"><ele>441.0</ele><time>2026-03-29T08:26:11Z</time></trkpt><trkpt lat="44.043293433125925" lon="8.044135360520144"><ele>439.20000000000005</ele><time>2026-03-29T08:26:12Z</time></trkpt><trkpt lat="44.04339145100652" lon="8.044127416694218"><ele>437.40000000000003</ele><time>2026-03-29T08:26:13Z</time></trkpt><trkpt lat="44.04346373473201" lon="8.044046902950894"><ele>435.6</ele><time>2026-03-29T08:26:14Z</time></trkpt><trkpt lat="44.043497610565296" lon="8.043950259711087"><ele>433.8</ele><time>2026-03-29T08:26:15Z</time></trkpt><trkpt lat="44.04350770710882" lon="8.043853776559587"><ele>432.0</ele><time>2026-03-29T08:26:16Z</time></trkpt><trkpt lat="44.04362120696303" lon="8.043745273806497"><ele>432.0</ele><time>2026-03-29T08:26:18Z</time></trkpt><trkpt lat="44.043758286884774" lon="8.043759142363328"><ele>432.0</ele><time>2026-03-29T08:26:19Z</time></trkpt><trkpt lat="44.04386343346089" lon="8.043755639027063"><ele>432.0</ele><time>2026-03-29T08:26:20Z</time></trkpt><trkpt lat="44.0440016903949" lon="8.04370711777369"><ele>432.0</ele><time>2026-03-29T08:26:22Z</time></trkpt><trkpt lat="44.04409258528139" lon="8.043719782053637"><ele>427.25</ele><time>2026-03-29T08:26:23Z</time></trkpt><trkpt lat="44.04418540514364" lon="8.043688979805376"><ele>422.5</ele><time>2026-03-29T08:26:25Z</time></trkpt><trkpt lat="44.0443308478755" lon="8.043651438690793"><ele>417.75</ele><time>2026-03-29T08:26:27Z</time></trkpt><trkpt lat="44.04444824534143" lon="8.04361690390819"><ele>413.0</ele><time>2026-03-29T08:26:28Z</time></trkpt><trkpt lat="44.04454614984304" lon="8.043476359677634"><ele>413.0</ele><time>2026-03-29T08:26:30Z</time></trkpt><trkpt lat="44.04464161350056" lon="8.04338627405333"><ele>413.0</ele><time>2026-03-29T08:26:31Z</time></trkpt><trkpt lat="44.04474325064723" lon="8.04337844675074"><ele>413.0</ele><time>2026-03-29T08:26:32Z</time></trkpt><trkpt lat="44.04482350354351" lon="8.043395941510536"><ele>413.0</ele><time>2026-03-29T08:26:33Z</time></trkpt><trkpt lat="44.044957416439765" lon="8.043438829074644"><ele>413.0</ele><time>2026-03-29T08:26:34Z</time></trkpt><trkpt lat="44.04507293588339" lon="8.043435670947575"><ele>410.59999999999997</ele><time>2026-03-29T08:26:35Z</time></trkpt><trkpt lat="44.04515474350219" lon="8.043425608385927"><ele>408.2</ele><time>2026-03-29T08:26:36Z</time></trkpt><trkpt lat="44.045250436628656" lon="8.043388744223872"><ele>405.8</ele><time>2026-03-29T08:26:37Z</time></trkpt><trkpt lat="44.04535991721361" lon="8.043398614354041"><ele>403.4</ele><time>2026-03-29T08:26:38Z</time></trkpt><trkpt lat="44.04548787472813" lon="8.043444606108665"><ele>401.0</ele><time>2026-03-29T08:26:39Z</time></trkpt><trkpt lat="44.04557383497064" lon="8.043488689757629"><ele>401.0</ele><time>2026-03-29T08:26:40Z</time></trkpt><trkpt lat="44.045670693042155" lon="8.04360950709976"><ele>401.0</ele><time>2026-03-29T08:26:42Z</time></trkpt><trkpt lat="44.04574601944498" lon="8.043598246868607"><ele>401.0</ele><time>2026-03-29T08:26:43Z</time></trkpt><trkpt lat="44.04580324331512" lon="8.04355422945571"><ele>401.0</ele><time>2026-03-29T08:26:44Z</time></trkpt><trkpt lat="44.04580457878531" lon="8.043349978239172"><ele>401.0</ele><time>2026-03-29T08:26:46Z</time></trkpt><trkpt lat="44.045812519581936" lon="8.04321286146268"><ele>399.20000000000005</ele><time>2026-03-29T08:26:47Z</time></trkpt><trkpt lat="44.04586605865789" lon="8.043104831600775"><ele>397.40000000000003</ele><time>2026-03-29T08:26:48Z</time></trkpt><trkpt lat="44.045965918753566" lon="8.042983038014476"><ele>395.6</ele><time>2026-03-29T08:26:49Z</time></trkpt><trkpt lat="44.04606573332242" lon="8.042947559899176"><ele>393.8</ele><time>2026-03-29T08:26:50Z</time></trkpt><trkpt lat="44.04616780709479" lon="8.04295712071824"><ele>392.0</ele><time>2026-03-29T08:26:51Z</time></trkpt><trkpt lat="44.04625827503841" lon="8.042900803270545"><ele>391.99999999999994</ele><time>2026-03-29T08:26:52Z</time></trkpt><trkpt lat="44.046334477889104" lon="8.042826249545582"><ele>392.0</ele><time>2026-03-29T08:26:53Z</time></trkpt><trkpt lat="44.04638039278562" lon="8.042760599859978"><ele>392.0</ele><time>2026-03-29T08:26:54Z</time></trkpt><trkpt lat="44.04630901181619" lon="8.042686292574677"><ele>392.0</ele><time>2026-03-29T08:26:57Z</time></trkpt><trkpt lat="44.046209887931376" lon="8.042648503300233"><ele>391.99999999999994</ele><time>2026-03-29T08:26:58Z</time></trkpt><trkpt lat="44.04613256679733" lon="8.042577577958731"><ele>392.0</ele><time>2026-03-29T08:26:59Z</time></trkpt><trkpt lat="44.046089782358074" lon="8.042502017603432"><ele>388.0</ele><time>2026-03-29T08:27:00Z</time></trkpt><trkpt lat="44.04606942342464" lon="8.042316399281306"><ele>384.0</ele><time>2026-03-29T08:27:02Z</time></trkpt><trkpt lat="44.04604517439844" lon="8.042155204669216"><ele>380.0</ele><time>2026-03-29T08:27:03Z</time></trkpt><trkpt lat="44.04602933400597" lon="8.041980910639289"><ele>376.0</ele><time>2026-03-29T08:27:04Z</time></trkpt><trkpt lat="44.045998834545884" lon="8.041888346244521"><ele>376.0</ele><time>2026-03-29T08:27:05Z</time></trkpt><trkpt lat="44.045971682634786" lon="8.041765095759414"><ele>376.0</ele><time>2026-03-29T08:27:06Z</time></trkpt><trkpt lat="44.04595849543641" lon="8.041634585758226"><ele>376.0</ele><time>2026-03-29T08:27:07Z</time></trkpt><trkpt lat="44.04595043548686" lon="8.041501683493578"><ele>376.0</ele><time>2026-03-29T08:27:08Z</time></trkpt><trkpt lat="44.0458919491204" lon="8.041419231935926"><ele>376.0</ele><time>2026-03-29T08:27:09Z</time></trkpt><trkpt lat="44.04579982677943" lon="8.041388886042553"><ele>374.5</ele><time>2026-03-29T08:27:10Z</time></trkpt><trkpt lat="44.04570990358645" lon="8.041395550341932"><ele>373.0</ele><time>2026-03-29T08:27:11Z</time></trkpt><trkpt lat="44.045625384279546" lon="8.041418832926102"><ele>371.5</ele><time>2026-03-29T08:27:12Z</time></trkpt><trkpt lat="44.04547989421762" lon="8.041416906461125"><ele>370.0</ele><time>2026-03-29T08:27:13Z</time></trkpt><trkpt lat="44.04530933529131" lon="8.04141107215347"><ele>370.0</ele><time>2026-03-29T08:27:14Z</time></trkpt><trkpt lat="44.045182651947705" lon="8.041361155163461"><ele>370.0</ele><time>2026-03-29T08:27:15Z</time></trkpt><trkpt lat="44.04505860309808" lon="8.04131470904197"><ele>370.0</ele><time>2026-03-29T08:27:16Z</time></trkpt><trkpt lat="44.04497968137989" lon="8.04126198225482"><ele>370.0</ele><time>2026-03-29T08:27:17Z</time></trkpt><trkpt lat="44.04489901419238" lon="8.041066509116611"><ele>377.75</ele><time>2026-03-29T08:27:19Z</time></trkpt><trkpt lat="44.04479341817744" lon="8.04101063966944"><ele>385.5</ele><time>2026-03-29T08:27:21Z</time></trkpt><trkpt lat="44.04471797848969" lon="8.040989448249583"><ele>393.25</ele><time>2026-03-29T08:27:22Z</time></trkpt><trkpt lat="44.04458549537105" lon="8.04098881193605"><ele>401.0</ele><time>2026-03-29T08:27:23Z</time></trkpt><trkpt lat="44.04446896359001" lon="8.04090910152441"><ele>401.0</ele><time>2026-03-29T08:27:24Z</time></trkpt><trkpt lat="44.04438357454329" lon="8.040860892290683"><ele>401.0</ele><time>2026-03-29T08:27:25Z</time></trkpt><trkpt lat="44.04433139942236" lon="8.040730258078582"><ele>401.0</ele><time>2026-03-29T08:27:27Z</time></trkpt><trkpt lat="44.044341837850865" lon="8.040612872979302"><ele>401.0</ele><time>2026-03-29T08:27:28Z</time></trkpt><trkpt lat="44.04434166447717" lon="8.04045460170813"><ele>401.0</ele><time>2026-03-29T08:27:29Z</time></trkpt><trkpt lat="44.04433928385515" lon="8.040352272311884"><ele>397.0</ele><time>2026-03-29T08:27:30Z</time></trkpt><trkpt lat="44.044281330819125" lon="8.040195319406598"><ele>393.0</ele><time>2026-03-29T08:27:32Z</time></trkpt><trkpt lat="44.044222266741606" lon="8.040078559173047"><ele>389.0</ele><time>2026-03-29T08:27:33Z</time></trkpt><trkpt lat="44.04416947372894" lon="8.039896408554961"><ele>385.0</ele><time>2026-03-29T08:27:34Z</time></trkpt><trkpt lat="44.04415505015878" lon="8.03973423675867"><ele>381.8</ele><time>2026-03-29T08:27:35Z</time></trkpt><trkpt lat="44.044086187828114" lon="8.039593631342804"><ele>378.6</ele><time>2026-03-29T08:27:37Z</time></trkpt><trkpt lat="44.043962965895446" lon="8.039533336445578"><ele>375.4</ele><time>2026-03-29T08:27:39Z</time></trkpt><trkpt lat="44.04388157806418" lon="8.039575638081287"><ele>372.2</ele><time>2026-03-29T08:27:40Z</time></trkpt><trkpt lat="44.04382476109956" lon="8.039617950748564"><ele>369.0</ele><time>2026-03-29T08:27:40.999Z</time></trkpt><trkpt lat="44.04374832745665" lon="8.039639930569532"><ele>369.0</ele><time>2026-03-29T08:27:41.999Z</time></trkpt><trkpt lat="44.04368152632821" lon="8.039654012147665"><ele>369.0</ele><time>2026-03-29T08:27:42.999Z</time></trkpt><trkpt lat="44.04360524338531" lon="8.03974102395012"><ele>369.0</ele><time>2026-03-29T08:27:44.999Z</time></trkpt><trkpt lat="44.04354396830592" lon="8.039799967348792"><ele>369.0</ele><time>2026-03-29T08:27:45.999Z</time></trkpt><trkpt lat="44.04347304696412" lon="8.039846466978696"><ele>369.0</ele><time>2026-03-29T08:27:46.999Z</time></trkpt><trkpt lat="44.04334425030777" lon="8.039877305724174"><ele>373.25</ele><time>2026-03-29T08:27:48.999Z</time></trkpt><trkpt lat="44.04318701095907" lon="8.039823713042042"><ele>377.5</ele><time>2026-03-29T08:27:50.999Z</time></trkpt><trkpt lat="44.04309462258188" lon="8.039703340555548"><ele>381.75</ele><time>2026-03-29T08:27:51.999Z</time></trkpt><trkpt lat="44.043014620461626" lon="8.039640803370428"><ele>386.0</ele><time>2026-03-29T08:27:52.999Z</time></trkpt><trkpt lat="44.04292412742288" lon="8.03958609097391"><ele>385.99999999999994</ele><time>2026-03-29T08:27:53.999Z</time></trkpt><trkpt lat="44.04286104742081" lon="8.039586042473386"><ele>386.0</ele><time>2026-03-29T08:27:55.999Z</time></trkpt><trkpt lat="44.04280199164641" lon="8.039687071653113"><ele>386.0</ele><time>2026-03-29T08:27:57.999Z</time></trkpt><trkpt lat="44.04276630315477" lon="8.039781107423538"><ele>386.0</ele><time>2026-03-29T08:27:58.999Z</time></trkpt><trkpt lat="44.042725958742736" lon="8.039863622160158"><ele>385.99999999999994</ele><time>2026-03-29T08:27:59.999Z</time></trkpt><trkpt lat="44.04261344843254" lon="8.039769683973686"><ele>386.0</ele><time>2026-03-29T08:28:01.999Z</time></trkpt><trkpt lat="44.042540082787966" lon="8.039726819886049"><ele>393.4</ele><time>2026-03-29T08:28:02.999Z</time></trkpt><trkpt lat="44.04241870645832" lon="8.039751120830683"><ele>400.8</ele><time>2026-03-29T08:28:04.999Z</time></trkpt><trkpt lat="44.04230165328192" lon="8.039747664867157"><ele>408.2</ele><time>2026-03-29T08:28:06.999Z</time></trkpt><trkpt lat="44.042196673197736" lon="8.039708557320301"><ele>415.59999999999997</ele><time>2026-03-29T08:28:08.999Z</time></trkpt><trkpt lat="44.04221234647892" lon="8.039620383304591"><ele>423.0</ele><time>2026-03-29T08:28:11Z</time></trkpt><trkpt lat="44.04223323531349" lon="8.0395252860206"><ele>423.0</ele><time>2026-03-29T08:28:13Z</time></trkpt><trkpt lat="44.042222367991755" lon="8.039389126782359"><ele>423.0</ele><time>2026-03-29T08:28:16Z</time></trkpt><trkpt lat="44.04233400999481" lon="8.038783925731913"><ele>425.75</ele><time>2026-03-29T08:28:18Z</time></trkpt><trkpt lat="44.04237709337457" lon="8.038616348019799"><ele>428.5</ele><time>2026-03-29T08:28:19Z</time></trkpt><trkpt lat="44.04244560038876" lon="8.038451678338923"><ele>431.25</ele><time>2026-03-29T08:28:20Z</time></trkpt><trkpt lat="44.04251698276899" lon="8.03831165484367"><ele>434.0</ele><time>2026-03-29T08:28:21Z</time></trkpt><trkpt lat="44.04256017596236" lon="8.038232094886645"><ele>433.99999999999994</ele><time>2026-03-29T08:28:22Z</time></trkpt><trkpt lat="44.04248409456044" lon="8.038338844119677"><ele>434.0</ele><time>2026-03-29T08:28:25Z</time></trkpt><trkpt lat="44.04240950755693" lon="8.038409677451357"><ele>434.0</ele><time>2026-03-29T08:28:27Z</time></trkpt><trkpt lat="44.04233216694672" lon="8.038446299708273"><ele>434.0</ele><time>2026-03-29T08:28:28Z</time></trkpt><trkpt lat="44.042266426417406" lon="8.038488718810465"><ele>433.99999999999994</ele><time>2026-03-29T08:28:29Z</time></trkpt><trkpt lat="44.04221376258232" lon="8.038595984771819"><ele>434.0</ele><time>2026-03-29T08:28:30Z</time></trkpt><trkpt lat="44.042147700951816" lon="8.038698317566183"><ele>434.0</ele><time>2026-03-29T08:28:31Z</time></trkpt><trkpt lat="44.042077114993205" lon="8.038803931859666"><ele>434.0</ele><time>2026-03-29T08:28:32Z</time></trkpt><trkpt lat="44.04199284091048" lon="8.038914655319086"><ele>434.0</ele><time>2026-03-29T08:28:33Z</time></trkpt><trkpt lat="44.04190081119841" lon="8.03904186794506"><ele>434.0</ele><time>2026-03-29T08:28:34Z</time></trkpt><trkpt lat="44.04182619583616" lon="8.03915053159736"><ele>431.25</ele><time>2026-03-29T08:28:35Z</time></trkpt><trkpt lat="44.041767757206145" lon="8.039263198065946"><ele>428.5</ele><time>2026-03-29T08:28:36Z</time></trkpt><trkpt lat="44.041688611115205" lon="8.03947994362323"><ele>425.75</ele><time>2026-03-29T08:28:37Z</time></trkpt><trkpt lat="44.041627544186156" lon="8.03951778827534"><ele>423.0</ele><time>2026-03-29T08:28:38Z</time></trkpt><trkpt lat="44.04151783102082" lon="8.039571596980043"><ele>428.2</ele><time>2026-03-29T08:28:39Z</time></trkpt><trkpt lat="44.04141285008276" lon="8.039649927074782"><ele>433.4</ele><time>2026-03-29T08:28:40Z</time></trkpt><trkpt lat="44.041356701835475" lon="8.039700410965603"><ele>438.59999999999997</ele><time>2026-03-29T08:28:41Z</time></trkpt><trkpt lat="44.04128735617474" lon="8.039790459801068"><ele>443.79999999999995</ele><time>2026-03-29T08:28:44Z</time></trkpt><trkpt lat="44.04129781478029" lon="8.039907708207107"><ele>449.0</ele><time>2026-03-29T08:28:46Z</time></trkpt><trkpt lat="44.04136382450058" lon="8.039988834481871"><ele>449.0</ele><time>2026-03-29T08:28:49Z</time></trkpt><trkpt lat="44.04147332488001" lon="8.04014399174027"><ele>449.0</ele><time>2026-03-29T08:28:51Z</time></trkpt><trkpt lat="44.041531964183584" lon="8.040215502221756"><ele>449.0</ele><time>2026-03-29T08:28:52Z</time></trkpt><trkpt lat="44.04158818976889" lon="8.040312504526511"><ele>449.0</ele><time>2026-03-29T08:28:53Z</time></trkpt><trkpt lat="44.041819466487496" lon="8.040599906878425"><ele>446.99999999999994</ele><time>2026-03-29T08:28:54Z</time></trkpt><trkpt lat="44.04184627841367" lon="8.040732799231831"><ele>445.0</ele><time>2026-03-29T08:28:55Z</time></trkpt><trkpt lat="44.04189543171914" lon="8.040788371709597"><ele>443.0</ele><time>2026-03-29T08:28:56Z</time></trkpt><trkpt lat="44.041969926663995" lon="8.04078539040343"><ele>441.0</ele><time>2026-03-29T08:28:57Z</time></trkpt><trkpt lat="44.04209942321905" lon="8.040799838500865"><ele>438.99999999999994</ele><time>2026-03-29T08:28:59Z</time></trkpt><trkpt lat="44.04216854349391" lon="8.040857809960825"><ele>437.0</ele><time>2026-03-29T08:29:00Z</time></trkpt><trkpt lat="44.04225303427688" lon="8.040934222706367"><ele>437.0</ele><time>2026-03-29T08:29:01Z</time></trkpt><trkpt lat="44.04234851606039" lon="8.040992864917461"><ele>437.00000000000006</ele><time>2026-03-29T08:29:02Z</time></trkpt><trkpt lat="44.042437461304" lon="8.04104428153301"><ele>437.00000000000006</ele><time>2026-03-29T08:29:03Z</time></trkpt><trkpt lat="44.04252352598309" lon="8.041097154210503"><ele>437.0</ele><time>2026-03-29T08:29:04Z</time></trkpt><trkpt lat="44.042608993812955" lon="8.04117421953288"><ele>437.0</ele><time>2026-03-29T08:29:05Z</time></trkpt><trkpt lat="44.042702098791615" lon="8.041248018532215"><ele>435.40000000000003</ele><time>2026-03-29T08:29:06Z</time></trkpt><trkpt lat="44.04278820412325" lon="8.041317802734547"><ele>433.80000000000007</ele><time>2026-03-29T08:29:07Z</time></trkpt><trkpt lat="44.04289585479653" lon="8.041370987233208"><ele>432.2</ele><time>2026-03-29T08:29:08Z</time></trkpt><trkpt lat="44.04300312244581" lon="8.041324127424783"><ele>430.6</ele><time>2026-03-29T08:29:09Z</time></trkpt><trkpt lat="44.043101712243185" lon="8.041297960061172"><ele>429.0</ele><time>2026-03-29T08:29:10Z</time></trkpt><trkpt lat="44.04317543973482" lon="8.041196129876997"><ele>429.0</ele><time>2026-03-29T08:29:11Z</time></trkpt><trkpt lat="44.04324116390881" lon="8.04108889752235"><ele>429.0</ele><time>2026-03-29T08:29:12Z</time></trkpt><trkpt lat="44.043298788888876" lon="8.04101232237247"><ele>429.0</ele><time>2026-03-29T08:29:13Z</time></trkpt><trkpt lat="44.043325843836016" lon="8.041136044367178"><ele>429.0</ele><time>2026-03-29T08:29:16Z</time></trkpt><trkpt lat="44.043306765992206" lon="8.041243960874604"><ele>429.0</ele><time>2026-03-29T08:29:17Z</time></trkpt><trkpt lat="44.0433208906017" lon="8.041334327796342"><ele>429.0</ele><time>2026-03-29T08:29:18Z</time></trkpt><trkpt lat="44.043302126750596" lon="8.041470968064663"><ele>429.0</ele><time>2026-03-29T08:29:19Z</time></trkpt><trkpt lat="44.04327074644986" lon="8.041624804825435"><ele>429.0</ele><time>2026-03-29T08:29:20Z</time></trkpt><trkpt lat="44.043219718852995" lon="8.04173917135168"><ele>429.0</ele><time>2026-03-29T08:29:21Z</time></trkpt><trkpt lat="44.043149549742985" lon="8.041788203359808"><ele>429.0</ele><time>2026-03-29T08:29:22Z</time></trkpt><trkpt lat="44.04317309866199" lon="8.041876923924484"><ele>429.0</ele><time>2026-03-29T08:29:24Z</time></trkpt><trkpt lat="44.04326065550371" lon="8.04186458195714"><ele>429.0</ele><time>2026-03-29T08:29:28Z</time></trkpt><trkpt lat="44.043311230669865" lon="8.041966452161217"><ele>435.5</ele><time>2026-03-29T08:29:29Z</time></trkpt><trkpt lat="44.04326504694005" lon="8.04204060376438"><ele>442.0</ele><time>2026-03-29T08:29:33Z</time></trkpt><trkpt lat="44.0431549491261" lon="8.042148017969376"><ele>448.5</ele><time>2026-03-29T08:29:36Z</time></trkpt><trkpt lat="44.04305159828243" lon="8.042261482274261"><ele>455.0</ele><time>2026-03-29T08:29:37Z</time></trkpt><trkpt lat="44.042930025233254" lon="8.04243033519547"><ele>459.0</ele><time>2026-03-29T08:29:38Z</time></trkpt><trkpt lat="44.04281955351025" lon="8.042597907489439"><ele>463.0</ele><time>2026-03-29T08:29:39Z</time></trkpt><trkpt lat="44.04271795337878" lon="8.04270088461174"><ele>467.0</ele><time>2026-03-29T08:29:40Z</time></trkpt><trkpt lat="44.04264546945389" lon="8.042745312522754"><ele>471.0</ele><time>2026-03-29T08:29:41Z</time></trkpt><trkpt lat="44.04256681539426" lon="8.042796152645204"><ele>471.0</ele><time>2026-03-29T08:29:42Z</time></trkpt><trkpt lat="44.042508149153925" lon="8.042832618622175"><ele>471.0</ele><time>2026-03-29T08:29:42.999Z</time></trkpt><trkpt lat="44.04235952898294" lon="8.04280804772713"><ele>471.0</ele><time>2026-03-29T08:29:44.999Z</time></trkpt><trkpt lat="44.04227200405471" lon="8.042817936867722"><ele>471.0</ele><time>2026-03-29T08:29:45.999Z</time></trkpt><trkpt lat="44.042171969611736" lon="8.042897396481044"><ele>471.0</ele><time>2026-03-29T08:29:46.999Z</time></trkpt><trkpt lat="44.04208004433422" lon="8.042955397842706"><ele>474.8</ele><time>2026-03-29T08:29:47.999Z</time></trkpt><trkpt lat="44.04198044215654" lon="8.04297406549016"><ele>478.6</ele><time>2026-03-29T08:29:48.999Z</time></trkpt><trkpt lat="44.04189307320902" lon="8.042973740956631"><ele>482.4</ele><time>2026-03-29T08:29:49.999Z</time></trkpt><trkpt lat="44.0418044132631" lon="8.042985263144393"><ele>486.2</ele><time>2026-03-29T08:29:50.999Z</time></trkpt><trkpt lat="44.04172361168858" lon="8.0430342766836"><ele>490.0</ele><time>2026-03-29T08:29:51.999Z</time></trkpt><trkpt lat="44.04168701921053" lon="8.043163605291221"><ele>498.5</ele><time>2026-03-29T08:29:52.999Z</time></trkpt><trkpt lat="44.04162194683596" lon="8.043326048641461"><ele>507.0</ele><time>2026-03-29T08:29:53.999Z</time></trkpt><trkpt lat="44.0415674921378" lon="8.043468298981102"><ele>515.5</ele><time>2026-03-29T08:29:54.999Z</time></trkpt><trkpt lat="44.041587743274874" lon="8.043682140689777"><ele>524.0</ele><time>2026-03-29T08:29:56.999Z</time></trkpt><trkpt lat="44.04161052026709" lon="8.043886498174054"><ele>524.0</ele><time>2026-03-29T08:29:57.999Z</time></trkpt><trkpt lat="44.04160747204787" lon="8.04406442886339"><ele>524.0</ele><time>2026-03-29T08:29:58.999Z</time></trkpt><trkpt lat="44.041629121999776" lon="8.04428653515201"><ele>524.0</ele><time>2026-03-29T08:29:59.999Z</time></trkpt><trkpt lat="44.04160876814321" lon="8.044462863190494"><ele>524.0</ele><time>2026-03-29T08:30:00.999Z</time></trkpt><trkpt lat="44.04162461633241" lon="8.04459289561384"><ele>518.2</ele><time>2026-03-29T08:30:01.999Z</time></trkpt><trkpt lat="44.04164756331779" lon="8.044687344369155"><ele>512.4</ele><time>2026-03-29T08:30:02.999Z</time></trkpt><trkpt lat="44.04162193258252" lon="8.044785393985693"><ele>506.6</ele><time>2026-03-29T08:30:04.999Z</time></trkpt><trkpt lat="44.04154791492269" lon="8.044707465524109"><ele>500.8</ele><time>2026-03-29T08:30:06.999Z</time></trkpt><trkpt lat="44.04150415411186" lon="8.044605537972881"><ele>495.0</ele><time>2026-03-29T08:30:07.999Z</time></trkpt><trkpt lat="44.04139952612776" lon="8.044487916741193"><ele>495.0</ele><time>2026-03-29T08:30:08.999Z</time></trkpt><trkpt lat="44.041293937037445" lon="8.044392730344887"><ele>495.0</ele><time>2026-03-29T08:30:09.999Z</time></trkpt><trkpt lat="44.04116119653089" lon="8.044333613021998"><ele>495.0</ele><time>2026-03-29T08:30:10.999Z</time></trkpt><trkpt lat="44.04103547443386" lon="8.04426427644634"><ele>495.0</ele><time>2026-03-29T08:30:11.999Z</time></trkpt><trkpt lat="44.04086082725097" lon="8.044216113378905"><ele>498.33333333333337</ele><time>2026-03-29T08:30:12.999Z</time></trkpt><trkpt lat="44.04065547186847" lon="8.044152434320283"><ele>501.6666666666667</ele><time>2026-03-29T08:30:13.999Z</time></trkpt><trkpt lat="44.040523704889154" lon="8.044149947651036"><ele>505.0</ele><time>2026-03-29T08:30:14.999Z</time></trkpt><trkpt lat="44.040404006270286" lon="8.044093437116596"><ele>505.0</ele><time>2026-03-29T08:30:16Z</time></trkpt><trkpt lat="44.040319601427576" lon="8.044113312083612"><ele>505.0</ele><time>2026-03-29T08:30:17Z</time></trkpt><trkpt lat="44.04022890382315" lon="8.044232855799708"><ele>505.0</ele><time>2026-03-29T08:30:18Z</time></trkpt><trkpt lat="44.040156915436214" lon="8.044348653936064"><ele>505.0</ele><time>2026-03-29T08:30:19Z</time></trkpt><trkpt lat="44.04009457844651" lon="8.044372562533566"><ele>505.0</ele><time>2026-03-29T08:30:20Z</time></trkpt><trkpt lat="44.03999967543763" lon="8.044356321221613"><ele>504.25</ele><time>2026-03-29T08:30:21Z</time></trkpt><trkpt lat="44.03985629957555" lon="8.044361848492235"><ele>503.5</ele><time>2026-03-29T08:30:22Z</time></trkpt><trkpt lat="44.039721334838" lon="8.044379816973207"><ele>502.75</ele><time>2026-03-29T08:30:23Z</time></trkpt><trkpt lat="44.03958803842301" lon="8.04445099166755"><ele>502.0</ele><time>2026-03-29T08:30:24Z</time></trkpt><trkpt lat="44.03942682050679" lon="8.044564794761547"><ele>502.0</ele><time>2026-03-29T08:30:25Z</time></trkpt><trkpt lat="44.03927606704298" lon="8.044639134083512"><ele>502.0</ele><time>2026-03-29T08:30:26Z</time></trkpt><trkpt lat="44.03919356770116" lon="8.04471877203367"><ele>502.0</ele><time>2026-03-29T08:30:27Z</time></trkpt><trkpt lat="44.039081652553705" lon="8.04476646708822"><ele>502.0</ele><time>2026-03-29T08:30:28Z</time></trkpt><trkpt lat="44.03902033189166" lon="8.044638124889856"><ele>498.8</ele><time>2026-03-29T08:30:31Z</time></trkpt><trkpt lat="44.03898725714934" lon="8.044530993002644"><ele>495.6</ele><time>2026-03-29T08:30:32Z</time></trkpt><trkpt lat="44.03897041910694" lon="8.044409953752687"><ele>492.40000000000003</ele><time>2026-03-29T08:30:33Z</time></trkpt><trkpt lat="44.038959468520936" lon="8.044269562884486"><ele>489.20000000000005</ele><time>2026-03-29T08:30:34Z</time></trkpt><trkpt lat="44.03894415651249" lon="8.044140282112977"><ele>486.0</ele><time>2026-03-29T08:30:35Z</time></trkpt><trkpt lat="44.038900202295764" lon="8.044035796718731"><ele>486.0</ele><time>2026-03-29T08:30:36Z</time></trkpt><trkpt lat="44.03880655759839" lon="8.04390309828569"><ele>486.0</ele><time>2026-03-29T08:30:37Z</time></trkpt><trkpt lat="44.03871266241522" lon="8.043783394498764"><ele>486.0</ele><time>2026-03-29T08:30:38Z</time></trkpt><trkpt lat="44.038678371420225" lon="8.043669337805497"><ele>486.0</ele><time>2026-03-29T08:30:39Z</time></trkpt><trkpt lat="44.038669995142236" lon="8.043534506054911"><ele>486.0</ele><time>2026-03-29T08:30:40Z</time></trkpt><trkpt lat="44.038678222183904" lon="8.043348289841122"><ele>489.8</ele><time>2026-03-29T08:30:41Z</time></trkpt><trkpt lat="44.03866706361797" lon="8.043184636568459"><ele>493.6</ele><time>2026-03-29T08:30:42Z</time></trkpt><trkpt lat="44.03864407074035" lon="8.04304856112543"><ele>497.4</ele><time>2026-03-29T08:30:43Z</time></trkpt><trkpt lat="44.03858996864858" lon="8.04296979994179"><ele>501.2</ele><time>2026-03-29T08:30:44Z</time></trkpt><trkpt lat="44.03851931662312" lon="8.042926360571107"><ele>505.0</ele><time>2026-03-29T08:30:45Z</time></trkpt><trkpt lat="44.038413243610144" lon="8.042934651074383"><ele>501.0</ele><time>2026-03-29T08:30:46Z</time></trkpt><trkpt lat="44.03827721193989" lon="8.042964824666878"><ele>497.0</ele><time>2026-03-29T08:30:47Z</time></trkpt><trkpt lat="44.03816214577667" lon="8.042929483291676"><ele>493.0</ele><time>2026-03-29T08:30:48Z</time></trkpt><trkpt lat="44.03803938358044" lon="8.042919892039693"><ele>489.0</ele><time>2026-03-29T08:30:49Z</time></trkpt><trkpt lat="44.03787454910456" lon="8.042894730866823"><ele>489.0</ele><time>2026-03-29T08:30:50Z</time></trkpt><trkpt lat="44.03775541438785" lon="8.042881038868707"><ele>489.0</ele><time>2026-03-29T08:30:51Z</time></trkpt><trkpt lat="44.03766275708906" lon="8.04286002314511"><ele>489.0</ele><time>2026-03-29T08:30:52Z</time></trkpt><trkpt lat="44.0375877247296" lon="8.042824372237538"><ele>489.0</ele><time>2026-03-29T08:30:53Z</time></trkpt><trkpt lat="44.03753205123297" lon="8.042781795277007"><ele>489.0</ele><time>2026-03-29T08:30:54Z</time></trkpt><trkpt lat="44.03752222539492" lon="8.042645513884871"><ele>489.0</ele><time>2026-03-29T08:30:55Z</time></trkpt><trkpt lat="44.037481806784186" lon="8.04251548523136"><ele>489.0</ele><time>2026-03-29T08:30:56Z</time></trkpt><trkpt lat="44.037351125933995" lon="8.042403187637756"><ele>489.0</ele><time>2026-03-29T08:30:57Z</time></trkpt><trkpt lat="44.03732108480901" lon="8.042238880305073"><ele>489.0</ele><time>2026-03-29T08:30:58Z</time></trkpt><trkpt lat="44.03729190517179" lon="8.042079284791651"><ele>489.0</ele><time>2026-03-29T08:30:59Z</time></trkpt><trkpt lat="44.0373933302576" lon="8.041880608665563"><ele>489.0</ele><time>2026-03-29T08:31:00Z</time></trkpt><trkpt lat="44.03732346324228" lon="8.041764925726614"><ele>489.0</ele><time>2026-03-29T08:31:01Z</time></trkpt><trkpt lat="44.037214872036145" lon="8.041660022699173"><ele>489.0</ele><time>2026-03-29T08:31:02Z</time></trkpt><trkpt lat="44.03709890031076" lon="8.041597578575708"><ele>489.0</ele><time>2026-03-29T08:31:03Z</time></trkpt><trkpt lat="44.03698502022428" lon="8.041518141697626"><ele>489.0</ele><time>2026-03-29T08:31:04Z</time></trkpt><trkpt lat="44.03693229134559" lon="8.041426877648336"><ele>489.0</ele><time>2026-03-29T08:31:05Z</time></trkpt><trkpt lat="44.03690290723117" lon="8.041348724999853"><ele>489.0</ele><time>2026-03-29T08:31:06Z</time></trkpt><trkpt lat="44.0368948232613" lon="8.041246160989024"><ele>489.0</ele><time>2026-03-29T08:31:07Z</time></trkpt><trkpt lat="44.03689101623139" lon="8.041110136109715"><ele>489.0</ele><time>2026-03-29T08:31:08Z</time></trkpt><trkpt lat="44.03688664907355" lon="8.04092958464623"><ele>494.66666666666663</ele><time>2026-03-29T08:31:09Z</time></trkpt><trkpt lat="44.03686161957257" lon="8.040704153578314"><ele>500.3333333333333</ele><time>2026-03-29T08:31:10Z</time></trkpt><trkpt lat="44.03680720845095" lon="8.040462892315373"><ele>506.0</ele><time>2026-03-29T08:31:11Z</time></trkpt><trkpt lat="44.03675673879986" lon="8.040249713285869"><ele>506.0</ele><time>2026-03-29T08:31:12Z</time></trkpt><trkpt lat="44.036699230710525" lon="8.04009248122045"><ele>506.0</ele><time>2026-03-29T08:31:13Z</time></trkpt><trkpt lat="44.036622904919795" lon="8.03993491449101"><ele>506.0</ele><time>2026-03-29T08:31:14Z</time></trkpt><trkpt lat="44.03652092967333" lon="8.039802360279614"><ele>506.0</ele><time>2026-03-29T08:31:15Z</time></trkpt><trkpt lat="44.036461779936005" lon="8.039668506134262"><ele>504.0</ele><time>2026-03-29T08:31:16Z</time></trkpt><trkpt lat="44.036434415414064" lon="8.0395112905073"><ele>502.0</ele><time>2026-03-29T08:31:17Z</time></trkpt><trkpt lat="44.036422724433585" lon="8.03930925016715"><ele>500.0</ele><time>2026-03-29T08:31:18Z</time></trkpt><trkpt lat="44.03639261661931" lon="8.0391167431971"><ele>498.0</ele><time>2026-03-29T08:31:19Z</time></trkpt><trkpt lat="44.03639732518814" lon="8.038947831423036"><ele>498.0</ele><time>2026-03-29T08:31:20Z</time></trkpt><trkpt lat="44.03636112171678" lon="8.03880356319191"><ele>498.0</ele><time>2026-03-29T08:31:21Z</time></trkpt><trkpt lat="44.036236889839444" lon="8.038691191596724"><ele>498.0</ele><time>2026-03-29T08:31:22Z</time></trkpt><trkpt lat="44.03607262969424" lon="8.038569256257988"><ele>498.0</ele><time>2026-03-29T08:31:23Z</time></trkpt><trkpt lat="44.03594516235304" lon="8.038429287091176"><ele>497.4</ele><time>2026-03-29T08:31:24Z</time></trkpt><trkpt lat="44.03584684057598" lon="8.038272726109161"><ele>496.79999999999995</ele><time>2026-03-29T08:31:25Z</time></trkpt><trkpt lat="44.03579229500713" lon="8.038156392321643"><ele>496.2</ele><time>2026-03-29T08:31:26Z</time></trkpt><trkpt lat="44.03583652485901" lon="8.03804323202389"><ele>495.6</ele><time>2026-03-29T08:31:28Z</time></trkpt><trkpt lat="44.03589948491371" lon="8.037996875818562"><ele>495.0</ele><time>2026-03-29T08:31:29Z</time></trkpt><trkpt lat="44.03601280349463" lon="8.037911023207302"><ele>495.0</ele><time>2026-03-29T08:31:30Z</time></trkpt><trkpt lat="44.03614648753014" lon="8.037793878377268"><ele>495.0</ele><time>2026-03-29T08:31:31Z</time></trkpt><trkpt lat="44.036290923751466" lon="8.037698650473985"><ele>495.0</ele><time>2026-03-29T08:31:32Z</time></trkpt><trkpt lat="44.036398010146144" lon="8.037622776471247"><ele>495.0</ele><time>2026-03-29T08:31:33Z</time></trkpt><trkpt lat="44.03647358815952" lon="8.037597372983091"><ele>495.0</ele><time>2026-03-29T08:31:34Z</time></trkpt><trkpt lat="44.03654920084799" lon="8.0376509442121"><ele>495.0</ele><time>2026-03-29T08:31:35Z</time></trkpt><trkpt lat="44.03664729788554" lon="8.037736895418519"><ele>495.0</ele><time>2026-03-29T08:31:36Z</time></trkpt><trkpt lat="44.03677037947993" lon="8.037859994241753"><ele>495.0</ele><time>2026-03-29T08:31:37Z</time></trkpt><trkpt lat="44.03687569143728" lon="8.037959794002257"><ele>496.6</ele><time>2026-03-29T08:31:38Z</time></trkpt><trkpt lat="44.03696132585904" lon="8.038012723400703"><ele>498.2</ele><time>2026-03-29T08:31:39Z</time></trkpt><trkpt lat="44.037041044753835" lon="8.037979809818234"><ele>499.79999999999995</ele><time>2026-03-29T08:31:39.999Z</time></trkpt><trkpt lat="44.0371404069729" lon="8.037885129287886"><ele>501.4</ele><time>2026-03-29T08:31:40.999Z</time></trkpt><trkpt lat="44.03724587666778" lon="8.037846536329658"><ele>503.0</ele><time>2026-03-29T08:31:41.999Z</time></trkpt><trkpt lat="44.03732151251808" lon="8.037794323119886"><ele>503.0</ele><time>2026-03-29T08:31:42.999Z</time></trkpt><trkpt lat="44.03740061745106" lon="8.037652520734756"><ele>503.0</ele><time>2026-03-29T08:31:43.999Z</time></trkpt><trkpt lat="44.037515597502434" lon="8.037460155610221"><ele>503.0</ele><time>2026-03-29T08:31:44.999Z</time></trkpt><trkpt lat="44.0376062046837" lon="8.03724998860906"><ele>503.0</ele><time>2026-03-29T08:31:45.999Z</time></trkpt><trkpt lat="44.03768391953341" lon="8.037066014844083"><ele>503.0</ele><time>2026-03-29T08:31:46.999Z</time></trkpt><trkpt lat="44.037751279271305" lon="8.036935376478874"><ele>503.0</ele><time>2026-03-29T08:31:47.999Z</time></trkpt><trkpt lat="44.037800443633145" lon="8.036795818299025"><ele>503.0</ele><time>2026-03-29T08:31:48.999Z</time></trkpt><trkpt lat="44.037806754066025" lon="8.036676824500105"><ele>501.5</ele><time>2026-03-29T08:31:49.999Z</time></trkpt><trkpt lat="44.03779614488454" lon="8.036495073474077"><ele>500.0</ele><time>2026-03-29T08:31:50.999Z</time></trkpt><trkpt lat="44.03783815197177" lon="8.0363206363988"><ele>498.5</ele><time>2026-03-29T08:31:51.999Z</time></trkpt><trkpt lat="44.037906471329975" lon="8.036125862672082"><ele>497.0</ele><time>2026-03-29T08:31:52.999Z</time></trkpt><trkpt lat="44.03797310320563" lon="8.035880702024688"><ele>496.0</ele><time>2026-03-29T08:31:53.999Z</time></trkpt><trkpt lat="44.038003558142535" lon="8.035647949264249"><ele>495.0</ele><time>2026-03-29T08:31:54.999Z</time></trkpt><trkpt lat="44.03802723800975" lon="8.035484200905525"><ele>494.0</ele><time>2026-03-29T08:31:55.999Z</time></trkpt><trkpt lat="44.0380879850971" lon="8.035329939571898"><ele>493.0</ele><time>2026-03-29T08:31:57.999Z</time></trkpt><trkpt lat="44.03819210487992" lon="8.035235511943252"><ele>493.0</ele><time>2026-03-29T08:31:58.999Z</time></trkpt><trkpt lat="44.03830090053668" lon="8.03508842543654"><ele>493.0</ele><time>2026-03-29T08:31:59.999Z</time></trkpt><trkpt lat="44.038375441624424" lon="8.034976561075268"><ele>493.0</ele><time>2026-03-29T08:32:00.999Z</time></trkpt><trkpt lat="44.038421138842054" lon="8.034857518842221"><ele>493.0</ele><time>2026-03-29T08:32:01.999Z</time></trkpt><trkpt lat="44.03845138144652" lon="8.034711907284924"><ele>494.79999999999995</ele><time>2026-03-29T08:32:02.999Z</time></trkpt><trkpt lat="44.038482573376655" lon="8.034567477124686"><ele>496.59999999999997</ele><time>2026-03-29T08:32:03.999Z</time></trkpt><trkpt lat="44.038515896590354" lon="8.034417540863394"><ele>498.40000000000003</ele><time>2026-03-29T08:32:04.999Z</time></trkpt><trkpt lat="44.03856918280402" lon="8.034300352502052"><ele>500.20000000000005</ele><time>2026-03-29T08:32:05.999Z</time></trkpt><trkpt lat="44.038628280827794" lon="8.034150347095887"><ele>502.0</ele><time>2026-03-29T08:32:06.999Z</time></trkpt><trkpt lat="44.03864224168063" lon="8.033958256028765"><ele>502.0</ele><time>2026-03-29T08:32:07.999Z</time></trkpt><trkpt lat="44.03863232331195" lon="8.033726195420247"><ele>502.0</ele><time>2026-03-29T08:32:08.999Z</time></trkpt><trkpt lat="44.038636623962596" lon="8.033549260095839"><ele>502.0</ele><time>2026-03-29T08:32:09.999Z</time></trkpt><trkpt lat="44.03866258001852" lon="8.033386142104197"><ele>502.0</ele><time>2026-03-29T08:32:10.999Z</time></trkpt><trkpt lat="44.03872931586657" lon="8.033263490424261"><ele>499.8</ele><time>2026-03-29T08:32:11.999Z</time></trkpt><trkpt lat="44.03879359528904" lon="8.033213701350888"><ele>497.6</ele><time>2026-03-29T08:32:12.999Z</time></trkpt><trkpt lat="44.038858017261965" lon="8.033152161868356"><ele>495.40000000000003</ele><time>2026-03-29T08:32:13.999Z</time></trkpt><trkpt lat="44.03889030670038" lon="8.033052124526312"><ele>493.20000000000005</ele><time>2026-03-29T08:32:14.999Z</time></trkpt><trkpt lat="44.038932236686605" lon="8.032909845729804"><ele>491.0</ele><time>2026-03-29T08:32:15.999Z</time></trkpt><trkpt lat="44.0389910122178" lon="8.032770288124164"><ele>491.0</ele><time>2026-03-29T08:32:16.999Z</time></trkpt><trkpt lat="44.03906461228762" lon="8.03262522529138"><ele>491.0</ele><time>2026-03-29T08:32:17.999Z</time></trkpt><trkpt lat="44.039097839222805" lon="8.032454758855474"><ele>491.0</ele><time>2026-03-29T08:32:18.999Z</time></trkpt><trkpt lat="44.03909681506876" lon="8.03227800365295"><ele>491.0</ele><time>2026-03-29T08:32:19.999Z</time></trkpt><trkpt lat="44.03910980067031" lon="8.032101903436581"><ele>489.8</ele><time>2026-03-29T08:32:20.999Z</time></trkpt><trkpt lat="44.03908499843404" lon="8.031961527636547"><ele>488.6</ele><time>2026-03-29T08:32:22Z</time></trkpt><trkpt lat="44.03906036072198" lon="8.03185047476399"><ele>487.4</ele><time>2026-03-29T08:32:23Z</time></trkpt><trkpt lat="44.03908952657609" lon="8.031665230549674"><ele>486.2</ele><time>2026-03-29T08:32:25Z</time></trkpt><trkpt lat="44.039087570125425" lon="8.031558771544166"><ele>485.0</ele><time>2026-03-29T08:32:26Z</time></trkpt><trkpt lat="44.03906807222727" lon="8.031470529013047"><ele>485.0</ele><time>2026-03-29T08:32:27Z</time></trkpt><trkpt lat="44.03905007898355" lon="8.031365791668327"><ele>485.0</ele><time>2026-03-29T08:32:28Z</time></trkpt><trkpt lat="44.03911784467769" lon="8.031243269413151"><ele>485.0</ele><time>2026-03-29T08:32:29Z</time></trkpt><trkpt lat="44.03915406278323" lon="8.031081863886097"><ele>485.0</ele><time>2026-03-29T08:32:30Z</time></trkpt><trkpt lat="44.03914403084181" lon="8.03094014656129"><ele>485.0</ele><time>2026-03-29T08:32:31Z</time></trkpt><trkpt lat="44.03911877171409" lon="8.030845677228362"><ele>486.75</ele><time>2026-03-29T08:32:32Z</time></trkpt><trkpt lat="44.0390401097397" lon="8.030760015370653"><ele>488.5</ele><time>2026-03-29T08:32:33Z</time></trkpt><trkpt lat="44.038957352859455" lon="8.030621522513433"><ele>490.25</ele><time>2026-03-29T08:32:34Z</time></trkpt><trkpt lat="44.03884304265657" lon="8.03045361944999"><ele>492.0</ele><time>2026-03-29T08:32:36Z</time></trkpt><trkpt lat="44.03874550807876" lon="8.030328649735484"><ele>492.0</ele><time>2026-03-29T08:32:37Z</time></trkpt><trkpt lat="44.03862921922728" lon="8.030227217740313"><ele>492.0</ele><time>2026-03-29T08:32:38Z</time></trkpt><trkpt lat="44.03859508088559" lon="8.030103353282543"><ele>492.0</ele><time>2026-03-29T08:32:39Z</time></trkpt><trkpt lat="44.038662177789256" lon="8.029957267025802"><ele>492.0</ele><time>2026-03-29T08:32:41Z</time></trkpt><trkpt lat="44.03872582624399" lon="8.029799102104752"><ele>491.0</ele><time>2026-03-29T08:32:42Z</time></trkpt><trkpt lat="44.03878859487534" lon="8.029618277370362"><ele>490.0</ele><time>2026-03-29T08:32:43Z</time></trkpt><trkpt lat="44.038863261440326" lon="8.02944024958734"><ele>489.0</ele><time>2026-03-29T08:32:44Z</time></trkpt><trkpt lat="44.038920528763875" lon="8.029246742666837"><ele>488.0</ele><time>2026-03-29T08:32:45Z</time></trkpt><trkpt lat="44.038992776265985" lon="8.029036253863154"><ele>490.25</ele><time>2026-03-29T08:32:46Z</time></trkpt><trkpt lat="44.03904063523299" lon="8.028878409259837"><ele>492.5</ele><time>2026-03-29T08:32:47Z</time></trkpt><trkpt lat="44.039030125748944" lon="8.028719170319137"><ele>494.75</ele><time>2026-03-29T08:32:48Z</time></trkpt><trkpt lat="44.03896640223198" lon="8.02856762405536"><ele>497.0</ele><time>2026-03-29T08:32:49Z</time></trkpt><trkpt lat="44.03883686248894" lon="8.028456630583364"><ele>497.0</ele><time>2026-03-29T08:32:50Z</time></trkpt><trkpt lat="44.038738079226114" lon="8.028354568026282"><ele>497.00000000000006</ele><time>2026-03-29T08:32:51Z</time></trkpt><trkpt lat="44.03871316214233" lon="8.028183260895203"><ele>497.00000000000006</ele><time>2026-03-29T08:32:53Z</time></trkpt><trkpt lat="44.03878461046259" lon="8.028088430443747"><ele>497.0</ele><time>2026-03-29T08:32:54Z</time></trkpt><trkpt lat="44.03881940194737" lon="8.027961159251536"><ele>497.0</ele><time>2026-03-29T08:32:55Z</time></trkpt><trkpt lat="44.03881616287335" lon="8.027863702351063"><ele>498.6</ele><time>2026-03-29T08:32:56Z</time></trkpt><trkpt lat="44.03875506484231" lon="8.027789346055132"><ele>500.20000000000005</ele><time>2026-03-29T08:32:57Z</time></trkpt><trkpt lat="44.038682501616556" lon="8.027703745002048"><ele>501.8</ele><time>2026-03-29T08:32:58Z</time></trkpt><trkpt lat="44.03868854392682" lon="8.027571900701851"><ele>503.4</ele><time>2026-03-29T08:32:59Z</time></trkpt><trkpt lat="44.0387295378957" lon="8.027406610249514"><ele>505.0</ele><time>2026-03-29T08:33:00Z</time></trkpt><trkpt lat="44.038729122282085" lon="8.027305635056534"><ele>508.25</ele><time>2026-03-29T08:33:01Z</time></trkpt><trkpt lat="44.038608910601454" lon="8.02722420534826"><ele>511.5</ele><time>2026-03-29T08:33:03Z</time></trkpt><trkpt lat="44.038473678776555" lon="8.027194435347313"><ele>514.75</ele><time>2026-03-29T08:33:04Z</time></trkpt><trkpt lat="44.03840911084935" lon="8.027175029163647"><ele>518.0</ele><time>2026-03-29T08:33:05Z</time></trkpt><trkpt lat="44.03842753330238" lon="8.027002473216545"><ele>518.0</ele><time>2026-03-29T08:33:07Z</time></trkpt><trkpt lat="44.038448641967186" lon="8.026851315812468"><ele>518.0</ele><time>2026-03-29T08:33:08Z</time></trkpt><trkpt lat="44.03844330478919" lon="8.026685638871978"><ele>518.0</ele><time>2026-03-29T08:33:09Z</time></trkpt><trkpt lat="44.038402286906" lon="8.026529253043812"><ele>518.0</ele><time>2026-03-29T08:33:10Z</time></trkpt><trkpt lat="44.03832329009873" lon="8.026375431892708"><ele>516.6</ele><time>2026-03-29T08:33:11Z</time></trkpt><trkpt lat="44.0382106104576" lon="8.026279832507198"><ele>515.1999999999999</ele><time>2026-03-29T08:33:12Z</time></trkpt><trkpt lat="44.03815046726901" lon="8.026207812299738"><ele>513.8</ele><time>2026-03-29T08:33:13Z</time></trkpt><trkpt lat="44.03813972340597" lon="8.026053332181679"><ele>512.4</ele><time>2026-03-29T08:33:14Z</time></trkpt><trkpt lat="44.03812848270743" lon="8.025916302466165"><ele>511.0</ele><time>2026-03-29T08:33:15Z</time></trkpt><trkpt lat="44.0381053391426" lon="8.025710477396416"><ele>511.0</ele><time>2026-03-29T08:33:16Z</time></trkpt><trkpt lat="44.0380336024755" lon="8.025527205812528"><ele>511.0</ele><time>2026-03-29T08:33:17Z</time></trkpt><trkpt lat="44.03795888236479" lon="8.02540849027298"><ele>511.0</ele><time>2026-03-29T08:33:18Z</time></trkpt><trkpt lat="44.037854267030944" lon="8.0252992162323"><ele>511.0</ele><time>2026-03-29T08:33:19Z</time></trkpt><trkpt lat="44.03777300239308" lon="8.025178444927182"><ele>511.0</ele><time>2026-03-29T08:33:20Z</time></trkpt><trkpt lat="44.037743370564925" lon="8.025056738387871"><ele>511.0</ele><time>2026-03-29T08:33:21Z</time></trkpt><trkpt lat="44.03770579472036" lon="8.024957707005017"><ele>511.0</ele><time>2026-03-29T08:33:22Z</time></trkpt><trkpt lat="44.037659477391436" lon="8.024860556052758"><ele>511.0</ele><time>2026-03-29T08:33:23Z</time></trkpt><trkpt lat="44.037555872622654" lon="8.024796722018465"><ele>511.0</ele><time>2026-03-29T08:33:24Z</time></trkpt><trkpt lat="44.03748808968674" lon="8.024683879448109"><ele>510.0</ele><time>2026-03-29T08:33:25Z</time></trkpt><trkpt lat="44.03746240464152" lon="8.024510626591379"><ele>509.0</ele><time>2026-03-29T08:33:27Z</time></trkpt><trkpt lat="44.037453827778705" lon="8.024325807522981"><ele>508.0</ele><time>2026-03-29T08:33:28Z</time></trkpt><trkpt lat="44.03742171232976" lon="8.024156238058163"><ele>507.0</ele><time>2026-03-29T08:33:29Z</time></trkpt><trkpt lat="44.037400383240445" lon="8.024001269309185"><ele>511.8</ele><time>2026-03-29T08:33:30Z</time></trkpt><trkpt lat="44.0373488893441" lon="8.023892748764307"><ele>516.6</ele><time>2026-03-29T08:33:31Z</time></trkpt><trkpt lat="44.03726806026211" lon="8.023801993129029"><ele>521.4000000000001</ele><time>2026-03-29T08:33:32Z</time></trkpt><trkpt lat="44.03716248766157" lon="8.023749645539155"><ele>526.2</ele><time>2026-03-29T08:33:33Z</time></trkpt><trkpt lat="44.03705950552832" lon="8.02374204562795"><ele>531.0</ele><time>2026-03-29T08:33:34Z</time></trkpt><trkpt lat="44.03692123302227" lon="8.023718023225706"><ele>531.0</ele><time>2026-03-29T08:33:35Z</time></trkpt><trkpt lat="44.0367437811912" lon="8.023839375619488"><ele>531.0</ele><time>2026-03-29T08:33:36Z</time></trkpt><trkpt lat="44.0366664366474" lon="8.023855064868203"><ele>531.0</ele><time>2026-03-29T08:33:37Z</time></trkpt><trkpt lat="44.036638033394674" lon="8.023718322704578"><ele>531.0</ele><time>2026-03-29T08:33:38.999Z</time></trkpt><trkpt lat="44.03663553257795" lon="8.02355985411654"><ele>531.0</ele><time>2026-03-29T08:33:39.999Z</time></trkpt><trkpt lat="44.0366458216632" lon="8.023364564628945"><ele>531.0</ele><time>2026-03-29T08:33:40.999Z</time></trkpt><trkpt lat="44.03657462676897" lon="8.023130764322985"><ele>531.0</ele><time>2026-03-29T08:33:41.999Z</time></trkpt><trkpt lat="44.03652738033642" lon="8.0229636499677"><ele>528.8</ele><time>2026-03-29T08:33:42.999Z</time></trkpt><trkpt lat="44.036481483066716" lon="8.022860813020891"><ele>526.6</ele><time>2026-03-29T08:33:43.999Z</time></trkpt><trkpt lat="44.0364217120993" lon="8.022794673954317"><ele>524.4</ele><time>2026-03-29T08:33:44.999Z</time></trkpt><trkpt lat="44.036351482521496" lon="8.022784652326907"><ele>522.2</ele><time>2026-03-29T08:33:45.999Z</time></trkpt><trkpt lat="44.03624502850538" lon="8.022736304038409"><ele>520.0</ele><time>2026-03-29T08:33:46.999Z</time></trkpt><trkpt lat="44.03614136291549" lon="8.022708400967485"><ele>520.0</ele><time>2026-03-29T08:33:47.999Z</time></trkpt><trkpt lat="44.03603061382324" lon="8.0227552006988"><ele>520.0</ele><time>2026-03-29T08:33:48.999Z</time></trkpt><trkpt lat="44.03594345434408" lon="8.022781093494489"><ele>520.0</ele><time>2026-03-29T08:33:49.999Z</time></trkpt><trkpt lat="44.035888940763975" lon="8.02271579093944"><ele>520.0</ele><time>2026-03-29T08:33:50.999Z</time></trkpt><trkpt lat="44.03586124900733" lon="8.022619994406666"><ele>520.0</ele><time>2026-03-29T08:33:51.999Z</time></trkpt><trkpt lat="44.035858763274035" lon="8.022484031231514"><ele>520.0</ele><time>2026-03-29T08:33:52.999Z</time></trkpt><trkpt lat="44.035854148733684" lon="8.022310525024224"><ele>519.0</ele><time>2026-03-29T08:33:53.999Z</time></trkpt><trkpt lat="44.035821102131315" lon="8.022150326091868"><ele>518.0</ele><time>2026-03-29T08:33:54.999Z</time></trkpt><trkpt lat="44.03580451865269" lon="8.022040214324909"><ele>517.0</ele><time>2026-03-29T08:33:55.999Z</time></trkpt><trkpt lat="44.03567944941346" lon="8.022068331082377"><ele>516.0</ele><time>2026-03-29T08:33:56.999Z</time></trkpt><trkpt lat="44.03551813068381" lon="8.022081755806983"><ele>516.0</ele><time>2026-03-29T08:33:57.999Z</time></trkpt><trkpt lat="44.03536807680045" lon="8.022036484438747"><ele>516.0</ele><time>2026-03-29T08:33:58.999Z</time></trkpt><trkpt lat="44.03528042340273" lon="8.022021121509743"><ele>516.0</ele><time>2026-03-29T08:33:59.999Z</time></trkpt><trkpt lat="44.03522688629033" lon="8.02195932731583"><ele>516.0</ele><time>2026-03-29T08:34:00.999Z</time></trkpt><trkpt lat="44.03515988569955" lon="8.021823912595615"><ele>516.0</ele><time>2026-03-29T08:34:02.999Z</time></trkpt><trkpt lat="44.03519739041249" lon="8.021669340055142"><ele>521.5</ele><time>2026-03-29T08:34:03.999Z</time></trkpt><trkpt lat="44.03515309610205" lon="8.021487539924442"><ele>527.0</ele><time>2026-03-29T08:34:04.999Z</time></trkpt><trkpt lat="44.0351008962734" lon="8.021400828431428"><ele>532.5</ele><time>2026-03-29T08:34:05.999Z</time></trkpt><trkpt lat="44.035004270877586" lon="8.021321431697967"><ele>538.0</ele><time>2026-03-29T08:34:06.999Z</time></trkpt><trkpt lat="44.03492483282023" lon="8.021164056657287"><ele>538.0</ele><time>2026-03-29T08:34:07.999Z</time></trkpt><trkpt lat="44.03485523208542" lon="8.02098239754002"><ele>538.0</ele><time>2026-03-29T08:34:08.999Z</time></trkpt><trkpt lat="44.03477974449884" lon="8.020853408536773"><ele>538.0</ele><time>2026-03-29T08:34:10.999Z</time></trkpt><trkpt lat="44.03467812036241" lon="8.020935529214471"><ele>538.0</ele><time>2026-03-29T08:34:11.999Z</time></trkpt><trkpt lat="44.03450564805413" lon="8.021044023686079"><ele>538.0</ele><time>2026-03-29T08:34:12.999Z</time></trkpt><trkpt lat="44.03431492680087" lon="8.02105434598527"><ele>538.0</ele><time>2026-03-29T08:34:13.999Z</time></trkpt><trkpt lat="44.03412660644445" lon="8.021080163956237"><ele>538.0</ele><time>2026-03-29T08:34:14.999Z</time></trkpt><trkpt lat="44.03395315142322" lon="8.021095989256848"><ele>532.0</ele><time>2026-03-29T08:34:15.999Z</time></trkpt><trkpt lat="44.0338028874049" lon="8.021108921164984"><ele>526.0</ele><time>2026-03-29T08:34:16.999Z</time></trkpt><trkpt lat="44.033712321617514" lon="8.021036916816353"><ele>520.0</ele><time>2026-03-29T08:34:17.999Z</time></trkpt><trkpt lat="44.03361262001852" lon="8.020952105722271"><ele>514.0</ele><time>2026-03-29T08:34:18.999Z</time></trkpt><trkpt lat="44.03353242450056" lon="8.02092392249613"><ele>514.0</ele><time>2026-03-29T08:34:19.999Z</time></trkpt><trkpt lat="44.03349199809836" lon="8.020837417684184"><ele>514.0</ele><time>2026-03-29T08:34:20.999Z</time></trkpt><trkpt lat="44.03342894402442" lon="8.020669842317885"><ele>514.0</ele><time>2026-03-29T08:34:21.999Z</time></trkpt><trkpt lat="44.03337260490673" lon="8.020473981289317"><ele>514.0</ele><time>2026-03-29T08:34:22.999Z</time></trkpt><trkpt lat="44.03338913128098" lon="8.020333975905144"><ele>514.0</ele><time>2026-03-29T08:34:23.999Z</time></trkpt><trkpt lat="44.03342947015368" lon="8.020166638602353"><ele>514.0</ele><time>2026-03-29T08:34:24.999Z</time></trkpt><trkpt lat="44.0334783971064" lon="8.019933183671979"><ele>514.0</ele><time>2026-03-29T08:34:25.999Z</time></trkpt><trkpt lat="44.033510462423365" lon="8.019693469911168"><ele>511.33333333333337</ele><time>2026-03-29T08:34:26.999Z</time></trkpt><trkpt lat="44.033488427473465" lon="8.019423816075506"><ele>508.66666666666663</ele><time>2026-03-29T08:34:28Z</time></trkpt><trkpt lat="44.03347982507223" lon="8.019210984525973"><ele>506.0</ele><time>2026-03-29T08:34:29Z</time></trkpt><trkpt lat="44.03349709446929" lon="8.019030228550777"><ele>506.0</ele><time>2026-03-29T08:34:30Z</time></trkpt><trkpt lat="44.03352668604625" lon="8.018881672018571"><ele>506.0</ele><time>2026-03-29T08:34:31Z</time></trkpt><trkpt lat="44.03353941359868" lon="8.01869880397454"><ele>506.0</ele><time>2026-03-29T08:34:32Z</time></trkpt><trkpt lat="44.033555585690294" lon="8.018538118434247"><ele>506.0</ele><time>2026-03-29T08:34:33Z</time></trkpt><trkpt lat="44.033573277131204" lon="8.018408628490171"><ele>506.0</ele><time>2026-03-29T08:34:34Z</time></trkpt><trkpt lat="44.0335667668143" lon="8.018320499630098"><ele>506.0</ele><time>2026-03-29T08:34:35Z</time></trkpt><trkpt lat="44.03349672012375" lon="8.018299916899451"><ele>506.0</ele><time>2026-03-29T08:34:36Z</time></trkpt><trkpt lat="44.033366813755805" lon="8.018184327053135"><ele>506.0</ele><time>2026-03-29T08:34:37Z</time></trkpt><trkpt lat="44.03324571984359" lon="8.018082674952703"><ele>506.0</ele><time>2026-03-29T08:34:38Z</time></trkpt><trkpt lat="44.033162411968135" lon="8.017985393238826"><ele>497.99999999999994</ele><time>2026-03-29T08:34:39Z</time></trkpt><trkpt lat="44.03308214634765" lon="8.017934699825103"><ele>490.0</ele><time>2026-03-29T08:34:40Z</time></trkpt><trkpt lat="44.03304957938842" lon="8.017833076280093"><ele>482.0</ele><time>2026-03-29T08:34:41Z</time></trkpt><trkpt lat="44.03304062676765" lon="8.017743672372257"><ele>474.0</ele><time>2026-03-29T08:34:42Z</time></trkpt><trkpt lat="44.03305819343943" lon="8.017627246045965"><ele>465.99999999999994</ele><time>2026-03-29T08:34:43Z</time></trkpt><trkpt lat="44.03309821255009" lon="8.017527758567265"><ele>458.0</ele><time>2026-03-29T08:34:44Z</time></trkpt><trkpt lat="44.03315328911932" lon="8.017432144026422"><ele>456.5</ele><time>2026-03-29T08:34:45Z</time></trkpt><trkpt lat="44.03323558222615" lon="8.01735008753642"><ele>455.0</ele><time>2026-03-29T08:34:46Z</time></trkpt><trkpt lat="44.03330020856118" lon="8.01725028001616"><ele>453.5</ele><time>2026-03-29T08:34:47Z</time></trkpt><trkpt lat="44.033257432789426" lon="8.017077530623126"><ele>452.0</ele><time>2026-03-29T08:34:49Z</time></trkpt><trkpt lat="44.03321792482123" lon="8.016912643516807"><ele>452.0</ele><time>2026-03-29T08:34:51Z</time></trkpt><trkpt lat="44.033208540586706" lon="8.016816429466452"><ele>452.00000000000006</ele><time>2026-03-29T08:34:52Z</time></trkpt><trkpt lat="44.033224826350626" lon="8.016652633835855"><ele>452.00000000000006</ele><time>2026-03-29T08:34:54Z</time></trkpt><trkpt lat="44.03323651699683" lon="8.016561656562866"><ele>452.0</ele><time>2026-03-29T08:34:55Z</time></trkpt><trkpt lat="44.033303858576865" lon="8.016425484648943"><ele>452.0</ele><time>2026-03-29T08:34:57Z</time></trkpt><trkpt lat="44.03333670411652" lon="8.016296526444897"><ele>452.0</ele><time>2026-03-29T08:34:59Z</time></trkpt><trkpt lat="44.033287525906" lon="8.01622387299473"><ele>452.00000000000006</ele><time>2026-03-29T08:35:01Z</time></trkpt><trkpt lat="44.03319125393843" lon="8.016349153766651"><ele>452.00000000000006</ele><time>2026-03-29T08:35:03Z</time></trkpt><trkpt lat="44.03315948611787" lon="8.016446920269352"><ele>452.0</ele><time>2026-03-29T08:35:04Z</time></trkpt><trkpt lat="44.03311408244492" lon="8.016538783478154"><ele>452.0</ele><time>2026-03-29T08:35:05Z</time></trkpt><trkpt lat="44.033071004204245" lon="8.016667016711905"><ele>451.99999999999994</ele><time>2026-03-29T08:35:07Z</time></trkpt><trkpt lat="44.03305641891299" lon="8.016824579401337"><ele>452.0</ele><time>2026-03-29T08:35:09Z</time></trkpt><trkpt lat="44.03303811885548" lon="8.016927005282872"><ele>452.0</ele><time>2026-03-29T08:35:10Z</time></trkpt><trkpt lat="44.03302385627917" lon="8.017025438699166"><ele>452.0</ele><time>2026-03-29T08:35:11Z</time></trkpt><trkpt lat="44.03300532473544" lon="8.017121504236508"><ele>451.99999999999994</ele><time>2026-03-29T08:35:12Z</time></trkpt><trkpt lat="44.032970317885045" lon="8.017218535708443"><ele>452.0</ele><time>2026-03-29T08:35:13Z</time></trkpt><trkpt lat="44.03292108471715" lon="8.017296367015902"><ele>451.99999999999994</ele><time>2026-03-29T08:35:14Z</time></trkpt><trkpt lat="44.03287221482481" lon="8.017368571570536"><ele>452.0</ele><time>2026-03-29T08:35:15Z</time></trkpt><trkpt lat="44.032814875695216" lon="8.017451609542366"><ele>452.0</ele><time>2026-03-29T08:35:16Z</time></trkpt><trkpt lat="44.03276846666214" lon="8.017549272758934"><ele>452.0</ele><time>2026-03-29T08:35:17Z</time></trkpt><trkpt lat="44.032737464338034" lon="8.017656646835757"><ele>451.99999999999994</ele><time>2026-03-29T08:35:18Z</time></trkpt><trkpt lat="44.03272210135229" lon="8.017760637440496"><ele>452.0</ele><time>2026-03-29T08:35:19Z</time></trkpt><trkpt lat="44.032717736035075" lon="8.017868863405976"><ele>452.66666666666663</ele><time>2026-03-29T08:35:20Z</time></trkpt><trkpt lat="44.03270941297971" lon="8.017973701100827"><ele>453.3333333333333</ele><time>2026-03-29T08:35:21Z</time></trkpt><trkpt lat="44.03270614264571" lon="8.018083932756687"><ele>454.0</ele><time>2026-03-29T08:35:22Z</time></trkpt><trkpt lat="44.032707011403964" lon="8.018196897059532"><ele>454.66666666666663</ele><time>2026-03-29T08:35:23Z</time></trkpt><trkpt lat="44.03271978959784" lon="8.018303197980359"><ele>455.3333333333333</ele><time>2026-03-29T08:35:24Z</time></trkpt><trkpt lat="44.032757738273425" lon="8.01840540922961"><ele>456.0</ele><time>2026-03-29T08:35:25Z</time></trkpt><trkpt lat="44.03281359206267" lon="8.018486995727704"><ele>456.0</ele><time>2026-03-29T08:35:26Z</time></trkpt><trkpt lat="44.03285817431847" lon="8.018566303166207"><ele>456.0</ele><time>2026-03-29T08:35:27Z</time></trkpt><trkpt lat="44.03284838761247" lon="8.018672175115054"><ele>456.0</ele><time>2026-03-29T08:35:28Z</time></trkpt><trkpt lat="44.03278534034553" lon="8.018779935075946"><ele>456.0</ele><time>2026-03-29T08:35:29Z</time></trkpt><trkpt lat="44.032724192750806" lon="8.018874001462397"><ele>456.0</ele><time>2026-03-29T08:35:30Z</time></trkpt><trkpt lat="44.032661753066236" lon="8.01895691166532"><ele>456.0</ele><time>2026-03-29T08:35:31Z</time></trkpt><trkpt lat="44.03261219832235" lon="8.019045505535036"><ele>456.0</ele><time>2026-03-29T08:35:32Z</time></trkpt><trkpt lat="44.03256180901896" lon="8.019140059618776"><ele>456.0</ele><time>2026-03-29T08:35:33Z</time></trkpt><trkpt lat="44.03251600148221" lon="8.01922944709922"><ele>456.0</ele><time>2026-03-29T08:35:34Z</time></trkpt><trkpt lat="44.03246620464531" lon="8.019318625265244"><ele>456.0</ele><time>2026-03-29T08:35:35Z</time></trkpt><trkpt lat="44.03241796482278" lon="8.019405652115365"><ele>456.0</ele><time>2026-03-29T08:35:36Z</time></trkpt><trkpt lat="44.03236777368961" lon="8.019498698279055"><ele>456.0</ele><time>2026-03-29T08:35:37Z</time></trkpt><trkpt lat="44.03231182908835" lon="8.019586532998453"><ele>454.0</ele><time>2026-03-29T08:35:38Z</time></trkpt><trkpt lat="44.03225433394317" lon="8.019668045965947"><ele>452.0</ele><time>2026-03-29T08:35:39Z</time></trkpt><trkpt lat="44.032191929058264" lon="8.01974548049358"><ele>450.0</ele><time>2026-03-29T08:35:40Z</time></trkpt><trkpt lat="44.03213857468074" lon="8.019824815557586"><ele>448.0</ele><time>2026-03-29T08:35:41Z</time></trkpt><trkpt lat="44.032084069011105" lon="8.019907806035656"><ele>446.0</ele><time>2026-03-29T08:35:41.999Z</time></trkpt><trkpt lat="44.032025245855735" lon="8.019982274421068"><ele>444.0</ele><time>2026-03-29T08:35:42.999Z</time></trkpt><trkpt lat="44.03196107161397" lon="8.020042717686517"><ele>444.0</ele><time>2026-03-29T08:35:43.999Z</time></trkpt><trkpt lat="44.03189690180299" lon="8.020100321500614"><ele>444.0</ele><time>2026-03-29T08:35:44.999Z</time></trkpt><trkpt lat="44.03183414179743" lon="8.020154658287922"><ele>444.0</ele><time>2026-03-29T08:35:45.999Z</time></trkpt><trkpt lat="44.03178096140432" lon="8.020216985364081"><ele>444.0</ele><time>2026-03-29T08:35:46.999Z</time></trkpt><trkpt lat="44.03174057031167" lon="8.020299364133663"><ele>444.0</ele><time>2026-03-29T08:35:47.999Z</time></trkpt><trkpt lat="44.03172558472494" lon="8.020392058033062"><ele>444.0</ele><time>2026-03-29T08:35:48.999Z</time></trkpt><trkpt lat="44.031751413598805" lon="8.020486294723726"><ele>444.0</ele><time>2026-03-29T08:35:49.999Z</time></trkpt><trkpt lat="44.03180826722405" lon="8.020583754552632"><ele>444.0</ele><time>2026-03-29T08:35:50.999Z</time></trkpt><trkpt lat="44.03188051172803" lon="8.020668980436616"><ele>444.0</ele><time>2026-03-29T08:35:51.999Z</time></trkpt><trkpt lat="44.03195345993042" lon="8.020760118166775"><ele>444.0</ele><time>2026-03-29T08:35:52.999Z</time></trkpt><trkpt lat="44.03200955324423" lon="8.020842409408182"><ele>444.0</ele><time>2026-03-29T08:35:53.999Z</time></trkpt><trkpt lat="44.03205380305918" lon="8.020947744653252"><ele>444.0</ele><time>2026-03-29T08:35:54.999Z</time></trkpt><trkpt lat="44.03211168480421" lon="8.02104919143316"><ele>442.8333333333333</ele><time>2026-03-29T08:35:55.999Z</time></trkpt><trkpt lat="44.032175355713754" lon="8.021138629957862"><ele>441.66666666666663</ele><time>2026-03-29T08:35:56.999Z</time></trkpt><trkpt lat="44.03223836720102" lon="8.021227142262315"><ele>440.5</ele><time>2026-03-29T08:35:57.999Z</time></trkpt><trkpt lat="44.032310431334714" lon="8.021298148844854"><ele>439.3333333333333</ele><time>2026-03-29T08:35:58.999Z</time></trkpt><trkpt lat="44.03236238306254" lon="8.021377212450748"><ele>438.16666666666663</ele><time>2026-03-29T08:35:59.999Z</time></trkpt><trkpt lat="44.0324140571446" lon="8.021456282037839"><ele>437.0</ele><time>2026-03-29T08:36:00.999Z</time></trkpt><trkpt lat="44.03246693214901" lon="8.021564002500861"><ele>438.16666666666663</ele><time>2026-03-29T08:36:01.999Z</time></trkpt><trkpt lat="44.03251093176547" lon="8.021659132814547"><ele>439.3333333333333</ele><time>2026-03-29T08:36:02.999Z</time></trkpt><trkpt lat="44.03255153247169" lon="8.021759861429352"><ele>440.5</ele><time>2026-03-29T08:36:03.999Z</time></trkpt><trkpt lat="44.0325897419913" lon="8.021855111390263"><ele>441.66666666666663</ele><time>2026-03-29T08:36:04.999Z</time></trkpt><trkpt lat="44.03263310027134" lon="8.021939203662985"><ele>442.8333333333333</ele><time>2026-03-29T08:36:05.999Z</time></trkpt><trkpt lat="44.03267859859931" lon="8.022023986537302"><ele>444.0</ele><time>2026-03-29T08:36:06.999Z</time></trkpt><trkpt lat="44.032729323255246" lon="8.022100112640572"><ele>444.0</ele><time>2026-03-29T08:36:07.999Z</time></trkpt><trkpt lat="44.03277783749832" lon="8.022170075535643"><ele>444.0</ele><time>2026-03-29T08:36:08.999Z</time></trkpt><trkpt lat="44.03283057043028" lon="8.02224363175448"><ele>444.0</ele><time>2026-03-29T08:36:09.999Z</time></trkpt><trkpt lat="44.03289066652501" lon="8.022304508034827"><ele>444.0</ele><time>2026-03-29T08:36:10.999Z</time></trkpt><trkpt lat="44.032951054556165" lon="8.022378710312044"><ele>444.0</ele><time>2026-03-29T08:36:11.999Z</time></trkpt><trkpt lat="44.03300856286639" lon="8.022448372642108"><ele>444.0</ele><time>2026-03-29T08:36:12.999Z</time></trkpt><trkpt lat="44.03306569491606" lon="8.022521678725438"><ele>444.3333333333333</ele><time>2026-03-29T08:36:13.999Z</time></trkpt><trkpt lat="44.03311964487135" lon="8.022600591080241"><ele>444.66666666666663</ele><time>2026-03-29T08:36:14.999Z</time></trkpt><trkpt lat="44.033169433759895" lon="8.022687085045522"><ele>445.0</ele><time>2026-03-29T08:36:15.999Z</time></trkpt><trkpt lat="44.03321536724682" lon="8.022771121380467"><ele>445.3333333333333</ele><time>2026-03-29T08:36:16.999Z</time></trkpt><trkpt lat="44.03326776436858" lon="8.02284533552988"><ele>445.66666666666663</ele><time>2026-03-29T08:36:17.999Z</time></trkpt><trkpt lat="44.03333134747565" lon="8.022878322117444"><ele>446.0</ele><time>2026-03-29T08:36:18.999Z</time></trkpt><trkpt lat="44.03340890732874" lon="8.022871975406574"><ele>445.99999999999994</ele><time>2026-03-29T08:36:19.999Z</time></trkpt><trkpt lat="44.033484723952625" lon="8.022839870150147"><ele>446.0</ele><time>2026-03-29T08:36:20.999Z</time></trkpt><trkpt lat="44.0335544428402" lon="8.022781758545126"><ele>446.0</ele><time>2026-03-29T08:36:21.999Z</time></trkpt><trkpt lat="44.03363284245061" lon="8.02273815330624"><ele>446.0</ele><time>2026-03-29T08:36:22.999Z</time></trkpt><trkpt lat="44.03370977618818" lon="8.022715579141726"><ele>445.99999999999994</ele><time>2026-03-29T08:36:23.999Z</time></trkpt><trkpt lat="44.033788467484435" lon="8.022699976599512"><ele>446.0</ele><time>2026-03-29T08:36:24.999Z</time></trkpt><trkpt lat="44.03386446313998" lon="8.022686521937276"><ele>445.99999999999994</ele><time>2026-03-29T08:36:25.999Z</time></trkpt><trkpt lat="44.03394136865833" lon="8.02270090934008"><ele>446.0</ele><time>2026-03-29T08:36:26.999Z</time></trkpt><trkpt lat="44.03401287323437" lon="8.022684384568851"><ele>446.0</ele><time>2026-03-29T08:36:27.999Z</time></trkpt><trkpt lat="44.034077290847954" lon="8.022683989785673"><ele>446.0</ele><time>2026-03-29T08:36:28.999Z</time></trkpt><trkpt lat="44.0341389162183" lon="8.022734518643801"><ele>445.99999999999994</ele><time>2026-03-29T08:36:29.999Z</time></trkpt><trkpt lat="44.034196855595525" lon="8.022835420193918"><ele>446.0</ele><time>2026-03-29T08:36:30.999Z</time></trkpt><trkpt lat="44.03419053703594" lon="8.022995136105322"><ele>443.3333333333333</ele><time>2026-03-29T08:36:31.999Z</time></trkpt><trkpt lat="44.03418764714295" lon="8.023098646625334"><ele>440.66666666666663</ele><time>2026-03-29T08:36:33Z</time></trkpt><trkpt lat="44.034193574386656" lon="8.023195616993291"><ele>438.0</ele><time>2026-03-29T08:36:34Z</time></trkpt><trkpt lat="44.03421733183083" lon="8.023299334479182"><ele>435.33333333333337</ele><time>2026-03-29T08:36:35Z</time></trkpt><trkpt lat="44.034267358191244" lon="8.023382845746877"><ele>432.6666666666667</ele><time>2026-03-29T08:36:36Z</time></trkpt><trkpt lat="44.03431380509667" lon="8.023482255469549"><ele>430.0</ele><time>2026-03-29T08:36:37Z</time></trkpt><trkpt lat="44.034376289855075" lon="8.023562104944437"><ele>430.00000000000006</ele><time>2026-03-29T08:36:38Z</time></trkpt><trkpt lat="44.03445846554069" lon="8.023599319198931"><ele>430.0</ele><time>2026-03-29T08:36:39Z</time></trkpt><trkpt lat="44.03453704121808" lon="8.023633176361825"><ele>430.0</ele><time>2026-03-29T08:36:40Z</time></trkpt><trkpt lat="44.03459268702159" lon="8.023685648738018"><ele>430.0</ele><time>2026-03-29T08:36:41Z</time></trkpt><trkpt lat="44.03466035455619" lon="8.023752246527074"><ele>430.00000000000006</ele><time>2026-03-29T08:36:42Z</time></trkpt><trkpt lat="44.03470392745246" lon="8.023855189240036"><ele>430.0</ele><time>2026-03-29T08:36:43Z</time></trkpt><trkpt lat="44.03475244611245" lon="8.023953904423177"><ele>430.0</ele><time>2026-03-29T08:36:44Z</time></trkpt><trkpt lat="44.03479974350403" lon="8.024029360315263"><ele>430.0</ele><time>2026-03-29T08:36:45Z</time></trkpt><trkpt lat="44.0348389074831" lon="8.024107722252696"><ele>430.0</ele><time>2026-03-29T08:36:46Z</time></trkpt><trkpt lat="44.03485015523246" lon="8.024197147611964"><ele>430.0</ele><time>2026-03-29T08:36:47Z</time></trkpt><trkpt lat="44.03481787440875" lon="8.024289310484859"><ele>430.0</ele><time>2026-03-29T08:36:48Z</time></trkpt><trkpt lat="44.03476755280823" lon="8.024378466544198"><ele>430.0</ele><time>2026-03-29T08:36:49Z</time></trkpt><trkpt lat="44.03471506460246" lon="8.024457948487768"><ele>430.0</ele><time>2026-03-29T08:36:50Z</time></trkpt><trkpt lat="44.03467474817834" lon="8.02455315840338"><ele>424.33333333333337</ele><time>2026-03-29T08:36:51Z</time></trkpt><trkpt lat="44.034633927199124" lon="8.024648242391965"><ele>418.6666666666667</ele><time>2026-03-29T08:36:52Z</time></trkpt><trkpt lat="44.03462610508961" lon="8.02476507077084"><ele>413.0</ele><time>2026-03-29T08:36:53Z</time></trkpt><trkpt lat="44.03463023602031" lon="8.024879015556085"><ele>407.33333333333337</ele><time>2026-03-29T08:36:54Z</time></trkpt><trkpt lat="44.03463653387236" lon="8.024994646778115"><ele>401.6666666666667</ele><time>2026-03-29T08:36:55Z</time></trkpt><trkpt lat="44.03462141072744" lon="8.025115646773394"><ele>396.0</ele><time>2026-03-29T08:36:56Z</time></trkpt><trkpt lat="44.034586440355916" lon="8.025225084838294"><ele>395.0</ele><time>2026-03-29T08:36:57Z</time></trkpt><trkpt lat="44.034533370712985" lon="8.02531151275922"><ele>394.0</ele><time>2026-03-29T08:36:58Z</time></trkpt><trkpt lat="44.034466388175524" lon="8.025370168752652"><ele>393.0</ele><time>2026-03-29T08:36:59Z</time></trkpt><trkpt lat="44.03438660768594" lon="8.02541762260416"><ele>392.0</ele><time>2026-03-29T08:37:00Z</time></trkpt><trkpt lat="44.03431646168041" lon="8.025474531665207"><ele>391.0</ele><time>2026-03-29T08:37:01Z</time></trkpt><trkpt lat="44.03426137099747" lon="8.025544659001362"><ele>390.0</ele><time>2026-03-29T08:37:02Z</time></trkpt><trkpt lat="44.03422934197423" lon="8.02562957956282"><ele>390.0</ele><time>2026-03-29T08:37:03Z</time></trkpt><trkpt lat="44.03423238969031" lon="8.02573322944865"><ele>390.0</ele><time>2026-03-29T08:37:04Z</time></trkpt><trkpt lat="44.034275638291874" lon="8.02581503927799"><ele>390.0</ele><time>2026-03-29T08:37:05Z</time></trkpt><trkpt lat="44.03433715465568" lon="8.025859398198289"><ele>390.0</ele><time>2026-03-29T08:37:06Z</time></trkpt><trkpt lat="44.034269151765564" lon="8.025919149964247"><ele>390.0</ele><time>2026-03-29T08:37:09Z</time></trkpt><trkpt lat="44.0342146739842" lon="8.025839806467374"><ele>390.0</ele><time>2026-03-29T08:37:10Z</time></trkpt><trkpt lat="44.03416860739306" lon="8.025729429300895"><ele>390.0</ele><time>2026-03-29T08:37:11Z</time></trkpt><trkpt lat="44.0341513434692" lon="8.025625117065092"><ele>390.0</ele><time>2026-03-29T08:37:12Z</time></trkpt><trkpt lat="44.03419563981508" lon="8.025442720704003"><ele>390.0</ele><time>2026-03-29T08:37:14Z</time></trkpt><trkpt lat="44.03426626847652" lon="8.025379898960294"><ele>390.0</ele><time>2026-03-29T08:37:15Z</time></trkpt><trkpt lat="44.034322999059036" lon="8.025309826196823"><ele>390.0</ele><time>2026-03-29T08:37:16Z</time></trkpt><trkpt lat="44.034373849827425" lon="8.025221853159257"><ele>390.0</ele><time>2026-03-29T08:37:17Z</time></trkpt><trkpt lat="44.03442633623729" lon="8.025135591604233"><ele>390.0</ele><time>2026-03-29T08:37:18Z</time></trkpt><trkpt lat="44.03445464357821" lon="8.02505077604688"><ele>390.0</ele><time>2026-03-29T08:37:19Z</time></trkpt><trkpt lat="44.034451946634995" lon="8.024944454014186"><ele>390.0</ele><time>2026-03-29T08:37:20Z</time></trkpt><trkpt lat="44.03442392200158" lon="8.024838956002464"><ele>390.0</ele><time>2026-03-29T08:37:21Z</time></trkpt><trkpt lat="44.0343972860965" lon="8.024723973695114"><ele>390.0</ele><time>2026-03-29T08:37:22Z</time></trkpt><trkpt lat="44.0343916295898" lon="8.024615787960096"><ele>391.0</ele><time>2026-03-29T08:37:23Z</time></trkpt><trkpt lat="44.034413197500804" lon="8.024517853170298"><ele>392.0</ele><time>2026-03-29T08:37:24Z</time></trkpt><trkpt lat="44.034443120611876" lon="8.024426129131273"><ele>393.0</ele><time>2026-03-29T08:37:25Z</time></trkpt><trkpt lat="44.03444760370693" lon="8.024332443303472"><ele>394.0</ele><time>2026-03-29T08:37:26Z</time></trkpt><trkpt lat="44.034408412265904" lon="8.024234553846522"><ele>395.0</ele><time>2026-03-29T08:37:27Z</time></trkpt><trkpt lat="44.03434474931829" lon="8.024150573245528"><ele>396.0</ele><time>2026-03-29T08:37:28Z</time></trkpt><trkpt lat="44.03429230308483" lon="8.024065901704848"><ele>398.1666666666667</ele><time>2026-03-29T08:37:29Z</time></trkpt><trkpt lat="44.03424586440129" lon="8.023982929016471"><ele>400.33333333333337</ele><time>2026-03-29T08:37:30Z</time></trkpt><trkpt lat="44.03417627492311" lon="8.02393930633465"><ele>402.5</ele><time>2026-03-29T08:37:31Z</time></trkpt><trkpt lat="44.034092285605354" lon="8.023923142301152"><ele>404.6666666666667</ele><time>2026-03-29T08:37:32Z</time></trkpt><trkpt lat="44.0340194724126" lon="8.02389381940328"><ele>406.83333333333337</ele><time>2026-03-29T08:37:33Z</time></trkpt><trkpt lat="44.033970745932876" lon="8.02382047577365"><ele>409.0</ele><time>2026-03-29T08:37:34Z</time></trkpt><trkpt lat="44.03392507982351" lon="8.023705135118396"><ele>409.00000000000006</ele><time>2026-03-29T08:37:35Z</time></trkpt><trkpt lat="44.03386505800582" lon="8.023618028504202"><ele>409.0</ele><time>2026-03-29T08:37:36Z</time></trkpt><trkpt lat="44.033794602858926" lon="8.023556149215612"><ele>409.0</ele><time>2026-03-29T08:37:37Z</time></trkpt><trkpt lat="44.033719733224956" lon="8.023501424107957"><ele>409.0</ele><time>2026-03-29T08:37:37.999Z</time></trkpt><trkpt lat="44.033639851279275" lon="8.023471152029815"><ele>409.00000000000006</ele><time>2026-03-29T08:37:38.999Z</time></trkpt><trkpt lat="44.033560911633906" lon="8.023491906162214"><ele>409.0</ele><time>2026-03-29T08:37:39.999Z</time></trkpt><trkpt lat="44.03349088187127" lon="8.023565408498957"><ele>409.00000000000006</ele><time>2026-03-29T08:37:40.999Z</time></trkpt><trkpt lat="44.033416865813656" lon="8.023647554552273"><ele>409.0</ele><time>2026-03-29T08:37:41.999Z</time></trkpt><trkpt lat="44.03335222927951" lon="8.023695718343953"><ele>409.0</ele><time>2026-03-29T08:37:42.999Z</time></trkpt><trkpt lat="44.03328194419225" lon="8.023718865601273"><ele>409.0</ele><time>2026-03-29T08:37:43.999Z</time></trkpt><trkpt lat="44.03320876304657" lon="8.023739249985812"><ele>409.00000000000006</ele><time>2026-03-29T08:37:44.999Z</time></trkpt><trkpt lat="44.03313603339048" lon="8.02372598618066"><ele>409.0</ele><time>2026-03-29T08:37:45.999Z</time></trkpt><trkpt lat="44.03304915389854" lon="8.0237222847253"><ele>406.1428571428571</ele><time>2026-03-29T08:37:46.999Z</time></trkpt><trkpt lat="44.032972624308" lon="8.023738982917264"><ele>403.28571428571433</ele><time>2026-03-29T08:37:47.999Z</time></trkpt><trkpt lat="44.03289953521113" lon="8.023761998771633"><ele>400.42857142857144</ele><time>2026-03-29T08:37:48.999Z</time></trkpt><trkpt lat="44.032830737269606" lon="8.023806273645302"><ele>397.57142857142856</ele><time>2026-03-29T08:37:49.999Z</time></trkpt><trkpt lat="44.03277007708687" lon="8.023870653043014"><ele>394.71428571428567</ele><time>2026-03-29T08:37:50.999Z</time></trkpt><trkpt lat="44.03270075149238" lon="8.023916907043112"><ele>391.8571428571429</ele><time>2026-03-29T08:37:51.999Z</time></trkpt><trkpt lat="44.03264203720209" lon="8.023963817628308"><ele>389.0</ele><time>2026-03-29T08:37:52.999Z</time></trkpt><trkpt lat="44.03258267732414" lon="8.024003260094448"><ele>388.99999999999994</ele><time>2026-03-29T08:37:53.999Z</time></trkpt><trkpt lat="44.03250528232492" lon="8.02399263487031"><ele>389.0</ele><time>2026-03-29T08:37:54.999Z</time></trkpt><trkpt lat="44.03242315777367" lon="8.023984319419768"><ele>389.0</ele><time>2026-03-29T08:37:55.999Z</time></trkpt><trkpt lat="44.03235329680037" lon="8.02397639565895"><ele>389.0</ele><time>2026-03-29T08:37:56.999Z</time></trkpt><trkpt lat="44.03229200802586" lon="8.023952869146761"><ele>388.99999999999994</ele><time>2026-03-29T08:37:57.999Z</time></trkpt><trkpt lat="44.03223201782951" lon="8.023912904363003"><ele>389.0</ele><time>2026-03-29T08:37:58.999Z</time></trkpt><trkpt lat="44.03216391335455" lon="8.023788626485214"><ele>387.66666666666663</ele><time>2026-03-29T08:38:00.999Z</time></trkpt><trkpt lat="44.03216529414534" lon="8.023688435400429"><ele>386.3333333333333</ele><time>2026-03-29T08:38:01.999Z</time></trkpt><trkpt lat="44.032145159853826" lon="8.023591205032147"><ele>385.0</ele><time>2026-03-29T08:38:02.999Z</time></trkpt><trkpt lat="44.0321162359986" lon="8.02346838371829"><ele>383.66666666666663</ele><time>2026-03-29T08:38:03.999Z</time></trkpt><trkpt lat="44.03206341980595" lon="8.023367286041804"><ele>382.3333333333333</ele><time>2026-03-29T08:38:04.999Z</time></trkpt><trkpt lat="44.03201725032727" lon="8.023271413757534"><ele>381.0</ele><time>2026-03-29T08:38:05.999Z</time></trkpt><trkpt lat="44.03196687694699" lon="8.02319978204372"><ele>381.0</ele><time>2026-03-29T08:38:06.999Z</time></trkpt><trkpt lat="44.031912865058175" lon="8.023135089357007"><ele>381.0</ele><time>2026-03-29T08:38:07.999Z</time></trkpt><trkpt lat="44.03184979632888" lon="8.023068274504817"><ele>381.0</ele><time>2026-03-29T08:38:08.999Z</time></trkpt><trkpt lat="44.03178202884547" lon="8.023005967987588"><ele>381.0</ele><time>2026-03-29T08:38:09.999Z</time></trkpt><trkpt lat="44.0317232869633" lon="8.022948868743997"><ele>381.0</ele><time>2026-03-29T08:38:10.999Z</time></trkpt><trkpt lat="44.03166044510096" lon="8.022904464440487"><ele>381.0</ele><time>2026-03-29T08:38:11.999Z</time></trkpt><trkpt lat="44.031597502773266" lon="8.022859032907482"><ele>381.0</ele><time>2026-03-29T08:38:12.999Z</time></trkpt><trkpt lat="44.031528454200874" lon="8.02280807887649"><ele>380.6666666666667</ele><time>2026-03-29T08:38:13.999Z</time></trkpt><trkpt lat="44.031472648228764" lon="8.022744218578618"><ele>380.3333333333333</ele><time>2026-03-29T08:38:14.999Z</time></trkpt><trkpt lat="44.03141494812285" lon="8.022698948920619"><ele>380.0</ele><time>2026-03-29T08:38:15.999Z</time></trkpt><trkpt lat="44.031339331499595" lon="8.02266430664376"><ele>379.66666666666663</ele><time>2026-03-29T08:38:16.999Z</time></trkpt><trkpt lat="44.03127641207822" lon="8.022601663600812"><ele>379.3333333333333</ele><time>2026-03-29T08:38:17.999Z</time></trkpt><trkpt lat="44.03121920238705" lon="8.022515333571235"><ele>379.0</ele><time>2026-03-29T08:38:18.999Z</time></trkpt><trkpt lat="44.03116750548916" lon="8.022428430299671"><ele>379.0</ele><time>2026-03-29T08:38:19.999Z</time></trkpt><trkpt lat="44.03111641008558" lon="8.022338288092344"><ele>379.0</ele><time>2026-03-29T08:38:20.999Z</time></trkpt><trkpt lat="44.03106934478052" lon="8.022247556409642"><ele>379.0</ele><time>2026-03-29T08:38:21.999Z</time></trkpt><trkpt lat="44.03102655847486" lon="8.022150518032172"><ele>379.0</ele><time>2026-03-29T08:38:22.999Z</time></trkpt><trkpt lat="44.030985000090695" lon="8.022062328453167"><ele>379.0</ele><time>2026-03-29T08:38:23.999Z</time></trkpt><trkpt lat="44.03094937802187" lon="8.021978678157677"><ele>379.0</ele><time>2026-03-29T08:38:24.999Z</time></trkpt><trkpt lat="44.03091541985569" lon="8.021894688551415"><ele>379.0</ele><time>2026-03-29T08:38:25.999Z</time></trkpt><trkpt lat="44.03087733407707" lon="8.021818284708791"><ele>379.0</ele><time>2026-03-29T08:38:26.999Z</time></trkpt><trkpt lat="44.0308024748973" lon="8.021777986883514"><ele>379.0</ele><time>2026-03-29T08:38:28.999Z</time></trkpt><trkpt lat="44.03080581933189" lon="8.021917489581302"><ele>379.0</ele><time>2026-03-29T08:38:30.999Z</time></trkpt><trkpt lat="44.03085223188371" lon="8.021986854797857"><ele>379.0</ele><time>2026-03-29T08:38:31.999Z</time></trkpt><trkpt lat="44.03091332062084" lon="8.022044449862383"><ele>379.0</ele><time>2026-03-29T08:38:32.999Z</time></trkpt><trkpt lat="44.030947487024456" lon="8.022135367974839"><ele>379.0</ele><time>2026-03-29T08:38:33.999Z</time></trkpt><trkpt lat="44.03096790588354" lon="8.02223188894189"><ele>379.0</ele><time>2026-03-29T08:38:34.999Z</time></trkpt><trkpt lat="44.03100035000996" lon="8.0223396030713"><ele>379.0</ele><time>2026-03-29T08:38:35.999Z</time></trkpt><trkpt lat="44.031034686822636" lon="8.022436035210642"><ele>379.0</ele><time>2026-03-29T08:38:36.999Z</time></trkpt><trkpt lat="44.031072121181126" lon="8.022528735072187"><ele>379.0</ele><time>2026-03-29T08:38:38Z</time></trkpt><trkpt lat="44.03111850839711" lon="8.022614744030845"><ele>379.0</ele><time>2026-03-29T08:38:39Z</time></trkpt><trkpt lat="44.0311700834774" lon="8.022700079383583"><ele>373.66666666666663</ele><time>2026-03-29T08:38:40Z</time></trkpt><trkpt lat="44.031230909785066" lon="8.022774931522292"><ele>368.3333333333333</ele><time>2026-03-29T08:38:41Z</time></trkpt><trkpt lat="44.0312921038765" lon="8.022846021089217"><ele>363.0</ele><time>2026-03-29T08:38:42Z</time></trkpt><trkpt lat="44.0313503923458" lon="8.0229281565896"><ele>357.6666666666667</ele><time>2026-03-29T08:38:43Z</time></trkpt><trkpt lat="44.03140812925092" lon="8.02300690116727"><ele>352.33333333333337</ele><time>2026-03-29T08:38:44Z</time></trkpt><trkpt lat="44.031451196253" lon="8.023101198337775"><ele>347.0</ele><time>2026-03-29T08:38:45Z</time></trkpt><trkpt lat="44.031506128379974" lon="8.023178741885216"><ele>347.0</ele><time>2026-03-29T08:38:46Z</time></trkpt><trkpt lat="44.031565232816845" lon="8.023255303853297"><ele>347.0</ele><time>2026-03-29T08:38:47Z</time></trkpt><trkpt lat="44.031617476247774" lon="8.023332045656955"><ele>347.0</ele><time>2026-03-29T08:38:48Z</time></trkpt><trkpt lat="44.031663485661355" lon="8.023422490308604"><ele>347.0</ele><time>2026-03-29T08:38:49Z</time></trkpt><trkpt lat="44.031688332370656" lon="8.023530291553632"><ele>347.0</ele><time>2026-03-29T08:38:50Z</time></trkpt><trkpt lat="44.031725611993366" lon="8.023642348782245"><ele>347.0</ele><time>2026-03-29T08:38:51Z</time></trkpt><trkpt lat="44.03174803364058" lon="8.02375255359889"><ele>347.6666666666667</ele><time>2026-03-29T08:38:52Z</time></trkpt><trkpt lat="44.031769263911805" lon="8.023854569329252"><ele>348.33333333333337</ele><time>2026-03-29T08:38:53Z</time></trkpt><trkpt lat="44.031780396404784" lon="8.023960879526363"><ele>349.0</ele><time>2026-03-29T08:38:54Z</time></trkpt><trkpt lat="44.031784865328966" lon="8.024072853339357"><ele>349.6666666666667</ele><time>2026-03-29T08:38:55Z</time></trkpt><trkpt lat="44.031779569070984" lon="8.024187459505526"><ele>350.3333333333333</ele><time>2026-03-29T08:38:56Z</time></trkpt><trkpt lat="44.03177224718951" lon="8.024294052305073"><ele>351.0</ele><time>2026-03-29T08:38:57Z</time></trkpt><trkpt lat="44.031774646188715" lon="8.024398765208575"><ele>351.0</ele><time>2026-03-29T08:38:58Z</time></trkpt><trkpt lat="44.0317910924877" lon="8.024501869929393"><ele>351.0</ele><time>2026-03-29T08:38:59Z</time></trkpt><trkpt lat="44.031833603998216" lon="8.024600205257082"><ele>351.0</ele><time>2026-03-29T08:39:00Z</time></trkpt><trkpt lat="44.03188087186362" lon="8.024684361544356"><ele>351.0</ele><time>2026-03-29T08:39:01Z</time></trkpt><trkpt lat="44.03194260400023" lon="8.024740620287178"><ele>351.0</ele><time>2026-03-29T08:39:02Z</time></trkpt><trkpt lat="44.032000197164805" lon="8.024786718668832"><ele>351.0</ele><time>2026-03-29T08:39:03Z</time></trkpt><trkpt lat="44.03207859151931" lon="8.024755042345516"><ele>351.0</ele><time>2026-03-29T08:39:04Z</time></trkpt><trkpt lat="44.03215090755196" lon="8.024674572780913"><ele>351.0</ele><time>2026-03-29T08:39:05Z</time></trkpt><trkpt lat="44.032219800853746" lon="8.024603090274878"><ele>351.0</ele><time>2026-03-29T08:39:06Z</time></trkpt><trkpt lat="44.032287925142036" lon="8.024550535611334"><ele>351.0</ele><time>2026-03-29T08:39:07Z</time></trkpt><trkpt lat="44.03235307890736" lon="8.024509863069634"><ele>351.0</ele><time>2026-03-29T08:39:08Z</time></trkpt><trkpt lat="44.03241636252104" lon="8.024470676267693"><ele>351.0</ele><time>2026-03-29T08:39:09Z</time></trkpt><trkpt lat="44.03249624829393" lon="8.024426870590785"><ele>353.1666666666667</ele><time>2026-03-29T08:39:10Z</time></trkpt><trkpt lat="44.03257339803323" lon="8.024398233575521"><ele>355.3333333333333</ele><time>2026-03-29T08:39:11Z</time></trkpt><trkpt lat="44.032649790101694" lon="8.024378984185006"><ele>357.5</ele><time>2026-03-29T08:39:12Z</time></trkpt><trkpt lat="44.032722961898" lon="8.024365867092827"><ele>359.66666666666663</ele><time>2026-03-29T08:39:13Z</time></trkpt><trkpt lat="44.032791033378786" lon="8.024359977963032"><ele>361.8333333333333</ele><time>2026-03-29T08:39:14Z</time></trkpt><trkpt lat="44.03291786131027" lon="8.024372707432907"><ele>364.0</ele><time>2026-03-29T08:39:16Z</time></trkpt><trkpt lat="44.03298174345599" lon="8.024379608904932"><ele>364.0</ele><time>2026-03-29T08:39:17Z</time></trkpt><trkpt lat="44.033060794848254" lon="8.02438157670896"><ele>364.0</ele><time>2026-03-29T08:39:18Z</time></trkpt><trkpt lat="44.033145030596614" lon="8.024370931943542"><ele>364.0</ele><time>2026-03-29T08:39:19Z</time></trkpt><trkpt lat="44.033224424001055" lon="8.024357134906099"><ele>364.0</ele><time>2026-03-29T08:39:20Z</time></trkpt><trkpt lat="44.033311867004294" lon="8.024328193541054"><ele>364.0</ele><time>2026-03-29T08:39:22Z</time></trkpt><trkpt lat="44.03319354553249" lon="8.024505585272832"><ele>364.0</ele><time>2026-03-29T08:39:25Z</time></trkpt><trkpt lat="44.033123219866944" lon="8.024554880901515"><ele>364.0</ele><time>2026-03-29T08:39:26Z</time></trkpt><trkpt lat="44.03305283261632" lon="8.024586633966958"><ele>364.0</ele><time>2026-03-29T08:39:27Z</time></trkpt><trkpt lat="44.03297945448138" lon="8.024601212491378"><ele>364.0</ele><time>2026-03-29T08:39:28Z</time></trkpt><trkpt lat="44.032908750773004" lon="8.024612983415114"><ele>364.0</ele><time>2026-03-29T08:39:29Z</time></trkpt><trkpt lat="44.03283718798218" lon="8.024615853824656"><ele>364.0</ele><time>2026-03-29T08:39:30Z</time></trkpt><trkpt lat="44.032763390011894" lon="8.024631716554655"><ele>364.0</ele><time>2026-03-29T08:39:31Z</time></trkpt><trkpt lat="44.03269022907906" lon="8.024660436293642"><ele>364.0</ele><time>2026-03-29T08:39:32Z</time></trkpt><trkpt lat="44.03261471961661" lon="8.024693681150872"><ele>364.0</ele><time>2026-03-29T08:39:33Z</time></trkpt><trkpt lat="44.03254693781018" lon="8.024737184686096"><ele>364.0</ele><time>2026-03-29T08:39:34Z</time></trkpt><trkpt lat="44.03248543140366" lon="8.024779245047188"><ele>364.0</ele><time>2026-03-29T08:39:35Z</time></trkpt><trkpt lat="44.03241642007704" lon="8.024811709213424"><ele>364.0</ele><time>2026-03-29T08:39:35.999Z</time></trkpt><trkpt lat="44.03235159885698" lon="8.024817425904317"><ele>364.0</ele><time>2026-03-29T08:39:36.999Z</time></trkpt><trkpt lat="44.032286216077786" lon="8.024807757604844"><ele>364.0</ele><time>2026-03-29T08:39:37.999Z</time></trkpt><trkpt lat="44.032218049752174" lon="8.024825947324828"><ele>361.8333333333333</ele><time>2026-03-29T08:39:38.999Z</time></trkpt><trkpt lat="44.03216577994193" lon="8.02488711781897"><ele>359.66666666666663</ele><time>2026-03-29T08:39:39.999Z</time></trkpt><trkpt lat="44.03212868511051" lon="8.024985100283375"><ele>357.5</ele><time>2026-03-29T08:39:40.999Z</time></trkpt><trkpt lat="44.03208655315331" lon="8.02508671200219"><ele>355.3333333333333</ele><time>2026-03-29T08:39:41.999Z</time></trkpt><trkpt lat="44.032037326073755" lon="8.025163921392044"><ele>353.1666666666667</ele><time>2026-03-29T08:39:42.999Z</time></trkpt><trkpt lat="44.03192821459319" lon="8.025274673437407"><ele>351.0</ele><time>2026-03-29T08:39:44.999Z</time></trkpt><trkpt lat="44.03186991145065" lon="8.025354761364492"><ele>349.0</ele><time>2026-03-29T08:39:45.999Z</time></trkpt><trkpt lat="44.0318233212472" lon="8.025434434432205"><ele>347.0</ele><time>2026-03-29T08:39:46.999Z</time></trkpt><trkpt lat="44.03178580662175" lon="8.025509776881124"><ele>345.0</ele><time>2026-03-29T08:39:47.999Z</time></trkpt><trkpt lat="44.03170388177309" lon="8.025605917857863"><ele>343.0</ele><time>2026-03-29T08:39:49.999Z</time></trkpt><trkpt lat="44.03158573214788" lon="8.025629923511065"><ele>341.0</ele><time>2026-03-29T08:39:51.999Z</time></trkpt><trkpt lat="44.031523423933635" lon="8.025518715669419"><ele>337.33333333333337</ele><time>2026-03-29T08:39:53.999Z</time></trkpt><trkpt lat="44.03146415341824" lon="8.025394875291788"><ele>333.6666666666667</ele><time>2026-03-29T08:39:54.999Z</time></trkpt><trkpt lat="44.03144752481576" lon="8.02529024794243"><ele>330.0</ele><time>2026-03-29T08:39:55.999Z</time></trkpt><trkpt lat="44.031455566081874" lon="8.025187968968394"><ele>326.3333333333333</ele><time>2026-03-29T08:39:56.999Z</time></trkpt><trkpt lat="44.03146383024587" lon="8.025087587925844"><ele>322.66666666666663</ele><time>2026-03-29T08:39:57.999Z</time></trkpt><trkpt lat="44.031454092676746" lon="8.024994306239766"><ele>319.0</ele><time>2026-03-29T08:39:58.999Z</time></trkpt><trkpt lat="44.0314293425237" lon="8.024906134925727"><ele>319.0</ele><time>2026-03-29T08:39:59.999Z</time></trkpt><trkpt lat="44.03138794415007" lon="8.024825207271158"><ele>319.0</ele><time>2026-03-29T08:40:00.999Z</time></trkpt><trkpt lat="44.031347615454266" lon="8.02473545707627"><ele>319.0</ele><time>2026-03-29T08:40:01.999Z</time></trkpt><trkpt lat="44.031333644607365" lon="8.02464360692825"><ele>319.0</ele><time>2026-03-29T08:40:02.999Z</time></trkpt><trkpt lat="44.031306146778135" lon="8.024551867275543"><ele>319.0</ele><time>2026-03-29T08:40:03.999Z</time></trkpt><trkpt lat="44.03127046518344" lon="8.024452457671314"><ele>319.0</ele><time>2026-03-29T08:40:04.999Z</time></trkpt><trkpt lat="44.03123171476651" lon="8.024363579340292"><ele>319.0</ele><time>2026-03-29T08:40:05.999Z</time></trkpt><trkpt lat="44.031171910919255" lon="8.024279900859227"><ele>319.0</ele><time>2026-03-29T08:40:06.999Z</time></trkpt><trkpt lat="44.031110485842156" lon="8.024227566990506"><ele>319.0</ele><time>2026-03-29T08:40:07.999Z</time></trkpt><trkpt lat="44.03105210237372" lon="8.024151995403038"><ele>319.0</ele><time>2026-03-29T08:40:08.999Z</time></trkpt><trkpt lat="44.03100068055211" lon="8.02407765768836"><ele>319.0</ele><time>2026-03-29T08:40:09.999Z</time></trkpt><trkpt lat="44.03095413020324" lon="8.024003484032635"><ele>319.0</ele><time>2026-03-29T08:40:10.999Z</time></trkpt><trkpt lat="44.030902271487115" lon="8.023923572279713"><ele>319.0</ele><time>2026-03-29T08:40:11.999Z</time></trkpt><trkpt lat="44.030843284970544" lon="8.023846232606143"><ele>318.2857142857143</ele><time>2026-03-29T08:40:12.999Z</time></trkpt><trkpt lat="44.03078579241135" lon="8.02378054150148"><ele>317.57142857142856</ele><time>2026-03-29T08:40:13.999Z</time></trkpt><trkpt lat="44.03072986025154" lon="8.023696676495154"><ele>316.85714285714283</ele><time>2026-03-29T08:40:14.999Z</time></trkpt><trkpt lat="44.03067144468137" lon="8.023638189033885"><ele>316.1428571428571</ele><time>2026-03-29T08:40:15.999Z</time></trkpt><trkpt lat="44.030625262327334" lon="8.023572424226266"><ele>315.42857142857144</ele><time>2026-03-29T08:40:16.999Z</time></trkpt><trkpt lat="44.03059130701107" lon="8.023490581497908"><ele>314.71428571428567</ele><time>2026-03-29T08:40:17.999Z</time></trkpt><trkpt lat="44.030544249134884" lon="8.02340782600513"><ele>314.0</ele><time>2026-03-29T08:40:18.999Z</time></trkpt><trkpt lat="44.03052882135864" lon="8.023308784093105"><ele>314.0</ele><time>2026-03-29T08:40:19.999Z</time></trkpt><trkpt lat="44.03050366858461" lon="8.023207664966316"><ele>314.0</ele><time>2026-03-29T08:40:20.999Z</time></trkpt><trkpt lat="44.03048477852878" lon="8.023111349812353"><ele>314.0</ele><time>2026-03-29T08:40:21.999Z</time></trkpt><trkpt lat="44.03046517880767" lon="8.023018374029363"><ele>314.0</ele><time>2026-03-29T08:40:22.999Z</time></trkpt><trkpt lat="44.03043578884521" lon="8.022925479259506"><ele>314.0</ele><time>2026-03-29T08:40:23.999Z</time></trkpt><trkpt lat="44.03040750182304" lon="8.022817053564742"><ele>314.0</ele><time>2026-03-29T08:40:24.999Z</time></trkpt><trkpt lat="44.030326609939095" lon="8.022723675948088"><ele>314.0</ele><time>2026-03-29T08:40:25.999Z</time></trkpt><trkpt lat="44.030227525495754" lon="8.022603099845535"><ele>314.0</ele><time>2026-03-29T08:40:26.999Z</time></trkpt><trkpt lat="44.030114777976436" lon="8.022482301042553"><ele>314.0</ele><time>2026-03-29T08:40:27.999Z</time></trkpt><trkpt lat="44.029975797858505" lon="8.022409930239379"><ele>314.0</ele><time>2026-03-29T08:40:28.999Z</time></trkpt><trkpt lat="44.02982903723507" lon="8.022336126389426"><ele>312.25</ele><time>2026-03-29T08:40:29.999Z</time></trkpt><trkpt lat="44.02971405083616" lon="8.022278848660108"><ele>310.5</ele><time>2026-03-29T08:40:30.999Z</time></trkpt><trkpt lat="44.02961779198219" lon="8.022221778035634"><ele>308.75</ele><time>2026-03-29T08:40:31.999Z</time></trkpt><trkpt lat="44.029573806820224" lon="8.022069171143572"><ele>307.0</ele><time>2026-03-29T08:40:32.999Z</time></trkpt><trkpt lat="44.02946387064383" lon="8.021931528324222"><ele>307.0</ele><time>2026-03-29T08:40:33.999Z</time></trkpt><trkpt lat="44.02935524825691" lon="8.02178836183993"><ele>307.0</ele><time>2026-03-29T08:40:34.999Z</time></trkpt><trkpt lat="44.029250429479454" lon="8.021693422002839"><ele>307.0</ele><time>2026-03-29T08:40:35.999Z</time></trkpt><trkpt lat="44.029157367197804" lon="8.021583431697653"><ele>307.0</ele><time>2026-03-29T08:40:36.999Z</time></trkpt><trkpt lat="44.02902961867323" lon="8.021467457049745"><ele>304.0</ele><time>2026-03-29T08:40:37.999Z</time></trkpt><trkpt lat="44.028890428569646" lon="8.021320170361177"><ele>301.0</ele><time>2026-03-29T08:40:38.999Z</time></trkpt><trkpt lat="44.02874674831089" lon="8.021178027669077"><ele>298.0</ele><time>2026-03-29T08:40:39.999Z</time></trkpt><trkpt lat="44.02862394701997" lon="8.021044445666988"><ele>298.0</ele><time>2026-03-29T08:40:40.999Z</time></trkpt><trkpt lat="44.028501843209476" lon="8.020903783375099"><ele>298.0</ele><time>2026-03-29T08:40:41.999Z</time></trkpt><trkpt lat="44.02838651460348" lon="8.020781355170623"><ele>298.0</ele><time>2026-03-29T08:40:42.999Z</time></trkpt><trkpt lat="44.02823750595608" lon="8.02070350530679"><ele>289.0</ele><time>2026-03-29T08:40:44Z</time></trkpt><trkpt lat="44.02809458301915" lon="8.020603008419247"><ele>280.0</ele><time>2026-03-29T08:40:45Z</time></trkpt><trkpt lat="44.027982479817936" lon="8.02052815910729"><ele>271.0</ele><time>2026-03-29T08:40:46Z</time></trkpt><trkpt lat="44.02785788389067" lon="8.020483407885113"><ele>262.0</ele><time>2026-03-29T08:40:47Z</time></trkpt><trkpt lat="44.02775730337819" lon="8.020444976687422"><ele>262.0</ele><time>2026-03-29T08:40:48Z</time></trkpt><trkpt lat="44.02769991701323" lon="8.020398364854866"><ele>262.0</ele><time>2026-03-29T08:40:49Z</time></trkpt><trkpt lat="44.02770306010906" lon="8.020252353013092"><ele>262.0</ele><time>2026-03-29T08:40:51Z</time></trkpt><trkpt lat="44.02787313510314" lon="8.020162305672944"><ele>262.0</ele><time>2026-03-29T08:40:53Z</time></trkpt><trkpt lat="44.027993882600796" lon="8.020037109354497"><ele>263.3333333333333</ele><time>2026-03-29T08:40:54Z</time></trkpt><trkpt lat="44.028114624754636" lon="8.019923628580914"><ele>264.6666666666667</ele><time>2026-03-29T08:40:55Z</time></trkpt><trkpt lat="44.02825786150839" lon="8.019868945286264"><ele>266.0</ele><time>2026-03-29T08:40:56Z</time></trkpt><trkpt lat="44.0284012082853" lon="8.019748425961566"><ele>266.0</ele><time>2026-03-29T08:40:57Z</time></trkpt><trkpt lat="44.028543611311136" lon="8.019610312104023"><ele>266.0</ele><time>2026-03-29T08:40:58Z</time></trkpt><trkpt lat="44.02863950584037" lon="8.01948704337076"><ele>266.0</ele><time>2026-03-29T08:40:59Z</time></trkpt><trkpt lat="44.02871871913419" lon="8.019390054721818"><ele>266.0</ele><time>2026-03-29T08:41:00Z</time></trkpt><trkpt lat="44.02878057780721" lon="8.019248889246088"><ele>267.6666666666667</ele><time>2026-03-29T08:41:01Z</time></trkpt><trkpt lat="44.028840628828014" lon="8.01905578726117"><ele>269.3333333333333</ele><time>2026-03-29T08:41:02Z</time></trkpt><trkpt lat="44.02890208345783" lon="8.018838588870118"><ele>271.0</ele><time>2026-03-29T08:41:03Z</time></trkpt><trkpt lat="44.028973064472275" lon="8.018623610692527"><ele>271.0</ele><time>2026-03-29T08:41:04Z</time></trkpt><trkpt lat="44.02898615993121" lon="8.018421534934848"><ele>271.0</ele><time>2026-03-29T08:41:05Z</time></trkpt><trkpt lat="44.029031872504085" lon="8.01819342558099"><ele>271.0</ele><time>2026-03-29T08:41:06Z</time></trkpt><trkpt lat="44.0290969141213" lon="8.018033351993566"><ele>271.0</ele><time>2026-03-29T08:41:07Z</time></trkpt><trkpt lat="44.02914418963773" lon="8.01791164275157"><ele>275.0</ele><time>2026-03-29T08:41:08Z</time></trkpt><trkpt lat="44.029211420756724" lon="8.017787666153351"><ele>279.0</ele><time>2026-03-29T08:41:09Z</time></trkpt><trkpt lat="44.029213113878676" lon="8.017661149916519"><ele>283.0</ele><time>2026-03-29T08:41:10Z</time></trkpt><trkpt lat="44.02918252858721" lon="8.017564379864519"><ele>287.0</ele><time>2026-03-29T08:41:11Z</time></trkpt><trkpt lat="44.029046786714616" lon="8.017527916774727"><ele>291.0</ele><time>2026-03-29T08:41:13Z</time></trkpt><trkpt lat="44.02894590652987" lon="8.01761138084208"><ele>297.3333333333333</ele><time>2026-03-29T08:41:14Z</time></trkpt><trkpt lat="44.02882983753683" lon="8.01771841937308"><ele>303.66666666666663</ele><time>2026-03-29T08:41:15Z</time></trkpt><trkpt lat="44.028680849434615" lon="8.017842649288754"><ele>310.0</ele><time>2026-03-29T08:41:16Z</time></trkpt><trkpt lat="44.02851572099434" lon="8.017961356707252"><ele>310.0</ele><time>2026-03-29T08:41:17Z</time></trkpt><trkpt lat="44.028318147553" lon="8.018103834036934"><ele>310.0</ele><time>2026-03-29T08:41:18Z</time></trkpt><trkpt lat="44.02811138940961" lon="8.018247315594202"><ele>296.3333333333333</ele><time>2026-03-29T08:41:19Z</time></trkpt><trkpt lat="44.02789328880222" lon="8.018356737865195"><ele>282.6666666666667</ele><time>2026-03-29T08:41:20Z</time></trkpt><trkpt lat="44.02771907928657" lon="8.018463990894617"><ele>269.0</ele><time>2026-03-29T08:41:21Z</time></trkpt><trkpt lat="44.02760823356802" lon="8.01853795172589"><ele>269.0</ele><time>2026-03-29T08:41:22Z</time></trkpt><trkpt lat="44.02751944530549" lon="8.01859558188121"><ele>269.0</ele><time>2026-03-29T08:41:23Z</time></trkpt><trkpt lat="44.02744978556657" lon="8.018644172613794"><ele>269.0</ele><time>2026-03-29T08:41:24Z</time></trkpt><trkpt lat="44.027365572456006" lon="8.018627894049745"><ele>269.0</ele><time>2026-03-29T08:41:25Z</time></trkpt><trkpt lat="44.027230092403144" lon="8.018612028358898"><ele>269.0</ele><time>2026-03-29T08:41:26Z</time></trkpt><trkpt lat="44.02708584686449" lon="8.018629823540774"><ele>263.59999999999997</ele><time>2026-03-29T08:41:27Z</time></trkpt><trkpt lat="44.02696889316482" lon="8.018629023737965"><ele>258.2</ele><time>2026-03-29T08:41:28Z</time></trkpt><trkpt lat="44.026895565042395" lon="8.018550217826924"><ele>252.79999999999998</ele><time>2026-03-29T08:41:30Z</time></trkpt><trkpt lat="44.026873106326036" lon="8.018450486530812"><ele>247.39999999999998</ele><time>2026-03-29T08:41:31Z</time></trkpt><trkpt lat="44.026876080531636" lon="8.018319816710973"><ele>242.0</ele><time>2026-03-29T08:41:32Z</time></trkpt><trkpt lat="44.02686280996073" lon="8.018176181563364"><ele>242.0</ele><time>2026-03-29T08:41:33Z</time></trkpt><trkpt lat="44.02683127015271" lon="8.017963432749866"><ele>242.0</ele><time>2026-03-29T08:41:34Z</time></trkpt><trkpt lat="44.02680251916396" lon="8.0177827742257"><ele>242.0</ele><time>2026-03-29T08:41:35Z</time></trkpt><trkpt lat="44.02682169494375" lon="8.017540024038237"><ele>243.66666666666669</ele><time>2026-03-29T08:41:36Z</time></trkpt><trkpt lat="44.026798595779304" lon="8.017346444178381"><ele>245.33333333333331</ele><time>2026-03-29T08:41:37Z</time></trkpt><trkpt lat="44.02674038005375" lon="8.017143596473758"><ele>247.0</ele><time>2026-03-29T08:41:38Z</time></trkpt><trkpt lat="44.026685023300175" lon="8.016924390665782"><ele>247.0</ele><time>2026-03-29T08:41:39Z</time></trkpt><trkpt lat="44.026646597909796" lon="8.016742745815215"><ele>247.0</ele><time>2026-03-29T08:41:40Z</time></trkpt><trkpt lat="44.026578074936445" lon="8.016570502620434"><ele>247.0</ele><time>2026-03-29T08:41:41Z</time></trkpt><trkpt lat="44.02644659000967" lon="8.016389076241987"><ele>246.25</ele><time>2026-03-29T08:41:42Z</time></trkpt><trkpt lat="44.02636289608803" lon="8.0162164965498"><ele>245.5</ele><time>2026-03-29T08:41:43Z</time></trkpt><trkpt lat="44.02633404026515" lon="8.01607284057613"><ele>244.75</ele><time>2026-03-29T08:41:44Z</time></trkpt><trkpt lat="44.02634434277403" lon="8.015892731252459"><ele>244.0</ele><time>2026-03-29T08:41:45Z</time></trkpt><trkpt lat="44.02628743813171" lon="8.015724793630824"><ele>244.0</ele><time>2026-03-29T08:41:46Z</time></trkpt><trkpt lat="44.026245077264115" lon="8.01557341427524"><ele>244.0</ele><time>2026-03-29T08:41:47Z</time></trkpt><trkpt lat="44.026137474060015" lon="8.015439067220058"><ele>244.0</ele><time>2026-03-29T08:41:48Z</time></trkpt><trkpt lat="44.02604353927766" lon="8.015289061717567"><ele>244.0</ele><time>2026-03-29T08:41:48.999Z</time></trkpt><trkpt lat="44.02594854292754" lon="8.015174755917164"><ele>244.0</ele><time>2026-03-29T08:41:49.999Z</time></trkpt><trkpt lat="44.025874425787954" lon="8.01511015048268"><ele>244.0</ele><time>2026-03-29T08:41:50.999Z</time></trkpt><trkpt lat="44.02574655698051" lon="8.015031868297205"><ele>244.0</ele><time>2026-03-29T08:41:51.999Z</time></trkpt><trkpt lat="44.025629522971954" lon="8.015004505444344"><ele>244.0</ele><time>2026-03-29T08:41:52.999Z</time></trkpt><trkpt lat="44.02550677822061" lon="8.01497196368446"><ele>243.5</ele><time>2026-03-29T08:41:53.999Z</time></trkpt><trkpt lat="44.025416733718714" lon="8.0149202431442"><ele>243.0</ele><time>2026-03-29T08:41:54.999Z</time></trkpt><trkpt lat="44.025328435001995" lon="8.014843342996112"><ele>242.5</ele><time>2026-03-29T08:41:55.999Z</time></trkpt><trkpt lat="44.02529859579925" lon="8.014633725442906"><ele>242.0</ele><time>2026-03-29T08:41:56.999Z</time></trkpt><trkpt lat="44.02516928617213" lon="8.014632721596103"><ele>242.0</ele><time>2026-03-29T08:41:57.999Z</time></trkpt><trkpt lat="44.02505284634353" lon="8.014610954464953"><ele>242.0</ele><time>2026-03-29T08:41:58.999Z</time></trkpt><trkpt lat="44.024934986425485" lon="8.014579493943586"><ele>242.0</ele><time>2026-03-29T08:41:59.999Z</time></trkpt><trkpt lat="44.02486034186376" lon="8.014538948383924"><ele>242.0</ele><time>2026-03-29T08:42:00.999Z</time></trkpt><trkpt lat="44.02495202640196" lon="8.014465750854622"><ele>242.0</ele><time>2026-03-29T08:42:02.999Z</time></trkpt><trkpt lat="44.02499949509521" lon="8.01452376591255"><ele>242.0</ele><time>2026-03-29T08:42:03.999Z</time></trkpt><trkpt lat="44.02499098213696" lon="8.01441339111127"><ele>242.0</ele><time>2026-03-29T08:42:04.999Z</time></trkpt><trkpt lat="44.0246408964509" lon="8.014039987580622"><ele>241.25</ele><time>2026-03-29T08:42:06.999Z</time></trkpt><trkpt lat="44.02470081570388" lon="8.013965871058666"><ele>240.5</ele><time>2026-03-29T08:42:07.999Z</time></trkpt><trkpt lat="44.024642949277386" lon="8.013845961381515"><ele>239.75</ele><time>2026-03-29T08:42:08.999Z</time></trkpt><trkpt lat="44.024581563217716" lon="8.013662211292388"><ele>239.0</ele><time>2026-03-29T08:42:09.999Z</time></trkpt><trkpt lat="44.02448966364471" lon="8.013400031462583"><ele>237.5</ele><time>2026-03-29T08:42:10.999Z</time></trkpt><trkpt lat="44.02441450602819" lon="8.013198109347464"><ele>236.0</ele><time>2026-03-29T08:42:11.999Z</time></trkpt><trkpt lat="44.024350626817004" lon="8.013025408215762"><ele>234.5</ele><time>2026-03-29T08:42:12.999Z</time></trkpt><trkpt lat="44.02429874195027" lon="8.012885134838585"><ele>233.0</ele><time>2026-03-29T08:42:13.999Z</time></trkpt><trkpt lat="44.024138962236606" lon="8.012504873216468"><ele>236.0</ele><time>2026-03-29T08:42:14.999Z</time></trkpt><trkpt lat="44.024006855047894" lon="8.012319753219204"><ele>239.0</ele><time>2026-03-29T08:42:15.999Z</time></trkpt><trkpt lat="44.02395506749758" lon="8.012223827851791"><ele>242.0</ele><time>2026-03-29T08:42:16.999Z</time></trkpt><trkpt lat="44.023918678852844" lon="8.012147954189588"><ele>245.0</ele><time>2026-03-29T08:42:17.999Z</time></trkpt><trkpt lat="44.02381223054561" lon="8.011963655450758"><ele>236.0</ele><time>2026-03-29T08:42:18.999Z</time></trkpt><trkpt lat="44.02322623199816" lon="8.012916004820802"><ele>236.0</ele><time>2026-03-29T08:42:21.999Z</time></trkpt><trkpt lat="44.02326671562966" lon="8.013110283871583"><ele>236.00000000000003</ele><time>2026-03-29T08:42:22.999Z</time></trkpt><trkpt lat="44.02333700711628" lon="8.013240932343933"><ele>236.00000000000003</ele><time>2026-03-29T08:42:23.999Z</time></trkpt><trkpt lat="44.023268558150995" lon="8.013286940749667"><ele>236.0</ele><time>2026-03-29T08:42:26.999Z</time></trkpt><trkpt lat="44.02320834000652" lon="8.013246438920746"><ele>236.0</ele><time>2026-03-29T08:42:27.999Z</time></trkpt><trkpt lat="44.02316027433279" lon="8.013146813802406"><ele>236.00000000000003</ele><time>2026-03-29T08:42:28.999Z</time></trkpt><trkpt lat="44.023136414503895" lon="8.013014865693721"><ele>236.0</ele><time>2026-03-29T08:42:29.999Z</time></trkpt><trkpt lat="44.0230590901188" lon="8.012977819949837"><ele>236.0</ele><time>2026-03-29T08:42:31.999Z</time></trkpt><trkpt lat="44.02298610568585" lon="8.012942425532332"><ele>236.0</ele><time>2026-03-29T08:42:32.999Z</time></trkpt><trkpt lat="44.02294794005493" lon="8.012855641674182"><ele>236.00000000000003</ele><time>2026-03-29T08:42:33.999Z</time></trkpt><trkpt lat="44.02293386348225" lon="8.012730425498717"><ele>236.0</ele><time>2026-03-29T08:42:34.999Z</time></trkpt><trkpt lat="44.02294146324821" lon="8.012553859635064"><ele>237.0</ele><time>2026-03-29T08:42:35.999Z</time></trkpt><trkpt lat="44.022924722579546" lon="8.012373995608916"><ele>238.0</ele><time>2026-03-29T08:42:36.999Z</time></trkpt><trkpt lat="44.02289706496194" lon="8.012238325925116"><ele>239.0</ele><time>2026-03-29T08:42:37.999Z</time></trkpt><trkpt lat="44.022866073736" lon="8.012096503879459"><ele>240.0</ele><time>2026-03-29T08:42:38.999Z</time></trkpt><trkpt lat="44.022833405371216" lon="8.01193189085339"><ele>240.0</ele><time>2026-03-29T08:42:39.999Z</time></trkpt><trkpt lat="44.02281231709962" lon="8.011790217459762"><ele>240.0</ele><time>2026-03-29T08:42:40.999Z</time></trkpt><trkpt lat="44.02276526538627" lon="8.011725128208393"><ele>240.0</ele><time>2026-03-29T08:42:41.999Z</time></trkpt><trkpt lat="44.022698548039024" lon="8.011721823162507"><ele>240.0</ele><time>2026-03-29T08:42:42.999Z</time></trkpt><trkpt lat="44.022650140942204" lon="8.011785833245849"><ele>240.0</ele><time>2026-03-29T08:42:43.999Z</time></trkpt><trkpt lat="44.022614442695385" lon="8.011880470639612"><ele>240.0</ele><time>2026-03-29T08:42:44.999Z</time></trkpt><trkpt lat="44.022601706699916" lon="8.012088019467429"><ele>240.0</ele><time>2026-03-29T08:42:45.999Z</time></trkpt><trkpt lat="44.02258870309511" lon="8.012318391319273"><ele>240.0</ele><time>2026-03-29T08:42:46.999Z</time></trkpt><trkpt lat="44.02252000995362" lon="8.01251033921936"><ele>240.0</ele><time>2026-03-29T08:42:47.999Z</time></trkpt><trkpt lat="44.02245798384193" lon="8.012662010530951"><ele>240.0</ele><time>2026-03-29T08:42:48.999Z</time></trkpt><trkpt lat="44.02238460803941" lon="8.012769079456305"><ele>245.5</ele><time>2026-03-29T08:42:50Z</time></trkpt><trkpt lat="44.022315716550516" lon="8.012827012815212"><ele>251.0</ele><time>2026-03-29T08:42:51Z</time></trkpt><trkpt lat="44.022184504241565" lon="8.012810344915842"><ele>256.5</ele><time>2026-03-29T08:42:53Z</time></trkpt><trkpt lat="44.022057657587894" lon="8.012768265588344"><ele>262.0</ele><time>2026-03-29T08:42:54Z</time></trkpt><trkpt lat="44.02191779263364" lon="8.012794302846018"><ele>262.0</ele><time>2026-03-29T08:42:55Z</time></trkpt><trkpt lat="44.02180594073207" lon="8.012829496451168"><ele>262.0</ele><time>2026-03-29T08:42:56Z</time></trkpt><trkpt lat="44.021686602952585" lon="8.012885912376829"><ele>262.0</ele><time>2026-03-29T08:42:57Z</time></trkpt><trkpt lat="44.021522194928494" lon="8.012926697594196"><ele>262.0</ele><time>2026-03-29T08:42:58Z</time></trkpt><trkpt lat="44.0213813690872" lon="8.012980735770244"><ele>266.25</ele><time>2026-03-29T08:42:59Z</time></trkpt><trkpt lat="44.021277147638415" lon="8.013005226056215"><ele>270.5</ele><time>2026-03-29T08:43:00Z</time></trkpt><trkpt lat="44.021175932654785" lon="8.012978676790722"><ele>274.75</ele><time>2026-03-29T08:43:01Z</time></trkpt><trkpt lat="44.02104221845038" lon="8.012978930216887"><ele>279.0</ele><time>2026-03-29T08:43:02Z</time></trkpt><trkpt lat="44.02092975469696" lon="8.01299870655701"><ele>279.0</ele><time>2026-03-29T08:43:03Z</time></trkpt><trkpt lat="44.0208293225059" lon="8.013002671306106"><ele>279.0</ele><time>2026-03-29T08:43:04Z</time></trkpt><trkpt lat="44.02069987925868" lon="8.012997704299202"><ele>279.0</ele><time>2026-03-29T08:43:05Z</time></trkpt><trkpt lat="44.020603324297525" lon="8.012986506876628"><ele>279.0</ele><time>2026-03-29T08:43:06Z</time></trkpt><trkpt lat="44.020512005890765" lon="8.013020318683532"><ele>279.0</ele><time>2026-03-29T08:43:07Z</time></trkpt><trkpt lat="44.020442382655844" lon="8.01304604720582"><ele>279.8</ele><time>2026-03-29T08:43:08Z</time></trkpt><trkpt lat="44.020362386097304" lon="8.013028199051654"><ele>280.59999999999997</ele><time>2026-03-29T08:43:09Z</time></trkpt><trkpt lat="44.02025134965499" lon="8.01300213185289"><ele>281.4</ele><time>2026-03-29T08:43:10Z</time></trkpt><trkpt lat="44.02012954433142" lon="8.012977061949975"><ele>282.2</ele><time>2026-03-29T08:43:11Z</time></trkpt><trkpt lat="44.020023794255614" lon="8.012962445476647"><ele>283.0</ele><time>2026-03-29T08:43:12Z</time></trkpt><trkpt lat="44.019901155655965" lon="8.012951360630893"><ele>286.0</ele><time>2026-03-29T08:43:13Z</time></trkpt><trkpt lat="44.01975399139881" lon="8.012922516003965"><ele>289.0</ele><time>2026-03-29T08:43:14Z</time></trkpt><trkpt lat="44.019637761029664" lon="8.012897052137552"><ele>292.0</ele><time>2026-03-29T08:43:15Z</time></trkpt><trkpt lat="44.01952772727609" lon="8.012919827486643"><ele>295.0</ele><time>2026-03-29T08:43:16Z</time></trkpt><trkpt lat="44.01942470470788" lon="8.012916846996722"><ele>295.0</ele><time>2026-03-29T08:43:17Z</time></trkpt><trkpt lat="44.019346843963" lon="8.012884415959727"><ele>295.0</ele><time>2026-03-29T08:43:18Z</time></trkpt><trkpt lat="44.01927185614537" lon="8.012892598707904"><ele>295.0</ele><time>2026-03-29T08:43:19Z</time></trkpt><trkpt lat="44.019209081451976" lon="8.012964047665095"><ele>295.0</ele><time>2026-03-29T08:43:20Z</time></trkpt><trkpt lat="44.01912508081752" lon="8.013028733116462"><ele>295.0</ele><time>2026-03-29T08:43:21Z</time></trkpt><trkpt lat="44.01904169351634" lon="8.013041915052007"><ele>295.0</ele><time>2026-03-29T08:43:22Z</time></trkpt><trkpt lat="44.018917031651846" lon="8.013065099304477"><ele>298.75</ele><time>2026-03-29T08:43:23Z</time></trkpt><trkpt lat="44.018774405754186" lon="8.013128451593882"><ele>302.5</ele><time>2026-03-29T08:43:24Z</time></trkpt><trkpt lat="44.018636291432685" lon="8.013148997321995"><ele>306.25</ele><time>2026-03-29T08:43:25Z</time></trkpt><trkpt lat="44.01853189410174" lon="8.01313242471796"><ele>310.0</ele><time>2026-03-29T08:43:26Z</time></trkpt><trkpt lat="44.01842810601269" lon="8.013102600301622"><ele>310.0</ele><time>2026-03-29T08:43:27Z</time></trkpt><trkpt lat="44.01832604877646" lon="8.013095807128545"><ele>310.0</ele><time>2026-03-29T08:43:28Z</time></trkpt><trkpt lat="44.018240831563006" lon="8.013152004107633"><ele>310.0</ele><time>2026-03-29T08:43:29Z</time></trkpt><trkpt lat="44.01813123808403" lon="8.013147325596137"><ele>310.0</ele><time>2026-03-29T08:43:30Z</time></trkpt><trkpt lat="44.017997619278155" lon="8.013138309019979"><ele>310.0</ele><time>2026-03-29T08:43:31Z</time></trkpt><trkpt lat="44.01788973066081" lon="8.013179622909878"><ele>311.0</ele><time>2026-03-29T08:43:32Z</time></trkpt><trkpt lat="44.017777969772155" lon="8.013209005251124"><ele>312.0</ele><time>2026-03-29T08:43:33Z</time></trkpt><trkpt lat="44.01764426124523" lon="8.01324251889953"><ele>313.0</ele><time>2026-03-29T08:43:34Z</time></trkpt><trkpt lat="44.017548300890454" lon="8.013278303741123"><ele>314.0</ele><time>2026-03-29T08:43:35Z</time></trkpt><trkpt lat="44.01746685661202" lon="8.013254682583053"><ele>315.0</ele><time>2026-03-29T08:43:36Z</time></trkpt><trkpt lat="44.01742184258562" lon="8.013191410271714"><ele>316.0</ele><time>2026-03-29T08:43:37Z</time></trkpt><trkpt lat="44.01738412479831" lon="8.013070186731435"><ele>317.0</ele><time>2026-03-29T08:43:38Z</time></trkpt><trkpt lat="44.01733716822253" lon="8.012955358839532"><ele>318.0</ele><time>2026-03-29T08:43:39Z</time></trkpt><trkpt lat="44.01728668873539" lon="8.012870363608855"><ele>319.0</ele><time>2026-03-29T08:43:40Z</time></trkpt><trkpt lat="44.01717827305864" lon="8.012984099764573"><ele>320.0</ele><time>2026-03-29T08:43:42Z</time></trkpt><trkpt lat="44.01711279588951" lon="8.013108739614028"><ele>320.0</ele><time>2026-03-29T08:43:43Z</time></trkpt><trkpt lat="44.01703879860837" lon="8.013180753920983"><ele>320.0</ele><time>2026-03-29T08:43:44Z</time></trkpt><trkpt lat="44.01691563006707" lon="8.013192023556346"><ele>320.0</ele><time>2026-03-29T08:43:45Z</time></trkpt><trkpt lat="44.01678108334039" lon="8.01318138457092"><ele>320.0</ele><time>2026-03-29T08:43:46Z</time></trkpt><trkpt lat="44.016685937633895" lon="8.013158154011707"><ele>320.0</ele><time>2026-03-29T08:43:47Z</time></trkpt><trkpt lat="44.016582743918256" lon="8.013096177187329"><ele>317.0</ele><time>2026-03-29T08:43:48Z</time></trkpt><trkpt lat="44.01645030639529" lon="8.013021986956234"><ele>314.0</ele><time>2026-03-29T08:43:49Z</time></trkpt><trkpt lat="44.01630178827328" lon="8.01295891491865"><ele>311.0</ele><time>2026-03-29T08:43:50Z</time></trkpt><trkpt lat="44.016145077376564" lon="8.012907483097898"><ele>311.0</ele><time>2026-03-29T08:43:51Z</time></trkpt><trkpt lat="44.016032063761884" lon="8.012835655976813"><ele>311.0</ele><time>2026-03-29T08:43:51.999Z</time></trkpt><trkpt lat="44.015937701201125" lon="8.012760522087634"><ele>311.0</ele><time>2026-03-29T08:43:52.999Z</time></trkpt><trkpt lat="44.015887135739334" lon="8.012683397692326"><ele>311.0</ele><time>2026-03-29T08:43:53.999Z</time></trkpt><trkpt lat="44.01579722314585" lon="8.01259900981202"><ele>311.0</ele><time>2026-03-29T08:43:55.999Z</time></trkpt><trkpt lat="44.015724946027326" lon="8.012666738061458"><ele>310.6</ele><time>2026-03-29T08:43:56.999Z</time></trkpt><trkpt lat="44.01564067374168" lon="8.012751585717986"><ele>310.20000000000005</ele><time>2026-03-29T08:43:57.999Z</time></trkpt><trkpt lat="44.01557475647638" lon="8.012808398541445"><ele>309.79999999999995</ele><time>2026-03-29T08:43:58.999Z</time></trkpt><trkpt lat="44.015426618026275" lon="8.012847277957027"><ele>309.4</ele><time>2026-03-29T08:44:00.999Z</time></trkpt><trkpt lat="44.015365514558916" lon="8.012814772472831"><ele>309.0</ele><time>2026-03-29T08:44:02.999Z</time></trkpt><trkpt lat="44.01523795870115" lon="8.012756914609124"><ele>309.0</ele><time>2026-03-29T08:44:04.999Z</time></trkpt><trkpt lat="44.01515166967234" lon="8.012746954063639"><ele>309.0</ele><time>2026-03-29T08:44:05.999Z</time></trkpt><trkpt lat="44.01508607293532" lon="8.012669954186979"><ele>309.0</ele><time>2026-03-29T08:44:07.999Z</time></trkpt><trkpt lat="44.015109193201376" lon="8.012568152804763"><ele>309.0</ele><time>2026-03-29T08:44:08.999Z</time></trkpt><trkpt lat="44.015167616939024" lon="8.012513780509021"><ele>309.0</ele><time>2026-03-29T08:44:09.999Z</time></trkpt><trkpt lat="44.015274001171505" lon="8.012583333979572"><ele>309.0</ele><time>2026-03-29T08:44:11.999Z</time></trkpt><trkpt lat="44.01535067254065" lon="8.012605381200574"><ele>309.0</ele><time>2026-03-29T08:44:12.999Z</time></trkpt><trkpt lat="44.01541186977829" lon="8.012506954835796"><ele>309.0</ele><time>2026-03-29T08:44:13.999Z</time></trkpt><trkpt lat="44.015496960865626" lon="8.012415899308477"><ele>309.0</ele><time>2026-03-29T08:44:14.999Z</time></trkpt><trkpt lat="44.01556866029729" lon="8.012328584837293"><ele>309.0</ele><time>2026-03-29T08:44:15.999Z</time></trkpt><trkpt lat="44.01563970503992" lon="8.012283137101367"><ele>309.0</ele><time>2026-03-29T08:44:16.999Z</time></trkpt><trkpt lat="44.015723305971214" lon="8.012233373617173"><ele>314.2</ele><time>2026-03-29T08:44:17.999Z</time></trkpt><trkpt lat="44.01577843640723" lon="8.012102359655255"><ele>319.4</ele><time>2026-03-29T08:44:18.999Z</time></trkpt><trkpt lat="44.015856147807554" lon="8.012009537834977"><ele>324.6</ele><time>2026-03-29T08:44:19.999Z</time></trkpt><trkpt lat="44.015913158272504" lon="8.011953422528528"><ele>329.8</ele><time>2026-03-29T08:44:20.999Z</time></trkpt><trkpt lat="44.01598433532269" lon="8.01193399343831"><ele>335.0</ele><time>2026-03-29T08:44:22.999Z</time></trkpt><trkpt lat="44.01608204750486" lon="8.011995488153905"><ele>335.6</ele><time>2026-03-29T08:44:24.999Z</time></trkpt><trkpt lat="44.01613728587037" lon="8.012059880341356"><ele>336.2</ele><time>2026-03-29T08:44:25.999Z</time></trkpt><trkpt lat="44.016210055926855" lon="8.012137028401554"><ele>336.79999999999995</ele><time>2026-03-29T08:44:26.999Z</time></trkpt><trkpt lat="44.01630248636621" lon="8.012237207185585"><ele>337.4</ele><time>2026-03-29T08:44:27.999Z</time></trkpt><trkpt lat="44.016374918155606" lon="8.012355070341686"><ele>338.0</ele><time>2026-03-29T08:44:28.999Z</time></trkpt><trkpt lat="44.016440092708265" lon="8.012299741826183"><ele>338.0</ele><time>2026-03-29T08:44:30.999Z</time></trkpt><trkpt lat="44.01641247856223" lon="8.012195346614096"><ele>338.0</ele><time>2026-03-29T08:44:31.999Z</time></trkpt><trkpt lat="44.016358380339355" lon="8.012130984715993"><ele>338.0</ele><time>2026-03-29T08:44:32.999Z</time></trkpt><trkpt lat="44.0162834175747" lon="8.012043868680227"><ele>338.0</ele><time>2026-03-29T08:44:33.999Z</time></trkpt><trkpt lat="44.01623893594828" lon="8.011950220016102"><ele>338.0</ele><time>2026-03-29T08:44:34.999Z</time></trkpt><trkpt lat="44.01615702774329" lon="8.011817258845047"><ele>338.0</ele><time>2026-03-29T08:44:35.999Z</time></trkpt><trkpt lat="44.01603294327321" lon="8.011671292065403"><ele>338.0</ele><time>2026-03-29T08:44:36.999Z</time></trkpt><trkpt lat="44.01593005786026" lon="8.011605676883304"><ele>338.0</ele><time>2026-03-29T08:44:37.999Z</time></trkpt><trkpt lat="44.01581127257657" lon="8.011687000145505"><ele>338.0</ele><time>2026-03-29T08:44:39.999Z</time></trkpt><trkpt lat="44.01572893561826" lon="8.011753749107429"><ele>337.4</ele><time>2026-03-29T08:44:40.999Z</time></trkpt><trkpt lat="44.0156761472289" lon="8.011823727326885"><ele>336.79999999999995</ele><time>2026-03-29T08:44:41.999Z</time></trkpt><trkpt lat="44.015575926600796" lon="8.011869796991027"><ele>336.2</ele><time>2026-03-29T08:44:42.999Z</time></trkpt><trkpt lat="44.015473957576475" lon="8.011899328351493"><ele>335.6</ele><time>2026-03-29T08:44:43.999Z</time></trkpt><trkpt lat="44.01535811211883" lon="8.011862465422077"><ele>335.0</ele><time>2026-03-29T08:44:44.999Z</time></trkpt><trkpt lat="44.015232498928846" lon="8.011804742123045"><ele>335.0</ele><time>2026-03-29T08:44:45.999Z</time></trkpt><trkpt lat="44.015134352361144" lon="8.01175175033258"><ele>335.0</ele><time>2026-03-29T08:44:46.999Z</time></trkpt><trkpt lat="44.01504015789712" lon="8.01170651377447"><ele>335.0</ele><time>2026-03-29T08:44:47.999Z</time></trkpt><trkpt lat="44.015006301256804" lon="8.011619602845313"><ele>335.0</ele><time>2026-03-29T08:44:50.999Z</time></trkpt><trkpt lat="44.01512857258865" lon="8.011651936374157"><ele>335.0</ele><time>2026-03-29T08:44:53.999Z</time></trkpt><trkpt lat="44.015199705853504" lon="8.011637971505538"><ele>335.0</ele><time>2026-03-29T08:44:54.999Z</time></trkpt><trkpt lat="44.015266416668226" lon="8.01161346755126"><ele>335.0</ele><time>2026-03-29T08:44:56Z</time></trkpt><trkpt lat="44.015363488425216" lon="8.01158514601462"><ele>335.0</ele><time>2026-03-29T08:44:57Z</time></trkpt><trkpt lat="44.015495879300644" lon="8.011605418533426"><ele>335.0</ele><time>2026-03-29T08:44:58Z</time></trkpt><trkpt lat="44.01559028369901" lon="8.011657490941978"><ele>335.0</ele><time>2026-03-29T08:44:59Z</time></trkpt><trkpt lat="44.01565130644867" lon="8.01161871472586"><ele>341.5</ele><time>2026-03-29T08:45:00Z</time></trkpt><trkpt lat="44.01572574789034" lon="8.011499367531666"><ele>348.0</ele><time>2026-03-29T08:45:01Z</time></trkpt><trkpt lat="44.01580532952854" lon="8.01133103662797"><ele>354.5</ele><time>2026-03-29T08:45:02Z</time></trkpt><trkpt lat="44.015882070927525" lon="8.011214850420966"><ele>361.0</ele><time>2026-03-29T08:45:03Z</time></trkpt><trkpt lat="44.01597945598069" lon="8.011120527646515"><ele>362.5</ele><time>2026-03-29T08:45:05Z</time></trkpt><trkpt lat="44.01607135084604" lon="8.01116424865488"><ele>364.0</ele><time>2026-03-29T08:45:07Z</time></trkpt><trkpt lat="44.01617239655847" lon="8.011229639534914"><ele>365.5</ele><time>2026-03-29T08:45:08Z</time></trkpt><trkpt lat="44.01629195113346" lon="8.011282778078584"><ele>367.0</ele><time>2026-03-29T08:45:09Z</time></trkpt><trkpt lat="44.016408156000026" lon="8.011325530601539"><ele>367.0</ele><time>2026-03-29T08:45:10Z</time></trkpt><trkpt lat="44.016483692155205" lon="8.011394001720053"><ele>367.0</ele><time>2026-03-29T08:45:11Z</time></trkpt><trkpt lat="44.01656498041497" lon="8.011453007169532"><ele>367.0</ele><time>2026-03-29T08:45:12Z</time></trkpt><trkpt lat="44.01664765438829" lon="8.011499089179264"><ele>367.0</ele><time>2026-03-29T08:45:13Z</time></trkpt><trkpt lat="44.0167127627994" lon="8.011507061948976"><ele>367.0</ele><time>2026-03-29T08:45:14Z</time></trkpt><trkpt lat="44.016736396284486" lon="8.011310279482116"><ele>367.0</ele><time>2026-03-29T08:45:16Z</time></trkpt><trkpt lat="44.016727386515015" lon="8.011215477234686"><ele>367.0</ele><time>2026-03-29T08:45:17Z</time></trkpt><trkpt lat="44.01671049149755" lon="8.011123108579696"><ele>367.0</ele><time>2026-03-29T08:45:18Z</time></trkpt><trkpt lat="44.016735136403256" lon="8.010982559706564"><ele>367.0</ele><time>2026-03-29T08:45:19Z</time></trkpt><trkpt lat="44.01678786105249" lon="8.010909518708031"><ele>367.0</ele><time>2026-03-29T08:45:20Z</time></trkpt><trkpt lat="44.01669487659634" lon="8.01090413948394"><ele>367.0</ele><time>2026-03-29T08:45:22Z</time></trkpt><trkpt lat="44.01663482293489" lon="8.01093342612751"><ele>367.0</ele><time>2026-03-29T08:45:23Z</time></trkpt><trkpt lat="44.016631136373945" lon="8.01083764751979"><ele>367.0</ele><time>2026-03-29T08:45:27Z</time></trkpt><trkpt lat="44.01667508311572" lon="8.010764259694882"><ele>367.0</ele><time>2026-03-29T08:45:28Z</time></trkpt><trkpt lat="44.01666776734801" lon="8.010673324970847"><ele>367.0</ele><time>2026-03-29T08:45:30Z</time></trkpt><trkpt lat="44.01677155103649" lon="8.010606507802624"><ele>367.0</ele><time>2026-03-29T08:45:31Z</time></trkpt><trkpt lat="44.016896714578834" lon="8.010420837029733"><ele>371.66666666666663</ele><time>2026-03-29T08:45:32Z</time></trkpt><trkpt lat="44.01698774546099" lon="8.010362270884473"><ele>376.3333333333333</ele><time>2026-03-29T08:45:33Z</time></trkpt><trkpt lat="44.01707079408904" lon="8.010295976852614"><ele>381.0</ele><time>2026-03-29T08:45:34Z</time></trkpt><trkpt lat="44.01714408583093" lon="8.01025054678443"><ele>385.66666666666663</ele><time>2026-03-29T08:45:35Z</time></trkpt><trkpt lat="44.01720013556292" lon="8.010207088905734"><ele>390.3333333333333</ele><time>2026-03-29T08:45:36Z</time></trkpt><trkpt lat="44.01711381452916" lon="8.01020395383644"><ele>395.0</ele><time>2026-03-29T08:45:38Z</time></trkpt><trkpt lat="44.01703706038683" lon="8.01022645392948"><ele>395.0</ele><time>2026-03-29T08:45:40Z</time></trkpt><trkpt lat="44.01695381046448" lon="8.010227007395907"><ele>395.0</ele><time>2026-03-29T08:45:41Z</time></trkpt><trkpt lat="44.01683010928849" lon="8.010238333031747"><ele>395.0</ele><time>2026-03-29T08:45:42Z</time></trkpt><trkpt lat="44.016728885758816" lon="8.010231433333134"><ele>395.0</ele><time>2026-03-29T08:45:43Z</time></trkpt><trkpt lat="44.01663618670536" lon="8.010221780394419"><ele>395.0</ele><time>2026-03-29T08:45:44Z</time></trkpt><trkpt lat="44.01655634248377" lon="8.010162268170081"><ele>394.25</ele><time>2026-03-29T08:45:45Z</time></trkpt><trkpt lat="44.016501306818256" lon="8.01006720054099"><ele>393.5</ele><time>2026-03-29T08:45:46Z</time></trkpt><trkpt lat="44.01642371857238" lon="8.009923321129632"><ele>392.75</ele><time>2026-03-29T08:45:47Z</time></trkpt><trkpt lat="44.01632572689075" lon="8.009761639512845"><ele>392.0</ele><time>2026-03-29T08:45:48Z</time></trkpt><trkpt lat="44.01622603499404" lon="8.009610178033551"><ele>396.25</ele><time>2026-03-29T08:45:49Z</time></trkpt><trkpt lat="44.016125551313614" lon="8.009486520059612"><ele>400.5</ele><time>2026-03-29T08:45:50Z</time></trkpt><trkpt lat="44.016017641008986" lon="8.009410343610366"><ele>404.75</ele><time>2026-03-29T08:45:51Z</time></trkpt><trkpt lat="44.01589886262582" lon="8.009332309619282"><ele>409.0</ele><time>2026-03-29T08:45:52Z</time></trkpt><trkpt lat="44.01573465644635" lon="8.009319102526385"><ele>410.4</ele><time>2026-03-29T08:45:53Z</time></trkpt><trkpt lat="44.01567936034954" lon="8.009363867823728"><ele>411.79999999999995</ele><time>2026-03-29T08:45:54Z</time></trkpt><trkpt lat="44.01556167564135" lon="8.00945869213737"><ele>413.20000000000005</ele><time>2026-03-29T08:45:54.999Z</time></trkpt><trkpt lat="44.01549943677897" lon="8.009543675550303"><ele>414.6</ele><time>2026-03-29T08:45:55.999Z</time></trkpt><trkpt lat="44.01549516556954" lon="8.009697408960315"><ele>416.0</ele><time>2026-03-29T08:45:56.999Z</time></trkpt><trkpt lat="44.01543261635916" lon="8.009851577979603"><ele>415.99999999999994</ele><time>2026-03-29T08:45:57.999Z</time></trkpt><trkpt lat="44.01538956061837" lon="8.009922243524382"><ele>416.0</ele><time>2026-03-29T08:45:58.999Z</time></trkpt><trkpt lat="44.01532312363821" lon="8.00985541849992"><ele>416.0</ele><time>2026-03-29T08:46:00.999Z</time></trkpt><trkpt lat="44.01530576206962" lon="8.009744814769531"><ele>416.0</ele><time>2026-03-29T08:46:01.999Z</time></trkpt><trkpt lat="44.01530370727277" lon="8.00964582293387"><ele>415.99999999999994</ele><time>2026-03-29T08:46:02.999Z</time></trkpt><trkpt lat="44.01532665217356" lon="8.009471131974838"><ele>416.0</ele><time>2026-03-29T08:46:03.999Z</time></trkpt><trkpt lat="44.015333865472414" lon="8.009363218590527"><ele>416.0</ele><time>2026-03-29T08:46:04.999Z</time></trkpt><trkpt lat="44.01537903712375" lon="8.009217875884177"><ele>416.0</ele><time>2026-03-29T08:46:05.999Z</time></trkpt><trkpt lat="44.01544643267257" lon="8.009032766431114"><ele>416.0</ele><time>2026-03-29T08:46:06.999Z</time></trkpt><trkpt lat="44.015507396517485" lon="8.008847704980179"><ele>416.0</ele><time>2026-03-29T08:46:07.999Z</time></trkpt><trkpt lat="44.01557088524097" lon="8.008713388274728"><ele>421.5</ele><time>2026-03-29T08:46:08.999Z</time></trkpt><trkpt lat="44.015653284629586" lon="8.008610638583027"><ele>427.0</ele><time>2026-03-29T08:46:09.999Z</time></trkpt><trkpt lat="44.01569945006878" lon="8.008459611251906"><ele>432.5</ele><time>2026-03-29T08:46:10.999Z</time></trkpt><trkpt lat="44.015800531290424" lon="8.008358976951108"><ele>438.0</ele><time>2026-03-29T08:46:11.999Z</time></trkpt><trkpt lat="44.01590733159558" lon="8.008340457217884"><ele>445.75</ele><time>2026-03-29T08:46:12.999Z</time></trkpt><trkpt lat="44.016013123046385" lon="8.0082626882963"><ele>453.5</ele><time>2026-03-29T08:46:13.999Z</time></trkpt><trkpt lat="44.0161857218952" lon="8.008160754816625"><ele>461.25</ele><time>2026-03-29T08:46:14.999Z</time></trkpt><trkpt lat="44.0162848534569" lon="8.008111017010517"><ele>469.0</ele><time>2026-03-29T08:46:15.999Z</time></trkpt><trkpt lat="44.01637843090187" lon="8.0081270949869"><ele>469.0</ele><time>2026-03-29T08:46:17.999Z</time></trkpt><trkpt lat="44.01630520548983" lon="8.008094809069906"><ele>469.0</ele><time>2026-03-29T08:46:20.999Z</time></trkpt><trkpt lat="44.016182868089835" lon="8.007937751616248"><ele>469.0</ele><time>2026-03-29T08:46:22.999Z</time></trkpt><trkpt lat="44.016091342188496" lon="8.007988960366307"><ele>469.0</ele><time>2026-03-29T08:46:23.999Z</time></trkpt><trkpt lat="44.01598348136301" lon="8.00804778647754"><ele>469.0</ele><time>2026-03-29T08:46:24.999Z</time></trkpt><trkpt lat="44.01588432334507" lon="8.008133880051075"><ele>469.0</ele><time>2026-03-29T08:46:25.999Z</time></trkpt><trkpt lat="44.01578769643884" lon="8.008203289928746"><ele>469.0</ele><time>2026-03-29T08:46:26.999Z</time></trkpt><trkpt lat="44.01569496714587" lon="8.008261043943278"><ele>469.0</ele><time>2026-03-29T08:46:27.999Z</time></trkpt><trkpt lat="44.01561098928202" lon="8.008340013174456"><ele>469.0</ele><time>2026-03-29T08:46:28.999Z</time></trkpt><trkpt lat="44.01553865355908" lon="8.008442110769533"><ele>463.25</ele><time>2026-03-29T08:46:29.999Z</time></trkpt><trkpt lat="44.0154766697722" lon="8.008512884590855"><ele>457.5</ele><time>2026-03-29T08:46:30.999Z</time></trkpt><trkpt lat="44.01533137149712" lon="8.00850674683347"><ele>451.75</ele><time>2026-03-29T08:46:32.999Z</time></trkpt><trkpt lat="44.015236297687636" lon="8.008603291398037"><ele>446.0</ele><time>2026-03-29T08:46:33.999Z</time></trkpt><trkpt lat="44.0151306907738" lon="8.008732171835113"><ele>446.0</ele><time>2026-03-29T08:46:34.999Z</time></trkpt><trkpt lat="44.01505392578024" lon="8.00878831829657"><ele>446.0</ele><time>2026-03-29T08:46:35.999Z</time></trkpt><trkpt lat="44.01493994590134" lon="8.008682013200271"><ele>446.0</ele><time>2026-03-29T08:46:37.999Z</time></trkpt><trkpt lat="44.014904246282164" lon="8.008571440962667"><ele>446.0</ele><time>2026-03-29T08:46:38.999Z</time></trkpt><trkpt lat="44.01482357808868" lon="8.008432403023924"><ele>446.0</ele><time>2026-03-29T08:46:39.999Z</time></trkpt><trkpt lat="44.014737725995865" lon="8.008207392764213"><ele>448.3333333333333</ele><time>2026-03-29T08:46:40.999Z</time></trkpt><trkpt lat="44.01462836927344" lon="8.007938439954208"><ele>450.66666666666663</ele><time>2026-03-29T08:46:41.999Z</time></trkpt><trkpt lat="44.01453220445027" lon="8.007777792693004"><ele>453.0</ele><time>2026-03-29T08:46:42.999Z</time></trkpt><trkpt lat="44.01445817987626" lon="8.007650645208184"><ele>453.0</ele><time>2026-03-29T08:46:43.999Z</time></trkpt><trkpt lat="44.01433306565225" lon="8.007522573308862"><ele>453.0</ele><time>2026-03-29T08:46:44.999Z</time></trkpt><trkpt lat="44.0142014723771" lon="8.007451717326934"><ele>453.0</ele><time>2026-03-29T08:46:45.999Z</time></trkpt><trkpt lat="44.014073238326034" lon="8.007376054623895"><ele>453.0</ele><time>2026-03-29T08:46:46.999Z</time></trkpt><trkpt lat="44.0139709974855" lon="8.007296358899598"><ele>460.2</ele><time>2026-03-29T08:46:47.999Z</time></trkpt><trkpt lat="44.01390240707958" lon="8.007230013643701"><ele>467.4</ele><time>2026-03-29T08:46:48.999Z</time></trkpt><trkpt lat="44.013832793956496" lon="8.007196896540838"><ele>474.59999999999997</ele><time>2026-03-29T08:46:49.999Z</time></trkpt><trkpt lat="44.01373459416505" lon="8.007213604598201"><ele>481.79999999999995</ele><time>2026-03-29T08:46:50.999Z</time></trkpt><trkpt lat="44.013632989454884" lon="8.007344695920645"><ele>489.0</ele><time>2026-03-29T08:46:52.999Z</time></trkpt><trkpt lat="44.01352932739458" lon="8.00745276684224"><ele>486.75</ele><time>2026-03-29T08:46:53.999Z</time></trkpt><trkpt lat="44.01338939559815" lon="8.007557984976364"><ele>484.5</ele><time>2026-03-29T08:46:54.999Z</time></trkpt><trkpt lat="44.01328824325122" lon="8.007588214875327"><ele>482.25</ele><time>2026-03-29T08:46:55.999Z</time></trkpt><trkpt lat="44.0131458065555" lon="8.007586781231241"><ele>480.0</ele><time>2026-03-29T08:46:56.999Z</time></trkpt><trkpt lat="44.01303913595048" lon="8.00761241665675"><ele>480.0</ele><time>2026-03-29T08:46:57.999Z</time></trkpt><trkpt lat="44.0129936918733" lon="8.007685238052803"><ele>480.0</ele><time>2026-03-29T08:46:58.999Z</time></trkpt><trkpt lat="44.0129352598491" lon="8.007795759223432"><ele>480.0</ele><time>2026-03-29T08:46:59.999Z</time></trkpt><trkpt lat="44.01283760921656" lon="8.007866790245965"><ele>480.0</ele><time>2026-03-29T08:47:00.999Z</time></trkpt><trkpt lat="44.01275484134673" lon="8.007997354343424"><ele>480.0</ele><time>2026-03-29T08:47:03Z</time></trkpt><trkpt lat="44.0126885414331" lon="8.008122679714594"><ele>480.0</ele><time>2026-03-29T08:47:05Z</time></trkpt><trkpt lat="44.01263909951014" lon="8.00817880402683"><ele>480.0</ele><time>2026-03-29T08:47:06Z</time></trkpt><trkpt lat="44.012576657904965" lon="8.008162601226978"><ele>480.0</ele><time>2026-03-29T08:47:07Z</time></trkpt><trkpt lat="44.012524299081186" lon="8.008099212598685"><ele>480.0</ele><time>2026-03-29T08:47:08Z</time></trkpt><trkpt lat="44.01245189436427" lon="8.008035294216905"><ele>480.0</ele><time>2026-03-29T08:47:09Z</time></trkpt><trkpt lat="44.012359516400366" lon="8.00797992127822"><ele>480.0</ele><time>2026-03-29T08:47:10Z</time></trkpt><trkpt lat="44.01228079405637" lon="8.00792501042538"><ele>478.3333333333333</ele><time>2026-03-29T08:47:11Z</time></trkpt><trkpt lat="44.01219867568753" lon="8.007919971858074"><ele>476.66666666666663</ele><time>2026-03-29T08:47:12Z</time></trkpt><trkpt lat="44.012125108785156" lon="8.007988023154713"><ele>475.0</ele><time>2026-03-29T08:47:13Z</time></trkpt><trkpt lat="44.01212776437957" lon="8.00811294759015"><ele>473.3333333333333</ele><time>2026-03-29T08:47:14Z</time></trkpt><trkpt lat="44.01208224979837" lon="8.008249242906512"><ele>471.66666666666663</ele><time>2026-03-29T08:47:15Z</time></trkpt><trkpt lat="44.01206456687555" lon="8.008337696983398"><ele>470.0</ele><time>2026-03-29T08:47:16Z</time></trkpt><trkpt lat="44.01203437191095" lon="8.008426692313792"><ele>469.99999999999994</ele><time>2026-03-29T08:47:17Z</time></trkpt><trkpt lat="44.012002293849" lon="8.008525468328571"><ele>470.0</ele><time>2026-03-29T08:47:18Z</time></trkpt><trkpt lat="44.01193507183947" lon="8.0085663877702"><ele>470.0</ele><time>2026-03-29T08:47:19Z</time></trkpt><trkpt lat="44.011871672830125" lon="8.008607771875873"><ele>470.0</ele><time>2026-03-29T08:47:20Z</time></trkpt><trkpt lat="44.01177207858248" lon="8.008607656059679"><ele>469.99999999999994</ele><time>2026-03-29T08:47:21Z</time></trkpt><trkpt lat="44.0116979218077" lon="8.00867096893509"><ele>470.0</ele><time>2026-03-29T08:47:22Z</time></trkpt><trkpt lat="44.01163467293767" lon="8.008761674676865"><ele>467.49999999999994</ele><time>2026-03-29T08:47:23Z</time></trkpt><trkpt lat="44.01157837753449" lon="8.008831274646518"><ele>465.0</ele><time>2026-03-29T08:47:24Z</time></trkpt><trkpt lat="44.01151596141441" lon="8.008880177202668"><ele>462.5</ele><time>2026-03-29T08:47:25Z</time></trkpt><trkpt lat="44.01143291653273" lon="8.00889606165094"><ele>460.0</ele><time>2026-03-29T08:47:26Z</time></trkpt><trkpt lat="44.01136276809445" lon="8.008848303435215"><ele>457.49999999999994</ele><time>2026-03-29T08:47:27Z</time></trkpt><trkpt lat="44.0112981452736" lon="8.008754034995114"><ele>455.0</ele><time>2026-03-29T08:47:28Z</time></trkpt><trkpt lat="44.01125488715932" lon="8.008644291378873"><ele>454.99999999999994</ele><time>2026-03-29T08:47:29Z</time></trkpt><trkpt lat="44.01122265459751" lon="8.008511490628688"><ele>455.0</ele><time>2026-03-29T08:47:30Z</time></trkpt><trkpt lat="44.011169949601936" lon="8.008408892982626"><ele>455.0</ele><time>2026-03-29T08:47:31Z</time></trkpt><trkpt lat="44.01112736097709" lon="8.008290307602444"><ele>455.0</ele><time>2026-03-29T08:47:32Z</time></trkpt><trkpt lat="44.0110927174073" lon="8.008190602916786"><ele>454.99999999999994</ele><time>2026-03-29T08:47:33Z</time></trkpt><trkpt lat="44.01105115859031" lon="8.008093932018701"><ele>455.0</ele><time>2026-03-29T08:47:34Z</time></trkpt><trkpt lat="44.01101068527384" lon="8.007996195646328"><ele>456.3333333333333</ele><time>2026-03-29T08:47:35Z</time></trkpt><trkpt lat="44.01096607656757" lon="8.007899603366013"><ele>457.66666666666663</ele><time>2026-03-29T08:47:36Z</time></trkpt><trkpt lat="44.010921013881614" lon="8.00780744966599"><ele>459.0</ele><time>2026-03-29T08:47:37Z</time></trkpt><trkpt lat="44.010859995223704" lon="8.007730398438822"><ele>460.33333333333337</ele><time>2026-03-29T08:47:38Z</time></trkpt><trkpt lat="44.01078664482656" lon="8.007704958357547"><ele>461.6666666666667</ele><time>2026-03-29T08:47:39Z</time></trkpt><trkpt lat="44.010702062716696" lon="8.007711917158415"><ele>463.0</ele><time>2026-03-29T08:47:40Z</time></trkpt><trkpt lat="44.01062298621557" lon="8.007710154542648"><ele>463.00000000000006</ele><time>2026-03-29T08:47:41Z</time></trkpt><trkpt lat="44.010550060100435" lon="8.00767342884802"><ele>463.0</ele><time>2026-03-29T08:47:42Z</time></trkpt><trkpt lat="44.010481376625535" lon="8.007622250512295"><ele>463.0</ele><time>2026-03-29T08:47:43Z</time></trkpt><trkpt lat="44.01046610969475" lon="8.007507632838065"><ele>463.0</ele><time>2026-03-29T08:47:44Z</time></trkpt><trkpt lat="44.01044562108651" lon="8.007415801850017"><ele>463.00000000000006</ele><time>2026-03-29T08:47:45Z</time></trkpt><trkpt lat="44.01041014451954" lon="8.007315983868956"><ele>463.0</ele><time>2026-03-29T08:47:46Z</time></trkpt><trkpt lat="44.01038272174123" lon="8.007209057149728"><ele>467.59999999999997</ele><time>2026-03-29T08:47:47Z</time></trkpt><trkpt lat="44.01036359930442" lon="8.007113572503771"><ele>472.19999999999993</ele><time>2026-03-29T08:47:48Z</time></trkpt><trkpt lat="44.01017407729084" lon="8.007034550854609"><ele>476.8</ele><time>2026-03-29T08:47:50Z</time></trkpt><trkpt lat="44.0101138365918" lon="8.006962361698244"><ele>481.4</ele><time>2026-03-29T08:47:51Z</time></trkpt><trkpt lat="44.010064506688906" lon="8.006883025194789"><ele>486.0</ele><time>2026-03-29T08:47:52Z</time></trkpt><trkpt lat="44.010009858335785" lon="8.006835619132122"><ele>486.0</ele><time>2026-03-29T08:47:53Z</time></trkpt><trkpt lat="44.00993165251222" lon="8.006861756897427"><ele>486.0</ele><time>2026-03-29T08:47:54Z</time></trkpt><trkpt lat="44.009869612551675" lon="8.006916539253845"><ele>486.0</ele><time>2026-03-29T08:47:55Z</time></trkpt><trkpt lat="44.00983533592498" lon="8.006816431735674"><ele>486.0</ele><time>2026-03-29T08:47:57Z</time></trkpt><trkpt lat="44.009957759555554" lon="8.006756377106484"><ele>486.0</ele><time>2026-03-29T08:47:58.999Z</time></trkpt><trkpt lat="44.010043009401954" lon="8.006769584544983"><ele>486.0</ele><time>2026-03-29T08:47:59.999Z</time></trkpt><trkpt lat="44.010110044381136" lon="8.006790963948967"><ele>486.0</ele><time>2026-03-29T08:48:00.999Z</time></trkpt><trkpt lat="44.01016136894023" lon="8.006845091849176"><ele>486.0</ele><time>2026-03-29T08:48:01.999Z</time></trkpt><trkpt lat="44.010209652111875" lon="8.006919047377004"><ele>486.0</ele><time>2026-03-29T08:48:02.999Z</time></trkpt><trkpt lat="44.01028061957921" lon="8.006994224523828"><ele>486.0</ele><time>2026-03-29T08:48:03.999Z</time></trkpt><trkpt lat="44.0103862416545" lon="8.007063948068101"><ele>486.0</ele><time>2026-03-29T08:48:04.999Z</time></trkpt><trkpt lat="44.010510863884186" lon="8.007079403504454"><ele>486.0</ele><time>2026-03-29T08:48:05.999Z</time></trkpt><trkpt lat="44.010603343495305" lon="8.007135760917114"><ele>486.0</ele><time>2026-03-29T08:48:06.999Z</time></trkpt><trkpt lat="44.01064652989264" lon="8.007262187280807"><ele>486.0</ele><time>2026-03-29T08:48:07.999Z</time></trkpt><trkpt lat="44.010696341817614" lon="8.007400804073479"><ele>486.0</ele><time>2026-03-29T08:48:08.999Z</time></trkpt><trkpt lat="44.01078510494614" lon="8.00744767169789"><ele>486.0</ele><time>2026-03-29T08:48:09.999Z</time></trkpt><trkpt lat="44.01090401854765" lon="8.007435202330003"><ele>486.75</ele><time>2026-03-29T08:48:10.999Z</time></trkpt><trkpt lat="44.01104981434593" lon="8.007425665229196"><ele>487.5</ele><time>2026-03-29T08:48:11.999Z</time></trkpt><trkpt lat="44.0111616988527" lon="8.007493426989416"><ele>488.25</ele><time>2026-03-29T08:48:12.999Z</time></trkpt><trkpt lat="44.01125509033313" lon="8.007620938517274"><ele>489.0</ele><time>2026-03-29T08:48:13.999Z</time></trkpt><trkpt lat="44.01134322899594" lon="8.007788562032458"><ele>489.0</ele><time>2026-03-29T08:48:14.999Z</time></trkpt><trkpt lat="44.01141256039744" lon="8.007878288241077"><ele>489.0</ele><time>2026-03-29T08:48:15.999Z</time></trkpt><trkpt lat="44.01148900618075" lon="8.007783396728154"><ele>489.0</ele><time>2026-03-29T08:48:17.999Z</time></trkpt><trkpt lat="44.01151166501723" lon="8.007628950859353"><ele>489.0</ele><time>2026-03-29T08:48:18.999Z</time></trkpt><trkpt lat="44.01154546156128" lon="8.007454808200075"><ele>489.0</ele><time>2026-03-29T08:48:19.999Z</time></trkpt><trkpt lat="44.01160312320588" lon="8.007332404717594"><ele>497.25</ele><time>2026-03-29T08:48:20.999Z</time></trkpt><trkpt lat="44.01171049066682" lon="8.007223398280699"><ele>505.5</ele><time>2026-03-29T08:48:21.999Z</time></trkpt><trkpt lat="44.01181791223398" lon="8.00705087483043"><ele>513.75</ele><time>2026-03-29T08:48:22.999Z</time></trkpt><trkpt lat="44.01193170545542" lon="8.006923033422918"><ele>522.0</ele><time>2026-03-29T08:48:23.999Z</time></trkpt><trkpt lat="44.01202887419915" lon="8.006799025312759"><ele>522.0</ele><time>2026-03-29T08:48:24.999Z</time></trkpt><trkpt lat="44.0121408353884" lon="8.006687666518635"><ele>522.0</ele><time>2026-03-29T08:48:25.999Z</time></trkpt><trkpt lat="44.012259471582446" lon="8.00660523795274"><ele>522.0</ele><time>2026-03-29T08:48:26.999Z</time></trkpt><trkpt lat="44.01240860709119" lon="8.006509497303366"><ele>522.0</ele><time>2026-03-29T08:48:27.999Z</time></trkpt><trkpt lat="44.01254491933779" lon="8.006472373668577"><ele>524.5</ele><time>2026-03-29T08:48:28.999Z</time></trkpt><trkpt lat="44.01263165804142" lon="8.006373872386293"><ele>527.0</ele><time>2026-03-29T08:48:29.999Z</time></trkpt><trkpt lat="44.01271121132208" lon="8.006233844184269"><ele>529.5</ele><time>2026-03-29T08:48:30.999Z</time></trkpt><trkpt lat="44.012791322211775" lon="8.006132806244231"><ele>532.0</ele><time>2026-03-29T08:48:31.999Z</time></trkpt><trkpt lat="44.01289583046934" lon="8.006105596615454"><ele>532.0</ele><time>2026-03-29T08:48:32.999Z</time></trkpt><trkpt lat="44.013032797402175" lon="8.006078193953993"><ele>532.0</ele><time>2026-03-29T08:48:33.999Z</time></trkpt><trkpt lat="44.013191463559174" lon="8.006050730450712"><ele>532.0</ele><time>2026-03-29T08:48:34.999Z</time></trkpt><trkpt lat="44.01332078773526" lon="8.006017271005076"><ele>532.0</ele><time>2026-03-29T08:48:35.999Z</time></trkpt><trkpt lat="44.01341689168859" lon="8.006022830438225"><ele>529.25</ele><time>2026-03-29T08:48:36.999Z</time></trkpt><trkpt lat="44.0135142128464" lon="8.005982735978234"><ele>526.5</ele><time>2026-03-29T08:48:37.999Z</time></trkpt><trkpt lat="44.013581806298006" lon="8.005846933995334"><ele>523.75</ele><time>2026-03-29T08:48:38.999Z</time></trkpt><trkpt lat="44.01367081049778" lon="8.005681324516463"><ele>521.0</ele><time>2026-03-29T08:48:39.999Z</time></trkpt><trkpt lat="44.01377018697635" lon="8.00555994619023"><ele>524.75</ele><time>2026-03-29T08:48:40.999Z</time></trkpt><trkpt lat="44.01388308130798" lon="8.005467819583615"><ele>528.5</ele><time>2026-03-29T08:48:41.999Z</time></trkpt><trkpt lat="44.01401433197175" lon="8.005423578071724"><ele>532.25</ele><time>2026-03-29T08:48:42.999Z</time></trkpt><trkpt lat="44.01413556239363" lon="8.005408667819191"><ele>536.0</ele><time>2026-03-29T08:48:43.999Z</time></trkpt><trkpt lat="44.01429113725352" lon="8.005470329350173"><ele>536.0</ele><time>2026-03-29T08:48:44.999Z</time></trkpt><trkpt lat="44.014456586267656" lon="8.005596825682707"><ele>536.0</ele><time>2026-03-29T08:48:45.999Z</time></trkpt><trkpt lat="44.01461494754215" lon="8.00573015679941"><ele>536.0</ele><time>2026-03-29T08:48:46.999Z</time></trkpt><trkpt lat="44.014749209844936" lon="8.00584639804009"><ele>535.6666666666666</ele><time>2026-03-29T08:48:47.999Z</time></trkpt><trkpt lat="44.01488619934486" lon="8.006044130248327"><ele>535.3333333333334</ele><time>2026-03-29T08:48:48.999Z</time></trkpt><trkpt lat="44.01501584291519" lon="8.006230223499763"><ele>535.0</ele><time>2026-03-29T08:48:49.999Z</time></trkpt><trkpt lat="44.01510829787016" lon="8.006371371729657"><ele>535.0</ele><time>2026-03-29T08:48:50.999Z</time></trkpt><trkpt lat="44.0151761609495" lon="8.006540071074308"><ele>535.0</ele><time>2026-03-29T08:48:51.999Z</time></trkpt><trkpt lat="44.0152619444027" lon="8.006650448936057"><ele>535.0</ele><time>2026-03-29T08:48:52.999Z</time></trkpt><trkpt lat="44.01533295191876" lon="8.006694432597223"><ele>535.0</ele><time>2026-03-29T08:48:53.999Z</time></trkpt><trkpt lat="44.015395092893186" lon="8.006590464875627"><ele>535.0</ele><time>2026-03-29T08:48:55.999Z</time></trkpt><trkpt lat="44.01536837751338" lon="8.006476725488595"><ele>535.0</ele><time>2026-03-29T08:48:56.999Z</time></trkpt><trkpt lat="44.015288566075974" lon="8.006417046380884"><ele>535.0</ele><time>2026-03-29T08:48:57.999Z</time></trkpt><trkpt lat="44.0152063362142" lon="8.006358483980556"><ele>535.0</ele><time>2026-03-29T08:48:58.999Z</time></trkpt><trkpt lat="44.01513985181204" lon="8.006283100640996"><ele>535.0</ele><time>2026-03-29T08:48:59.999Z</time></trkpt><trkpt lat="44.0150639362354" lon="8.006085086630357"><ele>535.0</ele><time>2026-03-29T08:49:00.999Z</time></trkpt><trkpt lat="44.01495239800508" lon="8.005884451424382"><ele>535.3333333333334</ele><time>2026-03-29T08:49:01.999Z</time></trkpt><trkpt lat="44.01486196361065" lon="8.005722773158473"><ele>535.6666666666666</ele><time>2026-03-29T08:49:02.999Z</time></trkpt><trkpt lat="44.01476383945613" lon="8.005555152836857"><ele>536.0</ele><time>2026-03-29T08:49:03.999Z</time></trkpt><trkpt lat="44.01467368333765" lon="8.005370613158263"><ele>536.0</ele><time>2026-03-29T08:49:04.999Z</time></trkpt><trkpt lat="44.01458102224738" lon="8.005253438343708"><ele>536.0</ele><time>2026-03-29T08:49:05.999Z</time></trkpt><trkpt lat="44.01448728249447" lon="8.005217254331848"><ele>536.0</ele><time>2026-03-29T08:49:06.999Z</time></trkpt><trkpt lat="44.01435622936006" lon="8.00518451749021"><ele>536.0</ele><time>2026-03-29T08:49:08Z</time></trkpt><trkpt lat="44.01425415216343" lon="8.005135707242806"><ele>536.0</ele><time>2026-03-29T08:49:09Z</time></trkpt><trkpt lat="44.014162864993125" lon="8.005071885784163"><ele>536.0</ele><time>2026-03-29T08:49:10Z</time></trkpt><trkpt lat="44.014033689281426" lon="8.00497365972853"><ele>536.0</ele><time>2026-03-29T08:49:11Z</time></trkpt><trkpt lat="44.01389613962385" lon="8.00492655937246"><ele>536.0</ele><time>2026-03-29T08:49:12Z</time></trkpt><trkpt lat="44.01373804185544" lon="8.00496213856402"><ele>534.6</ele><time>2026-03-29T08:49:13Z</time></trkpt><trkpt lat="44.01360497011109" lon="8.004988068891844"><ele>533.2</ele><time>2026-03-29T08:49:14Z</time></trkpt><trkpt lat="44.01350755448864" lon="8.005050988622749"><ele>531.8</ele><time>2026-03-29T08:49:15Z</time></trkpt><trkpt lat="44.01344024546954" lon="8.005153198423374"><ele>530.4</ele><time>2026-03-29T08:49:16Z</time></trkpt><trkpt lat="44.01337772897343" lon="8.005253772495948"><ele>529.0</ele><time>2026-03-29T08:49:17Z</time></trkpt><trkpt lat="44.01331229770697" lon="8.00527550249068"><ele>535.75</ele><time>2026-03-29T08:49:18Z</time></trkpt><trkpt lat="44.01324902323827" lon="8.005195305673583"><ele>542.5</ele><time>2026-03-29T08:49:19Z</time></trkpt><trkpt lat="44.01317083240439" lon="8.00507481183427"><ele>549.25</ele><time>2026-03-29T08:49:20Z</time></trkpt><trkpt lat="44.013023121548535" lon="8.005018348618957"><ele>556.0</ele><time>2026-03-29T08:49:21Z</time></trkpt><trkpt lat="44.01289548221736" lon="8.00502760096132"><ele>556.0</ele><time>2026-03-29T08:49:22Z</time></trkpt><trkpt lat="44.012752014627914" lon="8.005064245326643"><ele>556.0</ele><time>2026-03-29T08:49:23Z</time></trkpt><trkpt lat="44.01259602165606" lon="8.005148577532193"><ele>556.0</ele><time>2026-03-29T08:49:24Z</time></trkpt><trkpt lat="44.012433527521345" lon="8.005243054155995"><ele>559.75</ele><time>2026-03-29T08:49:25Z</time></trkpt><trkpt lat="44.01228334736056" lon="8.005328320857815"><ele>563.5</ele><time>2026-03-29T08:49:26Z</time></trkpt><trkpt lat="44.01217114416432" lon="8.005399121464144"><ele>567.25</ele><time>2026-03-29T08:49:27Z</time></trkpt><trkpt lat="44.01201583098781" lon="8.005413460118147"><ele>571.0</ele><time>2026-03-29T08:49:28Z</time></trkpt><trkpt lat="44.01183080217363" lon="8.005428860520658"><ele>571.0</ele><time>2026-03-29T08:49:29Z</time></trkpt><trkpt lat="44.01168682329613" lon="8.005449929747998"><ele>571.0</ele><time>2026-03-29T08:49:30Z</time></trkpt><trkpt lat="44.01160351739997" lon="8.005515485979112"><ele>571.0</ele><time>2026-03-29T08:49:31Z</time></trkpt><trkpt lat="44.01154481964359" lon="8.005634608569205"><ele>571.0</ele><time>2026-03-29T08:49:32Z</time></trkpt><trkpt lat="44.0114751909466" lon="8.005749999041004"><ele>566.2</ele><time>2026-03-29T08:49:33Z</time></trkpt><trkpt lat="44.01136044152378" lon="8.005808527463424"><ele>561.4000000000001</ele><time>2026-03-29T08:49:34Z</time></trkpt><trkpt lat="44.01126575360185" lon="8.00580531823703"><ele>556.6</ele><time>2026-03-29T08:49:35Z</time></trkpt><trkpt lat="44.011211630556616" lon="8.005717333691425"><ele>551.8000000000001</ele><time>2026-03-29T08:49:36Z</time></trkpt><trkpt lat="44.011145666772244" lon="8.005552147819815"><ele>547.0</ele><time>2026-03-29T08:49:37Z</time></trkpt><trkpt lat="44.01110436305403" lon="8.005395244612668"><ele>547.0</ele><time>2026-03-29T08:49:38Z</time></trkpt><trkpt lat="44.01105957440805" lon="8.00520645104441"><ele>547.0</ele><time>2026-03-29T08:49:39Z</time></trkpt><trkpt lat="44.01101153142132" lon="8.005110303622411"><ele>547.0</ele><time>2026-03-29T08:49:40Z</time></trkpt><trkpt lat="44.01104165391471" lon="8.004999595119386"><ele>547.0</ele><time>2026-03-29T08:49:41Z</time></trkpt><trkpt lat="44.01107763045625" lon="8.004797207025067"><ele>550.6666666666667</ele><time>2026-03-29T08:49:42Z</time></trkpt><trkpt lat="44.01109756113126" lon="8.00462830945765"><ele>554.3333333333334</ele><time>2026-03-29T08:49:43Z</time></trkpt><trkpt lat="44.01108033177367" lon="8.004382833473896"><ele>558.0</ele><time>2026-03-29T08:49:44Z</time></trkpt><trkpt lat="44.01104112810025" lon="8.004138360725184"><ele>562.0</ele><time>2026-03-29T08:49:45Z</time></trkpt><trkpt lat="44.01100762305888" lon="8.003892442677362"><ele>566.0</ele><time>2026-03-29T08:49:46Z</time></trkpt><trkpt lat="44.01096886614047" lon="8.003676751551101"><ele>570.0</ele><time>2026-03-29T08:49:47Z</time></trkpt><trkpt lat="44.01092518427922" lon="8.003476678904041"><ele>569.0</ele><time>2026-03-29T08:49:48Z</time></trkpt><trkpt lat="44.010863256886985" lon="8.003294541311696"><ele>568.0</ele><time>2026-03-29T08:49:49Z</time></trkpt><trkpt lat="44.01081035379777" lon="8.003167033553668"><ele>567.0</ele><time>2026-03-29T08:49:50Z</time></trkpt><trkpt lat="44.01075567760151" lon="8.003036511996251"><ele>566.0</ele><time>2026-03-29T08:49:51Z</time></trkpt><trkpt lat="44.010724936284866" lon="8.002938908076388"><ele>565.0</ele><time>2026-03-29T08:49:52Z</time></trkpt><trkpt lat="44.0106983114136" lon="8.002789484307815"><ele>565.5</ele><time>2026-03-29T08:49:53Z</time></trkpt><trkpt lat="44.01067548427161" lon="8.002652577447037"><ele>566.0</ele><time>2026-03-29T08:49:54Z</time></trkpt><trkpt lat="44.0105930848253" lon="8.002530344556469"><ele>566.5</ele><time>2026-03-29T08:49:55Z</time></trkpt><trkpt lat="44.01046017759127" lon="8.002414148866453"><ele>567.0</ele><time>2026-03-29T08:49:56Z</time></trkpt><trkpt lat="44.010317789871856" lon="8.002282423997709"><ele>567.0</ele><time>2026-03-29T08:49:57Z</time></trkpt><trkpt lat="44.01020902156859" lon="8.002210703227957"><ele>567.0</ele><time>2026-03-29T08:49:58Z</time></trkpt><trkpt lat="44.010084224111274" lon="8.002168717046846"><ele>567.0</ele><time>2026-03-29T08:49:59Z</time></trkpt><trkpt lat="44.00992706530784" lon="8.002166988694075"><ele>567.0</ele><time>2026-03-29T08:50:00Z</time></trkpt><trkpt lat="44.00980377666942" lon="8.002157222121095"><ele>571.4</ele><time>2026-03-29T08:50:01Z</time></trkpt><trkpt lat="44.00974654406832" lon="8.002097061229206"><ele>575.8000000000001</ele><time>2026-03-29T08:50:02Z</time></trkpt><trkpt lat="44.0096809723019" lon="8.002005115545687"><ele>580.2</ele><time>2026-03-29T08:50:03Z</time></trkpt><trkpt lat="44.00960378443441" lon="8.001846401876326"><ele>584.6</ele><time>2026-03-29T08:50:04Z</time></trkpt><trkpt lat="44.00951933701311" lon="8.001756682033987"><ele>589.0</ele><time>2026-03-29T08:50:04.999Z</time></trkpt><trkpt lat="44.00942648258421" lon="8.001710364557512"><ele>589.0</ele><time>2026-03-29T08:50:05.999Z</time></trkpt><trkpt lat="44.009295052892675" lon="8.00167720102536"><ele>589.0</ele><time>2026-03-29T08:50:06.999Z</time></trkpt><trkpt lat="44.00919023752144" lon="8.001647112719501"><ele>589.0</ele><time>2026-03-29T08:50:07.999Z</time></trkpt><trkpt lat="44.009065814257916" lon="8.00166636181518"><ele>589.0</ele><time>2026-03-29T08:50:08.999Z</time></trkpt><trkpt lat="44.00890815193789" lon="8.001670616425052"><ele>587.6</ele><time>2026-03-29T08:50:09.999Z</time></trkpt><trkpt lat="44.00878078156726" lon="8.001624953675156"><ele>586.2</ele><time>2026-03-29T08:50:10.999Z</time></trkpt><trkpt lat="44.008680210314324" lon="8.001576031274656"><ele>584.8000000000001</ele><time>2026-03-29T08:50:11.999Z</time></trkpt><trkpt lat="44.00859187613781" lon="8.001548745660141"><ele>583.4</ele><time>2026-03-29T08:50:12.999Z</time></trkpt><trkpt lat="44.008512470574196" lon="8.00157286796089"><ele>582.0</ele><time>2026-03-29T08:50:13.999Z</time></trkpt><trkpt lat="44.008401847325" lon="8.001648193677532"><ele>589.0</ele><time>2026-03-29T08:50:14.999Z</time></trkpt><trkpt lat="44.00828505292021" lon="8.001753000624609"><ele>596.0</ele><time>2026-03-29T08:50:15.999Z</time></trkpt><trkpt lat="44.00820345852963" lon="8.001819681357825"><ele>603.0</ele><time>2026-03-29T08:50:16.999Z</time></trkpt><trkpt lat="44.008108353591226" lon="8.001843328455514"><ele>610.0</ele><time>2026-03-29T08:50:17.999Z</time></trkpt><trkpt lat="44.00798069514912" lon="8.001862968148407"><ele>610.0</ele><time>2026-03-29T08:50:18.999Z</time></trkpt><trkpt lat="44.00785858287531" lon="8.001948465460242"><ele>610.0</ele><time>2026-03-29T08:50:19.999Z</time></trkpt><trkpt lat="44.00776678602341" lon="8.001984668272263"><ele>610.0</ele><time>2026-03-29T08:50:20.999Z</time></trkpt><trkpt lat="44.00767178189554" lon="8.00195799906121"><ele>610.0</ele><time>2026-03-29T08:50:21.999Z</time></trkpt><trkpt lat="44.00758798853313" lon="8.00188712676756"><ele>610.0</ele><time>2026-03-29T08:50:22.999Z</time></trkpt><trkpt lat="44.00749055102765" lon="8.001847337575196"><ele>613.4</ele><time>2026-03-29T08:50:23.999Z</time></trkpt><trkpt lat="44.0074182423632" lon="8.001748648760007"><ele>616.8</ele><time>2026-03-29T08:50:24.999Z</time></trkpt><trkpt lat="44.007338081000725" lon="8.001602404374026"><ele>620.2</ele><time>2026-03-29T08:50:25.999Z</time></trkpt><trkpt lat="44.00725957421846" lon="8.001530531454902"><ele>623.6</ele><time>2026-03-29T08:50:26.999Z</time></trkpt><trkpt lat="44.00716528765222" lon="8.001502402708896"><ele>627.0</ele><time>2026-03-29T08:50:27.999Z</time></trkpt><trkpt lat="44.00701127645879" lon="8.001481800925314"><ele>628.0</ele><time>2026-03-29T08:50:28.999Z</time></trkpt><trkpt lat="44.00686862015691" lon="8.001457550662401"><ele>629.0</ele><time>2026-03-29T08:50:29.999Z</time></trkpt><trkpt lat="44.00677863260649" lon="8.001476838811298"><ele>630.0</ele><time>2026-03-29T08:50:30.999Z</time></trkpt><trkpt lat="44.00670725288029" lon="8.001560158309292"><ele>631.0</ele><time>2026-03-29T08:50:31.999Z</time></trkpt><trkpt lat="44.00663594015577" lon="8.001674946698817"><ele>632.0</ele><time>2026-03-29T08:50:32.999Z</time></trkpt><trkpt lat="44.00659649540913" lon="8.001798773688545"><ele>632.75</ele><time>2026-03-29T08:50:33.999Z</time></trkpt><trkpt lat="44.00652162249537" lon="8.001963014115754"><ele>633.5</ele><time>2026-03-29T08:50:34.999Z</time></trkpt><trkpt lat="44.0064473938487" lon="8.00206743126822"><ele>634.25</ele><time>2026-03-29T08:50:35.999Z</time></trkpt><trkpt lat="44.00631693434385" lon="8.002131145221542"><ele>635.0</ele><time>2026-03-29T08:50:36.999Z</time></trkpt><trkpt lat="44.006223921336584" lon="8.002205305415446"><ele>635.0</ele><time>2026-03-29T08:50:37.999Z</time></trkpt><trkpt lat="44.006142237113615" lon="8.00221148931359"><ele>635.0</ele><time>2026-03-29T08:50:38.999Z</time></trkpt><trkpt lat="44.00608978146652" lon="8.002127049371248"><ele>635.0</ele><time>2026-03-29T08:50:39.999Z</time></trkpt><trkpt lat="44.006068590668434" lon="8.002023909745539"><ele>635.0</ele><time>2026-03-29T08:50:40.999Z</time></trkpt><trkpt lat="44.00610765893742" lon="8.00194418119812"><ele>635.0</ele><time>2026-03-29T08:50:43.999Z</time></trkpt><trkpt lat="44.00624712364069" lon="8.00199902331096"><ele>635.0</ele><time>2026-03-29T08:50:45.999Z</time></trkpt><trkpt lat="44.006326698379596" lon="8.001981109375034"><ele>635.0</ele><time>2026-03-29T08:50:46.999Z</time></trkpt><trkpt lat="44.00639760049373" lon="8.00193270310185"><ele>635.0</ele><time>2026-03-29T08:50:47.999Z</time></trkpt><trkpt lat="44.00646515719045" lon="8.001862446785674"><ele>635.0</ele><time>2026-03-29T08:50:48.999Z</time></trkpt><trkpt lat="44.00652106976459" lon="8.001779676582924"><ele>635.0</ele><time>2026-03-29T08:50:49.999Z</time></trkpt><trkpt lat="44.00656701486128" lon="8.001674956275673"><ele>635.0</ele><time>2026-03-29T08:50:50.999Z</time></trkpt><trkpt lat="44.00660657571439" lon="8.001556262335713"><ele>634.4</ele><time>2026-03-29T08:50:51.999Z</time></trkpt><trkpt lat="44.00664943679295" lon="8.001436124851718"><ele>633.8</ele><time>2026-03-29T08:50:52.999Z</time></trkpt><trkpt lat="44.006698598421345" lon="8.001323772606504"><ele>633.2</ele><time>2026-03-29T08:50:53.999Z</time></trkpt><trkpt lat="44.006753838467105" lon="8.001222559165441"><ele>632.6</ele><time>2026-03-29T08:50:54.999Z</time></trkpt><trkpt lat="44.0068103924083" lon="8.001113905819318"><ele>632.0</ele><time>2026-03-29T08:50:55.999Z</time></trkpt><trkpt lat="44.00684578373931" lon="8.00099155730781"><ele>632.0</ele><time>2026-03-29T08:50:56.999Z</time></trkpt><trkpt lat="44.006815832087206" lon="8.000883972963214"><ele>632.0</ele><time>2026-03-29T08:50:57.999Z</time></trkpt><trkpt lat="44.00674916349368" lon="8.000805189255583"><ele>632.0</ele><time>2026-03-29T08:50:58.999Z</time></trkpt><trkpt lat="44.006646429022375" lon="8.000762589052677"><ele>632.0</ele><time>2026-03-29T08:50:59.999Z</time></trkpt><trkpt lat="44.00654974908147" lon="8.0007100581689"><ele>632.0</ele><time>2026-03-29T08:51:00.999Z</time></trkpt><trkpt lat="44.00645889941033" lon="8.000646992869338"><ele>636.2</ele><time>2026-03-29T08:51:01.999Z</time></trkpt><trkpt lat="44.00637132827119" lon="8.00056437823787"><ele>640.4000000000001</ele><time>2026-03-29T08:51:02.999Z</time></trkpt><trkpt lat="44.0063226789599" lon="8.000433426684477"><ele>644.5999999999999</ele><time>2026-03-29T08:51:03.999Z</time></trkpt><trkpt lat="44.00630690296685" lon="8.000305612098332"><ele>648.8</ele><time>2026-03-29T08:51:04.999Z</time></trkpt><trkpt lat="44.00627192188263" lon="8.000144612192262"><ele>653.0</ele><time>2026-03-29T08:51:05.999Z</time></trkpt><trkpt lat="44.00621421575357" lon="7.999999732757888"><ele>653.0</ele><time>2026-03-29T08:51:06.999Z</time></trkpt><trkpt lat="44.00610757476437" lon="7.9998991526024605"><ele>653.0</ele><time>2026-03-29T08:51:07.999Z</time></trkpt><trkpt lat="44.006004715348354" lon="7.999818038107402"><ele>653.0</ele><time>2026-03-29T08:51:08.999Z</time></trkpt><trkpt lat="44.00592075460755" lon="7.99970564205247"><ele>653.0</ele><time>2026-03-29T08:51:09.999Z</time></trkpt><trkpt lat="44.005844025195586" lon="7.9995909337982045"><ele>662.0</ele><time>2026-03-29T08:51:10.999Z</time></trkpt><trkpt lat="44.00578270966895" lon="7.999459524880254"><ele>671.0</ele><time>2026-03-29T08:51:11.999Z</time></trkpt><trkpt lat="44.00573333472944" lon="7.99931282030121"><ele>680.0</ele><time>2026-03-29T08:51:12.999Z</time></trkpt><trkpt lat="44.005681163154506" lon="7.999167387889755"><ele>689.0</ele><time>2026-03-29T08:51:14Z</time></trkpt><trkpt lat="44.00560569901994" lon="7.999036603228252"><ele>689.0</ele><time>2026-03-29T08:51:15Z</time></trkpt><trkpt lat="44.00550799160101" lon="7.998933517691383"><ele>689.0</ele><time>2026-03-29T08:51:16Z</time></trkpt><trkpt lat="44.00542608147685" lon="7.998815310920832"><ele>689.0</ele><time>2026-03-29T08:51:17Z</time></trkpt><trkpt lat="44.00536793778283" lon="7.9986737766726606"><ele>689.0</ele><time>2026-03-29T08:51:18Z</time></trkpt><trkpt lat="44.005289463642896" lon="7.998554715914558"><ele>689.0</ele><time>2026-03-29T08:51:19Z</time></trkpt><trkpt lat="44.00522610285471" lon="7.9984199640603935"><ele>689.0</ele><time>2026-03-29T08:51:20Z</time></trkpt><trkpt lat="44.00517637326475" lon="7.998276175329315"><ele>689.0</ele><time>2026-03-29T08:51:21Z</time></trkpt><trkpt lat="44.00511962836148" lon="7.998144577433573"><ele>689.0</ele><time>2026-03-29T08:51:22Z</time></trkpt><trkpt lat="44.00507526534297" lon="7.9980284751802495"><ele>689.0</ele><time>2026-03-29T08:51:23Z</time></trkpt><trkpt lat="44.00508299690893" lon="7.99790134196954"><ele>686.0</ele><time>2026-03-29T08:51:24Z</time></trkpt><trkpt lat="44.005162513616625" lon="7.997796128370901"><ele>683.0</ele><time>2026-03-29T08:51:25Z</time></trkpt><trkpt lat="44.00522104354525" lon="7.997662013643799"><ele>680.0</ele><time>2026-03-29T08:51:26Z</time></trkpt><trkpt lat="44.005282746384026" lon="7.997521817249034"><ele>677.0</ele><time>2026-03-29T08:51:27Z</time></trkpt><trkpt lat="44.00532597881999" lon="7.997372784682479"><ele>677.0</ele><time>2026-03-29T08:51:28Z</time></trkpt><trkpt lat="44.00538359726318" lon="7.997239626942533"><ele>677.0</ele><time>2026-03-29T08:51:29Z</time></trkpt><trkpt lat="44.005440275717056" lon="7.9971046634775655"><ele>677.0</ele><time>2026-03-29T08:51:30Z</time></trkpt><trkpt lat="44.0054966417061" lon="7.996962360488029"><ele>677.0</ele><time>2026-03-29T08:51:31Z</time></trkpt><trkpt lat="44.005559757306024" lon="7.996828831088891"><ele>677.0</ele><time>2026-03-29T08:51:32Z</time></trkpt><trkpt lat="44.00562264025001" lon="7.996697297227114"><ele>677.0</ele><time>2026-03-29T08:51:33Z</time></trkpt><trkpt lat="44.00569326147097" lon="7.996580564988991"><ele>677.0</ele><time>2026-03-29T08:51:34Z</time></trkpt><trkpt lat="44.005773062066325" lon="7.996472993815218"><ele>677.0</ele><time>2026-03-29T08:51:35Z</time></trkpt><trkpt lat="44.00586089696603" lon="7.996366603655988"><ele>671.0</ele><time>2026-03-29T08:51:36Z</time></trkpt><trkpt lat="44.00595571454525" lon="7.99626242166302"><ele>665.0</ele><time>2026-03-29T08:51:37Z</time></trkpt><trkpt lat="44.006050917993065" lon="7.996165284603997"><ele>659.0</ele><time>2026-03-29T08:51:38Z</time></trkpt><trkpt lat="44.006146871531094" lon="7.996069693977385"><ele>653.0</ele><time>2026-03-29T08:51:39Z</time></trkpt><trkpt lat="44.00622942442227" lon="7.995982852758513"><ele>653.0</ele><time>2026-03-29T08:51:40Z</time></trkpt><trkpt lat="44.006295964260026" lon="7.995903189862424"><ele>653.0</ele><time>2026-03-29T08:51:41Z</time></trkpt><trkpt lat="44.00633590196569" lon="7.99578232556792"><ele>653.0</ele><time>2026-03-29T08:51:42Z</time></trkpt><trkpt lat="44.00633106490068" lon="7.995630602920464"><ele>653.0</ele><time>2026-03-29T08:51:43Z</time></trkpt><trkpt lat="44.006304554981206" lon="7.99547407175926"><ele>653.0</ele><time>2026-03-29T08:51:44Z</time></trkpt><trkpt lat="44.00628062757688" lon="7.995305758348372"><ele>659.0</ele><time>2026-03-29T08:51:45Z</time></trkpt><trkpt lat="44.00627381727396" lon="7.995143094443622"><ele>665.0</ele><time>2026-03-29T08:51:46Z</time></trkpt><trkpt lat="44.00626462030177" lon="7.9949879697188795"><ele>671.0</ele><time>2026-03-29T08:51:47Z</time></trkpt><trkpt lat="44.006254192134904" lon="7.994835002289023"><ele>677.0</ele><time>2026-03-29T08:51:48Z</time></trkpt><trkpt lat="44.006261277008385" lon="7.994684104684333"><ele>683.0</ele><time>2026-03-29T08:51:49Z</time></trkpt><trkpt lat="44.00628982321383" lon="7.994537819585306"><ele>688.0</ele><time>2026-03-29T08:51:50Z</time></trkpt><trkpt lat="44.00633600139968" lon="7.994393392512867"><ele>693.0</ele><time>2026-03-29T08:51:51Z</time></trkpt><trkpt lat="44.006391119602654" lon="7.994253926218431"><ele>698.0</ele><time>2026-03-29T08:51:52Z</time></trkpt><trkpt lat="44.006449233470136" lon="7.994114065900739"><ele>703.0</ele><time>2026-03-29T08:51:53Z</time></trkpt><trkpt lat="44.006498787718485" lon="7.993966966703398"><ele>705.5</ele><time>2026-03-29T08:51:54Z</time></trkpt><trkpt lat="44.006546589404515" lon="7.993817892598882"><ele>708.0</ele><time>2026-03-29T08:51:55Z</time></trkpt><trkpt lat="44.00658735970418" lon="7.993668468265361"><ele>710.5</ele><time>2026-03-29T08:51:56Z</time></trkpt><trkpt lat="44.0066263961466" lon="7.993513779680221"><ele>713.0</ele><time>2026-03-29T08:51:57Z</time></trkpt><trkpt lat="44.006661148947956" lon="7.993360828788231"><ele>705.4</ele><time>2026-03-29T08:51:58Z</time></trkpt><trkpt lat="44.006694365674264" lon="7.993212952860562"><ele>697.8</ele><time>2026-03-29T08:51:59Z</time></trkpt><trkpt lat="44.006718144942454" lon="7.993065300002658"><ele>690.2</ele><time>2026-03-29T08:52:00Z</time></trkpt><trkpt lat="44.00672913821896" lon="7.992911627592774"><ele>682.6</ele><time>2026-03-29T08:52:00.999Z</time></trkpt><trkpt lat="44.00672883915079" lon="7.992758244629972"><ele>675.0</ele><time>2026-03-29T08:52:01.999Z</time></trkpt><trkpt lat="44.0067220488217" lon="7.992600561990651"><ele>677.4</ele><time>2026-03-29T08:52:02.999Z</time></trkpt><trkpt lat="44.00671784516749" lon="7.992443951858051"><ele>679.8</ele><time>2026-03-29T08:52:03.999Z</time></trkpt><trkpt lat="44.00671278985128" lon="7.992298041876767"><ele>682.2</ele><time>2026-03-29T08:52:04.999Z</time></trkpt><trkpt lat="44.006712101132024" lon="7.992149481366413"><ele>684.6</ele><time>2026-03-29T08:52:05.999Z</time></trkpt><trkpt lat="44.0067147904439" lon="7.991993401144022"><ele>687.0</ele><time>2026-03-29T08:52:06.999Z</time></trkpt><trkpt lat="44.00672881190007" lon="7.991837037122411"><ele>687.0</ele><time>2026-03-29T08:52:07.999Z</time></trkpt><trkpt lat="44.00675325811947" lon="7.991689227606178"><ele>687.0</ele><time>2026-03-29T08:52:08.999Z</time></trkpt><trkpt lat="44.006788867854205" lon="7.991549666783472"><ele>687.0</ele><time>2026-03-29T08:52:09.999Z</time></trkpt><trkpt lat="44.006838018725" lon="7.991423557651233"><ele>687.0</ele><time>2026-03-29T08:52:10.999Z</time></trkpt><trkpt lat="44.006918129949185" lon="7.991327878788398"><ele>687.0</ele><time>2026-03-29T08:52:11.999Z</time></trkpt><trkpt lat="44.00698535209335" lon="7.991217387729418"><ele>685.8</ele><time>2026-03-29T08:52:12.999Z</time></trkpt><trkpt lat="44.007062154165176" lon="7.991128594805569"><ele>684.6</ele><time>2026-03-29T08:52:13.999Z</time></trkpt><trkpt lat="44.00712853703869" lon="7.9910299167569"><ele>683.4</ele><time>2026-03-29T08:52:14.999Z</time></trkpt><trkpt lat="44.00718312301866" lon="7.9909712162348265"><ele>682.1999999999999</ele><time>2026-03-29T08:52:15.999Z</time></trkpt><trkpt lat="44.0072146174869" lon="7.990892342531801"><ele>681.0</ele><time>2026-03-29T08:52:16.999Z</time></trkpt><trkpt lat="44.00702341757233" lon="7.9909112312630635"><ele>681.0</ele><time>2026-03-29T08:52:20.999Z</time></trkpt><trkpt lat="44.00697251802324" lon="7.99099938261559"><ele>681.0</ele><time>2026-03-29T08:52:21.999Z</time></trkpt><trkpt lat="44.00691847109374" lon="7.991087949186367"><ele>681.0</ele><time>2026-03-29T08:52:22.999Z</time></trkpt><trkpt lat="44.00685770182766" lon="7.991177713685859"><ele>681.0</ele><time>2026-03-29T08:52:23.999Z</time></trkpt><trkpt lat="44.00679127007484" lon="7.9912561589689375"><ele>681.0</ele><time>2026-03-29T08:52:24.999Z</time></trkpt><trkpt lat="44.006714536184404" lon="7.991310965013471"><ele>681.0</ele><time>2026-03-29T08:52:25.999Z</time></trkpt><trkpt lat="44.006612109497574" lon="7.991352937066465"><ele>685.5</ele><time>2026-03-29T08:52:26.999Z</time></trkpt><trkpt lat="44.00649824267055" lon="7.991397227445876"><ele>690.0</ele><time>2026-03-29T08:52:27.999Z</time></trkpt><trkpt lat="44.00638378549247" lon="7.991478230052232"><ele>694.5</ele><time>2026-03-29T08:52:28.999Z</time></trkpt><trkpt lat="44.00625768338067" lon="7.991548247715325"><ele>699.0</ele><time>2026-03-29T08:52:29.999Z</time></trkpt><trkpt lat="44.00608837428374" lon="7.9915707543034955"><ele>699.0</ele><time>2026-03-29T08:52:30.999Z</time></trkpt><trkpt lat="44.0058880502732" lon="7.991580092142132"><ele>699.0</ele><time>2026-03-29T08:52:31.999Z</time></trkpt><trkpt lat="44.00573903046603" lon="7.991601203995375"><ele>699.0</ele><time>2026-03-29T08:52:32.999Z</time></trkpt><trkpt lat="44.00563843300271" lon="7.991593471514664"><ele>698.0</ele><time>2026-03-29T08:52:33.999Z</time></trkpt><trkpt lat="44.005531113679396" lon="7.991641399135131"><ele>697.0</ele><time>2026-03-29T08:52:34.999Z</time></trkpt><trkpt lat="44.00545886727277" lon="7.9917180400643835"><ele>696.0</ele><time>2026-03-29T08:52:35.999Z</time></trkpt><trkpt lat="44.00539777678369" lon="7.991859057424458"><ele>695.0</ele><time>2026-03-29T08:52:36.999Z</time></trkpt><trkpt lat="44.005320872751874" lon="7.992008737885159"><ele>694.0</ele><time>2026-03-29T08:52:37.999Z</time></trkpt><trkpt lat="44.00521717902764" lon="7.992135497245002"><ele>693.0</ele><time>2026-03-29T08:52:38.999Z</time></trkpt><trkpt lat="44.005104127116596" lon="7.9921918336872775"><ele>692.0</ele><time>2026-03-29T08:52:39.999Z</time></trkpt><trkpt lat="44.00497830813289" lon="7.992175368204049"><ele>691.0</ele><time>2026-03-29T08:52:40.999Z</time></trkpt><trkpt lat="44.004863718738044" lon="7.9921371424123"><ele>691.0</ele><time>2026-03-29T08:52:41.999Z</time></trkpt><trkpt lat="44.00475747110639" lon="7.992114185461767"><ele>691.0</ele><time>2026-03-29T08:52:42.999Z</time></trkpt><trkpt lat="44.004660237989505" lon="7.992135444947415"><ele>691.0</ele><time>2026-03-29T08:52:43.999Z</time></trkpt><trkpt lat="44.00461503686343" lon="7.992200734181807"><ele>691.0</ele><time>2026-03-29T08:52:44.999Z</time></trkpt><trkpt lat="44.0046321637769" lon="7.992334437208861"><ele>691.0</ele><time>2026-03-29T08:52:46.999Z</time></trkpt><trkpt lat="44.00466125234425" lon="7.9924589440746425"><ele>694.75</ele><time>2026-03-29T08:52:47.999Z</time></trkpt><trkpt lat="44.00468602025557" lon="7.992624910172822"><ele>698.5</ele><time>2026-03-29T08:52:48.999Z</time></trkpt><trkpt lat="44.00468384695386" lon="7.992820918629918"><ele>702.25</ele><time>2026-03-29T08:52:49.999Z</time></trkpt><trkpt lat="44.00465756914811" lon="7.993034252129591"><ele>706.0</ele><time>2026-03-29T08:52:50.999Z</time></trkpt><trkpt lat="44.004620664841475" lon="7.993210011428709"><ele>712.0</ele><time>2026-03-29T08:52:51.999Z</time></trkpt><trkpt lat="44.004560361270805" lon="7.9933646411696415"><ele>718.0</ele><time>2026-03-29T08:52:52.999Z</time></trkpt><trkpt lat="44.00446117287289" lon="7.993515967357235"><ele>724.0</ele><time>2026-03-29T08:52:53.999Z</time></trkpt><trkpt lat="44.00435598135789" lon="7.9936907777117865"><ele>730.0</ele><time>2026-03-29T08:52:54.999Z</time></trkpt><trkpt lat="44.00428628022723" lon="7.993883912162914"><ele>730.0</ele><time>2026-03-29T08:52:55.999Z</time></trkpt><trkpt lat="44.00417112487995" lon="7.994050689947312"><ele>730.0</ele><time>2026-03-29T08:52:56.999Z</time></trkpt><trkpt lat="44.00405363701538" lon="7.994244144671188"><ele>730.0</ele><time>2026-03-29T08:52:57.999Z</time></trkpt><trkpt lat="44.00393220442896" lon="7.994421038953744"><ele>734.5</ele><time>2026-03-29T08:52:58.999Z</time></trkpt><trkpt lat="44.00384036632362" lon="7.9945352760859345"><ele>739.0</ele><time>2026-03-29T08:52:59.999Z</time></trkpt><trkpt lat="44.00376836444644" lon="7.99461481764122"><ele>743.5</ele><time>2026-03-29T08:53:00.999Z</time></trkpt><trkpt lat="44.00366108026868" lon="7.994663066033707"><ele>748.0</ele><time>2026-03-29T08:53:01.999Z</time></trkpt><trkpt lat="44.00353325887902" lon="7.994725137173991"><ele>748.0</ele><time>2026-03-29T08:53:02.999Z</time></trkpt><trkpt lat="44.00342015197295" lon="7.994757586240699"><ele>748.0</ele><time>2026-03-29T08:53:03.999Z</time></trkpt><trkpt lat="44.00327818375554" lon="7.994738281542414"><ele>748.0</ele><time>2026-03-29T08:53:04.999Z</time></trkpt><trkpt lat="44.00309529441636" lon="7.994722587495729"><ele>748.0</ele><time>2026-03-29T08:53:05.999Z</time></trkpt><trkpt lat="44.00292182481518" lon="7.994741067211412"><ele>749.0</ele><time>2026-03-29T08:53:06.999Z</time></trkpt><trkpt lat="44.002814974993576" lon="7.994763282381541"><ele>750.0</ele><time>2026-03-29T08:53:07.999Z</time></trkpt><trkpt lat="44.00274307985786" lon="7.994796553375281"><ele>751.0</ele><time>2026-03-29T08:53:08.999Z</time></trkpt><trkpt lat="44.002676204166065" lon="7.9948591178942"><ele>752.0</ele><time>2026-03-29T08:53:09.999Z</time></trkpt><trkpt lat="44.00261124199612" lon="7.994960536056974"><ele>753.0</ele><time>2026-03-29T08:53:10.999Z</time></trkpt><trkpt lat="44.00255388404429" lon="7.995102065710362"><ele>745.25</ele><time>2026-03-29T08:53:11.999Z</time></trkpt><trkpt lat="44.00248067785869" lon="7.995233076262382"><ele>737.5</ele><time>2026-03-29T08:53:12.999Z</time></trkpt><trkpt lat="44.00238515749839" lon="7.995326912762902"><ele>729.75</ele><time>2026-03-29T08:53:13.999Z</time></trkpt><trkpt lat="44.0022898242209" lon="7.995507001071028"><ele>722.0</ele><time>2026-03-29T08:53:14.999Z</time></trkpt><trkpt lat="44.00220106859861" lon="7.995689067518406"><ele>727.0</ele><time>2026-03-29T08:53:15.999Z</time></trkpt><trkpt lat="44.00214793461811" lon="7.995862726345217"><ele>732.0</ele><time>2026-03-29T08:53:16.999Z</time></trkpt><trkpt lat="44.002105313921135" lon="7.9960380019293344"><ele>737.0</ele><time>2026-03-29T08:53:17.999Z</time></trkpt><trkpt lat="44.002028787396995" lon="7.996161388477449"><ele>742.0</ele><time>2026-03-29T08:53:18.999Z</time></trkpt><trkpt lat="44.00197766515477" lon="7.996251103664876"><ele>742.0</ele><time>2026-03-29T08:53:20Z</time></trkpt><trkpt lat="44.002015811354106" lon="7.9963756722526735"><ele>742.0</ele><time>2026-03-29T08:53:22Z</time></trkpt><trkpt lat="44.00195616730283" lon="7.996527154612214"><ele>742.0</ele><time>2026-03-29T08:53:24Z</time></trkpt><trkpt lat="44.00186818719333" lon="7.996658684475249"><ele>742.0</ele><time>2026-03-29T08:53:25Z</time></trkpt><trkpt lat="44.00178508016612" lon="7.996771525517253"><ele>740.75</ele><time>2026-03-29T08:53:26Z</time></trkpt><trkpt lat="44.00172308358754" lon="7.99694100171597"><ele>739.5</ele><time>2026-03-29T08:53:27Z</time></trkpt><trkpt lat="44.001646588974786" lon="7.997113721158655"><ele>738.25</ele><time>2026-03-29T08:53:28Z</time></trkpt><trkpt lat="44.00159751849639" lon="7.99720095125569"><ele>737.0</ele><time>2026-03-29T08:53:29Z</time></trkpt><trkpt lat="44.001524062758804" lon="7.997279611715458"><ele>737.0</ele><time>2026-03-29T08:53:30Z</time></trkpt><trkpt lat="44.00151082487813" lon="7.997380595489771"><ele>737.0</ele><time>2026-03-29T08:53:31Z</time></trkpt><trkpt lat="44.00148841067521" lon="7.997533392592286"><ele>737.0</ele><time>2026-03-29T08:53:32Z</time></trkpt><trkpt lat="44.00144322363838" lon="7.997658503503036"><ele>737.0</ele><time>2026-03-29T08:53:33Z</time></trkpt><trkpt lat="44.00132980232864" lon="7.997777154594281"><ele>737.0</ele><time>2026-03-29T08:53:34Z</time></trkpt><trkpt lat="44.00124437607727" lon="7.997865804928101"><ele>740.0</ele><time>2026-03-29T08:53:35Z</time></trkpt><trkpt lat="44.00115064662817" lon="7.997922230743982"><ele>743.0</ele><time>2026-03-29T08:53:36Z</time></trkpt><trkpt lat="44.00109666288754" lon="7.998025702429941"><ele>746.0</ele><time>2026-03-29T08:53:37Z</time></trkpt><trkpt lat="44.00104452263663" lon="7.998156076176571"><ele>749.0</ele><time>2026-03-29T08:53:38Z</time></trkpt><trkpt lat="44.001016707496355" lon="7.998280520574719"><ele>752.0</ele><time>2026-03-29T08:53:39Z</time></trkpt><trkpt lat="44.00103316388613" lon="7.998410276578666"><ele>751.25</ele><time>2026-03-29T08:53:40Z</time></trkpt><trkpt lat="44.001078477054016" lon="7.998509757632911"><ele>750.5</ele><time>2026-03-29T08:53:41Z</time></trkpt><trkpt lat="44.00112302560929" lon="7.99858399579633"><ele>749.75</ele><time>2026-03-29T08:53:42Z</time></trkpt><trkpt lat="44.00094748937769" lon="7.998574581928446"><ele>749.0</ele><time>2026-03-29T08:53:45Z</time></trkpt><trkpt lat="44.00082880668032" lon="7.9985254500529095"><ele>749.0</ele><time>2026-03-29T08:53:46Z</time></trkpt><trkpt lat="44.00074687466155" lon="7.99853308798522"><ele>749.0</ele><time>2026-03-29T08:53:47Z</time></trkpt><trkpt lat="44.00073964312286" lon="7.998622732401506"><ele>749.0</ele><time>2026-03-29T08:53:48Z</time></trkpt><trkpt lat="44.00074362750742" lon="7.9987259178564765"><ele>749.0</ele><time>2026-03-29T08:53:49Z</time></trkpt><trkpt lat="44.000718581661324" lon="7.998814818290202"><ele>749.0</ele><time>2026-03-29T08:53:50Z</time></trkpt><trkpt lat="44.00062414404234" lon="7.998841965450633"><ele>749.0</ele><time>2026-03-29T08:53:51Z</time></trkpt><trkpt lat="44.00048409331195" lon="7.998823692045974"><ele>749.0</ele><time>2026-03-29T08:53:52Z</time></trkpt><trkpt lat="44.00033519325687" lon="7.998811209528573"><ele>749.0</ele><time>2026-03-29T08:53:53Z</time></trkpt><trkpt lat="44.00021596839374" lon="7.998827039310422"><ele>749.0</ele><time>2026-03-29T08:53:54Z</time></trkpt><trkpt lat="44.000128404480094" lon="7.9988323518612185"><ele>749.0</ele><time>2026-03-29T08:53:55Z</time></trkpt><trkpt lat="44.00002887379465" lon="7.998912465974712"><ele>749.0</ele><time>2026-03-29T08:53:57Z</time></trkpt><trkpt lat="44.00001809857984" lon="7.999088241702888"><ele>749.0</ele><time>2026-03-29T08:53:58Z</time></trkpt><trkpt lat="44.0000294976307" lon="7.9993035532520675"><ele>749.0</ele><time>2026-03-29T08:53:59Z</time></trkpt><trkpt lat="44.000064072200594" lon="7.999424943024564"><ele>749.0</ele><time>2026-03-29T08:54:00Z</time></trkpt><trkpt lat="44.00012373497522" lon="7.999477237714065"><ele>749.0</ele><time>2026-03-29T08:54:01Z</time></trkpt><trkpt lat="44.00015979470367" lon="7.999565289486765"><ele>751.8000000000001</ele><time>2026-03-29T08:54:02.999Z</time></trkpt><trkpt lat="44.00009942062302" lon="7.999621832677286"><ele>754.6</ele><time>2026-03-29T08:54:03.999Z</time></trkpt><trkpt lat="43.999998663278596" lon="7.999673027301535"><ele>757.4</ele><time>2026-03-29T08:54:04.999Z</time></trkpt><trkpt lat="43.99989207636915" lon="7.999704021531026"><ele>760.2</ele><time>2026-03-29T08:54:05.999Z</time></trkpt><trkpt lat="43.99976258281445" lon="7.999709832851574"><ele>763.0</ele><time>2026-03-29T08:54:06.999Z</time></trkpt><trkpt lat="43.999663434709824" lon="7.999725091185729"><ele>763.0</ele><time>2026-03-29T08:54:07.999Z</time></trkpt><trkpt lat="43.999578070857936" lon="7.999800405363358"><ele>763.0</ele><time>2026-03-29T08:54:08.999Z</time></trkpt><trkpt lat="43.9995110867479" lon="7.999904387846331"><ele>763.0</ele><time>2026-03-29T08:54:09.999Z</time></trkpt><trkpt lat="43.99943179394871" lon="8.000013654696069"><ele>763.0</ele><time>2026-03-29T08:54:10.999Z</time></trkpt><trkpt lat="43.99936541351941" lon="8.0001432813685"><ele>763.0</ele><time>2026-03-29T08:54:11.999Z</time></trkpt><trkpt lat="43.99930905257085" lon="8.000277420187494"><ele>763.0</ele><time>2026-03-29T08:54:12.999Z</time></trkpt><trkpt lat="43.99929437754728" lon="8.000388387140726"><ele>763.0</ele><time>2026-03-29T08:54:14.999Z</time></trkpt><trkpt lat="43.99933408787206" lon="8.000481937546757"><ele>763.0</ele><time>2026-03-29T08:54:15.999Z</time></trkpt><trkpt lat="43.99934102983561" lon="8.000614566021492"><ele>763.0</ele><time>2026-03-29T08:54:16.999Z</time></trkpt><trkpt lat="43.99930016964832" lon="8.000697872750534"><ele>763.0</ele><time>2026-03-29T08:54:17.999Z</time></trkpt><trkpt lat="43.99922269945225" lon="8.000740142563798"><ele>763.0</ele><time>2026-03-29T08:54:18.999Z</time></trkpt><trkpt lat="43.999155836147594" lon="8.000808162303505"><ele>760.0</ele><time>2026-03-29T08:54:19.999Z</time></trkpt><trkpt lat="43.99913155647307" lon="8.000927433913224"><ele>757.0</ele><time>2026-03-29T08:54:20.999Z</time></trkpt><trkpt lat="43.99913863438367" lon="8.001063106793147"><ele>754.0</ele><time>2026-03-29T08:54:21.999Z</time></trkpt><trkpt lat="43.99909661999345" lon="8.001170190580023"><ele>751.0</ele><time>2026-03-29T08:54:23.999Z</time></trkpt><trkpt lat="43.999005695726915" lon="8.00116221933262"><ele>748.0</ele><time>2026-03-29T08:54:24.999Z</time></trkpt><trkpt lat="43.99890143318663" lon="8.001206463301779"><ele>748.0</ele><time>2026-03-29T08:54:25.999Z</time></trkpt><trkpt lat="43.99883146999848" lon="8.001307393964312"><ele>748.0</ele><time>2026-03-29T08:54:26.999Z</time></trkpt><trkpt lat="43.998785339648826" lon="8.001375030092996"><ele>748.0</ele><time>2026-03-29T08:54:27.999Z</time></trkpt><trkpt lat="43.99871080965782" lon="8.001326878537801"><ele>748.0</ele><time>2026-03-29T08:54:30.999Z</time></trkpt><trkpt lat="43.998672058901505" lon="8.001190852578963"><ele>748.0</ele><time>2026-03-29T08:54:31.999Z</time></trkpt><trkpt lat="43.99862295848266" lon="8.001066084772106"><ele>748.0</ele><time>2026-03-29T08:54:32.999Z</time></trkpt><trkpt lat="43.9985746183875" lon="8.000921793455033"><ele>748.0</ele><time>2026-03-29T08:54:33.999Z</time></trkpt><trkpt lat="43.99853514578117" lon="8.000840571864758"><ele>748.0</ele><time>2026-03-29T08:54:34.999Z</time></trkpt><trkpt lat="43.99840084535679" lon="8.000759399552896"><ele>748.0</ele><time>2026-03-29T08:54:36.999Z</time></trkpt><trkpt lat="43.99830142217567" lon="8.000727954310133"><ele>748.0</ele><time>2026-03-29T08:54:37.999Z</time></trkpt><trkpt lat="43.998224580173165" lon="8.000759801549789"><ele>745.8333333333334</ele><time>2026-03-29T08:54:38.999Z</time></trkpt><trkpt lat="43.998188636121334" lon="8.000860799051766"><ele>743.6666666666667</ele><time>2026-03-29T08:54:39.999Z</time></trkpt><trkpt lat="43.998137658760236" lon="8.000962727335398"><ele>741.5</ele><time>2026-03-29T08:54:40.999Z</time></trkpt><trkpt lat="43.99807611983034" lon="8.001003096679158"><ele>739.3333333333334</ele><time>2026-03-29T08:54:41.999Z</time></trkpt><trkpt lat="43.998013189016746" lon="8.000961576826601"><ele>737.1666666666666</ele><time>2026-03-29T08:54:42.999Z</time></trkpt><trkpt lat="43.997955985922644" lon="8.00091941977753"><ele>735.0</ele><time>2026-03-29T08:54:43.999Z</time></trkpt><trkpt lat="43.99784328118713" lon="8.000820250419737"><ele>730.8</ele><time>2026-03-29T08:54:45.999Z</time></trkpt><trkpt lat="43.99775852754489" lon="8.000696194302977"><ele>726.6</ele><time>2026-03-29T08:54:46.999Z</time></trkpt><trkpt lat="43.99772586022647" lon="8.000557534235693"><ele>722.4000000000001</ele><time>2026-03-29T08:54:47.999Z</time></trkpt><trkpt lat="43.99771862284957" lon="8.000412290339067"><ele>718.2</ele><time>2026-03-29T08:54:48.999Z</time></trkpt><trkpt lat="43.99773129251079" lon="8.000288633816323"><ele>714.0</ele><time>2026-03-29T08:54:49.999Z</time></trkpt><trkpt lat="43.99769902825858" lon="8.000165673904348"><ele>714.0</ele><time>2026-03-29T08:54:50.999Z</time></trkpt><trkpt lat="43.99769329097589" lon="8.000076942978112"><ele>714.0</ele><time>2026-03-29T08:54:51.999Z</time></trkpt><trkpt lat="43.997690800319994" lon="7.999941429342474"><ele>714.0</ele><time>2026-03-29T08:54:52.999Z</time></trkpt><trkpt lat="43.99764550435339" lon="7.999778336272772"><ele>714.0</ele><time>2026-03-29T08:54:53.999Z</time></trkpt><trkpt lat="43.997617997889265" lon="7.9996688977565595"><ele>714.0</ele><time>2026-03-29T08:54:54.999Z</time></trkpt><trkpt lat="43.99759694419392" lon="7.999545870270432"><ele>714.0</ele><time>2026-03-29T08:54:55.999Z</time></trkpt><trkpt lat="43.997577651097274" lon="7.999448773617049"><ele>714.0</ele><time>2026-03-29T08:54:56.999Z</time></trkpt><trkpt lat="43.99758004190961" lon="7.999304870047216"><ele>714.0</ele><time>2026-03-29T08:54:58.999Z</time></trkpt><trkpt lat="43.997518031213936" lon="7.999220045594323"><ele>714.0</ele><time>2026-03-29T08:55:00.999Z</time></trkpt><trkpt lat="43.99747240066319" lon="7.999146979962366"><ele>714.0</ele><time>2026-03-29T08:55:01.999Z</time></trkpt><trkpt lat="43.997424073811594" lon="7.9990422429310835"><ele>714.0</ele><time>2026-03-29T08:55:02.999Z</time></trkpt><trkpt lat="43.997371892772335" lon="7.998951744988967"><ele>710.1666666666666</ele><time>2026-03-29T08:55:03.999Z</time></trkpt><trkpt lat="43.997314097640164" lon="7.998907443720614"><ele>706.3333333333334</ele><time>2026-03-29T08:55:04.999Z</time></trkpt><trkpt lat="43.997252526412325" lon="7.998931397107363"><ele>702.5</ele><time>2026-03-29T08:55:05.999Z</time></trkpt><trkpt lat="43.99715909932027" lon="7.998954184228459"><ele>698.6666666666667</ele><time>2026-03-29T08:55:06.999Z</time></trkpt><trkpt lat="43.99708903423825" lon="7.998934455772105"><ele>694.8333333333334</ele><time>2026-03-29T08:55:08.999Z</time></trkpt><trkpt lat="43.99710276975706" lon="7.998757869262662"><ele>691.0</ele><time>2026-03-29T08:55:10.999Z</time></trkpt><trkpt lat="43.9970793280653" lon="7.998593181396659"><ele>691.0</ele><time>2026-03-29T08:55:12.999Z</time></trkpt><trkpt lat="43.99700822908307" lon="7.998515444144396"><ele>691.0</ele><time>2026-03-29T08:55:13.999Z</time></trkpt><trkpt lat="43.99692092368709" lon="7.998413397133212"><ele>691.0</ele><time>2026-03-29T08:55:14.999Z</time></trkpt><trkpt lat="43.996863878182914" lon="7.998325382007093"><ele>691.0</ele><time>2026-03-29T08:55:15.999Z</time></trkpt><trkpt lat="43.996808543953556" lon="7.998254477913917"><ele>691.0</ele><time>2026-03-29T08:55:16.999Z</time></trkpt><trkpt lat="43.996732519184775" lon="7.998271479191589"><ele>691.0</ele><time>2026-03-29T08:55:17.999Z</time></trkpt><trkpt lat="43.99665261479242" lon="7.998286559538091"><ele>688.5</ele><time>2026-03-29T08:55:18.999Z</time></trkpt><trkpt lat="43.99665259328408" lon="7.998116513841914"><ele>686.0</ele><time>2026-03-29T08:55:21.999Z</time></trkpt><trkpt lat="43.99664448667839" lon="7.997969349679846"><ele>683.5</ele><time>2026-03-29T08:55:22.999Z</time></trkpt><trkpt lat="43.996612977709" lon="7.997771530802151"><ele>681.0</ele><time>2026-03-29T08:55:23.999Z</time></trkpt><trkpt lat="43.99658643590262" lon="7.997586950096708"><ele>677.4</ele><time>2026-03-29T08:55:24.999Z</time></trkpt><trkpt lat="43.99658206269721" lon="7.997454345587604"><ele>673.8</ele><time>2026-03-29T08:55:26Z</time></trkpt><trkpt lat="43.996538010028125" lon="7.997345909733448"><ele>670.1999999999999</ele><time>2026-03-29T08:55:28Z</time></trkpt><trkpt lat="43.996427944295114" lon="7.997334609532142"><ele>666.5999999999999</ele><time>2026-03-29T08:55:29Z</time></trkpt><trkpt lat="43.99627738200449" lon="7.997322390359427"><ele>663.0</ele><time>2026-03-29T08:55:30Z</time></trkpt><trkpt lat="43.9961523526924" lon="7.997291077100078"><ele>663.0</ele><time>2026-03-29T08:55:31Z</time></trkpt><trkpt lat="43.996055640052106" lon="7.997255799084829"><ele>663.0</ele><time>2026-03-29T08:55:33Z</time></trkpt><trkpt lat="43.99598574994168" lon="7.997141308074391"><ele>663.0</ele><time>2026-03-29T08:55:34Z</time></trkpt><trkpt lat="43.99603408103715" lon="7.996981652388848"><ele>663.0</ele><time>2026-03-29T08:55:36Z</time></trkpt><trkpt lat="43.99606130275978" lon="7.996848649940799"><ele>663.0</ele><time>2026-03-29T08:55:37Z</time></trkpt><trkpt lat="43.996114987803715" lon="7.996736224593286"><ele>660.75</ele><time>2026-03-29T08:55:38Z</time></trkpt><trkpt lat="43.99617770948475" lon="7.9965396077275654"><ele>658.5</ele><time>2026-03-29T08:55:39Z</time></trkpt><trkpt lat="43.99625699680487" lon="7.996376024983135"><ele>656.25</ele><time>2026-03-29T08:55:40Z</time></trkpt><trkpt lat="43.99630397144165" lon="7.99617915904106"><ele>654.0</ele><time>2026-03-29T08:55:41Z</time></trkpt><trkpt lat="43.996306759029196" lon="7.996009448467203"><ele>654.0</ele><time>2026-03-29T08:55:42Z</time></trkpt><trkpt lat="43.9962885800413" lon="7.995869641805549"><ele>654.0</ele><time>2026-03-29T08:55:43Z</time></trkpt><trkpt lat="43.99625003101661" lon="7.995735815074083"><ele>654.0</ele><time>2026-03-29T08:55:44Z</time></trkpt><trkpt lat="43.9962052842265" lon="7.995652945856077"><ele>654.0</ele><time>2026-03-29T08:55:45Z</time></trkpt><trkpt lat="43.99612334953139" lon="7.995612406996632"><ele>654.0</ele><time>2026-03-29T08:55:46Z</time></trkpt><trkpt lat="43.99599655319586" lon="7.995550089490104"><ele>655.6</ele><time>2026-03-29T08:55:47Z</time></trkpt><trkpt lat="43.995960761303515" lon="7.995472527526718"><ele>657.2</ele><time>2026-03-29T08:55:48Z</time></trkpt><trkpt lat="43.99592372098884" lon="7.995378252121377"><ele>658.8000000000001</ele><time>2026-03-29T08:55:49Z</time></trkpt><trkpt lat="43.99585037561317" lon="7.995273938281514"><ele>660.4000000000001</ele><time>2026-03-29T08:55:50Z</time></trkpt><trkpt lat="43.995738513275995" lon="7.99521942986323"><ele>662.0</ele><time>2026-03-29T08:55:51Z</time></trkpt><trkpt lat="43.99564608253143" lon="7.995163798427894"><ele>662.0</ele><time>2026-03-29T08:55:51.999Z</time></trkpt><trkpt lat="43.99558473611146" lon="7.995060907997513"><ele>662.0</ele><time>2026-03-29T08:55:52.999Z</time></trkpt><trkpt lat="43.99554473291403" lon="7.994966612532776"><ele>662.0</ele><time>2026-03-29T08:55:53.999Z</time></trkpt><trkpt lat="43.995601105797064" lon="7.994881876313589"><ele>662.0</ele><time>2026-03-29T08:55:55.999Z</time></trkpt><trkpt lat="43.995666328872744" lon="7.994864961034"><ele>662.0</ele><time>2026-03-29T08:55:56.999Z</time></trkpt><trkpt lat="43.995746548959666" lon="7.994903998561137"><ele>662.0</ele><time>2026-03-29T08:55:57.999Z</time></trkpt><trkpt lat="43.995857677129436" lon="7.994988186455588"><ele>659.1666666666666</ele><time>2026-03-29T08:55:58.999Z</time></trkpt><trkpt lat="43.99596934812933" lon="7.995015805196735"><ele>656.3333333333333</ele><time>2026-03-29T08:55:59.999Z</time></trkpt><trkpt lat="43.99605017969887" lon="7.994985545553186"><ele>653.5</ele><time>2026-03-29T08:56:00.999Z</time></trkpt><trkpt lat="43.996118867402046" lon="7.994960703255502"><ele>650.6666666666666</ele><time>2026-03-29T08:56:01.999Z</time></trkpt><trkpt lat="43.99619458447952" lon="7.99487446849154"><ele>647.8333333333334</ele><time>2026-03-29T08:56:03.999Z</time></trkpt><trkpt lat="43.99616686184054" lon="7.994774224852416"><ele>645.0</ele><time>2026-03-29T08:56:04.999Z</time></trkpt><trkpt lat="43.99610401877004" lon="7.994738629538226"><ele>645.4</ele><time>2026-03-29T08:56:05.999Z</time></trkpt><trkpt lat="43.99599736440994" lon="7.9946350966066"><ele>645.8</ele><time>2026-03-29T08:56:06.999Z</time></trkpt><trkpt lat="43.995915779894375" lon="7.9945288529306655"><ele>646.2</ele><time>2026-03-29T08:56:07.999Z</time></trkpt><trkpt lat="43.99583912658049" lon="7.99447801463032"><ele>646.6</ele><time>2026-03-29T08:56:08.999Z</time></trkpt><trkpt lat="43.99577254783736" lon="7.9943808790492765"><ele>647.0</ele><time>2026-03-29T08:56:10.999Z</time></trkpt><trkpt lat="43.99575588628893" lon="7.994259587873873"><ele>645.0</ele><time>2026-03-29T08:56:11.999Z</time></trkpt><trkpt lat="43.995773264808065" lon="7.994118688044772"><ele>643.0</ele><time>2026-03-29T08:56:12.999Z</time></trkpt><trkpt lat="43.995775765448506" lon="7.99392734545412"><ele>641.0</ele><time>2026-03-29T08:56:13.999Z</time></trkpt><trkpt lat="43.99583074520987" lon="7.993793018783749"><ele>639.0</ele><time>2026-03-29T08:56:14.999Z</time></trkpt><trkpt lat="43.99583617125208" lon="7.993702637993469"><ele>637.0</ele><time>2026-03-29T08:56:15.999Z</time></trkpt><trkpt lat="43.99580029345963" lon="7.993544966495017"><ele>637.0</ele><time>2026-03-29T08:56:16.999Z</time></trkpt><trkpt lat="43.99577779862619" lon="7.99338821868656"><ele>637.0</ele><time>2026-03-29T08:56:17.999Z</time></trkpt><trkpt lat="43.99577579115214" lon="7.993275065118852"><ele>637.0</ele><time>2026-03-29T08:56:18.999Z</time></trkpt><trkpt lat="43.995702433660036" lon="7.993307924728845"><ele>637.0</ele><time>2026-03-29T08:56:21.999Z</time></trkpt><trkpt lat="43.995636230987266" lon="7.993304667765"><ele>637.0</ele><time>2026-03-29T08:56:22.999Z</time></trkpt><trkpt lat="43.99551113964983" lon="7.993319083833987"><ele>636.0</ele><time>2026-03-29T08:56:24.999Z</time></trkpt><trkpt lat="43.99542496389965" lon="7.993327171200367"><ele>635.0</ele><time>2026-03-29T08:56:25.999Z</time></trkpt><trkpt lat="43.995350119926876" lon="7.993328007386282"><ele>634.0</ele><time>2026-03-29T08:56:26.999Z</time></trkpt><trkpt lat="43.99529814464673" lon="7.993232445916857"><ele>633.0</ele><time>2026-03-29T08:56:28.999Z</time></trkpt><trkpt lat="43.995267754964914" lon="7.993113237561923"><ele>632.0</ele><time>2026-03-29T08:56:34.999Z</time></trkpt><trkpt lat="43.99523938705104" lon="7.99296261299869"><ele>632.0</ele><time>2026-03-29T08:56:36.999Z</time></trkpt><trkpt lat="43.99522985346829" lon="7.992764344513286"><ele>632.0</ele><time>2026-03-29T08:56:38.999Z</time></trkpt><trkpt lat="43.99522972936115" lon="7.992639589161017"><ele>632.0</ele><time>2026-03-29T08:56:39.999Z</time></trkpt><trkpt lat="43.995215365332655" lon="7.992533091970324"><ele>632.0</ele><time>2026-03-29T08:56:40.999Z</time></trkpt><trkpt lat="43.9952016447031" lon="7.9924423184959865"><ele>632.0</ele><time>2026-03-29T08:56:41.999Z</time></trkpt><trkpt lat="43.995203526179935" lon="7.992338290276525"><ele>631.0</ele><time>2026-03-29T08:56:42.999Z</time></trkpt><trkpt lat="43.995217318929356" lon="7.992199994970656"><ele>630.0</ele><time>2026-03-29T08:56:43.999Z</time></trkpt><trkpt lat="43.99524343064007" lon="7.992050683600587"><ele>629.0</ele><time>2026-03-29T08:56:44.999Z</time></trkpt><trkpt lat="43.99529707469947" lon="7.991837328466058"><ele>628.0</ele><time>2026-03-29T08:56:46.999Z</time></trkpt><trkpt lat="43.99534680518541" lon="7.9916634494158565"><ele>627.8</ele><time>2026-03-29T08:56:47.999Z</time></trkpt><trkpt lat="43.995376706842286" lon="7.991488647256941"><ele>627.5999999999999</ele><time>2026-03-29T08:56:48.999Z</time></trkpt><trkpt lat="43.995384747392734" lon="7.991339671558429"><ele>627.4000000000001</ele><time>2026-03-29T08:56:49.999Z</time></trkpt><trkpt lat="43.99538135968126" lon="7.991197987744264"><ele>627.2</ele><time>2026-03-29T08:56:50.999Z</time></trkpt><trkpt lat="43.99546978378059" lon="7.991285714375914"><ele>627.0</ele><time>2026-03-29T08:56:54.999Z</time></trkpt><trkpt lat="43.99550304037274" lon="7.991393305625455"><ele>627.0</ele><time>2026-03-29T08:56:55.999Z</time></trkpt><trkpt lat="43.995506296433156" lon="7.99151482891926"><ele>627.0</ele><time>2026-03-29T08:56:56.999Z</time></trkpt><trkpt lat="43.995497581215275" lon="7.9916325334721785"><ele>627.0</ele><time>2026-03-29T08:56:57.999Z</time></trkpt><trkpt lat="43.99552037005278" lon="7.991745873092063"><ele>627.0</ele><time>2026-03-29T08:56:58.999Z</time></trkpt><trkpt lat="43.995527524708386" lon="7.991926838266537"><ele>627.0</ele><time>2026-03-29T08:57:00.999Z</time></trkpt><trkpt lat="43.995545203954904" lon="7.992020232892005"><ele>627.2</ele><time>2026-03-29T08:57:01.999Z</time></trkpt><trkpt lat="43.9956207852182" lon="7.992162376275298"><ele>627.4000000000001</ele><time>2026-03-29T08:57:04.999Z</time></trkpt><trkpt lat="43.99566522575238" lon="7.992251595182545"><ele>627.5999999999999</ele><time>2026-03-29T08:57:06.999Z</time></trkpt><trkpt lat="43.99570404949998" lon="7.9923783599888525"><ele>627.8</ele><time>2026-03-29T08:57:08.999Z</time></trkpt><trkpt lat="43.99574818953494" lon="7.992491243376136"><ele>628.0</ele><time>2026-03-29T08:57:09.999Z</time></trkpt><trkpt lat="43.99581312681351" lon="7.992594074021073"><ele>626.1999999999999</ele><time>2026-03-29T08:57:10.999Z</time></trkpt><trkpt lat="43.99589082712336" lon="7.992750237922889"><ele>624.4</ele><time>2026-03-29T08:57:11.999Z</time></trkpt><trkpt lat="43.99596178864998" lon="7.992889433337326"><ele>622.5999999999999</ele><time>2026-03-29T08:57:12.999Z</time></trkpt><trkpt lat="43.99600702544394" lon="7.9929958970220545"><ele>620.8</ele><time>2026-03-29T08:57:13.999Z</time></trkpt><trkpt lat="43.996072303603064" lon="7.993019291709559"><ele>619.0</ele><time>2026-03-29T08:57:18.999Z</time></trkpt><trkpt lat="43.996085914920215" lon="7.992916469643897"><ele>619.0</ele><time>2026-03-29T08:57:25.999Z</time></trkpt><trkpt lat="43.99610025673389" lon="7.992827865524801"><ele>619.0</ele><time>2026-03-29T08:57:26.999Z</time></trkpt><trkpt lat="43.99626732042644" lon="7.992722313450629"><ele>619.0</ele><time>2026-03-29T08:57:31.999Z</time></trkpt><trkpt lat="43.99619882817061" lon="7.992590579581857"><ele>619.0</ele><time>2026-03-29T08:57:32.999Z</time></trkpt><trkpt lat="43.996165433765285" lon="7.9925057309073075"><ele>619.0</ele><time>2026-03-29T08:57:33.999Z</time></trkpt><trkpt lat="43.9961319216205" lon="7.992385930492406"><ele>618.0</ele><time>2026-03-29T08:57:35.999Z</time></trkpt><trkpt lat="43.99612028329563" lon="7.9922609013709245"><ele>617.0</ele><time>2026-03-29T08:57:36.999Z</time></trkpt><trkpt lat="43.99610848542072" lon="7.992148102799335"><ele>616.0</ele><time>2026-03-29T08:57:37.999Z</time></trkpt><trkpt lat="43.99610582178098" lon="7.99203566687387"><ele>615.0</ele><time>2026-03-29T08:57:38.999Z</time></trkpt><trkpt lat="43.996105418895105" lon="7.991940625478086"><ele>614.0</ele><time>2026-03-29T08:57:39.999Z</time></trkpt><trkpt lat="43.99607629998019" lon="7.991773421208946"><ele>613.0</ele><time>2026-03-29T08:57:41.999Z</time></trkpt><trkpt lat="43.99598602397357" lon="7.9917092195088175"><ele>612.8</ele><time>2026-03-29T08:57:43.999Z</time></trkpt><trkpt lat="43.99592965393656" lon="7.9915973161837295"><ele>612.5999999999999</ele><time>2026-03-29T08:57:45.999Z</time></trkpt><trkpt lat="43.99590201329984" lon="7.991447804755552"><ele>612.4000000000001</ele><time>2026-03-29T08:57:47.999Z</time></trkpt><trkpt lat="43.995844982427926" lon="7.99134953528057"><ele>612.2</ele><time>2026-03-29T08:57:48.999Z</time></trkpt><trkpt lat="43.99586960512294" lon="7.9912352782211284"><ele>612.0</ele><time>2026-03-29T08:57:51.999Z</time></trkpt><trkpt lat="43.995860620343734" lon="7.991108400837943"><ele>612.8571428571429</ele><time>2026-03-29T08:57:54.999Z</time></trkpt><trkpt lat="43.995803122527015" lon="7.991056646911901"><ele>613.7142857142858</ele><time>2026-03-29T08:57:56.999Z</time></trkpt><trkpt lat="43.995780950412524" lon="7.990968189764586"><ele>614.5714285714287</ele><time>2026-03-29T08:57:58.999Z</time></trkpt><trkpt lat="43.99582166037267" lon="7.990885630925786"><ele>615.4285714285714</ele><time>2026-03-29T08:57:59.999Z</time></trkpt><trkpt lat="43.995856465822094" lon="7.990803407725138"><ele>616.2857142857143</ele><time>2026-03-29T08:58:00.999Z</time></trkpt><trkpt lat="43.99590174810417" lon="7.990726181820389"><ele>617.1428571428572</ele><time>2026-03-29T08:58:01.999Z</time></trkpt><trkpt lat="43.995935276924136" lon="7.990634240944057"><ele>618.0</ele><time>2026-03-29T08:58:03.999Z</time></trkpt><trkpt lat="43.99602207255363" lon="7.990593353262952"><ele>618.0</ele><time>2026-03-29T08:58:05.999Z</time></trkpt><trkpt lat="43.99611590426999" lon="7.990515534917368"><ele>618.0</ele><time>2026-03-29T08:58:09.999Z</time></trkpt><trkpt lat="43.996162748796856" lon="7.990430072045956"><ele>618.0</ele><time>2026-03-29T08:58:13.999Z</time></trkpt><trkpt lat="43.99617889204573" lon="7.990323384742234"><ele>618.0</ele><time>2026-03-29T08:58:16.999Z</time></trkpt><trkpt lat="43.99628853092333" lon="7.990067643294618"><ele>618.5</ele><time>2026-03-29T08:58:17.999Z</time></trkpt><trkpt lat="43.99632275401746" lon="7.989932451909748"><ele>619.0</ele><time>2026-03-29T08:58:19.999Z</time></trkpt><trkpt lat="43.99632308338105" lon="7.989820707316888"><ele>619.5</ele><time>2026-03-29T08:58:21.999Z</time></trkpt><trkpt lat="43.996240109357956" lon="7.989881665575844"><ele>620.0</ele><time>2026-03-29T08:58:24.999Z</time></trkpt><trkpt lat="43.99616402783276" lon="7.989862904049071"><ele>620.5</ele><time>2026-03-29T08:58:27.999Z</time></trkpt><trkpt lat="43.99612490513093" lon="7.989776070372464"><ele>621.0</ele><time>2026-03-29T08:58:30.999Z</time></trkpt><trkpt lat="43.99610835389964" lon="7.989579557865935"><ele>621.0</ele><time>2026-03-29T08:58:32.999Z</time></trkpt><trkpt lat="43.996096355795295" lon="7.9894240672203365"><ele>621.0</ele><time>2026-03-29T08:58:33.999Z</time></trkpt><trkpt lat="43.99607614987409" lon="7.989313101105699"><ele>621.0</ele><time>2026-03-29T08:58:34.999Z</time></trkpt><trkpt lat="43.99599044083726" lon="7.989206183472938"><ele>621.0</ele><time>2026-03-29T08:58:36.999Z</time></trkpt><trkpt lat="43.99595001562355" lon="7.989066394371417"><ele>621.0</ele><time>2026-03-29T08:58:38.999Z</time></trkpt><trkpt lat="43.995918793493246" lon="7.988930563490169"><ele>612.0</ele><time>2026-03-29T08:58:39.999Z</time></trkpt><trkpt lat="43.99562279135071" lon="7.988287269564352"><ele>612.0</ele><time>2026-03-29T08:58:40.999Z</time></trkpt><trkpt lat="43.99555483307496" lon="7.988237919519369"><ele>612.0</ele><time>2026-03-29T08:58:41.999Z</time></trkpt><trkpt lat="43.995475360904" lon="7.988228727143111"><ele>612.0</ele><time>2026-03-29T08:58:42.999Z</time></trkpt><trkpt lat="43.995369801056505" lon="7.9882748038178475"><ele>612.0</ele><time>2026-03-29T08:58:43.999Z</time></trkpt><trkpt lat="43.995241152714556" lon="7.98828338440953"><ele>612.0</ele><time>2026-03-29T08:58:44.999Z</time></trkpt><trkpt lat="43.99511889190647" lon="7.988249382837743"><ele>612.0</ele><time>2026-03-29T08:58:45.999Z</time></trkpt><trkpt lat="43.99501987176523" lon="7.98816231305186"><ele>612.0</ele><time>2026-03-29T08:58:46.999Z</time></trkpt><trkpt lat="43.994931756249464" lon="7.988062945026102"><ele>612.0</ele><time>2026-03-29T08:58:47.999Z</time></trkpt><trkpt lat="43.9948532924329" lon="7.987947793100226"><ele>612.0</ele><time>2026-03-29T08:58:48.999Z</time></trkpt><trkpt lat="43.9947871537446" lon="7.987803493222504"><ele>609.25</ele><time>2026-03-29T08:58:49.999Z</time></trkpt><trkpt lat="43.99474031723381" lon="7.987594028529765"><ele>606.5</ele><time>2026-03-29T08:58:50.999Z</time></trkpt><trkpt lat="43.994690409150564" lon="7.987398828108499"><ele>603.75</ele><time>2026-03-29T08:58:51.999Z</time></trkpt><trkpt lat="43.99463197140038" lon="7.9872593409319705"><ele>601.0</ele><time>2026-03-29T08:58:52.999Z</time></trkpt><trkpt lat="43.99454665239985" lon="7.987055677293324"><ele>601.0</ele><time>2026-03-29T08:58:53.999Z</time></trkpt><trkpt lat="43.99449277914661" lon="7.986901397843696"><ele>601.0</ele><time>2026-03-29T08:58:54.999Z</time></trkpt><trkpt lat="43.99442517690563" lon="7.98675110719489"><ele>601.0</ele><time>2026-03-29T08:58:55.999Z</time></trkpt><trkpt lat="43.994373153433976" lon="7.986635444489961"><ele>601.0</ele><time>2026-03-29T08:58:56.999Z</time></trkpt><trkpt lat="43.9942452579229" lon="7.986489851646125"><ele>601.3333333333334</ele><time>2026-03-29T08:58:57.999Z</time></trkpt><trkpt lat="43.99408364163461" lon="7.986336161034668"><ele>601.6666666666666</ele><time>2026-03-29T08:58:58.999Z</time></trkpt><trkpt lat="43.99399239701251" lon="7.986247326742211"><ele>602.0</ele><time>2026-03-29T08:58:59.999Z</time></trkpt><trkpt lat="43.99393933809172" lon="7.986049683209428"><ele>602.0</ele><time>2026-03-29T08:59:00.999Z</time></trkpt><trkpt lat="43.993847730294874" lon="7.985887367564492"><ele>602.0</ele><time>2026-03-29T08:59:01.999Z</time></trkpt><trkpt lat="43.99376531101085" lon="7.98575644459233"><ele>602.0</ele><time>2026-03-29T08:59:02.999Z</time></trkpt><trkpt lat="43.99370511268513" lon="7.985664999475457"><ele>602.0</ele><time>2026-03-29T08:59:03.999Z</time></trkpt><trkpt lat="43.99365062600498" lon="7.985589062111397"><ele>602.0</ele><time>2026-03-29T08:59:04.999Z</time></trkpt><trkpt lat="43.993560699489265" lon="7.985490989178971"><ele>600.4</ele><time>2026-03-29T08:59:05.999Z</time></trkpt><trkpt lat="43.99345992724413" lon="7.985402103761945"><ele>598.8000000000001</ele><time>2026-03-29T08:59:06.999Z</time></trkpt><trkpt lat="43.99340951381405" lon="7.985313591773486"><ele>597.2</ele><time>2026-03-29T08:59:07.999Z</time></trkpt><trkpt lat="43.99337324041177" lon="7.985192972740464"><ele>595.6</ele><time>2026-03-29T08:59:08.999Z</time></trkpt><trkpt lat="43.99330771483715" lon="7.985050923335763"><ele>594.0</ele><time>2026-03-29T08:59:09.999Z</time></trkpt><trkpt lat="43.99325662140794" lon="7.984939157937661"><ele>589.75</ele><time>2026-03-29T08:59:10.999Z</time></trkpt><trkpt lat="43.993177020414535" lon="7.9847905744217496"><ele>585.5</ele><time>2026-03-29T08:59:11.999Z</time></trkpt><trkpt lat="43.99311293071554" lon="7.984638678816894"><ele>581.25</ele><time>2026-03-29T08:59:12.999Z</time></trkpt><trkpt lat="43.99307928520382" lon="7.984460597714349"><ele>577.0</ele><time>2026-03-29T08:59:13.999Z</time></trkpt><trkpt lat="43.99303802387913" lon="7.984300013675486"><ele>573.4</ele><time>2026-03-29T08:59:14.999Z</time></trkpt><trkpt lat="43.992980085011396" lon="7.984162627865743"><ele>569.8000000000001</ele><time>2026-03-29T08:59:15.999Z</time></trkpt><trkpt lat="43.99293360333829" lon="7.984026684790965"><ele>566.2</ele><time>2026-03-29T08:59:16.999Z</time></trkpt><trkpt lat="43.99289892771842" lon="7.983879971276746"><ele>562.6</ele><time>2026-03-29T08:59:17.999Z</time></trkpt><trkpt lat="43.992910928490375" lon="7.983766609938533"><ele>559.0</ele><time>2026-03-29T08:59:18.999Z</time></trkpt><trkpt lat="43.993026724916554" lon="7.983681497324709"><ele>559.0</ele><time>2026-03-29T08:59:19.999Z</time></trkpt><trkpt lat="43.99307793362004" lon="7.983573469395822"><ele>559.0</ele><time>2026-03-29T08:59:20.999Z</time></trkpt><trkpt lat="43.993130099032534" lon="7.9834769608960805"><ele>559.0</ele><time>2026-03-29T08:59:21.999Z</time></trkpt><trkpt lat="43.99312622470196" lon="7.983344311043005"><ele>559.0</ele><time>2026-03-29T08:59:22.999Z</time></trkpt><trkpt lat="43.99305435051489" lon="7.983288227162979"><ele>559.0</ele><time>2026-03-29T08:59:23.999Z</time></trkpt><trkpt lat="43.9929420537556" lon="7.983208977246639"><ele>555.25</ele><time>2026-03-29T08:59:24.999Z</time></trkpt><trkpt lat="43.992809032063974" lon="7.983106040696616"><ele>551.5</ele><time>2026-03-29T08:59:25.999Z</time></trkpt><trkpt lat="43.992704905625594" lon="7.983002323946256"><ele>547.75</ele><time>2026-03-29T08:59:26.999Z</time></trkpt><trkpt lat="43.99259089971839" lon="7.982870118203056"><ele>544.0</ele><time>2026-03-29T08:59:27.999Z</time></trkpt><trkpt lat="43.99252831977303" lon="7.982741862448728"><ele>544.0</ele><time>2026-03-29T08:59:28.999Z</time></trkpt><trkpt lat="43.99249972490773" lon="7.982648972416326"><ele>544.0</ele><time>2026-03-29T08:59:29.999Z</time></trkpt><trkpt lat="43.992581337297224" lon="7.982591550211713"><ele>544.0</ele><time>2026-03-29T08:59:31.999Z</time></trkpt><trkpt lat="43.99266510690301" lon="7.982628485299108"><ele>544.0</ele><time>2026-03-29T08:59:32.999Z</time></trkpt><trkpt lat="43.992768821247964" lon="7.982672173562699"><ele>544.0</ele><time>2026-03-29T08:59:33.999Z</time></trkpt><trkpt lat="43.99286754401034" lon="7.982651313201303"><ele>544.0</ele><time>2026-03-29T08:59:34.999Z</time></trkpt><trkpt lat="43.9929528307195" lon="7.982596185340177"><ele>544.0</ele><time>2026-03-29T08:59:35.999Z</time></trkpt><trkpt lat="43.99302064689257" lon="7.982495177510684"><ele>544.0</ele><time>2026-03-29T08:59:36.999Z</time></trkpt><trkpt lat="43.99307763371429" lon="7.982307897571611"><ele>544.0</ele><time>2026-03-29T08:59:38Z</time></trkpt><trkpt lat="43.99313770930551" lon="7.982085200514558"><ele>541.75</ele><time>2026-03-29T08:59:39Z</time></trkpt><trkpt lat="43.99320011023724" lon="7.981925101666521"><ele>539.5</ele><time>2026-03-29T08:59:40Z</time></trkpt><trkpt lat="43.99328324004077" lon="7.9818044752349016"><ele>537.25</ele><time>2026-03-29T08:59:41Z</time></trkpt><trkpt lat="43.99335909242392" lon="7.981776634566916"><ele>535.0</ele><time>2026-03-29T08:59:42Z</time></trkpt><trkpt lat="43.993476349033976" lon="7.981863822090802"><ele>528.5</ele><time>2026-03-29T08:59:44Z</time></trkpt><trkpt lat="43.99352105075131" lon="7.98195625295804"><ele>522.0</ele><time>2026-03-29T08:59:45Z</time></trkpt><trkpt lat="43.99356527825164" lon="7.98209464710326"><ele>515.5</ele><time>2026-03-29T08:59:46Z</time></trkpt><trkpt lat="43.993572899422425" lon="7.982268642516584"><ele>509.0</ele><time>2026-03-29T08:59:47Z</time></trkpt><trkpt lat="43.993551627042784" lon="7.9824974575607275"><ele>513.6666666666666</ele><time>2026-03-29T08:59:48Z</time></trkpt><trkpt lat="43.993540407679085" lon="7.982762974526089"><ele>518.3333333333334</ele><time>2026-03-29T08:59:49Z</time></trkpt><trkpt lat="43.99353904200629" lon="7.982980485462271"><ele>523.0</ele><time>2026-03-29T08:59:50Z</time></trkpt><trkpt lat="43.99352022383621" lon="7.983161571476516"><ele>523.0</ele><time>2026-03-29T08:59:51Z</time></trkpt><trkpt lat="43.993494405483155" lon="7.983345393242433"><ele>523.0</ele><time>2026-03-29T08:59:52Z</time></trkpt><trkpt lat="43.993496967547074" lon="7.983487347740698"><ele>523.0</ele><time>2026-03-29T08:59:53Z</time></trkpt><trkpt lat="43.9935170664036" lon="7.9836341756666265"><ele>523.0</ele><time>2026-03-29T08:59:55Z</time></trkpt><trkpt lat="43.99359483691172" lon="7.983712912226765"><ele>523.0</ele><time>2026-03-29T08:59:56Z</time></trkpt><trkpt lat="43.993758562815955" lon="7.983691530885807"><ele>526.75</ele><time>2026-03-29T08:59:57Z</time></trkpt><trkpt lat="43.993918087869176" lon="7.983684581398058"><ele>530.5</ele><time>2026-03-29T08:59:58Z</time></trkpt><trkpt lat="43.99404536028023" lon="7.983678136681705"><ele>534.25</ele><time>2026-03-29T08:59:59Z</time></trkpt><trkpt lat="43.994185478810735" lon="7.983742646074823"><ele>538.0</ele><time>2026-03-29T09:00:00Z</time></trkpt><trkpt lat="43.994335769099564" lon="7.983868897557075"><ele>538.0</ele><time>2026-03-29T09:00:01Z</time></trkpt><trkpt lat="43.994510629444726" lon="7.983976548937666"><ele>538.0</ele><time>2026-03-29T09:00:01.999Z</time></trkpt><trkpt lat="43.994658305387915" lon="7.984084903349022"><ele>538.0</ele><time>2026-03-29T09:00:02.999Z</time></trkpt><trkpt lat="43.99471227643114" lon="7.984237364225137"><ele>538.0</ele><time>2026-03-29T09:00:03.999Z</time></trkpt><trkpt lat="43.99482258638159" lon="7.984137648754879"><ele>538.0</ele><time>2026-03-29T09:00:06.999Z</time></trkpt><trkpt lat="43.99490416932527" lon="7.984031474898911"><ele>538.0</ele><time>2026-03-29T09:00:07.999Z</time></trkpt><trkpt lat="43.99498755810113" lon="7.983943399008137"><ele>538.0</ele><time>2026-03-29T09:00:08.999Z</time></trkpt><trkpt lat="43.995087703113924" lon="7.983946149857058"><ele>538.0</ele><time>2026-03-29T09:00:09.999Z</time></trkpt><trkpt lat="43.99519605119029" lon="7.984046439885381"><ele>537.8</ele><time>2026-03-29T09:00:10.999Z</time></trkpt><trkpt lat="43.99529561174817" lon="7.98412020881436"><ele>537.5999999999999</ele><time>2026-03-29T09:00:11.999Z</time></trkpt><trkpt lat="43.99537770356368" lon="7.9841984453128525"><ele>537.4000000000001</ele><time>2026-03-29T09:00:12.999Z</time></trkpt><trkpt lat="43.99541821946686" lon="7.9842905379996365"><ele>537.2</ele><time>2026-03-29T09:00:13.999Z</time></trkpt><trkpt lat="43.99554368912339" lon="7.98434887443532"><ele>537.0</ele><time>2026-03-29T09:00:14.999Z</time></trkpt><trkpt lat="43.99568431851298" lon="7.984250801870534"><ele>537.0</ele><time>2026-03-29T09:00:16.999Z</time></trkpt><trkpt lat="43.99574819996889" lon="7.9841192132200955"><ele>537.0</ele><time>2026-03-29T09:00:17.999Z</time></trkpt><trkpt lat="43.99584979378205" lon="7.984035096819888"><ele>537.0</ele><time>2026-03-29T09:00:18.999Z</time></trkpt><trkpt lat="43.99597339958005" lon="7.983980242747103"><ele>537.0</ele><time>2026-03-29T09:00:19.999Z</time></trkpt><trkpt lat="43.996051742637384" lon="7.983906345177187"><ele>535.75</ele><time>2026-03-29T09:00:20.999Z</time></trkpt><trkpt lat="43.99614295812696" lon="7.983911528864158"><ele>534.5</ele><time>2026-03-29T09:00:21.999Z</time></trkpt><trkpt lat="43.99628159272728" lon="7.9839834486747865"><ele>533.25</ele><time>2026-03-29T09:00:22.999Z</time></trkpt><trkpt lat="43.99641922126031" lon="7.984054676314373"><ele>532.0</ele><time>2026-03-29T09:00:23.999Z</time></trkpt><trkpt lat="43.99650802116925" lon="7.984198932702355"><ele>535.0</ele><time>2026-03-29T09:00:24.999Z</time></trkpt><trkpt lat="43.996582152420046" lon="7.984329817765775"><ele>538.0</ele><time>2026-03-29T09:00:25.999Z</time></trkpt><trkpt lat="43.99663828981024" lon="7.984512042106709"><ele>541.0</ele><time>2026-03-29T09:00:26.999Z</time></trkpt><trkpt lat="43.99668462110931" lon="7.984668577900577"><ele>544.0</ele><time>2026-03-29T09:00:27.999Z</time></trkpt><trkpt lat="43.99669888466818" lon="7.984843504771672"><ele>540.75</ele><time>2026-03-29T09:00:28.999Z</time></trkpt><trkpt lat="43.996710071496466" lon="7.985005110122805"><ele>537.5</ele><time>2026-03-29T09:00:29.999Z</time></trkpt><trkpt lat="43.99675898500397" lon="7.985076012517664"><ele>534.25</ele><time>2026-03-29T09:00:30.999Z</time></trkpt><trkpt lat="43.99684446758863" lon="7.985213155837927"><ele>531.0</ele><time>2026-03-29T09:00:31.999Z</time></trkpt><trkpt lat="43.99693876463666" lon="7.985407245579128"><ele>531.0</ele><time>2026-03-29T09:00:32.999Z</time></trkpt><trkpt lat="43.997034267760824" lon="7.9856170070034205"><ele>531.0</ele><time>2026-03-29T09:00:33.999Z</time></trkpt><trkpt lat="43.99711563833809" lon="7.985777777620165"><ele>531.0</ele><time>2026-03-29T09:00:34.999Z</time></trkpt><trkpt lat="43.99718659512323" lon="7.98585193265698"><ele>531.0</ele><time>2026-03-29T09:00:35.999Z</time></trkpt><trkpt lat="43.99723618779535" lon="7.985922347207092"><ele>535.0</ele><time>2026-03-29T09:00:36.999Z</time></trkpt><trkpt lat="43.997245917708845" lon="7.986115940302473"><ele>539.0</ele><time>2026-03-29T09:00:38.999Z</time></trkpt><trkpt lat="43.99720531792087" lon="7.986300612844177"><ele>543.0</ele><time>2026-03-29T09:00:39.999Z</time></trkpt><trkpt lat="43.997186335525335" lon="7.98650977967652"><ele>547.0</ele><time>2026-03-29T09:00:40.999Z</time></trkpt><trkpt lat="43.99715533527184" lon="7.98665988082458"><ele>545.0</ele><time>2026-03-29T09:00:41.999Z</time></trkpt><trkpt lat="43.99719511129081" lon="7.986778016332471"><ele>543.0</ele><time>2026-03-29T09:00:43.999Z</time></trkpt><trkpt lat="43.99727101406304" lon="7.986875606646095"><ele>541.0</ele><time>2026-03-29T09:00:44.999Z</time></trkpt><trkpt lat="43.99738125480726" lon="7.986924526608459"><ele>539.0</ele><time>2026-03-29T09:00:45.999Z</time></trkpt><trkpt lat="43.997488820453555" lon="7.98701603348741"><ele>537.0</ele><time>2026-03-29T09:00:46.999Z</time></trkpt><trkpt lat="43.99758104616775" lon="7.987166650583712"><ele>537.0</ele><time>2026-03-29T09:00:47.999Z</time></trkpt><trkpt lat="43.997648662510315" lon="7.987291013153338"><ele>537.0</ele><time>2026-03-29T09:00:48.999Z</time></trkpt><trkpt lat="43.997700694502605" lon="7.987433663023122"><ele>537.0</ele><time>2026-03-29T09:00:49.999Z</time></trkpt><trkpt lat="43.99772497749982" lon="7.9876447994169615"><ele>537.0</ele><time>2026-03-29T09:00:50.999Z</time></trkpt><trkpt lat="43.99779662075439" lon="7.987823185551782"><ele>540.25</ele><time>2026-03-29T09:00:51.999Z</time></trkpt><trkpt lat="43.99786933751554" lon="7.987947550273884"><ele>543.5</ele><time>2026-03-29T09:00:52.999Z</time></trkpt><trkpt lat="43.99795555466957" lon="7.988095025476957"><ele>546.75</ele><time>2026-03-29T09:00:53.999Z</time></trkpt><trkpt lat="43.99800079846169" lon="7.988274314092564"><ele>550.0</ele><time>2026-03-29T09:00:54.999Z</time></trkpt><trkpt lat="43.998067843830235" lon="7.988476525993276"><ele>552.75</ele><time>2026-03-29T09:00:55.999Z</time></trkpt><trkpt lat="43.998129694366476" lon="7.988594149641961"><ele>555.5</ele><time>2026-03-29T09:00:56.999Z</time></trkpt><trkpt lat="43.99821913836303" lon="7.988696893627682"><ele>558.25</ele><time>2026-03-29T09:00:57.999Z</time></trkpt><trkpt lat="43.99830271198562" lon="7.988821584403934"><ele>561.0</ele><time>2026-03-29T09:00:58.999Z</time></trkpt><trkpt lat="43.99835892517503" lon="7.988963322622338"><ele>550.0</ele><time>2026-03-29T09:00:59.999Z</time></trkpt><trkpt lat="43.99837578946981" lon="7.989168490642102"><ele>539.0</ele><time>2026-03-29T09:01:00.999Z</time></trkpt><trkpt lat="43.998426526353974" lon="7.989422395737956"><ele>528.0</ele><time>2026-03-29T09:01:01.999Z</time></trkpt><trkpt lat="43.99851462852502" lon="7.989648642425569"><ele>528.0</ele><time>2026-03-29T09:01:02.999Z</time></trkpt><trkpt lat="43.99855561633025" lon="7.989823199237951"><ele>528.0</ele><time>2026-03-29T09:01:03.999Z</time></trkpt><trkpt lat="43.99858516872507" lon="7.989907763705871"><ele>528.0</ele><time>2026-03-29T09:01:04.999Z</time></trkpt><trkpt lat="43.9985055119851" lon="7.9899239822913115"><ele>528.0</ele><time>2026-03-29T09:01:06.999Z</time></trkpt><trkpt lat="43.99839688294003" lon="7.989977719875803"><ele>528.0</ele><time>2026-03-29T09:01:07.999Z</time></trkpt><trkpt lat="43.998229021513644" lon="7.990001350224069"><ele>534.75</ele><time>2026-03-29T09:01:08.999Z</time></trkpt><trkpt lat="43.998127026174295" lon="7.990104766371535"><ele>541.5</ele><time>2026-03-29T09:01:09.999Z</time></trkpt><trkpt lat="43.99804037051099" lon="7.990219960358218"><ele>548.25</ele><time>2026-03-29T09:01:10.999Z</time></trkpt><trkpt lat="43.99794786446225" lon="7.99031328812937"><ele>555.0</ele><time>2026-03-29T09:01:11.999Z</time></trkpt><trkpt lat="43.99786768569291" lon="7.990389099643655"><ele>555.0</ele><time>2026-03-29T09:01:12.999Z</time></trkpt><trkpt lat="43.997833278671834" lon="7.990507546721056"><ele>555.0</ele><time>2026-03-29T09:01:13.999Z</time></trkpt><trkpt lat="43.99782565511002" lon="7.990699591533342"><ele>555.0</ele><time>2026-03-29T09:01:14.999Z</time></trkpt><trkpt lat="43.997829014919134" lon="7.990863571480629"><ele>555.0</ele><time>2026-03-29T09:01:15.999Z</time></trkpt><trkpt lat="43.9978432911867" lon="7.990972068709864"><ele>555.0</ele><time>2026-03-29T09:01:16.999Z</time></trkpt><trkpt lat="43.997835693215166" lon="7.99108137821241"><ele>556.5</ele><time>2026-03-29T09:01:17.999Z</time></trkpt><trkpt lat="43.9978068244805" lon="7.991222758271013"><ele>558.0</ele><time>2026-03-29T09:01:18.999Z</time></trkpt><trkpt lat="43.99776739499184" lon="7.991373229581733"><ele>559.5</ele><time>2026-03-29T09:01:19.999Z</time></trkpt><trkpt lat="43.99775700585197" lon="7.991564954288959"><ele>561.0</ele><time>2026-03-29T09:01:20.999Z</time></trkpt><trkpt lat="43.99773953901803" lon="7.991788633347126"><ele>563.0</ele><time>2026-03-29T09:01:21.999Z</time></trkpt><trkpt lat="43.99772279982938" lon="7.992023752380561"><ele>565.0</ele><time>2026-03-29T09:01:22.999Z</time></trkpt><trkpt lat="43.99774115937806" lon="7.9921840114053655"><ele>567.0</ele><time>2026-03-29T09:01:23.999Z</time></trkpt><trkpt lat="43.9977477658643" lon="7.9923090354039745"><ele>569.0</ele><time>2026-03-29T09:01:24.999Z</time></trkpt><trkpt lat="43.99779414667593" lon="7.992487092571333"><ele>570.5</ele><time>2026-03-29T09:01:26.999Z</time></trkpt><trkpt lat="43.997809152746974" lon="7.992595799068181"><ele>572.0</ele><time>2026-03-29T09:01:27.999Z</time></trkpt><trkpt lat="43.99784809161528" lon="7.992676277686547"><ele>573.5</ele><time>2026-03-29T09:01:28.999Z</time></trkpt><trkpt lat="43.99787271878095" lon="7.992787454129504"><ele>575.0</ele><time>2026-03-29T09:01:29.999Z</time></trkpt><trkpt lat="43.99790402590838" lon="7.992899698079258"><ele>576.5</ele><time>2026-03-29T09:01:30.999Z</time></trkpt><trkpt lat="43.99798441200455" lon="7.993024567710405"><ele>578.0</ele><time>2026-03-29T09:01:31.999Z</time></trkpt><trkpt lat="43.99794246800932" lon="7.9931142505421215"><ele>578.0</ele><time>2026-03-29T09:01:34.999Z</time></trkpt><trkpt lat="43.997884937157934" lon="7.993056955468491"><ele>578.0</ele><time>2026-03-29T09:01:36.999Z</time></trkpt><trkpt lat="43.99779812829088" lon="7.992957700869596"><ele>578.0</ele><time>2026-03-29T09:01:41.999Z</time></trkpt><trkpt lat="43.99772297216837" lon="7.992928725736527"><ele>578.0</ele><time>2026-03-29T09:01:46Z</time></trkpt><trkpt lat="43.99773243407649" lon="7.9930258204477544"><ele>578.0</ele><time>2026-03-29T09:01:50Z</time></trkpt><trkpt lat="43.99774013682914" lon="7.993118302206411"><ele>578.0</ele><time>2026-03-29T09:01:51Z</time></trkpt><trkpt lat="43.99771193337548" lon="7.9932462791354775"><ele>581.0</ele><time>2026-03-29T09:01:52Z</time></trkpt><trkpt lat="43.99771601653463" lon="7.993403654393224"><ele>584.0</ele><time>2026-03-29T09:01:53Z</time></trkpt><trkpt lat="43.9977309743826" lon="7.993521599699843"><ele>587.0</ele><time>2026-03-29T09:01:55Z</time></trkpt><trkpt lat="43.99781377937508" lon="7.993546852069688"><ele>590.0</ele><time>2026-03-29T09:01:56Z</time></trkpt><trkpt lat="43.99788551911581" lon="7.993636721959003"><ele>593.0</ele><time>2026-03-29T09:01:57Z</time></trkpt><trkpt lat="43.99794301977139" lon="7.993703262145298"><ele>593.0</ele><time>2026-03-29T09:01:58Z</time></trkpt><trkpt lat="43.997946177751494" lon="7.993863092513815"><ele>593.0</ele><time>2026-03-29T09:02:00Z</time></trkpt><trkpt lat="43.99790796904885" lon="7.993950173742589"><ele>593.0</ele><time>2026-03-29T09:02:01Z</time></trkpt><trkpt lat="43.99786100819785" lon="7.994078747737673"><ele>593.0</ele><time>2026-03-29T09:02:02Z</time></trkpt><trkpt lat="43.99783660216611" lon="7.994244888905673"><ele>593.0</ele><time>2026-03-29T09:02:03Z</time></trkpt><trkpt lat="43.99781749039112" lon="7.994410489501316"><ele>596.5</ele><time>2026-03-29T09:02:04Z</time></trkpt><trkpt lat="43.99776071731899" lon="7.994508737718633"><ele>600.0</ele><time>2026-03-29T09:02:05Z</time></trkpt><trkpt lat="43.99769325509218" lon="7.9946607745178495"><ele>603.5</ele><time>2026-03-29T09:02:06Z</time></trkpt><trkpt lat="43.99765306593701" lon="7.994832449120627"><ele>607.0</ele><time>2026-03-29T09:02:07Z</time></trkpt><trkpt lat="43.997637322722916" lon="7.994984178898677"><ele>611.5</ele><time>2026-03-29T09:02:07.999Z</time></trkpt><trkpt lat="43.99759648394774" lon="7.995050907256153"><ele>616.0</ele><time>2026-03-29T09:02:08.999Z</time></trkpt><trkpt lat="43.997590740983455" lon="7.995146690192225"><ele>620.5</ele><time>2026-03-29T09:02:11.999Z</time></trkpt><trkpt lat="43.997798035719526" lon="7.995193023853504"><ele>625.0</ele><time>2026-03-29T09:02:15.999Z</time></trkpt><trkpt lat="43.9978708352482" lon="7.99533738611184"><ele>625.0</ele><time>2026-03-29T09:02:17.999Z</time></trkpt><trkpt lat="43.99791211262558" lon="7.995404121264707"><ele>625.0</ele><time>2026-03-29T09:02:18.999Z</time></trkpt><trkpt lat="43.99794582109585" lon="7.995484849245679"><ele>625.0</ele><time>2026-03-29T09:02:20.999Z</time></trkpt><trkpt lat="43.99798435768043" lon="7.995616667322034"><ele>625.0</ele><time>2026-03-29T09:02:22.999Z</time></trkpt><trkpt lat="43.998026986287606" lon="7.995724226315149"><ele>625.0</ele><time>2026-03-29T09:02:23.999Z</time></trkpt><trkpt lat="43.998197595236554" lon="7.995605764056915"><ele>625.0</ele><time>2026-03-29T09:02:27.999Z</time></trkpt><trkpt lat="43.99825224340731" lon="7.995559185672211"><ele>625.0</ele><time>2026-03-29T09:02:28.999Z</time></trkpt><trkpt lat="43.99844575642962" lon="7.995496054185739"><ele>625.0</ele><time>2026-03-29T09:02:33.999Z</time></trkpt><trkpt lat="43.99852987179129" lon="7.995460862844981"><ele>625.0</ele><time>2026-03-29T09:02:36.999Z</time></trkpt><trkpt lat="43.998588581024286" lon="7.995498497583613"><ele>625.0</ele><time>2026-03-29T09:02:39.999Z</time></trkpt><trkpt lat="43.998658026699765" lon="7.9955660795385395"><ele>627.6</ele><time>2026-03-29T09:02:43.999Z</time></trkpt><trkpt lat="43.998708052485085" lon="7.995507788734925"><ele>630.2</ele><time>2026-03-29T09:02:46.999Z</time></trkpt><trkpt lat="43.99881341189556" lon="7.9955259280434285"><ele>632.8</ele><time>2026-03-29T09:02:48.999Z</time></trkpt><trkpt lat="43.99887597637117" lon="7.995443360377523"><ele>635.4</ele><time>2026-03-29T09:02:51.999Z</time></trkpt><trkpt lat="43.99900639604963" lon="7.995342425620034"><ele>638.0</ele><time>2026-03-29T09:02:53.999Z</time></trkpt><trkpt lat="43.99906324854854" lon="7.995275035352685"><ele>638.0</ele><time>2026-03-29T09:02:54.999Z</time></trkpt><trkpt lat="43.999111103289025" lon="7.995211273446596"><ele>638.0</ele><time>2026-03-29T09:02:55.999Z</time></trkpt><trkpt lat="43.99917743036575" lon="7.995113680077686"><ele>638.0</ele><time>2026-03-29T09:02:56.999Z</time></trkpt><trkpt lat="43.999242189002295" lon="7.995018713138443"><ele>638.0</ele><time>2026-03-29T09:02:57.999Z</time></trkpt><trkpt lat="43.99929518745311" lon="7.994943448756407"><ele>638.0</ele><time>2026-03-29T09:02:58.999Z</time></trkpt><trkpt lat="43.99934548158878" lon="7.994856735869187"><ele>638.0</ele><time>2026-03-29T09:02:59.999Z</time></trkpt><trkpt lat="43.99941269448318" lon="7.994781445313066"><ele>638.5</ele><time>2026-03-29T09:03:00.999Z</time></trkpt><trkpt lat="43.999496509988724" lon="7.994664427733388"><ele>639.0</ele><time>2026-03-29T09:03:01.999Z</time></trkpt><trkpt lat="43.99959949369752" lon="7.994547908330136"><ele>639.5</ele><time>2026-03-29T09:03:02.999Z</time></trkpt><trkpt lat="43.99970707239923" lon="7.9944287174869055"><ele>640.0</ele><time>2026-03-29T09:03:03.999Z</time></trkpt><trkpt lat="43.99981476313131" lon="7.994317429718544"><ele>640.0</ele><time>2026-03-29T09:03:04.999Z</time></trkpt><trkpt lat="43.999903017498816" lon="7.99421363143899"><ele>640.0</ele><time>2026-03-29T09:03:05.999Z</time></trkpt><trkpt lat="44.000239788987265" lon="7.99321987203004"><ele>630.6666666666667</ele><time>2026-03-29T09:03:06.999Z</time></trkpt><trkpt lat="44.00036113387795" lon="7.993232098873406"><ele>621.3333333333334</ele><time>2026-03-29T09:03:08.999Z</time></trkpt><trkpt lat="44.000510418033734" lon="7.993327997857033"><ele>612.0</ele><time>2026-03-29T09:03:09.999Z</time></trkpt><trkpt lat="44.00065619865053" lon="7.993443432056532"><ele>612.0</ele><time>2026-03-29T09:03:10.999Z</time></trkpt><trkpt lat="44.000783055207734" lon="7.993495804044808"><ele>612.0</ele><time>2026-03-29T09:03:11.999Z</time></trkpt><trkpt lat="44.00085833001304" lon="7.9935212995607685"><ele>612.0</ele><time>2026-03-29T09:03:12.999Z</time></trkpt><trkpt lat="44.00092756147357" lon="7.993500344344401"><ele>612.0</ele><time>2026-03-29T09:03:13.999Z</time></trkpt><trkpt lat="44.00097938458746" lon="7.9932693677212345"><ele>609.6</ele><time>2026-03-29T09:03:15.999Z</time></trkpt><trkpt lat="44.001050711682936" lon="7.9932391238554885"><ele>607.2</ele><time>2026-03-29T09:03:16.999Z</time></trkpt><trkpt lat="44.00112377923087" lon="7.993144842092517"><ele>604.8</ele><time>2026-03-29T09:03:17.999Z</time></trkpt><trkpt lat="44.00114901302957" lon="7.993019724357466"><ele>602.4</ele><time>2026-03-29T09:03:18.999Z</time></trkpt><trkpt lat="44.00122102402949" lon="7.992790184951528"><ele>600.0</ele><time>2026-03-29T09:03:19.999Z</time></trkpt><trkpt lat="44.00127989685721" lon="7.9925867812455085"><ele>595.0</ele><time>2026-03-29T09:03:20.999Z</time></trkpt><trkpt lat="44.001352001849796" lon="7.99244190005532"><ele>590.0</ele><time>2026-03-29T09:03:21.999Z</time></trkpt><trkpt lat="44.00141445509444" lon="7.992341356961894"><ele>585.0</ele><time>2026-03-29T09:03:22.999Z</time></trkpt><trkpt lat="44.001526385264036" lon="7.992281858677669"><ele>580.0</ele><time>2026-03-29T09:03:23.999Z</time></trkpt><trkpt lat="44.00163572009462" lon="7.9921053293623645"><ele>582.6666666666667</ele><time>2026-03-29T09:03:24.999Z</time></trkpt><trkpt lat="44.00176939574959" lon="7.991844873638014"><ele>585.3333333333334</ele><time>2026-03-29T09:03:25.999Z</time></trkpt><trkpt lat="44.00189154495998" lon="7.991617942780422"><ele>588.0</ele><time>2026-03-29T09:03:26.999Z</time></trkpt><trkpt lat="44.00200884297314" lon="7.991449106302514"><ele>588.0</ele><time>2026-03-29T09:03:27.999Z</time></trkpt><trkpt lat="44.00208663598247" lon="7.9912633515694385"><ele>588.0</ele><time>2026-03-29T09:03:28.999Z</time></trkpt><trkpt lat="44.00219329468778" lon="7.991154314732621"><ele>588.0</ele><time>2026-03-29T09:03:30.999Z</time></trkpt><trkpt lat="44.00228806511782" lon="7.991147894554663"><ele>588.0</ele><time>2026-03-29T09:03:31.999Z</time></trkpt><trkpt lat="44.00237786262401" lon="7.991124549494934"><ele>588.0</ele><time>2026-03-29T09:03:32.999Z</time></trkpt><trkpt lat="44.00248537717757" lon="7.99109727652026"><ele>588.0</ele><time>2026-03-29T09:03:33.999Z</time></trkpt><trkpt lat="44.002557090827544" lon="7.991059079948171"><ele>588.0</ele><time>2026-03-29T09:03:34.999Z</time></trkpt><trkpt lat="44.00264540907587" lon="7.990986817452016"><ele>588.0</ele><time>2026-03-29T09:03:35.999Z</time></trkpt><trkpt lat="44.00274072419301" lon="7.990918398850147"><ele>588.0</ele><time>2026-03-29T09:03:36.999Z</time></trkpt><trkpt lat="44.00277573297718" lon="7.990844669130962"><ele>590.8</ele><time>2026-03-29T09:03:37.999Z</time></trkpt><trkpt lat="44.00278124375448" lon="7.990693935666636"><ele>593.5999999999999</ele><time>2026-03-29T09:03:38.999Z</time></trkpt><trkpt lat="44.00275894260595" lon="7.990529877299081"><ele>596.4000000000001</ele><time>2026-03-29T09:03:39.999Z</time></trkpt><trkpt lat="44.00274493950692" lon="7.990384815167484"><ele>599.2</ele><time>2026-03-29T09:03:40.999Z</time></trkpt><trkpt lat="44.002755819109765" lon="7.990268091494437"><ele>602.0</ele><time>2026-03-29T09:03:41.999Z</time></trkpt><trkpt lat="44.00279591153219" lon="7.990125451650066"><ele>600.75</ele><time>2026-03-29T09:03:42.999Z</time></trkpt><trkpt lat="44.00280879438057" lon="7.989989238463442"><ele>599.5</ele><time>2026-03-29T09:03:43.999Z</time></trkpt><trkpt lat="44.00282005728233" lon="7.98985070694614"><ele>598.25</ele><time>2026-03-29T09:03:44.999Z</time></trkpt><trkpt lat="44.0028291869483" lon="7.98966171765939"><ele>597.0</ele><time>2026-03-29T09:03:45.999Z</time></trkpt><trkpt lat="44.00285590280429" lon="7.989485816696491"><ele>597.0</ele><time>2026-03-29T09:03:46.999Z</time></trkpt><trkpt lat="44.002927070177854" lon="7.989291544960693"><ele>597.0</ele><time>2026-03-29T09:03:47.999Z</time></trkpt><trkpt lat="44.002988475059055" lon="7.989223959399896"><ele>597.0</ele><time>2026-03-29T09:03:48.999Z</time></trkpt><trkpt lat="44.003108138117575" lon="7.989194334366458"><ele>597.0</ele><time>2026-03-29T09:03:51Z</time></trkpt><trkpt lat="44.00319835706612" lon="7.9891509167916155"><ele>600.25</ele><time>2026-03-29T09:03:52Z</time></trkpt><trkpt lat="44.003347348902174" lon="7.98911873787499"><ele>603.5</ele><time>2026-03-29T09:03:53Z</time></trkpt><trkpt lat="44.00349073539353" lon="7.989125417404065"><ele>606.75</ele><time>2026-03-29T09:03:54Z</time></trkpt><trkpt lat="44.003579014037626" lon="7.989186069118539"><ele>610.0</ele><time>2026-03-29T09:03:55Z</time></trkpt><trkpt lat="44.003706707938655" lon="7.989255933554694"><ele>615.0</ele><time>2026-03-29T09:03:56Z</time></trkpt><trkpt lat="44.00384042447641" lon="7.989342458563059"><ele>620.0</ele><time>2026-03-29T09:03:57Z</time></trkpt><trkpt lat="44.00396020137746" lon="7.989376825501764"><ele>625.0</ele><time>2026-03-29T09:03:58Z</time></trkpt><trkpt lat="44.00409864670116" lon="7.989348482460763"><ele>630.0</ele><time>2026-03-29T09:03:59Z</time></trkpt><trkpt lat="44.00424709670499" lon="7.989328856762135"><ele>633.75</ele><time>2026-03-29T09:04:00Z</time></trkpt><trkpt lat="44.00440372033731" lon="7.989326575620225"><ele>637.5</ele><time>2026-03-29T09:04:01Z</time></trkpt><trkpt lat="44.00453318983026" lon="7.989354069039732"><ele>641.25</ele><time>2026-03-29T09:04:02Z</time></trkpt><trkpt lat="44.00466319295809" lon="7.989335858845502"><ele>645.0</ele><time>2026-03-29T09:04:03Z</time></trkpt><trkpt lat="44.004785751419384" lon="7.989304333640818"><ele>645.0</ele><time>2026-03-29T09:04:04Z</time></trkpt><trkpt lat="44.004881491581294" lon="7.989247668811757"><ele>645.0</ele><time>2026-03-29T09:04:05Z</time></trkpt><trkpt lat="44.00497235696849" lon="7.989253598297179"><ele>645.0</ele><time>2026-03-29T09:04:06Z</time></trkpt><trkpt lat="44.00505469439253" lon="7.989249416149821"><ele>645.0</ele><time>2026-03-29T09:04:07Z</time></trkpt><trkpt lat="44.00517549914374" lon="7.9892746298353225"><ele>645.0</ele><time>2026-03-29T09:04:08Z</time></trkpt><trkpt lat="44.00524696926125" lon="7.98924833857425"><ele>644.6</ele><time>2026-03-29T09:04:09Z</time></trkpt><trkpt lat="44.005321444406775" lon="7.989257258162973"><ele>644.2</ele><time>2026-03-29T09:04:10Z</time></trkpt><trkpt lat="44.005334475384274" lon="7.989098689584153"><ele>643.8</ele><time>2026-03-29T09:04:13Z</time></trkpt><trkpt lat="44.00537084449468" lon="7.989012189505336"><ele>643.4</ele><time>2026-03-29T09:04:14Z</time></trkpt><trkpt lat="44.00546510445755" lon="7.988939333276239"><ele>643.0</ele><time>2026-03-29T09:04:16Z</time></trkpt><trkpt lat="44.00557941085445" lon="7.989033570352431"><ele>639.1666666666667</ele><time>2026-03-29T09:04:18Z</time></trkpt><trkpt lat="44.005645694728834" lon="7.98900465083465"><ele>635.3333333333334</ele><time>2026-03-29T09:04:20Z</time></trkpt><trkpt lat="44.0056843260489" lon="7.988910208980449"><ele>631.5</ele><time>2026-03-29T09:04:21Z</time></trkpt><trkpt lat="44.00574120628016" lon="7.988826013108411"><ele>627.6666666666666</ele><time>2026-03-29T09:04:23Z</time></trkpt><trkpt lat="44.00582802315472" lon="7.988742580846146"><ele>623.8333333333333</ele><time>2026-03-29T09:04:24Z</time></trkpt><trkpt lat="44.00589329664138" lon="7.988633618372958"><ele>620.0</ele><time>2026-03-29T09:04:25Z</time></trkpt><trkpt lat="44.00595631835716" lon="7.988519338006929"><ele>620.0</ele><time>2026-03-29T09:04:26Z</time></trkpt><trkpt lat="44.00603345085252" lon="7.988416643816526"><ele>620.0</ele><time>2026-03-29T09:04:27Z</time></trkpt><trkpt lat="44.006118149801694" lon="7.988363300223633"><ele>620.0</ele><time>2026-03-29T09:04:28Z</time></trkpt><trkpt lat="44.00620619777663" lon="7.9884442963597975"><ele>620.0</ele><time>2026-03-29T09:04:30Z</time></trkpt><trkpt lat="44.00626612578943" lon="7.988489989903301"><ele>620.0</ele><time>2026-03-29T09:04:30.999Z</time></trkpt><trkpt lat="44.00634503447875" lon="7.988551947211011"><ele>620.0</ele><time>2026-03-29T09:04:31.999Z</time></trkpt><trkpt lat="44.00642365302118" lon="7.988574553255206"><ele>620.0</ele><time>2026-03-29T09:04:32.999Z</time></trkpt><trkpt lat="44.00651912300138" lon="7.9885344750940686"><ele>620.0</ele><time>2026-03-29T09:04:33.999Z</time></trkpt><trkpt lat="44.00667863450481" lon="7.988494268266298"><ele>620.0</ele><time>2026-03-29T09:04:34.999Z</time></trkpt><trkpt lat="44.00679684979758" lon="7.9884662903495585"><ele>621.4</ele><time>2026-03-29T09:04:35.999Z</time></trkpt><trkpt lat="44.006895567054116" lon="7.988412988592592"><ele>622.8</ele><time>2026-03-29T09:04:36.999Z</time></trkpt><trkpt lat="44.00692879715717" lon="7.988318365814913"><ele>624.2</ele><time>2026-03-29T09:04:37.999Z</time></trkpt><trkpt lat="44.00692504232336" lon="7.988196850955645"><ele>625.6</ele><time>2026-03-29T09:04:38.999Z</time></trkpt><trkpt lat="44.00696207547887" lon="7.98806391446162"><ele>627.0</ele><time>2026-03-29T09:04:39.999Z</time></trkpt><trkpt lat="44.00700826592474" lon="7.987972025599084"><ele>627.0</ele><time>2026-03-29T09:04:40.999Z</time></trkpt><trkpt lat="44.00707859254653" lon="7.987880199893841"><ele>627.0</ele><time>2026-03-29T09:04:41.999Z</time></trkpt><trkpt lat="44.00718473458903" lon="7.987806251425943"><ele>627.0</ele><time>2026-03-29T09:04:42.999Z</time></trkpt><trkpt lat="44.00738125439756" lon="7.987712572873855"><ele>627.0</ele><time>2026-03-29T09:04:43.999Z</time></trkpt><trkpt lat="44.007537182486004" lon="7.987664621084258"><ele>627.0</ele><time>2026-03-29T09:04:44.999Z</time></trkpt><trkpt lat="44.00765921806083" lon="7.987638940103408"><ele>627.0</ele><time>2026-03-29T09:04:45.999Z</time></trkpt><trkpt lat="44.00778141724131" lon="7.987609419706653"><ele>627.0</ele><time>2026-03-29T09:04:46.999Z</time></trkpt><trkpt lat="44.007880970921846" lon="7.987510430675089"><ele>627.0</ele><time>2026-03-29T09:04:47.999Z</time></trkpt><trkpt lat="44.007947777786804" lon="7.987359607883536"><ele>620.6</ele><time>2026-03-29T09:04:48.999Z</time></trkpt><trkpt lat="44.00801933316401" lon="7.98719804982646"><ele>614.2</ele><time>2026-03-29T09:04:49.999Z</time></trkpt><trkpt lat="44.00807942524241" lon="7.987080194825676"><ele>607.8</ele><time>2026-03-29T09:04:50.999Z</time></trkpt><trkpt lat="44.008131112385584" lon="7.987017046465628"><ele>601.4</ele><time>2026-03-29T09:04:51.999Z</time></trkpt><trkpt lat="44.00819732839376" lon="7.986951104648053"><ele>595.0</ele><time>2026-03-29T09:04:52.999Z</time></trkpt><trkpt lat="44.008253960336184" lon="7.986897766500621"><ele>595.0</ele><time>2026-03-29T09:04:53.999Z</time></trkpt><trkpt lat="44.0082752363578" lon="7.986801300676372"><ele>595.0</ele><time>2026-03-29T09:04:54.999Z</time></trkpt><trkpt lat="44.00827532428752" lon="7.986670962559001"><ele>595.0</ele><time>2026-03-29T09:04:55.999Z</time></trkpt><trkpt lat="44.008301829513016" lon="7.986533167363657"><ele>595.0</ele><time>2026-03-29T09:04:56.999Z</time></trkpt><trkpt lat="44.008400493023466" lon="7.986443214603374"><ele>595.0</ele><time>2026-03-29T09:04:58.999Z</time></trkpt><trkpt lat="44.00851301944002" lon="7.986374363310536"><ele>598.0</ele><time>2026-03-29T09:04:59.999Z</time></trkpt><trkpt lat="44.00865753849471" lon="7.9862777160036185"><ele>601.0</ele><time>2026-03-29T09:05:00.999Z</time></trkpt><trkpt lat="44.00873838734517" lon="7.986182644843564"><ele>604.0</ele><time>2026-03-29T09:05:01.999Z</time></trkpt><trkpt lat="44.008785962114" lon="7.986098443323096"><ele>607.0</ele><time>2026-03-29T09:05:02.999Z</time></trkpt><trkpt lat="44.00879972369647" lon="7.985951699646691"><ele>602.4</ele><time>2026-03-29T09:05:03.999Z</time></trkpt><trkpt lat="44.00878144937732" lon="7.985838424023847"><ele>597.8000000000001</ele><time>2026-03-29T09:05:04.999Z</time></trkpt><trkpt lat="44.008807943362704" lon="7.985677071180146"><ele>593.2</ele><time>2026-03-29T09:05:05.999Z</time></trkpt><trkpt lat="44.00883701087926" lon="7.985579272459911"><ele>588.6</ele><time>2026-03-29T09:05:06.999Z</time></trkpt><trkpt lat="44.00883276476207" lon="7.985360958649992"><ele>584.0</ele><time>2026-03-29T09:05:07.999Z</time></trkpt><trkpt lat="44.00878980855231" lon="7.985280817538791"><ele>584.0</ele><time>2026-03-29T09:05:08.999Z</time></trkpt><trkpt lat="44.008755552028" lon="7.985163586369319"><ele>584.0</ele><time>2026-03-29T09:05:09.999Z</time></trkpt><trkpt lat="44.00874297869435" lon="7.985036360669356"><ele>584.0</ele><time>2026-03-29T09:05:10.999Z</time></trkpt><trkpt lat="44.0087629954626" lon="7.984916357168674"><ele>584.0</ele><time>2026-03-29T09:05:11.999Z</time></trkpt><trkpt lat="44.008820080270546" lon="7.9848225351449535"><ele>584.0</ele><time>2026-03-29T09:05:12.999Z</time></trkpt><trkpt lat="44.008937223544315" lon="7.984693311559566"><ele>587.5</ele><time>2026-03-29T09:05:13.999Z</time></trkpt><trkpt lat="44.00904440758746" lon="7.984543631703504"><ele>591.0</ele><time>2026-03-29T09:05:14.999Z</time></trkpt><trkpt lat="44.00910874705863" lon="7.984361849199013"><ele>594.5</ele><time>2026-03-29T09:05:15.999Z</time></trkpt><trkpt lat="44.009181991272534" lon="7.984183093278675"><ele>598.0</ele><time>2026-03-29T09:05:16.999Z</time></trkpt><trkpt lat="44.00925359697027" lon="7.9840208339469125"><ele>598.0</ele><time>2026-03-29T09:05:17.999Z</time></trkpt><trkpt lat="44.00933716326824" lon="7.983870087057842"><ele>598.0</ele><time>2026-03-29T09:05:18.999Z</time></trkpt><trkpt lat="44.0094298755274" lon="7.9837090609400345"><ele>598.0</ele><time>2026-03-29T09:05:19.999Z</time></trkpt><trkpt lat="44.00950722808844" lon="7.983530949552877"><ele>598.0</ele><time>2026-03-29T09:05:20.999Z</time></trkpt><trkpt lat="44.00958348506226" lon="7.983347740182547"><ele>593.6666666666667</ele><time>2026-03-29T09:05:21.999Z</time></trkpt><trkpt lat="44.009683250180224" lon="7.983164761888232"><ele>589.3333333333334</ele><time>2026-03-29T09:05:22.999Z</time></trkpt><trkpt lat="44.0097846359868" lon="7.982991254210522"><ele>585.0</ele><time>2026-03-29T09:05:23.999Z</time></trkpt><trkpt lat="44.00988129258846" lon="7.982852381561597"><ele>585.0</ele><time>2026-03-29T09:05:24.999Z</time></trkpt><trkpt lat="44.009909863730314" lon="7.982693465947127"><ele>585.0</ele><time>2026-03-29T09:05:25.999Z</time></trkpt><trkpt lat="44.00995580197916" lon="7.982516439975564"><ele>585.0</ele><time>2026-03-29T09:05:26.999Z</time></trkpt><trkpt lat="44.00997471672963" lon="7.98230812556661"><ele>585.0</ele><time>2026-03-29T09:05:27.999Z</time></trkpt><trkpt lat="44.00998657217655" lon="7.982211969145357"><ele>592.8</ele><time>2026-03-29T09:05:28.999Z</time></trkpt><trkpt lat="44.01005267765026" lon="7.98223535552202"><ele>600.6</ele><time>2026-03-29T09:05:32.999Z</time></trkpt><trkpt lat="44.01006600326141" lon="7.9823625648929575"><ele>608.4</ele><time>2026-03-29T09:05:33.999Z</time></trkpt><trkpt lat="44.01006076227234" lon="7.982553573508126"><ele>616.2</ele><time>2026-03-29T09:05:34.999Z</time></trkpt><trkpt lat="44.01005428943986" lon="7.982740641979365"><ele>624.0</ele><time>2026-03-29T09:05:35.999Z</time></trkpt><trkpt lat="44.01005448727836" lon="7.982891387803959"><ele>625.0</ele><time>2026-03-29T09:05:36.999Z</time></trkpt><trkpt lat="44.01002155181285" lon="7.98304117553749"><ele>626.0</ele><time>2026-03-29T09:05:37.999Z</time></trkpt><trkpt lat="44.01000719457662" lon="7.983184654130304"><ele>627.0</ele><time>2026-03-29T09:05:38.999Z</time></trkpt><trkpt lat="44.00995439037406" lon="7.983306047942058"><ele>628.0</ele><time>2026-03-29T09:05:39.999Z</time></trkpt><trkpt lat="44.00989173647213" lon="7.9834346945907715"><ele>629.0</ele><time>2026-03-29T09:05:40.999Z</time></trkpt><trkpt lat="44.009849092878056" lon="7.983577175290858"><ele>626.0</ele><time>2026-03-29T09:05:41.999Z</time></trkpt><trkpt lat="44.00982130263284" lon="7.983749960553673"><ele>623.0</ele><time>2026-03-29T09:05:42.999Z</time></trkpt><trkpt lat="44.00984701283896" lon="7.983930999690476"><ele>620.0</ele><time>2026-03-29T09:05:43.999Z</time></trkpt><trkpt lat="44.00983120687436" lon="7.984082670912911"><ele>617.0</ele><time>2026-03-29T09:05:44.999Z</time></trkpt><trkpt lat="44.009795860608286" lon="7.984220189136298"><ele>617.0</ele><time>2026-03-29T09:05:45.999Z</time></trkpt><trkpt lat="44.0097503345307" lon="7.984348515618486"><ele>617.0</ele><time>2026-03-29T09:05:46.999Z</time></trkpt><trkpt lat="44.00965309328884" lon="7.984437043070716"><ele>617.0</ele><time>2026-03-29T09:05:47.999Z</time></trkpt><trkpt lat="44.00956774582376" lon="7.9845736142295465"><ele>617.0</ele><time>2026-03-29T09:05:48.999Z</time></trkpt><trkpt lat="44.00950702664657" lon="7.984724715430182"><ele>617.0</ele><time>2026-03-29T09:05:49.999Z</time></trkpt><trkpt lat="44.009449761636304" lon="7.984867813441537"><ele>617.0</ele><time>2026-03-29T09:05:50.999Z</time></trkpt><trkpt lat="44.00939035161569" lon="7.985018517416816"><ele>617.0</ele><time>2026-03-29T09:05:51.999Z</time></trkpt><trkpt lat="44.0093408111006" lon="7.985169215665223"><ele>617.0</ele><time>2026-03-29T09:05:52.999Z</time></trkpt><trkpt lat="44.00932401407041" lon="7.9853144319008305"><ele>619.5</ele><time>2026-03-29T09:05:53.999Z</time></trkpt><trkpt lat="44.00940401346822" lon="7.9854684095862565"><ele>622.0</ele><time>2026-03-29T09:05:54.999Z</time></trkpt><trkpt lat="44.009468667740514" lon="7.985619375723785"><ele>624.5</ele><time>2026-03-29T09:05:56Z</time></trkpt><trkpt lat="44.00948999497119" lon="7.985776531879734"><ele>627.0</ele><time>2026-03-29T09:05:57Z</time></trkpt><trkpt lat="44.00945262910185" lon="7.985910974208826"><ele>630.75</ele><time>2026-03-29T09:05:58Z</time></trkpt><trkpt lat="44.00941261048667" lon="7.986067970076371"><ele>634.5</ele><time>2026-03-29T09:05:59Z</time></trkpt><trkpt lat="44.00943331051566" lon="7.9862383854501555"><ele>638.25</ele><time>2026-03-29T09:06:00Z</time></trkpt><trkpt lat="44.009466336510215" lon="7.986391764008484"><ele>642.0</ele><time>2026-03-29T09:06:01Z</time></trkpt><trkpt lat="44.0094812654871" lon="7.986542968101946"><ele>646.0</ele><time>2026-03-29T09:06:02Z</time></trkpt><trkpt lat="44.00947153938988" lon="7.986694390101716"><ele>650.0</ele><time>2026-03-29T09:06:03Z</time></trkpt><trkpt lat="44.00945299776632" lon="7.986842876357997"><ele>654.0</ele><time>2026-03-29T09:06:04Z</time></trkpt><trkpt lat="44.009415675082955" lon="7.9869687339381334"><ele>658.0</ele><time>2026-03-29T09:06:05Z</time></trkpt><trkpt lat="44.009352254091915" lon="7.9870737506843845"><ele>662.0</ele><time>2026-03-29T09:06:06Z</time></trkpt><trkpt lat="44.00927233372828" lon="7.987151123778034"><ele>662.0</ele><time>2026-03-29T09:06:07Z</time></trkpt><trkpt lat="44.00917760079246" lon="7.987220129726931"><ele>662.0</ele><time>2026-03-29T09:06:08Z</time></trkpt><trkpt lat="44.009074173422434" lon="7.98724848862496"><ele>662.0</ele><time>2026-03-29T09:06:09Z</time></trkpt><trkpt lat="44.00898955703066" lon="7.987294304941352"><ele>662.0</ele><time>2026-03-29T09:06:10Z</time></trkpt><trkpt lat="44.00893233973584" lon="7.987383636060589"><ele>662.0</ele><time>2026-03-29T09:06:11Z</time></trkpt><trkpt lat="44.00891735731155" lon="7.987552228821262"><ele>661.2</ele><time>2026-03-29T09:06:12Z</time></trkpt><trkpt lat="44.008888296709856" lon="7.987702005969442"><ele>660.4000000000001</ele><time>2026-03-29T09:06:13Z</time></trkpt><trkpt lat="44.00885595472467" lon="7.987842508036545"><ele>659.5999999999999</ele><time>2026-03-29T09:06:14Z</time></trkpt><trkpt lat="44.008804417856915" lon="7.9879603060380795"><ele>658.8</ele><time>2026-03-29T09:06:15Z</time></trkpt><trkpt lat="44.008723122204394" lon="7.98805406772112"><ele>658.0</ele><time>2026-03-29T09:06:16Z</time></trkpt><trkpt lat="44.00865838959936" lon="7.988178687293339"><ele>658.0</ele><time>2026-03-29T09:06:17Z</time></trkpt><trkpt lat="44.008597508201795" lon="7.988277654982791"><ele>658.0</ele><time>2026-03-29T09:06:18Z</time></trkpt><trkpt lat="44.008513833829895" lon="7.9883306002716"><ele>658.0</ele><time>2026-03-29T09:06:19Z</time></trkpt><trkpt lat="44.00840877297074" lon="7.988327795312007"><ele>658.0</ele><time>2026-03-29T09:06:20Z</time></trkpt><trkpt lat="44.00831670339914" lon="7.988386592979349"><ele>658.0</ele><time>2026-03-29T09:06:21Z</time></trkpt><trkpt lat="44.00825056548889" lon="7.98849936936408"><ele>656.0</ele><time>2026-03-29T09:06:22Z</time></trkpt><trkpt lat="44.00815812092289" lon="7.988568823859333"><ele>654.0</ele><time>2026-03-29T09:06:23Z</time></trkpt><trkpt lat="44.00807014202273" lon="7.988646509489808"><ele>652.0</ele><time>2026-03-29T09:06:24Z</time></trkpt><trkpt lat="44.00798430168472" lon="7.988727335745821"><ele>650.0</ele><time>2026-03-29T09:06:25Z</time></trkpt><trkpt lat="44.007918150078666" lon="7.9888138641135455"><ele>648.0</ele><time>2026-03-29T09:06:26Z</time></trkpt><trkpt lat="44.00789547632263" lon="7.98893769223842"><ele>648.0</ele><time>2026-03-29T09:06:27Z</time></trkpt><trkpt lat="44.00793012567057" lon="7.989101893938535"><ele>648.0</ele><time>2026-03-29T09:06:28Z</time></trkpt><trkpt lat="44.007934951924064" lon="7.989265757551101"><ele>648.0</ele><time>2026-03-29T09:06:28.999Z</time></trkpt><trkpt lat="44.00792058326445" lon="7.989395096626839"><ele>648.0</ele><time>2026-03-29T09:06:29.999Z</time></trkpt><trkpt lat="44.00787570295152" lon="7.9895056626765175"><ele>648.0</ele><time>2026-03-29T09:06:30.999Z</time></trkpt><trkpt lat="44.007821954127095" lon="7.989628228172472"><ele>652.4</ele><time>2026-03-29T09:06:31.999Z</time></trkpt><trkpt lat="44.00776387912479" lon="7.989742327865504"><ele>656.8</ele><time>2026-03-29T09:06:32.999Z</time></trkpt><trkpt lat="44.00768727938191" lon="7.98983991871082"><ele>661.2</ele><time>2026-03-29T09:06:33.999Z</time></trkpt><trkpt lat="44.00761469308598" lon="7.989954024690411"><ele>665.6</ele><time>2026-03-29T09:06:34.999Z</time></trkpt><trkpt lat="44.00754877076014" lon="7.9900769180805495"><ele>670.0</ele><time>2026-03-29T09:06:35.999Z</time></trkpt><trkpt lat="44.0074950542751" lon="7.990212915745786"><ele>669.0</ele><time>2026-03-29T09:06:36.999Z</time></trkpt><trkpt lat="44.00741651510329" lon="7.990319574521837"><ele>668.0</ele><time>2026-03-29T09:06:37.999Z</time></trkpt><trkpt lat="44.00735056751035" lon="7.990434953912411"><ele>667.0</ele><time>2026-03-29T09:06:38.999Z</time></trkpt><trkpt lat="44.00729424200694" lon="7.990561122467369"><ele>666.0</ele><time>2026-03-29T09:06:39.999Z</time></trkpt><trkpt lat="44.00724450015845" lon="7.990686598152419"><ele>665.0</ele><time>2026-03-29T09:06:40.999Z</time></trkpt><trkpt lat="44.007208391945525" lon="7.990798566054135"><ele>665.0</ele><time>2026-03-29T09:06:41.999Z</time></trkpt><trkpt lat="44.00718351375117" lon="7.990882725926149"><ele>665.0</ele><time>2026-03-29T09:06:42.999Z</time></trkpt><trkpt lat="44.00731849866643" lon="7.991057609263361"><ele>665.0</ele><time>2026-03-29T09:06:44.999Z</time></trkpt><trkpt lat="44.007404415569624" lon="7.991092139919945"><ele>665.0</ele><time>2026-03-29T09:06:45.999Z</time></trkpt><trkpt lat="44.00750804943315" lon="7.991080542804322"><ele>665.0</ele><time>2026-03-29T09:06:46.999Z</time></trkpt><trkpt lat="44.00761607540124" lon="7.991056059334043"><ele>665.0</ele><time>2026-03-29T09:06:47.999Z</time></trkpt><trkpt lat="44.0077219686206" lon="7.991037727589962"><ele>665.0</ele><time>2026-03-29T09:06:48.999Z</time></trkpt><trkpt lat="44.00782461580881" lon="7.991021645938165"><ele>665.0</ele><time>2026-03-29T09:06:49.999Z</time></trkpt><trkpt lat="44.00792562021554" lon="7.991003138825686"><ele>665.0</ele><time>2026-03-29T09:06:50.999Z</time></trkpt><trkpt lat="44.008029329801516" lon="7.9909845127797885"><ele>665.0</ele><time>2026-03-29T09:06:51.999Z</time></trkpt><trkpt lat="44.00812698005232" lon="7.990961034383974"><ele>665.0</ele><time>2026-03-29T09:06:52.999Z</time></trkpt><trkpt lat="44.008224772079046" lon="7.990928213122226"><ele>665.0</ele><time>2026-03-29T09:06:53.999Z</time></trkpt><trkpt lat="44.00831686325007" lon="7.990884163573525"><ele>665.0</ele><time>2026-03-29T09:06:54.999Z</time></trkpt><trkpt lat="44.008406235764525" lon="7.990828047659615"><ele>665.0</ele><time>2026-03-29T09:06:55.999Z</time></trkpt><trkpt lat="44.00849466703619" lon="7.990764100449285"><ele>665.0</ele><time>2026-03-29T09:06:56.999Z</time></trkpt><trkpt lat="44.00859515989381" lon="7.990706953544256"><ele>668.4</ele><time>2026-03-29T09:06:57.999Z</time></trkpt><trkpt lat="44.00869598141742" lon="7.990667283930568"><ele>671.8</ele><time>2026-03-29T09:06:58.999Z</time></trkpt><trkpt lat="44.00879485345073" lon="7.9906385363134325"><ele>675.2</ele><time>2026-03-29T09:06:59.999Z</time></trkpt><trkpt lat="44.00889727830114" lon="7.990619142409016"><ele>678.6</ele><time>2026-03-29T09:07:00.999Z</time></trkpt><trkpt lat="44.00900327043816" lon="7.990601542969058"><ele>682.0</ele><time>2026-03-29T09:07:01.999Z</time></trkpt><trkpt lat="44.00910862480087" lon="7.990579230238035"><ele>679.2</ele><time>2026-03-29T09:07:02.999Z</time></trkpt><trkpt lat="44.00920622564803" lon="7.990541137573579"><ele>676.4000000000001</ele><time>2026-03-29T09:07:03.999Z</time></trkpt><trkpt lat="44.00930101843522" lon="7.9904808643471075"><ele>673.5999999999999</ele><time>2026-03-29T09:07:04.999Z</time></trkpt><trkpt lat="44.00938760491919" lon="7.990400214338091"><ele>670.8</ele><time>2026-03-29T09:07:05.999Z</time></trkpt><trkpt lat="44.009468460084136" lon="7.990304316108802"><ele>668.0</ele><time>2026-03-29T09:07:06.999Z</time></trkpt><trkpt lat="44.00954560975688" lon="7.9902035946360215"><ele>668.0</ele><time>2026-03-29T09:07:07.999Z</time></trkpt><trkpt lat="44.00962410471786" lon="7.9901081291030955"><ele>668.0</ele><time>2026-03-29T09:07:08.999Z</time></trkpt><trkpt lat="44.00970772758682" lon="7.990017062818148"><ele>668.0</ele><time>2026-03-29T09:07:09.999Z</time></trkpt><trkpt lat="44.009800318820304" lon="7.989938925603703"><ele>668.0</ele><time>2026-03-29T09:07:10.999Z</time></trkpt><trkpt lat="44.00990025977304" lon="7.989883132443888"><ele>668.0</ele><time>2026-03-29T09:07:11.999Z</time></trkpt><trkpt lat="44.01000626664053" lon="7.9898523401972295"><ele>669.5999999999999</ele><time>2026-03-29T09:07:12.999Z</time></trkpt><trkpt lat="44.010111944036275" lon="7.989871078478572"><ele>671.1999999999999</ele><time>2026-03-29T09:07:13.999Z</time></trkpt><trkpt lat="44.01021748149559" lon="7.9898965893505824"><ele>672.8</ele><time>2026-03-29T09:07:14.999Z</time></trkpt><trkpt lat="44.01032932061092" lon="7.989919898237099"><ele>674.4</ele><time>2026-03-29T09:07:15.999Z</time></trkpt><trkpt lat="44.01043796707689" lon="7.989984381162723"><ele>676.0</ele><time>2026-03-29T09:07:16.999Z</time></trkpt><trkpt lat="44.010543146355" lon="7.990031482903651"><ele>676.0</ele><time>2026-03-29T09:07:17.999Z</time></trkpt><trkpt lat="44.01063960710371" lon="7.9900436512379684"><ele>676.0</ele><time>2026-03-29T09:07:18.999Z</time></trkpt><trkpt lat="44.01073118050586" lon="7.990000536834964"><ele>676.0</ele><time>2026-03-29T09:07:19.999Z</time></trkpt><trkpt lat="44.010800029571996" lon="7.989905320226269"><ele>676.0</ele><time>2026-03-29T09:07:20.999Z</time></trkpt><trkpt lat="44.010833609581745" lon="7.989770551501897"><ele>676.0</ele><time>2026-03-29T09:07:21.999Z</time></trkpt><trkpt lat="44.010837997375546" lon="7.98961421179631"><ele>676.0</ele><time>2026-03-29T09:07:22.999Z</time></trkpt><trkpt lat="44.01082172957342" lon="7.989459669405125"><ele>676.0</ele><time>2026-03-29T09:07:23.999Z</time></trkpt><trkpt lat="44.010791655321654" lon="7.989310512971441"><ele>676.0</ele><time>2026-03-29T09:07:24.999Z</time></trkpt><trkpt lat="44.01075429898656" lon="7.989169829848522"><ele>676.0</ele><time>2026-03-29T09:07:25.999Z</time></trkpt><trkpt lat="44.010718356073475" lon="7.989040375020147"><ele>676.0</ele><time>2026-03-29T09:07:26.999Z</time></trkpt><trkpt lat="44.01068002574288" lon="7.988916498563137"><ele>679.0</ele><time>2026-03-29T09:07:27.999Z</time></trkpt><trkpt lat="44.0106618768353" lon="7.988784389820984"><ele>682.0</ele><time>2026-03-29T09:07:28.999Z</time></trkpt><trkpt lat="44.01065466923181" lon="7.9886284739853295"><ele>685.0</ele><time>2026-03-29T09:07:29.999Z</time></trkpt><trkpt lat="44.01066849227423" lon="7.988467704706654"><ele>688.0</ele><time>2026-03-29T09:07:30.999Z</time></trkpt><trkpt lat="44.010696041655024" lon="7.988315846468229"><ele>691.0</ele><time>2026-03-29T09:07:31.999Z</time></trkpt><trkpt lat="44.0107445763707" lon="7.988171353790813"><ele>691.0</ele><time>2026-03-29T09:07:32.999Z</time></trkpt><trkpt lat="44.01080050278595" lon="7.988036446211375"><ele>691.0</ele><time>2026-03-29T09:07:33.999Z</time></trkpt><trkpt lat="44.010852938969585" lon="7.987906232393091"><ele>691.0</ele><time>2026-03-29T09:07:34.999Z</time></trkpt><trkpt lat="44.01088271200948" lon="7.987770423842801"><ele>691.0</ele><time>2026-03-29T09:07:35.999Z</time></trkpt><trkpt lat="44.01088364690683" lon="7.9876273060782985"><ele>691.0</ele><time>2026-03-29T09:07:36.999Z</time></trkpt><trkpt lat="44.01084816321028" lon="7.987475371514426"><ele>688.8</ele><time>2026-03-29T09:07:37.999Z</time></trkpt><trkpt lat="44.010804691747154" lon="7.987331192876588"><ele>686.5999999999999</ele><time>2026-03-29T09:07:38.999Z</time></trkpt><trkpt lat="44.010782028757866" lon="7.987188429045673"><ele>684.4</ele><time>2026-03-29T09:07:39.999Z</time></trkpt><trkpt lat="44.01078930363586" lon="7.987044756975374"><ele>682.2</ele><time>2026-03-29T09:07:40.999Z</time></trkpt><trkpt lat="44.01080488132284" lon="7.9868937298903155"><ele>680.0</ele><time>2026-03-29T09:07:41.999Z</time></trkpt><trkpt lat="44.010823782329226" lon="7.986741862300334"><ele>674.2</ele><time>2026-03-29T09:07:42.999Z</time></trkpt><trkpt lat="44.01084215389113" lon="7.98658632114394"><ele>668.4</ele><time>2026-03-29T09:07:43.999Z</time></trkpt><trkpt lat="44.01085907019226" lon="7.986437177153117"><ele>662.5999999999999</ele><time>2026-03-29T09:07:44.999Z</time></trkpt><trkpt lat="44.01087597445529" lon="7.986293173940653"><ele>656.8</ele><time>2026-03-29T09:07:45.999Z</time></trkpt><trkpt lat="44.01090825404111" lon="7.986160861236676"><ele>651.0</ele><time>2026-03-29T09:07:46.999Z</time></trkpt><trkpt lat="44.01095531785806" lon="7.986038235281976"><ele>651.0</ele><time>2026-03-29T09:07:47.999Z</time></trkpt><trkpt lat="44.01104332516959" lon="7.9859599063967535"><ele>651.0</ele><time>2026-03-29T09:07:48.999Z</time></trkpt><trkpt lat="44.01113998814711" lon="7.985898430914968"><ele>651.0</ele><time>2026-03-29T09:07:49.999Z</time></trkpt><trkpt lat="44.011254717690484" lon="7.985782095268039"><ele>651.0</ele><time>2026-03-29T09:07:50.999Z</time></trkpt><trkpt lat="44.011348312008415" lon="7.985659582514499"><ele>653.5999999999999</ele><time>2026-03-29T09:07:51.999Z</time></trkpt><trkpt lat="44.01140009971833" lon="7.9855735329105775"><ele>656.2</ele><time>2026-03-29T09:07:52.999Z</time></trkpt><trkpt lat="44.011442322487994" lon="7.985498467482652"><ele>658.8</ele><time>2026-03-29T09:07:53.999Z</time></trkpt><trkpt lat="44.01148391687397" lon="7.985420470193473"><ele>661.4000000000001</ele><time>2026-03-29T09:07:54.999Z</time></trkpt><trkpt lat="44.011527034984894" lon="7.985319986496606"><ele>664.0</ele><time>2026-03-29T09:07:55.999Z</time></trkpt><trkpt lat="44.01163149283807" lon="7.985172242077947"><ele>672.0</ele><time>2026-03-29T09:07:57.999Z</time></trkpt><trkpt lat="44.011202761522846" lon="7.984738890759509"><ele>672.0</ele><time>2026-03-29T09:08:00.999Z</time></trkpt><trkpt lat="44.01112384375175" lon="7.9848029244550025"><ele>672.0</ele><time>2026-03-29T09:08:02Z</time></trkpt><trkpt lat="44.01105423939234" lon="7.984885825399203"><ele>672.0</ele><time>2026-03-29T09:08:03Z</time></trkpt><trkpt lat="44.01097647474271" lon="7.9848971638157495"><ele>672.0</ele><time>2026-03-29T09:08:04Z</time></trkpt><trkpt lat="44.01093595447483" lon="7.984826081899472"><ele>672.0</ele><time>2026-03-29T09:08:05Z</time></trkpt><trkpt lat="44.01093915167297" lon="7.984729686997446"><ele>672.0</ele><time>2026-03-29T09:08:06Z</time></trkpt><trkpt lat="44.01098865694136" lon="7.984610983628395"><ele>672.0</ele><time>2026-03-29T09:08:06.999Z</time></trkpt><trkpt lat="44.0110671150326" lon="7.984532860854956"><ele>672.0</ele><time>2026-03-29T09:08:08Z</time></trkpt><trkpt lat="44.01120596552405" lon="7.9844534895888195"><ele>672.0</ele><time>2026-03-29T09:08:09Z</time></trkpt><trkpt lat="44.01131080317368" lon="7.984319599445404"><ele>672.0</ele><time>2026-03-29T09:08:10Z</time></trkpt><trkpt lat="44.0114088008862" lon="7.984214444752745"><ele>672.0</ele><time>2026-03-29T09:08:11Z</time></trkpt><trkpt lat="44.01150969888974" lon="7.984196994067685"><ele>672.0</ele><time>2026-03-29T09:08:12Z</time></trkpt><trkpt lat="44.011628752645755" lon="7.984196268759632"><ele>672.0</ele><time>2026-03-29T09:08:13Z</time></trkpt><trkpt lat="44.01173566910382" lon="7.984167695329677"><ele>672.0</ele><time>2026-03-29T09:08:14Z</time></trkpt><trkpt lat="44.011820408963644" lon="7.984098652098287"><ele>672.0</ele><time>2026-03-29T09:08:15Z</time></trkpt><trkpt lat="44.011872917580995" lon="7.984009398189047"><ele>672.8</ele><time>2026-03-29T09:08:16Z</time></trkpt><trkpt lat="44.01193234380071" lon="7.983889505083723"><ele>673.6</ele><time>2026-03-29T09:08:16.999Z</time></trkpt><trkpt lat="44.011969928450426" lon="7.983771307908458"><ele>674.4</ele><time>2026-03-29T09:08:17.999Z</time></trkpt><trkpt lat="44.01197987953586" lon="7.983672650719311"><ele>675.1999999999999</ele><time>2026-03-29T09:08:18.999Z</time></trkpt><trkpt lat="44.0119986520091" lon="7.983500284283629"><ele>676.0</ele><time>2026-03-29T09:08:19.999Z</time></trkpt><trkpt lat="44.01203768969986" lon="7.983362436495569"><ele>678.8</ele><time>2026-03-29T09:08:20.999Z</time></trkpt><trkpt lat="44.012093227902895" lon="7.983273771458206"><ele>681.5999999999999</ele><time>2026-03-29T09:08:21.999Z</time></trkpt><trkpt lat="44.01217138083544" lon="7.983213428271143"><ele>684.4</ele><time>2026-03-29T09:08:22.999Z</time></trkpt><trkpt lat="44.01223835627944" lon="7.983096464875067"><ele>687.2</ele><time>2026-03-29T09:08:23.999Z</time></trkpt><trkpt lat="44.01229647118891" lon="7.982955719996226"><ele>690.0</ele><time>2026-03-29T09:08:24.999Z</time></trkpt><trkpt lat="44.01236635731378" lon="7.982822343419529"><ele>690.0</ele><time>2026-03-29T09:08:25.999Z</time></trkpt><trkpt lat="44.01245392147943" lon="7.982760032209371"><ele>690.0</ele><time>2026-03-29T09:08:26.999Z</time></trkpt><trkpt lat="44.012556886972156" lon="7.982703134705749"><ele>690.0</ele><time>2026-03-29T09:08:27.999Z</time></trkpt><trkpt lat="44.01269657010752" lon="7.982620774487027"><ele>690.0</ele><time>2026-03-29T09:08:28.999Z</time></trkpt><trkpt lat="44.012779753879904" lon="7.9825467976248765"><ele>691.6</ele><time>2026-03-29T09:08:29.999Z</time></trkpt><trkpt lat="44.01283765560469" lon="7.982459199538807"><ele>693.2</ele><time>2026-03-29T09:08:31.999Z</time></trkpt><trkpt lat="44.01289471481921" lon="7.982377531592501"><ele>694.8</ele><time>2026-03-29T09:08:32.999Z</time></trkpt><trkpt lat="44.012988957386604" lon="7.982269598007809"><ele>696.4</ele><time>2026-03-29T09:08:33.999Z</time></trkpt><trkpt lat="44.01311598224012" lon="7.982169946775959"><ele>698.0</ele><time>2026-03-29T09:08:34.999Z</time></trkpt><trkpt lat="44.01320757274205" lon="7.98211245540708"><ele>698.0</ele><time>2026-03-29T09:08:35.999Z</time></trkpt><trkpt lat="44.01325221701006" lon="7.982045111211206"><ele>698.0</ele><time>2026-03-29T09:08:36.999Z</time></trkpt><trkpt lat="44.01328698107577" lon="7.981948221839221"><ele>698.0</ele><time>2026-03-29T09:08:37.999Z</time></trkpt><trkpt lat="44.01334077618282" lon="7.981785417315252"><ele>698.0</ele><time>2026-03-29T09:08:38.999Z</time></trkpt><trkpt lat="44.013403933502026" lon="7.981639585395455"><ele>698.0</ele><time>2026-03-29T09:08:39.999Z</time></trkpt><trkpt lat="44.01347857854872" lon="7.981595795903475"><ele>694.75</ele><time>2026-03-29T09:08:40.999Z</time></trkpt><trkpt lat="44.0135769469505" lon="7.981555162542409"><ele>691.5</ele><time>2026-03-29T09:08:41.999Z</time></trkpt><trkpt lat="44.01369676362571" lon="7.9815525000484895"><ele>688.25</ele><time>2026-03-29T09:08:42.999Z</time></trkpt><trkpt lat="44.01376959385852" lon="7.981532160993468"><ele>685.0</ele><time>2026-03-29T09:08:43.999Z</time></trkpt><trkpt lat="44.013864212483334" lon="7.981345903809922"><ele>685.0</ele><time>2026-03-29T09:08:45.999Z</time></trkpt><trkpt lat="44.013985203785865" lon="7.981205204128043"><ele>685.0</ele><time>2026-03-29T09:08:46.999Z</time></trkpt><trkpt lat="44.014113229212555" lon="7.981097071849467"><ele>685.0</ele><time>2026-03-29T09:08:47.999Z</time></trkpt><trkpt lat="44.01421798982132" lon="7.98101474179999"><ele>685.0</ele><time>2026-03-29T09:08:48.999Z</time></trkpt><trkpt lat="44.01431587005783" lon="7.980995525300089"><ele>685.2</ele><time>2026-03-29T09:08:49.999Z</time></trkpt><trkpt lat="44.01442186673484" lon="7.980989581450864"><ele>685.4</ele><time>2026-03-29T09:08:50.999Z</time></trkpt><trkpt lat="44.01450811826501" lon="7.980931800981779"><ele>685.5999999999999</ele><time>2026-03-29T09:08:51.999Z</time></trkpt><trkpt lat="44.01458171287753" lon="7.980813096806752"><ele>685.8</ele><time>2026-03-29T09:08:52.999Z</time></trkpt><trkpt lat="44.01466937685483" lon="7.9807156373411745"><ele>686.0</ele><time>2026-03-29T09:08:53.999Z</time></trkpt><trkpt lat="44.01474115408768" lon="7.980662450165577"><ele>686.0</ele><time>2026-03-29T09:08:54.999Z</time></trkpt><trkpt lat="44.01481966949615" lon="7.980773459647028"><ele>686.0</ele><time>2026-03-29T09:08:55.999Z</time></trkpt><trkpt lat="44.014920425774406" lon="7.980867933667705"><ele>686.0</ele><time>2026-03-29T09:08:56.999Z</time></trkpt><trkpt lat="44.01501251365532" lon="7.980926760330217"><ele>686.0</ele><time>2026-03-29T09:08:57.999Z</time></trkpt><trkpt lat="44.01510945549413" lon="7.980777961018087"><ele>683.8333333333333</ele><time>2026-03-29T09:08:59.999Z</time></trkpt><trkpt lat="44.015194494708055" lon="7.980701324880978"><ele>681.6666666666666</ele><time>2026-03-29T09:09:00.999Z</time></trkpt><trkpt lat="44.015280942850616" lon="7.980666418425018"><ele>679.5</ele><time>2026-03-29T09:09:01.999Z</time></trkpt><trkpt lat="44.01534523687013" lon="7.980610524992247"><ele>677.3333333333334</ele><time>2026-03-29T09:09:02.999Z</time></trkpt><trkpt lat="44.015412976065676" lon="7.980611720840259"><ele>675.1666666666667</ele><time>2026-03-29T09:09:03.999Z</time></trkpt><trkpt lat="44.0155060623202" lon="7.980620601843535"><ele>673.0</ele><time>2026-03-29T09:09:04.999Z</time></trkpt><trkpt lat="44.01559595311875" lon="7.980621293184327"><ele>673.0</ele><time>2026-03-29T09:09:05.999Z</time></trkpt><trkpt lat="44.01568063128013" lon="7.980627064370212"><ele>673.0</ele><time>2026-03-29T09:09:06.999Z</time></trkpt><trkpt lat="44.015752520528416" lon="7.98063679507938"><ele>673.0</ele><time>2026-03-29T09:09:07.999Z</time></trkpt><trkpt lat="44.01584550433653" lon="7.980653594624853"><ele>673.0</ele><time>2026-03-29T09:09:08.999Z</time></trkpt><trkpt lat="44.015985268924" lon="7.980761324751701"><ele>673.0</ele><time>2026-03-29T09:09:09.999Z</time></trkpt><trkpt lat="44.01614645729122" lon="7.980876128089554"><ele>665.4</ele><time>2026-03-29T09:09:10.999Z</time></trkpt><trkpt lat="44.01626390382318" lon="7.9809865611596935"><ele>657.8</ele><time>2026-03-29T09:09:11.999Z</time></trkpt><trkpt lat="44.016334511480444" lon="7.9811041214812635"><ele>650.2</ele><time>2026-03-29T09:09:12.999Z</time></trkpt><trkpt lat="44.016408192434795" lon="7.981186658720416"><ele>642.6</ele><time>2026-03-29T09:09:13.999Z</time></trkpt><trkpt lat="44.01647586400904" lon="7.981290081571439"><ele>635.0</ele><time>2026-03-29T09:09:14.999Z</time></trkpt><trkpt lat="44.01651836844124" lon="7.981394467703652"><ele>635.0</ele><time>2026-03-29T09:09:15.999Z</time></trkpt><trkpt lat="44.016563459978435" lon="7.981525280892582"><ele>635.0</ele><time>2026-03-29T09:09:16.999Z</time></trkpt><trkpt lat="44.01659596411873" lon="7.98171032787692"><ele>635.0</ele><time>2026-03-29T09:09:17.999Z</time></trkpt><trkpt lat="44.01663768014507" lon="7.981924796383294"><ele>635.0</ele><time>2026-03-29T09:09:18.999Z</time></trkpt><trkpt lat="44.01666069123546" lon="7.982064301293965"><ele>638.0</ele><time>2026-03-29T09:09:19.999Z</time></trkpt><trkpt lat="44.0166812706447" lon="7.982184052455668"><ele>641.0</ele><time>2026-03-29T09:09:20.999Z</time></trkpt><trkpt lat="44.01675278125617" lon="7.9822924502824275"><ele>644.0</ele><time>2026-03-29T09:09:21.999Z</time></trkpt><trkpt lat="44.016826167643586" lon="7.982400790617269"><ele>647.0</ele><time>2026-03-29T09:09:22.999Z</time></trkpt><trkpt lat="44.016893623953116" lon="7.982451592114991"><ele>650.0</ele><time>2026-03-29T09:09:23.999Z</time></trkpt><trkpt lat="44.016984688530094" lon="7.982494080293632"><ele>650.0</ele><time>2026-03-29T09:09:24.999Z</time></trkpt><trkpt lat="44.01709866264645" lon="7.982544669053613"><ele>650.0</ele><time>2026-03-29T09:09:25.999Z</time></trkpt><trkpt lat="44.01719111293452" lon="7.982424941552429"><ele>650.0</ele><time>2026-03-29T09:09:27.999Z</time></trkpt><trkpt lat="44.017217244034484" lon="7.9822676222681945"><ele>650.0</ele><time>2026-03-29T09:09:28.999Z</time></trkpt><trkpt lat="44.017224350273835" lon="7.982057662855691"><ele>650.0</ele><time>2026-03-29T09:09:29.999Z</time></trkpt><trkpt lat="44.017233387208016" lon="7.981886104442042"><ele>650.0</ele><time>2026-03-29T09:09:30.999Z</time></trkpt><trkpt lat="44.01727823474695" lon="7.981788448326617"><ele>650.0</ele><time>2026-03-29T09:09:31.999Z</time></trkpt><trkpt lat="44.01736197739193" lon="7.9816747510746815"><ele>650.0</ele><time>2026-03-29T09:09:32.999Z</time></trkpt><trkpt lat="44.0174490878049" lon="7.981541916831768"><ele>656.5</ele><time>2026-03-29T09:09:33.999Z</time></trkpt><trkpt lat="44.01751115373205" lon="7.981397880820927"><ele>663.0</ele><time>2026-03-29T09:09:34.999Z</time></trkpt><trkpt lat="44.017589636007294" lon="7.981258631899643"><ele>669.5</ele><time>2026-03-29T09:09:35.999Z</time></trkpt><trkpt lat="44.01764760314906" lon="7.981176990546722"><ele>676.0</ele><time>2026-03-29T09:09:36.999Z</time></trkpt><trkpt lat="44.01779211286301" lon="7.981090321583966"><ele>676.0</ele><time>2026-03-29T09:09:37.999Z</time></trkpt><trkpt lat="44.01788829865909" lon="7.981131889363965"><ele>676.0</ele><time>2026-03-29T09:09:38.999Z</time></trkpt><trkpt lat="44.01796835620632" lon="7.981088636777203"><ele>676.0</ele><time>2026-03-29T09:09:40.999Z</time></trkpt><trkpt lat="44.01800614177072" lon="7.980917247987656"><ele>676.0</ele><time>2026-03-29T09:09:41.999Z</time></trkpt><trkpt lat="44.01796799779609" lon="7.980762165075724"><ele>676.0</ele><time>2026-03-29T09:09:42.999Z</time></trkpt><trkpt lat="44.01801894832954" lon="7.980628302580691"><ele>679.8</ele><time>2026-03-29T09:09:43.999Z</time></trkpt><trkpt lat="44.018044362968226" lon="7.980535410580796"><ele>683.5999999999999</ele><time>2026-03-29T09:09:44.999Z</time></trkpt><trkpt lat="44.01806783351093" lon="7.980411082333524"><ele>687.4</ele><time>2026-03-29T09:09:45.999Z</time></trkpt><trkpt lat="44.01818513976306" lon="7.980383842836237"><ele>691.2</ele><time>2026-03-29T09:09:47.999Z</time></trkpt><trkpt lat="44.01825088231273" lon="7.980351348599312"><ele>695.0</ele><time>2026-03-29T09:09:48.999Z</time></trkpt><trkpt lat="44.01834942488867" lon="7.980302598666602"><ele>690.75</ele><time>2026-03-29T09:09:49.999Z</time></trkpt><trkpt lat="44.01836290693585" lon="7.980150238775873"><ele>686.5</ele><time>2026-03-29T09:09:50.999Z</time></trkpt><trkpt lat="44.018434565336904" lon="7.980056448619286"><ele>682.25</ele><time>2026-03-29T09:09:51.999Z</time></trkpt><trkpt lat="44.018556646886346" lon="7.97991257485242"><ele>678.0</ele><time>2026-03-29T09:09:52.999Z</time></trkpt><trkpt lat="44.018682402669455" lon="7.979770102324022"><ele>678.0</ele><time>2026-03-29T09:09:53.999Z</time></trkpt><trkpt lat="44.01878645394942" lon="7.979663830876689"><ele>678.0</ele><time>2026-03-29T09:09:54.999Z</time></trkpt><trkpt lat="44.01892577622151" lon="7.979594890782312"><ele>678.0</ele><time>2026-03-29T09:09:55.999Z</time></trkpt><trkpt lat="44.01904756284126" lon="7.979541145512388"><ele>678.0</ele><time>2026-03-29T09:09:56.999Z</time></trkpt><trkpt lat="44.019181772088345" lon="7.979586944927798"><ele>674.25</ele><time>2026-03-29T09:09:57.999Z</time></trkpt><trkpt lat="44.01931131464644" lon="7.979661304349946"><ele>670.5</ele><time>2026-03-29T09:09:58.999Z</time></trkpt><trkpt lat="44.01939415698351" lon="7.979767094141985"><ele>666.75</ele><time>2026-03-29T09:09:59.999Z</time></trkpt><trkpt lat="44.01943848766793" lon="7.979888474148734"><ele>663.0</ele><time>2026-03-29T09:10:00.999Z</time></trkpt><trkpt lat="44.01951819420909" lon="7.980066156662395"><ele>658.0</ele><time>2026-03-29T09:10:01.999Z</time></trkpt><trkpt lat="44.01959959540273" lon="7.980171290591412"><ele>653.0</ele><time>2026-03-29T09:10:02.999Z</time></trkpt><trkpt lat="44.01966685140726" lon="7.980236854224058"><ele>648.0</ele><time>2026-03-29T09:10:03.999Z</time></trkpt><trkpt lat="44.01975313118598" lon="7.980247534015002"><ele>643.0</ele><time>2026-03-29T09:10:04.999Z</time></trkpt><trkpt lat="44.0198903195001" lon="7.980249714703688"><ele>638.0</ele><time>2026-03-29T09:10:05.999Z</time></trkpt><trkpt lat="44.02002523981621" lon="7.9802548358560985"><ele>638.0</ele><time>2026-03-29T09:10:06.999Z</time></trkpt><trkpt lat="44.02008801872329" lon="7.980244264743023"><ele>638.0</ele><time>2026-03-29T09:10:07.999Z</time></trkpt><trkpt lat="44.020143054712555" lon="7.98019858524118"><ele>638.0</ele><time>2026-03-29T09:10:08.999Z</time></trkpt><trkpt lat="44.020182012071444" lon="7.980069759895514"><ele>638.0</ele><time>2026-03-29T09:10:09.999Z</time></trkpt><trkpt lat="44.020225251500676" lon="7.979900188437312"><ele>638.0</ele><time>2026-03-29T09:10:10.999Z</time></trkpt><trkpt lat="44.0202369761078" lon="7.979798294525737"><ele>638.0</ele><time>2026-03-29T09:10:11.999Z</time></trkpt><trkpt lat="44.020231392134804" lon="7.979693175697918"><ele>644.0</ele><time>2026-03-29T09:10:12.999Z</time></trkpt><trkpt lat="44.02023630641629" lon="7.979581383839501"><ele>650.0</ele><time>2026-03-29T09:10:13.999Z</time></trkpt><trkpt lat="44.020315620445565" lon="7.979487756000219"><ele>656.0</ele><time>2026-03-29T09:10:14.999Z</time></trkpt><trkpt lat="44.020393437073594" lon="7.979443052943203"><ele>662.0</ele><time>2026-03-29T09:10:15.999Z</time></trkpt><trkpt lat="44.02041627439651" lon="7.979319927590848"><ele>668.0</ele><time>2026-03-29T09:10:17.999Z</time></trkpt><trkpt lat="44.02047871405625" lon="7.97922297692977"><ele>669.4</ele><time>2026-03-29T09:10:18.999Z</time></trkpt><trkpt lat="44.02054001271039" lon="7.979134596264953"><ele>670.8</ele><time>2026-03-29T09:10:19.999Z</time></trkpt><trkpt lat="44.020620265485626" lon="7.979126338377002"><ele>672.2</ele><time>2026-03-29T09:10:20.999Z</time></trkpt><trkpt lat="44.020733991707644" lon="7.979124052144439"><ele>673.6</ele><time>2026-03-29T09:10:21.999Z</time></trkpt><trkpt lat="44.020816570660294" lon="7.979100830655373"><ele>675.0</ele><time>2026-03-29T09:10:22.999Z</time></trkpt><trkpt lat="44.02094549014524" lon="7.978891937986264"><ele>675.0</ele><time>2026-03-29T09:10:24.999Z</time></trkpt><trkpt lat="44.02103649870297" lon="7.978798217577702"><ele>675.0</ele><time>2026-03-29T09:10:25.999Z</time></trkpt><trkpt lat="44.02112320156905" lon="7.978794934946432"><ele>675.0</ele><time>2026-03-29T09:10:26.999Z</time></trkpt><trkpt lat="44.02122511585346" lon="7.978877628772508"><ele>675.0</ele><time>2026-03-29T09:10:27.999Z</time></trkpt><trkpt lat="44.0213203027472" lon="7.9789812708178305"><ele>675.0</ele><time>2026-03-29T09:10:28.999Z</time></trkpt><trkpt lat="44.02146489822194" lon="7.9791306772273565"><ele>668.4</ele><time>2026-03-29T09:10:29.999Z</time></trkpt><trkpt lat="44.02161182818211" lon="7.979257391671931"><ele>661.8</ele><time>2026-03-29T09:10:30.999Z</time></trkpt><trkpt lat="44.02171671265781" lon="7.979359223345989"><ele>655.2</ele><time>2026-03-29T09:10:31.999Z</time></trkpt><trkpt lat="44.02177806799413" lon="7.979415387833844"><ele>648.6</ele><time>2026-03-29T09:10:32.999Z</time></trkpt><trkpt lat="44.021844567238354" lon="7.979415355215372"><ele>642.0</ele><time>2026-03-29T09:10:33.999Z</time></trkpt><trkpt lat="44.02190626017199" lon="7.979397514530819"><ele>642.0</ele><time>2026-03-29T09:10:34.999Z</time></trkpt><trkpt lat="44.022007294514054" lon="7.979370489173169"><ele>642.0</ele><time>2026-03-29T09:10:35.999Z</time></trkpt><trkpt lat="44.02210979101138" lon="7.979365537973567"><ele>642.0</ele><time>2026-03-29T09:10:36.999Z</time></trkpt><trkpt lat="44.02218598723938" lon="7.979415982879633"><ele>642.0</ele><time>2026-03-29T09:10:37.999Z</time></trkpt><trkpt lat="44.02226925942885" lon="7.9794860331690005"><ele>642.0</ele><time>2026-03-29T09:10:38.999Z</time></trkpt><trkpt lat="44.02236193985972" lon="7.979555812885438"><ele>642.0</ele><time>2026-03-29T09:10:39.999Z</time></trkpt><trkpt lat="44.02245075461374" lon="7.97961310516839"><ele>642.0</ele><time>2026-03-29T09:10:40.999Z</time></trkpt><trkpt lat="44.02253419966049" lon="7.979687294099019"><ele>642.0</ele><time>2026-03-29T09:10:41.999Z</time></trkpt><trkpt lat="44.02261362216186" lon="7.979774089933367"><ele>642.0</ele><time>2026-03-29T09:10:42.999Z</time></trkpt><trkpt lat="44.02268143579932" lon="7.979823464890986"><ele>642.0</ele><time>2026-03-29T09:10:43.999Z</time></trkpt><trkpt lat="44.02277953008703" lon="7.979831970767619"><ele>640.75</ele><time>2026-03-29T09:10:44.999Z</time></trkpt><trkpt lat="44.02289875377586" lon="7.97984681635675"><ele>639.5</ele><time>2026-03-29T09:10:45.999Z</time></trkpt><trkpt lat="44.022987124275346" lon="7.9799110482167785"><ele>638.25</ele><time>2026-03-29T09:10:46.999Z</time></trkpt><trkpt lat="44.0230652289968" lon="7.9800273683813785"><ele>637.0</ele><time>2026-03-29T09:10:47.999Z</time></trkpt><trkpt lat="44.02314564505464" lon="7.980162267383199"><ele>637.0</ele><time>2026-03-29T09:10:48.999Z</time></trkpt><trkpt lat="44.023258066948245" lon="7.980308513239671"><ele>637.0</ele><time>2026-03-29T09:10:49.999Z</time></trkpt><trkpt lat="44.02338768655009" lon="7.980424119351872"><ele>637.0</ele><time>2026-03-29T09:10:50.999Z</time></trkpt><trkpt lat="44.02351233228432" lon="7.980533395959066"><ele>642.0</ele><time>2026-03-29T09:10:51.999Z</time></trkpt><trkpt lat="44.02366048194421" lon="7.980607773794541"><ele>647.0</ele><time>2026-03-29T09:10:52.999Z</time></trkpt><trkpt lat="44.02376071883855" lon="7.980655147296383"><ele>652.0</ele><time>2026-03-29T09:10:53.999Z</time></trkpt><trkpt lat="44.02385871571968" lon="7.980673952738886"><ele>657.0</ele><time>2026-03-29T09:10:54.999Z</time></trkpt><trkpt lat="44.02393580408699" lon="7.9807129221374815"><ele>662.0</ele><time>2026-03-29T09:10:55.999Z</time></trkpt><trkpt lat="44.02402124256433" lon="7.980806075527849"><ele>660.25</ele><time>2026-03-29T09:10:56.999Z</time></trkpt><trkpt lat="44.024133212932604" lon="7.9809605778513495"><ele>658.5</ele><time>2026-03-29T09:10:57.999Z</time></trkpt><trkpt lat="44.02422775333877" lon="7.98105320168885"><ele>656.75</ele><time>2026-03-29T09:10:58.999Z</time></trkpt><trkpt lat="44.02427986067453" lon="7.9812025035888885"><ele>655.0</ele><time>2026-03-29T09:10:59.999Z</time></trkpt><trkpt lat="44.02434508695947" lon="7.981400334159759"><ele>655.0</ele><time>2026-03-29T09:11:00.999Z</time></trkpt><trkpt lat="44.02442130551768" lon="7.981655128610439"><ele>655.0</ele><time>2026-03-29T09:11:01.999Z</time></trkpt><trkpt lat="44.024468125119775" lon="7.981821259229952"><ele>655.0</ele><time>2026-03-29T09:11:02.999Z</time></trkpt><trkpt lat="44.02454632197596" lon="7.981960129070368"><ele>649.0</ele><time>2026-03-29T09:11:03.999Z</time></trkpt><trkpt lat="44.02468361486076" lon="7.982125544352475"><ele>643.0</ele><time>2026-03-29T09:11:04.999Z</time></trkpt><trkpt lat="44.02481811235045" lon="7.982317032598389"><ele>637.0</ele><time>2026-03-29T09:11:05.999Z</time></trkpt><trkpt lat="44.024914644469405" lon="7.982488168371346"><ele>641.5</ele><time>2026-03-29T09:11:06.999Z</time></trkpt><trkpt lat="44.02499905958368" lon="7.982634086188512"><ele>646.0</ele><time>2026-03-29T09:11:07.999Z</time></trkpt><trkpt lat="44.025109106990115" lon="7.982706750710031"><ele>650.5</ele><time>2026-03-29T09:11:08.999Z</time></trkpt><trkpt lat="44.02524178304045" lon="7.982770452370879"><ele>655.0</ele><time>2026-03-29T09:11:09.999Z</time></trkpt><trkpt lat="44.02535834207956" lon="7.982861771889341"><ele>655.0</ele><time>2026-03-29T09:11:10.999Z</time></trkpt><trkpt lat="44.025466065886384" lon="7.982978441153458"><ele>655.0</ele><time>2026-03-29T09:11:11.999Z</time></trkpt><trkpt lat="44.02554987432407" lon="7.98302157243114"><ele>655.0</ele><time>2026-03-29T09:11:12.999Z</time></trkpt><trkpt lat="44.02559425673609" lon="7.98309255941706"><ele>655.0</ele><time>2026-03-29T09:11:13.999Z</time></trkpt><trkpt lat="44.02562808711398" lon="7.983230222497539"><ele>655.0</ele><time>2026-03-29T09:11:14.999Z</time></trkpt><trkpt lat="44.025676360897705" lon="7.983455146734466"><ele>658.0</ele><time>2026-03-29T09:11:15.999Z</time></trkpt><trkpt lat="44.025732903367306" lon="7.983638620625654"><ele>661.0</ele><time>2026-03-29T09:11:16.999Z</time></trkpt><trkpt lat="44.02579088971543" lon="7.9838045258802595"><ele>664.0</ele><time>2026-03-29T09:11:17.999Z</time></trkpt><trkpt lat="44.025850939837824" lon="7.983986888692106"><ele>667.0</ele><time>2026-03-29T09:11:18.999Z</time></trkpt><trkpt lat="44.02591963304082" lon="7.98416840246579"><ele>665.6</ele><time>2026-03-29T09:11:19.999Z</time></trkpt><trkpt lat="44.025978753727806" lon="7.984327362679546"><ele>664.2</ele><time>2026-03-29T09:11:20.999Z</time></trkpt><trkpt lat="44.026065276884516" lon="7.98444786533015"><ele>662.8</ele><time>2026-03-29T09:11:21.999Z</time></trkpt><trkpt lat="44.02615553137374" lon="7.9845304676893"><ele>661.4</ele><time>2026-03-29T09:11:22.999Z</time></trkpt><trkpt lat="44.02621332649908" lon="7.984583867646639"><ele>660.0</ele><time>2026-03-29T09:11:23.999Z</time></trkpt><trkpt lat="44.02629043536363" lon="7.984696846413284"><ele>660.0</ele><time>2026-03-29T09:11:24.999Z</time></trkpt><trkpt lat="44.026411388971624" lon="7.984817813244336"><ele>660.0</ele><time>2026-03-29T09:11:25.999Z</time></trkpt><trkpt lat="44.02657864269446" lon="7.984943965617128"><ele>660.0</ele><time>2026-03-29T09:11:26.999Z</time></trkpt><trkpt lat="44.026744731923316" lon="7.985047949500229"><ele>659.75</ele><time>2026-03-29T09:11:27.999Z</time></trkpt><trkpt lat="44.02679199197939" lon="7.985278660418494"><ele>659.5</ele><time>2026-03-29T09:11:28.999Z</time></trkpt><trkpt lat="44.02691078908719" lon="7.985347189829058"><ele>659.25</ele><time>2026-03-29T09:11:29.999Z</time></trkpt><trkpt lat="44.0270268103017" lon="7.985367401958119"><ele>659.0</ele><time>2026-03-29T09:11:30.999Z</time></trkpt><trkpt lat="44.02712208650047" lon="7.985405971533268"><ele>659.0</ele><time>2026-03-29T09:11:31.999Z</time></trkpt><trkpt lat="44.02724273165709" lon="7.985493587639421"><ele>659.0</ele><time>2026-03-29T09:11:32.999Z</time></trkpt><trkpt lat="44.02736421000965" lon="7.985589170411125"><ele>659.0</ele><time>2026-03-29T09:11:33.999Z</time></trkpt><trkpt lat="44.027501869678" lon="7.985693591496697"><ele>659.0</ele><time>2026-03-29T09:11:34.999Z</time></trkpt><trkpt lat="44.02762319323618" lon="7.985767407370862"><ele>660.1666666666666</ele><time>2026-03-29T09:11:35.999Z</time></trkpt><trkpt lat="44.0277050534481" lon="7.9858106977808605"><ele>661.3333333333333</ele><time>2026-03-29T09:11:36.999Z</time></trkpt><trkpt lat="44.02776746385506" lon="7.985886013953688"><ele>662.5</ele><time>2026-03-29T09:11:37.999Z</time></trkpt><trkpt lat="44.02781273701145" lon="7.985949837427405"><ele>663.6666666666666</ele><time>2026-03-29T09:11:39.999Z</time></trkpt><trkpt lat="44.027814088216296" lon="7.985811880469772"><ele>664.8333333333334</ele><time>2026-03-29T09:11:41.999Z</time></trkpt><trkpt lat="44.02780568159514" lon="7.985724185096813"><ele>666.0</ele><time>2026-03-29T09:11:42.999Z</time></trkpt><trkpt lat="44.02777949054755" lon="7.985604799930195"><ele>666.0</ele><time>2026-03-29T09:11:43.999Z</time></trkpt><trkpt lat="44.027734264839104" lon="7.9855131636445655"><ele>666.0</ele><time>2026-03-29T09:11:44.999Z</time></trkpt><trkpt lat="44.02766242405372" lon="7.9854470461182485"><ele>666.0</ele><time>2026-03-29T09:11:45.999Z</time></trkpt><trkpt lat="44.0275800895348" lon="7.985395822482769"><ele>666.0</ele><time>2026-03-29T09:11:46.999Z</time></trkpt><trkpt lat="44.02749323213566" lon="7.985324223582486"><ele>666.0</ele><time>2026-03-29T09:11:47.999Z</time></trkpt><trkpt lat="44.02742674049101" lon="7.98520806887138"><ele>665.5999999999999</ele><time>2026-03-29T09:11:48.999Z</time></trkpt><trkpt lat="44.02736317728674" lon="7.98508754001169"><ele>665.2</ele><time>2026-03-29T09:11:49.999Z</time></trkpt><trkpt lat="44.02726124061259" lon="7.984951701099338"><ele>664.8</ele><time>2026-03-29T09:11:50.999Z</time></trkpt><trkpt lat="44.027185924426064" lon="7.984827774173156"><ele>664.4000000000001</ele><time>2026-03-29T09:11:51.999Z</time></trkpt><trkpt lat="44.02714343199787" lon="7.984758577162793"><ele>664.0</ele><time>2026-03-29T09:11:52.999Z</time></trkpt><trkpt lat="44.027089134539274" lon="7.9846995309562105"><ele>664.0</ele><time>2026-03-29T09:11:53.999Z</time></trkpt><trkpt lat="44.02701174834955" lon="7.9845992150407685"><ele>664.0</ele><time>2026-03-29T09:11:54.999Z</time></trkpt><trkpt lat="44.02691315104162" lon="7.98448485411679"><ele>664.0</ele><time>2026-03-29T09:11:55.999Z</time></trkpt><trkpt lat="44.02682549924291" lon="7.984359015837312"><ele>664.0</ele><time>2026-03-29T09:11:56.999Z</time></trkpt><trkpt lat="44.026733256968456" lon="7.984253820143034"><ele>664.6</ele><time>2026-03-29T09:11:57.999Z</time></trkpt><trkpt lat="44.02668540863373" lon="7.984154375257762"><ele>665.2</ele><time>2026-03-29T09:11:58.999Z</time></trkpt><trkpt lat="44.02668199260389" lon="7.984042524113283"><ele>665.8000000000001</ele><time>2026-03-29T09:11:59.999Z</time></trkpt><trkpt lat="44.02667257586926" lon="7.983902571796516"><ele>666.4000000000001</ele><time>2026-03-29T09:12:00.999Z</time></trkpt><trkpt lat="44.026645838771884" lon="7.983780747755109"><ele>667.0</ele><time>2026-03-29T09:12:01.999Z</time></trkpt><trkpt lat="44.0266208192075" lon="7.9835984296609075"><ele>667.0</ele><time>2026-03-29T09:12:02.999Z</time></trkpt><trkpt lat="44.026575325794795" lon="7.983472862724949"><ele>667.0</ele><time>2026-03-29T09:12:03.999Z</time></trkpt><trkpt lat="44.026523341772624" lon="7.983350721748537"><ele>667.0</ele><time>2026-03-29T09:12:04.999Z</time></trkpt><trkpt lat="44.026463820074284" lon="7.9832370460637545"><ele>667.0</ele><time>2026-03-29T09:12:05.999Z</time></trkpt><trkpt lat="44.02639085809988" lon="7.983173837524998"><ele>667.0</ele><time>2026-03-29T09:12:06.999Z</time></trkpt><trkpt lat="44.0263338751079" lon="7.983050277284719"><ele>666.25</ele><time>2026-03-29T09:12:07.999Z</time></trkpt><trkpt lat="44.02637181008511" lon="7.982874513818875"><ele>665.5</ele><time>2026-03-29T09:12:09.999Z</time></trkpt><trkpt lat="44.02643509415126" lon="7.982747687380172"><ele>664.75</ele><time>2026-03-29T09:12:10.999Z</time></trkpt><trkpt lat="44.02649415585694" lon="7.982611274913945"><ele>664.0</ele><time>2026-03-29T09:12:11.999Z</time></trkpt><trkpt lat="44.02654742123836" lon="7.982474649596996"><ele>661.0</ele><time>2026-03-29T09:12:12.999Z</time></trkpt><trkpt lat="44.026602949666405" lon="7.982334748302867"><ele>658.0</ele><time>2026-03-29T09:12:13.999Z</time></trkpt><trkpt lat="44.026656751707186" lon="7.9821901301147715"><ele>655.0</ele><time>2026-03-29T09:12:14.999Z</time></trkpt><trkpt lat="44.026673198764534" lon="7.982060187278796"><ele>652.0</ele><time>2026-03-29T09:12:15.999Z</time></trkpt><trkpt lat="44.026675056413744" lon="7.981965675399693"><ele>649.0</ele><time>2026-03-29T09:12:16.999Z</time></trkpt><trkpt lat="44.02666454361958" lon="7.981868713507827"><ele>641.2</ele><time>2026-03-29T09:12:17.999Z</time></trkpt><trkpt lat="44.02665001977096" lon="7.981746708813462"><ele>633.4000000000001</ele><time>2026-03-29T09:12:18.999Z</time></trkpt><trkpt lat="44.02665112550657" lon="7.981623333662743"><ele>625.6</ele><time>2026-03-29T09:12:19.999Z</time></trkpt><trkpt lat="44.02667202151851" lon="7.981433176659387"><ele>617.8</ele><time>2026-03-29T09:12:20.999Z</time></trkpt><trkpt lat="44.02671532295339" lon="7.981333459523718"><ele>610.0</ele><time>2026-03-29T09:12:21.999Z</time></trkpt><trkpt lat="44.02664993327928" lon="7.9813027116741475"><ele>613.4</ele><time>2026-03-29T09:12:24.999Z</time></trkpt><trkpt lat="44.02659657279946" lon="7.981244827105156"><ele>616.8</ele><time>2026-03-29T09:12:25.999Z</time></trkpt><trkpt lat="44.02648992998605" lon="7.981205935203193"><ele>620.2</ele><time>2026-03-29T09:12:26.999Z</time></trkpt><trkpt lat="44.02638672762458" lon="7.981144780387508"><ele>623.6</ele><time>2026-03-29T09:12:27.999Z</time></trkpt><trkpt lat="44.026273338743444" lon="7.981067637645565"><ele>627.0</ele><time>2026-03-29T09:12:29.999Z</time></trkpt><trkpt lat="44.026182582830394" lon="7.981039800104008"><ele>627.0</ele><time>2026-03-29T09:12:30.999Z</time></trkpt><trkpt lat="44.02608871661416" lon="7.9809931291677625"><ele>627.0</ele><time>2026-03-29T09:12:31.999Z</time></trkpt><trkpt lat="44.02599421964525" lon="7.98098717085264"><ele>627.0</ele><time>2026-03-29T09:12:33.999Z</time></trkpt><trkpt lat="44.02591196187373" lon="7.981053112400925"><ele>627.0</ele><time>2026-03-29T09:12:35.999Z</time></trkpt><trkpt lat="44.025835734560445" lon="7.981051234009272"><ele>627.0</ele><time>2026-03-29T09:12:36.999Z</time></trkpt><trkpt lat="44.02571382733157" lon="7.981016347159291"><ele>630.6</ele><time>2026-03-29T09:12:38.999Z</time></trkpt><trkpt lat="44.025642747563175" lon="7.981034809370024"><ele>634.2</ele><time>2026-03-29T09:12:39.999Z</time></trkpt><trkpt lat="44.025574574833044" lon="7.981053687010686"><ele>637.8</ele><time>2026-03-29T09:12:40.999Z</time></trkpt><trkpt lat="44.0254407864677" lon="7.981060309698183"><ele>641.4</ele><time>2026-03-29T09:12:42.999Z</time></trkpt><trkpt lat="44.02535087307721" lon="7.981037620884807"><ele>645.0</ele><time>2026-03-29T09:12:43.999Z</time></trkpt><trkpt lat="44.02524233744001" lon="7.980991885678577"><ele>645.0</ele><time>2026-03-29T09:12:44.999Z</time></trkpt><trkpt lat="44.02517802782811" lon="7.980921199905977"><ele>645.0</ele><time>2026-03-29T09:12:45.999Z</time></trkpt><trkpt lat="44.02512391208078" lon="7.980865669990277"><ele>645.0</ele><time>2026-03-29T09:12:46.999Z</time></trkpt><trkpt lat="44.025084293111554" lon="7.980787936214383"><ele>645.0</ele><time>2026-03-29T09:12:47.999Z</time></trkpt><trkpt lat="44.025026454087325" lon="7.980714079723216"><ele>645.0</ele><time>2026-03-29T09:12:48.999Z</time></trkpt><trkpt lat="44.02497481304524" lon="7.9806625188715"><ele>645.0</ele><time>2026-03-29T09:12:49.999Z</time></trkpt><trkpt lat="44.02491060889556" lon="7.9805998217326435"><ele>645.0</ele><time>2026-03-29T09:12:50.999Z</time></trkpt><trkpt lat="44.02483752932083" lon="7.980591159913204"><ele>647.1666666666666</ele><time>2026-03-29T09:12:51.999Z</time></trkpt><trkpt lat="44.02476989942197" lon="7.980558761511131"><ele>649.3333333333334</ele><time>2026-03-29T09:12:52.999Z</time></trkpt><trkpt lat="44.024719947587826" lon="7.980496753525899"><ele>651.5</ele><time>2026-03-29T09:12:53.999Z</time></trkpt><trkpt lat="44.02466987491514" lon="7.980420597356917"><ele>653.6666666666667</ele><time>2026-03-29T09:12:54.999Z</time></trkpt><trkpt lat="44.02463575214137" lon="7.98031995890963"><ele>655.8333333333334</ele><time>2026-03-29T09:12:55.999Z</time></trkpt><trkpt lat="44.02459993307702" lon="7.980203432870017"><ele>658.0</ele><time>2026-03-29T09:12:56.999Z</time></trkpt><trkpt lat="44.024568733571954" lon="7.9800534533738015"><ele>652.0</ele><time>2026-03-29T09:12:57.999Z</time></trkpt><trkpt lat="44.02448036683679" lon="7.979938541866953"><ele>646.0</ele><time>2026-03-29T09:12:58.999Z</time></trkpt><trkpt lat="44.024388081508654" lon="7.979824290440805"><ele>640.0</ele><time>2026-03-29T09:12:59.999Z</time></trkpt><trkpt lat="44.024303910934115" lon="7.979719312809756"><ele>634.0</ele><time>2026-03-29T09:13:00.999Z</time></trkpt><trkpt lat="44.024213893380065" lon="7.979650619930253"><ele>639.8</ele><time>2026-03-29T09:13:01.999Z</time></trkpt><trkpt lat="44.024114044007845" lon="7.979576394593329"><ele>645.5999999999999</ele><time>2026-03-29T09:13:02.999Z</time></trkpt><trkpt lat="44.024019156666576" lon="7.979538981526075"><ele>651.4</ele><time>2026-03-29T09:13:04Z</time></trkpt><trkpt lat="44.02394625471054" lon="7.979530924481173"><ele>657.1999999999999</ele><time>2026-03-29T09:13:05Z</time></trkpt><trkpt lat="44.023874416024505" lon="7.979438779347491"><ele>663.0</ele><time>2026-03-29T09:13:06Z</time></trkpt><trkpt lat="44.02380817144103" lon="7.979333472061863"><ele>663.0</ele><time>2026-03-29T09:13:07Z</time></trkpt><trkpt lat="44.02373641503347" lon="7.979224629762804"><ele>663.0</ele><time>2026-03-29T09:13:08Z</time></trkpt><trkpt lat="44.023662080378635" lon="7.979119124841801"><ele>663.0</ele><time>2026-03-29T09:13:09Z</time></trkpt><trkpt lat="44.0236276055645" lon="7.978998225692607"><ele>663.0</ele><time>2026-03-29T09:13:10Z</time></trkpt><trkpt lat="44.023569936565735" lon="7.978860550119438"><ele>663.0</ele><time>2026-03-29T09:13:11Z</time></trkpt><trkpt lat="44.02350827903017" lon="7.978731512563392"><ele>662.4</ele><time>2026-03-29T09:13:12Z</time></trkpt><trkpt lat="44.02344625304427" lon="7.978614658804948"><ele>661.8</ele><time>2026-03-29T09:13:13Z</time></trkpt><trkpt lat="44.02340723193376" lon="7.97851944022749"><ele>661.2</ele><time>2026-03-29T09:13:14Z</time></trkpt><trkpt lat="44.023382112682036" lon="7.978377788483129"><ele>660.6</ele><time>2026-03-29T09:13:16Z</time></trkpt><trkpt lat="44.0233006268354" lon="7.978279405963178"><ele>660.0</ele><time>2026-03-29T09:13:18Z</time></trkpt><trkpt lat="44.02324037227921" lon="7.978159145953777"><ele>660.0</ele><time>2026-03-29T09:13:22Z</time></trkpt><trkpt lat="44.02314654212547" lon="7.978082705282449"><ele>660.0</ele><time>2026-03-29T09:13:24Z</time></trkpt><trkpt lat="44.023095459369316" lon="7.9779899253434765"><ele>660.0</ele><time>2026-03-29T09:13:27Z</time></trkpt><trkpt lat="44.023081455110706" lon="7.9778941413707605"><ele>660.0</ele><time>2026-03-29T09:13:29Z</time></trkpt><trkpt lat="44.02303437977114" lon="7.9778321111609785"><ele>660.0</ele><time>2026-03-29T09:13:31Z</time></trkpt><trkpt lat="44.02295188508248" lon="7.977755376820203"><ele>660.0</ele><time>2026-03-29T09:13:32Z</time></trkpt><trkpt lat="44.022952464676486" lon="7.977657940389144"><ele>660.0</ele><time>2026-03-29T09:13:35Z</time></trkpt><trkpt lat="44.0229565034701" lon="7.977536599423456"><ele>660.0</ele><time>2026-03-29T09:13:37Z</time></trkpt><trkpt lat="44.02245242134992" lon="7.976763912018937"><ele>660.6</ele><time>2026-03-29T09:13:38Z</time></trkpt><trkpt lat="44.02236972214172" lon="7.976643462574695"><ele>661.2</ele><time>2026-03-29T09:13:40Z</time></trkpt><trkpt lat="44.022311163269364" lon="7.97660534739294"><ele>661.8</ele><time>2026-03-29T09:13:41Z</time></trkpt><trkpt lat="44.02222672869353" lon="7.976501103350331"><ele>662.4</ele><time>2026-03-29T09:13:43Z</time></trkpt><trkpt lat="44.02217245501077" lon="7.976436652614916"><ele>663.0</ele><time>2026-03-29T09:13:44Z</time></trkpt><trkpt lat="44.02212810149139" lon="7.976329869779527"><ele>663.0</ele><time>2026-03-29T09:13:45Z</time></trkpt><trkpt lat="44.02208678198189" lon="7.97622806671734"><ele>663.0</ele><time>2026-03-29T09:13:46Z</time></trkpt><trkpt lat="44.02205772118599" lon="7.976144039843493"><ele>663.0</ele><time>2026-03-29T09:13:48Z</time></trkpt><trkpt lat="44.022131565121704" lon="7.976056726193804"><ele>663.0</ele><time>2026-03-29T09:13:52Z</time></trkpt><trkpt lat="44.02222078269858" lon="7.975992403969254"><ele>663.0</ele><time>2026-03-29T09:13:53Z</time></trkpt><trkpt lat="44.02233882655462" lon="7.975940883614285"><ele>663.0</ele><time>2026-03-29T09:13:54Z</time></trkpt><trkpt lat="44.02245107827364" lon="7.975886399698562"><ele>663.0</ele><time>2026-03-29T09:13:55Z</time></trkpt><trkpt lat="44.02256334122831" lon="7.975804268994458"><ele>663.0</ele><time>2026-03-29T09:13:56Z</time></trkpt><trkpt lat="44.022672514476156" lon="7.975701363812744"><ele>663.0</ele><time>2026-03-29T09:13:57Z</time></trkpt><trkpt lat="44.02275473692493" lon="7.9756155926882535"><ele>657.0</ele><time>2026-03-29T09:13:58Z</time></trkpt><trkpt lat="44.022838940428" lon="7.975538073183651"><ele>651.0</ele><time>2026-03-29T09:13:59Z</time></trkpt><trkpt lat="44.0229308667163" lon="7.975477538246622"><ele>645.0</ele><time>2026-03-29T09:14:00Z</time></trkpt><trkpt lat="44.02303724420096" lon="7.97542363214858"><ele>639.0</ele><time>2026-03-29T09:14:01Z</time></trkpt><trkpt lat="44.023151180157186" lon="7.97535449445182"><ele>633.0</ele><time>2026-03-29T09:14:02Z</time></trkpt><trkpt lat="44.02325649204249" lon="7.9752657883379685"><ele>635.3333333333334</ele><time>2026-03-29T09:14:03Z</time></trkpt><trkpt lat="44.02336005430359" lon="7.975221869738744"><ele>637.6666666666666</ele><time>2026-03-29T09:14:04Z</time></trkpt><trkpt lat="44.023429192647924" lon="7.975192757943862"><ele>640.0</ele><time>2026-03-29T09:14:05Z</time></trkpt><trkpt lat="44.023500239152014" lon="7.97515914412539"><ele>642.3333333333333</ele><time>2026-03-29T09:14:06Z</time></trkpt><trkpt lat="44.02358760644697" lon="7.975105735930296"><ele>644.6666666666666</ele><time>2026-03-29T09:14:07Z</time></trkpt><trkpt lat="44.023662870273" lon="7.97502373511128"><ele>647.0</ele><time>2026-03-29T09:14:09Z</time></trkpt><trkpt lat="44.023708671156626" lon="7.974953809323991"><ele>647.0</ele><time>2026-03-29T09:14:10Z</time></trkpt><trkpt lat="44.02375016743563" lon="7.9748852429331585"><ele>647.0</ele><time>2026-03-29T09:14:11Z</time></trkpt><trkpt lat="44.02380479997697" lon="7.974813556789923"><ele>647.0</ele><time>2026-03-29T09:14:12Z</time></trkpt><trkpt lat="44.02382091479076" lon="7.9746763643200085"><ele>647.0</ele><time>2026-03-29T09:14:14Z</time></trkpt><trkpt lat="44.023750530248705" lon="7.974644159130355"><ele>647.0</ele><time>2026-03-29T09:14:15Z</time></trkpt><trkpt lat="44.0237040910525" lon="7.974572487948228"><ele>647.0</ele><time>2026-03-29T09:14:16Z</time></trkpt><trkpt lat="44.02365752368735" lon="7.974462401126247"><ele>647.0</ele><time>2026-03-29T09:14:17Z</time></trkpt><trkpt lat="44.02358831175709" lon="7.97436040271095"><ele>647.0</ele><time>2026-03-29T09:14:18Z</time></trkpt><trkpt lat="44.02349575585328" lon="7.974299751177619"><ele>647.0</ele><time>2026-03-29T09:14:19Z</time></trkpt><trkpt lat="44.02342734492967" lon="7.974208794699205"><ele>647.0</ele><time>2026-03-29T09:14:20Z</time></trkpt><trkpt lat="44.02342425710625" lon="7.974049116511459"><ele>647.0</ele><time>2026-03-29T09:14:21Z</time></trkpt><trkpt lat="44.02338462726106" lon="7.973947363136456"><ele>654.4000000000001</ele><time>2026-03-29T09:14:22Z</time></trkpt><trkpt lat="44.02328019382236" lon="7.973841784523679"><ele>661.8000000000001</ele><time>2026-03-29T09:14:24Z</time></trkpt><trkpt lat="44.023214426430485" lon="7.97376272702719"><ele>669.2</ele><time>2026-03-29T09:14:25Z</time></trkpt><trkpt lat="44.02314429531663" lon="7.9736736008183335"><ele>676.6</ele><time>2026-03-29T09:14:26Z</time></trkpt><trkpt lat="44.02304700717329" lon="7.973646894345614"><ele>684.0</ele><time>2026-03-29T09:14:27Z</time></trkpt><trkpt lat="44.02296011472706" lon="7.973634124197218"><ele>684.0</ele><time>2026-03-29T09:14:28Z</time></trkpt><trkpt lat="44.02289625019083" lon="7.973608485502547"><ele>684.0</ele><time>2026-03-29T09:14:29Z</time></trkpt><trkpt lat="44.02280467415283" lon="7.973612423013853"><ele>684.0</ele><time>2026-03-29T09:14:30Z</time></trkpt><trkpt lat="44.02272023606955" lon="7.973517290235691"><ele>684.0</ele><time>2026-03-29T09:14:31Z</time></trkpt><trkpt lat="44.022693284897656" lon="7.973430868811404"><ele>684.0</ele><time>2026-03-29T09:14:32Z</time></trkpt><trkpt lat="44.022630964799035" lon="7.973351569627794"><ele>684.0</ele><time>2026-03-29T09:14:33Z</time></trkpt><trkpt lat="44.022573661708606" lon="7.9732734435013874"><ele>687.8000000000001</ele><time>2026-03-29T09:14:34Z</time></trkpt><trkpt lat="44.022514730870924" lon="7.9731337528786215"><ele>691.6</ele><time>2026-03-29T09:14:36Z</time></trkpt><trkpt lat="44.02252344773058" lon="7.973042761967988"><ele>695.4</ele><time>2026-03-29T09:14:37Z</time></trkpt><trkpt lat="44.022470919299415" lon="7.972917620718748"><ele>699.2</ele><time>2026-03-29T09:14:39Z</time></trkpt><trkpt lat="44.0224457719745" lon="7.97278862348144"><ele>703.0</ele><time>2026-03-29T09:14:40Z</time></trkpt><trkpt lat="44.02241464230837" lon="7.972703218191369"><ele>703.0</ele><time>2026-03-29T09:14:41Z</time></trkpt><trkpt lat="44.02240688390407" lon="7.9725645438821395"><ele>703.0</ele><time>2026-03-29T09:14:42Z</time></trkpt><trkpt lat="44.02239097448859" lon="7.9723949614939436"><ele>703.0</ele><time>2026-03-29T09:14:43Z</time></trkpt><trkpt lat="44.02238993169773" lon="7.972239369452645"><ele>703.0</ele><time>2026-03-29T09:14:44Z</time></trkpt><trkpt lat="44.02238718936267" lon="7.97212598404405"><ele>703.0</ele><time>2026-03-29T09:14:45Z</time></trkpt><trkpt lat="44.022347089387345" lon="7.972038074473548"><ele>698.6666666666667</ele><time>2026-03-29T09:14:46Z</time></trkpt><trkpt lat="44.022279336453586" lon="7.971985920233275"><ele>694.3333333333334</ele><time>2026-03-29T09:14:47Z</time></trkpt><trkpt lat="44.022204003833345" lon="7.971996193651944"><ele>690.0</ele><time>2026-03-29T09:14:49Z</time></trkpt><trkpt lat="44.022120016986776" lon="7.971998144227115"><ele>685.6666666666666</ele><time>2026-03-29T09:14:50Z</time></trkpt><trkpt lat="44.022021935575054" lon="7.971968628716397"><ele>681.3333333333333</ele><time>2026-03-29T09:14:51Z</time></trkpt><trkpt lat="44.02193285706974" lon="7.971930731656546"><ele>677.0</ele><time>2026-03-29T09:14:52Z</time></trkpt><trkpt lat="44.02184437532519" lon="7.971886330981776"><ele>677.0</ele><time>2026-03-29T09:14:53Z</time></trkpt><trkpt lat="44.02181957235861" lon="7.9718045161399775"><ele>677.0</ele><time>2026-03-29T09:14:54Z</time></trkpt><trkpt lat="44.02181938963507" lon="7.971714805169675"><ele>677.0</ele><time>2026-03-29T09:14:55Z</time></trkpt><trkpt lat="44.02183726624548" lon="7.9715717980368686"><ele>677.0</ele><time>2026-03-29T09:14:56Z</time></trkpt><trkpt lat="44.021839621642606" lon="7.971440981977473"><ele>677.0</ele><time>2026-03-29T09:14:57Z</time></trkpt><trkpt lat="44.02175789907014" lon="7.9713941384045235"><ele>677.0</ele><time>2026-03-29T09:14:59Z</time></trkpt><trkpt lat="44.021690963819466" lon="7.97136248425162"><ele>679.0</ele><time>2026-03-29T09:15:00Z</time></trkpt><trkpt lat="44.0216282658775" lon="7.971309935481651"><ele>681.0</ele><time>2026-03-29T09:15:01Z</time></trkpt><trkpt lat="44.02157678842304" lon="7.971252382977601"><ele>683.0</ele><time>2026-03-29T09:15:02Z</time></trkpt><trkpt lat="44.021544932750764" lon="7.971055778687478"><ele>685.0</ele><time>2026-03-29T09:15:04Z</time></trkpt><trkpt lat="44.021553577955274" lon="7.970940317398486"><ele>687.0</ele><time>2026-03-29T09:15:05Z</time></trkpt><trkpt lat="44.02149759617573" lon="7.970789748884921"><ele>687.0</ele><time>2026-03-29T09:15:06Z</time></trkpt><trkpt lat="44.02144991831012" lon="7.970700317406125"><ele>687.0</ele><time>2026-03-29T09:15:07Z</time></trkpt><trkpt lat="44.02142720671495" lon="7.970601931949803"><ele>687.0</ele><time>2026-03-29T09:15:08Z</time></trkpt><trkpt lat="44.02146925754199" lon="7.97048735452947"><ele>687.0</ele><time>2026-03-29T09:15:10Z</time></trkpt><trkpt lat="44.02153945577433" lon="7.970424314384207"><ele>687.0</ele><time>2026-03-29T09:15:11Z</time></trkpt><trkpt lat="44.02167442617802" lon="7.970301777806237"><ele>680.3333333333334</ele><time>2026-03-29T09:15:12Z</time></trkpt><trkpt lat="44.02172261354345" lon="7.970224456674792"><ele>673.6666666666666</ele><time>2026-03-29T09:15:13Z</time></trkpt><trkpt lat="44.021688280806465" lon="7.970115996006376"><ele>667.0</ele><time>2026-03-29T09:15:15Z</time></trkpt><trkpt lat="44.021652675514886" lon="7.970004245548812"><ele>660.3333333333333</ele><time>2026-03-29T09:15:16Z</time></trkpt><trkpt lat="44.02165279009318" lon="7.969882654904178"><ele>653.6666666666666</ele><time>2026-03-29T09:15:17Z</time></trkpt><trkpt lat="44.02164958537603" lon="7.969769608490021"><ele>647.0</ele><time>2026-03-29T09:15:18Z</time></trkpt><trkpt lat="44.02170450963493" lon="7.969726504284945"><ele>647.0</ele><time>2026-03-29T09:15:19Z</time></trkpt><trkpt lat="44.02176695839084" lon="7.969696302763642"><ele>647.0</ele><time>2026-03-29T09:15:20Z</time></trkpt><trkpt lat="44.02186127310611" lon="7.969656558746463"><ele>647.0</ele><time>2026-03-29T09:15:21Z</time></trkpt><trkpt lat="44.02198383366929" lon="7.969596224460062"><ele>647.0</ele><time>2026-03-29T09:15:22Z</time></trkpt><trkpt lat="44.02206094093598" lon="7.969522142162181"><ele>647.0</ele><time>2026-03-29T09:15:23Z</time></trkpt><trkpt lat="44.022128575721425" lon="7.969437796287872"><ele>647.0</ele><time>2026-03-29T09:15:24Z</time></trkpt><trkpt lat="44.02224819562752" lon="7.969408796722446"><ele>647.0</ele><time>2026-03-29T09:15:25Z</time></trkpt><trkpt lat="44.02236001265469" lon="7.9693813447880055"><ele>647.0</ele><time>2026-03-29T09:15:26Z</time></trkpt><trkpt lat="44.022480193086814" lon="7.969297834658714"><ele>647.0</ele><time>2026-03-29T09:15:28Z</time></trkpt><trkpt lat="44.02255414282955" lon="7.969207043655412"><ele>644.5</ele><time>2026-03-29T09:15:29Z</time></trkpt><trkpt lat="44.02261373847013" lon="7.9691039418509355"><ele>642.0</ele><time>2026-03-29T09:15:30Z</time></trkpt><trkpt lat="44.022661863765514" lon="7.968948858570799"><ele>639.5</ele><time>2026-03-29T09:15:31Z</time></trkpt><trkpt lat="44.02268988400596" lon="7.968769687168725"><ele>637.0</ele><time>2026-03-29T09:15:32Z</time></trkpt><trkpt lat="44.022717945907786" lon="7.968571821923467"><ele>637.0</ele><time>2026-03-29T09:15:33Z</time></trkpt><trkpt lat="44.022766455402426" lon="7.968374563750293"><ele>637.0</ele><time>2026-03-29T09:15:34Z</time></trkpt><trkpt lat="44.02281171774526" lon="7.968209339238991"><ele>637.0</ele><time>2026-03-29T09:15:35Z</time></trkpt><trkpt lat="44.02288651940208" lon="7.968075293038334"><ele>637.0</ele><time>2026-03-29T09:15:36Z</time></trkpt><trkpt lat="44.02293221173905" lon="7.967981239573119"><ele>641.75</ele><time>2026-03-29T09:15:37Z</time></trkpt><trkpt lat="44.02304065158855" lon="7.967913940933778"><ele>646.5</ele><time>2026-03-29T09:15:38Z</time></trkpt><trkpt lat="44.023135989661625" lon="7.967814317028356"><ele>651.25</ele><time>2026-03-29T09:15:39Z</time></trkpt><trkpt lat="44.02319853062859" lon="7.9677131642926575"><ele>656.0</ele><time>2026-03-29T09:15:40Z</time></trkpt><trkpt lat="44.02323931108512" lon="7.967550041177307"><ele>651.25</ele><time>2026-03-29T09:15:41Z</time></trkpt><trkpt lat="44.023281952290844" lon="7.967360224608233"><ele>646.5</ele><time>2026-03-29T09:15:42Z</time></trkpt><trkpt lat="44.02335417465519" lon="7.967219778382439"><ele>641.75</ele><time>2026-03-29T09:15:43Z</time></trkpt><trkpt lat="44.02341981538182" lon="7.967078629382755"><ele>637.0</ele><time>2026-03-29T09:15:44Z</time></trkpt><trkpt lat="44.02350418082829" lon="7.966929731080864"><ele>637.0</ele><time>2026-03-29T09:15:45Z</time></trkpt><trkpt lat="44.02356429770474" lon="7.966804971467125"><ele>637.0</ele><time>2026-03-29T09:15:46Z</time></trkpt><trkpt lat="44.02359149582106" lon="7.966688436013451"><ele>637.0</ele><time>2026-03-29T09:15:47Z</time></trkpt><trkpt lat="44.02364448247788" lon="7.966512817969227"><ele>637.0</ele><time>2026-03-29T09:15:48Z</time></trkpt><trkpt lat="44.02368839491801" lon="7.966324985506549"><ele>641.0</ele><time>2026-03-29T09:15:49Z</time></trkpt><trkpt lat="44.023695724596976" lon="7.9661956571887815"><ele>645.0</ele><time>2026-03-29T09:15:50Z</time></trkpt><trkpt lat="44.02369766875747" lon="7.966085179077861"><ele>649.0</ele><time>2026-03-29T09:15:51Z</time></trkpt><trkpt lat="44.023696735779275" lon="7.96594350863667"><ele>653.0</ele><time>2026-03-29T09:15:52Z</time></trkpt><trkpt lat="44.0236927072261" lon="7.965798244422632"><ele>657.0</ele><time>2026-03-29T09:15:53Z</time></trkpt><trkpt lat="44.02370008742567" lon="7.965647177477362"><ele>657.0</ele><time>2026-03-29T09:15:54Z</time></trkpt><trkpt lat="44.023705948745366" lon="7.965501041235319"><ele>657.0</ele><time>2026-03-29T09:15:55Z</time></trkpt><trkpt lat="44.02370387328405" lon="7.965370440861836"><ele>657.0</ele><time>2026-03-29T09:15:56Z</time></trkpt><trkpt lat="44.02370608673238" lon="7.965225092175641"><ele>657.0</ele><time>2026-03-29T09:15:57Z</time></trkpt><trkpt lat="44.02373076369529" lon="7.965108555514296"><ele>657.0</ele><time>2026-03-29T09:15:58Z</time></trkpt><trkpt lat="44.023781002300815" lon="7.965016109154826"><ele>653.4</ele><time>2026-03-29T09:15:59Z</time></trkpt><trkpt lat="44.023820166419135" lon="7.964921971216092"><ele>649.8000000000001</ele><time>2026-03-29T09:16:00Z</time></trkpt><trkpt lat="44.02381124266046" lon="7.964806919349137"><ele>646.2</ele><time>2026-03-29T09:16:02Z</time></trkpt><trkpt lat="44.02371439391781" lon="7.964775504467044"><ele>642.6</ele><time>2026-03-29T09:16:04Z</time></trkpt><trkpt lat="44.02360544137946" lon="7.9649029425863445"><ele>639.0</ele><time>2026-03-29T09:16:06Z</time></trkpt><trkpt lat="44.023528969077056" lon="7.965018489925898"><ele>643.5</ele><time>2026-03-29T09:16:07Z</time></trkpt><trkpt lat="44.02346156394144" lon="7.965148135396527"><ele>648.0</ele><time>2026-03-29T09:16:08Z</time></trkpt><trkpt lat="44.02322923358139" lon="7.965061920101729"><ele>652.5</ele><time>2026-03-29T09:16:09Z</time></trkpt><trkpt lat="44.02316883836865" lon="7.965151540615167"><ele>657.0</ele><time>2026-03-29T09:16:10Z</time></trkpt><trkpt lat="44.02310807231995" lon="7.965221094157327"><ele>659.75</ele><time>2026-03-29T09:16:11Z</time></trkpt><trkpt lat="44.02305326408944" lon="7.965265355929158"><ele>662.5</ele><time>2026-03-29T09:16:12Z</time></trkpt><trkpt lat="44.022962959218695" lon="7.965316452952832"><ele>665.25</ele><time>2026-03-29T09:16:13Z</time></trkpt><trkpt lat="44.02288706505498" lon="7.965323859389698"><ele>668.0</ele><time>2026-03-29T09:16:14Z</time></trkpt><trkpt lat="44.02278080691267" lon="7.965756380327017"><ele>668.0</ele><time>2026-03-29T09:16:16Z</time></trkpt><trkpt lat="44.02268526939858" lon="7.965798086457049"><ele>668.0</ele><time>2026-03-29T09:16:17Z</time></trkpt><trkpt lat="44.02261434493582" lon="7.965800976296865"><ele>668.0</ele><time>2026-03-29T09:16:18Z</time></trkpt><trkpt lat="44.02252815561829" lon="7.965770094456819"><ele>668.0</ele><time>2026-03-29T09:16:19Z</time></trkpt><trkpt lat="44.022450724733496" lon="7.965764557703645"><ele>668.0</ele><time>2026-03-29T09:16:20Z</time></trkpt><trkpt lat="44.02235831789604" lon="7.96573033100882"><ele>668.0</ele><time>2026-03-29T09:16:21Z</time></trkpt><trkpt lat="44.02228033331906" lon="7.965838571240479"><ele>670.4</ele><time>2026-03-29T09:16:23Z</time></trkpt><trkpt lat="44.02218674291986" lon="7.965887696541957"><ele>672.8</ele><time>2026-03-29T09:16:24Z</time></trkpt><trkpt lat="44.022109521773594" lon="7.965980481286544"><ele>675.2</ele><time>2026-03-29T09:16:25Z</time></trkpt><trkpt lat="44.0220493815462" lon="7.96605454655785"><ele>677.6</ele><time>2026-03-29T09:16:26Z</time></trkpt><trkpt lat="44.02202173765926" lon="7.96618404941254"><ele>680.0</ele><time>2026-03-29T09:16:27Z</time></trkpt><trkpt lat="44.02198783146423" lon="7.966323247281142"><ele>680.0</ele><time>2026-03-29T09:16:28Z</time></trkpt><trkpt lat="44.021933443363515" lon="7.96643115176504"><ele>680.0</ele><time>2026-03-29T09:16:29Z</time></trkpt><trkpt lat="44.02183012803827" lon="7.966460471434376"><ele>680.0</ele><time>2026-03-29T09:16:30Z</time></trkpt><trkpt lat="44.02170518754647" lon="7.966457544820221"><ele>680.0</ele><time>2026-03-29T09:16:31Z</time></trkpt><trkpt lat="44.02157923053215" lon="7.966500801207298"><ele>677.6</ele><time>2026-03-29T09:16:32Z</time></trkpt><trkpt lat="44.02150967977219" lon="7.966549877080902"><ele>675.2</ele><time>2026-03-29T09:16:33Z</time></trkpt><trkpt lat="44.02141333805001" lon="7.966621990080022"><ele>672.8</ele><time>2026-03-29T09:16:34Z</time></trkpt><trkpt lat="44.02128932009779" lon="7.966699466774057"><ele>670.4</ele><time>2026-03-29T09:16:35Z</time></trkpt><trkpt lat="44.02120296711679" lon="7.966762144743993"><ele>668.0</ele><time>2026-03-29T09:16:36Z</time></trkpt><trkpt lat="44.02112779402525" lon="7.9668314722876"><ele>672.8333333333333</ele><time>2026-03-29T09:16:37Z</time></trkpt><trkpt lat="44.02106562218335" lon="7.966905183113386"><ele>677.6666666666666</ele><time>2026-03-29T09:16:38Z</time></trkpt><trkpt lat="44.02102576598945" lon="7.967007039076749"><ele>682.5</ele><time>2026-03-29T09:16:39Z</time></trkpt><trkpt lat="44.02097202136005" lon="7.967110261924347"><ele>687.3333333333334</ele><time>2026-03-29T09:16:40Z</time></trkpt><trkpt lat="44.020903766015415" lon="7.96717441482854"><ele>692.1666666666667</ele><time>2026-03-29T09:16:41Z</time></trkpt><trkpt lat="44.020821483995746" lon="7.9672542403529505"><ele>697.0</ele><time>2026-03-29T09:16:42Z</time></trkpt><trkpt lat="44.02072076656035" lon="7.967334888060553"><ele>699.8</ele><time>2026-03-29T09:16:43Z</time></trkpt><trkpt lat="44.020636807570774" lon="7.967356805169409"><ele>702.6</ele><time>2026-03-29T09:16:44Z</time></trkpt><trkpt lat="44.02057178568419" lon="7.967289514356915"><ele>705.4</ele><time>2026-03-29T09:16:45Z</time></trkpt><trkpt lat="44.02050117784111" lon="7.967204676429382"><ele>708.1999999999999</ele><time>2026-03-29T09:16:46Z</time></trkpt><trkpt lat="44.020438695771844" lon="7.967134784172162"><ele>711.0</ele><time>2026-03-29T09:16:47Z</time></trkpt><trkpt lat="44.02035279255287" lon="7.9670043149192695"><ele>711.0</ele><time>2026-03-29T09:16:48Z</time></trkpt><trkpt lat="44.02025187582631" lon="7.966864246896336"><ele>711.0</ele><time>2026-03-29T09:16:49Z</time></trkpt><trkpt lat="44.02016229192298" lon="7.966822495663442"><ele>711.0</ele><time>2026-03-29T09:16:50Z</time></trkpt><trkpt lat="44.020072410423296" lon="7.966767306747247"><ele>711.0</ele><time>2026-03-29T09:16:51Z</time></trkpt><trkpt lat="44.01996481123636" lon="7.9667020499697685"><ele>711.25</ele><time>2026-03-29T09:16:52Z</time></trkpt><trkpt lat="44.01990700382385" lon="7.966594442325943"><ele>711.5</ele><time>2026-03-29T09:16:53Z</time></trkpt><trkpt lat="44.01984604566975" lon="7.966450986530455"><ele>711.75</ele><time>2026-03-29T09:16:54Z</time></trkpt><trkpt lat="44.01974271127797" lon="7.966316814121834"><ele>712.0</ele><time>2026-03-29T09:16:55Z</time></trkpt><trkpt lat="44.01964537051105" lon="7.966144642022897"><ele>712.0</ele><time>2026-03-29T09:16:56Z</time></trkpt><trkpt lat="44.01954794725321" lon="7.96601377254842"><ele>712.0</ele><time>2026-03-29T09:16:57Z</time></trkpt><trkpt lat="44.01945947539993" lon="7.965953461686087"><ele>712.0</ele><time>2026-03-29T09:16:58Z</time></trkpt><trkpt lat="44.019379641626344" lon="7.9659099739767845"><ele>712.0</ele><time>2026-03-29T09:16:59Z</time></trkpt><trkpt lat="44.019266741831736" lon="7.965797157601448"><ele>704.75</ele><time>2026-03-29T09:17:00Z</time></trkpt><trkpt lat="44.01913784975063" lon="7.9657056283928345"><ele>697.5</ele><time>2026-03-29T09:17:01Z</time></trkpt><trkpt lat="44.01902601265916" lon="7.965639302038507"><ele>690.25</ele><time>2026-03-29T09:17:02Z</time></trkpt><trkpt lat="44.01891739385595" lon="7.965537870511726"><ele>683.0</ele><time>2026-03-29T09:17:03Z</time></trkpt><trkpt lat="44.01887959989499" lon="7.965449405768358"><ele>683.0</ele><time>2026-03-29T09:17:04Z</time></trkpt><trkpt lat="44.01888072415952" lon="7.965344402264343"><ele>683.0</ele><time>2026-03-29T09:17:05Z</time></trkpt><trkpt lat="44.01887362874758" lon="7.965232919429088"><ele>683.0</ele><time>2026-03-29T09:17:06Z</time></trkpt><trkpt lat="44.018868223544715" lon="7.96505293460215"><ele>683.0</ele><time>2026-03-29T09:17:07Z</time></trkpt><trkpt lat="44.01887147730916" lon="7.96484436300881"><ele>683.0</ele><time>2026-03-29T09:17:08Z</time></trkpt><trkpt lat="44.01884443404452" lon="7.9646465946530585"><ele>686.2</ele><time>2026-03-29T09:17:09Z</time></trkpt><trkpt lat="44.01888735721352" lon="7.964476353334039"><ele>689.4</ele><time>2026-03-29T09:17:10Z</time></trkpt><trkpt lat="44.01892836240174" lon="7.964331303441297"><ele>692.6</ele><time>2026-03-29T09:17:11Z</time></trkpt><trkpt lat="44.01887308743966" lon="7.964223545383115"><ele>695.8000000000001</ele><time>2026-03-29T09:17:13Z</time></trkpt><trkpt lat="44.01880010016476" lon="7.964205133854497"><ele>699.0</ele><time>2026-03-29T09:17:14Z</time></trkpt><trkpt lat="44.01871335604321" lon="7.964189626687925"><ele>700.0</ele><time>2026-03-29T09:17:15Z</time></trkpt><trkpt lat="44.018622992342415" lon="7.964137447931284"><ele>701.0</ele><time>2026-03-29T09:17:16Z</time></trkpt><trkpt lat="44.01855201140934" lon="7.964077581566314"><ele>702.0</ele><time>2026-03-29T09:17:17Z</time></trkpt><trkpt lat="44.01848473935112" lon="7.963966167761842"><ele>703.0</ele><time>2026-03-29T09:17:18Z</time></trkpt><trkpt lat="44.01842871678704" lon="7.963854171015948"><ele>704.0</ele><time>2026-03-29T09:17:19Z</time></trkpt><trkpt lat="44.01832960714614" lon="7.963754708170854"><ele>702.0</ele><time>2026-03-29T09:17:20Z</time></trkpt><trkpt lat="44.01825838936253" lon="7.963648637468521"><ele>700.0</ele><time>2026-03-29T09:17:21Z</time></trkpt><trkpt lat="44.018185382487424" lon="7.963590621925893"><ele>698.0</ele><time>2026-03-29T09:17:22Z</time></trkpt><trkpt lat="44.01808278908227" lon="7.963522889900149"><ele>696.0</ele><time>2026-03-29T09:17:23Z</time></trkpt><trkpt lat="44.01793759341394" lon="7.963440183552456"><ele>696.0</ele><time>2026-03-29T09:17:24Z</time></trkpt><trkpt lat="44.017779254896325" lon="7.963378456788427"><ele>696.0</ele><time>2026-03-29T09:17:25Z</time></trkpt><trkpt lat="44.01763420754681" lon="7.963266169942223"><ele>696.0</ele><time>2026-03-29T09:17:26Z</time></trkpt><trkpt lat="44.01753113291366" lon="7.963110807815869"><ele>697.25</ele><time>2026-03-29T09:17:27Z</time></trkpt><trkpt lat="44.01741890629946" lon="7.963037668841795"><ele>698.5</ele><time>2026-03-29T09:17:28Z</time></trkpt><trkpt lat="44.01729511886164" lon="7.962936191500578"><ele>699.75</ele><time>2026-03-29T09:17:29Z</time></trkpt><trkpt lat="44.01722548318512" lon="7.962820268314597"><ele>701.0</ele><time>2026-03-29T09:17:30Z</time></trkpt><trkpt lat="44.01713031662548" lon="7.962723136092004"><ele>701.0</ele><time>2026-03-29T09:17:31Z</time></trkpt><trkpt lat="44.01706287054907" lon="7.962637832064693"><ele>701.0</ele><time>2026-03-29T09:17:32Z</time></trkpt><trkpt lat="44.01698901191477" lon="7.962538963596438"><ele>701.0</ele><time>2026-03-29T09:17:33Z</time></trkpt><trkpt lat="44.01695675965622" lon="7.962437774544706"><ele>701.0</ele><time>2026-03-29T09:17:34Z</time></trkpt><trkpt lat="44.01693571070502" lon="7.962285521492993"><ele>701.0</ele><time>2026-03-29T09:17:35Z</time></trkpt><trkpt lat="44.016892763930954" lon="7.962151341391167"><ele>702.0</ele><time>2026-03-29T09:17:36Z</time></trkpt><trkpt lat="44.01682450525494" lon="7.962075399910518"><ele>703.0</ele><time>2026-03-29T09:17:37Z</time></trkpt><trkpt lat="44.016732109253795" lon="7.961980422825057"><ele>704.0</ele><time>2026-03-29T09:17:38Z</time></trkpt><trkpt lat="44.01662593018357" lon="7.9618852678712155"><ele>705.0</ele><time>2026-03-29T09:17:39Z</time></trkpt><trkpt lat="44.0165151429185" lon="7.961789806084062"><ele>705.0</ele><time>2026-03-29T09:17:40Z</time></trkpt><trkpt lat="44.01637090894058" lon="7.9617065407060315"><ele>705.0</ele><time>2026-03-29T09:17:41Z</time></trkpt><trkpt lat="44.016224702116965" lon="7.961639081031384"><ele>705.0</ele><time>2026-03-29T09:17:42Z</time></trkpt><trkpt lat="44.01611265286379" lon="7.961567481119943"><ele>705.0</ele><time>2026-03-29T09:17:43Z</time></trkpt><trkpt lat="44.01602140187348" lon="7.961493553162493"><ele>705.6666666666666</ele><time>2026-03-29T09:17:44Z</time></trkpt><trkpt lat="44.01593727126343" lon="7.961421479480613"><ele>706.3333333333334</ele><time>2026-03-29T09:17:45Z</time></trkpt><trkpt lat="44.01588105334933" lon="7.961357037134078"><ele>707.0</ele><time>2026-03-29T09:17:46Z</time></trkpt><trkpt lat="44.015823229744484" lon="7.961297647877065"><ele>707.6666666666667</ele><time>2026-03-29T09:17:47Z</time></trkpt><trkpt lat="44.01575741550121" lon="7.96125828613624"><ele>708.3333333333334</ele><time>2026-03-29T09:17:48Z</time></trkpt><trkpt lat="44.01564642304752" lon="7.96124152071756"><ele>709.0</ele><time>2026-03-29T09:17:49Z</time></trkpt><trkpt lat="44.01549742991255" lon="7.961203103584899"><ele>702.0</ele><time>2026-03-29T09:17:50Z</time></trkpt><trkpt lat="44.015343524047445" lon="7.961165550809486"><ele>695.0</ele><time>2026-03-29T09:17:51Z</time></trkpt><trkpt lat="44.01517655878211" lon="7.961114471008744"><ele>688.0</ele><time>2026-03-29T09:17:52Z</time></trkpt><trkpt lat="44.015051558990294" lon="7.9610774883253645"><ele>683.0</ele><time>2026-03-29T09:17:53Z</time></trkpt><trkpt lat="44.01494065665888" lon="7.961068157646464"><ele>678.0</ele><time>2026-03-29T09:17:54Z</time></trkpt><trkpt lat="44.01486835212772" lon="7.961050178477052"><ele>673.0</ele><time>2026-03-29T09:17:55Z</time></trkpt><trkpt lat="44.01480361375371" lon="7.960981315482436"><ele>668.0</ele><time>2026-03-29T09:17:56Z</time></trkpt><trkpt lat="44.014746512868065" lon="7.960861729642176"><ele>663.0</ele><time>2026-03-29T09:17:57Z</time></trkpt><trkpt lat="44.01469469488041" lon="7.960697994858988"><ele>663.0</ele><time>2026-03-29T09:17:58Z</time></trkpt><trkpt lat="44.014626869793744" lon="7.960532968680195"><ele>663.0</ele><time>2026-03-29T09:17:59Z</time></trkpt><trkpt lat="44.01456559184934" lon="7.960434584561326"><ele>663.0</ele><time>2026-03-29T09:18:00Z</time></trkpt><trkpt lat="44.01450921718134" lon="7.960380108219296"><ele>663.0</ele><time>2026-03-29T09:18:01Z</time></trkpt><trkpt lat="44.0144446901263" lon="7.960292215692872"><ele>663.0</ele><time>2026-03-29T09:18:02Z</time></trkpt><trkpt lat="44.014344537387274" lon="7.960162396959894"><ele>663.0</ele><time>2026-03-29T09:18:03Z</time></trkpt><trkpt lat="44.01424655322099" lon="7.960056871763783"><ele>663.0</ele><time>2026-03-29T09:18:04Z</time></trkpt><trkpt lat="44.01418027674188" lon="7.9599216936165105"><ele>663.0</ele><time>2026-03-29T09:18:05Z</time></trkpt><trkpt lat="44.014136834042866" lon="7.95979261771101"><ele>663.0</ele><time>2026-03-29T09:18:06Z</time></trkpt><trkpt lat="44.01411549801747" lon="7.9596824181583825"><ele>663.0</ele><time>2026-03-29T09:18:08Z</time></trkpt><trkpt lat="44.01406808073533" lon="7.959589681712673"><ele>657.8333333333334</ele><time>2026-03-29T09:18:10Z</time></trkpt><trkpt lat="44.01398879407362" lon="7.959534977019029"><ele>652.6666666666666</ele><time>2026-03-29T09:18:12Z</time></trkpt><trkpt lat="44.013925332287634" lon="7.959532426754298"><ele>647.5</ele><time>2026-03-29T09:18:13Z</time></trkpt><trkpt lat="44.013836790910545" lon="7.959459580550337"><ele>642.3333333333333</ele><time>2026-03-29T09:18:15Z</time></trkpt><trkpt lat="44.01389521201329" lon="7.9593901482176985"><ele>637.1666666666666</ele><time>2026-03-29T09:18:17Z</time></trkpt><trkpt lat="44.014000871908145" lon="7.959390050125636"><ele>632.0</ele><time>2026-03-29T09:18:19Z</time></trkpt><trkpt lat="44.01406340498952" lon="7.959301264633192"><ele>635.8</ele><time>2026-03-29T09:18:21Z</time></trkpt><trkpt lat="44.01400404761299" lon="7.959122937336405"><ele>639.6</ele><time>2026-03-29T09:18:23Z</time></trkpt><trkpt lat="44.01395430879757" lon="7.959031975391797"><ele>643.4</ele><time>2026-03-29T09:18:24Z</time></trkpt><trkpt lat="44.01392197703822" lon="7.9589479428446515"><ele>647.1999999999999</ele><time>2026-03-29T09:18:25Z</time></trkpt><trkpt lat="44.013887395299655" lon="7.958872927762082"><ele>651.0</ele><time>2026-03-29T09:18:26Z</time></trkpt><trkpt lat="44.01380430157054" lon="7.958720240983138"><ele>651.0</ele><time>2026-03-29T09:18:28Z</time></trkpt><trkpt lat="44.01374759363684" lon="7.95863688503783"><ele>651.0</ele><time>2026-03-29T09:18:29Z</time></trkpt><trkpt lat="44.01368754460259" lon="7.9585544009355615"><ele>651.0</ele><time>2026-03-29T09:18:30Z</time></trkpt><trkpt lat="44.01362398549028" lon="7.958460537302536"><ele>651.0</ele><time>2026-03-29T09:18:31Z</time></trkpt><trkpt lat="44.013571030174084" lon="7.9583506514942535"><ele>651.0</ele><time>2026-03-29T09:18:32Z</time></trkpt><trkpt lat="44.01351662674571" lon="7.958252080310225"><ele>651.0</ele><time>2026-03-29T09:18:33Z</time></trkpt><trkpt lat="44.013427929340786" lon="7.958261593594692"><ele>652.1666666666666</ele><time>2026-03-29T09:18:35Z</time></trkpt><trkpt lat="44.01335713642291" lon="7.958254923416723"><ele>653.3333333333334</ele><time>2026-03-29T09:18:37Z</time></trkpt><trkpt lat="44.01331889821049" lon="7.95817667270591"><ele>654.5</ele><time>2026-03-29T09:18:39Z</time></trkpt><trkpt lat="44.013232736685886" lon="7.958090811627761"><ele>655.6666666666667</ele><time>2026-03-29T09:18:41Z</time></trkpt><trkpt lat="44.01319944200481" lon="7.958012421967694"><ele>656.8333333333334</ele><time>2026-03-29T09:18:44Z</time></trkpt><trkpt lat="44.013156175677366" lon="7.957907584112059"><ele>658.0</ele><time>2026-03-29T09:18:45Z</time></trkpt><trkpt lat="44.01309745820898" lon="7.957789855563084"><ele>658.0</ele><time>2026-03-29T09:18:46Z</time></trkpt><trkpt lat="44.013066022657476" lon="7.957652630761629"><ele>658.0</ele><time>2026-03-29T09:18:47Z</time></trkpt><trkpt lat="44.01307613405002" lon="7.957525212139454"><ele>658.0</ele><time>2026-03-29T09:18:48Z</time></trkpt><trkpt lat="44.013032880574464" lon="7.957423767399701"><ele>658.0</ele><time>2026-03-29T09:18:49Z</time></trkpt><trkpt lat="44.012993794885325" lon="7.957295701232113"><ele>658.0</ele><time>2026-03-29T09:18:50Z</time></trkpt><trkpt lat="44.01295580066532" lon="7.957160887439595"><ele>663.75</ele><time>2026-03-29T09:18:51Z</time></trkpt><trkpt lat="44.01290013810323" lon="7.956996222865022"><ele>669.5</ele><time>2026-03-29T09:18:52Z</time></trkpt><trkpt lat="44.01287613008469" lon="7.956831330603019"><ele>675.25</ele><time>2026-03-29T09:18:53Z</time></trkpt><trkpt lat="44.012837368142144" lon="7.956677702514239"><ele>681.0</ele><time>2026-03-29T09:18:54Z</time></trkpt><trkpt lat="44.01279671049668" lon="7.956541316766585"><ele>681.5</ele><time>2026-03-29T09:18:55Z</time></trkpt><trkpt lat="44.0127615258925" lon="7.956389658970112"><ele>682.0</ele><time>2026-03-29T09:18:56Z</time></trkpt><trkpt lat="44.01273858409925" lon="7.956238349368823"><ele>682.5</ele><time>2026-03-29T09:18:57Z</time></trkpt><trkpt lat="44.01271315314136" lon="7.956136378824007"><ele>683.0</ele><time>2026-03-29T09:18:58Z</time></trkpt><trkpt lat="44.01269601320955" lon="7.956042517960961"><ele>683.5</ele><time>2026-03-29T09:18:59Z</time></trkpt><trkpt lat="44.01268743865104" lon="7.955952577796921"><ele>684.0</ele><time>2026-03-29T09:19:03Z</time></trkpt><trkpt lat="44.012758446910944" lon="7.956008605537874"><ele>684.0</ele><time>2026-03-29T09:19:05Z</time></trkpt><trkpt lat="44.01282649045331" lon="7.9559778873922"><ele>684.0</ele><time>2026-03-29T09:19:08Z</time></trkpt><trkpt lat="44.01288397514914" lon="7.9559221278381145"><ele>684.0</ele><time>2026-03-29T09:19:11Z</time></trkpt><trkpt lat="44.01290012071627" lon="7.955749620405927"><ele>684.0</ele><time>2026-03-29T09:19:12Z</time></trkpt><trkpt lat="44.01295415918382" lon="7.9556571599962815"><ele>684.0</ele><time>2026-03-29T09:19:14Z</time></trkpt><trkpt lat="44.01300979946996" lon="7.955551150423015"><ele>684.0</ele><time>2026-03-29T09:19:18Z</time></trkpt><trkpt lat="44.01301761599219" lon="7.955439368995342"><ele>680.0</ele><time>2026-03-29T09:19:20Z</time></trkpt><trkpt lat="44.01305929772102" lon="7.955313381993397"><ele>676.0</ele><time>2026-03-29T09:19:22Z</time></trkpt><trkpt lat="44.01313474127245" lon="7.955275156853923"><ele>672.0</ele><time>2026-03-29T09:19:24Z</time></trkpt><trkpt lat="44.01340313197886" lon="7.955283948366312"><ele>668.0</ele><time>2026-03-29T09:19:25Z</time></trkpt><trkpt lat="44.01349795718536" lon="7.955316366813982"><ele>665.3333333333333</ele><time>2026-03-29T09:19:26Z</time></trkpt><trkpt lat="44.01357024345633" lon="7.9553194249502726"><ele>662.6666666666666</ele><time>2026-03-29T09:19:27Z</time></trkpt><trkpt lat="44.01366872383789" lon="7.955372845781806"><ele>660.0</ele><time>2026-03-29T09:19:29Z</time></trkpt><trkpt lat="44.013742818085" lon="7.955401387738299"><ele>657.3333333333334</ele><time>2026-03-29T09:19:33Z</time></trkpt><trkpt lat="44.013797075275576" lon="7.9553511910217205"><ele>654.6666666666667</ele><time>2026-03-29T09:19:34Z</time></trkpt><trkpt lat="44.013860465532915" lon="7.9554147808568905"><ele>652.0</ele><time>2026-03-29T09:19:37Z</time></trkpt><trkpt lat="44.013872922557695" lon="7.9555138404068"><ele>652.0</ele><time>2026-03-29T09:19:40Z</time></trkpt><trkpt lat="44.01389791740046" lon="7.955626616446372"><ele>652.0</ele><time>2026-03-29T09:19:42Z</time></trkpt><trkpt lat="44.01391428938007" lon="7.955719970590942"><ele>652.0</ele><time>2026-03-29T09:19:44Z</time></trkpt><trkpt lat="44.013956276596296" lon="7.956013323562256"><ele>652.0</ele><time>2026-03-29T09:19:46Z</time></trkpt><trkpt lat="44.0140112004531" lon="7.955951533842219"><ele>652.0</ele><time>2026-03-29T09:19:48Z</time></trkpt><trkpt lat="44.01404069751877" lon="7.955864389254791"><ele>652.0</ele><time>2026-03-29T09:19:50Z</time></trkpt><trkpt lat="44.01412234480916" lon="7.955736046407494"><ele>652.0</ele><time>2026-03-29T09:19:52Z</time></trkpt><trkpt lat="44.01418796343973" lon="7.9556938004641955"><ele>652.0</ele><time>2026-03-29T09:19:53Z</time></trkpt><trkpt lat="44.01425396041928" lon="7.955662536249407"><ele>652.0</ele><time>2026-03-29T09:19:54Z</time></trkpt><trkpt lat="44.01431999647154" lon="7.955632276636988"><ele>652.0</ele><time>2026-03-29T09:19:55Z</time></trkpt><trkpt lat="44.01440488859842" lon="7.955577355246168"><ele>652.0</ele><time>2026-03-29T09:19:56Z</time></trkpt><trkpt lat="44.01447007697498" lon="7.9554863710952075"><ele>648.3333333333334</ele><time>2026-03-29T09:19:57Z</time></trkpt><trkpt lat="44.01448752036693" lon="7.95537234100719"><ele>644.6666666666667</ele><time>2026-03-29T09:19:58Z</time></trkpt><trkpt lat="44.014495304146" lon="7.95526404465744"><ele>641.0</ele><time>2026-03-29T09:19:59Z</time></trkpt><trkpt lat="44.014515946600966" lon="7.955112266394323"><ele>637.3333333333334</ele><time>2026-03-29T09:20:00Z</time></trkpt><trkpt lat="44.01454965641529" lon="7.955003296422058"><ele>633.6666666666666</ele><time>2026-03-29T09:20:01Z</time></trkpt><trkpt lat="44.0145724532511" lon="7.95490614434281"><ele>630.0</ele><time>2026-03-29T09:20:02Z</time></trkpt><trkpt lat="44.01460900213464" lon="7.9548114079787595"><ele>629.6</ele><time>2026-03-29T09:20:03Z</time></trkpt><trkpt lat="44.01464370847342" lon="7.954689231809879"><ele>629.2</ele><time>2026-03-29T09:20:05Z</time></trkpt><trkpt lat="44.014554158887144" lon="7.954640082222006"><ele>628.8</ele><time>2026-03-29T09:20:07Z</time></trkpt><trkpt lat="44.014589382767305" lon="7.954483017734544"><ele>628.4</ele><time>2026-03-29T09:20:10Z</time></trkpt><trkpt lat="44.014600704814214" lon="7.954332409625663"><ele>628.0</ele><time>2026-03-29T09:20:12Z</time></trkpt><trkpt lat="44.014589786747656" lon="7.954208599905006"><ele>625.1999999999999</ele><time>2026-03-29T09:20:14Z</time></trkpt><trkpt lat="44.01453892090129" lon="7.954137213704829"><ele>622.4</ele><time>2026-03-29T09:20:16Z</time></trkpt><trkpt lat="44.01450141370486" lon="7.954034341889767"><ele>619.5999999999999</ele><time>2026-03-29T09:20:18Z</time></trkpt><trkpt lat="44.01442050015007" lon="7.953901428242708"><ele>616.8</ele><time>2026-03-29T09:20:20Z</time></trkpt><trkpt lat="44.01433003980998" lon="7.953835226591095"><ele>614.0</ele><time>2026-03-29T09:20:21Z</time></trkpt><trkpt lat="44.014255936657776" lon="7.953778990273665"><ele>614.0</ele><time>2026-03-29T09:20:22Z</time></trkpt><trkpt lat="44.014184008287394" lon="7.953727351873655"><ele>614.0</ele><time>2026-03-29T09:20:23Z</time></trkpt><trkpt lat="44.014116194588375" lon="7.953676042772218"><ele>614.0</ele><time>2026-03-29T09:20:24Z</time></trkpt><trkpt lat="44.01405271986279" lon="7.953640677615808"><ele>614.0</ele><time>2026-03-29T09:20:25Z</time></trkpt><trkpt lat="44.01398952972981" lon="7.95364586626627"><ele>614.0</ele><time>2026-03-29T09:20:26Z</time></trkpt><trkpt lat="44.01389887981382" lon="7.953566929594116"><ele>614.0</ele><time>2026-03-29T09:20:28Z</time></trkpt><trkpt lat="44.013951026915734" lon="7.953423927752984"><ele>613.6</ele><time>2026-03-29T09:20:30Z</time></trkpt><trkpt lat="44.01399522474127" lon="7.953222608531682"><ele>613.2</ele><time>2026-03-29T09:20:31Z</time></trkpt><trkpt lat="44.01401896923863" lon="7.953097809929637"><ele>612.8000000000001</ele><time>2026-03-29T09:20:32Z</time></trkpt><trkpt lat="44.014027403696836" lon="7.952955340527732"><ele>612.4</ele><time>2026-03-29T09:20:33Z</time></trkpt><trkpt lat="44.01398297349748" lon="7.952844850675046"><ele>612.0</ele><time>2026-03-29T09:20:34Z</time></trkpt><trkpt lat="44.01408056799774" lon="7.9528818442258915"><ele>612.0</ele><time>2026-03-29T09:20:38Z</time></trkpt><trkpt lat="44.0141392053832" lon="7.952979542745095"><ele>612.0</ele><time>2026-03-29T09:20:39Z</time></trkpt><trkpt lat="44.01421090922879" lon="7.952973171994464"><ele>612.0</ele><time>2026-03-29T09:20:41Z</time></trkpt><trkpt lat="44.01427450542622" lon="7.952892627934942"><ele>612.0</ele><time>2026-03-29T09:20:44Z</time></trkpt><trkpt lat="44.014632126260615" lon="7.952649948264021"><ele>612.25</ele><time>2026-03-29T09:20:47Z</time></trkpt><trkpt lat="44.01468646568662" lon="7.95248008176647"><ele>612.5</ele><time>2026-03-29T09:20:48Z</time></trkpt><trkpt lat="44.01472934805448" lon="7.9523368164265005"><ele>612.75</ele><time>2026-03-29T09:20:49Z</time></trkpt><trkpt lat="44.01475927140126" lon="7.952187250326132"><ele>613.0</ele><time>2026-03-29T09:20:50Z</time></trkpt><trkpt lat="44.01471440279172" lon="7.952063722107754"><ele>613.0</ele><time>2026-03-29T09:20:51Z</time></trkpt><trkpt lat="44.01460924627171" lon="7.951952948801818"><ele>613.0</ele><time>2026-03-29T09:20:52Z</time></trkpt><trkpt lat="44.01449157492815" lon="7.951863316415347"><ele>613.0</ele><time>2026-03-29T09:20:53Z</time></trkpt><trkpt lat="44.01439255595883" lon="7.951789353625045"><ele>613.0</ele><time>2026-03-29T09:20:54Z</time></trkpt><trkpt lat="44.01431633108234" lon="7.951729465993725"><ele>615.1666666666667</ele><time>2026-03-29T09:20:55Z</time></trkpt><trkpt lat="44.014259405418706" lon="7.951677171070009"><ele>617.3333333333334</ele><time>2026-03-29T09:20:56Z</time></trkpt><trkpt lat="44.01424225844172" lon="7.951563648588749"><ele>619.5</ele><time>2026-03-29T09:20:58Z</time></trkpt><trkpt lat="44.014308320549056" lon="7.951491781739312"><ele>621.6666666666666</ele><time>2026-03-29T09:21:00Z</time></trkpt><trkpt lat="44.01435488273971" lon="7.951405367676982"><ele>623.8333333333333</ele><time>2026-03-29T09:21:03Z</time></trkpt><trkpt lat="44.01443499276806" lon="7.951404873011045"><ele>626.0</ele><time>2026-03-29T09:21:06Z</time></trkpt><trkpt lat="44.01438899348689" lon="7.951301207743321"><ele>626.0</ele><time>2026-03-29T09:22:21Z</time></trkpt><trkpt lat="44.0144404232041" lon="7.9511766656609835"><ele>626.0</ele><time>2026-03-29T09:22:24Z</time></trkpt><trkpt lat="44.01449223055895" lon="7.951045819839436"><ele>626.0</ele><time>2026-03-29T09:22:26Z</time></trkpt><trkpt lat="44.014538029036146" lon="7.950904875573247"><ele>626.0</ele><time>2026-03-29T09:22:28Z</time></trkpt><trkpt lat="44.01458915219153" lon="7.95076547637992"><ele>626.0</ele><time>2026-03-29T09:22:30Z</time></trkpt><trkpt lat="44.014612726598166" lon="7.950628775362706"><ele>627.5</ele><time>2026-03-29T09:22:32Z</time></trkpt><trkpt lat="44.014621205278225" lon="7.950507451265771"><ele>629.0</ele><time>2026-03-29T09:22:34Z</time></trkpt><trkpt lat="44.0146235010759" lon="7.9504146858361215"><ele>630.5</ele><time>2026-03-29T09:22:41Z</time></trkpt><trkpt lat="44.014547009649704" lon="7.950398360301809"><ele>632.0</ele><time>2026-03-29T09:22:44.001Z</time></trkpt><trkpt lat="44.01447917135815" lon="7.95045373546704"><ele>633.5</ele><time>2026-03-29T09:22:46.001Z</time></trkpt><trkpt lat="44.01436782097359" lon="7.950506676707077"><ele>635.0</ele><time>2026-03-29T09:22:48.001Z</time></trkpt><trkpt lat="44.01425339305447" lon="7.950504859884894"><ele>633.5</ele><time>2026-03-29T09:22:50.001Z</time></trkpt><trkpt lat="44.01415024149947" lon="7.950607583328581"><ele>632.0</ele><time>2026-03-29T09:22:52.001Z</time></trkpt><trkpt lat="44.01411063055799" lon="7.950691228434717"><ele>630.5</ele><time>2026-03-29T09:22:53.001Z</time></trkpt><trkpt lat="44.014071004964556" lon="7.950764076476771"><ele>629.0</ele><time>2026-03-29T09:22:54.001Z</time></trkpt><trkpt lat="44.01401736752736" lon="7.950834298519349"><ele>627.5</ele><time>2026-03-29T09:22:55.001Z</time></trkpt><trkpt lat="44.01394913094281" lon="7.950884485151407"><ele>626.0</ele><time>2026-03-29T09:22:56.001Z</time></trkpt><trkpt lat="44.01387665493596" lon="7.9509045930671345"><ele>626.0</ele><time>2026-03-29T09:22:57.001Z</time></trkpt><trkpt lat="44.0137994668906" lon="7.950900251411079"><ele>626.0</ele><time>2026-03-29T09:22:58.001Z</time></trkpt><trkpt lat="44.01371979265057" lon="7.950899394718245"><ele>626.0</ele><time>2026-03-29T09:22:59.001Z</time></trkpt><trkpt lat="44.01365472230261" lon="7.950914427323374"><ele>626.0</ele><time>2026-03-29T09:23:00Z</time></trkpt><trkpt lat="44.01353588913023" lon="7.950975107338855"><ele>626.0</ele><time>2026-03-29T09:23:02Z</time></trkpt><trkpt lat="44.01346370580606" lon="7.951023931648213"><ele>626.0</ele><time>2026-03-29T09:23:03Z</time></trkpt><trkpt lat="44.013386608750174" lon="7.951087571298784"><ele>625.5</ele><time>2026-03-29T09:23:04Z</time></trkpt><trkpt lat="44.013311854008954" lon="7.951158388958076"><ele>625.0</ele><time>2026-03-29T09:23:05Z</time></trkpt><trkpt lat="44.013234143732234" lon="7.951225110592297"><ele>624.5</ele><time>2026-03-29T09:23:06Z</time></trkpt><trkpt lat="44.01316204121112" lon="7.951281720012811"><ele>624.0</ele><time>2026-03-29T09:23:07Z</time></trkpt><trkpt lat="44.013090260945404" lon="7.9513290896667215"><ele>623.5</ele><time>2026-03-29T09:23:08Z</time></trkpt><trkpt lat="44.01301382404914" lon="7.951377265712081"><ele>623.0</ele><time>2026-03-29T09:23:09Z</time></trkpt><trkpt lat="44.012939101282306" lon="7.951423370253956"><ele>623.0</ele><time>2026-03-29T09:23:10Z</time></trkpt><trkpt lat="44.01285906543861" lon="7.951456134911969"><ele>623.0</ele><time>2026-03-29T09:23:11Z</time></trkpt><trkpt lat="44.01277266698864" lon="7.951472493789072"><ele>623.0</ele><time>2026-03-29T09:23:12Z</time></trkpt><trkpt lat="44.01268309780275" lon="7.951490554232363"><ele>623.0</ele><time>2026-03-29T09:23:13Z</time></trkpt><trkpt lat="44.012596941439526" lon="7.951521558608224"><ele>623.0</ele><time>2026-03-29T09:23:14Z</time></trkpt><trkpt lat="44.012523102020836" lon="7.951575356870002"><ele>623.0</ele><time>2026-03-29T09:23:15Z</time></trkpt><trkpt lat="44.012460486510044" lon="7.951658936403379"><ele>626.8</ele><time>2026-03-29T09:23:16Z</time></trkpt><trkpt lat="44.01238909517637" lon="7.951742550194415"><ele>630.5999999999999</ele><time>2026-03-29T09:23:17Z</time></trkpt><trkpt lat="44.01231720311378" lon="7.951845819414728"><ele>634.4000000000001</ele><time>2026-03-29T09:23:18Z</time></trkpt><trkpt lat="44.01224400248485" lon="7.9519275157641856"><ele>638.2</ele><time>2026-03-29T09:23:19Z</time></trkpt><trkpt lat="44.01216015868373" lon="7.951962336343714"><ele>642.0</ele><time>2026-03-29T09:23:20Z</time></trkpt><trkpt lat="44.012072019425645" lon="7.9519608191849835"><ele>642.0</ele><time>2026-03-29T09:23:21Z</time></trkpt><trkpt lat="44.01198795027684" lon="7.951903722893333"><ele>642.0</ele><time>2026-03-29T09:23:22Z</time></trkpt><trkpt lat="44.01190221926165" lon="7.951819539448963"><ele>642.0</ele><time>2026-03-29T09:23:23Z</time></trkpt><trkpt lat="44.01180860334042" lon="7.95176561061785"><ele>642.0</ele><time>2026-03-29T09:23:24Z</time></trkpt><trkpt lat="44.01172216601024" lon="7.9517001417953335"><ele>642.0</ele><time>2026-03-29T09:23:25Z</time></trkpt><trkpt lat="44.011636934139744" lon="7.951673728206146"><ele>637.6</ele><time>2026-03-29T09:23:26Z</time></trkpt><trkpt lat="44.011548679374044" lon="7.951658159412722"><ele>633.2</ele><time>2026-03-29T09:23:27Z</time></trkpt><trkpt lat="44.011455832926394" lon="7.951642655502631"><ele>628.8</ele><time>2026-03-29T09:23:28Z</time></trkpt><trkpt lat="44.01136111581743" lon="7.951642730542788"><ele>624.4</ele><time>2026-03-29T09:23:29Z</time></trkpt><trkpt lat="44.01126143423742" lon="7.951658811510606"><ele>620.0</ele><time>2026-03-29T09:23:30Z</time></trkpt><trkpt lat="44.011166887521824" lon="7.951663323434124"><ele>620.0</ele><time>2026-03-29T09:23:31Z</time></trkpt><trkpt lat="44.01107664987534" lon="7.951647656422879"><ele>620.0</ele><time>2026-03-29T09:23:32Z</time></trkpt><trkpt lat="44.010990473860055" lon="7.951656664535335"><ele>620.0</ele><time>2026-03-29T09:23:33Z</time></trkpt><trkpt lat="44.010908809004285" lon="7.951688219809855"><ele>620.0</ele><time>2026-03-29T09:23:34Z</time></trkpt><trkpt lat="44.01082439985548" lon="7.951720933466354"><ele>620.0</ele><time>2026-03-29T09:23:35Z</time></trkpt><trkpt lat="44.01073870978196" lon="7.951751062284879"><ele>620.0</ele><time>2026-03-29T09:23:36Z</time></trkpt><trkpt lat="44.010654835854055" lon="7.951761848782311"><ele>619.8</ele><time>2026-03-29T09:23:37Z</time></trkpt><trkpt lat="44.0105710409785" lon="7.9517513130374535"><ele>619.6</ele><time>2026-03-29T09:23:38Z</time></trkpt><trkpt lat="44.01050291118174" lon="7.951715677364018"><ele>619.4</ele><time>2026-03-29T09:23:39Z</time></trkpt><trkpt lat="44.01039067515276" lon="7.951640418890714"><ele>619.2</ele><time>2026-03-29T09:23:41Z</time></trkpt><trkpt lat="44.010312894145144" lon="7.9515869313737975"><ele>619.0</ele><time>2026-03-29T09:23:43Z</time></trkpt><trkpt lat="44.010311431082" lon="7.951434297622653"><ele>620.2</ele><time>2026-03-29T09:23:44Z</time></trkpt><trkpt lat="44.01029310525987" lon="7.951326251079705"><ele>621.4</ele><time>2026-03-29T09:23:45Z</time></trkpt><trkpt lat="44.01026382063468" lon="7.951207983559949"><ele>622.6</ele><time>2026-03-29T09:23:46Z</time></trkpt><trkpt lat="44.01021531658176" lon="7.9510917692230505"><ele>623.8</ele><time>2026-03-29T09:23:47Z</time></trkpt><trkpt lat="44.010151717310585" lon="7.950992317492993"><ele>625.0</ele><time>2026-03-29T09:23:48Z</time></trkpt><trkpt lat="44.010078166427235" lon="7.950906841854168"><ele>625.0</ele><time>2026-03-29T09:23:49Z</time></trkpt><trkpt lat="44.00998460782906" lon="7.950853081454157"><ele>625.0</ele><time>2026-03-29T09:23:50Z</time></trkpt><trkpt lat="44.00987981064715" lon="7.95082163097794"><ele>625.0</ele><time>2026-03-29T09:23:51Z</time></trkpt><trkpt lat="44.009773517487496" lon="7.950813275455159"><ele>625.0</ele><time>2026-03-29T09:23:52Z</time></trkpt><trkpt lat="44.00966499307182" lon="7.950791860741761"><ele>625.0</ele><time>2026-03-29T09:23:53Z</time></trkpt><trkpt lat="44.00956232709919" lon="7.950723121789923"><ele>625.0</ele><time>2026-03-29T09:23:54Z</time></trkpt><trkpt lat="44.00946948670388" lon="7.950631290458498"><ele>625.0</ele><time>2026-03-29T09:23:55Z</time></trkpt><trkpt lat="44.009387388058144" lon="7.950512323026699"><ele>625.0</ele><time>2026-03-29T09:23:56Z</time></trkpt><trkpt lat="44.009330471622114" lon="7.950367274637639"><ele>625.0</ele><time>2026-03-29T09:23:57Z</time></trkpt><trkpt lat="44.00930221079055" lon="7.950212487109979"><ele>625.0</ele><time>2026-03-29T09:23:58Z</time></trkpt><trkpt lat="44.00928887388882" lon="7.95005623295776"><ele>625.0</ele><time>2026-03-29T09:23:59Z</time></trkpt><trkpt lat="44.00929736583663" lon="7.949896815296736"><ele>625.0</ele><time>2026-03-29T09:24:00Z</time></trkpt><trkpt lat="44.00933208528878" lon="7.94974089804461"><ele>625.0</ele><time>2026-03-29T09:24:01Z</time></trkpt><trkpt lat="44.00938018004072" lon="7.949590574266644"><ele>625.0</ele><time>2026-03-29T09:24:02Z</time></trkpt><trkpt lat="44.00942681428199" lon="7.94943440277861"><ele>625.0</ele><time>2026-03-29T09:24:03Z</time></trkpt><trkpt lat="44.009463227995816" lon="7.949287334333338"><ele>625.0</ele><time>2026-03-29T09:24:04Z</time></trkpt><trkpt lat="44.009500824503085" lon="7.9491467043511665"><ele>625.0</ele><time>2026-03-29T09:24:05Z</time></trkpt><trkpt lat="44.009544131767086" lon="7.949015619056861"><ele>625.0</ele><time>2026-03-29T09:24:06Z</time></trkpt><trkpt lat="44.00958742787601" lon="7.9488911491241385"><ele>623.6</ele><time>2026-03-29T09:24:07Z</time></trkpt><trkpt lat="44.00961078881944" lon="7.948771648732269"><ele>622.2</ele><time>2026-03-29T09:24:08Z</time></trkpt><trkpt lat="44.00959736908528" lon="7.94865778223539"><ele>620.8</ele><time>2026-03-29T09:24:09Z</time></trkpt><trkpt lat="44.00954113975051" lon="7.948567536770256"><ele>619.4</ele><time>2026-03-29T09:24:10Z</time></trkpt><trkpt lat="44.0094470817087" lon="7.948516826813392"><ele>618.0</ele><time>2026-03-29T09:24:11Z</time></trkpt><trkpt lat="44.00934185473909" lon="7.948519313506695"><ele>618.0</ele><time>2026-03-29T09:24:12Z</time></trkpt><trkpt lat="44.009228980422876" lon="7.948545917641524"><ele>618.0</ele><time>2026-03-29T09:24:13Z</time></trkpt><trkpt lat="44.009115128850794" lon="7.948564685323725"><ele>618.0</ele><time>2026-03-29T09:24:14Z</time></trkpt><trkpt lat="44.008998434243956" lon="7.948567503143454"><ele>618.0</ele><time>2026-03-29T09:24:15Z</time></trkpt><trkpt lat="44.00888254472203" lon="7.948560435534495"><ele>622.5</ele><time>2026-03-29T09:24:16Z</time></trkpt><trkpt lat="44.00876781347714" lon="7.948549347555908"><ele>627.0</ele><time>2026-03-29T09:24:17Z</time></trkpt><trkpt lat="44.00865344508235" lon="7.948534383706764"><ele>631.5</ele><time>2026-03-29T09:24:18Z</time></trkpt><trkpt lat="44.00853930658611" lon="7.94852220161348"><ele>636.0</ele><time>2026-03-29T09:24:19Z</time></trkpt><trkpt lat="44.00843137298986" lon="7.948510133790795"><ele>636.0</ele><time>2026-03-29T09:24:20Z</time></trkpt><trkpt lat="44.008339275829606" lon="7.948488196782063"><ele>636.0</ele><time>2026-03-29T09:24:21Z</time></trkpt><trkpt lat="44.00827128345875" lon="7.9484383996062045"><ele>636.0</ele><time>2026-03-29T09:24:22Z</time></trkpt><trkpt lat="44.008231032183865" lon="7.948342531317708"><ele>636.0</ele><time>2026-03-29T09:24:23Z</time></trkpt><trkpt lat="44.00823029596845" lon="7.948218410435153"><ele>636.0</ele><time>2026-03-29T09:24:24Z</time></trkpt><trkpt lat="44.00824512159264" lon="7.948070906694481"><ele>636.0</ele><time>2026-03-29T09:24:25Z</time></trkpt><trkpt lat="44.0082424160686" lon="7.947915604021131"><ele>635.25</ele><time>2026-03-29T09:24:26Z</time></trkpt><trkpt lat="44.00823076622761" lon="7.947753008726571"><ele>634.5</ele><time>2026-03-29T09:24:27Z</time></trkpt><trkpt lat="44.00821106167898" lon="7.947587776608828"><ele>633.75</ele><time>2026-03-29T09:24:28Z</time></trkpt><trkpt lat="44.008188028617816" lon="7.947439355095736"><ele>633.0</ele><time>2026-03-29T09:24:29Z</time></trkpt><trkpt lat="44.008159023424845" lon="7.9472977614426155"><ele>628.0</ele><time>2026-03-29T09:24:30Z</time></trkpt><trkpt lat="44.008110285677766" lon="7.947177768918381"><ele>623.0</ele><time>2026-03-29T09:24:31Z</time></trkpt><trkpt lat="44.008037820638386" lon="7.947086749582501"><ele>618.0</ele><time>2026-03-29T09:24:32Z</time></trkpt><trkpt lat="44.00793575913594" lon="7.94704190153954"><ele>613.0</ele><time>2026-03-29T09:24:33Z</time></trkpt><trkpt lat="44.007830917739014" lon="7.947049481158768"><ele>608.0</ele><time>2026-03-29T09:24:34Z</time></trkpt><trkpt lat="44.0077149600757" lon="7.94708862697301"><ele>608.0</ele><time>2026-03-29T09:24:35Z</time></trkpt><trkpt lat="44.00761196132836" lon="7.94712082293822"><ele>608.0</ele><time>2026-03-29T09:24:36Z</time></trkpt><trkpt lat="44.00752053899527" lon="7.947137402803826"><ele>608.0</ele><time>2026-03-29T09:24:37Z</time></trkpt><trkpt lat="44.00743341391973" lon="7.947135373512101"><ele>608.0</ele><time>2026-03-29T09:24:38Z</time></trkpt><trkpt lat="44.00734708535668" lon="7.947108372792394"><ele>608.0</ele><time>2026-03-29T09:24:39Z</time></trkpt><trkpt lat="44.00729267317921" lon="7.947002120328366"><ele>611.0</ele><time>2026-03-29T09:24:40Z</time></trkpt><trkpt lat="44.007282958046574" lon="7.946851196355415"><ele>614.0</ele><time>2026-03-29T09:24:41Z</time></trkpt><trkpt lat="44.00733821219548" lon="7.946699162713928"><ele>617.0</ele><time>2026-03-29T09:24:42Z</time></trkpt><trkpt lat="44.00737863534033" lon="7.94654139831243"><ele>620.0</ele><time>2026-03-29T09:24:43Z</time></trkpt><trkpt lat="44.00742594294326" lon="7.946384777758176"><ele>620.0</ele><time>2026-03-29T09:24:44Z</time></trkpt><trkpt lat="44.00747689065229" lon="7.946239179286001"><ele>620.0</ele><time>2026-03-29T09:24:45Z</time></trkpt><trkpt lat="44.00751688495714" lon="7.946085201844549"><ele>620.0</ele><time>2026-03-29T09:24:46Z</time></trkpt><trkpt lat="44.00755258878453" lon="7.945936944665557"><ele>620.0</ele><time>2026-03-29T09:24:47Z</time></trkpt><trkpt lat="44.00756721369393" lon="7.945786163037158"><ele>619.5</ele><time>2026-03-29T09:24:48Z</time></trkpt><trkpt lat="44.00755081738029" lon="7.945630465053157"><ele>619.0</ele><time>2026-03-29T09:24:49Z</time></trkpt><trkpt lat="44.00750175290746" lon="7.945471927776825"><ele>618.5</ele><time>2026-03-29T09:24:50Z</time></trkpt><trkpt lat="44.007484992919" lon="7.945299613573948"><ele>618.0</ele><time>2026-03-29T09:24:51Z</time></trkpt><trkpt lat="44.0074567830877" lon="7.945128949798672"><ele>617.25</ele><time>2026-03-29T09:24:52Z</time></trkpt><trkpt lat="44.007413585126656" lon="7.944958940973604"><ele>616.5</ele><time>2026-03-29T09:24:53Z</time></trkpt><trkpt lat="44.00738291123957" lon="7.944780975626472"><ele>615.75</ele><time>2026-03-29T09:24:54Z</time></trkpt><trkpt lat="44.007367386469014" lon="7.944601063392549"><ele>615.0</ele><time>2026-03-29T09:24:55Z</time></trkpt><trkpt lat="44.00733626973392" lon="7.944426612234312"><ele>615.0</ele><time>2026-03-29T09:24:56Z</time></trkpt><trkpt lat="44.00730975470307" lon="7.944252195370853"><ele>615.0</ele><time>2026-03-29T09:24:57Z</time></trkpt><trkpt lat="44.00728165615664" lon="7.944085193554495"><ele>615.0</ele><time>2026-03-29T09:24:58Z</time></trkpt><trkpt lat="44.007246035740366" lon="7.943924325867202"><ele>615.0</ele><time>2026-03-29T09:24:59Z</time></trkpt><trkpt lat="44.00719226448749" lon="7.943771843614224"><ele>612.0</ele><time>2026-03-29T09:25:00Z</time></trkpt><trkpt lat="44.00710778459995" lon="7.943652461855965"><ele>609.0</ele><time>2026-03-29T09:25:01Z</time></trkpt><trkpt lat="44.007022028099726" lon="7.943531948904348"><ele>606.0</ele><time>2026-03-29T09:25:02Z</time></trkpt><trkpt lat="44.00693755220319" lon="7.943408604185218"><ele>603.0</ele><time>2026-03-29T09:25:03Z</time></trkpt><trkpt lat="44.00683217660952" lon="7.943332082762673"><ele>605.1999999999999</ele><time>2026-03-29T09:25:04Z</time></trkpt><trkpt lat="44.00672628647086" lon="7.943282856496908"><ele>607.4</ele><time>2026-03-29T09:25:05Z</time></trkpt><trkpt lat="44.00664512132885" lon="7.9432362305710775"><ele>609.5999999999999</ele><time>2026-03-29T09:25:06Z</time></trkpt><trkpt lat="44.006580909895504" lon="7.943174078268308"><ele>611.8</ele><time>2026-03-29T09:25:07Z</time></trkpt><trkpt lat="44.006523135661176" lon="7.943096456537263"><ele>614.0</ele><time>2026-03-29T09:25:08Z</time></trkpt><trkpt lat="44.00653554072548" lon="7.942962041615146"><ele>614.0</ele><time>2026-03-29T09:25:09Z</time></trkpt><trkpt lat="44.006578590858794" lon="7.942840331024717"><ele>614.0</ele><time>2026-03-29T09:25:10Z</time></trkpt><trkpt lat="44.00666143209801" lon="7.942756325039778"><ele>614.0</ele><time>2026-03-29T09:25:11Z</time></trkpt><trkpt lat="44.00677645166817" lon="7.942785905593245"><ele>614.0</ele><time>2026-03-29T09:25:12Z</time></trkpt><trkpt lat="44.006902631233544" lon="7.942770155295542"><ele>614.0</ele><time>2026-03-29T09:25:13Z</time></trkpt><trkpt lat="44.00702438445508" lon="7.942754914588019"><ele>605.0</ele><time>2026-03-29T09:25:14Z</time></trkpt><trkpt lat="44.007158566059104" lon="7.942738118144578"><ele>596.0</ele><time>2026-03-29T09:25:15Z</time></trkpt><trkpt lat="44.0072885586996" lon="7.942718840955771"><ele>587.0</ele><time>2026-03-29T09:25:16Z</time></trkpt><trkpt lat="44.007419911171674" lon="7.942677606105858"><ele>578.0</ele><time>2026-03-29T09:25:17Z</time></trkpt><trkpt lat="44.00755733816576" lon="7.942659000937999"><ele>571.25</ele><time>2026-03-29T09:25:18Z</time></trkpt><trkpt lat="44.00769798267335" lon="7.942641163816064"><ele>564.5</ele><time>2026-03-29T09:25:19Z</time></trkpt><trkpt lat="44.00783679167092" lon="7.942620507864527"><ele>557.75</ele><time>2026-03-29T09:25:20Z</time></trkpt><trkpt lat="44.00797655086825" lon="7.942597867043505"><ele>551.0</ele><time>2026-03-29T09:25:21Z</time></trkpt><trkpt lat="44.00811447439983" lon="7.942575520563013"><ele>551.0</ele><time>2026-03-29T09:25:22Z</time></trkpt><trkpt lat="44.008254684927735" lon="7.94255441876829"><ele>551.0</ele><time>2026-03-29T09:25:23Z</time></trkpt><trkpt lat="44.00839456964057" lon="7.942535768107585"><ele>551.0</ele><time>2026-03-29T09:25:24Z</time></trkpt><trkpt lat="44.00853615383913" lon="7.942523600513641"><ele>551.0</ele><time>2026-03-29T09:25:25Z</time></trkpt><trkpt lat="44.0086766365341" lon="7.94251521193807"><ele>553.25</ele><time>2026-03-29T09:25:26Z</time></trkpt><trkpt lat="44.00881329945017" lon="7.94251060301203"><ele>555.5</ele><time>2026-03-29T09:25:27Z</time></trkpt><trkpt lat="44.00894402126137" lon="7.942505884186784"><ele>557.75</ele><time>2026-03-29T09:25:28Z</time></trkpt><trkpt lat="44.00905758895606" lon="7.942483645755263"><ele>560.0</ele><time>2026-03-29T09:25:29Z</time></trkpt><trkpt lat="44.009155190240655" lon="7.94242952521542"><ele>558.0</ele><time>2026-03-29T09:25:30Z</time></trkpt><trkpt lat="44.00922644640562" lon="7.942333766779291"><ele>556.0</ele><time>2026-03-29T09:25:31Z</time></trkpt><trkpt lat="44.0092654360172" lon="7.942197560947319"><ele>554.0</ele><time>2026-03-29T09:25:32Z</time></trkpt><trkpt lat="44.00927613048876" lon="7.942039495567941"><ele>552.0</ele><time>2026-03-29T09:25:33Z</time></trkpt><trkpt lat="44.00926872504558" lon="7.94187238486014"><ele>550.0</ele><time>2026-03-29T09:25:34Z</time></trkpt><trkpt lat="44.00926038675261" lon="7.941700126925886"><ele>550.0</ele><time>2026-03-29T09:25:35Z</time></trkpt><trkpt lat="44.009262887584754" lon="7.9415310151543395"><ele>550.0</ele><time>2026-03-29T09:25:36Z</time></trkpt><trkpt lat="44.00925194775551" lon="7.941360846639476"><ele>550.0</ele><time>2026-03-29T09:25:37Z</time></trkpt><trkpt lat="44.00923411959074" lon="7.941191469720307"><ele>550.0</ele><time>2026-03-29T09:25:38Z</time></trkpt><trkpt lat="44.00921456157613" lon="7.941024101889322"><ele>549.8</ele><time>2026-03-29T09:25:39Z</time></trkpt><trkpt lat="44.00919924835182" lon="7.940861277240697"><ele>549.6</ele><time>2026-03-29T09:25:40Z</time></trkpt><trkpt lat="44.00919837031098" lon="7.940706608736426"><ele>549.4</ele><time>2026-03-29T09:25:41Z</time></trkpt><trkpt lat="44.00921524181786" lon="7.940556896352222"><ele>549.2</ele><time>2026-03-29T09:25:42Z</time></trkpt><trkpt lat="44.009241359773235" lon="7.9404108711718875"><ele>549.0</ele><time>2026-03-29T09:25:43Z</time></trkpt><trkpt lat="44.00927102940207" lon="7.940268580162829"><ele>549.0</ele><time>2026-03-29T09:25:44Z</time></trkpt><trkpt lat="44.00931296267146" lon="7.9401395576077896"><ele>549.0</ele><time>2026-03-29T09:25:45Z</time></trkpt><trkpt lat="44.009380269797916" lon="7.940039086636909"><ele>549.0</ele><time>2026-03-29T09:25:46Z</time></trkpt><trkpt lat="44.0094714526212" lon="7.939991581568946"><ele>549.0</ele><time>2026-03-29T09:25:47Z</time></trkpt><trkpt lat="44.0095697963076" lon="7.9400532704734275"><ele>549.0</ele><time>2026-03-29T09:25:48Z</time></trkpt><trkpt lat="44.009630306894884" lon="7.940161580622287"><ele>549.0</ele><time>2026-03-29T09:25:49Z</time></trkpt><trkpt lat="44.0097100514972" lon="7.940282492467065"><ele>549.0</ele><time>2026-03-29T09:25:50Z</time></trkpt><trkpt lat="44.00980438359247" lon="7.940407653640288"><ele>549.0</ele><time>2026-03-29T09:25:51Z</time></trkpt><trkpt lat="44.009913634314096" lon="7.94051184636126"><ele>549.0</ele><time>2026-03-29T09:25:52Z</time></trkpt><trkpt lat="44.010026107741965" lon="7.940594395335318"><ele>544.5</ele><time>2026-03-29T09:25:53Z</time></trkpt><trkpt lat="44.01014557719273" lon="7.940667419168687"><ele>540.0</ele><time>2026-03-29T09:25:54Z</time></trkpt><trkpt lat="44.01026807246483" lon="7.940717645355796"><ele>535.5</ele><time>2026-03-29T09:25:55Z</time></trkpt><trkpt lat="44.01036278937895" lon="7.940829785041899"><ele>531.0</ele><time>2026-03-29T09:25:56Z</time></trkpt><trkpt lat="44.010464058310355" lon="7.9409371172201055"><ele>527.0</ele><time>2026-03-29T09:25:57Z</time></trkpt><trkpt lat="44.01056581992557" lon="7.941050692643685"><ele>523.0</ele><time>2026-03-29T09:25:58Z</time></trkpt><trkpt lat="44.01066879386909" lon="7.941164972983273"><ele>519.0</ele><time>2026-03-29T09:25:59Z</time></trkpt><trkpt lat="44.010789148311176" lon="7.94124939690827"><ele>515.0</ele><time>2026-03-29T09:26:00Z</time></trkpt><trkpt lat="44.01089811922175" lon="7.94135040658678"><ele>514.5</ele><time>2026-03-29T09:26:01Z</time></trkpt><trkpt lat="44.0110213012314" lon="7.941400099353696"><ele>514.0</ele><time>2026-03-29T09:26:02Z</time></trkpt><trkpt lat="44.01113542227275" lon="7.941450574574499"><ele>513.5</ele><time>2026-03-29T09:26:03Z</time></trkpt><trkpt lat="44.01125003180015" lon="7.941468808675724"><ele>513.0</ele><time>2026-03-29T09:26:04Z</time></trkpt><trkpt lat="44.011358176730084" lon="7.941438189545738"><ele>513.0</ele><time>2026-03-29T09:26:05Z</time></trkpt><trkpt lat="44.01145111414357" lon="7.941357477439312"><ele>513.0</ele><time>2026-03-29T09:26:06Z</time></trkpt><trkpt lat="44.011530197554194" lon="7.941230010613282"><ele>513.0</ele><time>2026-03-29T09:26:07Z</time></trkpt><trkpt lat="44.011620329909164" lon="7.941117157946811"><ele>513.0</ele><time>2026-03-29T09:26:08Z</time></trkpt><trkpt lat="44.011725483604856" lon="7.941020922415603"><ele>511.0</ele><time>2026-03-29T09:26:09Z</time></trkpt><trkpt lat="44.01183952931938" lon="7.940945319518971"><ele>509.0</ele><time>2026-03-29T09:26:10Z</time></trkpt><trkpt lat="44.01195932147756" lon="7.940876692017533"><ele>507.0</ele><time>2026-03-29T09:26:11Z</time></trkpt><trkpt lat="44.01207532264201" lon="7.940809608999338"><ele>505.0</ele><time>2026-03-29T09:26:12Z</time></trkpt><trkpt lat="44.01219121641222" lon="7.94075063659728"><ele>505.0</ele><time>2026-03-29T09:26:13Z</time></trkpt><trkpt lat="44.01230661849387" lon="7.9407057791562305"><ele>505.0</ele><time>2026-03-29T09:26:14Z</time></trkpt><trkpt lat="44.01241975436436" lon="7.940690602167621"><ele>505.0</ele><time>2026-03-29T09:26:15Z</time></trkpt><trkpt lat="44.01253458588009" lon="7.940700813382796"><ele>505.0</ele><time>2026-03-29T09:26:16Z</time></trkpt><trkpt lat="44.01264674846559" lon="7.940713630677646"><ele>505.0</ele><time>2026-03-29T09:26:17Z</time></trkpt><trkpt lat="44.01275164524066" lon="7.940694019025744"><ele>505.0</ele><time>2026-03-29T09:26:18Z</time></trkpt><trkpt lat="44.012842591003455" lon="7.940624329265349"><ele>505.0</ele><time>2026-03-29T09:26:19Z</time></trkpt><trkpt lat="44.01289670770119" lon="7.9405128280035715"><ele>505.0</ele><time>2026-03-29T09:26:20Z</time></trkpt><trkpt lat="44.01292440630789" lon="7.940399720804161"><ele>505.0</ele><time>2026-03-29T09:26:21Z</time></trkpt><trkpt lat="44.01291909742119" lon="7.940279576736957"><ele>505.00000000000006</ele><time>2026-03-29T09:26:22Z</time></trkpt><trkpt lat="44.0128983335349" lon="7.940170721345403"><ele>505.0</ele><time>2026-03-29T09:26:23Z</time></trkpt><trkpt lat="44.01287423588154" lon="7.940063437731404"><ele>505.0</ele><time>2026-03-29T09:26:24Z</time></trkpt><trkpt lat="44.01286236336839" lon="7.939958069538716"><ele>505.0</ele><time>2026-03-29T09:26:25Z</time></trkpt><trkpt lat="44.012865231335546" lon="7.939853882767402"><ele>505.00000000000006</ele><time>2026-03-29T09:26:26Z</time></trkpt><trkpt lat="44.01290049399158" lon="7.939764260268054"><ele>505.0</ele><time>2026-03-29T09:26:27Z</time></trkpt><trkpt lat="44.012957649323205" lon="7.939685277928501"><ele>505.8</ele><time>2026-03-29T09:26:29Z</time></trkpt><trkpt lat="44.01287909528204" lon="7.939576218004679"><ele>506.6</ele><time>2026-03-29T09:26:32Z</time></trkpt><trkpt lat="44.01270315659377" lon="7.939517290798973"><ele>507.4</ele><time>2026-03-29T09:26:33Z</time></trkpt><trkpt lat="44.0126354453827" lon="7.93951276770926"><ele>508.2</ele><time>2026-03-29T09:26:34Z</time></trkpt><trkpt lat="44.01256594494633" lon="7.93944945098003"><ele>509.0</ele><time>2026-03-29T09:26:36Z</time></trkpt><trkpt lat="44.01261013785648" lon="7.939329723010657"><ele>508.99999999999994</ele><time>2026-03-29T09:26:38Z</time></trkpt><trkpt lat="44.01267659548079" lon="7.939289991394606"><ele>509.0</ele><time>2026-03-29T09:26:39Z</time></trkpt><trkpt lat="44.01274693200495" lon="7.9392393852988175"><ele>509.0</ele><time>2026-03-29T09:26:40Z</time></trkpt><trkpt lat="44.01281547221792" lon="7.939163633320526"><ele>509.0</ele><time>2026-03-29T09:26:41Z</time></trkpt><trkpt lat="44.01286592625347" lon="7.9390579313934815"><ele>508.99999999999994</ele><time>2026-03-29T09:26:42Z</time></trkpt><trkpt lat="44.01289527763259" lon="7.9389371305201974"><ele>509.0</ele><time>2026-03-29T09:26:43Z</time></trkpt><trkpt lat="44.01289827924463" lon="7.938811897402683"><ele>511.0</ele><time>2026-03-29T09:26:44Z</time></trkpt><trkpt lat="44.01288056703677" lon="7.938679806406566"><ele>513.0</ele><time>2026-03-29T09:26:45Z</time></trkpt><trkpt lat="44.01286381808072" lon="7.93853135041541"><ele>515.0</ele><time>2026-03-29T09:26:46Z</time></trkpt><trkpt lat="44.01286254927581" lon="7.938371545611765"><ele>517.0</ele><time>2026-03-29T09:26:47Z</time></trkpt><trkpt lat="44.01286653390946" lon="7.938213009734249"><ele>519.0</ele><time>2026-03-29T09:26:48Z</time></trkpt><trkpt lat="44.01287097794196" lon="7.938055072307602"><ele>522.6</ele><time>2026-03-29T09:26:49Z</time></trkpt><trkpt lat="44.01286934779356" lon="7.9379361518187865"><ele>526.2</ele><time>2026-03-29T09:26:50Z</time></trkpt><trkpt lat="44.01295042581546" lon="7.937826932124027"><ele>529.8000000000001</ele><time>2026-03-29T09:26:52Z</time></trkpt><trkpt lat="44.01303176846069" lon="7.937797698754263"><ele>533.4</ele><time>2026-03-29T09:26:53Z</time></trkpt><trkpt lat="44.013128850057605" lon="7.937790483803767"><ele>537.0</ele><time>2026-03-29T09:26:54Z</time></trkpt><trkpt lat="44.01321202414284" lon="7.937813653649369"><ele>537.0</ele><time>2026-03-29T09:26:55Z</time></trkpt><trkpt lat="44.013294531596515" lon="7.937737564309742"><ele>537.0</ele><time>2026-03-29T09:26:57Z</time></trkpt><trkpt lat="44.01328902884038" lon="7.937622053642405"><ele>537.0</ele><time>2026-03-29T09:26:58Z</time></trkpt><trkpt lat="44.01325971607069" lon="7.937497280949248"><ele>537.0</ele><time>2026-03-29T09:26:59Z</time></trkpt><trkpt lat="44.01323780799348" lon="7.937367327407258"><ele>537.0</ele><time>2026-03-29T09:27:00Z</time></trkpt><trkpt lat="44.01324317566573" lon="7.937230917711431"><ele>539.5</ele><time>2026-03-29T09:27:01Z</time></trkpt><trkpt lat="44.013260513627046" lon="7.93708980194162"><ele>542.0</ele><time>2026-03-29T09:27:02Z</time></trkpt><trkpt lat="44.01326393266121" lon="7.9369696675294135"><ele>544.5</ele><time>2026-03-29T09:27:03Z</time></trkpt><trkpt lat="44.01321793629522" lon="7.936863049809281"><ele>547.0</ele><time>2026-03-29T09:27:05Z</time></trkpt><trkpt lat="44.01312877065465" lon="7.936900952728916"><ele>549.5</ele><time>2026-03-29T09:27:07Z</time></trkpt><trkpt lat="44.013072380399876" lon="7.936959653561948"><ele>552.0</ele><time>2026-03-29T09:27:08Z</time></trkpt><trkpt lat="44.013047065739904" lon="7.937070529949591"><ele>552.0</ele><time>2026-03-29T09:27:09Z</time></trkpt><trkpt lat="44.01302943083237" lon="7.937178139027605"><ele>552.0</ele><time>2026-03-29T09:27:10Z</time></trkpt><trkpt lat="44.01300340347171" lon="7.937274930015671"><ele>552.0</ele><time>2026-03-29T09:27:11Z</time></trkpt><trkpt lat="44.01298796057731" lon="7.937360574191803"><ele>552.0</ele><time>2026-03-29T09:27:13Z</time></trkpt><trkpt lat="44.012919217683795" lon="7.937319475629483"><ele>552.0</ele><time>2026-03-29T09:27:15Z</time></trkpt><trkpt lat="44.01285725352655" lon="7.937184357886626"><ele>552.0</ele><time>2026-03-29T09:27:17Z</time></trkpt><trkpt lat="44.01286442126575" lon="7.937093344020038"><ele>552.0</ele><time>2026-03-29T09:27:18Z</time></trkpt><trkpt lat="44.012867438782166" lon="7.936989490583301"><ele>552.0</ele><time>2026-03-29T09:27:19Z</time></trkpt><trkpt lat="44.01285714155542" lon="7.93685608265255"><ele>552.0</ele><time>2026-03-29T09:27:20Z</time></trkpt><trkpt lat="44.012849004809084" lon="7.936701362222775"><ele>552.0</ele><time>2026-03-29T09:27:21Z</time></trkpt><trkpt lat="44.012844941537274" lon="7.936566149759318"><ele>552.0</ele><time>2026-03-29T09:27:22Z</time></trkpt><trkpt lat="44.01291206158634" lon="7.9364432964003715"><ele>555.6</ele><time>2026-03-29T09:27:23Z</time></trkpt><trkpt lat="44.01298385155024" lon="7.93634364134587"><ele>559.2</ele><time>2026-03-29T09:27:24Z</time></trkpt><trkpt lat="44.01305764775137" lon="7.936259428937794"><ele>562.8</ele><time>2026-03-29T09:27:25Z</time></trkpt><trkpt lat="44.01314332592337" lon="7.936224602509354"><ele>566.4</ele><time>2026-03-29T09:27:26Z</time></trkpt><trkpt lat="44.013226343267206" lon="7.936221340047198"><ele>570.0</ele><time>2026-03-29T09:27:27Z</time></trkpt><trkpt lat="44.01331750148643" lon="7.936245205240987"><ele>563.25</ele><time>2026-03-29T09:27:28Z</time></trkpt><trkpt lat="44.013415901617506" lon="7.936282865675672"><ele>556.5</ele><time>2026-03-29T09:27:29Z</time></trkpt><trkpt lat="44.01353589297666" lon="7.936301257227661"><ele>549.75</ele><time>2026-03-29T09:27:30Z</time></trkpt><trkpt lat="44.013663205330374" lon="7.936304700013736"><ele>543.0</ele><time>2026-03-29T09:27:31Z</time></trkpt><trkpt lat="44.013788580531376" lon="7.936293827242406"><ele>543.0</ele><time>2026-03-29T09:27:32Z</time></trkpt><trkpt lat="44.013893904396234" lon="7.936261248154441"><ele>543.0</ele><time>2026-03-29T09:27:33Z</time></trkpt><trkpt lat="44.01398788074251" lon="7.936202051754552"><ele>543.0</ele><time>2026-03-29T09:27:34Z</time></trkpt><trkpt lat="44.01409746341879" lon="7.936130784657019"><ele>543.0</ele><time>2026-03-29T09:27:35Z</time></trkpt><trkpt lat="44.014213333774954" lon="7.936063359482024"><ele>544.4</ele><time>2026-03-29T09:27:36Z</time></trkpt><trkpt lat="44.01432727468908" lon="7.936007716622929"><ele>545.8</ele><time>2026-03-29T09:27:37Z</time></trkpt><trkpt lat="44.01443552959188" lon="7.935980372939462"><ele>547.2</ele><time>2026-03-29T09:27:38Z</time></trkpt><trkpt lat="44.01455352010382" lon="7.935955090158503"><ele>548.6</ele><time>2026-03-29T09:27:39Z</time></trkpt><trkpt lat="44.01464193269464" lon="7.9359334391755505"><ele>550.0</ele><time>2026-03-29T09:27:40Z</time></trkpt><trkpt lat="44.01472043425187" lon="7.935892448400556"><ele>552.2</ele><time>2026-03-29T09:27:41Z</time></trkpt><trkpt lat="44.014783125511514" lon="7.935820614472481"><ele>554.4</ele><time>2026-03-29T09:27:42Z</time></trkpt><trkpt lat="44.014833103529725" lon="7.935710951925433"><ele>556.6</ele><time>2026-03-29T09:27:43Z</time></trkpt><trkpt lat="44.01490215318362" lon="7.935607926257644"><ele>558.8</ele><time>2026-03-29T09:27:44Z</time></trkpt><trkpt lat="44.014981994153786" lon="7.935522976542342"><ele>561.0</ele><time>2026-03-29T09:27:45Z</time></trkpt><trkpt lat="44.01504696023088" lon="7.935426169810946"><ele>561.0</ele><time>2026-03-29T09:27:46Z</time></trkpt><trkpt lat="44.015111526088" lon="7.935315564541444"><ele>561.0</ele><time>2026-03-29T09:27:47Z</time></trkpt><trkpt lat="44.01516632804071" lon="7.93520812161523"><ele>561.0</ele><time>2026-03-29T09:27:48Z</time></trkpt><trkpt lat="44.015203663462444" lon="7.935090497065732"><ele>561.0</ele><time>2026-03-29T09:27:49Z</time></trkpt><trkpt lat="44.015238879280105" lon="7.934952417034339"><ele>561.0</ele><time>2026-03-29T09:27:50Z</time></trkpt><trkpt lat="44.01526758485416" lon="7.934805516740935"><ele>564.6</ele><time>2026-03-29T09:27:51Z</time></trkpt><trkpt lat="44.015308060533634" lon="7.93468097227325"><ele>568.2</ele><time>2026-03-29T09:27:52Z</time></trkpt><trkpt lat="44.015380274127345" lon="7.9345657759363295"><ele>571.8</ele><time>2026-03-29T09:27:53Z</time></trkpt><trkpt lat="44.01547823492028" lon="7.934471103002924"><ele>575.4</ele><time>2026-03-29T09:27:54Z</time></trkpt><trkpt lat="44.01557675145335" lon="7.934390842822871"><ele>579.0</ele><time>2026-03-29T09:27:55Z</time></trkpt><trkpt lat="44.015665586699996" lon="7.934339457674752"><ele>579.0</ele><time>2026-03-29T09:27:56Z</time></trkpt><trkpt lat="44.01572451907296" lon="7.934301551442889"><ele>579.0</ele><time>2026-03-29T09:27:57Z</time></trkpt><trkpt lat="44.01579646409075" lon="7.934216021936581"><ele>579.0</ele><time>2026-03-29T09:27:58Z</time></trkpt><trkpt lat="44.01584380090657" lon="7.934111777248151"><ele>579.0</ele><time>2026-03-29T09:27:59Z</time></trkpt><trkpt lat="44.01586899298443" lon="7.9339977461439535"><ele>579.0</ele><time>2026-03-29T09:28:00Z</time></trkpt><trkpt lat="44.015916626479424" lon="7.933901504517161"><ele>579.0</ele><time>2026-03-29T09:28:01Z</time></trkpt><trkpt lat="44.015983733966266" lon="7.93383023407469"><ele>579.1666666666666</ele><time>2026-03-29T09:28:02Z</time></trkpt><trkpt lat="44.01604685183343" lon="7.9337907151615505"><ele>579.3333333333334</ele><time>2026-03-29T09:28:03Z</time></trkpt><trkpt lat="44.01607242607396" lon="7.933697329860705"><ele>579.5</ele><time>2026-03-29T09:28:05Z</time></trkpt><trkpt lat="44.01596258123019" lon="7.93359971593352"><ele>579.6666666666667</ele><time>2026-03-29T09:28:07Z</time></trkpt><trkpt lat="44.01589643244403" lon="7.933621408935238"><ele>579.8333333333334</ele><time>2026-03-29T09:28:08Z</time></trkpt><trkpt lat="44.01584827468521" lon="7.933686495283004"><ele>580.0</ele><time>2026-03-29T09:28:09Z</time></trkpt><trkpt lat="44.015802335845244" lon="7.933760579707679"><ele>583.1666666666667</ele><time>2026-03-29T09:28:10Z</time></trkpt><trkpt lat="44.01573931153136" lon="7.933863176943709"><ele>586.3333333333334</ele><time>2026-03-29T09:28:11Z</time></trkpt><trkpt lat="44.015675759642505" lon="7.933953331655694"><ele>589.5</ele><time>2026-03-29T09:28:12Z</time></trkpt><trkpt lat="44.01560771618817" lon="7.934010541643714"><ele>592.6666666666666</ele><time>2026-03-29T09:28:13Z</time></trkpt><trkpt lat="44.01553691912646" lon="7.933955203991999"><ele>595.8333333333333</ele><time>2026-03-29T09:28:15Z</time></trkpt><trkpt lat="44.01552758698502" lon="7.933825929572629"><ele>599.0</ele><time>2026-03-29T09:28:17Z</time></trkpt><trkpt lat="44.0155564613699" lon="7.933743873876711"><ele>599.0</ele><time>2026-03-29T09:28:18Z</time></trkpt><trkpt lat="44.0156017000697" lon="7.933670270923585"><ele>599.0</ele><time>2026-03-29T09:28:19Z</time></trkpt><trkpt lat="44.01566695093936" lon="7.933588033515925"><ele>599.0</ele><time>2026-03-29T09:28:20Z</time></trkpt><trkpt lat="44.015722278120045" lon="7.9334890801370435"><ele>599.0</ele><time>2026-03-29T09:28:21Z</time></trkpt><trkpt lat="44.01577688047715" lon="7.933384529773193"><ele>599.0</ele><time>2026-03-29T09:28:22Z</time></trkpt><trkpt lat="44.015820230578974" lon="7.933261480376515"><ele>599.0</ele><time>2026-03-29T09:28:23Z</time></trkpt><trkpt lat="44.01588909115498" lon="7.933172817136961"><ele>598.8</ele><time>2026-03-29T09:28:24Z</time></trkpt><trkpt lat="44.01598707405251" lon="7.933134813477816"><ele>598.5999999999999</ele><time>2026-03-29T09:28:25Z</time></trkpt><trkpt lat="44.016088657803735" lon="7.933110047388891"><ele>598.4</ele><time>2026-03-29T09:28:26Z</time></trkpt><trkpt lat="44.01616574858084" lon="7.933078665924503"><ele>598.1999999999999</ele><time>2026-03-29T09:28:27Z</time></trkpt><trkpt lat="44.016257298875054" lon="7.933038436773099"><ele>598.0</ele><time>2026-03-29T09:28:28Z</time></trkpt><trkpt lat="44.01634697924238" lon="7.932986603372907"><ele>598.0</ele><time>2026-03-29T09:28:29Z</time></trkpt><trkpt lat="44.01643750579759" lon="7.9329495100129925"><ele>598.0</ele><time>2026-03-29T09:28:30Z</time></trkpt><trkpt lat="44.016531411189" lon="7.932948729140155"><ele>598.0</ele><time>2026-03-29T09:28:31Z</time></trkpt><trkpt lat="44.016622569759306" lon="7.932974863828231"><ele>598.0</ele><time>2026-03-29T09:28:32Z</time></trkpt><trkpt lat="44.01669501879007" lon="7.932987942465656"><ele>598.0</ele><time>2026-03-29T09:28:33Z</time></trkpt><trkpt lat="44.01676799966803" lon="7.932882443703913"><ele>596.0</ele><time>2026-03-29T09:28:35Z</time></trkpt><trkpt lat="44.01680013141254" lon="7.9327941614811515"><ele>594.0</ele><time>2026-03-29T09:28:36Z</time></trkpt><trkpt lat="44.016833010030645" lon="7.9326841690500745"><ele>592.0</ele><time>2026-03-29T09:28:37Z</time></trkpt><trkpt lat="44.016883888684944" lon="7.932576154927312"><ele>590.0</ele><time>2026-03-29T09:28:38Z</time></trkpt><trkpt lat="44.016955347325904" lon="7.932470649483532"><ele>588.0</ele><time>2026-03-29T09:28:39Z</time></trkpt><trkpt lat="44.01701888147106" lon="7.932349158346428"><ele>591.5</ele><time>2026-03-29T09:28:40Z</time></trkpt><trkpt lat="44.01708418759934" lon="7.932247300444579"><ele>595.0</ele><time>2026-03-29T09:28:41Z</time></trkpt><trkpt lat="44.01709185564391" lon="7.932120213158163"><ele>598.5</ele><time>2026-03-29T09:28:43Z</time></trkpt><trkpt lat="44.01707044577262" lon="7.932007363264577"><ele>602.0</ele><time>2026-03-29T09:28:44Z</time></trkpt><trkpt lat="44.017065108421264" lon="7.931888283237898"><ele>605.5</ele><time>2026-03-29T09:28:45Z</time></trkpt><trkpt lat="44.01706476603411" lon="7.931789447530986"><ele>609.0</ele><time>2026-03-29T09:28:46Z</time></trkpt><trkpt lat="44.017130404930334" lon="7.931715196967467"><ele>609.0</ele><time>2026-03-29T09:28:48Z</time></trkpt><trkpt lat="44.01726538938395" lon="7.931736998191806"><ele>609.0</ele><time>2026-03-29T09:28:50Z</time></trkpt><trkpt lat="44.01735015556185" lon="7.9317597764289465"><ele>609.0</ele><time>2026-03-29T09:28:51Z</time></trkpt><trkpt lat="44.01743356805373" lon="7.931731099168945"><ele>609.0</ele><time>2026-03-29T09:28:52Z</time></trkpt><trkpt lat="44.01748848608474" lon="7.931682067181268"><ele>609.0</ele><time>2026-03-29T09:28:53Z</time></trkpt><trkpt lat="44.017492029653845" lon="7.9315854824941985"><ele>609.0</ele><time>2026-03-29T09:28:55Z</time></trkpt><trkpt lat="44.017426991040026" lon="7.931473000849771"><ele>611.0</ele><time>2026-03-29T09:28:57Z</time></trkpt><trkpt lat="44.01738035799682" lon="7.931412004098233"><ele>613.0</ele><time>2026-03-29T09:28:58Z</time></trkpt><trkpt lat="44.01730296450042" lon="7.931389437864626"><ele>615.0</ele><time>2026-03-29T09:28:59Z</time></trkpt><trkpt lat="44.01721831792163" lon="7.931367415435258"><ele>617.0</ele><time>2026-03-29T09:29:00Z</time></trkpt><trkpt lat="44.017096222957896" lon="7.931367523425107"><ele>619.0</ele><time>2026-03-29T09:29:01Z</time></trkpt><trkpt lat="44.01700261060318" lon="7.931404324099122"><ele>621.0</ele><time>2026-03-29T09:29:02Z</time></trkpt><trkpt lat="44.01693138211101" lon="7.931463300707663"><ele>621.0</ele><time>2026-03-29T09:29:03Z</time></trkpt><trkpt lat="44.016841376140704" lon="7.931544768726361"><ele>621.0</ele><time>2026-03-29T09:29:04Z</time></trkpt><trkpt lat="44.01675493491481" lon="7.931615039507733"><ele>621.0</ele><time>2026-03-29T09:29:05Z</time></trkpt><trkpt lat="44.01667327644278" lon="7.931643986697213"><ele>621.0</ele><time>2026-03-29T09:29:06Z</time></trkpt><trkpt lat="44.01657461033189" lon="7.931620403871263"><ele>621.0</ele><time>2026-03-29T09:29:08Z</time></trkpt><trkpt lat="44.01654656555674" lon="7.931474711371716"><ele>621.0</ele><time>2026-03-29T09:29:10Z</time></trkpt><trkpt lat="44.016582071474495" lon="7.931391725327901"><ele>621.0</ele><time>2026-03-29T09:29:12Z</time></trkpt><trkpt lat="44.01664526764825" lon="7.931381291993557"><ele>621.0</ele><time>2026-03-29T09:29:13Z</time></trkpt><trkpt lat="44.01673069516506" lon="7.931358896019603"><ele>621.0</ele><time>2026-03-29T09:29:14Z</time></trkpt><trkpt lat="44.01683747972943" lon="7.9313109232075485"><ele>621.0</ele><time>2026-03-29T09:29:15Z</time></trkpt><trkpt lat="44.01693035751628" lon="7.93123720282369"><ele>621.0</ele><time>2026-03-29T09:29:16Z</time></trkpt><trkpt lat="44.017007026325224" lon="7.931108456916015"><ele>621.0</ele><time>2026-03-29T09:29:17Z</time></trkpt><trkpt lat="44.01709831223523" lon="7.930979414170789"><ele>621.0</ele><time>2026-03-29T09:29:18Z</time></trkpt><trkpt lat="44.01718678457298" lon="7.930912532578905"><ele>621.0</ele><time>2026-03-29T09:29:19Z</time></trkpt><trkpt lat="44.017279935822444" lon="7.9309096578474945"><ele>621.0</ele><time>2026-03-29T09:29:20Z</time></trkpt><trkpt lat="44.01736298408881" lon="7.930934926260873"><ele>621.0</ele><time>2026-03-29T09:29:21Z</time></trkpt><trkpt lat="44.01743563204167" lon="7.930952752072581"><ele>624.2</ele><time>2026-03-29T09:29:22Z</time></trkpt><trkpt lat="44.01753547222911" lon="7.930831987299003"><ele>627.4000000000001</ele><time>2026-03-29T09:29:24Z</time></trkpt><trkpt lat="44.017583194783015" lon="7.930739334918898"><ele>630.6</ele><time>2026-03-29T09:29:25Z</time></trkpt><trkpt lat="44.01764328782489" lon="7.930659129481232"><ele>633.8000000000001</ele><time>2026-03-29T09:29:26Z</time></trkpt><trkpt lat="44.01770440996307" lon="7.930603207487654"><ele>637.0</ele><time>2026-03-29T09:29:28Z</time></trkpt><trkpt lat="44.01779479444689" lon="7.930640833341113"><ele>637.0</ele><time>2026-03-29T09:29:30Z</time></trkpt><trkpt lat="44.0178540683669" lon="7.9307258786497306"><ele>637.0</ele><time>2026-03-29T09:29:31Z</time></trkpt><trkpt lat="44.0179234349535" lon="7.93080477146091"><ele>637.0</ele><time>2026-03-29T09:29:32Z</time></trkpt><trkpt lat="44.01801019718259" lon="7.930891325747247"><ele>637.0</ele><time>2026-03-29T09:29:33Z</time></trkpt><trkpt lat="44.018103328154645" lon="7.930963851299282"><ele>637.0</ele><time>2026-03-29T09:29:34Z</time></trkpt><trkpt lat="44.018180243774026" lon="7.931061089937332"><ele>635.8000000000001</ele><time>2026-03-29T09:29:35Z</time></trkpt><trkpt lat="44.01824440231037" lon="7.931138043527313"><ele>634.6</ele><time>2026-03-29T09:29:36Z</time></trkpt><trkpt lat="44.01831602061252" lon="7.931262902086958"><ele>633.4000000000001</ele><time>2026-03-29T09:29:37Z</time></trkpt><trkpt lat="44.01837874873814" lon="7.93138980009641"><ele>632.2</ele><time>2026-03-29T09:29:38Z</time></trkpt><trkpt lat="44.01844497728644" lon="7.931530453408215"><ele>631.0</ele><time>2026-03-29T09:29:39Z</time></trkpt><trkpt lat="44.01850709766077" lon="7.931665646341092"><ele>631.0</ele><time>2026-03-29T09:29:40Z</time></trkpt><trkpt lat="44.0185481696562" lon="7.931756403155138"><ele>631.0</ele><time>2026-03-29T09:29:41Z</time></trkpt><trkpt lat="44.01863170519408" lon="7.9317824298058826"><ele>631.0</ele><time>2026-03-29T09:29:43Z</time></trkpt><trkpt lat="44.018683473766764" lon="7.931727816024694"><ele>631.0</ele><time>2026-03-29T09:29:44Z</time></trkpt><trkpt lat="44.01874488294387" lon="7.931616319449683"><ele>631.0</ele><time>2026-03-29T09:29:45Z</time></trkpt><trkpt lat="44.01879088093283" lon="7.93150635077542"><ele>631.0</ele><time>2026-03-29T09:29:46Z</time></trkpt><trkpt lat="44.01883837117763" lon="7.931395729980264"><ele>631.0</ele><time>2026-03-29T09:29:47Z</time></trkpt><trkpt lat="44.01888919899039" lon="7.931269467129553"><ele>631.0</ele><time>2026-03-29T09:29:48Z</time></trkpt><trkpt lat="44.018890397545896" lon="7.931122130896193"><ele>631.0</ele><time>2026-03-29T09:29:49Z</time></trkpt><trkpt lat="44.01888178557956" lon="7.93098631803379"><ele>631.0</ele><time>2026-03-29T09:29:50Z</time></trkpt><trkpt lat="44.01887580057525" lon="7.93085485011997"><ele>631.0</ele><time>2026-03-29T09:29:51Z</time></trkpt><trkpt lat="44.01888006471565" lon="7.930719281664311"><ele>633.8</ele><time>2026-03-29T09:29:52Z</time></trkpt><trkpt lat="44.01891047234914" lon="7.9305724128111414"><ele>636.6</ele><time>2026-03-29T09:29:53Z</time></trkpt><trkpt lat="44.01894826941538" lon="7.93047285219588"><ele>639.4</ele><time>2026-03-29T09:29:54Z</time></trkpt><trkpt lat="44.0189877845414" lon="7.930394273209619"><ele>642.2</ele><time>2026-03-29T09:29:55Z</time></trkpt><trkpt lat="44.01910473829778" lon="7.930388807374118"><ele>645.0</ele><time>2026-03-29T09:29:57Z</time></trkpt><trkpt lat="44.01916579513558" lon="7.930460781312308"><ele>645.6</ele><time>2026-03-29T09:29:58Z</time></trkpt><trkpt lat="44.01923907524111" lon="7.930573049029773"><ele>646.2</ele><time>2026-03-29T09:29:59Z</time></trkpt><trkpt lat="44.01928975305868" lon="7.930674102004898"><ele>646.8</ele><time>2026-03-29T09:30:00Z</time></trkpt><trkpt lat="44.01934542023764" lon="7.930752488750072"><ele>647.4</ele><time>2026-03-29T09:30:01Z</time></trkpt><trkpt lat="44.01944212229168" lon="7.9308165103725745"><ele>648.0</ele><time>2026-03-29T09:30:02Z</time></trkpt><trkpt lat="44.019546428119064" lon="7.930832870923184"><ele>648.0</ele><time>2026-03-29T09:30:03Z</time></trkpt><trkpt lat="44.01966460398004" lon="7.930825621184605"><ele>648.0</ele><time>2026-03-29T09:30:04Z</time></trkpt><trkpt lat="44.01975660478906" lon="7.930856222743525"><ele>648.0</ele><time>2026-03-29T09:30:05Z</time></trkpt><trkpt lat="44.019828125934346" lon="7.930916857685126"><ele>648.0</ele><time>2026-03-29T09:30:06Z</time></trkpt><trkpt lat="44.019914123102" lon="7.93096168886872"><ele>648.0</ele><time>2026-03-29T09:30:07Z</time></trkpt><trkpt lat="44.01998422203464" lon="7.930997638521677"><ele>650.0</ele><time>2026-03-29T09:30:08Z</time></trkpt><trkpt lat="44.02010368742839" lon="7.930943681932194"><ele>652.0</ele><time>2026-03-29T09:30:10Z</time></trkpt><trkpt lat="44.020170198431984" lon="7.930882555697082"><ele>654.0</ele><time>2026-03-29T09:30:11Z</time></trkpt><trkpt lat="44.02024420238975" lon="7.9308742317546566"><ele>656.0</ele><time>2026-03-29T09:30:12Z</time></trkpt><trkpt lat="44.020298458852224" lon="7.930942325307278"><ele>658.0</ele><time>2026-03-29T09:30:13Z</time></trkpt><trkpt lat="44.020338138552" lon="7.93104751587225"><ele>660.0</ele><time>2026-03-29T09:30:14Z</time></trkpt><trkpt lat="44.0203826625589" lon="7.931139765227454"><ele>655.6</ele><time>2026-03-29T09:30:15Z</time></trkpt><trkpt lat="44.02049869089624" lon="7.931193762482151"><ele>651.2</ele><time>2026-03-29T09:30:16Z</time></trkpt><trkpt lat="44.020600680172855" lon="7.931224310126401"><ele>646.8</ele><time>2026-03-29T09:30:17Z</time></trkpt><trkpt lat="44.020699287213205" lon="7.9312174815851275"><ele>642.4</ele><time>2026-03-29T09:30:18Z</time></trkpt><trkpt lat="44.02080932328361" lon="7.931194581432215"><ele>638.0</ele><time>2026-03-29T09:30:19Z</time></trkpt><trkpt lat="44.02092722032587" lon="7.9312258794904995"><ele>638.0</ele><time>2026-03-29T09:30:20Z</time></trkpt><trkpt lat="44.021017938508024" lon="7.931257344980906"><ele>638.0</ele><time>2026-03-29T09:30:21Z</time></trkpt><trkpt lat="44.02110461391834" lon="7.931285309581099"><ele>638.0</ele><time>2026-03-29T09:30:22Z</time></trkpt><trkpt lat="44.02121106014171" lon="7.931275531207256"><ele>638.0</ele><time>2026-03-29T09:30:23Z</time></trkpt><trkpt lat="44.02132379933574" lon="7.931236845239087"><ele>638.0</ele><time>2026-03-29T09:30:24Z</time></trkpt><trkpt lat="44.02138659533171" lon="7.931178532071137"><ele>638.0</ele><time>2026-03-29T09:30:25Z</time></trkpt><trkpt lat="44.021502536191285" lon="7.9312962279891455"><ele>638.0</ele><time>2026-03-29T09:30:27Z</time></trkpt><trkpt lat="44.02152268298877" lon="7.931399299694061"><ele>638.0</ele><time>2026-03-29T09:30:28Z</time></trkpt><trkpt lat="44.021614217316476" lon="7.931479148346198"><ele>638.0</ele><time>2026-03-29T09:30:30Z</time></trkpt><trkpt lat="44.021708405037785" lon="7.931480351957099"><ele>638.0</ele><time>2026-03-29T09:30:31Z</time></trkpt><trkpt lat="44.02181997302926" lon="7.9314493266469075"><ele>639.5</ele><time>2026-03-29T09:30:32Z</time></trkpt><trkpt lat="44.021931673120356" lon="7.931432942126975"><ele>641.0</ele><time>2026-03-29T09:30:33Z</time></trkpt><trkpt lat="44.022057607670924" lon="7.931469292203028"><ele>642.5</ele><time>2026-03-29T09:30:34Z</time></trkpt><trkpt lat="44.022195079647304" lon="7.931516126941667"><ele>644.0</ele><time>2026-03-29T09:30:35Z</time></trkpt><trkpt lat="44.02233484029777" lon="7.931547810196348"><ele>644.0</ele><time>2026-03-29T09:30:36Z</time></trkpt><trkpt lat="44.022455379125624" lon="7.931574860925956"><ele>644.0</ele><time>2026-03-29T09:30:37Z</time></trkpt><trkpt lat="44.02255563899502" lon="7.9316131872653095"><ele>644.0</ele><time>2026-03-29T09:30:38Z</time></trkpt><trkpt lat="44.02263503180934" lon="7.931657613960137"><ele>644.0</ele><time>2026-03-29T09:30:39Z</time></trkpt><trkpt lat="44.02271143424382" lon="7.931729293703535"><ele>644.0</ele><time>2026-03-29T09:30:40Z</time></trkpt><trkpt lat="44.02276612720751" lon="7.931806661354934"><ele>644.4000000000001</ele><time>2026-03-29T09:30:41Z</time></trkpt><trkpt lat="44.02288487682218" lon="7.931763190243812"><ele>644.8</ele><time>2026-03-29T09:30:43Z</time></trkpt><trkpt lat="44.022942495412835" lon="7.931683252258328"><ele>645.2</ele><time>2026-03-29T09:30:44Z</time></trkpt><trkpt lat="44.02302084956154" lon="7.93157241930109"><ele>645.5999999999999</ele><time>2026-03-29T09:30:45Z</time></trkpt><trkpt lat="44.02311187389709" lon="7.931464574495655"><ele>646.0</ele><time>2026-03-29T09:30:46Z</time></trkpt><trkpt lat="44.0231973632015" lon="7.931347597066794"><ele>646.0</ele><time>2026-03-29T09:30:47Z</time></trkpt><trkpt lat="44.0232766267125" lon="7.931259119058723"><ele>646.0</ele><time>2026-03-29T09:30:48Z</time></trkpt><trkpt lat="44.02333353643746" lon="7.931188145293003"><ele>646.0</ele><time>2026-03-29T09:30:49Z</time></trkpt><trkpt lat="44.02334993923868" lon="7.931092448055293"><ele>646.0</ele><time>2026-03-29T09:30:50Z</time></trkpt><trkpt lat="44.023309127781864" lon="7.930992002303851"><ele>646.0</ele><time>2026-03-29T09:30:51Z</time></trkpt><trkpt lat="44.023241600006564" lon="7.930918766018247"><ele>646.0</ele><time>2026-03-29T09:30:52Z</time></trkpt><trkpt lat="44.02315645266523" lon="7.930878193374003"><ele>648.0</ele><time>2026-03-29T09:30:53Z</time></trkpt><trkpt lat="44.02306658483355" lon="7.930858957357671"><ele>650.0</ele><time>2026-03-29T09:30:54Z</time></trkpt><trkpt lat="44.022975617351975" lon="7.930772650787142"><ele>652.0</ele><time>2026-03-29T09:30:56Z</time></trkpt><trkpt lat="44.02293126019877" lon="7.930674173240174"><ele>654.0</ele><time>2026-03-29T09:30:57Z</time></trkpt><trkpt lat="44.02287434690296" lon="7.930595345985991"><ele>656.0</ele><time>2026-03-29T09:30:58Z</time></trkpt><trkpt lat="44.02277323442398" lon="7.9305243810613"><ele>656.0</ele><time>2026-03-29T09:30:59Z</time></trkpt><trkpt lat="44.02271988150892" lon="7.930431307387265"><ele>656.0</ele><time>2026-03-29T09:31:00Z</time></trkpt><trkpt lat="44.022671975827045" lon="7.930324500227432"><ele>656.0</ele><time>2026-03-29T09:31:01Z</time></trkpt><trkpt lat="44.02267537511315" lon="7.930216274441705"><ele>656.0</ele><time>2026-03-29T09:31:02Z</time></trkpt><trkpt lat="44.0227197813694" lon="7.930109663878503"><ele>656.0</ele><time>2026-03-29T09:31:03Z</time></trkpt><trkpt lat="44.022784795568604" lon="7.930017913562923"><ele>656.0</ele><time>2026-03-29T09:31:04Z</time></trkpt><trkpt lat="44.022864570561104" lon="7.929949120041961"><ele>654.3333333333333</ele><time>2026-03-29T09:31:05Z</time></trkpt><trkpt lat="44.022943436430296" lon="7.929877490183902"><ele>652.6666666666666</ele><time>2026-03-29T09:31:06Z</time></trkpt><trkpt lat="44.022974237619636" lon="7.929797561757125"><ele>651.0</ele><time>2026-03-29T09:31:07Z</time></trkpt><trkpt lat="44.02297712612107" lon="7.929702279884852"><ele>649.3333333333334</ele><time>2026-03-29T09:31:08Z</time></trkpt><trkpt lat="44.02295039781652" lon="7.929595669818274"><ele>647.6666666666667</ele><time>2026-03-29T09:31:09Z</time></trkpt><trkpt lat="44.02289500574335" lon="7.929507271185794"><ele>646.0</ele><time>2026-03-29T09:31:10Z</time></trkpt><trkpt lat="44.02280772340139" lon="7.92944348696055"><ele>646.0</ele><time>2026-03-29T09:31:11Z</time></trkpt><trkpt lat="44.022707623587806" lon="7.929424361789467"><ele>646.0</ele><time>2026-03-29T09:31:12Z</time></trkpt><trkpt lat="44.02260012369001" lon="7.929412516497404"><ele>646.0</ele><time>2026-03-29T09:31:13Z</time></trkpt><trkpt lat="44.022512977857346" lon="7.929376875537322"><ele>646.0</ele><time>2026-03-29T09:31:14Z</time></trkpt><trkpt lat="44.02244695443847" lon="7.929321972738536"><ele>646.0</ele><time>2026-03-29T09:31:15Z</time></trkpt><trkpt lat="44.022407594651625" lon="7.92924207783679"><ele>646.0</ele><time>2026-03-29T09:31:16Z</time></trkpt><trkpt lat="44.022424800747544" lon="7.929052954044311"><ele>643.8</ele><time>2026-03-29T09:31:18Z</time></trkpt><trkpt lat="44.022474449735824" lon="7.928938661134218"><ele>641.5999999999999</ele><time>2026-03-29T09:31:19Z</time></trkpt><trkpt lat="44.0225355222155" lon="7.9288063423590485"><ele>639.4</ele><time>2026-03-29T09:31:20Z</time></trkpt><trkpt lat="44.022582187911276" lon="7.928673937071584"><ele>637.2</ele><time>2026-03-29T09:31:21Z</time></trkpt><trkpt lat="44.022609032816476" lon="7.928549040144812"><ele>635.0</ele><time>2026-03-29T09:31:22Z</time></trkpt><trkpt lat="44.02262018808769" lon="7.9284161763409475"><ele>634.6666666666666</ele><time>2026-03-29T09:31:23Z</time></trkpt><trkpt lat="44.022645817282125" lon="7.928283031998035"><ele>634.3333333333333</ele><time>2026-03-29T09:31:24Z</time></trkpt><trkpt lat="44.022669691398576" lon="7.928179650315981"><ele>634.0</ele><time>2026-03-29T09:31:25Z</time></trkpt><trkpt lat="44.02268473253612" lon="7.928088143995117"><ele>633.6666666666666</ele><time>2026-03-29T09:31:27Z</time></trkpt><trkpt lat="44.02270945746756" lon="7.927990205822477"><ele>633.3333333333334</ele><time>2026-03-29T09:31:29Z</time></trkpt><trkpt lat="44.02268444298029" lon="7.928122993850267"><ele>633.0</ele><time>2026-03-29T09:31:33Z</time></trkpt><trkpt lat="44.02271687633855" lon="7.928212408700615"><ele>633.0</ele><time>2026-03-29T09:31:34Z</time></trkpt><trkpt lat="44.022718669533404" lon="7.928350848415389"><ele>633.0</ele><time>2026-03-29T09:31:36Z</time></trkpt><trkpt lat="44.022683983744066" lon="7.9285151325819925"><ele>633.0</ele><time>2026-03-29T09:31:38Z</time></trkpt><trkpt lat="44.022680806841855" lon="7.928605652853522"><ele>633.0</ele><time>2026-03-29T09:31:39Z</time></trkpt><trkpt lat="44.022673575387735" lon="7.9287126021452945"><ele>633.0</ele><time>2026-03-29T09:31:40Z</time></trkpt><trkpt lat="44.02268026511294" lon="7.928828059452399"><ele>633.0</ele><time>2026-03-29T09:31:41Z</time></trkpt><trkpt lat="44.02270209757403" lon="7.92892299034343"><ele>633.3333333333334</ele><time>2026-03-29T09:31:42Z</time></trkpt><trkpt lat="44.02272326120648" lon="7.929016218251366"><ele>633.6666666666666</ele><time>2026-03-29T09:31:43Z</time></trkpt><trkpt lat="44.0227188617442" lon="7.929153572223705"><ele>634.0</ele><time>2026-03-29T09:31:45Z</time></trkpt><trkpt lat="44.02281748356754" lon="7.929198424988747"><ele>634.3333333333333</ele><time>2026-03-29T09:31:48Z</time></trkpt><trkpt lat="44.022893650138045" lon="7.9291925425464935"><ele>634.6666666666666</ele><time>2026-03-29T09:31:49Z</time></trkpt><trkpt lat="44.02298053631436" lon="7.929196878941302"><ele>635.0</ele><time>2026-03-29T09:31:50Z</time></trkpt><trkpt lat="44.02308355937704" lon="7.929199740698897"><ele>635.0</ele><time>2026-03-29T09:31:51Z</time></trkpt><trkpt lat="44.0231865353125" lon="7.929186057378772"><ele>635.0</ele><time>2026-03-29T09:31:52Z</time></trkpt><trkpt lat="44.0232802516703" lon="7.929145652259912"><ele>635.0</ele><time>2026-03-29T09:31:53Z</time></trkpt><trkpt lat="44.02336228035196" lon="7.929082909853344"><ele>635.0</ele><time>2026-03-29T09:31:54Z</time></trkpt><trkpt lat="44.02343891467077" lon="7.92906694943304"><ele>635.0</ele><time>2026-03-29T09:31:55Z</time></trkpt><trkpt lat="44.02351054336338" lon="7.929064673426159"><ele>635.0</ele><time>2026-03-29T09:31:56Z</time></trkpt><trkpt lat="44.02358056762157" lon="7.929050241501727"><ele>631.6666666666666</ele><time>2026-03-29T09:31:57Z</time></trkpt><trkpt lat="44.02363611464423" lon="7.929000968600707"><ele>628.3333333333333</ele><time>2026-03-29T09:31:58Z</time></trkpt><trkpt lat="44.02369132318525" lon="7.928921849331276"><ele>625.0</ele><time>2026-03-29T09:32:00Z</time></trkpt><trkpt lat="44.023712198146356" lon="7.929074726062427"><ele>621.6666666666666</ele><time>2026-03-29T09:32:02Z</time></trkpt><trkpt lat="44.023672591950316" lon="7.929145317687541"><ele>618.3333333333334</ele><time>2026-03-29T09:32:03Z</time></trkpt><trkpt lat="44.02363917278857" lon="7.929288360983519"><ele>615.0</ele><time>2026-03-29T09:32:05Z</time></trkpt><trkpt lat="44.02359138026056" lon="7.929352894338901"><ele>615.0</ele><time>2026-03-29T09:32:06Z</time></trkpt><trkpt lat="44.023541295710636" lon="7.929487664874618"><ele>615.0</ele><time>2026-03-29T09:32:08Z</time></trkpt><trkpt lat="44.02351025024703" lon="7.929610643099686"><ele>615.0</ele><time>2026-03-29T09:32:10Z</time></trkpt><trkpt lat="44.023533129280295" lon="7.92972864044871"><ele>615.0</ele><time>2026-03-29T09:32:12Z</time></trkpt><trkpt lat="44.023581474230845" lon="7.929787331595376"><ele>615.0</ele><time>2026-03-29T09:32:14Z</time></trkpt><trkpt lat="44.02364814392509" lon="7.929704076386935"><ele>615.0</ele><time>2026-03-29T09:32:16Z</time></trkpt><trkpt lat="44.02371518963391" lon="7.929623201461215"><ele>615.0</ele><time>2026-03-29T09:32:17Z</time></trkpt><trkpt lat="44.02377812357535" lon="7.92959863359501"><ele>615.0</ele><time>2026-03-29T09:32:18Z</time></trkpt><trkpt lat="44.02384281507317" lon="7.929592283230159"><ele>615.0</ele><time>2026-03-29T09:32:19Z</time></trkpt><trkpt lat="44.0239339515694" lon="7.929612550059617"><ele>615.0</ele><time>2026-03-29T09:32:20Z</time></trkpt><trkpt lat="44.02400558619998" lon="7.92959645693389"><ele>615.0</ele><time>2026-03-29T09:32:21Z</time></trkpt><trkpt lat="44.0240688839035" lon="7.929563953909785"><ele>615.0</ele><time>2026-03-29T09:32:22Z</time></trkpt><trkpt lat="44.02414298998757" lon="7.92957651697521"><ele>615.0</ele><time>2026-03-29T09:32:23Z</time></trkpt><trkpt lat="44.02422342067614" lon="7.929588421945216"><ele>612.3333333333334</ele><time>2026-03-29T09:32:24Z</time></trkpt><trkpt lat="44.02429357729243" lon="7.92959804766083"><ele>609.6666666666666</ele><time>2026-03-29T09:32:25Z</time></trkpt><trkpt lat="44.02437897797514" lon="7.929558400367447"><ele>607.0</ele><time>2026-03-29T09:32:27Z</time></trkpt><trkpt lat="44.02442842563412" lon="7.929478406222449"><ele>604.3333333333333</ele><time>2026-03-29T09:32:28Z</time></trkpt><trkpt lat="44.024487639010594" lon="7.9294167755705045"><ele>601.6666666666666</ele><time>2026-03-29T09:32:29Z</time></trkpt><trkpt lat="44.024595852242626" lon="7.929402846509326"><ele>599.0</ele><time>2026-03-29T09:32:30Z</time></trkpt><trkpt lat="44.02469614278106" lon="7.929406306098289"><ele>599.0</ele><time>2026-03-29T09:32:31Z</time></trkpt><trkpt lat="44.024799930357425" lon="7.9294254706561"><ele>599.0</ele><time>2026-03-29T09:32:32Z</time></trkpt><trkpt lat="44.02489453984035" lon="7.92943332709227"><ele>599.0</ele><time>2026-03-29T09:32:33Z</time></trkpt><trkpt lat="44.024995267049626" lon="7.929451673309776"><ele>599.0</ele><time>2026-03-29T09:32:34Z</time></trkpt><trkpt lat="44.025091585881036" lon="7.929481536874156"><ele>599.0</ele><time>2026-03-29T09:32:35Z</time></trkpt><trkpt lat="44.025183355202365" lon="7.92950961491514"><ele>598.0</ele><time>2026-03-29T09:32:36Z</time></trkpt><trkpt lat="44.02527325085748" lon="7.92954442778504"><ele>597.0</ele><time>2026-03-29T09:32:37Z</time></trkpt><trkpt lat="44.02536587306154" lon="7.929561604902372"><ele>596.0</ele><time>2026-03-29T09:32:38Z</time></trkpt><trkpt lat="44.025452381344586" lon="7.929567866823841"><ele>595.0</ele><time>2026-03-29T09:32:39Z</time></trkpt><trkpt lat="44.025516515690235" lon="7.929594705232796"><ele>594.0</ele><time>2026-03-29T09:32:40Z</time></trkpt><trkpt lat="44.02558292205604" lon="7.929727925526278"><ele>594.0</ele><time>2026-03-29T09:32:42Z</time></trkpt><trkpt lat="44.025578334370365" lon="7.929844255898416"><ele>594.0</ele><time>2026-03-29T09:32:43Z</time></trkpt><trkpt lat="44.02556118519474" lon="7.929952758556078"><ele>594.0</ele><time>2026-03-29T09:32:44Z</time></trkpt><trkpt lat="44.025527732025914" lon="7.930079160563144"><ele>594.0</ele><time>2026-03-29T09:32:45Z</time></trkpt><trkpt lat="44.025497614880784" lon="7.930206983714486"><ele>594.0</ele><time>2026-03-29T09:32:46Z</time></trkpt><trkpt lat="44.02550492921252" lon="7.930314449314828"><ele>594.0</ele><time>2026-03-29T09:32:47Z</time></trkpt><trkpt lat="44.025550564768956" lon="7.930419187876495"><ele>596.4</ele><time>2026-03-29T09:32:48Z</time></trkpt><trkpt lat="44.02562283989447" lon="7.930531312534623"><ele>598.8</ele><time>2026-03-29T09:32:49Z</time></trkpt><trkpt lat="44.02567143350994" lon="7.930649657893557"><ele>601.2</ele><time>2026-03-29T09:32:50Z</time></trkpt><trkpt lat="44.025710058855864" lon="7.930773623250877"><ele>603.6</ele><time>2026-03-29T09:32:51Z</time></trkpt><trkpt lat="44.02574510547804" lon="7.930916581403615"><ele>606.0</ele><time>2026-03-29T09:32:52Z</time></trkpt><trkpt lat="44.02576537282679" lon="7.931055772155241"><ele>607.2</ele><time>2026-03-29T09:32:53Z</time></trkpt><trkpt lat="44.0257914489708" lon="7.931177045368312"><ele>608.4000000000001</ele><time>2026-03-29T09:32:54Z</time></trkpt><trkpt lat="44.02582906936908" lon="7.931272271953154"><ele>609.6</ele><time>2026-03-29T09:32:55Z</time></trkpt><trkpt lat="44.025869294237374" lon="7.931344238391523"><ele>610.8000000000001</ele><time>2026-03-29T09:32:56Z</time></trkpt><trkpt lat="44.026000470089436" lon="7.93141705328278"><ele>612.0</ele><time>2026-03-29T09:32:58Z</time></trkpt><trkpt lat="44.026073251444856" lon="7.931457408092629"><ele>604.4</ele><time>2026-03-29T09:32:59Z</time></trkpt><trkpt lat="44.02619736042186" lon="7.931472212437163"><ele>596.8000000000001</ele><time>2026-03-29T09:33:01Z</time></trkpt><trkpt lat="44.026283213758674" lon="7.931519629111322"><ele>589.2</ele><time>2026-03-29T09:33:02Z</time></trkpt><trkpt lat="44.02635789965149" lon="7.93158078505481"><ele>581.6</ele><time>2026-03-29T09:33:03Z</time></trkpt><trkpt lat="44.02641662821082" lon="7.931649257749152"><ele>574.0</ele><time>2026-03-29T09:33:04Z</time></trkpt><trkpt lat="44.02646784143856" lon="7.931719532309967"><ele>571.6666666666667</ele><time>2026-03-29T09:33:05Z</time></trkpt><trkpt lat="44.026509872088695" lon="7.931785802887826"><ele>569.3333333333334</ele><time>2026-03-29T09:33:06Z</time></trkpt><trkpt lat="44.02653854200434" lon="7.931919912547652"><ele>567.0</ele><time>2026-03-29T09:33:08Z</time></trkpt><trkpt lat="44.02656294339297" lon="7.932008577438065"><ele>564.6666666666666</ele><time>2026-03-29T09:33:09Z</time></trkpt><trkpt lat="44.02661123316994" lon="7.932088920173308"><ele>562.3333333333333</ele><time>2026-03-29T09:33:10Z</time></trkpt><trkpt lat="44.026626958049256" lon="7.9322689775352035"><ele>560.0</ele><time>2026-03-29T09:33:12Z</time></trkpt><trkpt lat="44.026621833000824" lon="7.932369787053565"><ele>560.0</ele><time>2026-03-29T09:33:13Z</time></trkpt><trkpt lat="44.02660664816958" lon="7.932474456963815"><ele>560.0</ele><time>2026-03-29T09:33:14Z</time></trkpt><trkpt lat="44.02660532467492" lon="7.9325826491958695"><ele>560.0</ele><time>2026-03-29T09:33:15Z</time></trkpt><trkpt lat="44.02668179606757" lon="7.9326623399111025"><ele>560.0</ele><time>2026-03-29T09:33:17Z</time></trkpt><trkpt lat="44.02675094213968" lon="7.932755884133483"><ele>560.0</ele><time>2026-03-29T09:33:19Z</time></trkpt><trkpt lat="44.02675180209208" lon="7.932853163719888"><ele>560.0</ele><time>2026-03-29T09:33:20Z</time></trkpt><trkpt lat="44.02675912141791" lon="7.932981951515965"><ele>557.8333333333333</ele><time>2026-03-29T09:33:21Z</time></trkpt><trkpt lat="44.0267551496639" lon="7.933114837002232"><ele>555.6666666666666</ele><time>2026-03-29T09:33:22Z</time></trkpt><trkpt lat="44.026726637827934" lon="7.93322276193238"><ele>553.5</ele><time>2026-03-29T09:33:23Z</time></trkpt><trkpt lat="44.02671448217818" lon="7.933326992747786"><ele>551.3333333333334</ele><time>2026-03-29T09:33:24Z</time></trkpt><trkpt lat="44.02670695900956" lon="7.933420417583206"><ele>549.1666666666667</ele><time>2026-03-29T09:33:25Z</time></trkpt><trkpt lat="44.02670773870315" lon="7.933554768470301"><ele>547.0</ele><time>2026-03-29T09:33:26Z</time></trkpt><trkpt lat="44.02672055731458" lon="7.9336554500617815"><ele>544.4</ele><time>2026-03-29T09:33:27Z</time></trkpt><trkpt lat="44.02669366830782" lon="7.933784974826933"><ele>541.8000000000001</ele><time>2026-03-29T09:33:28Z</time></trkpt><trkpt lat="44.02667880984449" lon="7.933903291241718"><ele>539.2</ele><time>2026-03-29T09:33:29Z</time></trkpt><trkpt lat="44.02666582230554" lon="7.934043049536929"><ele>536.6</ele><time>2026-03-29T09:33:30Z</time></trkpt><trkpt lat="44.026653611253835" lon="7.934177070916733"><ele>534.0</ele><time>2026-03-29T09:33:31Z</time></trkpt><trkpt lat="44.02664437359592" lon="7.934294072960592"><ele>531.2857142857143</ele><time>2026-03-29T09:33:32Z</time></trkpt><trkpt lat="44.02665803662173" lon="7.934406497208623"><ele>528.5714285714286</ele><time>2026-03-29T09:33:33Z</time></trkpt><trkpt lat="44.02667664256067" lon="7.934505533781513"><ele>525.8571428571429</ele><time>2026-03-29T09:33:34Z</time></trkpt><trkpt lat="44.02669202369809" lon="7.934606139649766"><ele>523.1428571428571</ele><time>2026-03-29T09:33:35Z</time></trkpt><trkpt lat="44.02670209413641" lon="7.934707856374162"><ele>520.4285714285714</ele><time>2026-03-29T09:33:36Z</time></trkpt><trkpt lat="44.02669169857824" lon="7.934802348335313"><ele>517.7142857142858</ele><time>2026-03-29T09:33:37Z</time></trkpt><trkpt lat="44.0266807637757" lon="7.934895421685957"><ele>515.0</ele><time>2026-03-29T09:33:38Z</time></trkpt><trkpt lat="44.026703163415135" lon="7.934979693327546"><ele>511.4</ele><time>2026-03-29T09:33:39Z</time></trkpt><trkpt lat="44.026763794238875" lon="7.935139748897728"><ele>507.8</ele><time>2026-03-29T09:33:41Z</time></trkpt><trkpt lat="44.026806215553414" lon="7.935250226544379"><ele>504.20000000000005</ele><time>2026-03-29T09:33:42Z</time></trkpt><trkpt lat="44.02683662481105" lon="7.935371716629371"><ele>500.6</ele><time>2026-03-29T09:33:43Z</time></trkpt><trkpt lat="44.02686007886817" lon="7.935485222193063"><ele>497.0</ele><time>2026-03-29T09:33:44Z</time></trkpt><trkpt lat="44.0268921873555" lon="7.935572315813331"><ele>496.99999999999994</ele><time>2026-03-29T09:33:45Z</time></trkpt><trkpt lat="44.02692805810849" lon="7.935645527804776"><ele>497.0</ele><time>2026-03-29T09:33:46Z</time></trkpt><trkpt lat="44.02696178150065" lon="7.935775327818888"><ele>497.0</ele><time>2026-03-29T09:33:48Z</time></trkpt><trkpt lat="44.02702304818967" lon="7.9358794101818315"><ele>497.0</ele><time>2026-03-29T09:33:50Z</time></trkpt><trkpt lat="44.02709494136293" lon="7.935950496131017"><ele>496.99999999999994</ele><time>2026-03-29T09:33:52Z</time></trkpt><trkpt lat="44.027156557045956" lon="7.935886272037561"><ele>497.0</ele><time>2026-03-29T09:33:54Z</time></trkpt><trkpt lat="44.02719290183704" lon="7.935813792661438"><ele>496.99999999999994</ele><time>2026-03-29T09:33:55Z</time></trkpt><trkpt lat="44.02721945301998" lon="7.935732081709643"><ele>497.0</ele><time>2026-03-29T09:33:56Z</time></trkpt><trkpt lat="44.02727634875063" lon="7.9356113212160215"><ele>497.0</ele><time>2026-03-29T09:33:58Z</time></trkpt><trkpt lat="44.02736730836552" lon="7.935547099190637"><ele>497.0</ele><time>2026-03-29T09:34:00Z</time></trkpt><trkpt lat="44.02743111230186" lon="7.935535869510716"><ele>496.99999999999994</ele><time>2026-03-29T09:34:02Z</time></trkpt><trkpt lat="44.02744429715876" lon="7.935630007685749"><ele>497.0</ele><time>2026-03-29T09:34:04Z</time></trkpt><trkpt lat="44.027417610923564" lon="7.935834834257178"><ele>492.3333333333333</ele><time>2026-03-29T09:34:06Z</time></trkpt><trkpt lat="44.027409660368384" lon="7.935958542078948"><ele>487.66666666666663</ele><time>2026-03-29T09:34:07Z</time></trkpt><trkpt lat="44.02740575965858" lon="7.936072580169081"><ele>483.0</ele><time>2026-03-29T09:34:08Z</time></trkpt><trkpt lat="44.027410884200826" lon="7.936179059586743"><ele>478.33333333333337</ele><time>2026-03-29T09:34:09Z</time></trkpt><trkpt lat="44.02741707358461" lon="7.936295638068438"><ele>473.6666666666667</ele><time>2026-03-29T09:34:10Z</time></trkpt><trkpt lat="44.0274206798452" lon="7.936405876543655"><ele>469.0</ele><time>2026-03-29T09:34:11Z</time></trkpt><trkpt lat="44.02742022099956" lon="7.93651548232943"><ele>469.00000000000006</ele><time>2026-03-29T09:34:12Z</time></trkpt><trkpt lat="44.027406626305805" lon="7.936619218026104"><ele>469.0</ele><time>2026-03-29T09:34:13Z</time></trkpt><trkpt lat="44.0273932405504" lon="7.9367075762173735"><ele>469.0</ele><time>2026-03-29T09:34:14Z</time></trkpt><trkpt lat="44.02740845026031" lon="7.936854662917361"><ele>469.0</ele><time>2026-03-29T09:34:16Z</time></trkpt><trkpt lat="44.02741344992562" lon="7.93700067080607"><ele>469.00000000000006</ele><time>2026-03-29T09:34:18Z</time></trkpt><trkpt lat="44.02740405117436" lon="7.937112960347925"><ele>469.0</ele><time>2026-03-29T09:34:20Z</time></trkpt><trkpt lat="44.02745999967984" lon="7.937067686729094"><ele>471.0</ele><time>2026-03-29T09:34:24Z</time></trkpt><trkpt lat="44.027514884848706" lon="7.93696738738967"><ele>473.0</ele><time>2026-03-29T09:34:27Z</time></trkpt><trkpt lat="44.02755108405859" lon="7.936877993223851"><ele>475.0</ele><time>2026-03-29T09:34:30Z</time></trkpt><trkpt lat="44.027855268984354" lon="7.936562544544283"><ele>475.00000000000006</ele><time>2026-03-29T09:34:33Z</time></trkpt><trkpt lat="44.02789907281727" lon="7.9364839325319405"><ele>475.0</ele><time>2026-03-29T09:34:34Z</time></trkpt><trkpt lat="44.02794282961226" lon="7.936404743207694"><ele>475.0</ele><time>2026-03-29T09:34:35Z</time></trkpt><trkpt lat="44.02798237557824" lon="7.9363146076723945"><ele>475.0</ele><time>2026-03-29T09:34:36Z</time></trkpt><trkpt lat="44.02799565305485" lon="7.936201697096819"><ele>475.00000000000006</ele><time>2026-03-29T09:34:37Z</time></trkpt><trkpt lat="44.0279849358404" lon="7.936108128215192"><ele>475.0</ele><time>2026-03-29T09:34:38Z</time></trkpt><trkpt lat="44.028021163458796" lon="7.935994287294923"><ele>475.00000000000006</ele><time>2026-03-29T09:34:40Z</time></trkpt><trkpt lat="44.02808478204052" lon="7.935989122130168"><ele>475.0</ele><time>2026-03-29T09:34:42Z</time></trkpt><trkpt lat="44.02814798348584" lon="7.935947573162617"><ele>475.0</ele><time>2026-03-29T09:34:43Z</time></trkpt><trkpt lat="44.0282128562337" lon="7.935903927541031"><ele>475.0</ele><time>2026-03-29T09:34:44Z</time></trkpt><trkpt lat="44.02827386554317" lon="7.935858136205646"><ele>475.00000000000006</ele><time>2026-03-29T09:34:45Z</time></trkpt><trkpt lat="44.02831157683541" lon="7.935702686778709"><ele>475.0</ele><time>2026-03-29T09:34:47Z</time></trkpt><trkpt lat="44.02834182613054" lon="7.935598514554837"><ele>471.1666666666667</ele><time>2026-03-29T09:34:48Z</time></trkpt><trkpt lat="44.02838658540058" lon="7.935527834951494"><ele>467.33333333333337</ele><time>2026-03-29T09:34:49Z</time></trkpt><trkpt lat="44.02851150714441" lon="7.935514451238304"><ele>463.5</ele><time>2026-03-29T09:34:51Z</time></trkpt><trkpt lat="44.02859127036526" lon="7.935510005092252"><ele>459.66666666666663</ele><time>2026-03-29T09:34:52Z</time></trkpt><trkpt lat="44.028678396928875" lon="7.935489854574731"><ele>455.8333333333333</ele><time>2026-03-29T09:34:53Z</time></trkpt><trkpt lat="44.02876186938353" lon="7.935477469016986"><ele>452.0</ele><time>2026-03-29T09:34:54Z</time></trkpt><trkpt lat="44.02883193956493" lon="7.935435266320881"><ele>451.99999999999994</ele><time>2026-03-29T09:34:55Z</time></trkpt><trkpt lat="44.02888775239443" lon="7.935372979037868"><ele>452.0</ele><time>2026-03-29T09:34:56Z</time></trkpt><trkpt lat="44.02892713926618" lon="7.935300567662344"><ele>452.0</ele><time>2026-03-29T09:34:57Z</time></trkpt><trkpt lat="44.02898345090137" lon="7.935199019021607"><ele>452.0</ele><time>2026-03-29T09:34:59Z</time></trkpt><trkpt lat="44.029053499650736" lon="7.935226509094951"><ele>451.99999999999994</ele><time>2026-03-29T09:35:01Z</time></trkpt><trkpt lat="44.029147042025315" lon="7.935303769048794"><ele>452.0</ele><time>2026-03-29T09:35:03Z</time></trkpt><trkpt lat="44.029219717179274" lon="7.935257579038331"><ele>452.0</ele><time>2026-03-29T09:35:05Z</time></trkpt><trkpt lat="44.029273694770154" lon="7.93520084266545"><ele>452.00000000000006</ele><time>2026-03-29T09:35:07Z</time></trkpt><trkpt lat="44.02924196650574" lon="7.935295344854116"><ele>452.00000000000006</ele><time>2026-03-29T09:35:10Z</time></trkpt><trkpt lat="44.02914861307438" lon="7.935354481753737"><ele>452.0</ele><time>2026-03-29T09:35:12Z</time></trkpt><trkpt lat="44.029028610226895" lon="7.935450338491788"><ele>452.0</ele><time>2026-03-29T09:35:14Z</time></trkpt><trkpt lat="44.02895318751865" lon="7.935518265131324"><ele>452.0</ele><time>2026-03-29T09:35:15Z</time></trkpt><trkpt lat="44.02889728819172" lon="7.935591398445842"><ele>452.00000000000006</ele><time>2026-03-29T09:35:16Z</time></trkpt><trkpt lat="44.028799088692956" lon="7.935655351174298"><ele>452.00000000000006</ele><time>2026-03-29T09:35:17Z</time></trkpt><trkpt lat="44.0287031505197" lon="7.935715511663417"><ele>452.0</ele><time>2026-03-29T09:35:18Z</time></trkpt><trkpt lat="44.028626615507655" lon="7.935782583035363"><ele>452.0</ele><time>2026-03-29T09:35:19Z</time></trkpt><trkpt lat="44.02857035921112" lon="7.935848554616396"><ele>449.2857142857143</ele><time>2026-03-29T09:35:20Z</time></trkpt><trkpt lat="44.028526771792485" lon="7.935917985422666"><ele>446.57142857142856</ele><time>2026-03-29T09:35:21Z</time></trkpt><trkpt lat="44.0285094797767" lon="7.936013994588571"><ele>443.85714285714283</ele><time>2026-03-29T09:35:22Z</time></trkpt><trkpt lat="44.02850073955653" lon="7.936107915532791"><ele>441.1428571428571</ele><time>2026-03-29T09:35:23Z</time></trkpt><trkpt lat="44.02846928333927" lon="7.936198878589233"><ele>438.42857142857144</ele><time>2026-03-29T09:35:24Z</time></trkpt><trkpt lat="44.02840923174087" lon="7.936278561273005"><ele>435.71428571428567</ele><time>2026-03-29T09:35:25Z</time></trkpt><trkpt lat="44.02833407034742" lon="7.93633356125131"><ele>433.0</ele><time>2026-03-29T09:35:26Z</time></trkpt><trkpt lat="44.02826259447305" lon="7.936411730662615"><ele>435.79999999999995</ele><time>2026-03-29T09:35:27Z</time></trkpt><trkpt lat="44.028219108572394" lon="7.936520438398378"><ele>438.59999999999997</ele><time>2026-03-29T09:35:28Z</time></trkpt><trkpt lat="44.028192155867835" lon="7.936643721454402"><ele>441.40000000000003</ele><time>2026-03-29T09:35:29Z</time></trkpt><trkpt lat="44.02819811717668" lon="7.9367740018984625"><ele>444.20000000000005</ele><time>2026-03-29T09:35:30Z</time></trkpt><trkpt lat="44.028208129161136" lon="7.936898741779735"><ele>447.0</ele><time>2026-03-29T09:35:31Z</time></trkpt><trkpt lat="44.02821706962022" lon="7.937017598186493"><ele>447.0</ele><time>2026-03-29T09:35:32Z</time></trkpt><trkpt lat="44.02817101518778" lon="7.9371332447686385"><ele>447.00000000000006</ele><time>2026-03-29T09:35:33Z</time></trkpt><trkpt lat="44.02812604653502" lon="7.937255274661407"><ele>447.00000000000006</ele><time>2026-03-29T09:35:34Z</time></trkpt><trkpt lat="44.02808301957333" lon="7.937389013830231"><ele>447.0</ele><time>2026-03-29T09:35:35Z</time></trkpt><trkpt lat="44.02804182868188" lon="7.937521564659189"><ele>447.0</ele><time>2026-03-29T09:35:36Z</time></trkpt><trkpt lat="44.028002618134266" lon="7.937662816485346"><ele>442.5</ele><time>2026-03-29T09:35:37Z</time></trkpt><trkpt lat="44.02797863605956" lon="7.937798418038616"><ele>438.0</ele><time>2026-03-29T09:35:38Z</time></trkpt><trkpt lat="44.02793947800238" lon="7.937906479649053"><ele>433.5</ele><time>2026-03-29T09:35:39Z</time></trkpt><trkpt lat="44.02791183264229" lon="7.938011883011714"><ele>429.0</ele><time>2026-03-29T09:35:40Z</time></trkpt><trkpt lat="44.02787873059535" lon="7.938101635726168"><ele>424.5</ele><time>2026-03-29T09:35:41Z</time></trkpt><trkpt lat="44.027854892616205" lon="7.938191934207844"><ele>420.0</ele><time>2026-03-29T09:35:42Z</time></trkpt><trkpt lat="44.02783015578032" lon="7.938272987645506"><ele>420.0</ele><time>2026-03-29T09:35:43Z</time></trkpt><trkpt lat="44.027724083425554" lon="7.938356036314015"><ele>420.0</ele><time>2026-03-29T09:35:45Z</time></trkpt><trkpt lat="44.02764950796245" lon="7.938307582088002"><ele>420.0</ele><time>2026-03-29T09:35:46Z</time></trkpt><trkpt lat="44.02757318259151" lon="7.938238142039459"><ele>420.0</ele><time>2026-03-29T09:35:47Z</time></trkpt><trkpt lat="44.02749618696505" lon="7.938143293517838"><ele>420.0</ele><time>2026-03-29T09:35:48Z</time></trkpt><trkpt lat="44.02739824595245" lon="7.938068191069954"><ele>416.5</ele><time>2026-03-29T09:35:49Z</time></trkpt><trkpt lat="44.02729257574158" lon="7.9379942261044505"><ele>413.0</ele><time>2026-03-29T09:35:50Z</time></trkpt><trkpt lat="44.0271721243795" lon="7.937959125358562"><ele>409.5</ele><time>2026-03-29T09:35:51Z</time></trkpt><trkpt lat="44.02705395263813" lon="7.937946403094663"><ele>406.0</ele><time>2026-03-29T09:35:52Z</time></trkpt><trkpt lat="44.02694498484255" lon="7.93793626532792"><ele>406.00000000000006</ele><time>2026-03-29T09:35:53Z</time></trkpt><trkpt lat="44.02684428035041" lon="7.937941307375007"><ele>406.0</ele><time>2026-03-29T09:35:54Z</time></trkpt><trkpt lat="44.02675290401057" lon="7.937989483341258"><ele>406.0</ele><time>2026-03-29T09:35:55Z</time></trkpt><trkpt lat="44.02666141818162" lon="7.938051196042006"><ele>406.0</ele><time>2026-03-29T09:35:56Z</time></trkpt><trkpt lat="44.02658677531346" lon="7.9380680625875275"><ele>406.00000000000006</ele><time>2026-03-29T09:35:57Z</time></trkpt><trkpt lat="44.026521873433026" lon="7.938020203547709"><ele>406.0</ele><time>2026-03-29T09:35:58Z</time></trkpt><trkpt lat="44.02648709109041" lon="7.937897528254831"><ele>405.0</ele><time>2026-03-29T09:35:59Z</time></trkpt><trkpt lat="44.026425592267444" lon="7.937789850386879"><ele>404.0</ele><time>2026-03-29T09:36:00Z</time></trkpt><trkpt lat="44.0263569927126" lon="7.93766277087849"><ele>403.0</ele><time>2026-03-29T09:36:01Z</time></trkpt><trkpt lat="44.026274367328156" lon="7.937537712441652"><ele>402.0</ele><time>2026-03-29T09:36:02Z</time></trkpt><trkpt lat="44.02617918297987" lon="7.937426356193459"><ele>402.0</ele><time>2026-03-29T09:36:03Z</time></trkpt><trkpt lat="44.02608300546306" lon="7.937317619075461"><ele>402.0</ele><time>2026-03-29T09:36:04Z</time></trkpt><trkpt lat="44.02600090468577" lon="7.937199078467552"><ele>402.0</ele><time>2026-03-29T09:36:05Z</time></trkpt><trkpt lat="44.02592636034492" lon="7.93706937597208"><ele>402.0</ele><time>2026-03-29T09:36:06Z</time></trkpt><trkpt lat="44.02585851340426" lon="7.9369338100824365"><ele>403.5</ele><time>2026-03-29T09:36:07Z</time></trkpt><trkpt lat="44.02580941386222" lon="7.9367997506394525"><ele>405.0</ele><time>2026-03-29T09:36:08Z</time></trkpt><trkpt lat="44.02579460094147" lon="7.936668009906442"><ele>406.5</ele><time>2026-03-29T09:36:09Z</time></trkpt><trkpt lat="44.0257659561281" lon="7.936561140956856"><ele>408.0</ele><time>2026-03-29T09:36:10Z</time></trkpt><trkpt lat="44.02571685184648" lon="7.936499009921398"><ele>409.5</ele><time>2026-03-29T09:36:11Z</time></trkpt><trkpt lat="44.025628488026115" lon="7.936479895896297"><ele>411.0</ele><time>2026-03-29T09:36:12Z</time></trkpt><trkpt lat="44.02552525912535" lon="7.936506624767377"><ele>411.0</ele><time>2026-03-29T09:36:13Z</time></trkpt><trkpt lat="44.02543263277072" lon="7.9365716627004845"><ele>411.0</ele><time>2026-03-29T09:36:14Z</time></trkpt><trkpt lat="44.02535687200134" lon="7.936693764881947"><ele>411.0</ele><time>2026-03-29T09:36:15Z</time></trkpt><trkpt lat="44.025289918312275" lon="7.936820227867656"><ele>411.0</ele><time>2026-03-29T09:36:16Z</time></trkpt><trkpt lat="44.02519860200107" lon="7.936884281111318"><ele>411.0</ele><time>2026-03-29T09:36:17Z</time></trkpt><trkpt lat="44.02508820977769" lon="7.9369679827057595"><ele>411.0</ele><time>2026-03-29T09:36:18Z</time></trkpt><trkpt lat="44.025011578697836" lon="7.937091249683739"><ele>411.0</ele><time>2026-03-29T09:36:19Z</time></trkpt><trkpt lat="44.02493271384771" lon="7.937218076310519"><ele>411.0</ele><time>2026-03-29T09:36:20Z</time></trkpt><trkpt lat="44.02485773933318" lon="7.9373529935689024"><ele>411.0</ele><time>2026-03-29T09:36:21Z</time></trkpt><trkpt lat="44.024795416703476" lon="7.937502035823931"><ele>412.25</ele><time>2026-03-29T09:36:22Z</time></trkpt><trkpt lat="44.02474014367167" lon="7.937663878352111"><ele>413.5</ele><time>2026-03-29T09:36:23Z</time></trkpt><trkpt lat="44.02468356498151" lon="7.937815495440455"><ele>414.75</ele><time>2026-03-29T09:36:24Z</time></trkpt><trkpt lat="44.024624504303745" lon="7.937952565261452"><ele>416.0</ele><time>2026-03-29T09:36:25Z</time></trkpt><trkpt lat="44.02455307211406" lon="7.93807390630344"><ele>416.0</ele><time>2026-03-29T09:36:26Z</time></trkpt><trkpt lat="44.02447566899034" lon="7.938162462278216"><ele>416.0</ele><time>2026-03-29T09:36:27Z</time></trkpt><trkpt lat="44.02439715719425" lon="7.938238177912241"><ele>416.0</ele><time>2026-03-29T09:36:28Z</time></trkpt><trkpt lat="44.024317529730865" lon="7.938293255520516"><ele>416.0</ele><time>2026-03-29T09:36:29Z</time></trkpt><trkpt lat="44.02424540413164" lon="7.938356760080795"><ele>416.0</ele><time>2026-03-29T09:36:30Z</time></trkpt><trkpt lat="44.02419261181318" lon="7.938458924057618"><ele>416.0</ele><time>2026-03-29T09:36:32Z</time></trkpt><trkpt lat="44.024184863476364" lon="7.938550005647502"><ele>416.0</ele><time>2026-03-29T09:36:34Z</time></trkpt><trkpt lat="44.02429955284029" lon="7.938526714571869"><ele>416.0</ele><time>2026-03-29T09:36:35Z</time></trkpt><trkpt lat="44.0243736722562" lon="7.938451955882702"><ele>416.0</ele><time>2026-03-29T09:36:36Z</time></trkpt><trkpt lat="44.0244544208816" lon="7.9383725317533615"><ele>416.0</ele><time>2026-03-29T09:36:37Z</time></trkpt><trkpt lat="44.024543550743545" lon="7.938303334678776"><ele>416.0</ele><time>2026-03-29T09:36:38Z</time></trkpt><trkpt lat="44.02463391484485" lon="7.938223184991477"><ele>416.0</ele><time>2026-03-29T09:36:39Z</time></trkpt><trkpt lat="44.02472018263357" lon="7.938123504348168"><ele>416.0</ele><time>2026-03-29T09:36:40Z</time></trkpt><trkpt lat="44.02480884602062" lon="7.938010817028619"><ele>416.0</ele><time>2026-03-29T09:36:41Z</time></trkpt><trkpt lat="44.0248939105723" lon="7.937878508962058"><ele>416.0</ele><time>2026-03-29T09:36:42Z</time></trkpt><trkpt lat="44.02497411843553" lon="7.937730392981998"><ele>416.0</ele><time>2026-03-29T09:36:43Z</time></trkpt><trkpt lat="44.02505630969787" lon="7.937577789814197"><ele>416.0</ele><time>2026-03-29T09:36:44Z</time></trkpt><trkpt lat="44.02513674532753" lon="7.937444213223389"><ele>416.0</ele><time>2026-03-29T09:36:45Z</time></trkpt><trkpt lat="44.025228986415414" lon="7.937328480094591"><ele>415.0</ele><time>2026-03-29T09:36:46Z</time></trkpt><trkpt lat="44.025352430019836" lon="7.93725318068979"><ele>414.0</ele><time>2026-03-29T09:36:47Z</time></trkpt><trkpt lat="44.02546451174191" lon="7.937187330584412"><ele>413.0</ele><time>2026-03-29T09:36:48Z</time></trkpt><trkpt lat="44.02556286999514" lon="7.9371604309824395"><ele>412.0</ele><time>2026-03-29T09:36:49Z</time></trkpt><trkpt lat="44.02564011099516" lon="7.937180075670453"><ele>411.0</ele><time>2026-03-29T09:36:50Z</time></trkpt><trkpt lat="44.02571043946973" lon="7.937241852779856"><ele>411.0</ele><time>2026-03-29T09:36:51Z</time></trkpt><trkpt lat="44.02573847714411" lon="7.937390028510372"><ele>411.0</ele><time>2026-03-29T09:36:52Z</time></trkpt><trkpt lat="44.0257513436136" lon="7.937539387391493"><ele>411.0</ele><time>2026-03-29T09:36:53Z</time></trkpt><trkpt lat="44.02579205564086" lon="7.937700969957926"><ele>411.0</ele><time>2026-03-29T09:36:54Z</time></trkpt><trkpt lat="44.02585465007089" lon="7.937856904574273"><ele>402.75</ele><time>2026-03-29T09:36:55Z</time></trkpt><trkpt lat="44.02594822908823" lon="7.937981445120721"><ele>394.5</ele><time>2026-03-29T09:36:56Z</time></trkpt><trkpt lat="44.026013328298035" lon="7.938118325894213"><ele>386.25</ele><time>2026-03-29T09:36:57Z</time></trkpt><trkpt lat="44.02607711654262" lon="7.938254233717213"><ele>378.0</ele><time>2026-03-29T09:36:58Z</time></trkpt><trkpt lat="44.026120965807856" lon="7.938398862100575"><ele>371.5</ele><time>2026-03-29T09:36:59Z</time></trkpt><trkpt lat="44.02616480602916" lon="7.938573230959952"><ele>365.0</ele><time>2026-03-29T09:37:00Z</time></trkpt><trkpt lat="44.02623383640975" lon="7.9387278928359475"><ele>358.5</ele><time>2026-03-29T09:37:01Z</time></trkpt><trkpt lat="44.02629856847865" lon="7.938887304244217"><ele>352.0</ele><time>2026-03-29T09:37:02Z</time></trkpt><trkpt lat="44.02636965326599" lon="7.93903277914613"><ele>352.0</ele><time>2026-03-29T09:37:03Z</time></trkpt><trkpt lat="44.0264350161129" lon="7.939161108856284"><ele>352.0</ele><time>2026-03-29T09:37:04Z</time></trkpt><trkpt lat="44.02650235370429" lon="7.939269259040857"><ele>352.0</ele><time>2026-03-29T09:37:05Z</time></trkpt><trkpt lat="44.026571414776356" lon="7.939331634569045"><ele>352.0</ele><time>2026-03-29T09:37:06Z</time></trkpt><trkpt lat="44.026655281388614" lon="7.939335579935025"><ele>352.0</ele><time>2026-03-29T09:37:07Z</time></trkpt><trkpt lat="44.02674834260222" lon="7.939284690106078"><ele>350.20000000000005</ele><time>2026-03-29T09:37:08Z</time></trkpt><trkpt lat="44.02683957333306" lon="7.939208815571115"><ele>348.4</ele><time>2026-03-29T09:37:09Z</time></trkpt><trkpt lat="44.0269356771683" lon="7.939168152569375"><ele>346.6</ele><time>2026-03-29T09:37:10Z</time></trkpt><trkpt lat="44.02702631786365" lon="7.939220378291017"><ele>344.79999999999995</ele><time>2026-03-29T09:37:11Z</time></trkpt><trkpt lat="44.02711563521119" lon="7.939312582181386"><ele>343.0</ele><time>2026-03-29T09:37:12Z</time></trkpt><trkpt lat="44.027224741870256" lon="7.939360744762694"><ele>343.0</ele><time>2026-03-29T09:37:13Z</time></trkpt><trkpt lat="44.027338991623544" lon="7.939372388850345"><ele>343.0</ele><time>2026-03-29T09:37:14Z</time></trkpt><trkpt lat="44.02746104239132" lon="7.9393856062468355"><ele>343.0</ele><time>2026-03-29T09:37:15Z</time></trkpt><trkpt lat="44.02757998613558" lon="7.939425992588806"><ele>343.0</ele><time>2026-03-29T09:37:16Z</time></trkpt><trkpt lat="44.027674513120424" lon="7.939548192807902"><ele>344.5</ele><time>2026-03-29T09:37:17Z</time></trkpt><trkpt lat="44.027780345456684" lon="7.939644404699071"><ele>346.0</ele><time>2026-03-29T09:37:18Z</time></trkpt><trkpt lat="44.027886377574816" lon="7.93970120427949"><ele>347.5</ele><time>2026-03-29T09:37:19Z</time></trkpt><trkpt lat="44.02800869128457" lon="7.939726995783338"><ele>349.0</ele><time>2026-03-29T09:37:20Z</time></trkpt><trkpt lat="44.02813884857244" lon="7.939719971236326"><ele>349.0</ele><time>2026-03-29T09:37:21Z</time></trkpt><trkpt lat="44.02825030640832" lon="7.93967187135885"><ele>349.0</ele><time>2026-03-29T09:37:22Z</time></trkpt><trkpt lat="44.02834560020385" lon="7.939582914895024"><ele>349.0</ele><time>2026-03-29T09:37:23Z</time></trkpt><trkpt lat="44.02843188643233" lon="7.9394565194195605"><ele>349.0</ele><time>2026-03-29T09:37:24Z</time></trkpt><trkpt lat="44.02850284717993" lon="7.9392947319833125"><ele>356.0</ele><time>2026-03-29T09:37:25Z</time></trkpt><trkpt lat="44.02857457141301" lon="7.93912649207983"><ele>363.0</ele><time>2026-03-29T09:37:26Z</time></trkpt><trkpt lat="44.0286519995051" lon="7.938963974759372"><ele>370.0</ele><time>2026-03-29T09:37:27Z</time></trkpt><trkpt lat="44.028734798151476" lon="7.938812677469375"><ele>377.0</ele><time>2026-03-29T09:37:28Z</time></trkpt><trkpt lat="44.028827291778676" lon="7.938677557710696"><ele>377.0</ele><time>2026-03-29T09:37:29Z</time></trkpt><trkpt lat="44.02891610575204" lon="7.938543796406344"><ele>377.0</ele><time>2026-03-29T09:37:30Z</time></trkpt><trkpt lat="44.02899350699502" lon="7.938406247968939"><ele>377.0</ele><time>2026-03-29T09:37:31Z</time></trkpt><trkpt lat="44.02905273198391" lon="7.93827188713727"><ele>377.0</ele><time>2026-03-29T09:37:32Z</time></trkpt><trkpt lat="44.029110784601116" lon="7.938157625777124"><ele>374.40000000000003</ele><time>2026-03-29T09:37:33Z</time></trkpt><trkpt lat="44.02917623486752" lon="7.938071882008227"><ele>371.8</ele><time>2026-03-29T09:37:34Z</time></trkpt><trkpt lat="44.02926174083924" lon="7.938062769823505"><ele>369.2</ele><time>2026-03-29T09:37:35Z</time></trkpt><trkpt lat="44.02935469313926" lon="7.938089091892746"><ele>366.6</ele><time>2026-03-29T09:37:36Z</time></trkpt><trkpt lat="44.02941684960068" lon="7.938184465491915"><ele>364.0</ele><time>2026-03-29T09:37:37Z</time></trkpt><trkpt lat="44.02948209389001" lon="7.938301294157406"><ele>358.75</ele><time>2026-03-29T09:37:38Z</time></trkpt><trkpt lat="44.02954449274093" lon="7.93840410699049"><ele>353.5</ele><time>2026-03-29T09:37:39Z</time></trkpt><trkpt lat="44.02964045446427" lon="7.93849830292611"><ele>348.25</ele><time>2026-03-29T09:37:40Z</time></trkpt><trkpt lat="44.02977817569508" lon="7.938531469757238"><ele>343.0</ele><time>2026-03-29T09:37:41Z</time></trkpt><trkpt lat="44.02990070448967" lon="7.938559564087612"><ele>343.0</ele><time>2026-03-29T09:37:42Z</time></trkpt><trkpt lat="44.03000132351076" lon="7.938638489278121"><ele>343.0</ele><time>2026-03-29T09:37:43Z</time></trkpt><trkpt lat="44.03008562335224" lon="7.938754238530315"><ele>343.0</ele><time>2026-03-29T09:37:44Z</time></trkpt><trkpt lat="44.03015611478141" lon="7.9389079134020255"><ele>343.0</ele><time>2026-03-29T09:37:45Z</time></trkpt><trkpt lat="44.03021134684515" lon="7.939069713888312"><ele>343.0</ele><time>2026-03-29T09:37:46Z</time></trkpt><trkpt lat="44.030265808919566" lon="7.939204920714302"><ele>343.0</ele><time>2026-03-29T09:37:47Z</time></trkpt><trkpt lat="44.03029088299384" lon="7.939335764974002"><ele>343.0</ele><time>2026-03-29T09:37:48Z</time></trkpt><trkpt lat="44.0303153822734" lon="7.939430029478858"><ele>343.0</ele><time>2026-03-29T09:37:49Z</time></trkpt><trkpt lat="44.03034813854246" lon="7.939531928715769"><ele>343.0</ele><time>2026-03-29T09:37:51Z</time></trkpt><trkpt lat="44.03037769480895" lon="7.939641570853691"><ele>343.0</ele><time>2026-03-29T09:37:54Z</time></trkpt><trkpt lat="44.030496876468625" lon="7.939639847452678"><ele>339.79999999999995</ele><time>2026-03-29T09:37:55Z</time></trkpt><trkpt lat="44.0305883169403" lon="7.939635002254057"><ele>336.6</ele><time>2026-03-29T09:37:56Z</time></trkpt><trkpt lat="44.03068966765838" lon="7.939637528904824"><ele>333.4</ele><time>2026-03-29T09:37:57Z</time></trkpt><trkpt lat="44.03080196200324" lon="7.939638112693987"><ele>330.20000000000005</ele><time>2026-03-29T09:37:58Z</time></trkpt><trkpt lat="44.03092456982032" lon="7.939637596198297"><ele>327.0</ele><time>2026-03-29T09:37:59Z</time></trkpt><trkpt lat="44.0310532431407" lon="7.9396409595822055"><ele>327.0</ele><time>2026-03-29T09:38:00Z</time></trkpt><trkpt lat="44.03119711048221" lon="7.939637973100067"><ele>327.0</ele><time>2026-03-29T09:38:01Z</time></trkpt><trkpt lat="44.03134777106912" lon="7.939637926965868"><ele>327.0</ele><time>2026-03-29T09:38:02Z</time></trkpt><trkpt lat="44.03150453132554" lon="7.9396376669097455"><ele>325.0</ele><time>2026-03-29T09:38:03Z</time></trkpt><trkpt lat="44.03166828390881" lon="7.939635590339388"><ele>323.0</ele><time>2026-03-29T09:38:04Z</time></trkpt><trkpt lat="44.03183743831195" lon="7.939634747167953"><ele>321.0</ele><time>2026-03-29T09:38:05Z</time></trkpt><trkpt lat="44.03201336494809" lon="7.939632994890699"><ele>321.0</ele><time>2026-03-29T09:38:06Z</time></trkpt><trkpt lat="44.032194562743314" lon="7.939633737002991"><ele>321.0</ele><time>2026-03-29T09:38:07Z</time></trkpt><trkpt lat="44.032375062771855" lon="7.93963425024517"><ele>321.0</ele><time>2026-03-29T09:38:08Z</time></trkpt><trkpt lat="44.03256042315926" lon="7.939631241272464"><ele>317.6666666666667</ele><time>2026-03-29T09:38:09Z</time></trkpt><trkpt lat="44.03274715434777" lon="7.939627235077495"><ele>314.33333333333337</ele><time>2026-03-29T09:38:10Z</time></trkpt><trkpt lat="44.0329329150797" lon="7.939622872135914"><ele>311.0</ele><time>2026-03-29T09:38:11Z</time></trkpt><trkpt lat="44.03311501885564" lon="7.9396199536764795"><ele>311.0</ele><time>2026-03-29T09:38:12Z</time></trkpt><trkpt lat="44.0332930912474" lon="7.939621261772688"><ele>311.0</ele><time>2026-03-29T09:38:13Z</time></trkpt><trkpt lat="44.03347316740567" lon="7.939622065773302"><ele>311.0</ele><time>2026-03-29T09:38:14Z</time></trkpt><trkpt lat="44.03364817307371" lon="7.939621437381036"><ele>312.0</ele><time>2026-03-29T09:38:15Z</time></trkpt><trkpt lat="44.033822426383274" lon="7.939618995317858"><ele>313.0</ele><time>2026-03-29T09:38:16Z</time></trkpt><trkpt lat="44.03399546129895" lon="7.93961550129907"><ele>314.0</ele><time>2026-03-29T09:38:17Z</time></trkpt><trkpt lat="44.034166386883534" lon="7.939610042962387"><ele>321.33333333333337</ele><time>2026-03-29T09:38:18Z</time></trkpt><trkpt lat="44.03433544209247" lon="7.939601098812997"><ele>328.6666666666667</ele><time>2026-03-29T09:38:19Z</time></trkpt><trkpt lat="44.03450400177597" lon="7.93957934043317"><ele>336.0</ele><time>2026-03-29T09:38:20Z</time></trkpt><trkpt lat="44.03468067749398" lon="7.939534536881148"><ele>336.0</ele><time>2026-03-29T09:38:21.06Z</time></trkpt><trkpt lat="44.0348450675219" lon="7.93947624383445"><ele>336.0</ele><time>2026-03-29T09:38:22.058Z</time></trkpt><trkpt lat="44.03528556359191" lon="7.939086339284636"><ele>335.0</ele><time>2026-03-29T09:38:25Z</time></trkpt><trkpt lat="44.03543155793907" lon="7.93894677048094"><ele>334.0</ele><time>2026-03-29T09:38:26Z</time></trkpt><trkpt lat="44.03559926835" lon="7.9387817083125185"><ele>333.0</ele><time>2026-03-29T09:38:27Z</time></trkpt><trkpt lat="44.035751152125165" lon="7.938596988774772"><ele>321.3333333333333</ele><time>2026-03-29T09:38:28Z</time></trkpt><trkpt lat="44.03586669001042" lon="7.938364566983784"><ele>309.66666666666663</ele><time>2026-03-29T09:38:29Z</time></trkpt><trkpt lat="44.03596803113911" lon="7.938122467228713"><ele>298.0</ele><time>2026-03-29T09:38:30Z</time></trkpt><trkpt lat="44.03598739499388" lon="7.937863614626679"><ele>298.0</ele><time>2026-03-29T09:38:31Z</time></trkpt><trkpt lat="44.0360607954606" lon="7.937617001734407"><ele>298.0</ele><time>2026-03-29T09:38:32Z</time></trkpt><trkpt lat="44.03613098444456" lon="7.9373648051804455"><ele>298.0</ele><time>2026-03-29T09:38:33Z</time></trkpt><trkpt lat="44.03620724498069" lon="7.937112759250081"><ele>301.3333333333333</ele><time>2026-03-29T09:38:34Z</time></trkpt><trkpt lat="44.036281688639995" lon="7.936861199103494"><ele>304.6666666666667</ele><time>2026-03-29T09:38:35Z</time></trkpt><trkpt lat="44.03635364043312" lon="7.936605121827369"><ele>308.0</ele><time>2026-03-29T09:38:36Z</time></trkpt><trkpt lat="44.03642812978403" lon="7.93635108171169"><ele>308.33333333333337</ele><time>2026-03-29T09:38:37Z</time></trkpt><trkpt lat="44.036504929234965" lon="7.936098227031658"><ele>308.6666666666667</ele><time>2026-03-29T09:38:38Z</time></trkpt><trkpt lat="44.03658439425191" lon="7.93584975775167"><ele>309.0</ele><time>2026-03-29T09:38:39Z</time></trkpt><trkpt lat="44.03667073810328" lon="7.935603842303719"><ele>304.6666666666667</ele><time>2026-03-29T09:38:40Z</time></trkpt><trkpt lat="44.03676636201761" lon="7.93536791257227"><ele>300.33333333333337</ele><time>2026-03-29T09:38:41Z</time></trkpt><trkpt lat="44.03687174677564" lon="7.935140407439564"><ele>296.0</ele><time>2026-03-29T09:38:42Z</time></trkpt><trkpt lat="44.036981931167894" lon="7.934916671499419"><ele>296.0</ele><time>2026-03-29T09:38:43Z</time></trkpt><trkpt lat="44.0370925086351" lon="7.934693437634589"><ele>296.0</ele><time>2026-03-29T09:38:44Z</time></trkpt><trkpt lat="44.03719736532592" lon="7.934468704674357"><ele>296.0</ele><time>2026-03-29T09:38:45Z</time></trkpt><trkpt lat="44.03729658182975" lon="7.934245252898017"><ele>303.33333333333337</ele><time>2026-03-29T09:38:46Z</time></trkpt><trkpt lat="44.03738749532912" lon="7.934014905741672"><ele>310.6666666666667</ele><time>2026-03-29T09:38:47Z</time></trkpt><trkpt lat="44.03746361673013" lon="7.93378183003029"><ele>318.0</ele><time>2026-03-29T09:38:48Z</time></trkpt><trkpt lat="44.03753050652907" lon="7.933545996499435"><ele>304.6666666666667</ele><time>2026-03-29T09:38:49Z</time></trkpt><trkpt lat="44.03760010821689" lon="7.933315536362166"><ele>291.33333333333337</ele><time>2026-03-29T09:38:50Z</time></trkpt><trkpt lat="44.03766610128394" lon="7.933102698493702"><ele>278.0</ele><time>2026-03-29T09:38:51Z</time></trkpt><trkpt lat="44.03771696387115" lon="7.932907793523153"><ele>278.0</ele><time>2026-03-29T09:38:52Z</time></trkpt><trkpt lat="44.03774931233808" lon="7.932710079305433"><ele>278.0</ele><time>2026-03-29T09:38:53Z</time></trkpt><trkpt lat="44.03776258970983" lon="7.93250365475976"><ele>278.0</ele><time>2026-03-29T09:38:54Z</time></trkpt><trkpt lat="44.037756452364405" lon="7.932290274538398"><ele>278.0</ele><time>2026-03-29T09:38:55Z</time></trkpt><trkpt lat="44.03771246708105" lon="7.9320770157649045"><ele>278.33333333333337</ele><time>2026-03-29T09:38:56Z</time></trkpt><trkpt lat="44.03767874408579" lon="7.9318472511111855"><ele>278.6666666666667</ele><time>2026-03-29T09:38:57Z</time></trkpt><trkpt lat="44.03758917490199" lon="7.931637179304392"><ele>279.0</ele><time>2026-03-29T09:38:58Z</time></trkpt><trkpt lat="44.03750547380287" lon="7.93141479843107"><ele>281.0</ele><time>2026-03-29T09:38:59Z</time></trkpt><trkpt lat="44.03743597907401" lon="7.931172645753282"><ele>283.0</ele><time>2026-03-29T09:39:00Z</time></trkpt><trkpt lat="44.0373385314473" lon="7.930943704628709"><ele>285.0</ele><time>2026-03-29T09:39:01Z</time></trkpt><trkpt lat="44.037227354197825" lon="7.930718704985993"><ele>285.0</ele><time>2026-03-29T09:39:02Z</time></trkpt><trkpt lat="44.037109750999846" lon="7.930494531131817"><ele>285.0</ele><time>2026-03-29T09:39:03Z</time></trkpt><trkpt lat="44.036989626023626" lon="7.930273830221562"><ele>285.0</ele><time>2026-03-29T09:39:04Z</time></trkpt><trkpt lat="44.0368785555788" lon="7.9300737988783085"><ele>276.3333333333333</ele><time>2026-03-29T09:39:05Z</time></trkpt><trkpt lat="44.03678262696962" lon="7.929890961101346"><ele>267.66666666666663</ele><time>2026-03-29T09:39:06Z</time></trkpt><trkpt lat="44.03670380975259" lon="7.929706034536603"><ele>259.0</ele><time>2026-03-29T09:39:07Z</time></trkpt><trkpt lat="44.0366505554221" lon="7.929495179601197"><ele>262.66666666666663</ele><time>2026-03-29T09:39:08Z</time></trkpt><trkpt lat="44.03661760599467" lon="7.929262965625051"><ele>266.3333333333333</ele><time>2026-03-29T09:39:09Z</time></trkpt><trkpt lat="44.036608169543726" lon="7.9290195452442775"><ele>270.0</ele><time>2026-03-29T09:39:10Z</time></trkpt><trkpt lat="44.03663369570649" lon="7.928774229113008"><ele>259.6666666666667</ele><time>2026-03-29T09:39:11Z</time></trkpt><trkpt lat="44.03669333965901" lon="7.9285328214035475"><ele>249.33333333333334</ele><time>2026-03-29T09:39:12Z</time></trkpt><trkpt lat="44.03678128348033" lon="7.928303143813983"><ele>239.0</ele><time>2026-03-29T09:39:13Z</time></trkpt><trkpt lat="44.036873765203154" lon="7.928077798237464"><ele>234.66666666666669</ele><time>2026-03-29T09:39:14Z</time></trkpt><trkpt lat="44.036951197826106" lon="7.927837458561754"><ele>230.33333333333331</ele><time>2026-03-29T09:39:15Z</time></trkpt><trkpt lat="44.03701880124631" lon="7.927592982958441"><ele>226.0</ele><time>2026-03-29T09:39:16Z</time></trkpt><trkpt lat="44.037081983515456" lon="7.92734652404025"><ele>226.0</ele><time>2026-03-29T09:39:17Z</time></trkpt><trkpt lat="44.03716263350865" lon="7.927106834110097"><ele>226.0</ele><time>2026-03-29T09:39:18Z</time></trkpt><trkpt lat="44.03725598232303" lon="7.926875503092828"><ele>226.0</ele><time>2026-03-29T09:39:19Z</time></trkpt><trkpt lat="44.037350595258076" lon="7.926646309855875"><ele>228.66666666666666</ele><time>2026-03-29T09:39:20Z</time></trkpt><trkpt lat="44.037445457051156" lon="7.926416715021094"><ele>231.33333333333331</ele><time>2026-03-29T09:39:21Z</time></trkpt><trkpt lat="44.03754134768919" lon="7.926186785043099"><ele>234.0</ele><time>2026-03-29T09:39:22Z</time></trkpt><trkpt lat="44.03763720779712" lon="7.925955175744552"><ele>236.0</ele><time>2026-03-29T09:39:23Z</time></trkpt><trkpt lat="44.03773402980125" lon="7.925725015130061"><ele>238.0</ele><time>2026-03-29T09:39:24Z</time></trkpt><trkpt lat="44.03783149889091" lon="7.925501225157031"><ele>240.0</ele><time>2026-03-29T09:39:25Z</time></trkpt><trkpt lat="44.03791737437327" lon="7.925306086043711"><ele>240.0</ele><time>2026-03-29T09:39:26Z</time></trkpt><trkpt lat="44.037995767322364" lon="7.925131590169714"><ele>240.0</ele><time>2026-03-29T09:39:27Z</time></trkpt><trkpt lat="44.03807057900257" lon="7.924972803286291"><ele>240.0</ele><time>2026-03-29T09:39:28Z</time></trkpt><trkpt lat="44.03814113162929" lon="7.924834025363054"><ele>240.0</ele><time>2026-03-29T09:39:29Z</time></trkpt><trkpt lat="44.038202014236724" lon="7.924715006496044"><ele>238.33333333333334</ele><time>2026-03-29T09:39:30Z</time></trkpt><trkpt lat="44.038252724180445" lon="7.924623995122316"><ele>236.66666666666669</ele><time>2026-03-29T09:39:31Z</time></trkpt><trkpt lat="44.03830372040904" lon="7.924550807527858"><ele>235.0</ele><time>2026-03-29T09:39:32Z</time></trkpt><trkpt lat="44.03840774552684" lon="7.92450209873054"><ele>233.33333333333334</ele><time>2026-03-29T09:39:34Z</time></trkpt><trkpt lat="44.03848690258023" lon="7.9245248170015765"><ele>231.66666666666669</ele><time>2026-03-29T09:39:35Z</time></trkpt><trkpt lat="44.03857289830876" lon="7.924513571091665"><ele>230.0</ele><time>2026-03-29T09:39:36Z</time></trkpt><trkpt lat="44.03865445617851" lon="7.924459229488451"><ele>230.0</ele><time>2026-03-29T09:39:37Z</time></trkpt><trkpt lat="44.03870625946057" lon="7.9243578735357865"><ele>230.0</ele><time>2026-03-29T09:39:38Z</time></trkpt><trkpt lat="44.0387308934358" lon="7.924216540102785"><ele>230.0</ele><time>2026-03-29T09:39:39Z</time></trkpt><trkpt lat="44.03875461910024" lon="7.9240707946217865"><ele>230.0</ele><time>2026-03-29T09:39:40Z</time></trkpt><trkpt lat="44.038804325506966" lon="7.923922444967823"><ele>230.0</ele><time>2026-03-29T09:39:41Z</time></trkpt><trkpt lat="44.038872227385625" lon="7.923773645662098"><ele>230.5</ele><time>2026-03-29T09:39:42Z</time></trkpt><trkpt lat="44.0389508146693" lon="7.9236209397466135"><ele>231.0</ele><time>2026-03-29T09:39:43Z</time></trkpt><trkpt lat="44.039034327464606" lon="7.923462958563609"><ele>231.5</ele><time>2026-03-29T09:39:44Z</time></trkpt><trkpt lat="44.039116717629696" lon="7.923295947074999"><ele>232.0</ele><time>2026-03-29T09:39:45Z</time></trkpt><trkpt lat="44.039206566812695" lon="7.923126474357242"><ele>232.0</ele><time>2026-03-29T09:39:46Z</time></trkpt><trkpt lat="44.03930903699446" lon="7.92296515512337"><ele>232.0</ele><time>2026-03-29T09:39:47Z</time></trkpt><trkpt lat="44.03942614407493" lon="7.922818096425505"><ele>232.0</ele><time>2026-03-29T09:39:48Z</time></trkpt><trkpt lat="44.0395553285564" lon="7.922685208876795"><ele>239.66666666666666</ele><time>2026-03-29T09:39:49Z</time></trkpt><trkpt lat="44.039691408622176" lon="7.922559002462764"><ele>247.33333333333331</ele><time>2026-03-29T09:39:50Z</time></trkpt><trkpt lat="44.03982420482933" lon="7.922426814851965"><ele>255.0</ele><time>2026-03-29T09:39:51Z</time></trkpt><trkpt lat="44.03995119908148" lon="7.922285139118429"><ele>247.66666666666669</ele><time>2026-03-29T09:39:52Z</time></trkpt><trkpt lat="44.04007392400557" lon="7.9221422743205485"><ele>240.33333333333334</ele><time>2026-03-29T09:39:53Z</time></trkpt><trkpt lat="44.04018808503503" lon="7.921997021181307"><ele>233.0</ele><time>2026-03-29T09:39:54Z</time></trkpt><trkpt lat="44.040293081161835" lon="7.921845469903912"><ele>235.75</ele><time>2026-03-29T09:39:55Z</time></trkpt><trkpt lat="44.0403944603651" lon="7.921694915099804"><ele>238.5</ele><time>2026-03-29T09:39:56Z</time></trkpt><trkpt lat="44.04049483319474" lon="7.921544277456596"><ele>241.25</ele><time>2026-03-29T09:39:57Z</time></trkpt><trkpt lat="44.04059613700851" lon="7.921394015720698"><ele>244.0</ele><time>2026-03-29T09:39:58Z</time></trkpt><trkpt lat="44.040694546242044" lon="7.9212466806317705"><ele>244.0</ele><time>2026-03-29T09:39:59Z</time></trkpt><trkpt lat="44.040790817704405" lon="7.921098217815145"><ele>244.0</ele><time>2026-03-29T09:40:00Z</time></trkpt><trkpt lat="44.04088346172043" lon="7.920951497948827"><ele>244.0</ele><time>2026-03-29T09:40:01Z</time></trkpt><trkpt lat="44.040969000894705" lon="7.9208235129771145"><ele>244.0</ele><time>2026-03-29T09:40:02Z</time></trkpt><trkpt lat="44.04104187159114" lon="7.920715659468052"><ele>242.39999999999998</ele><time>2026-03-29T09:40:03Z</time></trkpt><trkpt lat="44.041114779117684" lon="7.920621971899026"><ele>240.79999999999998</ele><time>2026-03-29T09:40:04Z</time></trkpt><trkpt lat="44.04120004873766" lon="7.920554053365195"><ele>239.20000000000002</ele><time>2026-03-29T09:40:05Z</time></trkpt><trkpt lat="44.04130516004783" lon="7.92055347101287"><ele>237.60000000000002</ele><time>2026-03-29T09:40:06Z</time></trkpt><trkpt lat="44.041418471474515" lon="7.920566386780311"><ele>236.0</ele><time>2026-03-29T09:40:07Z</time></trkpt><trkpt lat="44.04154038780276" lon="7.920571789947043"><ele>234.75</ele><time>2026-03-29T09:40:08Z</time></trkpt><trkpt lat="44.04166021820407" lon="7.9205534931050545"><ele>233.5</ele><time>2026-03-29T09:40:09Z</time></trkpt><trkpt lat="44.04178013507806" lon="7.9205592821016495"><ele>232.25</ele><time>2026-03-29T09:40:10Z</time></trkpt><trkpt lat="44.041898837394385" lon="7.920559337480817"><ele>231.0</ele><time>2026-03-29T09:40:11Z</time></trkpt><trkpt lat="44.04201373815628" lon="7.920556108276228"><ele>231.0</ele><time>2026-03-29T09:40:12Z</time></trkpt><trkpt lat="44.04211575654689" lon="7.920543732935375"><ele>231.0</ele><time>2026-03-29T09:40:13Z</time></trkpt><trkpt lat="44.042198114204126" lon="7.9205173060748235"><ele>231.0</ele><time>2026-03-29T09:40:14Z</time></trkpt><trkpt lat="44.04226417239805" lon="7.920487164485421"><ele>231.0</ele><time>2026-03-29T09:40:15Z</time></trkpt><trkpt lat="44.04232379831222" lon="7.920451115405524"><ele>231.0</ele><time>2026-03-29T09:40:16Z</time></trkpt><trkpt lat="44.04241858437247" lon="7.920385551790112"><ele>231.0</ele><time>2026-03-29T09:40:18Z</time></trkpt><trkpt lat="44.042503762888416" lon="7.920329252151055"><ele>231.0</ele><time>2026-03-29T09:40:20Z</time></trkpt><trkpt lat="44.04250405018896" lon="7.920235484293986"><ele>231.0</ele><time>2026-03-29T09:40:22Z</time></trkpt><trkpt lat="44.04235654953591" lon="7.92022135424064"><ele>231.0</ele><time>2026-03-29T09:40:27Z</time></trkpt><trkpt lat="44.0423335331323" lon="7.920320786008298"><ele>231.0</ele><time>2026-03-29T09:40:41Z</time></trkpt><trkpt lat="44.04226052663092" lon="7.920326615070944"><ele>231.0</ele><time>2026-03-29T09:42:43Z</time></trkpt><trkpt lat="44.042286673447855" lon="7.920406931031248"><ele>231.0</ele><time>2026-03-29T09:46:32Z</time></trkpt><trkpt lat="44.0422172252987" lon="7.920516474444783"><ele>231.0</ele><time>2026-03-29T09:46:34Z</time></trkpt><trkpt lat="44.042147965010955" lon="7.920543051380168"><ele>231.00000000000003</ele><time>2026-03-29T09:46:35Z</time></trkpt><trkpt lat="44.04205727933356" lon="7.920558755302644"><ele>231.00000000000003</ele><time>2026-03-29T09:46:36Z</time></trkpt><trkpt lat="44.04196272784377" lon="7.92056619261468"><ele>231.0</ele><time>2026-03-29T09:46:37Z</time></trkpt><trkpt lat="44.0418614756629" lon="7.920533319215941"><ele>231.0</ele><time>2026-03-29T09:46:38Z</time></trkpt><trkpt lat="44.04176366195802" lon="7.920531727893719"><ele>231.0</ele><time>2026-03-29T09:46:39Z</time></trkpt><trkpt lat="44.04167030100586" lon="7.920529678250575"><ele>231.0</ele><time>2026-03-29T09:46:40Z</time></trkpt><trkpt lat="44.04158070211672" lon="7.920527391477205"><ele>231.0</ele><time>2026-03-29T09:46:41Z</time></trkpt><trkpt lat="44.04149503872383" lon="7.9205235949955695"><ele>231.0</ele><time>2026-03-29T09:46:42Z</time></trkpt><trkpt lat="44.04141245117542" lon="7.920519934819866"><ele>231.0</ele><time>2026-03-29T09:46:43Z</time></trkpt><trkpt lat="44.041331230402335" lon="7.920516938703758"><ele>231.0</ele><time>2026-03-29T09:46:44Z</time></trkpt><trkpt lat="44.041259916896394" lon="7.920514610094983"><ele>230.8</ele><time>2026-03-29T09:46:45Z</time></trkpt><trkpt lat="44.0411855559024" lon="7.920514619211341"><ele>230.60000000000002</ele><time>2026-03-29T09:46:46Z</time></trkpt><trkpt lat="44.041102864464655" lon="7.920548034535398"><ele>230.4</ele><time>2026-03-29T09:46:47Z</time></trkpt><trkpt lat="44.041027772961286" lon="7.9206449842512"><ele>230.2</ele><time>2026-03-29T09:46:48Z</time></trkpt><trkpt lat="44.04094403439396" lon="7.92077280068817"><ele>230.0</ele><time>2026-03-29T09:46:49Z</time></trkpt><trkpt lat="44.04084669643133" lon="7.920922370952398"><ele>234.66666666666669</ele><time>2026-03-29T09:46:50Z</time></trkpt><trkpt lat="44.040726986675615" lon="7.921101217150734"><ele>239.33333333333331</ele><time>2026-03-29T09:46:51Z</time></trkpt><trkpt lat="44.04059920592596" lon="7.921293189519539"><ele>244.0</ele><time>2026-03-29T09:46:52Z</time></trkpt><trkpt lat="44.04048591478949" lon="7.921491025592719"><ele>244.0</ele><time>2026-03-29T09:46:53Z</time></trkpt><trkpt lat="44.040354153407044" lon="7.921676254174177"><ele>244.0</ele><time>2026-03-29T09:46:54Z</time></trkpt><trkpt lat="44.0402244481077" lon="7.921867950734314"><ele>244.0</ele><time>2026-03-29T09:46:55Z</time></trkpt><trkpt lat="44.04008915501273" lon="7.922058987810611"><ele>247.66666666666666</ele><time>2026-03-29T09:46:56Z</time></trkpt><trkpt lat="44.03994569913361" lon="7.922232934960887"><ele>251.33333333333331</ele><time>2026-03-29T09:46:57Z</time></trkpt><trkpt lat="44.039793790023076" lon="7.922394647672752"><ele>255.0</ele><time>2026-03-29T09:46:58Z</time></trkpt><trkpt lat="44.039644314985644" lon="7.922548746588412"><ele>247.33333333333331</ele><time>2026-03-29T09:46:59Z</time></trkpt><trkpt lat="44.03950170324312" lon="7.9226947687500875"><ele>239.66666666666666</ele><time>2026-03-29T09:47:00Z</time></trkpt><trkpt lat="44.03936922697481" lon="7.922835151358684"><ele>232.0</ele><time>2026-03-29T09:47:01Z</time></trkpt><trkpt lat="44.03923864570014" lon="7.923011542571682"><ele>236.66666666666666</ele><time>2026-03-29T09:47:02Z</time></trkpt><trkpt lat="44.039122520589025" lon="7.92321719713016"><ele>241.33333333333331</ele><time>2026-03-29T09:47:03Z</time></trkpt><trkpt lat="44.039025837048825" lon="7.923399263260057"><ele>246.0</ele><time>2026-03-29T09:47:04Z</time></trkpt><trkpt lat="44.03893332145061" lon="7.923559237925126"><ele>246.0</ele><time>2026-03-29T09:47:05Z</time></trkpt><trkpt lat="44.038853450069965" lon="7.923695927681498"><ele>246.00000000000003</ele><time>2026-03-29T09:47:06Z</time></trkpt><trkpt lat="44.038787969207576" lon="7.923811380256917"><ele>246.00000000000003</ele><time>2026-03-29T09:47:07Z</time></trkpt><trkpt lat="44.0387325742704" lon="7.923904816127978"><ele>246.0</ele><time>2026-03-29T09:47:08Z</time></trkpt><trkpt lat="44.0386908737054" lon="7.923973285036243"><ele>246.0</ele><time>2026-03-29T09:47:09Z</time></trkpt><trkpt lat="44.03863783899094" lon="7.9240363211984945"><ele>246.0</ele><time>2026-03-29T09:47:12Z</time></trkpt><trkpt lat="44.038564325910144" lon="7.924081685754706"><ele>246.00000000000003</ele><time>2026-03-29T09:47:22Z</time></trkpt><trkpt lat="44.03843963563596" lon="7.924113042573531"><ele>246.00000000000003</ele><time>2026-03-29T09:47:24Z</time></trkpt><trkpt lat="44.03838507927157" lon="7.9241590391090595"><ele>246.0</ele><time>2026-03-29T09:47:25Z</time></trkpt><trkpt lat="44.03833877176341" lon="7.924326842956877"><ele>246.0</ele><time>2026-03-29T09:47:27Z</time></trkpt><trkpt lat="44.0383415752487" lon="7.924422099547884"><ele>247.20000000000002</ele><time>2026-03-29T09:47:28Z</time></trkpt><trkpt lat="44.038347691980036" lon="7.9245202780532145"><ele>248.40000000000003</ele><time>2026-03-29T09:47:29Z</time></trkpt><trkpt lat="44.038343934117" lon="7.924611990022349"><ele>249.6</ele><time>2026-03-29T09:47:30Z</time></trkpt><trkpt lat="44.03819654236628" lon="7.924594059776487"><ele>250.8</ele><time>2026-03-29T09:47:31Z</time></trkpt><trkpt lat="44.03828492826696" lon="7.92478395389368"><ele>252.0</ele><time>2026-03-29T09:47:32Z</time></trkpt><trkpt lat="44.038223416930876" lon="7.924911122817711"><ele>252.0</ele><time>2026-03-29T09:47:34Z</time></trkpt><trkpt lat="44.03818663624371" lon="7.924986434084869"><ele>252.0</ele><time>2026-03-29T09:47:35Z</time></trkpt><trkpt lat="44.038152430711605" lon="7.92506268052505"><ele>252.0</ele><time>2026-03-29T09:47:36Z</time></trkpt><trkpt lat="44.038113572011554" lon="7.925139203887193"><ele>252.0</ele><time>2026-03-29T09:47:37Z</time></trkpt><trkpt lat="44.03807207640601" lon="7.925225072109371"><ele>252.0</ele><time>2026-03-29T09:47:38Z</time></trkpt><trkpt lat="44.038030381272094" lon="7.925316119840784"><ele>252.0</ele><time>2026-03-29T09:47:39Z</time></trkpt><trkpt lat="44.03798854991294" lon="7.925404700766062"><ele>252.0</ele><time>2026-03-29T09:47:40Z</time></trkpt><trkpt lat="44.037946490045236" lon="7.925494493657029"><ele>249.0</ele><time>2026-03-29T09:47:41Z</time></trkpt><trkpt lat="44.03790026496255" lon="7.925587076647849"><ele>246.0</ele><time>2026-03-29T09:47:42Z</time></trkpt><trkpt lat="44.03785241867084" lon="7.925682352817474"><ele>243.0</ele><time>2026-03-29T09:47:43Z</time></trkpt><trkpt lat="44.03770143456119" lon="7.9256845698250284"><ele>240.0</ele><time>2026-03-29T09:47:44Z</time></trkpt><trkpt lat="44.03777369922871" lon="7.925854094201941"><ele>239.0</ele><time>2026-03-29T09:47:45Z</time></trkpt><trkpt lat="44.03773796084293" lon="7.925936831553417"><ele>238.0</ele><time>2026-03-29T09:47:46Z</time></trkpt><trkpt lat="44.03770383105491" lon="7.926015938523221"><ele>237.0</ele><time>2026-03-29T09:47:47Z</time></trkpt><trkpt lat="44.037672814074014" lon="7.926095064215779"><ele>236.0</ele><time>2026-03-29T09:47:48Z</time></trkpt><trkpt lat="44.03762152921638" lon="7.926251720941152"><ele>235.0</ele><time>2026-03-29T09:47:50Z</time></trkpt><trkpt lat="44.03758414969331" lon="7.926407288571922"><ele>234.0</ele><time>2026-03-29T09:47:52Z</time></trkpt><trkpt lat="44.03756559765823" lon="7.9265665186607945"><ele>232.0</ele><time>2026-03-29T09:47:54.001Z</time></trkpt><trkpt lat="44.03755598991676" lon="7.926728606514906"><ele>230.0</ele><time>2026-03-29T09:47:56.001Z</time></trkpt><trkpt lat="44.03754114114778" lon="7.926893996755226"><ele>228.0</ele><time>2026-03-29T09:47:58Z</time></trkpt><trkpt lat="44.037527418098584" lon="7.927055348352994"><ele>226.0</ele><time>2026-03-29T09:48:00Z</time></trkpt><trkpt lat="44.037518603964024" lon="7.9272188429698565"><ele>226.0</ele><time>2026-03-29T09:48:02Z</time></trkpt><trkpt lat="44.037516246185355" lon="7.927380687512697"><ele>226.00000000000003</ele><time>2026-03-29T09:48:04Z</time></trkpt><trkpt lat="44.037507746026954" lon="7.9275274847086665"><ele>226.00000000000003</ele><time>2026-03-29T09:48:06Z</time></trkpt><trkpt lat="44.0374716913165" lon="7.927605509793181"><ele>226.0</ele><time>2026-03-29T09:48:19Z</time></trkpt><trkpt lat="44.03740114898906" lon="7.927696557013372"><ele>226.0</ele><time>2026-03-29T09:48:22Z</time></trkpt><trkpt lat="44.037336513053425" lon="7.927711021037804"><ele>226.0</ele><time>2026-03-29T09:48:23Z</time></trkpt><trkpt lat="44.03725486381785" lon="7.927684003556138"><ele>226.00000000000003</ele><time>2026-03-29T09:48:24Z</time></trkpt><trkpt lat="44.037172152127205" lon="7.927629559542442"><ele>226.00000000000003</ele><time>2026-03-29T09:48:25Z</time></trkpt><trkpt lat="44.03709303989759" lon="7.927547320263965"><ele>226.0</ele><time>2026-03-29T09:48:26Z</time></trkpt><trkpt lat="44.0370094658424" lon="7.927457433610376"><ele>226.0</ele><time>2026-03-29T09:48:27Z</time></trkpt><trkpt lat="44.03692008863342" lon="7.927369916453107"><ele>226.0</ele><time>2026-03-29T09:48:28Z</time></trkpt><trkpt lat="44.036829566504494" lon="7.927274559587525"><ele>226.0</ele><time>2026-03-29T09:48:29Z</time></trkpt><trkpt lat="44.0367400360429" lon="7.927166578076047"><ele>226.0</ele><time>2026-03-29T09:48:30Z</time></trkpt><trkpt lat="44.03665552047333" lon="7.927053037376863"><ele>226.0</ele><time>2026-03-29T09:48:31Z</time></trkpt><trkpt lat="44.03657955225565" lon="7.926914550893856"><ele>227.0</ele><time>2026-03-29T09:48:32Z</time></trkpt><trkpt lat="44.036520711175925" lon="7.926755378399387"><ele>228.0</ele><time>2026-03-29T09:48:33Z</time></trkpt><trkpt lat="44.03647033335333" lon="7.9265963194756575"><ele>229.0</ele><time>2026-03-29T09:48:34Z</time></trkpt><trkpt lat="44.03641363767074" lon="7.926439854304674"><ele>230.0</ele><time>2026-03-29T09:48:35Z</time></trkpt><trkpt lat="44.036342694526866" lon="7.926299635693469"><ele>230.0</ele><time>2026-03-29T09:48:36Z</time></trkpt><trkpt lat="44.036255385162384" lon="7.926172236791616"><ele>230.0</ele><time>2026-03-29T09:48:37Z</time></trkpt><trkpt lat="44.03615979800109" lon="7.926070755705371"><ele>230.0</ele><time>2026-03-29T09:48:38Z</time></trkpt><trkpt lat="44.03606750587684" lon="7.92599703080871"><ele>230.0</ele><time>2026-03-29T09:48:39Z</time></trkpt><trkpt lat="44.03596573977765" lon="7.925968883853017"><ele>230.0</ele><time>2026-03-29T09:48:40Z</time></trkpt><trkpt lat="44.0358574355565" lon="7.925987448994769"><ele>230.0</ele><time>2026-03-29T09:48:41Z</time></trkpt><trkpt lat="44.03575195568926" lon="7.926046930165411"><ele>230.0</ele><time>2026-03-29T09:48:42Z</time></trkpt><trkpt lat="44.03565767079085" lon="7.926151207026857"><ele>230.0</ele><time>2026-03-29T09:48:43Z</time></trkpt><trkpt lat="44.03557488113756" lon="7.926279267348346"><ele>238.5</ele><time>2026-03-29T09:48:44Z</time></trkpt><trkpt lat="44.03550375370664" lon="7.926424755622566"><ele>247.0</ele><time>2026-03-29T09:48:45Z</time></trkpt><trkpt lat="44.03545360059945" lon="7.926593036229668"><ele>255.5</ele><time>2026-03-29T09:48:46Z</time></trkpt><trkpt lat="44.03542312515886" lon="7.926777241504338"><ele>264.0</ele><time>2026-03-29T09:48:47Z</time></trkpt><trkpt lat="44.035412431914075" lon="7.926969193015391"><ele>267.75</ele><time>2026-03-29T09:48:48Z</time></trkpt><trkpt lat="44.03540836672881" lon="7.927165861771849"><ele>271.5</ele><time>2026-03-29T09:48:49Z</time></trkpt><trkpt lat="44.03541421027147" lon="7.9273673927539505"><ele>275.25</ele><time>2026-03-29T09:48:50Z</time></trkpt><trkpt lat="44.03543188500934" lon="7.927569377765466"><ele>279.0</ele><time>2026-03-29T09:48:51Z</time></trkpt><trkpt lat="44.03546028446195" lon="7.927765210109183"><ele>279.75</ele><time>2026-03-29T09:48:52Z</time></trkpt><trkpt lat="44.035497014509254" lon="7.9279347888935225"><ele>280.5</ele><time>2026-03-29T09:48:53Z</time></trkpt><trkpt lat="44.035554360915626" lon="7.928080376387139"><ele>281.25</ele><time>2026-03-29T09:48:54Z</time></trkpt><trkpt lat="44.03564915490671" lon="7.9282035833563524"><ele>282.0</ele><time>2026-03-29T09:48:55Z</time></trkpt><trkpt lat="44.03576679107693" lon="7.928300550946791"><ele>279.0</ele><time>2026-03-29T09:48:56Z</time></trkpt><trkpt lat="44.03588574126665" lon="7.928406611475539"><ele>276.0</ele><time>2026-03-29T09:48:57Z</time></trkpt><trkpt lat="44.03600827774324" lon="7.928525690500463"><ele>273.0</ele><time>2026-03-29T09:48:58Z</time></trkpt><trkpt lat="44.036137894236354" lon="7.92864670153307"><ele>270.0</ele><time>2026-03-29T09:48:59Z</time></trkpt><trkpt lat="44.03626985434879" lon="7.928768827183473"><ele>270.0</ele><time>2026-03-29T09:49:00Z</time></trkpt><trkpt lat="44.036395726179926" lon="7.928906518542194"><ele>270.0</ele><time>2026-03-29T09:49:01Z</time></trkpt><trkpt lat="44.03650985378094" lon="7.9290645547146825"><ele>270.0</ele><time>2026-03-29T09:49:02Z</time></trkpt><trkpt lat="44.03661416151154" lon="7.929236162222622"><ele>266.3333333333333</ele><time>2026-03-29T09:49:03Z</time></trkpt><trkpt lat="44.03671825585474" lon="7.929394014418412"><ele>262.66666666666663</ele><time>2026-03-29T09:49:04Z</time></trkpt><trkpt lat="44.03681712830544" lon="7.92955398010242"><ele>259.0</ele><time>2026-03-29T09:49:05Z</time></trkpt><trkpt lat="44.036914466145234" lon="7.929718319592467"><ele>259.0</ele><time>2026-03-29T09:49:06Z</time></trkpt><trkpt lat="44.037005597783924" lon="7.929882333037401"><ele>259.0</ele><time>2026-03-29T09:49:07Z</time></trkpt><trkpt lat="44.037095802141465" lon="7.930051564445169"><ele>259.0</ele><time>2026-03-29T09:49:08Z</time></trkpt><trkpt lat="44.03717961722314" lon="7.930225659373329"><ele>253.66666666666666</ele><time>2026-03-29T09:49:09Z</time></trkpt><trkpt lat="44.037268902613825" lon="7.9303956043128"><ele>248.33333333333331</ele><time>2026-03-29T09:49:10Z</time></trkpt><trkpt lat="44.037370142373966" lon="7.9305573186342935"><ele>243.0</ele><time>2026-03-29T09:49:11Z</time></trkpt><trkpt lat="44.03748623298105" lon="7.93070145256762"><ele>243.0</ele><time>2026-03-29T09:49:12Z</time></trkpt><trkpt lat="44.03760869586107" lon="7.930829410107462"><ele>243.0</ele><time>2026-03-29T09:49:13Z</time></trkpt><trkpt lat="44.03771865998197" lon="7.930952069455463"><ele>243.0</ele><time>2026-03-29T09:49:14Z</time></trkpt><trkpt lat="44.037811139626406" lon="7.931081461749977"><ele>243.0</ele><time>2026-03-29T09:49:15Z</time></trkpt><trkpt lat="44.0378856310621" lon="7.931211051135717"><ele>247.25</ele><time>2026-03-29T09:49:16Z</time></trkpt><trkpt lat="44.03795151769917" lon="7.931340746398318"><ele>251.5</ele><time>2026-03-29T09:49:17Z</time></trkpt><trkpt lat="44.03800001265563" lon="7.931477151060925"><ele>255.75</ele><time>2026-03-29T09:49:18Z</time></trkpt><trkpt lat="44.03804419112277" lon="7.931625664537844"><ele>260.0</ele><time>2026-03-29T09:49:19Z</time></trkpt><trkpt lat="44.03807678205045" lon="7.93178272696927"><ele>263.8</ele><time>2026-03-29T09:49:20Z</time></trkpt><trkpt lat="44.03810316000564" lon="7.931945018598646"><ele>267.6</ele><time>2026-03-29T09:49:21Z</time></trkpt><trkpt lat="44.03812062362662" lon="7.932097873628156"><ele>271.4</ele><time>2026-03-29T09:49:22Z</time></trkpt><trkpt lat="44.03813253537375" lon="7.932246727107026"><ele>275.2</ele><time>2026-03-29T09:49:23Z</time></trkpt><trkpt lat="44.03812721859148" lon="7.932394928601022"><ele>279.0</ele><time>2026-03-29T09:49:24Z</time></trkpt><trkpt lat="44.03810582772731" lon="7.932550889606951"><ele>278.75</ele><time>2026-03-29T09:49:25Z</time></trkpt><trkpt lat="44.03808212591235" lon="7.932713212672306"><ele>278.5</ele><time>2026-03-29T09:49:26Z</time></trkpt><trkpt lat="44.03805334549783" lon="7.9328816042656705"><ele>278.25</ele><time>2026-03-29T09:49:27Z</time></trkpt><trkpt lat="44.03802478437217" lon="7.9330543535356535"><ele>278.0</ele><time>2026-03-29T09:49:28Z</time></trkpt><trkpt lat="44.03799573044134" lon="7.933232468875633"><ele>275.0</ele><time>2026-03-29T09:49:29Z</time></trkpt><trkpt lat="44.03796789377004" lon="7.933418232845832"><ele>272.0</ele><time>2026-03-29T09:49:30Z</time></trkpt><trkpt lat="44.03794175290241" lon="7.933614695385547"><ele>269.0</ele><time>2026-03-29T09:49:31Z</time></trkpt><trkpt lat="44.03791561984246" lon="7.933816941413541"><ele>266.0</ele><time>2026-03-29T09:49:32Z</time></trkpt><trkpt lat="44.03788690273086" lon="7.934026685988455"><ele>259.0</ele><time>2026-03-29T09:49:33Z</time></trkpt><trkpt lat="44.037855086846555" lon="7.934242462904145"><ele>252.0</ele><time>2026-03-29T09:49:34Z</time></trkpt><trkpt lat="44.037816501958524" lon="7.934463192651024"><ele>245.0</ele><time>2026-03-29T09:49:35Z</time></trkpt><trkpt lat="44.03776846821174" lon="7.934685281387705"><ele>245.0</ele><time>2026-03-29T09:49:36Z</time></trkpt><trkpt lat="44.03771026904153" lon="7.934907393304837"><ele>245.0</ele><time>2026-03-29T09:49:37Z</time></trkpt><trkpt lat="44.03765026469593" lon="7.935128610074841"><ele>245.0</ele><time>2026-03-29T09:49:38Z</time></trkpt><trkpt lat="44.03759636213404" lon="7.935356704730573"><ele>240.66666666666669</ele><time>2026-03-29T09:49:39Z</time></trkpt><trkpt lat="44.037535459529714" lon="7.9355841193086585"><ele>236.33333333333331</ele><time>2026-03-29T09:49:40Z</time></trkpt><trkpt lat="44.0375174690771" lon="7.935827871459334"><ele>232.0</ele><time>2026-03-29T09:49:41Z</time></trkpt><trkpt lat="44.037492122470624" lon="7.936061155362886"><ele>231.33333333333331</ele><time>2026-03-29T09:49:42Z</time></trkpt><trkpt lat="44.03747097499366" lon="7.936287577462348"><ele>230.66666666666669</ele><time>2026-03-29T09:49:43Z</time></trkpt><trkpt lat="44.03745277866801" lon="7.936515487894586"><ele>230.0</ele><time>2026-03-29T09:49:44Z</time></trkpt><trkpt lat="44.03743970213165" lon="7.936744050571792"><ele>244.33333333333334</ele><time>2026-03-29T09:49:45Z</time></trkpt><trkpt lat="44.03741114722037" lon="7.936973493564277"><ele>258.6666666666667</ele><time>2026-03-29T09:49:46Z</time></trkpt><trkpt lat="44.03742362389549" lon="7.937208521248678"><ele>273.0</ele><time>2026-03-29T09:49:47Z</time></trkpt><trkpt lat="44.03741296667931" lon="7.937446020105669"><ele>269.6666666666667</ele><time>2026-03-29T09:49:48Z</time></trkpt><trkpt lat="44.03739269660995" lon="7.937680391430526"><ele>266.33333333333337</ele><time>2026-03-29T09:49:49Z</time></trkpt><trkpt lat="44.03736573780026" lon="7.937913338464782"><ele>263.0</ele><time>2026-03-29T09:49:50Z</time></trkpt><trkpt lat="44.03733851755977" lon="7.938143811617968"><ele>263.0</ele><time>2026-03-29T09:49:51Z</time></trkpt><trkpt lat="44.037314394264364" lon="7.9383514637196715"><ele>263.0</ele><time>2026-03-29T09:49:52Z</time></trkpt><trkpt lat="44.0372956419194" lon="7.93854097637396"><ele>263.0</ele><time>2026-03-29T09:49:53Z</time></trkpt><trkpt lat="44.03728108796955" lon="7.938721633758282"><ele>263.0</ele><time>2026-03-29T09:49:54Z</time></trkpt><trkpt lat="44.03727671700141" lon="7.938888979096215"><ele>260.8</ele><time>2026-03-29T09:49:55Z</time></trkpt><trkpt lat="44.03728853081819" lon="7.939044412139118"><ele>258.6</ele><time>2026-03-29T09:49:56Z</time></trkpt><trkpt lat="44.037317931950625" lon="7.939186713436865"><ele>256.4</ele><time>2026-03-29T09:49:57Z</time></trkpt><trkpt lat="44.037361169646594" lon="7.93931726404011"><ele>254.2</ele><time>2026-03-29T09:49:58Z</time></trkpt><trkpt lat="44.03741480645892" lon="7.939441373834851"><ele>252.0</ele><time>2026-03-29T09:49:59Z</time></trkpt><trkpt lat="44.037482901651686" lon="7.93955093147514"><ele>244.75</ele><time>2026-03-29T09:50:00Z</time></trkpt><trkpt lat="44.03756197134173" lon="7.939666586265605"><ele>237.5</ele><time>2026-03-29T09:50:01Z</time></trkpt><trkpt lat="44.037645712870706" lon="7.939789818455762"><ele>230.25</ele><time>2026-03-29T09:50:02Z</time></trkpt><trkpt lat="44.03773125577692" lon="7.93991409983534"><ele>223.0</ele><time>2026-03-29T09:50:03Z</time></trkpt><trkpt lat="44.037818587789886" lon="7.940037376331979"><ele>224.0</ele><time>2026-03-29T09:50:04Z</time></trkpt><trkpt lat="44.037904386945904" lon="7.940161108004817"><ele>225.0</ele><time>2026-03-29T09:50:05Z</time></trkpt><trkpt lat="44.03798743714586" lon="7.940289816017456"><ele>226.0</ele><time>2026-03-29T09:50:06Z</time></trkpt><trkpt lat="44.038062062405544" lon="7.940429015352358"><ele>227.0</ele><time>2026-03-29T09:50:07Z</time></trkpt><trkpt lat="44.0381311634051" lon="7.940588034030778"><ele>227.0</ele><time>2026-03-29T09:50:08Z</time></trkpt><trkpt lat="44.03818387373226" lon="7.94075702856197"><ele>227.0</ele><time>2026-03-29T09:50:09Z</time></trkpt><trkpt lat="44.03822298663937" lon="7.940930647522202"><ele>227.0</ele><time>2026-03-29T09:50:10Z</time></trkpt><trkpt lat="44.03824626356803" lon="7.941105219906915"><ele>227.0</ele><time>2026-03-29T09:50:11Z</time></trkpt><trkpt lat="44.03825789390092" lon="7.941286735262565"><ele>225.8</ele><time>2026-03-29T09:50:12Z</time></trkpt><trkpt lat="44.03826037434631" lon="7.941461179842756"><ele>224.6</ele><time>2026-03-29T09:50:13Z</time></trkpt><trkpt lat="44.03826312512491" lon="7.9416191268629515"><ele>223.40000000000003</ele><time>2026-03-29T09:50:14Z</time></trkpt><trkpt lat="44.03826640360485" lon="7.941763157535424"><ele>222.20000000000002</ele><time>2026-03-29T09:50:15Z</time></trkpt><trkpt lat="44.03826836190598" lon="7.941897357188704"><ele>221.0</ele><time>2026-03-29T09:50:16Z</time></trkpt><trkpt lat="44.03826980946337" lon="7.942027590328915"><ele>219.50000000000003</ele><time>2026-03-29T09:50:17Z</time></trkpt><trkpt lat="44.03826907849659" lon="7.942150740676024"><ele>218.0</ele><time>2026-03-29T09:50:18Z</time></trkpt><trkpt lat="44.03826883144926" lon="7.942269062451294"><ele>216.5</ele><time>2026-03-29T09:50:19Z</time></trkpt><trkpt lat="44.038270708840805" lon="7.942386591230444"><ele>215.0</ele><time>2026-03-29T09:50:20Z</time></trkpt><trkpt lat="44.03827566961331" lon="7.942500025883806"><ele>213.50000000000003</ele><time>2026-03-29T09:50:21Z</time></trkpt><trkpt lat="44.038277845708905" lon="7.9426093987666615"><ele>212.0</ele><time>2026-03-29T09:50:22Z</time></trkpt><trkpt lat="44.03827794836405" lon="7.942715842113951"><ele>211.16666666666669</ele><time>2026-03-29T09:50:23Z</time></trkpt><trkpt lat="44.0382790291879" lon="7.942821604864696"><ele>210.33333333333334</ele><time>2026-03-29T09:50:24Z</time></trkpt><trkpt lat="44.03828525311107" lon="7.942923226918073"><ele>209.5</ele><time>2026-03-29T09:50:25Z</time></trkpt><trkpt lat="44.038291605923405" lon="7.943027990639507"><ele>208.66666666666669</ele><time>2026-03-29T09:50:26Z</time></trkpt><trkpt lat="44.03829645732191" lon="7.943129623695302"><ele>207.83333333333334</ele><time>2026-03-29T09:50:27Z</time></trkpt><trkpt lat="44.0383004045952" lon="7.943226741000273"><ele>207.0</ele><time>2026-03-29T09:50:28Z</time></trkpt><trkpt lat="44.03830521092627" lon="7.94338577610017"><ele>208.16666666666666</ele><time>2026-03-29T09:50:30Z</time></trkpt><trkpt lat="44.03830083340607" lon="7.943473268366096"><ele>209.33333333333331</ele><time>2026-03-29T09:50:33Z</time></trkpt><trkpt lat="44.038290306295075" lon="7.943567196354656"><ele>210.5</ele><time>2026-03-29T09:51:44Z</time></trkpt><trkpt lat="44.03829668782872" lon="7.943668904393423"><ele>211.66666666666666</ele><time>2026-03-29T09:51:45Z</time></trkpt><trkpt lat="44.038297796529235" lon="7.943798685180729"><ele>212.83333333333331</ele><time>2026-03-29T09:51:46Z</time></trkpt><trkpt lat="44.03829396840989" lon="7.943947515875488"><ele>214.0</ele><time>2026-03-29T09:51:47Z</time></trkpt><trkpt lat="44.038292082119526" lon="7.9441009606987825"><ele>215.25</ele><time>2026-03-29T09:51:48Z</time></trkpt><trkpt lat="44.03829368881596" lon="7.944261838060192"><ele>216.5</ele><time>2026-03-29T09:51:49Z</time></trkpt><trkpt lat="44.03830068736896" lon="7.944414601598611"><ele>217.75</ele><time>2026-03-29T09:51:50Z</time></trkpt><trkpt lat="44.03832564618884" lon="7.944558243300613"><ele>219.0</ele><time>2026-03-29T09:51:51Z</time></trkpt><trkpt lat="44.03838661164267" lon="7.9447059313456885"><ele>219.0</ele><time>2026-03-29T09:51:52Z</time></trkpt><trkpt lat="44.03847818131722" lon="7.944852754105409"><ele>219.0</ele><time>2026-03-29T09:51:53Z</time></trkpt><trkpt lat="44.03857660196856" lon="7.944996028171113"><ele>219.0</ele><time>2026-03-29T09:51:54Z</time></trkpt><trkpt lat="44.03867502632489" lon="7.94514435007391"><ele>219.0</ele><time>2026-03-29T09:51:55Z</time></trkpt><trkpt lat="44.03876828921986" lon="7.945290048288368"><ele>219.25</ele><time>2026-03-29T09:51:56Z</time></trkpt><trkpt lat="44.03885972644239" lon="7.945443495041507"><ele>219.5</ele><time>2026-03-29T09:51:57Z</time></trkpt><trkpt lat="44.03895088044537" lon="7.945595518406635"><ele>219.75</ele><time>2026-03-29T09:51:58Z</time></trkpt><trkpt lat="44.03904356287619" lon="7.945744663271649"><ele>220.0</ele><time>2026-03-29T09:51:59Z</time></trkpt><trkpt lat="44.039138340716605" lon="7.945894590371719"><ele>220.0</ele><time>2026-03-29T09:52:00Z</time></trkpt><trkpt lat="44.03924161807856" lon="7.946046189791244"><ele>220.0</ele><time>2026-03-29T09:52:01Z</time></trkpt><trkpt lat="44.03934866269457" lon="7.946195226486718"><ele>220.0</ele><time>2026-03-29T09:52:02Z</time></trkpt><trkpt lat="44.03946481587992" lon="7.946342096363788"><ele>220.0</ele><time>2026-03-29T09:52:03Z</time></trkpt><trkpt lat="44.0395868834353" lon="7.946490214792948"><ele>220.0</ele><time>2026-03-29T09:52:04Z</time></trkpt><trkpt lat="44.039710665427556" lon="7.946639699177401"><ele>220.0</ele><time>2026-03-29T09:52:05Z</time></trkpt><trkpt lat="44.03983321290663" lon="7.946789883249717"><ele>215.66666666666666</ele><time>2026-03-29T09:52:06Z</time></trkpt><trkpt lat="44.03995582886431" lon="7.946934249931606"><ele>211.33333333333331</ele><time>2026-03-29T09:52:07Z</time></trkpt><trkpt lat="44.04007957926329" lon="7.947080465398695"><ele>207.0</ele><time>2026-03-29T09:52:08Z</time></trkpt><trkpt lat="44.04020063966092" lon="7.947226390880857"><ele>207.0</ele><time>2026-03-29T09:52:09Z</time></trkpt><trkpt lat="44.04032161161462" lon="7.947374803581184"><ele>207.0</ele><time>2026-03-29T09:52:10Z</time></trkpt><trkpt lat="44.04044014857458" lon="7.947527636205056"><ele>207.0</ele><time>2026-03-29T09:52:11Z</time></trkpt><trkpt lat="44.04055541653435" lon="7.947685852863151"><ele>204.66666666666669</ele><time>2026-03-29T09:52:12Z</time></trkpt><trkpt lat="44.04066890484714" lon="7.94785393224324"><ele>202.33333333333334</ele><time>2026-03-29T09:52:13Z</time></trkpt><trkpt lat="44.04077643599116" lon="7.948035238532009"><ele>200.0</ele><time>2026-03-29T09:52:14Z</time></trkpt><trkpt lat="44.04087979704815" lon="7.948221123081585"><ele>202.33333333333334</ele><time>2026-03-29T09:52:15Z</time></trkpt><trkpt lat="44.04097913147293" lon="7.948405133714283"><ele>204.66666666666669</ele><time>2026-03-29T09:52:16Z</time></trkpt><trkpt lat="44.04107982306296" lon="7.94859027674605"><ele>207.0</ele><time>2026-03-29T09:52:17Z</time></trkpt><trkpt lat="44.0411805189091" lon="7.948775237863798"><ele>207.0</ele><time>2026-03-29T09:52:18Z</time></trkpt><trkpt lat="44.041281230946176" lon="7.948963732876537"><ele>207.0</ele><time>2026-03-29T09:52:19Z</time></trkpt><trkpt lat="44.04137995335257" lon="7.949157756423256"><ele>207.0</ele><time>2026-03-29T09:52:20Z</time></trkpt><trkpt lat="44.041470015023584" lon="7.94935497853866"><ele>203.66666666666669</ele><time>2026-03-29T09:52:21Z</time></trkpt><trkpt lat="44.04154440186363" lon="7.949564591539909"><ele>200.33333333333334</ele><time>2026-03-29T09:52:22Z</time></trkpt><trkpt lat="44.04159949791079" lon="7.949773736928273"><ele>197.0</ele><time>2026-03-29T09:52:23Z</time></trkpt><trkpt lat="44.04164207022309" lon="7.949988916874573"><ele>198.0</ele><time>2026-03-29T09:52:24Z</time></trkpt><trkpt lat="44.04169213083926" lon="7.95020652537952"><ele>199.0</ele><time>2026-03-29T09:52:25Z</time></trkpt><trkpt lat="44.04175463711989" lon="7.950419505154089"><ele>200.0</ele><time>2026-03-29T09:52:26Z</time></trkpt><trkpt lat="44.041831156124175" lon="7.95062731087457"><ele>200.0</ele><time>2026-03-29T09:52:27Z</time></trkpt><trkpt lat="44.04191327160838" lon="7.950831037275403"><ele>200.0</ele><time>2026-03-29T09:52:28Z</time></trkpt><trkpt lat="44.042000526907906" lon="7.95103295843829"><ele>200.0</ele><time>2026-03-29T09:52:29Z</time></trkpt><trkpt lat="44.04208313443049" lon="7.9512377104916965"><ele>203.0</ele><time>2026-03-29T09:52:30Z</time></trkpt><trkpt lat="44.0421567850658" lon="7.951441537663984"><ele>206.0</ele><time>2026-03-29T09:52:31Z</time></trkpt><trkpt lat="44.04222567752423" lon="7.951645160393711"><ele>209.0</ele><time>2026-03-29T09:52:32Z</time></trkpt><trkpt lat="44.04228839495038" lon="7.951852367079111"><ele>215.33333333333334</ele><time>2026-03-29T09:52:33Z</time></trkpt><trkpt lat="44.042342944143414" lon="7.952062211907192"><ele>221.66666666666669</ele><time>2026-03-29T09:52:34Z</time></trkpt><trkpt lat="44.0423949602749" lon="7.952277057909702"><ele>228.0</ele><time>2026-03-29T09:52:35Z</time></trkpt><trkpt lat="44.042447216093294" lon="7.952492145694248"><ele>217.0</ele><time>2026-03-29T09:52:36Z</time></trkpt><trkpt lat="44.04250008473734" lon="7.9527107532843235"><ele>206.0</ele><time>2026-03-29T09:52:37Z</time></trkpt><trkpt lat="44.042552842239644" lon="7.952927133827552"><ele>195.0</ele><time>2026-03-29T09:52:38Z</time></trkpt><trkpt lat="44.04260705402012" lon="7.953143165236057"><ele>195.0</ele><time>2026-03-29T09:52:39Z</time></trkpt><trkpt lat="44.0426629805548" lon="7.953360107360172"><ele>195.0</ele><time>2026-03-29T09:52:40Z</time></trkpt><trkpt lat="44.0427158531783" lon="7.953578885757812"><ele>195.0</ele><time>2026-03-29T09:52:41Z</time></trkpt><trkpt lat="44.04276267071061" lon="7.953798171188663"><ele>197.66666666666669</ele><time>2026-03-29T09:52:42Z</time></trkpt><trkpt lat="44.04280261475281" lon="7.95401766732937"><ele>200.33333333333334</ele><time>2026-03-29T09:52:43Z</time></trkpt><trkpt lat="44.042835607533554" lon="7.954240448841683"><ele>203.0</ele><time>2026-03-29T09:52:44Z</time></trkpt><trkpt lat="44.042863331257905" lon="7.954462769820241"><ele>204.66666666666669</ele><time>2026-03-29T09:52:45Z</time></trkpt><trkpt lat="44.04288955877662" lon="7.954686911914803"><ele>206.33333333333331</ele><time>2026-03-29T09:52:46Z</time></trkpt><trkpt lat="44.042915611421385" lon="7.9549111800898435"><ele>208.0</ele><time>2026-03-29T09:52:47Z</time></trkpt><trkpt lat="44.04294295114689" lon="7.955136669593993"><ele>209.66666666666666</ele><time>2026-03-29T09:52:48Z</time></trkpt><trkpt lat="44.042969479605" lon="7.955362345122346"><ele>211.33333333333331</ele><time>2026-03-29T09:52:49Z</time></trkpt><trkpt lat="44.042992044122606" lon="7.955588518536859"><ele>213.0</ele><time>2026-03-29T09:52:50Z</time></trkpt><trkpt lat="44.04301474701487" lon="7.955813104723405"><ele>219.0</ele><time>2026-03-29T09:52:51Z</time></trkpt><trkpt lat="44.043039098624" lon="7.956038740296604"><ele>225.0</ele><time>2026-03-29T09:52:52Z</time></trkpt><trkpt lat="44.043062879094386" lon="7.956264241774014"><ele>231.0</ele><time>2026-03-29T09:52:53Z</time></trkpt><trkpt lat="44.043086424687964" lon="7.956488456052663"><ele>237.0</ele><time>2026-03-29T09:52:54Z</time></trkpt><trkpt lat="44.04311145350423" lon="7.956716703949495"><ele>243.0</ele><time>2026-03-29T09:52:55Z</time></trkpt><trkpt lat="44.043135356535224" lon="7.95694507311786"><ele>249.0</ele><time>2026-03-29T09:52:56Z</time></trkpt><trkpt lat="44.043162249997295" lon="7.957175894096177"><ele>249.0</ele><time>2026-03-29T09:52:57Z</time></trkpt><trkpt lat="44.0431914230627" lon="7.957408326983091"><ele>249.0</ele><time>2026-03-29T09:52:58Z</time></trkpt><trkpt lat="44.043224611977976" lon="7.957641992941549"><ele>249.0</ele><time>2026-03-29T09:52:59Z</time></trkpt><trkpt lat="44.04326718414672" lon="7.95787203503173"><ele>244.66666666666669</ele><time>2026-03-29T09:53:00Z</time></trkpt><trkpt lat="44.043321573504684" lon="7.958093252892365"><ele>240.33333333333334</ele><time>2026-03-29T09:53:01Z</time></trkpt><trkpt lat="44.04340264406915" lon="7.958293175467798"><ele>236.0</ele><time>2026-03-29T09:53:02Z</time></trkpt><trkpt lat="44.04350692715412" lon="7.958484141440002"><ele>236.0</ele><time>2026-03-29T09:53:03Z</time></trkpt><trkpt lat="44.043625782154194" lon="7.958656521846883"><ele>236.0</ele><time>2026-03-29T09:53:04Z</time></trkpt><trkpt lat="44.04375227820321" lon="7.958814499153042"><ele>236.0</ele><time>2026-03-29T09:53:05Z</time></trkpt><trkpt lat="44.04388190453055" lon="7.958973100270043"><ele>236.0</ele><time>2026-03-29T09:53:06Z</time></trkpt><trkpt lat="44.044002796958694" lon="7.95913120464614"><ele>236.0</ele><time>2026-03-29T09:53:07Z</time></trkpt><trkpt lat="44.04410932635898" lon="7.959303476193403"><ele>236.0</ele><time>2026-03-29T09:53:08Z</time></trkpt><trkpt lat="44.04420083935085" lon="7.959501016194802"><ele>224.0</ele><time>2026-03-29T09:53:09Z</time></trkpt><trkpt lat="44.04427027831693" lon="7.959720061631061"><ele>212.0</ele><time>2026-03-29T09:53:10Z</time></trkpt><trkpt lat="44.04431516466095" lon="7.959950519338591"><ele>200.0</ele><time>2026-03-29T09:53:11Z</time></trkpt><trkpt lat="44.04433028073678" lon="7.960191367990543"><ele>199.0</ele><time>2026-03-29T09:53:12Z</time></trkpt><trkpt lat="44.044324851107255" lon="7.960429671775926"><ele>198.0</ele><time>2026-03-29T09:53:13Z</time></trkpt><trkpt lat="44.04432834661139" lon="7.9606703404476935"><ele>197.0</ele><time>2026-03-29T09:53:14Z</time></trkpt><trkpt lat="44.04434028589621" lon="7.960900924393893"><ele>197.0</ele><time>2026-03-29T09:53:15Z</time></trkpt><trkpt lat="44.0443629336392" lon="7.961127463013337"><ele>197.0</ele><time>2026-03-29T09:53:16Z</time></trkpt><trkpt lat="44.04440283156336" lon="7.9613521410004555"><ele>197.0</ele><time>2026-03-29T09:53:17Z</time></trkpt><trkpt lat="44.044463376762096" lon="7.961566379654838"><ele>210.33333333333334</ele><time>2026-03-29T09:53:18Z</time></trkpt><trkpt lat="44.04454784947897" lon="7.961765828255107"><ele>223.66666666666669</ele><time>2026-03-29T09:53:19Z</time></trkpt><trkpt lat="44.0446535913955" lon="7.961953587780371"><ele>237.0</ele><time>2026-03-29T09:53:20Z</time></trkpt><trkpt lat="44.04477266548799" lon="7.962120201410412"><ele>237.0</ele><time>2026-03-29T09:53:21Z</time></trkpt><trkpt lat="44.04490387968073" lon="7.962267947723896"><ele>237.0</ele><time>2026-03-29T09:53:22Z</time></trkpt><trkpt lat="44.04503716888481" lon="7.962402618576042"><ele>237.0</ele><time>2026-03-29T09:53:23Z</time></trkpt><trkpt lat="44.045168007416216" lon="7.9625318036275194"><ele>232.33333333333331</ele><time>2026-03-29T09:53:24Z</time></trkpt><trkpt lat="44.045299188091846" lon="7.962647418739272"><ele>227.66666666666666</ele><time>2026-03-29T09:53:25Z</time></trkpt><trkpt lat="44.04543627997346" lon="7.962765832878872"><ele>223.0</ele><time>2026-03-29T09:53:26Z</time></trkpt><trkpt lat="44.04557235911373" lon="7.962885382210401"><ele>223.0</ele><time>2026-03-29T09:53:27Z</time></trkpt><trkpt lat="44.04570487977499" lon="7.963005338884255"><ele>223.0</ele><time>2026-03-29T09:53:28Z</time></trkpt><trkpt lat="44.04584269844189" lon="7.96312542034757"><ele>223.0</ele><time>2026-03-29T09:53:29Z</time></trkpt><trkpt lat="44.045980431315506" lon="7.963247659962327"><ele>215.33333333333331</ele><time>2026-03-29T09:53:30Z</time></trkpt><trkpt lat="44.04611515450021" lon="7.963374800411864"><ele>207.66666666666669</ele><time>2026-03-29T09:53:31Z</time></trkpt><trkpt lat="44.04624984867537" lon="7.963507408701229"><ele>200.0</ele><time>2026-03-29T09:53:32Z</time></trkpt><trkpt lat="44.04638282401031" lon="7.963643988733678"><ele>200.0</ele><time>2026-03-29T09:53:33Z</time></trkpt><trkpt lat="44.04651526010717" lon="7.963786131257302"><ele>200.0</ele><time>2026-03-29T09:53:34Z</time></trkpt><trkpt lat="44.04664909518738" lon="7.963937876753325"><ele>200.0</ele><time>2026-03-29T09:53:35Z</time></trkpt><trkpt lat="44.04678044315402" lon="7.964092117578111"><ele>193.0</ele><time>2026-03-29T09:53:36Z</time></trkpt><trkpt lat="44.04691149526759" lon="7.964247532676819"><ele>186.0</ele><time>2026-03-29T09:53:37Z</time></trkpt><trkpt lat="44.047041850549405" lon="7.964409669514131"><ele>179.0</ele><time>2026-03-29T09:53:38Z</time></trkpt><trkpt lat="44.0471696676094" lon="7.964575814818137"><ele>179.0</ele><time>2026-03-29T09:53:39Z</time></trkpt><trkpt lat="44.0472986351091" lon="7.964743003726755"><ele>179.0</ele><time>2026-03-29T09:53:40Z</time></trkpt><trkpt lat="44.04742542447732" lon="7.964911625354671"><ele>179.0</ele><time>2026-03-29T09:53:41Z</time></trkpt><trkpt lat="44.04755193827761" lon="7.9650858684590204"><ele>176.0</ele><time>2026-03-29T09:53:42Z</time></trkpt><trkpt lat="44.04767989101166" lon="7.965256963627008"><ele>173.0</ele><time>2026-03-29T09:53:43Z</time></trkpt><trkpt lat="44.04780995675269" lon="7.965431045967126"><ele>170.0</ele><time>2026-03-29T09:53:44Z</time></trkpt><trkpt lat="44.04794027744118" lon="7.965606074371784"><ele>170.0</ele><time>2026-03-29T09:53:45Z</time></trkpt><trkpt lat="44.04806864732695" lon="7.965783207093556"><ele>170.0</ele><time>2026-03-29T09:53:46Z</time></trkpt><trkpt lat="44.04819578500513" lon="7.965957760831771"><ele>170.0</ele><time>2026-03-29T09:53:47Z</time></trkpt><trkpt lat="44.04832400595584" lon="7.966129030392685"><ele>169.66666666666666</ele><time>2026-03-29T09:53:48Z</time></trkpt><trkpt lat="44.04845113280635" lon="7.966295359193426"><ele>169.33333333333334</ele><time>2026-03-29T09:53:49Z</time></trkpt><trkpt lat="44.04857631907919" lon="7.966459379442512"><ele>169.0</ele><time>2026-03-29T09:53:50Z</time></trkpt><trkpt lat="44.048703454582245" lon="7.9666266240425125"><ele>170.33333333333334</ele><time>2026-03-29T09:53:51Z</time></trkpt><trkpt lat="44.04882888929839" lon="7.966795457068459"><ele>171.66666666666666</ele><time>2026-03-29T09:53:52Z</time></trkpt><trkpt lat="44.04895122653361" lon="7.966968463247556"><ele>173.0</ele><time>2026-03-29T09:53:53Z</time></trkpt><trkpt lat="44.049069517164114" lon="7.967144234539217"><ele>173.0</ele><time>2026-03-29T09:53:54Z</time></trkpt><trkpt lat="44.0491786984679" lon="7.967330650836543"><ele>173.0</ele><time>2026-03-29T09:53:55Z</time></trkpt><trkpt lat="44.04927603411933" lon="7.967527595343078"><ele>173.0</ele><time>2026-03-29T09:53:56Z</time></trkpt><trkpt lat="44.04936586748364" lon="7.967731770813653"><ele>173.66666666666666</ele><time>2026-03-29T09:53:57Z</time></trkpt><trkpt lat="44.04944759339879" lon="7.967943142142002"><ele>174.33333333333334</ele><time>2026-03-29T09:53:58Z</time></trkpt><trkpt lat="44.049525072889814" lon="7.9681575891665535"><ele>175.0</ele><time>2026-03-29T09:53:59Z</time></trkpt><trkpt lat="44.04959798598898" lon="7.968374132081839"><ele>175.0</ele><time>2026-03-29T09:54:00Z</time></trkpt><trkpt lat="44.04966710828425" lon="7.968591147484024"><ele>175.0</ele><time>2026-03-29T09:54:01Z</time></trkpt><trkpt lat="44.04973236450322" lon="7.968809357302029"><ele>175.0</ele><time>2026-03-29T09:54:02Z</time></trkpt><trkpt lat="44.04979398700357" lon="7.969025051227386"><ele>177.33333333333334</ele><time>2026-03-29T09:54:03Z</time></trkpt><trkpt lat="44.049852879373596" lon="7.969242081993183"><ele>179.66666666666666</ele><time>2026-03-29T09:54:04Z</time></trkpt><trkpt lat="44.04991038232072" lon="7.969456627141019"><ele>182.0</ele><time>2026-03-29T09:54:05Z</time></trkpt><trkpt lat="44.04996709347183" lon="7.96967190648601"><ele>177.33333333333331</ele><time>2026-03-29T09:54:06Z</time></trkpt><trkpt lat="44.05002329363387" lon="7.969887519108858"><ele>172.66666666666666</ele><time>2026-03-29T09:54:07Z</time></trkpt><trkpt lat="44.05008019434737" lon="7.970106337784579"><ele>168.0</ele><time>2026-03-29T09:54:08Z</time></trkpt><trkpt lat="44.050137335441164" lon="7.970323451974941"><ele>167.33333333333334</ele><time>2026-03-29T09:54:09Z</time></trkpt><trkpt lat="44.0501954688079" lon="7.97054151033112"><ele>166.66666666666669</ele><time>2026-03-29T09:54:10Z</time></trkpt><trkpt lat="44.05025357029575" lon="7.97076037864124"><ele>166.0</ele><time>2026-03-29T09:54:11Z</time></trkpt><trkpt lat="44.050311646321006" lon="7.97098091067334"><ele>166.0</ele><time>2026-03-29T09:54:12Z</time></trkpt><trkpt lat="44.05036967392284" lon="7.9712014536798526"><ele>166.0</ele><time>2026-03-29T09:54:13Z</time></trkpt><trkpt lat="44.05042921167415" lon="7.971420861958794"><ele>166.0</ele><time>2026-03-29T09:54:14Z</time></trkpt><trkpt lat="44.0504928543019" lon="7.971639524718569"><ele>166.33333333333334</ele><time>2026-03-29T09:54:15Z</time></trkpt><trkpt lat="44.05056581766365" lon="7.9718491620892395"><ele>166.66666666666666</ele><time>2026-03-29T09:54:16Z</time></trkpt><trkpt lat="44.050649035657635" lon="7.972058437828107"><ele>167.0</ele><time>2026-03-29T09:54:17Z</time></trkpt><trkpt lat="44.05073231250613" lon="7.972248411289343"><ele>166.66666666666666</ele><time>2026-03-29T09:54:18Z</time></trkpt><trkpt lat="44.05082215251931" lon="7.972437973233982"><ele>166.33333333333334</ele><time>2026-03-29T09:54:19Z</time></trkpt><trkpt lat="44.050917580499394" lon="7.972624100406623"><ele>166.0</ele><time>2026-03-29T09:54:20Z</time></trkpt><trkpt lat="44.051016771166736" lon="7.972809756020002"><ele>166.0</ele><time>2026-03-29T09:54:21Z</time></trkpt><trkpt lat="44.05111708267419" lon="7.972993902842227"><ele>166.0</ele><time>2026-03-29T09:54:22Z</time></trkpt><trkpt lat="44.051220034157446" lon="7.973175130872728"><ele>166.0</ele><time>2026-03-29T09:54:23Z</time></trkpt><trkpt lat="44.0513239105939" lon="7.97335735979994"><ele>166.0</ele><time>2026-03-29T09:54:24Z</time></trkpt><trkpt lat="44.05142622371575" lon="7.973538170745807"><ele>166.0</ele><time>2026-03-29T09:54:25Z</time></trkpt><trkpt lat="44.051527047499555" lon="7.973715308453972"><ele>166.0</ele><time>2026-03-29T09:54:26Z</time></trkpt><trkpt lat="44.051627536962414" lon="7.973890069891765"><ele>165.33333333333334</ele><time>2026-03-29T09:54:27Z</time></trkpt><trkpt lat="44.05172608228473" lon="7.974063352316277"><ele>164.66666666666666</ele><time>2026-03-29T09:54:28Z</time></trkpt><trkpt lat="44.051825195928096" lon="7.974238546090502"><ele>164.0</ele><time>2026-03-29T09:54:29Z</time></trkpt><trkpt lat="44.05192629199526" lon="7.974413917395323"><ele>164.0</ele><time>2026-03-29T09:54:30Z</time></trkpt><trkpt lat="44.05202592689892" lon="7.974587772130417"><ele>164.0</ele><time>2026-03-29T09:54:31Z</time></trkpt><trkpt lat="44.052125482247284" lon="7.974763793150461"><ele>164.0</ele><time>2026-03-29T09:54:32Z</time></trkpt><trkpt lat="44.052224614960714" lon="7.974938432471909"><ele>164.33333333333331</ele><time>2026-03-29T09:54:33Z</time></trkpt><trkpt lat="44.052326902372236" lon="7.975112903341327"><ele>164.66666666666666</ele><time>2026-03-29T09:54:34Z</time></trkpt><trkpt lat="44.0524287218662" lon="7.97529015937238"><ele>165.0</ele><time>2026-03-29T09:54:35Z</time></trkpt><trkpt lat="44.05253260569904" lon="7.975468080097489"><ele>165.0</ele><time>2026-03-29T09:54:36Z</time></trkpt><trkpt lat="44.052634484260544" lon="7.975647248886558"><ele>165.0</ele><time>2026-03-29T09:54:37Z</time></trkpt><trkpt lat="44.05273355680603" lon="7.975832167896853"><ele>165.0</ele><time>2026-03-29T09:54:38Z</time></trkpt><trkpt lat="44.05282393865864" lon="7.976025073453521"><ele>163.33333333333334</ele><time>2026-03-29T09:54:39Z</time></trkpt><trkpt lat="44.052896356116754" lon="7.976224324549795"><ele>161.66666666666669</ele><time>2026-03-29T09:54:40Z</time></trkpt><trkpt lat="44.05294542081647" lon="7.976437465794993"><ele>160.0</ele><time>2026-03-29T09:54:41Z</time></trkpt><trkpt lat="44.05297025499458" lon="7.976659137729"><ele>159.0</ele><time>2026-03-29T09:54:42Z</time></trkpt><trkpt lat="44.05297237710774" lon="7.976876762630391"><ele>158.0</ele><time>2026-03-29T09:54:43Z</time></trkpt><trkpt lat="44.052992604062496" lon="7.977096125250879"><ele>157.0</ele><time>2026-03-29T09:54:44Z</time></trkpt><trkpt lat="44.052988635313646" lon="7.977313997412539"><ele>158.0</ele><time>2026-03-29T09:54:45Z</time></trkpt><trkpt lat="44.052837095657154" lon="7.977521110700577"><ele>159.0</ele><time>2026-03-29T09:54:46Z</time></trkpt><trkpt lat="44.05276746326873" lon="7.977733146785174"><ele>160.0</ele><time>2026-03-29T09:54:47Z</time></trkpt><trkpt lat="44.05269216669943" lon="7.9779453738688"><ele>160.0</ele><time>2026-03-29T09:54:48Z</time></trkpt><trkpt lat="44.05261517040938" lon="7.978161307017553"><ele>160.0</ele><time>2026-03-29T09:54:49Z</time></trkpt><trkpt lat="44.05254148842494" lon="7.978383002083425"><ele>160.0</ele><time>2026-03-29T09:54:50Z</time></trkpt><trkpt lat="44.05246925352039" lon="7.97861064026718"><ele>180.33333333333334</ele><time>2026-03-29T09:54:51Z</time></trkpt><trkpt lat="44.05241324066304" lon="7.978852561044756"><ele>200.66666666666669</ele><time>2026-03-29T09:54:52Z</time></trkpt><trkpt lat="44.0523731370794" lon="7.979100203954532"><ele>221.0</ele><time>2026-03-29T09:54:53Z</time></trkpt><trkpt lat="44.05234409674376" lon="7.979351899052758"><ele>230.66666666666669</ele><time>2026-03-29T09:54:54Z</time></trkpt><trkpt lat="44.05233208729637" lon="7.9796125441465175"><ele>240.33333333333331</ele><time>2026-03-29T09:54:55Z</time></trkpt><trkpt lat="44.0523344419839" lon="7.979876960712663"><ele>250.0</ele><time>2026-03-29T09:54:56Z</time></trkpt><trkpt lat="44.05235412729225" lon="7.980142438735526"><ele>263.0</ele><time>2026-03-29T09:54:57Z</time></trkpt><trkpt lat="44.05238847216297" lon="7.980404275386003"><ele>276.0</ele><time>2026-03-29T09:54:58Z</time></trkpt><trkpt lat="44.05244094029178" lon="7.98065578114851"><ele>289.0</ele><time>2026-03-29T09:54:59Z</time></trkpt><trkpt lat="44.05250535812782" lon="7.980899239513484"><ele>290.66666666666663</ele><time>2026-03-29T09:55:00Z</time></trkpt><trkpt lat="44.052587758935026" lon="7.981147846459684"><ele>292.3333333333333</ele><time>2026-03-29T09:55:01.067Z</time></trkpt><trkpt lat="44.0526757776815" lon="7.981369468051842"><ele>294.0</ele><time>2026-03-29T09:55:02.055Z</time></trkpt><trkpt lat="44.05278387434215" lon="7.981585747311402"><ele>303.3333333333333</ele><time>2026-03-29T09:55:03.047Z</time></trkpt><trkpt lat="44.05289164922094" lon="7.98179523939015"><ele>312.66666666666663</ele><time>2026-03-29T09:55:04.043Z</time></trkpt><trkpt lat="44.05301372687551" lon="7.981995339039639"><ele>322.0</ele><time>2026-03-29T09:55:05.038Z</time></trkpt><trkpt lat="44.05461637004619" lon="7.983370992861922"><ele>247.0</ele><time>2026-03-29T09:55:09.218Z</time></trkpt><trkpt lat="44.05500152181121" lon="7.983693649483441"><ele>247.0</ele><time>2026-03-29T09:55:10.218Z</time></trkpt><trkpt lat="44.055395280013634" lon="7.98399654499905"><ele>219.0</ele><time>2026-03-29T09:55:11.218Z</time></trkpt><trkpt lat="44.05578043090875" lon="7.984319201171776"><ele>220.0</ele><time>2026-03-29T09:55:12.218Z</time></trkpt><trkpt lat="44.0560117" lon="7.9845162"><ele>221.0</ele><time>2026-03-29T09:55:13.215Z</time></trkpt><trkpt lat="44.05775564394063" lon="7.9867470300797105"><ele>200.0</ele><time>2026-03-29T09:55:39Z</time></trkpt><trkpt lat="44.057863990365426" lon="7.986924046821544"><ele>179.0</ele><time>2026-03-29T09:55:40Z</time></trkpt><trkpt lat="44.05797467158711" lon="7.987106580417792"><ele>158.0</ele><time>2026-03-29T09:55:41Z</time></trkpt><trkpt lat="44.05809520091866" lon="7.987302195702574"><ele>141.0</ele><time>2026-03-29T09:55:42Z</time></trkpt><trkpt lat="44.05971297401713" lon="7.990601782200562"><ele>141.0</ele><time>2026-03-29T09:55:59Z</time></trkpt><trkpt lat="44.059786455380916" lon="7.990780590590171"><ele>141.0</ele><time>2026-03-29T09:56:00Z</time></trkpt><trkpt lat="44.05989093340248" lon="7.99097370797763"><ele>141.0</ele><time>2026-03-29T09:56:01Z</time></trkpt><trkpt lat="44.06001552416872" lon="7.991148798212799"><ele>142.66666666666666</ele><time>2026-03-29T09:56:02Z</time></trkpt><trkpt lat="44.060113460778034" lon="7.991414707928876"><ele>144.33333333333331</ele><time>2026-03-29T09:56:03Z</time></trkpt><trkpt lat="44.060207528006806" lon="7.991594480272257"><ele>146.0</ele><time>2026-03-29T09:56:04Z</time></trkpt><trkpt lat="44.0602929090343" lon="7.991785517177567"><ele>146.0</ele><time>2026-03-29T09:56:05Z</time></trkpt><trkpt lat="44.06037853485241" lon="7.991983747262628"><ele>146.0</ele><time>2026-03-29T09:56:06Z</time></trkpt><trkpt lat="44.0604549999203" lon="7.992207233613648"><ele>146.0</ele><time>2026-03-29T09:56:07Z</time></trkpt><trkpt lat="44.06049817867607" lon="7.992449354722656"><ele>146.33333333333331</ele><time>2026-03-29T09:56:08Z</time></trkpt><trkpt lat="44.06055072404729" lon="7.992679465855306"><ele>146.66666666666666</ele><time>2026-03-29T09:56:09Z</time></trkpt><trkpt lat="44.06060461914378" lon="7.992900301548125"><ele>147.0</ele><time>2026-03-29T09:56:10Z</time></trkpt><trkpt lat="44.06065746177678" lon="7.993117644929216"><ele>147.0</ele><time>2026-03-29T09:56:11Z</time></trkpt><trkpt lat="44.06070112876243" lon="7.993327854033065"><ele>147.0</ele><time>2026-03-29T09:56:12Z</time></trkpt><trkpt lat="44.060732797348415" lon="7.993546376958897"><ele>147.0</ele><time>2026-03-29T09:56:13Z</time></trkpt><trkpt lat="44.060756436795195" lon="7.99376709946865"><ele>149.66666666666666</ele><time>2026-03-29T09:56:14Z</time></trkpt><trkpt lat="44.06080337139395" lon="7.993977432886047"><ele>152.33333333333331</ele><time>2026-03-29T09:56:15Z</time></trkpt><trkpt lat="44.06087859832145" lon="7.994185649789883"><ele>155.0</ele><time>2026-03-29T09:56:16Z</time></trkpt><trkpt lat="44.060956670410974" lon="7.9943849884994584"><ele>155.0</ele><time>2026-03-29T09:56:17Z</time></trkpt><trkpt lat="44.06100550497032" lon="7.99461072844642"><ele>155.0</ele><time>2026-03-29T09:56:18Z</time></trkpt><trkpt lat="44.061009379492766" lon="7.994852460941862"><ele>155.0</ele><time>2026-03-29T09:56:19Z</time></trkpt><trkpt lat="44.060993609802175" lon="7.995097900276543"><ele>154.33333333333331</ele><time>2026-03-29T09:56:20Z</time></trkpt><trkpt lat="44.06098843508293" lon="7.995328760310216"><ele>153.66666666666666</ele><time>2026-03-29T09:56:21Z</time></trkpt><trkpt lat="44.06098319875772" lon="7.995552543838365"><ele>153.0</ele><time>2026-03-29T09:56:22Z</time></trkpt><trkpt lat="44.060978824613095" lon="7.995777223994178"><ele>152.5</ele><time>2026-03-29T09:56:23Z</time></trkpt><trkpt lat="44.06098837296583" lon="7.995996393256976"><ele>152.0</ele><time>2026-03-29T09:56:24Z</time></trkpt><trkpt lat="44.06100589038913" lon="7.99621035265944"><ele>151.5</ele><time>2026-03-29T09:56:25Z</time></trkpt><trkpt lat="44.061008141805516" lon="7.9963950393305465"><ele>151.0</ele><time>2026-03-29T09:56:26Z</time></trkpt><trkpt lat="44.06095876605663" lon="7.996595510601098"><ele>153.0</ele><time>2026-03-29T09:56:27Z</time></trkpt><trkpt lat="44.06091960505335" lon="7.996804548733935"><ele>155.0</ele><time>2026-03-29T09:56:28Z</time></trkpt><trkpt lat="44.06089381143274" lon="7.997017675516395"><ele>157.0</ele><time>2026-03-29T09:56:29Z</time></trkpt><trkpt lat="44.06083461445251" lon="7.997223865280504"><ele>153.0</ele><time>2026-03-29T09:56:30Z</time></trkpt><trkpt lat="44.06077357978564" lon="7.9974084225690145"><ele>149.0</ele><time>2026-03-29T09:56:31Z</time></trkpt><trkpt lat="44.060698283415825" lon="7.9976039620320805"><ele>145.0</ele><time>2026-03-29T09:56:32Z</time></trkpt><trkpt lat="44.060629901025685" lon="7.997802510456286"><ele>143.66666666666669</ele><time>2026-03-29T09:56:33Z</time></trkpt><trkpt lat="44.0605896411531" lon="7.998025427785492"><ele>142.33333333333334</ele><time>2026-03-29T09:56:34Z</time></trkpt><trkpt lat="44.06054371380879" lon="7.998237169303029"><ele>141.0</ele><time>2026-03-29T09:56:35Z</time></trkpt><trkpt lat="44.060480040077394" lon="7.99844415454257"><ele>141.0</ele><time>2026-03-29T09:56:36Z</time></trkpt><trkpt lat="44.060429740425334" lon="7.998652770926171"><ele>141.0</ele><time>2026-03-29T09:56:37Z</time></trkpt><trkpt lat="44.060373699166554" lon="7.99885935277625"><ele>141.0</ele><time>2026-03-29T09:56:38Z</time></trkpt><trkpt lat="44.060301701191236" lon="7.999050553753729"><ele>146.66666666666666</ele><time>2026-03-29T09:56:39Z</time></trkpt><trkpt lat="44.06020330497872" lon="7.999217759092157"><ele>152.33333333333331</ele><time>2026-03-29T09:56:40Z</time></trkpt><trkpt lat="44.06009967529259" lon="7.9993919703448775"><ele>158.0</ele><time>2026-03-29T09:56:41Z</time></trkpt><trkpt lat="44.0600014610105" lon="7.999576950148947"><ele>150.0</ele><time>2026-03-29T09:56:42Z</time></trkpt><trkpt lat="44.05991133771808" lon="7.999771375204592"><ele>142.0</ele><time>2026-03-29T09:56:43Z</time></trkpt><trkpt lat="44.05982430162269" lon="7.999963559288301"><ele>134.0</ele><time>2026-03-29T09:56:44Z</time></trkpt><trkpt lat="44.05973928155686" lon="8.000153238005117"><ele>134.0</ele><time>2026-03-29T09:56:45Z</time></trkpt><trkpt lat="44.05966079672686" lon="8.000341017613959"><ele>134.0</ele><time>2026-03-29T09:56:46Z</time></trkpt><trkpt lat="44.059556095526524" lon="8.000497415671317"><ele>134.0</ele><time>2026-03-29T09:56:47Z</time></trkpt><trkpt lat="44.059417359747904" lon="8.000604169464083"><ele>134.0</ele><time>2026-03-29T09:56:48Z</time></trkpt><trkpt lat="44.05927398433799" lon="8.00071759235013"><ele>134.0</ele><time>2026-03-29T09:56:49Z</time></trkpt><trkpt lat="44.059142402201644" lon="8.000839654146793"><ele>134.0</ele><time>2026-03-29T09:56:50Z</time></trkpt><trkpt lat="44.05901759246414" lon="8.000950812134223"><ele>132.0</ele><time>2026-03-29T09:56:51Z</time></trkpt><trkpt lat="44.05890691675128" lon="8.001097868626788"><ele>130.0</ele><time>2026-03-29T09:56:52Z</time></trkpt><trkpt lat="44.05882140855549" lon="8.001268367832028"><ele>128.0</ele><time>2026-03-29T09:56:53Z</time></trkpt><trkpt lat="44.05876538878001" lon="8.00146720116192"><ele>131.66666666666666</ele><time>2026-03-29T09:56:54Z</time></trkpt><trkpt lat="44.05875111070658" lon="8.001688021380282"><ele>135.33333333333334</ele><time>2026-03-29T09:56:55Z</time></trkpt><trkpt lat="44.05876971556472" lon="8.001924321703614"><ele>139.0</ele><time>2026-03-29T09:56:56Z</time></trkpt><trkpt lat="44.05880582937469" lon="8.002166920290382"><ele>139.0</ele><time>2026-03-29T09:56:57Z</time></trkpt><trkpt lat="44.05883618014168" lon="8.002416076871684"><ele>139.0</ele><time>2026-03-29T09:56:58Z</time></trkpt><trkpt lat="44.05886113887489" lon="8.002662439153855"><ele>139.0</ele><time>2026-03-29T09:56:59Z</time></trkpt><trkpt lat="44.05888714961806" lon="8.002904317071646"><ele>139.0</ele><time>2026-03-29T09:57:00Z</time></trkpt><trkpt lat="44.058911129045114" lon="8.003142501933015"><ele>139.0</ele><time>2026-03-29T09:57:01Z</time></trkpt><trkpt lat="44.0589356322725" lon="8.003369781880709"><ele>139.0</ele><time>2026-03-29T09:57:02Z</time></trkpt><trkpt lat="44.05895879952468" lon="8.003594486972371"><ele>139.0</ele><time>2026-03-29T09:57:03Z</time></trkpt><trkpt lat="44.05896588383996" lon="8.003826241429794"><ele>139.0</ele><time>2026-03-29T09:57:04Z</time></trkpt><trkpt lat="44.058988799293004" lon="8.004055224095705"><ele>139.0</ele><time>2026-03-29T09:57:05Z</time></trkpt><trkpt lat="44.059027570037905" lon="8.004278407140973"><ele>138.33333333333334</ele><time>2026-03-29T09:57:06Z</time></trkpt><trkpt lat="44.05904635815911" lon="8.004505309206357"><ele>137.66666666666666</ele><time>2026-03-29T09:57:07Z</time></trkpt><trkpt lat="44.059067185198494" lon="8.004734063246095"><ele>137.0</ele><time>2026-03-29T09:57:08Z</time></trkpt><trkpt lat="44.05908774623969" lon="8.004943854040633"><ele>137.75</ele><time>2026-03-29T09:57:09Z</time></trkpt><trkpt lat="44.05912680301534" lon="8.005134200558768"><ele>138.5</ele><time>2026-03-29T09:57:10Z</time></trkpt><trkpt lat="44.059195494890375" lon="8.005315964710213"><ele>139.25</ele><time>2026-03-29T09:57:11Z</time></trkpt><trkpt lat="44.059301409258204" lon="8.005472340610005"><ele>140.0</ele><time>2026-03-29T09:57:12Z</time></trkpt><trkpt lat="44.05943776517641" lon="8.005598878861974"><ele>140.0</ele><time>2026-03-29T09:57:13Z</time></trkpt><trkpt lat="44.05958225850166" lon="8.005720544479212"><ele>140.0</ele><time>2026-03-29T09:57:14Z</time></trkpt><trkpt lat="44.05970031694782" lon="8.005852742946704"><ele>140.0</ele><time>2026-03-29T09:57:15Z</time></trkpt><trkpt lat="44.05977747951326" lon="8.006017404616973"><ele>137.33333333333331</ele><time>2026-03-29T09:57:16Z</time></trkpt><trkpt lat="44.05978895251435" lon="8.006227761891806"><ele>134.66666666666666</ele><time>2026-03-29T09:57:17Z</time></trkpt><trkpt lat="44.059833411006046" lon="8.00644655372351"><ele>132.0</ele><time>2026-03-29T09:57:18Z</time></trkpt><trkpt lat="44.059850341697285" lon="8.00667063119543"><ele>135.66666666666666</ele><time>2026-03-29T09:57:19Z</time></trkpt><trkpt lat="44.059882506466096" lon="8.00688646581892"><ele>139.33333333333331</ele><time>2026-03-29T09:57:20Z</time></trkpt><trkpt lat="44.05992750319415" lon="8.00708507440177"><ele>143.0</ele><time>2026-03-29T09:57:21Z</time></trkpt><trkpt lat="44.06000218599335" lon="8.007264048562634"><ele>143.0</ele><time>2026-03-29T09:57:22Z</time></trkpt><trkpt lat="44.06011672680205" lon="8.007406756023775"><ele>143.0</ele><time>2026-03-29T09:57:23Z</time></trkpt><trkpt lat="44.060255011937386" lon="8.00750373137867"><ele>143.0</ele><time>2026-03-29T09:57:24Z</time></trkpt><trkpt lat="44.06037797579321" lon="8.007602744836937"><ele>138.33333333333331</ele><time>2026-03-29T09:57:25Z</time></trkpt><trkpt lat="44.06047103052571" lon="8.007756133317368"><ele>133.66666666666666</ele><time>2026-03-29T09:57:26Z</time></trkpt><trkpt lat="44.0604866838204" lon="8.007977992350234"><ele>129.0</ele><time>2026-03-29T09:57:27Z</time></trkpt><trkpt lat="44.06053984285675" lon="8.008193806793033"><ele>125.0</ele><time>2026-03-29T09:57:28Z</time></trkpt><trkpt lat="44.06060372933352" lon="8.00838713095697"><ele>121.0</ele><time>2026-03-29T09:57:29Z</time></trkpt><trkpt lat="44.060665815773135" lon="8.008575356676376"><ele>117.0</ele><time>2026-03-29T09:57:30Z</time></trkpt><trkpt lat="44.06072792309919" lon="8.008768264563756"><ele>122.66666666666666</ele><time>2026-03-29T09:57:31Z</time></trkpt><trkpt lat="44.06078970620042" lon="8.00897466700754"><ele>128.33333333333331</ele><time>2026-03-29T09:57:32Z</time></trkpt><trkpt lat="44.060844967380575" lon="8.009194335948221"><ele>134.0</ele><time>2026-03-29T09:57:33Z</time></trkpt><trkpt lat="44.060887950476555" lon="8.009421787229662"><ele>134.0</ele><time>2026-03-29T09:57:34Z</time></trkpt><trkpt lat="44.06091932662402" lon="8.009655703908829"><ele>134.0</ele><time>2026-03-29T09:57:35Z</time></trkpt><trkpt lat="44.06095321420082" lon="8.009895387854977"><ele>134.0</ele><time>2026-03-29T09:57:36Z</time></trkpt><trkpt lat="44.060988184834535" lon="8.010132477182951"><ele>135.33333333333331</ele><time>2026-03-29T09:57:37Z</time></trkpt><trkpt lat="44.06102400634219" lon="8.010366038454011"><ele>136.66666666666666</ele><time>2026-03-29T09:57:38Z</time></trkpt><trkpt lat="44.06106022870869" lon="8.010597360956824"><ele>138.0</ele><time>2026-03-29T09:57:39Z</time></trkpt><trkpt lat="44.061095832422446" lon="8.010829284775236"><ele>139.33333333333334</ele><time>2026-03-29T09:57:40Z</time></trkpt><trkpt lat="44.06113111790578" lon="8.011061293059559"><ele>140.66666666666669</ele><time>2026-03-29T09:57:41Z</time></trkpt><trkpt lat="44.06115206438974" lon="8.011309331082154"><ele>142.0</ele><time>2026-03-29T09:57:42.055Z</time></trkpt><trkpt lat="44.06161931088289" lon="8.014463385779775"><ele>147.0</ele><time>2026-03-29T09:57:47.214Z</time></trkpt><trkpt lat="44.0616793574471" lon="8.015083380075437"><ele>147.0</ele><time>2026-03-29T09:57:48.217Z</time></trkpt><trkpt lat="44.0617014" lon="8.015705789124846"><ele>147.0</ele><time>2026-03-29T09:57:49.216Z</time></trkpt><trkpt lat="44.06168733522146" lon="8.016329985348865"><ele>143.5</ele><time>2026-03-29T09:57:50.217Z</time></trkpt><trkpt lat="44.06163491745851" lon="8.016949530371335"><ele>140.0</ele><time>2026-03-29T09:57:51.217Z</time></trkpt><trkpt lat="44.0614792567409" lon="8.013822333386546"><ele>140.0</ele><time>2026-03-29T09:57:53Z</time></trkpt><trkpt lat="44.0615078812322" lon="8.01404885912847"><ele>140.0</ele><time>2026-03-29T09:57:54Z</time></trkpt><trkpt lat="44.06158169012679" lon="8.014306121950169"><ele>140.0</ele><time>2026-03-29T09:57:55Z</time></trkpt><trkpt lat="44.06161270506121" lon="8.014542645985612"><ele>140.66666666666666</ele><time>2026-03-29T09:57:56Z</time></trkpt><trkpt lat="44.061638024518274" lon="8.014777057786729"><ele>141.33333333333334</ele><time>2026-03-29T09:57:57Z</time></trkpt><trkpt lat="44.06165630335472" lon="8.01500083142072"><ele>142.0</ele><time>2026-03-29T09:57:58Z</time></trkpt><trkpt lat="44.06167311897656" lon="8.015241500841823"><ele>143.66666666666669</ele><time>2026-03-29T09:57:59Z</time></trkpt><trkpt lat="44.06168164343842" lon="8.015486928549786"><ele>145.33333333333334</ele><time>2026-03-29T09:58:00.058Z</time></trkpt><trkpt lat="44.06168475066074" lon="8.015713495436502"><ele>147.0</ele><time>2026-03-29T09:58:01.056Z</time></trkpt><trkpt lat="44.06168311798937" lon="8.015948274144895"><ele>153.0</ele><time>2026-03-29T09:58:02.057Z</time></trkpt><trkpt lat="44.06167741900697" lon="8.016171335199473"><ele>159.0</ele><time>2026-03-29T09:58:03.054Z</time></trkpt><trkpt lat="44.06143428407752" lon="8.018084132622567"><ele>165.0</ele><time>2026-03-29T09:58:06.217Z</time></trkpt><trkpt lat="44.06128042108371" lon="8.018668525451952"><ele>171.0</ele><time>2026-03-29T09:58:07.214Z</time></trkpt><trkpt lat="44.06108458580015" lon="8.019229673817401"><ele>171.0</ele><time>2026-03-29T09:58:08.214Z</time></trkpt><trkpt lat="44.06086166896167" lon="8.01977404776615"><ele>163.0</ele><time>2026-03-29T09:58:09.217Z</time></trkpt><trkpt lat="44.06060064612247" lon="8.020282183176406"><ele>155.0</ele><time>2026-03-29T09:58:10.217Z</time></trkpt><trkpt lat="44.06032385070694" lon="8.020774113998758"><ele>162.5</ele><time>2026-03-29T09:58:11.217Z</time></trkpt><trkpt lat="44.0602248" lon="8.0209437"><ele>170.0</ele><time>2026-03-29T09:58:12.217Z</time></trkpt><trkpt lat="44.058482032745694" lon="8.023869758039746"><ele>153.66666666666666</ele><time>2026-03-29T09:58:41Z</time></trkpt><trkpt lat="44.05835243827552" lon="8.024062316833092"><ele>137.33333333333334</ele><time>2026-03-29T09:58:42Z</time></trkpt><trkpt lat="44.05824599731098" lon="8.024242223395232"><ele>121.0</ele><time>2026-03-29T09:58:43Z</time></trkpt><trkpt lat="44.05814114792128" lon="8.024415766698402"><ele>116.0</ele><time>2026-03-29T09:58:44Z</time></trkpt><trkpt lat="44.05803852499152" lon="8.024598210748655"><ele>111.0</ele><time>2026-03-29T09:58:45Z</time></trkpt><trkpt lat="44.05795002961322" lon="8.024791872806782"><ele>106.0</ele><time>2026-03-29T09:58:46Z</time></trkpt><trkpt lat="44.05787866545978" lon="8.024997776223664"><ele>106.0</ele><time>2026-03-29T09:58:47Z</time></trkpt><trkpt lat="44.057815336013846" lon="8.025211036138915"><ele>106.0</ele><time>2026-03-29T09:58:48Z</time></trkpt><trkpt lat="44.05776386475062" lon="8.025432088820878"><ele>106.0</ele><time>2026-03-29T09:58:49Z</time></trkpt><trkpt lat="44.057717757860296" lon="8.025658111995773"><ele>107.0</ele><time>2026-03-29T09:58:50Z</time></trkpt><trkpt lat="44.05767704793198" lon="8.02587983426534"><ele>108.0</ele><time>2026-03-29T09:58:51Z</time></trkpt><trkpt lat="44.05764230830797" lon="8.02610424132711"><ele>109.0</ele><time>2026-03-29T09:58:52Z</time></trkpt><trkpt lat="44.057618525330696" lon="8.026329816220047"><ele>109.0</ele><time>2026-03-29T09:58:53Z</time></trkpt><trkpt lat="44.05760710034425" lon="8.02656286299974"><ele>109.0</ele><time>2026-03-29T09:58:54Z</time></trkpt><trkpt lat="44.057608983609875" lon="8.026798599411931"><ele>109.0</ele><time>2026-03-29T09:58:55Z</time></trkpt><trkpt lat="44.05762571274182" lon="8.02703495342492"><ele>110.33333333333334</ele><time>2026-03-29T09:58:56Z</time></trkpt><trkpt lat="44.0576506072651" lon="8.027274495427072"><ele>111.66666666666666</ele><time>2026-03-29T09:58:57Z</time></trkpt><trkpt lat="44.057677068401" lon="8.027513483815552"><ele>113.0</ele><time>2026-03-29T09:58:58Z</time></trkpt><trkpt lat="44.0577040880108" lon="8.027753348078528"><ele>113.0</ele><time>2026-03-29T09:58:59Z</time></trkpt><trkpt lat="44.05773040766996" lon="8.027990390448197"><ele>113.0</ele><time>2026-03-29T09:59:00Z</time></trkpt><trkpt lat="44.05775510407036" lon="8.02822005503544"><ele>113.0</ele><time>2026-03-29T09:59:01Z</time></trkpt><trkpt lat="44.05778114454125" lon="8.02844869772169"><ele>111.33333333333333</ele><time>2026-03-29T09:59:02Z</time></trkpt><trkpt lat="44.05780412319058" lon="8.028670370046399"><ele>109.66666666666666</ele><time>2026-03-29T09:59:03Z</time></trkpt><trkpt lat="44.057826741067714" lon="8.028888128838453"><ele>108.0</ele><time>2026-03-29T09:59:04Z</time></trkpt><trkpt lat="44.05784955103589" lon="8.029104745501455"><ele>107.0</ele><time>2026-03-29T09:59:05Z</time></trkpt><trkpt lat="44.05787212918374" lon="8.029320806032601"><ele>106.0</ele><time>2026-03-29T09:59:06Z</time></trkpt><trkpt lat="44.05789230408287" lon="8.029540786836241"><ele>105.0</ele><time>2026-03-29T09:59:07Z</time></trkpt><trkpt lat="44.05791540041065" lon="8.029765131824455"><ele>105.0</ele><time>2026-03-29T09:59:08Z</time></trkpt><trkpt lat="44.057940848225186" lon="8.029989728976462"><ele>105.0</ele><time>2026-03-29T09:59:09Z</time></trkpt><trkpt lat="44.05796579238675" lon="8.030214213195956"><ele>105.0</ele><time>2026-03-29T09:59:10Z</time></trkpt><trkpt lat="44.05798946902714" lon="8.0304397258798"><ele>105.0</ele><time>2026-03-29T09:59:11Z</time></trkpt><trkpt lat="44.05800891077109" lon="8.030665790956549"><ele>105.0</ele><time>2026-03-29T09:59:12Z</time></trkpt><trkpt lat="44.0580252143801" lon="8.030891891818076"><ele>105.0</ele><time>2026-03-29T09:59:13Z</time></trkpt><trkpt lat="44.05804044273312" lon="8.031120050656455"><ele>105.0</ele><time>2026-03-29T09:59:14Z</time></trkpt><trkpt lat="44.05804739902774" lon="8.031348851779079"><ele>105.0</ele><time>2026-03-29T09:59:15Z</time></trkpt><trkpt lat="44.058038444488176" lon="8.031580125309084"><ele>105.0</ele><time>2026-03-29T09:59:16Z</time></trkpt><trkpt lat="44.05802080790637" lon="8.03180944255274"><ele>105.0</ele><time>2026-03-29T09:59:17Z</time></trkpt><trkpt lat="44.05800073970497" lon="8.032038221355638"><ele>105.0</ele><time>2026-03-29T09:59:18Z</time></trkpt><trkpt lat="44.05797890528274" lon="8.032267280465357"><ele>105.0</ele><time>2026-03-29T09:59:19Z</time></trkpt><trkpt lat="44.057958310317844" lon="8.032491877321634"><ele>105.0</ele><time>2026-03-29T09:59:20Z</time></trkpt><trkpt lat="44.05793962281216" lon="8.032711124252874"><ele>105.0</ele><time>2026-03-29T09:59:21Z</time></trkpt><trkpt lat="44.05792075525183" lon="8.032933258730012"><ele>105.0</ele><time>2026-03-29T09:59:22Z</time></trkpt><trkpt lat="44.057900270099545" lon="8.033155956971715"><ele>104.33333333333334</ele><time>2026-03-29T09:59:23Z</time></trkpt><trkpt lat="44.05787901320221" lon="8.033374993497995"><ele>103.66666666666667</ele><time>2026-03-29T09:59:24Z</time></trkpt><trkpt lat="44.057856929245204" lon="8.03359320967103"><ele>103.0</ele><time>2026-03-29T09:59:25Z</time></trkpt><trkpt lat="44.057836109138556" lon="8.03381237904257"><ele>103.0</ele><time>2026-03-29T09:59:26Z</time></trkpt><trkpt lat="44.057817471960504" lon="8.034028778196344"><ele>103.0</ele><time>2026-03-29T09:59:27Z</time></trkpt><trkpt lat="44.05780017700501" lon="8.03423770574073"><ele>103.0</ele><time>2026-03-29T09:59:28Z</time></trkpt><trkpt lat="44.057780236117125" lon="8.034450542894895"><ele>103.0</ele><time>2026-03-29T09:59:29Z</time></trkpt><trkpt lat="44.05776077742153" lon="8.034660368020804"><ele>103.0</ele><time>2026-03-29T09:59:30Z</time></trkpt><trkpt lat="44.057740690505916" lon="8.034867777911144"><ele>103.0</ele><time>2026-03-29T09:59:31Z</time></trkpt><trkpt lat="44.057722704124124" lon="8.035076177927888"><ele>103.0</ele><time>2026-03-29T09:59:32Z</time></trkpt><trkpt lat="44.05770826951488" lon="8.035287621608703"><ele>103.0</ele><time>2026-03-29T09:59:33Z</time></trkpt><trkpt lat="44.05769700580418" lon="8.035498754523715"><ele>103.0</ele><time>2026-03-29T09:59:34Z</time></trkpt><trkpt lat="44.057684823228875" lon="8.035709166747308"><ele>102.66666666666667</ele><time>2026-03-29T09:59:35Z</time></trkpt><trkpt lat="44.05767607912992" lon="8.03592015478078"><ele>102.33333333333334</ele><time>2026-03-29T09:59:36Z</time></trkpt><trkpt lat="44.05766829229143" lon="8.036132010188124"><ele>102.0</ele><time>2026-03-29T09:59:37Z</time></trkpt><trkpt lat="44.057659423210524" lon="8.036346459492037"><ele>102.0</ele><time>2026-03-29T09:59:38Z</time></trkpt><trkpt lat="44.05765165200447" lon="8.03656134896885"><ele>102.0</ele><time>2026-03-29T09:59:39Z</time></trkpt><trkpt lat="44.057642415697345" lon="8.036778384367498"><ele>102.0</ele><time>2026-03-29T09:59:40Z</time></trkpt><trkpt lat="44.05763404142604" lon="8.036994755211225"><ele>101.66666666666666</ele><time>2026-03-29T09:59:41Z</time></trkpt><trkpt lat="44.057623213625845" lon="8.03721080490977"><ele>101.33333333333333</ele><time>2026-03-29T09:59:42Z</time></trkpt><trkpt lat="44.05760945549323" lon="8.03742450483651"><ele>101.0</ele><time>2026-03-29T09:59:43Z</time></trkpt><trkpt lat="44.057590584865" lon="8.037646559282512"><ele>102.33333333333333</ele><time>2026-03-29T09:59:44Z</time></trkpt><trkpt lat="44.057561071913085" lon="8.037871515675224"><ele>103.66666666666666</ele><time>2026-03-29T09:59:45Z</time></trkpt><trkpt lat="44.05751951573668" lon="8.038094599303962"><ele>105.0</ele><time>2026-03-29T09:59:46Z</time></trkpt><trkpt lat="44.057459403112794" lon="8.038317868246473"><ele>102.66666666666666</ele><time>2026-03-29T09:59:47Z</time></trkpt><trkpt lat="44.05739659252268" lon="8.038541268016628"><ele>100.33333333333333</ele><time>2026-03-29T09:59:48Z</time></trkpt><trkpt lat="44.05733549807527" lon="8.038768743155282"><ele>98.0</ele><time>2026-03-29T09:59:49Z</time></trkpt><trkpt lat="44.05727777769321" lon="8.038995893042356"><ele>99.33333333333333</ele><time>2026-03-29T09:59:50Z</time></trkpt><trkpt lat="44.057222463728124" lon="8.03922110572244"><ele>100.66666666666666</ele><time>2026-03-29T09:59:51Z</time></trkpt><trkpt lat="44.05716379989737" lon="8.039444683010109"><ele>102.0</ele><time>2026-03-29T09:59:52Z</time></trkpt><trkpt lat="44.05710664270478" lon="8.039665709195976"><ele>102.0</ele><time>2026-03-29T09:59:53Z</time></trkpt><trkpt lat="44.0570480539856" lon="8.039885719662184"><ele>102.0</ele><time>2026-03-29T09:59:54Z</time></trkpt><trkpt lat="44.05699028190086" lon="8.040102135478831"><ele>102.0</ele><time>2026-03-29T09:59:55Z</time></trkpt><trkpt lat="44.05693349237494" lon="8.040319853846986"><ele>103.66666666666666</ele><time>2026-03-29T09:59:56Z</time></trkpt><trkpt lat="44.05687772905862" lon="8.040536812314132"><ele>105.33333333333333</ele><time>2026-03-29T09:59:57Z</time></trkpt><trkpt lat="44.056819616477476" lon="8.040752542021066"><ele>107.0</ele><time>2026-03-29T09:59:58Z</time></trkpt><trkpt lat="44.05676245029869" lon="8.040969184578774"><ele>107.33333333333333</ele><time>2026-03-29T09:59:59Z</time></trkpt><trkpt lat="44.056704215447276" lon="8.04118475655035"><ele>107.66666666666666</ele><time>2026-03-29T10:00:00Z</time></trkpt><trkpt lat="44.05664727175208" lon="8.041401488483237"><ele>108.0</ele><time>2026-03-29T10:00:01Z</time></trkpt><trkpt lat="44.05659276590558" lon="8.0416204700728"><ele>103.66666666666667</ele><time>2026-03-29T10:00:02Z</time></trkpt><trkpt lat="44.05653709621467" lon="8.041839927338891"><ele>99.33333333333334</ele><time>2026-03-29T10:00:03Z</time></trkpt><trkpt lat="44.05648203885993" lon="8.042055028335401"><ele>95.0</ele><time>2026-03-29T10:00:04Z</time></trkpt><trkpt lat="44.05642940475383" lon="8.042269006415376"><ele>94.66666666666667</ele><time>2026-03-29T10:00:05Z</time></trkpt><trkpt lat="44.05637491396284" lon="8.042480076654625"><ele>94.33333333333333</ele><time>2026-03-29T10:00:06Z</time></trkpt><trkpt lat="44.05632013479653" lon="8.042692593363515"><ele>94.0</ele><time>2026-03-29T10:00:07Z</time></trkpt><trkpt lat="44.05626600883716" lon="8.042903941527491"><ele>94.0</ele><time>2026-03-29T10:00:08Z</time></trkpt><trkpt lat="44.05621083928884" lon="8.043113842108372"><ele>94.0</ele><time>2026-03-29T10:00:09Z</time></trkpt><trkpt lat="44.05615553544171" lon="8.043319146956604"><ele>94.0</ele><time>2026-03-29T10:00:10Z</time></trkpt><trkpt lat="44.05609969190989" lon="8.043526101967567"><ele>96.0</ele><time>2026-03-29T10:00:11Z</time></trkpt><trkpt lat="44.05603861672736" lon="8.043730338360515"><ele>98.0</ele><time>2026-03-29T10:00:12Z</time></trkpt><trkpt lat="44.05596440845366" lon="8.043924901712119"><ele>100.0</ele><time>2026-03-29T10:00:13Z</time></trkpt><trkpt lat="44.05587648324832" lon="8.044114097969269"><ele>96.66666666666667</ele><time>2026-03-29T10:00:14Z</time></trkpt><trkpt lat="44.05577587312402" lon="8.044292540331766"><ele>93.33333333333334</ele><time>2026-03-29T10:00:15Z</time></trkpt><trkpt lat="44.0556683253397" lon="8.044463067711693"><ele>90.0</ele><time>2026-03-29T10:00:16Z</time></trkpt><trkpt lat="44.05555881466025" lon="8.044625095793478"><ele>90.0</ele><time>2026-03-29T10:00:17Z</time></trkpt><trkpt lat="44.05545370317303" lon="8.044783003028936"><ele>90.0</ele><time>2026-03-29T10:00:18Z</time></trkpt><trkpt lat="44.05535720496979" lon="8.044936933735825"><ele>90.0</ele><time>2026-03-29T10:00:19Z</time></trkpt><trkpt lat="44.055272056133106" lon="8.045100407906691"><ele>90.0</ele><time>2026-03-29T10:00:20Z</time></trkpt><trkpt lat="44.055200908081446" lon="8.04528548785621"><ele>91.66666666666667</ele><time>2026-03-29T10:00:21Z</time></trkpt><trkpt lat="44.05514087442865" lon="8.045482837445668"><ele>93.33333333333334</ele><time>2026-03-29T10:00:22Z</time></trkpt><trkpt lat="44.05509589137175" lon="8.045690029009533"><ele>95.0</ele><time>2026-03-29T10:00:23Z</time></trkpt><trkpt lat="44.05505462397912" lon="8.04590573452361"><ele>97.0</ele><time>2026-03-29T10:00:24Z</time></trkpt><trkpt lat="44.055026187961765" lon="8.046124765999458"><ele>99.0</ele><time>2026-03-29T10:00:25Z</time></trkpt><trkpt lat="44.0550132194675" lon="8.046353009500727"><ele>101.0</ele><time>2026-03-29T10:00:26Z</time></trkpt><trkpt lat="44.055019827523466" lon="8.046586413701618"><ele>102.33333333333333</ele><time>2026-03-29T10:00:27Z</time></trkpt><trkpt lat="44.05503860533687" lon="8.04682179433708"><ele>103.66666666666666</ele><time>2026-03-29T10:00:28Z</time></trkpt><trkpt lat="44.05506118901097" lon="8.047055949987518"><ele>105.0</ele><time>2026-03-29T10:00:29Z</time></trkpt><trkpt lat="44.05508361663868" lon="8.047284265124535"><ele>103.66666666666666</ele><time>2026-03-29T10:00:30Z</time></trkpt><trkpt lat="44.05510197868627" lon="8.047514338509425"><ele>102.33333333333333</ele><time>2026-03-29T10:00:31Z</time></trkpt><trkpt lat="44.055120535259114" lon="8.047737519667587"><ele>101.0</ele><time>2026-03-29T10:00:32Z</time></trkpt><trkpt lat="44.055141736844185" lon="8.047964158509041"><ele>101.0</ele><time>2026-03-29T10:00:33Z</time></trkpt><trkpt lat="44.05516138485002" lon="8.04818677791951"><ele>101.0</ele><time>2026-03-29T10:00:34Z</time></trkpt><trkpt lat="44.05518307762395" lon="8.04841143602544"><ele>101.0</ele><time>2026-03-29T10:00:35Z</time></trkpt><trkpt lat="44.05521251895513" lon="8.04863106006742"><ele>99.5</ele><time>2026-03-29T10:00:36Z</time></trkpt><trkpt lat="44.055259923391276" lon="8.048825350610148"><ele>98.0</ele><time>2026-03-29T10:00:37Z</time></trkpt><trkpt lat="44.05531425157096" lon="8.04899003693499"><ele>96.5</ele><time>2026-03-29T10:00:38Z</time></trkpt><trkpt lat="44.05534040554123" lon="8.049155227522661"><ele>95.0</ele><time>2026-03-29T10:00:39Z</time></trkpt><trkpt lat="44.055335624886695" lon="8.04933161911728"><ele>94.75</ele><time>2026-03-29T10:00:40Z</time></trkpt><trkpt lat="44.05528765202619" lon="8.049497294703643"><ele>94.5</ele><time>2026-03-29T10:00:41Z</time></trkpt><trkpt lat="44.05521897362209" lon="8.049661381918467"><ele>94.25</ele><time>2026-03-29T10:00:42Z</time></trkpt><trkpt lat="44.05514165111156" lon="8.049820407970438"><ele>94.0</ele><time>2026-03-29T10:00:43Z</time></trkpt><trkpt lat="44.055049535492024" lon="8.049982463406861"><ele>92.0</ele><time>2026-03-29T10:00:44Z</time></trkpt><trkpt lat="44.05494922786272" lon="8.050146495966125"><ele>90.0</ele><time>2026-03-29T10:00:45Z</time></trkpt><trkpt lat="44.054837155890844" lon="8.050302848258374"><ele>88.0</ele><time>2026-03-29T10:00:46Z</time></trkpt><trkpt lat="44.05471040564081" lon="8.050439939277158"><ele>88.0</ele><time>2026-03-29T10:00:47Z</time></trkpt><trkpt lat="44.054582168314724" lon="8.0505543989108"><ele>88.0</ele><time>2026-03-29T10:00:48Z</time></trkpt><trkpt lat="44.05445912425278" lon="8.050645193197164"><ele>88.0</ele><time>2026-03-29T10:00:49Z</time></trkpt><trkpt lat="44.054341727872554" lon="8.05072102945453"><ele>88.0</ele><time>2026-03-29T10:00:50Z</time></trkpt><trkpt lat="44.054237392468714" lon="8.050833605584112"><ele>87.75</ele><time>2026-03-29T10:00:51Z</time></trkpt><trkpt lat="44.05413705755651" lon="8.050972987230198"><ele>87.5</ele><time>2026-03-29T10:00:52Z</time></trkpt><trkpt lat="44.05410234022639" lon="8.051175406855952"><ele>87.25</ele><time>2026-03-29T10:00:53Z</time></trkpt><trkpt lat="44.054098658193844" lon="8.051378165550453"><ele>87.0</ele><time>2026-03-29T10:00:54Z</time></trkpt><trkpt lat="44.05411632400562" lon="8.051602839141333"><ele>92.66666666666666</ele><time>2026-03-29T10:00:55Z</time></trkpt><trkpt lat="44.054136279749606" lon="8.051842572400245"><ele>98.33333333333333</ele><time>2026-03-29T10:00:56Z</time></trkpt><trkpt lat="44.054156381712865" lon="8.05209147657543"><ele>104.0</ele><time>2026-03-29T10:00:57Z</time></trkpt><trkpt lat="44.054178807123336" lon="8.052345481650272"><ele>102.33333333333333</ele><time>2026-03-29T10:00:58Z</time></trkpt><trkpt lat="44.05419737468709" lon="8.052590689720084"><ele>100.66666666666666</ele><time>2026-03-29T10:00:59Z</time></trkpt><trkpt lat="44.05421427078167" lon="8.052825106171698"><ele>99.0</ele><time>2026-03-29T10:01:00Z</time></trkpt><trkpt lat="44.05423166086579" lon="8.053067029797313"><ele>97.66666666666667</ele><time>2026-03-29T10:01:01Z</time></trkpt><trkpt lat="44.054250056436494" lon="8.053307499086714"><ele>96.33333333333334</ele><time>2026-03-29T10:01:02Z</time></trkpt><trkpt lat="44.05426799924232" lon="8.05354317352343"><ele>95.0</ele><time>2026-03-29T10:01:03Z</time></trkpt><trkpt lat="44.054286211678324" lon="8.05377464450655"><ele>95.0</ele><time>2026-03-29T10:01:04Z</time></trkpt><trkpt lat="44.05430433938973" lon="8.054001626258689"><ele>95.0</ele><time>2026-03-29T10:01:05Z</time></trkpt><trkpt lat="44.05432109718705" lon="8.054229689445094"><ele>95.0</ele><time>2026-03-29T10:01:06Z</time></trkpt><trkpt lat="44.05433764496631" lon="8.054456149896899"><ele>94.66666666666667</ele><time>2026-03-29T10:01:07Z</time></trkpt><trkpt lat="44.05435392449741" lon="8.054682603054312"><ele>94.33333333333333</ele><time>2026-03-29T10:01:08Z</time></trkpt><trkpt lat="44.05437097751606" lon="8.0549086638839"><ele>94.0</ele><time>2026-03-29T10:01:09Z</time></trkpt><trkpt lat="44.05438853514257" lon="8.055137883792044"><ele>93.33333333333333</ele><time>2026-03-29T10:01:10Z</time></trkpt><trkpt lat="44.05440533511589" lon="8.05535994302634"><ele>92.66666666666667</ele><time>2026-03-29T10:01:11Z</time></trkpt><trkpt lat="44.0544230967661" lon="8.055576130460793"><ele>92.0</ele><time>2026-03-29T10:01:12Z</time></trkpt><trkpt lat="44.05444660450008" lon="8.055786753687723"><ele>91.33333333333334</ele><time>2026-03-29T10:01:13Z</time></trkpt><trkpt lat="44.05447806545099" lon="8.055995007123665"><ele>90.66666666666667</ele><time>2026-03-29T10:01:14Z</time></trkpt><trkpt lat="44.054517762483385" lon="8.05620335402625"><ele>90.0</ele><time>2026-03-29T10:01:15Z</time></trkpt><trkpt lat="44.05455409704356" lon="8.056412801360855"><ele>88.0</ele><time>2026-03-29T10:01:16Z</time></trkpt><trkpt lat="44.05458256030364" lon="8.056625596596728"><ele>86.0</ele><time>2026-03-29T10:01:17Z</time></trkpt><trkpt lat="44.05458736560938" lon="8.056843553058496"><ele>84.0</ele><time>2026-03-29T10:01:18Z</time></trkpt><trkpt lat="44.05457758307858" lon="8.05706382382081"><ele>84.0</ele><time>2026-03-29T10:01:19Z</time></trkpt><trkpt lat="44.05457607197383" lon="8.05728720653644"><ele>84.0</ele><time>2026-03-29T10:01:20Z</time></trkpt><trkpt lat="44.054587551896915" lon="8.057509451491576"><ele>84.0</ele><time>2026-03-29T10:01:21Z</time></trkpt><trkpt lat="44.054620199134554" lon="8.057728811467088"><ele>82.66666666666667</ele><time>2026-03-29T10:01:22Z</time></trkpt><trkpt lat="44.05467263776586" lon="8.057938538208171"><ele>81.33333333333334</ele><time>2026-03-29T10:01:23Z</time></trkpt><trkpt lat="44.05474534643444" lon="8.058138833053185"><ele>80.0</ele><time>2026-03-29T10:01:24Z</time></trkpt><trkpt lat="44.05482523518733" lon="8.05833286464944"><ele>80.0</ele><time>2026-03-29T10:01:25Z</time></trkpt><trkpt lat="44.05490349569615" lon="8.058505859465107"><ele>80.0</ele><time>2026-03-29T10:01:26Z</time></trkpt><trkpt lat="44.05498404655737" lon="8.058680775431528"><ele>80.0</ele><time>2026-03-29T10:01:27Z</time></trkpt><trkpt lat="44.05506747411814" lon="8.058856798285056"><ele>80.0</ele><time>2026-03-29T10:01:28Z</time></trkpt><trkpt lat="44.055154935118665" lon="8.059029015603501"><ele>80.66666666666667</ele><time>2026-03-29T10:01:29Z</time></trkpt><trkpt lat="44.05524671844276" lon="8.059204926379985"><ele>81.33333333333333</ele><time>2026-03-29T10:01:30Z</time></trkpt><trkpt lat="44.05533917631668" lon="8.059385930198482"><ele>82.0</ele><time>2026-03-29T10:01:31Z</time></trkpt><trkpt lat="44.055432011404285" lon="8.059570899614217"><ele>82.0</ele><time>2026-03-29T10:01:32Z</time></trkpt><trkpt lat="44.05552382110506" lon="8.059751055127863"><ele>82.0</ele><time>2026-03-29T10:01:33Z</time></trkpt><trkpt lat="44.055615170903074" lon="8.059925235780279"><ele>82.0</ele><time>2026-03-29T10:01:34Z</time></trkpt><trkpt lat="44.055703528782104" lon="8.060096742190337"><ele>84.0</ele><time>2026-03-29T10:01:35Z</time></trkpt><trkpt lat="44.055793091890465" lon="8.060266445761476"><ele>86.0</ele><time>2026-03-29T10:01:36Z</time></trkpt><trkpt lat="44.055886039236114" lon="8.06043620037453"><ele>88.0</ele><time>2026-03-29T10:01:37Z</time></trkpt><trkpt lat="44.055979127509" lon="8.060609531166797"><ele>86.33333333333333</ele><time>2026-03-29T10:01:38Z</time></trkpt><trkpt lat="44.056064067848006" lon="8.060793663416723"><ele>84.66666666666667</ele><time>2026-03-29T10:01:39Z</time></trkpt><trkpt lat="44.0561335668472" lon="8.060990327699786"><ele>83.0</ele><time>2026-03-29T10:01:40Z</time></trkpt><trkpt lat="44.056182268753616" lon="8.061195061888796"><ele>83.0</ele><time>2026-03-29T10:01:41Z</time></trkpt><trkpt lat="44.05621285979388" lon="8.061405769212817"><ele>83.0</ele><time>2026-03-29T10:01:42Z</time></trkpt><trkpt lat="44.05622241547751" lon="8.061617143342382"><ele>83.0</ele><time>2026-03-29T10:01:43Z</time></trkpt><trkpt lat="44.05620849023347" lon="8.061832706444408"><ele>81.33333333333334</ele><time>2026-03-29T10:01:44Z</time></trkpt><trkpt lat="44.05618289288858" lon="8.062052386733063"><ele>79.66666666666667</ele><time>2026-03-29T10:01:45Z</time></trkpt><trkpt lat="44.05615597262994" lon="8.062271136428937"><ele>78.0</ele><time>2026-03-29T10:01:46Z</time></trkpt><trkpt lat="44.05613235860322" lon="8.062490980180511"><ele>78.0</ele><time>2026-03-29T10:01:47Z</time></trkpt><trkpt lat="44.056105851292735" lon="8.062712985081435"><ele>78.0</ele><time>2026-03-29T10:01:48Z</time></trkpt><trkpt lat="44.05607115464041" lon="8.062934324040516"><ele>78.0</ele><time>2026-03-29T10:01:49Z</time></trkpt><trkpt lat="44.05603854555682" lon="8.063145999823686"><ele>79.0</ele><time>2026-03-29T10:01:50Z</time></trkpt><trkpt lat="44.05600312996892" lon="8.0633580221015"><ele>80.0</ele><time>2026-03-29T10:01:51Z</time></trkpt><trkpt lat="44.055958180112036" lon="8.063567894442091"><ele>81.0</ele><time>2026-03-29T10:01:52Z</time></trkpt><trkpt lat="44.055908618893035" lon="8.063778518455004"><ele>81.0</ele><time>2026-03-29T10:01:53Z</time></trkpt><trkpt lat="44.055856220584985" lon="8.063978317173929"><ele>81.0</ele><time>2026-03-29T10:01:54Z</time></trkpt><trkpt lat="44.0558043704902" lon="8.064177968671407"><ele>81.0</ele><time>2026-03-29T10:01:55Z</time></trkpt><trkpt lat="44.05575579122986" lon="8.064360017521775"><ele>81.0</ele><time>2026-03-29T10:01:56Z</time></trkpt><trkpt lat="44.05571043611104" lon="8.064531527642686"><ele>80.25</ele><time>2026-03-29T10:01:57Z</time></trkpt><trkpt lat="44.055666367721344" lon="8.064700725660515"><ele>79.5</ele><time>2026-03-29T10:01:58Z</time></trkpt><trkpt lat="44.05562417824018" lon="8.064861312769958"><ele>78.75</ele><time>2026-03-29T10:01:59Z</time></trkpt><trkpt lat="44.055581475762175" lon="8.065024244480213"><ele>78.0</ele><time>2026-03-29T10:02:00Z</time></trkpt><trkpt lat="44.05553739479632" lon="8.06518871835263"><ele>78.0</ele><time>2026-03-29T10:02:01Z</time></trkpt><trkpt lat="44.05549154392118" lon="8.065355689464733"><ele>78.0</ele><time>2026-03-29T10:02:02Z</time></trkpt><trkpt lat="44.05544627799873" lon="8.065525743074437"><ele>78.0</ele><time>2026-03-29T10:02:03Z</time></trkpt><trkpt lat="44.05539968487189" lon="8.065698573157006"><ele>78.0</ele><time>2026-03-29T10:02:04Z</time></trkpt><trkpt lat="44.05535069367092" lon="8.06587276132846"><ele>78.0</ele><time>2026-03-29T10:02:05Z</time></trkpt><trkpt lat="44.05530202652048" lon="8.066042344385764"><ele>78.0</ele><time>2026-03-29T10:02:06Z</time></trkpt><trkpt lat="44.05525740218259" lon="8.066217641260206"><ele>78.0</ele><time>2026-03-29T10:02:07Z</time></trkpt><trkpt lat="44.05521088840208" lon="8.066394421574648"><ele>78.0</ele><time>2026-03-29T10:02:08Z</time></trkpt><trkpt lat="44.05516470019982" lon="8.066568377464785"><ele>77.25</ele><time>2026-03-29T10:02:09Z</time></trkpt><trkpt lat="44.05511511200905" lon="8.066740332313564"><ele>76.5</ele><time>2026-03-29T10:02:10Z</time></trkpt><trkpt lat="44.05507108611617" lon="8.066907084658089"><ele>75.75</ele><time>2026-03-29T10:02:11Z</time></trkpt><trkpt lat="44.055026317929965" lon="8.067072828155016"><ele>75.0</ele><time>2026-03-29T10:02:12Z</time></trkpt><trkpt lat="44.05498215193881" lon="8.067242495161523"><ele>74.0</ele><time>2026-03-29T10:02:13Z</time></trkpt><trkpt lat="44.054935054665236" lon="8.067418597948208"><ele>73.0</ele><time>2026-03-29T10:02:14Z</time></trkpt><trkpt lat="44.05489113002056" lon="8.06759397406671"><ele>72.0</ele><time>2026-03-29T10:02:15Z</time></trkpt><trkpt lat="44.0548462644883" lon="8.067768670387657"><ele>71.0</ele><time>2026-03-29T10:02:16Z</time></trkpt><trkpt lat="44.054803575429446" lon="8.067933314687842"><ele>71.0</ele><time>2026-03-29T10:02:17Z</time></trkpt><trkpt lat="44.0547602455853" lon="8.068099997636212"><ele>71.0</ele><time>2026-03-29T10:02:18Z</time></trkpt><trkpt lat="44.05471563231414" lon="8.068266850096908"><ele>71.0</ele><time>2026-03-29T10:02:19Z</time></trkpt><trkpt lat="44.05467375710388" lon="8.068435882759934"><ele>71.0</ele><time>2026-03-29T10:02:20Z</time></trkpt><trkpt lat="44.05463733173745" lon="8.068607084356271"><ele>72.0</ele><time>2026-03-29T10:02:21Z</time></trkpt><trkpt lat="44.054608215126045" lon="8.068781401240606"><ele>73.0</ele><time>2026-03-29T10:02:22Z</time></trkpt><trkpt lat="44.05459387467341" lon="8.068960229136431"><ele>74.0</ele><time>2026-03-29T10:02:23Z</time></trkpt><trkpt lat="44.05457834270016" lon="8.069141567883177"><ele>75.0</ele><time>2026-03-29T10:02:24Z</time></trkpt><trkpt lat="44.05456443704409" lon="8.069326076334459"><ele>75.75</ele><time>2026-03-29T10:02:25Z</time></trkpt><trkpt lat="44.05455065629112" lon="8.069513615329734"><ele>76.5</ele><time>2026-03-29T10:02:26Z</time></trkpt><trkpt lat="44.0545246386745" lon="8.069699308478134"><ele>77.25</ele><time>2026-03-29T10:02:27Z</time></trkpt><trkpt lat="44.054472731238214" lon="8.069872141321916"><ele>78.0</ele><time>2026-03-29T10:02:28Z</time></trkpt><trkpt lat="44.05441628477843" lon="8.070049909015866"><ele>78.25</ele><time>2026-03-29T10:02:29Z</time></trkpt><trkpt lat="44.054352626730186" lon="8.0702279862843"><ele>78.5</ele><time>2026-03-29T10:02:30Z</time></trkpt><trkpt lat="44.05429348008752" lon="8.070405813882319"><ele>78.75</ele><time>2026-03-29T10:02:31Z</time></trkpt><trkpt lat="44.05423325963817" lon="8.070587791219614"><ele>79.0</ele><time>2026-03-29T10:02:32Z</time></trkpt><trkpt lat="44.054167016942394" lon="8.070768387691365"><ele>77.0</ele><time>2026-03-29T10:02:33Z</time></trkpt><trkpt lat="44.05410451483162" lon="8.070955286971342"><ele>75.0</ele><time>2026-03-29T10:02:34Z</time></trkpt><trkpt lat="44.054042300008405" lon="8.071142901391486"><ele>73.0</ele><time>2026-03-29T10:02:35Z</time></trkpt><trkpt lat="44.053977899981064" lon="8.071331003504422"><ele>71.0</ele><time>2026-03-29T10:02:36Z</time></trkpt><trkpt lat="44.05392349774884" lon="8.071532955603018"><ele>70.66666666666667</ele><time>2026-03-29T10:02:37Z</time></trkpt><trkpt lat="44.053872239004086" lon="8.071739462985013"><ele>70.33333333333333</ele><time>2026-03-29T10:02:38Z</time></trkpt><trkpt lat="44.05382759789105" lon="8.071954052649275"><ele>70.0</ele><time>2026-03-29T10:02:39Z</time></trkpt><trkpt lat="44.05378515325548" lon="8.072175658422701"><ele>70.0</ele><time>2026-03-29T10:02:40Z</time></trkpt><trkpt lat="44.05374762596721" lon="8.072399626591373"><ele>70.0</ele><time>2026-03-29T10:02:41Z</time></trkpt><trkpt lat="44.05371443360131" lon="8.072626620743268"><ele>70.0</ele><time>2026-03-29T10:02:42Z</time></trkpt><trkpt lat="44.05368052801307" lon="8.072855247268523"><ele>69.66666666666666</ele><time>2026-03-29T10:02:43Z</time></trkpt><trkpt lat="44.05364432442544" lon="8.073086730038993"><ele>69.33333333333333</ele><time>2026-03-29T10:02:44Z</time></trkpt><trkpt lat="44.05360823382668" lon="8.07331866747861"><ele>69.0</ele><time>2026-03-29T10:02:45Z</time></trkpt><trkpt lat="44.053568683255605" lon="8.073550293668498"><ele>70.33333333333333</ele><time>2026-03-29T10:02:46Z</time></trkpt><trkpt lat="44.053530574276046" lon="8.07378581760772"><ele>71.66666666666666</ele><time>2026-03-29T10:02:47Z</time></trkpt><trkpt lat="44.05349662914129" lon="8.074021938767087"><ele>73.0</ele><time>2026-03-29T10:02:48Z</time></trkpt><trkpt lat="44.05346871518689" lon="8.074262285573884"><ele>73.0</ele><time>2026-03-29T10:02:49Z</time></trkpt><trkpt lat="44.053451707850535" lon="8.074503023923581"><ele>73.0</ele><time>2026-03-29T10:02:50Z</time></trkpt><trkpt lat="44.05344097759549" lon="8.074747309614452"><ele>73.0</ele><time>2026-03-29T10:02:51Z</time></trkpt><trkpt lat="44.05344124999466" lon="8.074990607942256"><ele>74.66666666666666</ele><time>2026-03-29T10:02:52Z</time></trkpt><trkpt lat="44.05345706432711" lon="8.075232425249196"><ele>76.33333333333333</ele><time>2026-03-29T10:02:53Z</time></trkpt><trkpt lat="44.05346587990993" lon="8.075479420279036"><ele>78.0</ele><time>2026-03-29T10:02:54Z</time></trkpt><trkpt lat="44.05350553189156" lon="8.075725457168351"><ele>76.33333333333333</ele><time>2026-03-29T10:02:55Z</time></trkpt><trkpt lat="44.053558109431805" lon="8.075967528262204"><ele>74.66666666666666</ele><time>2026-03-29T10:02:56Z</time></trkpt><trkpt lat="44.05363474404821" lon="8.076193461928273"><ele>73.0</ele><time>2026-03-29T10:02:57Z</time></trkpt><trkpt lat="44.05370004310197" lon="8.076432549569445"><ele>72.33333333333333</ele><time>2026-03-29T10:02:58Z</time></trkpt><trkpt lat="44.05376054272312" lon="8.076667850771248"><ele>71.66666666666667</ele><time>2026-03-29T10:02:59Z</time></trkpt><trkpt lat="44.05381721862165" lon="8.076906246017993"><ele>71.0</ele><time>2026-03-29T10:03:00Z</time></trkpt><trkpt lat="44.05386743666769" lon="8.07714400811164"><ele>71.0</ele><time>2026-03-29T10:03:01Z</time></trkpt><trkpt lat="44.053910716592824" lon="8.07738249055181"><ele>71.0</ele><time>2026-03-29T10:03:02Z</time></trkpt><trkpt lat="44.05394891263051" lon="8.077620828213131"><ele>71.0</ele><time>2026-03-29T10:03:03Z</time></trkpt><trkpt lat="44.0539831843314" lon="8.077855225655004"><ele>71.0</ele><time>2026-03-29T10:03:04Z</time></trkpt><trkpt lat="44.054016519412556" lon="8.07809100433529"><ele>71.0</ele><time>2026-03-29T10:03:05Z</time></trkpt><trkpt lat="44.05404960984999" lon="8.078326871142812"><ele>71.0</ele><time>2026-03-29T10:03:06Z</time></trkpt><trkpt lat="44.05407178898189" lon="8.078564686985994"><ele>73.66666666666667</ele><time>2026-03-29T10:03:07Z</time></trkpt><trkpt lat="44.054124216859535" lon="8.078796006401713"><ele>76.33333333333333</ele><time>2026-03-29T10:03:08Z</time></trkpt><trkpt lat="44.0541505998919" lon="8.079032783201024"><ele>79.0</ele><time>2026-03-29T10:03:09Z</time></trkpt><trkpt lat="44.05416585918242" lon="8.07927451109721"><ele>79.0</ele><time>2026-03-29T10:03:10Z</time></trkpt><trkpt lat="44.05417023984698" lon="8.079502090036508"><ele>79.0</ele><time>2026-03-29T10:03:11Z</time></trkpt><trkpt lat="44.054169729235" lon="8.079734400537538"><ele>79.0</ele><time>2026-03-29T10:03:12Z</time></trkpt><trkpt lat="44.05415496745034" lon="8.079964324602216"><ele>77.33333333333333</ele><time>2026-03-29T10:03:13Z</time></trkpt><trkpt lat="44.054128715825115" lon="8.080191987226845"><ele>75.66666666666667</ele><time>2026-03-29T10:03:14Z</time></trkpt><trkpt lat="44.054077327877515" lon="8.08041216107438"><ele>74.0</ele><time>2026-03-29T10:03:15Z</time></trkpt><trkpt lat="44.05402899481804" lon="8.08063991250053"><ele>71.33333333333334</ele><time>2026-03-29T10:03:16Z</time></trkpt><trkpt lat="44.053985882142406" lon="8.080874010648225"><ele>68.66666666666667</ele><time>2026-03-29T10:03:17Z</time></trkpt><trkpt lat="44.053927353357636" lon="8.081091896101967"><ele>66.0</ele><time>2026-03-29T10:03:18Z</time></trkpt><trkpt lat="44.0538635509833" lon="8.081307448456796"><ele>66.0</ele><time>2026-03-29T10:03:19Z</time></trkpt><trkpt lat="44.05380054573708" lon="8.081508883067617"><ele>66.0</ele><time>2026-03-29T10:03:20Z</time></trkpt><trkpt lat="44.05371780961654" lon="8.081709582885217"><ele>66.0</ele><time>2026-03-29T10:03:21Z</time></trkpt><trkpt lat="44.053644724861975" lon="8.08191607679444"><ele>66.0</ele><time>2026-03-29T10:03:22Z</time></trkpt><trkpt lat="44.053561305722056" lon="8.082120355571044"><ele>66.0</ele><time>2026-03-29T10:03:23Z</time></trkpt><trkpt lat="44.05347218014554" lon="8.082323558737942"><ele>66.0</ele><time>2026-03-29T10:03:24Z</time></trkpt><trkpt lat="44.05337832698736" lon="8.082523410942601"><ele>67.33333333333333</ele><time>2026-03-29T10:03:25Z</time></trkpt><trkpt lat="44.053288334366265" lon="8.082727641059845"><ele>68.66666666666666</ele><time>2026-03-29T10:03:26Z</time></trkpt><trkpt lat="44.05320899052152" lon="8.08293032768417"><ele>70.0</ele><time>2026-03-29T10:03:27Z</time></trkpt><trkpt lat="44.053143165079824" lon="8.083141484980112"><ele>69.33333333333333</ele><time>2026-03-29T10:03:28Z</time></trkpt><trkpt lat="44.05309757623626" lon="8.08336743856701"><ele>68.66666666666667</ele><time>2026-03-29T10:03:29Z</time></trkpt><trkpt lat="44.05308005051248" lon="8.083603019169134"><ele>68.0</ele><time>2026-03-29T10:03:30Z</time></trkpt><trkpt lat="44.05308922201915" lon="8.083835190987656"><ele>68.0</ele><time>2026-03-29T10:03:31Z</time></trkpt><trkpt lat="44.053126262070194" lon="8.084059765956303"><ele>68.0</ele><time>2026-03-29T10:03:32Z</time></trkpt><trkpt lat="44.05315200415831" lon="8.084300192639464"><ele>68.0</ele><time>2026-03-29T10:03:33Z</time></trkpt><trkpt lat="44.05316941619641" lon="8.084537472494814"><ele>66.66666666666667</ele><time>2026-03-29T10:03:34Z</time></trkpt><trkpt lat="44.053169997856756" lon="8.0847730338051"><ele>65.33333333333333</ele><time>2026-03-29T10:03:35Z</time></trkpt><trkpt lat="44.053153996905564" lon="8.08500886379672"><ele>64.0</ele><time>2026-03-29T10:03:36Z</time></trkpt><trkpt lat="44.05311968781543" lon="8.085232366488212"><ele>64.0</ele><time>2026-03-29T10:03:37Z</time></trkpt><trkpt lat="44.05307469066267" lon="8.085452974844396"><ele>64.0</ele><time>2026-03-29T10:03:38Z</time></trkpt><trkpt lat="44.05303948961495" lon="8.085673968332765"><ele>64.0</ele><time>2026-03-29T10:03:39Z</time></trkpt><trkpt lat="44.05302642745589" lon="8.08589478965607"><ele>64.0</ele><time>2026-03-29T10:03:40Z</time></trkpt><trkpt lat="44.05303504249926" lon="8.086121516133671"><ele>64.0</ele><time>2026-03-29T10:03:41Z</time></trkpt><trkpt lat="44.05306467806578" lon="8.086347858054552"><ele>64.0</ele><time>2026-03-29T10:03:42Z</time></trkpt><trkpt lat="44.05310930749019" lon="8.086569688370469"><ele>63.75</ele><time>2026-03-29T10:03:43Z</time></trkpt><trkpt lat="44.05315423058772" lon="8.086768716726578"><ele>63.5</ele><time>2026-03-29T10:03:44Z</time></trkpt><trkpt lat="44.05319179180113" lon="8.086943326061327"><ele>63.25</ele><time>2026-03-29T10:03:45Z</time></trkpt><trkpt lat="44.0532292055312" lon="8.087108418765173"><ele>63.0</ele><time>2026-03-29T10:03:46Z</time></trkpt><trkpt lat="44.05326974726482" lon="8.087278900527"><ele>63.75</ele><time>2026-03-29T10:03:47Z</time></trkpt><trkpt lat="44.05331189943047" lon="8.08745566762604"><ele>64.5</ele><time>2026-03-29T10:03:48Z</time></trkpt><trkpt lat="44.05335287268925" lon="8.087620098019576"><ele>65.25</ele><time>2026-03-29T10:03:49Z</time></trkpt><trkpt lat="44.05339252058996" lon="8.087787021586267"><ele>66.0</ele><time>2026-03-29T10:03:50Z</time></trkpt><trkpt lat="44.053431685840366" lon="8.087957801777225"><ele>66.0</ele><time>2026-03-29T10:03:51Z</time></trkpt><trkpt lat="44.05346854347223" lon="8.088121898794112"><ele>66.0</ele><time>2026-03-29T10:03:52Z</time></trkpt><trkpt lat="44.05350683734423" lon="8.088293492417861"><ele>66.0</ele><time>2026-03-29T10:03:53Z</time></trkpt><trkpt lat="44.05354723945116" lon="8.088464761861863"><ele>66.0</ele><time>2026-03-29T10:03:54Z</time></trkpt><trkpt lat="44.053587519941395" lon="8.088634202878302"><ele>65.75</ele><time>2026-03-29T10:03:55Z</time></trkpt><trkpt lat="44.053625314453214" lon="8.088805963570724"><ele>65.5</ele><time>2026-03-29T10:03:56Z</time></trkpt><trkpt lat="44.05366319624597" lon="8.08898034345569"><ele>65.25</ele><time>2026-03-29T10:03:57Z</time></trkpt><trkpt lat="44.05370313409737" lon="8.08915013687408"><ele>65.0</ele><time>2026-03-29T10:03:58Z</time></trkpt><trkpt lat="44.05374564327804" lon="8.089319711229274"><ele>64.0</ele><time>2026-03-29T10:03:59Z</time></trkpt><trkpt lat="44.053787700138045" lon="8.089487505106272"><ele>63.0</ele><time>2026-03-29T10:04:00Z</time></trkpt><trkpt lat="44.053824095161694" lon="8.089657277146584"><ele>62.0</ele><time>2026-03-29T10:04:01Z</time></trkpt><trkpt lat="44.05385473255285" lon="8.089815016639422"><ele>61.0</ele><time>2026-03-29T10:04:02Z</time></trkpt><trkpt lat="44.05388110506965" lon="8.089981370559903"><ele>60.5</ele><time>2026-03-29T10:04:03Z</time></trkpt><trkpt lat="44.0539012327868" lon="8.090158125798341"><ele>60.0</ele><time>2026-03-29T10:04:04Z</time></trkpt><trkpt lat="44.053911838486194" lon="8.090329529373099"><ele>59.5</ele><time>2026-03-29T10:04:05Z</time></trkpt><trkpt lat="44.05391366816087" lon="8.09050781037184"><ele>59.0</ele><time>2026-03-29T10:04:06Z</time></trkpt><trkpt lat="44.05391067130183" lon="8.090679957098905"><ele>59.0</ele><time>2026-03-29T10:04:07Z</time></trkpt><trkpt lat="44.053905511763716" lon="8.09084942258506"><ele>59.0</ele><time>2026-03-29T10:04:08Z</time></trkpt><trkpt lat="44.05389809971558" lon="8.091016299419817"><ele>59.0</ele><time>2026-03-29T10:04:09Z</time></trkpt><trkpt lat="44.05388786757513" lon="8.091180994418114"><ele>59.0</ele><time>2026-03-29T10:04:10Z</time></trkpt><trkpt lat="44.05387566284084" lon="8.091348262660164"><ele>59.0</ele><time>2026-03-29T10:04:11Z</time></trkpt><trkpt lat="44.053863227626145" lon="8.09151676185531"><ele>59.0</ele><time>2026-03-29T10:04:12Z</time></trkpt><trkpt lat="44.05385041977887" lon="8.09168569122211"><ele>59.0</ele><time>2026-03-29T10:04:13Z</time></trkpt><trkpt lat="44.05383695821063" lon="8.091862264945998"><ele>59.0</ele><time>2026-03-29T10:04:14Z</time></trkpt><trkpt lat="44.05382577473602" lon="8.092033670271777"><ele>58.75</ele><time>2026-03-29T10:04:15Z</time></trkpt><trkpt lat="44.05381288978715" lon="8.09220682570789"><ele>58.5</ele><time>2026-03-29T10:04:16Z</time></trkpt><trkpt lat="44.05380026342028" lon="8.092378562056666"><ele>58.25</ele><time>2026-03-29T10:04:17Z</time></trkpt><trkpt lat="44.0537874788378" lon="8.092553968867923"><ele>58.0</ele><time>2026-03-29T10:04:18Z</time></trkpt><trkpt lat="44.05377636601876" lon="8.092730904384972"><ele>58.0</ele><time>2026-03-29T10:04:19Z</time></trkpt><trkpt lat="44.053763530427865" lon="8.092909713259772"><ele>58.0</ele><time>2026-03-29T10:04:20Z</time></trkpt><trkpt lat="44.05375159117024" lon="8.093085924621837"><ele>58.0</ele><time>2026-03-29T10:04:21Z</time></trkpt><trkpt lat="44.053740884320575" lon="8.093263743802549"><ele>58.0</ele><time>2026-03-29T10:04:22Z</time></trkpt><trkpt lat="44.05372897906329" lon="8.093440746616778"><ele>58.25</ele><time>2026-03-29T10:04:23Z</time></trkpt><trkpt lat="44.05371876824805" lon="8.093620867493682"><ele>58.5</ele><time>2026-03-29T10:04:24Z</time></trkpt><trkpt lat="44.05370648976807" lon="8.093801430313578"><ele>58.75</ele><time>2026-03-29T10:04:25Z</time></trkpt><trkpt lat="44.05369271999617" lon="8.093981184085536"><ele>59.0</ele><time>2026-03-29T10:04:26Z</time></trkpt><trkpt lat="44.05368462435563" lon="8.094155990326964"><ele>60.0</ele><time>2026-03-29T10:04:27Z</time></trkpt><trkpt lat="44.05367626315107" lon="8.094330892467953"><ele>61.0</ele><time>2026-03-29T10:04:28Z</time></trkpt><trkpt lat="44.05366718644602" lon="8.094502494517695"><ele>62.0</ele><time>2026-03-29T10:04:29Z</time></trkpt><trkpt lat="44.05366345904514" lon="8.094675513309424"><ele>63.0</ele><time>2026-03-29T10:04:30Z</time></trkpt><trkpt lat="44.05365858991462" lon="8.094848333128835"><ele>63.25</ele><time>2026-03-29T10:04:31Z</time></trkpt><trkpt lat="44.053656953170965" lon="8.095019182903426"><ele>63.5</ele><time>2026-03-29T10:04:32Z</time></trkpt><trkpt lat="44.053660152582346" lon="8.095191578056632"><ele>63.75</ele><time>2026-03-29T10:04:33Z</time></trkpt><trkpt lat="44.05365268333531" lon="8.09536917092854"><ele>64.0</ele><time>2026-03-29T10:04:34Z</time></trkpt><trkpt lat="44.053664439634346" lon="8.095545345477595"><ele>64.0</ele><time>2026-03-29T10:04:35Z</time></trkpt><trkpt lat="44.05367646029997" lon="8.095718520628347"><ele>64.0</ele><time>2026-03-29T10:04:36Z</time></trkpt><trkpt lat="44.05368952346856" lon="8.095886623545208"><ele>64.0</ele><time>2026-03-29T10:04:37Z</time></trkpt><trkpt lat="44.05369851349861" lon="8.096052761552427"><ele>64.0</ele><time>2026-03-29T10:04:38Z</time></trkpt><trkpt lat="44.053708459696956" lon="8.096219052048156"><ele>64.0</ele><time>2026-03-29T10:04:39Z</time></trkpt><trkpt lat="44.05371707872516" lon="8.096380268549016"><ele>64.0</ele><time>2026-03-29T10:04:40Z</time></trkpt><trkpt lat="44.0537569778668" lon="8.096540082259628"><ele>64.0</ele><time>2026-03-29T10:04:41Z</time></trkpt><trkpt lat="44.05377117739838" lon="8.096718377064105"><ele>64.0</ele><time>2026-03-29T10:04:42Z</time></trkpt><trkpt lat="44.05378707830403" lon="8.096886431813687"><ele>64.0</ele><time>2026-03-29T10:04:43Z</time></trkpt><trkpt lat="44.05380284874263" lon="8.09705716861671"><ele>64.0</ele><time>2026-03-29T10:04:44Z</time></trkpt><trkpt lat="44.053820876734974" lon="8.097226155915356"><ele>64.0</ele><time>2026-03-29T10:04:45Z</time></trkpt><trkpt lat="44.0538191238728" lon="8.09740689606149"><ele>64.0</ele><time>2026-03-29T10:04:46Z</time></trkpt><trkpt lat="44.05384887812892" lon="8.097581787202373"><ele>64.0</ele><time>2026-03-29T10:04:47Z</time></trkpt><trkpt lat="44.05386040859125" lon="8.097759530871667"><ele>64.0</ele><time>2026-03-29T10:04:48Z</time></trkpt><trkpt lat="44.05387604611743" lon="8.097937795810873"><ele>64.0</ele><time>2026-03-29T10:04:49Z</time></trkpt><trkpt lat="44.05389089549396" lon="8.09812235067118"><ele>64.0</ele><time>2026-03-29T10:04:50Z</time></trkpt><trkpt lat="44.053904915429975" lon="8.098312232616669"><ele>63.25</ele><time>2026-03-29T10:04:51Z</time></trkpt><trkpt lat="44.05392028827937" lon="8.098501367274341"><ele>62.5</ele><time>2026-03-29T10:04:52Z</time></trkpt><trkpt lat="44.05393965647354" lon="8.098690876633048"><ele>61.75</ele><time>2026-03-29T10:04:53Z</time></trkpt><trkpt lat="44.053954676249056" lon="8.098878898176078"><ele>61.0</ele><time>2026-03-29T10:04:54Z</time></trkpt><trkpt lat="44.05396298100945" lon="8.099067203987655"><ele>61.0</ele><time>2026-03-29T10:04:55Z</time></trkpt><trkpt lat="44.05397316452505" lon="8.099258000006879"><ele>61.0</ele><time>2026-03-29T10:04:56Z</time></trkpt><trkpt lat="44.05399697405938" lon="8.099445348310137"><ele>61.0</ele><time>2026-03-29T10:04:57Z</time></trkpt><trkpt lat="44.05401083193364" lon="8.099635294423669"><ele>61.0</ele><time>2026-03-29T10:04:58Z</time></trkpt><trkpt lat="44.0540268898305" lon="8.099829254507561"><ele>60.75</ele><time>2026-03-29T10:04:59Z</time></trkpt><trkpt lat="44.05404363703836" lon="8.100025251342124"><ele>60.5</ele><time>2026-03-29T10:05:00Z</time></trkpt><trkpt lat="44.05405983963626" lon="8.100221508795709"><ele>60.25</ele><time>2026-03-29T10:05:01Z</time></trkpt><trkpt lat="44.0540756578265" lon="8.10042135101038"><ele>60.0</ele><time>2026-03-29T10:05:02Z</time></trkpt><trkpt lat="44.054090778854714" lon="8.100624615922781"><ele>59.75</ele><time>2026-03-29T10:05:03Z</time></trkpt><trkpt lat="44.054104423495524" lon="8.100825276699233"><ele>59.5</ele><time>2026-03-29T10:05:04Z</time></trkpt><trkpt lat="44.054122115384665" lon="8.101025434815117"><ele>59.25</ele><time>2026-03-29T10:05:05Z</time></trkpt><trkpt lat="44.054138513470164" lon="8.101225957792536"><ele>59.0</ele><time>2026-03-29T10:05:06Z</time></trkpt><trkpt lat="44.05415758540258" lon="8.10143258955168"><ele>58.66666666666667</ele><time>2026-03-29T10:05:07Z</time></trkpt><trkpt lat="44.05417882760674" lon="8.101637801483998"><ele>58.33333333333333</ele><time>2026-03-29T10:05:08Z</time></trkpt><trkpt lat="44.054195987965855" lon="8.101846778742505"><ele>58.0</ele><time>2026-03-29T10:05:09Z</time></trkpt><trkpt lat="44.054212713616735" lon="8.102058183673206"><ele>58.0</ele><time>2026-03-29T10:05:10Z</time></trkpt><trkpt lat="44.05422870189827" lon="8.102269295875686"><ele>58.0</ele><time>2026-03-29T10:05:11Z</time></trkpt><trkpt lat="44.054246507583336" lon="8.102482660818534"><ele>58.0</ele><time>2026-03-29T10:05:12Z</time></trkpt><trkpt lat="44.0542635652058" lon="8.102693116230727"><ele>58.0</ele><time>2026-03-29T10:05:13Z</time></trkpt><trkpt lat="44.05428086834953" lon="8.102901909169143"><ele>58.0</ele><time>2026-03-29T10:05:14Z</time></trkpt><trkpt lat="44.05429836140981" lon="8.10311164422068"><ele>58.0</ele><time>2026-03-29T10:05:15Z</time></trkpt><trkpt lat="44.054315352114656" lon="8.10332468243759"><ele>57.0</ele><time>2026-03-29T10:05:16Z</time></trkpt><trkpt lat="44.0543325172046" lon="8.103544139717371"><ele>56.0</ele><time>2026-03-29T10:05:17Z</time></trkpt><trkpt lat="44.05434913161816" lon="8.1037710652497"><ele>55.0</ele><time>2026-03-29T10:05:18Z</time></trkpt><trkpt lat="44.05436676644149" lon="8.104003779255226"><ele>54.33333333333333</ele><time>2026-03-29T10:05:19Z</time></trkpt><trkpt lat="44.05438551143387" lon="8.104240378617641"><ele>53.66666666666667</ele><time>2026-03-29T10:05:20Z</time></trkpt><trkpt lat="44.05440412830577" lon="8.104477299463865"><ele>53.0</ele><time>2026-03-29T10:05:21Z</time></trkpt><trkpt lat="44.054424172543314" lon="8.104719799012086"><ele>52.66666666666667</ele><time>2026-03-29T10:05:22Z</time></trkpt><trkpt lat="44.054444051973626" lon="8.104966076318219"><ele>52.33333333333333</ele><time>2026-03-29T10:05:23Z</time></trkpt><trkpt lat="44.05446468116991" lon="8.105216857145141"><ele>52.0</ele><time>2026-03-29T10:05:24Z</time></trkpt><trkpt lat="44.05448400850821" lon="8.105469503405512"><ele>52.0</ele><time>2026-03-29T10:05:25Z</time></trkpt><trkpt lat="44.05449965788079" lon="8.105721977486233"><ele>52.0</ele><time>2026-03-29T10:05:26Z</time></trkpt><trkpt lat="44.054506276356285" lon="8.105977290079924"><ele>52.0</ele><time>2026-03-29T10:05:27Z</time></trkpt><trkpt lat="44.05449982950579" lon="8.106235414386342"><ele>51.0</ele><time>2026-03-29T10:05:28Z</time></trkpt><trkpt lat="44.05448686752785" lon="8.106496927464399"><ele>50.0</ele><time>2026-03-29T10:05:29Z</time></trkpt><trkpt lat="44.054467821172494" lon="8.1067575041386"><ele>49.0</ele><time>2026-03-29T10:05:30Z</time></trkpt><trkpt lat="44.05444374945748" lon="8.107015511960485"><ele>48.666666666666664</ele><time>2026-03-29T10:05:31Z</time></trkpt><trkpt lat="44.05441679015046" lon="8.10727013901665"><ele>48.33333333333333</ele><time>2026-03-29T10:05:32Z</time></trkpt><trkpt lat="44.05438738999318" lon="8.107523648179747"><ele>48.0</ele><time>2026-03-29T10:05:33Z</time></trkpt><trkpt lat="44.05435704350304" lon="8.107775751955382"><ele>48.0</ele><time>2026-03-29T10:05:34Z</time></trkpt><trkpt lat="44.05432568603159" lon="8.10802495269862"><ele>48.0</ele><time>2026-03-29T10:05:35Z</time></trkpt><trkpt lat="44.05429481961515" lon="8.108271558827575"><ele>48.0</ele><time>2026-03-29T10:05:36Z</time></trkpt><trkpt lat="44.05426475865461" lon="8.108513578288742"><ele>48.33333333333333</ele><time>2026-03-29T10:05:37Z</time></trkpt><trkpt lat="44.05423405716347" lon="8.108755659248784"><ele>48.666666666666664</ele><time>2026-03-29T10:05:38Z</time></trkpt><trkpt lat="44.054202721738434" lon="8.10899913489945"><ele>49.0</ele><time>2026-03-29T10:05:39Z</time></trkpt><trkpt lat="44.05417426050431" lon="8.109245057970092"><ele>49.0</ele><time>2026-03-29T10:05:40Z</time></trkpt><trkpt lat="44.05414483977128" lon="8.10949005558432"><ele>49.0</ele><time>2026-03-29T10:05:41Z</time></trkpt><trkpt lat="44.05411421999423" lon="8.109731982143623"><ele>49.0</ele><time>2026-03-29T10:05:42Z</time></trkpt><trkpt lat="44.054083202091256" lon="8.109974602900218"><ele>48.0</ele><time>2026-03-29T10:05:43Z</time></trkpt><trkpt lat="44.05405320714253" lon="8.110217988919509"><ele>47.0</ele><time>2026-03-29T10:05:44Z</time></trkpt><trkpt lat="44.054022548510034" lon="8.110464924850225"><ele>46.0</ele><time>2026-03-29T10:05:45Z</time></trkpt><trkpt lat="44.053991761797406" lon="8.110709454211174"><ele>45.333333333333336</ele><time>2026-03-29T10:05:46Z</time></trkpt><trkpt lat="44.05396240598986" lon="8.11095428656731"><ele>44.666666666666664</ele><time>2026-03-29T10:05:47Z</time></trkpt><trkpt lat="44.053936681562604" lon="8.111194677500652"><ele>44.0</ele><time>2026-03-29T10:05:48Z</time></trkpt><trkpt lat="44.05392003102829" lon="8.111436274894327"><ele>44.0</ele><time>2026-03-29T10:05:49Z</time></trkpt><trkpt lat="44.05391214480899" lon="8.11167780269451"><ele>44.0</ele><time>2026-03-29T10:05:50Z</time></trkpt><trkpt lat="44.05391282827509" lon="8.111918231292195"><ele>44.0</ele><time>2026-03-29T10:05:51Z</time></trkpt><trkpt lat="44.053921794969774" lon="8.11216670377543"><ele>45.0</ele><time>2026-03-29T10:05:52Z</time></trkpt><trkpt lat="44.053939993107505" lon="8.112413628710671"><ele>46.0</ele><time>2026-03-29T10:05:53Z</time></trkpt><trkpt lat="44.05396324381865" lon="8.112660427816413"><ele>47.0</ele><time>2026-03-29T10:05:54Z</time></trkpt><trkpt lat="44.053994321461275" lon="8.112903872875942"><ele>47.0</ele><time>2026-03-29T10:05:55Z</time></trkpt><trkpt lat="44.054034046151244" lon="8.113142365346855"><ele>47.0</ele><time>2026-03-29T10:05:56Z</time></trkpt><trkpt lat="44.05408188450953" lon="8.113380580784517"><ele>47.0</ele><time>2026-03-29T10:05:57Z</time></trkpt><trkpt lat="44.054134285338264" lon="8.113618258351856"><ele>47.0</ele><time>2026-03-29T10:05:58Z</time></trkpt><trkpt lat="44.05418772089492" lon="8.113852863286077"><ele>47.0</ele><time>2026-03-29T10:05:59Z</time></trkpt><trkpt lat="44.054237939489525" lon="8.114087727235177"><ele>47.0</ele><time>2026-03-29T10:06:00Z</time></trkpt><trkpt lat="44.05428718707063" lon="8.114320859829308"><ele>46.666666666666664</ele><time>2026-03-29T10:06:01Z</time></trkpt><trkpt lat="44.054336635701716" lon="8.114553194795954"><ele>46.333333333333336</ele><time>2026-03-29T10:06:02Z</time></trkpt><trkpt lat="44.05438618836424" lon="8.114781618017663"><ele>46.0</ele><time>2026-03-29T10:06:03Z</time></trkpt><trkpt lat="44.054434724973916" lon="8.115010444516008"><ele>46.0</ele><time>2026-03-29T10:06:04Z</time></trkpt><trkpt lat="44.05448661296782" lon="8.1152362908249"><ele>46.0</ele><time>2026-03-29T10:06:05Z</time></trkpt><trkpt lat="44.05454447916157" lon="8.115457530350005"><ele>46.0</ele><time>2026-03-29T10:06:06Z</time></trkpt><trkpt lat="44.05461279792227" lon="8.115674908881383"><ele>45.66666666666667</ele><time>2026-03-29T10:06:07Z</time></trkpt><trkpt lat="44.05469014132102" lon="8.115888192712948"><ele>45.333333333333336</ele><time>2026-03-29T10:06:08Z</time></trkpt><trkpt lat="44.05477387167681" lon="8.11610023345303"><ele>45.0</ele><time>2026-03-29T10:06:09Z</time></trkpt><trkpt lat="44.054861185573195" lon="8.116307129764477"><ele>45.0</ele><time>2026-03-29T10:06:10Z</time></trkpt><trkpt lat="44.0549486063346" lon="8.116515543907985"><ele>45.0</ele><time>2026-03-29T10:06:11Z</time></trkpt><trkpt lat="44.05503682364817" lon="8.116724991538614"><ele>45.0</ele><time>2026-03-29T10:06:12Z</time></trkpt><trkpt lat="44.05512941659963" lon="8.116926317986039"><ele>44.666666666666664</ele><time>2026-03-29T10:06:13Z</time></trkpt><trkpt lat="44.055235667481995" lon="8.11711333650103"><ele>44.33333333333333</ele><time>2026-03-29T10:06:14Z</time></trkpt><trkpt lat="44.05535220729785" lon="8.117287657390595"><ele>44.0</ele><time>2026-03-29T10:06:15Z</time></trkpt><trkpt lat="44.05547016219114" lon="8.117459350335812"><ele>43.33333333333333</ele><time>2026-03-29T10:06:16Z</time></trkpt><trkpt lat="44.055589173115145" lon="8.117634796004848"><ele>42.666666666666664</ele><time>2026-03-29T10:06:17Z</time></trkpt><trkpt lat="44.055707747549896" lon="8.117815769632646"><ele>42.0</ele><time>2026-03-29T10:06:18Z</time></trkpt><trkpt lat="44.05582285416907" lon="8.11800299842097"><ele>42.0</ele><time>2026-03-29T10:06:19Z</time></trkpt><trkpt lat="44.05591912388104" lon="8.118191505435636"><ele>42.0</ele><time>2026-03-29T10:06:20Z</time></trkpt><trkpt lat="44.05598565558814" lon="8.118401453774789"><ele>42.0</ele><time>2026-03-29T10:06:21Z</time></trkpt><trkpt lat="44.056025983025535" lon="8.118638128961893"><ele>42.666666666666664</ele><time>2026-03-29T10:06:22Z</time></trkpt><trkpt lat="44.05603239256555" lon="8.118886138974494"><ele>43.33333333333333</ele><time>2026-03-29T10:06:23Z</time></trkpt><trkpt lat="44.05601781345722" lon="8.119137501712238"><ele>44.0</ele><time>2026-03-29T10:06:24Z</time></trkpt><trkpt lat="44.05597543622022" lon="8.11938730125981"><ele>45.666666666666664</ele><time>2026-03-29T10:06:25Z</time></trkpt><trkpt lat="44.055908467146196" lon="8.119626579812191"><ele>47.33333333333333</ele><time>2026-03-29T10:06:26Z</time></trkpt><trkpt lat="44.055846873242835" lon="8.119856004723973"><ele>49.0</ele><time>2026-03-29T10:06:27Z</time></trkpt><trkpt lat="44.05579929536415" lon="8.120089235472602"><ele>45.33333333333333</ele><time>2026-03-29T10:06:28Z</time></trkpt><trkpt lat="44.05575710935939" lon="8.120322480991641"><ele>41.666666666666664</ele><time>2026-03-29T10:06:29Z</time></trkpt><trkpt lat="44.05571046982542" lon="8.120554695681077"><ele>38.0</ele><time>2026-03-29T10:06:30Z</time></trkpt><trkpt lat="44.05565769997336" lon="8.120786416350727"><ele>38.0</ele><time>2026-03-29T10:06:31Z</time></trkpt><trkpt lat="44.05560167325776" lon="8.12101704501983"><ele>38.0</ele><time>2026-03-29T10:06:32Z</time></trkpt><trkpt lat="44.05554306101309" lon="8.121244216867735"><ele>38.0</ele><time>2026-03-29T10:06:33Z</time></trkpt><trkpt lat="44.05548598615828" lon="8.121468325940702"><ele>38.666666666666664</ele><time>2026-03-29T10:06:34Z</time></trkpt><trkpt lat="44.0554297063981" lon="8.121693292131287"><ele>39.333333333333336</ele><time>2026-03-29T10:06:35Z</time></trkpt><trkpt lat="44.05537859856118" lon="8.12191779592745"><ele>40.0</ele><time>2026-03-29T10:06:36Z</time></trkpt><trkpt lat="44.055337222709134" lon="8.122145495638073"><ele>40.0</ele><time>2026-03-29T10:06:37Z</time></trkpt><trkpt lat="44.05531321060925" lon="8.122382036936852"><ele>40.0</ele><time>2026-03-29T10:06:38Z</time></trkpt><trkpt lat="44.055298497177425" lon="8.122616451041837"><ele>40.0</ele><time>2026-03-29T10:06:39Z</time></trkpt><trkpt lat="44.055289026604044" lon="8.122851923212366"><ele>40.0</ele><time>2026-03-29T10:06:40Z</time></trkpt><trkpt lat="44.0552860343614" lon="8.123090176424045"><ele>40.0</ele><time>2026-03-29T10:06:41Z</time></trkpt><trkpt lat="44.055279681577474" lon="8.123327090955607"><ele>40.0</ele><time>2026-03-29T10:06:42Z</time></trkpt><trkpt lat="44.05527239274706" lon="8.123562218753444"><ele>41.0</ele><time>2026-03-29T10:06:43Z</time></trkpt><trkpt lat="44.05526314045885" lon="8.123795142210163"><ele>42.0</ele><time>2026-03-29T10:06:44Z</time></trkpt><trkpt lat="44.05525074341252" lon="8.124026966166356"><ele>43.0</ele><time>2026-03-29T10:06:45Z</time></trkpt><trkpt lat="44.055228873475144" lon="8.124256908273123"><ele>43.66666666666667</ele><time>2026-03-29T10:06:46Z</time></trkpt><trkpt lat="44.055173799558176" lon="8.124477462415776"><ele>44.333333333333336</ele><time>2026-03-29T10:06:47Z</time></trkpt><trkpt lat="44.055160108410604" lon="8.124715984583663"><ele>45.0</ele><time>2026-03-29T10:06:48Z</time></trkpt><trkpt lat="44.05513456378532" lon="8.12495592959137"><ele>45.0</ele><time>2026-03-29T10:06:49Z</time></trkpt><trkpt lat="44.05510431461298" lon="8.125199256845578"><ele>45.0</ele><time>2026-03-29T10:06:50Z</time></trkpt><trkpt lat="44.055049067224" lon="8.125437280070688"><ele>45.0</ele><time>2026-03-29T10:06:51Z</time></trkpt><trkpt lat="44.0550128740892" lon="8.125673525302572"><ele>46.0</ele><time>2026-03-29T10:06:52Z</time></trkpt><trkpt lat="44.05499066087636" lon="8.125895896856893"><ele>47.0</ele><time>2026-03-29T10:06:53Z</time></trkpt><trkpt lat="44.05495304422522" lon="8.126122435711931"><ele>48.0</ele><time>2026-03-29T10:06:54Z</time></trkpt><trkpt lat="44.05491720838939" lon="8.12634836634803"><ele>44.0</ele><time>2026-03-29T10:06:55Z</time></trkpt><trkpt lat="44.05488386197729" lon="8.126575957775941"><ele>40.0</ele><time>2026-03-29T10:06:56Z</time></trkpt><trkpt lat="44.05485056215222" lon="8.126802642235194"><ele>36.0</ele><time>2026-03-29T10:06:57Z</time></trkpt><trkpt lat="44.05482224844801" lon="8.127028441681398"><ele>36.0</ele><time>2026-03-29T10:06:58Z</time></trkpt><trkpt lat="44.05479731859332" lon="8.127250783257216"><ele>36.0</ele><time>2026-03-29T10:06:59Z</time></trkpt><trkpt lat="44.05477566270235" lon="8.127475356614966"><ele>36.0</ele><time>2026-03-29T10:07:00Z</time></trkpt><trkpt lat="44.05475182009608" lon="8.127705162665492"><ele>35.666666666666664</ele><time>2026-03-29T10:07:01Z</time></trkpt><trkpt lat="44.05472619770115" lon="8.127933039392124"><ele>35.33333333333333</ele><time>2026-03-29T10:07:02Z</time></trkpt><trkpt lat="44.054697119711925" lon="8.128156771756588"><ele>35.0</ele><time>2026-03-29T10:07:03Z</time></trkpt><trkpt lat="44.054657772213936" lon="8.12837726043068"><ele>35.0</ele><time>2026-03-29T10:07:04Z</time></trkpt><trkpt lat="44.054613813716685" lon="8.12859868743683"><ele>35.0</ele><time>2026-03-29T10:07:05Z</time></trkpt><trkpt lat="44.05456765845264" lon="8.128826106536048"><ele>35.0</ele><time>2026-03-29T10:07:06Z</time></trkpt><trkpt lat="44.05452363078367" lon="8.129058613597186"><ele>36.0</ele><time>2026-03-29T10:07:07Z</time></trkpt><trkpt lat="44.054485824724" lon="8.129295888680636"><ele>37.0</ele><time>2026-03-29T10:07:08Z</time></trkpt><trkpt lat="44.05445917255808" lon="8.129535874779705"><ele>38.0</ele><time>2026-03-29T10:07:09Z</time></trkpt><trkpt lat="44.05443519594128" lon="8.12977522731229"><ele>39.0</ele><time>2026-03-29T10:07:10Z</time></trkpt><trkpt lat="44.0543998190383" lon="8.130015076115061"><ele>40.0</ele><time>2026-03-29T10:07:11Z</time></trkpt><trkpt lat="44.05434128319601" lon="8.130247219569878"><ele>41.0</ele><time>2026-03-29T10:07:12Z</time></trkpt><trkpt lat="44.054327814077965" lon="8.13049428119839"><ele>43.0</ele><time>2026-03-29T10:07:13Z</time></trkpt><trkpt lat="44.0542981566138" lon="8.130729443927278"><ele>45.0</ele><time>2026-03-29T10:07:14Z</time></trkpt><trkpt lat="44.05425126781419" lon="8.130963041283287"><ele>47.0</ele><time>2026-03-29T10:07:15Z</time></trkpt><trkpt lat="44.054186533540516" lon="8.131192995419994"><ele>42.0</ele><time>2026-03-29T10:07:16Z</time></trkpt><trkpt lat="44.05411263930014" lon="8.131417702101645"><ele>37.0</ele><time>2026-03-29T10:07:17Z</time></trkpt><trkpt lat="44.05402064109153" lon="8.131634534842552"><ele>32.0</ele><time>2026-03-29T10:07:18Z</time></trkpt><trkpt lat="44.053931895758055" lon="8.131852249341566"><ele>32.0</ele><time>2026-03-29T10:07:19Z</time></trkpt><trkpt lat="44.05385054243686" lon="8.132072944624595"><ele>32.0</ele><time>2026-03-29T10:07:20Z</time></trkpt><trkpt lat="44.053784703983354" lon="8.13229636042498"><ele>32.0</ele><time>2026-03-29T10:07:21Z</time></trkpt><trkpt lat="44.053731210166085" lon="8.132526200066508"><ele>33.0</ele><time>2026-03-29T10:07:22Z</time></trkpt><trkpt lat="44.05368291941216" lon="8.13276005084273"><ele>34.0</ele><time>2026-03-29T10:07:23Z</time></trkpt><trkpt lat="44.05363877658643" lon="8.132998053897309"><ele>35.0</ele><time>2026-03-29T10:07:24Z</time></trkpt><trkpt lat="44.05360424163899" lon="8.133230264927338"><ele>36.0</ele><time>2026-03-29T10:07:25Z</time></trkpt><trkpt lat="44.05358007545488" lon="8.133477431734105"><ele>37.0</ele><time>2026-03-29T10:07:26Z</time></trkpt><trkpt lat="44.05356030196522" lon="8.133725623528774"><ele>38.0</ele><time>2026-03-29T10:07:27Z</time></trkpt><trkpt lat="44.05353561915635" lon="8.133968966599532"><ele>38.0</ele><time>2026-03-29T10:07:28Z</time></trkpt><trkpt lat="44.05351256044158" lon="8.134212042877133"><ele>38.0</ele><time>2026-03-29T10:07:29Z</time></trkpt><trkpt lat="44.053492659044934" lon="8.134453984831161"><ele>38.0</ele><time>2026-03-29T10:07:30Z</time></trkpt><trkpt lat="44.05347893395572" lon="8.134693478450288"><ele>39.33333333333333</ele><time>2026-03-29T10:07:31Z</time></trkpt><trkpt lat="44.053466794924354" lon="8.134935387030508"><ele>40.666666666666664</ele><time>2026-03-29T10:07:32Z</time></trkpt><trkpt lat="44.05345824086465" lon="8.135177520895564"><ele>42.0</ele><time>2026-03-29T10:07:33Z</time></trkpt><trkpt lat="44.053447069226706" lon="8.135417896465784"><ele>42.0</ele><time>2026-03-29T10:07:34Z</time></trkpt><trkpt lat="44.053436774320026" lon="8.135658260971294"><ele>42.0</ele><time>2026-03-29T10:07:35Z</time></trkpt><trkpt lat="44.053428479358246" lon="8.135895532061692"><ele>42.0</ele><time>2026-03-29T10:07:36Z</time></trkpt><trkpt lat="44.053420092688505" lon="8.136132972072929"><ele>41.666666666666664</ele><time>2026-03-29T10:07:37Z</time></trkpt><trkpt lat="44.05341015641626" lon="8.136368287835007"><ele>41.33333333333333</ele><time>2026-03-29T10:07:38Z</time></trkpt><trkpt lat="44.0533975505702" lon="8.136604623120638"><ele>41.0</ele><time>2026-03-29T10:07:39Z</time></trkpt><trkpt lat="44.05337911774061" lon="8.136840940746476"><ele>41.666666666666664</ele><time>2026-03-29T10:07:40Z</time></trkpt><trkpt lat="44.053342458485645" lon="8.137074845785277"><ele>42.333333333333336</ele><time>2026-03-29T10:07:41Z</time></trkpt><trkpt lat="44.05328568146783" lon="8.13730761913173"><ele>43.0</ele><time>2026-03-29T10:07:42Z</time></trkpt><trkpt lat="44.053215342320506" lon="8.13753861547763"><ele>39.66666666666667</ele><time>2026-03-29T10:07:43Z</time></trkpt><trkpt lat="44.05314163018915" lon="8.137773299672705"><ele>36.333333333333336</ele><time>2026-03-29T10:07:44Z</time></trkpt><trkpt lat="44.0530705120884" lon="8.138012485414325"><ele>33.0</ele><time>2026-03-29T10:07:45Z</time></trkpt><trkpt lat="44.05300275152617" lon="8.13825319141046"><ele>33.0</ele><time>2026-03-29T10:07:46Z</time></trkpt><trkpt lat="44.05293602068391" lon="8.138498053676045"><ele>33.0</ele><time>2026-03-29T10:07:47Z</time></trkpt><trkpt lat="44.052874311353094" lon="8.138742989231591"><ele>33.0</ele><time>2026-03-29T10:07:48Z</time></trkpt><trkpt lat="44.052814892759706" lon="8.13899118123417"><ele>34.0</ele><time>2026-03-29T10:07:49Z</time></trkpt><trkpt lat="44.05275465744669" lon="8.139236959387288"><ele>35.0</ele><time>2026-03-29T10:07:50Z</time></trkpt><trkpt lat="44.052697765980646" lon="8.139476797825738"><ele>36.0</ele><time>2026-03-29T10:07:51Z</time></trkpt><trkpt lat="44.05264702693806" lon="8.13969328464539"><ele>37.0</ele><time>2026-03-29T10:07:52Z</time></trkpt><trkpt lat="44.05259882955027" lon="8.139887617758532"><ele>38.0</ele><time>2026-03-29T10:07:53Z</time></trkpt><trkpt lat="44.052549192310785" lon="8.140072303403759"><ele>39.0</ele><time>2026-03-29T10:07:54Z</time></trkpt><trkpt lat="44.0524807829063" lon="8.140255845831918"><ele>40.0</ele><time>2026-03-29T10:07:55Z</time></trkpt><trkpt lat="44.0524069475901" lon="8.14044017927308"><ele>36.66666666666667</ele><time>2026-03-29T10:07:56Z</time></trkpt><trkpt lat="44.052337248029204" lon="8.14062858624339"><ele>33.333333333333336</ele><time>2026-03-29T10:07:57Z</time></trkpt><trkpt lat="44.0522665344975" lon="8.140825871272932"><ele>30.0</ele><time>2026-03-29T10:07:58Z</time></trkpt><trkpt lat="44.05219254402787" lon="8.141029617614423"><ele>30.0</ele><time>2026-03-29T10:07:59Z</time></trkpt><trkpt lat="44.05212244039283" lon="8.141235318955811"><ele>30.0</ele><time>2026-03-29T10:08:00Z</time></trkpt><trkpt lat="44.05206810458846" lon="8.141447303044625"><ele>30.0</ele><time>2026-03-29T10:08:01Z</time></trkpt><trkpt lat="44.05204080453977" lon="8.141670749803767"><ele>30.0</ele><time>2026-03-29T10:08:02Z</time></trkpt><trkpt lat="44.05203964444878" lon="8.14190192435701"><ele>30.0</ele><time>2026-03-29T10:08:03Z</time></trkpt><trkpt lat="44.0520316894761" lon="8.142128420600732"><ele>30.0</ele><time>2026-03-29T10:08:04Z</time></trkpt><trkpt lat="44.05201161302607" lon="8.142352907926785"><ele>31.0</ele><time>2026-03-29T10:08:05Z</time></trkpt><trkpt lat="44.051970018090195" lon="8.142563811107635"><ele>32.0</ele><time>2026-03-29T10:08:06Z</time></trkpt><trkpt lat="44.051898520899506" lon="8.142761284852824"><ele>33.0</ele><time>2026-03-29T10:08:07Z</time></trkpt><trkpt lat="44.05180402242519" lon="8.142942944996953"><ele>33.0</ele><time>2026-03-29T10:08:08Z</time></trkpt><trkpt lat="44.05169766365137" lon="8.143117760171485"><ele>33.0</ele><time>2026-03-29T10:08:09Z</time></trkpt><trkpt lat="44.0515940649733" lon="8.143294403148031"><ele>33.0</ele><time>2026-03-29T10:08:10Z</time></trkpt><trkpt lat="44.051493331673335" lon="8.143472245035467"><ele>31.333333333333336</ele><time>2026-03-29T10:08:11Z</time></trkpt><trkpt lat="44.05139329913358" lon="8.143649217731035"><ele>29.666666666666668</ele><time>2026-03-29T10:08:12Z</time></trkpt><trkpt lat="44.05129150342992" lon="8.143824320107827"><ele>28.0</ele><time>2026-03-29T10:08:13Z</time></trkpt><trkpt lat="44.051190127624245" lon="8.143997432590794"><ele>28.666666666666668</ele><time>2026-03-29T10:08:14Z</time></trkpt><trkpt lat="44.05109370093392" lon="8.144163403286623"><ele>29.333333333333336</ele><time>2026-03-29T10:08:15Z</time></trkpt><trkpt lat="44.050998344395175" lon="8.144329603301843"><ele>30.0</ele><time>2026-03-29T10:08:16Z</time></trkpt><trkpt lat="44.0509039478511" lon="8.144492788535667"><ele>30.0</ele><time>2026-03-29T10:08:17Z</time></trkpt><trkpt lat="44.050808016817406" lon="8.144652175939546"><ele>30.0</ele><time>2026-03-29T10:08:18Z</time></trkpt><trkpt lat="44.050718821515446" lon="8.144812375500523"><ele>30.0</ele><time>2026-03-29T10:08:19Z</time></trkpt><trkpt lat="44.0506548620315" lon="8.144971778862836"><ele>30.0</ele><time>2026-03-29T10:08:20Z</time></trkpt><trkpt lat="44.050623795590624" lon="8.145153942200348"><ele>29.333333333333336</ele><time>2026-03-29T10:08:21Z</time></trkpt><trkpt lat="44.05062418198202" lon="8.14536207851265"><ele>28.666666666666668</ele><time>2026-03-29T10:08:22Z</time></trkpt><trkpt lat="44.0506405419262" lon="8.145583308901205"><ele>28.0</ele><time>2026-03-29T10:08:23Z</time></trkpt><trkpt lat="44.05064615678258" lon="8.145811483313956"><ele>29.333333333333336</ele><time>2026-03-29T10:08:24Z</time></trkpt><trkpt lat="44.05065232103463" lon="8.146037456898696"><ele>30.666666666666664</ele><time>2026-03-29T10:08:25Z</time></trkpt><trkpt lat="44.050658977825684" lon="8.146255467959111"><ele>32.0</ele><time>2026-03-29T10:08:26Z</time></trkpt><trkpt lat="44.05067114660131" lon="8.146477094576285"><ele>32.0</ele><time>2026-03-29T10:08:27Z</time></trkpt><trkpt lat="44.05069921053821" lon="8.146697862495756"><ele>32.0</ele><time>2026-03-29T10:08:28Z</time></trkpt><trkpt lat="44.05075051020358" lon="8.146914292775785"><ele>32.0</ele><time>2026-03-29T10:08:29Z</time></trkpt><trkpt lat="44.05081090493262" lon="8.147126908710497"><ele>32.0</ele><time>2026-03-29T10:08:30Z</time></trkpt><trkpt lat="44.05086672523877" lon="8.147342858689873"><ele>32.0</ele><time>2026-03-29T10:08:31Z</time></trkpt><trkpt lat="44.05091891580726" lon="8.147557717811623"><ele>32.0</ele><time>2026-03-29T10:08:32Z</time></trkpt><trkpt lat="44.05096510684903" lon="8.147750017655575"><ele>31.5</ele><time>2026-03-29T10:08:33Z</time></trkpt><trkpt lat="44.0510113758874" lon="8.147941169914484"><ele>31.0</ele><time>2026-03-29T10:08:34Z</time></trkpt><trkpt lat="44.05105929086147" lon="8.148140991336017"><ele>30.5</ele><time>2026-03-29T10:08:35Z</time></trkpt><trkpt lat="44.051106723051106" lon="8.14833976880322"><ele>30.0</ele><time>2026-03-29T10:08:36Z</time></trkpt><trkpt lat="44.051152036852784" lon="8.148539937523692"><ele>29.5</ele><time>2026-03-29T10:08:37Z</time></trkpt><trkpt lat="44.051188022543684" lon="8.148739885385462"><ele>29.0</ele><time>2026-03-29T10:08:38Z</time></trkpt><trkpt lat="44.05121085304368" lon="8.148943731321072"><ele>28.5</ele><time>2026-03-29T10:08:39Z</time></trkpt><trkpt lat="44.0512306974918" lon="8.149153813613582"><ele>28.0</ele><time>2026-03-29T10:08:40Z</time></trkpt><trkpt lat="44.05126581920786" lon="8.1493626522396"><ele>27.25</ele><time>2026-03-29T10:08:41Z</time></trkpt><trkpt lat="44.05131717404084" lon="8.149551729476615"><ele>26.5</ele><time>2026-03-29T10:08:42Z</time></trkpt><trkpt lat="44.05137286702989" lon="8.14971921747827"><ele>25.75</ele><time>2026-03-29T10:08:43Z</time></trkpt><trkpt lat="44.051434534979364" lon="8.149878247263429"><ele>25.0</ele><time>2026-03-29T10:08:44Z</time></trkpt><trkpt lat="44.05150819362151" lon="8.15002285873378"><ele>24.75</ele><time>2026-03-29T10:08:45Z</time></trkpt><trkpt lat="44.05159084902666" lon="8.150156844712695"><ele>24.5</ele><time>2026-03-29T10:08:46Z</time></trkpt><trkpt lat="44.05168358517475" lon="8.150287842800342"><ele>24.25</ele><time>2026-03-29T10:08:47Z</time></trkpt><trkpt lat="44.051784660840994" lon="8.150413344490222"><ele>24.0</ele><time>2026-03-29T10:08:48Z</time></trkpt><trkpt lat="44.05188771440579" lon="8.150542654590128"><ele>24.0</ele><time>2026-03-29T10:08:49Z</time></trkpt><trkpt lat="44.051993118368074" lon="8.150674374120868"><ele>24.0</ele><time>2026-03-29T10:08:50Z</time></trkpt><trkpt lat="44.05209949774934" lon="8.150808614751087"><ele>24.0</ele><time>2026-03-29T10:08:51Z</time></trkpt><trkpt lat="44.052203973852066" lon="8.150942930384069"><ele>24.0</ele><time>2026-03-29T10:08:52Z</time></trkpt><trkpt lat="44.05230411073862" lon="8.151072906472256"><ele>23.75</ele><time>2026-03-29T10:08:53Z</time></trkpt><trkpt lat="44.05239991278937" lon="8.151199024453438"><ele>23.5</ele><time>2026-03-29T10:08:54Z</time></trkpt><trkpt lat="44.05249351844716" lon="8.151326623124914"><ele>23.25</ele><time>2026-03-29T10:08:55Z</time></trkpt><trkpt lat="44.05258572540077" lon="8.151453055402907"><ele>23.0</ele><time>2026-03-29T10:08:56Z</time></trkpt><trkpt lat="44.052674160867085" lon="8.151581443999202"><ele>23.0</ele><time>2026-03-29T10:08:57Z</time></trkpt><trkpt lat="44.052756967567426" lon="8.151715163511906"><ele>23.0</ele><time>2026-03-29T10:08:58Z</time></trkpt><trkpt lat="44.05283675568146" lon="8.151850892723242"><ele>23.0</ele><time>2026-03-29T10:08:59Z</time></trkpt><trkpt lat="44.052918037197074" lon="8.151986315889019"><ele>23.0</ele><time>2026-03-29T10:09:00Z</time></trkpt><trkpt lat="44.05300778904516" lon="8.152121347080934"><ele>23.0</ele><time>2026-03-29T10:09:01Z</time></trkpt><trkpt lat="44.05309593030509" lon="8.152275444008053"><ele>23.0</ele><time>2026-03-29T10:09:02Z</time></trkpt><trkpt lat="44.05320460099618" lon="8.152417471819945"><ele>23.0</ele><time>2026-03-29T10:09:03Z</time></trkpt><trkpt lat="44.053320030305514" lon="8.152562406500692"><ele>23.0</ele><time>2026-03-29T10:09:04Z</time></trkpt><trkpt lat="44.05344683626967" lon="8.152692743679133"><ele>22.75</ele><time>2026-03-29T10:09:05Z</time></trkpt><trkpt lat="44.05355049033053" lon="8.15284536083744"><ele>22.5</ele><time>2026-03-29T10:09:06Z</time></trkpt><trkpt lat="44.053646177588206" lon="8.153005132313723"><ele>22.25</ele><time>2026-03-29T10:09:07Z</time></trkpt><trkpt lat="44.053736227459495" lon="8.153169214963738"><ele>22.0</ele><time>2026-03-29T10:09:08Z</time></trkpt><trkpt lat="44.05382245769347" lon="8.153341053288747"><ele>22.0</ele><time>2026-03-29T10:09:09Z</time></trkpt><trkpt lat="44.05390738747265" lon="8.153518905407457"><ele>22.0</ele><time>2026-03-29T10:09:10Z</time></trkpt><trkpt lat="44.05399075096773" lon="8.153699061244795"><ele>22.0</ele><time>2026-03-29T10:09:11Z</time></trkpt><trkpt lat="44.05407695963133" lon="8.153880028222494"><ele>23.333333333333332</ele><time>2026-03-29T10:09:12Z</time></trkpt><trkpt lat="44.05416361468038" lon="8.15406291327992"><ele>24.666666666666664</ele><time>2026-03-29T10:09:13Z</time></trkpt><trkpt lat="44.05424995923388" lon="8.154244861087044"><ele>26.0</ele><time>2026-03-29T10:09:14Z</time></trkpt><trkpt lat="44.05433452527494" lon="8.154421322736217"><ele>26.0</ele><time>2026-03-29T10:09:15Z</time></trkpt><trkpt lat="44.054418467824945" lon="8.154597594614962"><ele>26.0</ele><time>2026-03-29T10:09:16Z</time></trkpt><trkpt lat="44.05450167729963" lon="8.154771992615283"><ele>26.0</ele><time>2026-03-29T10:09:17Z</time></trkpt><trkpt lat="44.05458437744661" lon="8.154945790036445"><ele>25.5</ele><time>2026-03-29T10:09:18Z</time></trkpt><trkpt lat="44.054663880393626" lon="8.155114191533524"><ele>25.0</ele><time>2026-03-29T10:09:19Z</time></trkpt><trkpt lat="44.05473999014202" lon="8.155288694277925"><ele>24.5</ele><time>2026-03-29T10:09:20Z</time></trkpt><trkpt lat="44.05481219221132" lon="8.155460997000104"><ele>24.0</ele><time>2026-03-29T10:09:21Z</time></trkpt><trkpt lat="44.05488242558995" lon="8.155630061858357"><ele>23.5</ele><time>2026-03-29T10:09:22Z</time></trkpt><trkpt lat="44.0549559742209" lon="8.15578553902388"><ele>23.0</ele><time>2026-03-29T10:09:23Z</time></trkpt><trkpt lat="44.055029644490325" lon="8.155923482683786"><ele>22.5</ele><time>2026-03-29T10:09:24Z</time></trkpt><trkpt lat="44.05510905707664" lon="8.156039596851373"><ele>22.0</ele><time>2026-03-29T10:09:25Z</time></trkpt><trkpt lat="44.05519901219908" lon="8.15612248284629"><ele>22.0</ele><time>2026-03-29T10:09:26Z</time></trkpt><trkpt lat="44.05528772886944" lon="8.156178339262702"><ele>22.0</ele><time>2026-03-29T10:09:27Z</time></trkpt><trkpt lat="44.05536860898462" lon="8.156215261518094"><ele>22.0</ele><time>2026-03-29T10:09:28Z</time></trkpt><trkpt lat="44.05544527950639" lon="8.156252385161576"><ele>22.0</ele><time>2026-03-29T10:09:29Z</time></trkpt><trkpt lat="44.05550824138806" lon="8.156313637980432"><ele>22.0</ele><time>2026-03-29T10:09:30Z</time></trkpt><trkpt lat="44.05558072143821" lon="8.156373928424358"><ele>22.0</ele><time>2026-03-29T10:09:31Z</time></trkpt><trkpt lat="44.055672125923614" lon="8.156416381352624"><ele>22.0</ele><time>2026-03-29T10:09:32Z</time></trkpt><trkpt lat="44.05577003394945" lon="8.156431913153233"><ele>22.0</ele><time>2026-03-29T10:09:33Z</time></trkpt><trkpt lat="44.05585960226494" lon="8.156562300277004"><ele>22.0</ele><time>2026-03-29T10:09:34Z</time></trkpt><trkpt lat="44.05594306900243" lon="8.156680809396368"><ele>22.0</ele><time>2026-03-29T10:09:35Z</time></trkpt><trkpt lat="44.056021182382466" lon="8.156807220467313"><ele>22.0</ele><time>2026-03-29T10:09:36Z</time></trkpt><trkpt lat="44.0560868172043" lon="8.156944958610115"><ele>22.0</ele><time>2026-03-29T10:09:37Z</time></trkpt><trkpt lat="44.05614622597995" lon="8.157105563426743"><ele>22.0</ele><time>2026-03-29T10:09:38Z</time></trkpt><trkpt lat="44.056199222020666" lon="8.157284419339613"><ele>22.0</ele><time>2026-03-29T10:09:39Z</time></trkpt><trkpt lat="44.056241374863106" lon="8.15748281770263"><ele>21.333333333333332</ele><time>2026-03-29T10:09:40Z</time></trkpt><trkpt lat="44.056275990500914" lon="8.157692574124576"><ele>20.666666666666668</ele><time>2026-03-29T10:09:41Z</time></trkpt><trkpt lat="44.05631205227328" lon="8.15790888244653"><ele>20.0</ele><time>2026-03-29T10:09:42Z</time></trkpt><trkpt lat="44.05635115743871" lon="8.158130403291006"><ele>19.333333333333336</ele><time>2026-03-29T10:09:43Z</time></trkpt><trkpt lat="44.056389808889385" lon="8.158359175438132"><ele>18.666666666666668</ele><time>2026-03-29T10:09:44Z</time></trkpt><trkpt lat="44.05642727722263" lon="8.158588041393026"><ele>18.0</ele><time>2026-03-29T10:09:45Z</time></trkpt><trkpt lat="44.05646342649094" lon="8.15882015654168"><ele>18.333333333333332</ele><time>2026-03-29T10:09:46Z</time></trkpt><trkpt lat="44.05649945294381" lon="8.159052757363296"><ele>18.666666666666664</ele><time>2026-03-29T10:09:47Z</time></trkpt><trkpt lat="44.056535447304825" lon="8.159286535543767"><ele>19.0</ele><time>2026-03-29T10:09:48Z</time></trkpt><trkpt lat="44.056569016206396" lon="8.159512899738388"><ele>19.0</ele><time>2026-03-29T10:09:49Z</time></trkpt><trkpt lat="44.056601284015095" lon="8.15973204525114"><ele>19.0</ele><time>2026-03-29T10:09:50Z</time></trkpt><trkpt lat="44.0566253610148" lon="8.15996006684444"><ele>19.0</ele><time>2026-03-29T10:09:51Z</time></trkpt><trkpt lat="44.0566352267534" lon="8.160194787091795"><ele>21.0</ele><time>2026-03-29T10:09:52Z</time></trkpt><trkpt lat="44.05663683409692" lon="8.16043693176934"><ele>23.0</ele><time>2026-03-29T10:09:53Z</time></trkpt><trkpt lat="44.056641651654424" lon="8.160675099919384"><ele>25.0</ele><time>2026-03-29T10:09:54Z</time></trkpt><trkpt lat="44.056650313582935" lon="8.160912080201614"><ele>25.333333333333336</ele><time>2026-03-29T10:09:55Z</time></trkpt><trkpt lat="44.056659190636275" lon="8.161152563163597"><ele>25.666666666666664</ele><time>2026-03-29T10:09:56Z</time></trkpt><trkpt lat="44.056669863617635" lon="8.16139402437959"><ele>26.0</ele><time>2026-03-29T10:09:57Z</time></trkpt><trkpt lat="44.05668376567904" lon="8.161638682338015"><ele>26.0</ele><time>2026-03-29T10:09:58Z</time></trkpt><trkpt lat="44.05669933696327" lon="8.161888099173698"><ele>26.0</ele><time>2026-03-29T10:09:59Z</time></trkpt><trkpt lat="44.056713379088954" lon="8.162138222944808"><ele>26.0</ele><time>2026-03-29T10:10:00Z</time></trkpt><trkpt lat="44.056726766065566" lon="8.162394854390874"><ele>25.666666666666664</ele><time>2026-03-29T10:10:01Z</time></trkpt><trkpt lat="44.05674115207" lon="8.162655078392373"><ele>25.333333333333336</ele><time>2026-03-29T10:10:02Z</time></trkpt><trkpt lat="44.056758149060535" lon="8.162905411939413"><ele>25.0</ele><time>2026-03-29T10:10:03Z</time></trkpt><trkpt lat="44.056776629350956" lon="8.163145968297869"><ele>23.666666666666668</ele><time>2026-03-29T10:10:04Z</time></trkpt><trkpt lat="44.05680481445992" lon="8.163383196845954"><ele>22.333333333333336</ele><time>2026-03-29T10:10:05Z</time></trkpt><trkpt lat="44.05685323632773" lon="8.163618656292526"><ele>21.0</ele><time>2026-03-29T10:10:06Z</time></trkpt><trkpt lat="44.05692224232537" lon="8.163837647731425"><ele>20.0</ele><time>2026-03-29T10:10:07Z</time></trkpt><trkpt lat="44.056997530443304" lon="8.164046778377452"><ele>19.0</ele><time>2026-03-29T10:10:08Z</time></trkpt><trkpt lat="44.05707982659845" lon="8.16423762320429"><ele>18.0</ele><time>2026-03-29T10:10:09Z</time></trkpt><trkpt lat="44.057159918620165" lon="8.16442755964276"><ele>18.0</ele><time>2026-03-29T10:10:10Z</time></trkpt><trkpt lat="44.057238108679265" lon="8.164616136911162"><ele>18.0</ele><time>2026-03-29T10:10:11Z</time></trkpt><trkpt lat="44.05731242986172" lon="8.164804807648965"><ele>18.0</ele><time>2026-03-29T10:10:12Z</time></trkpt><trkpt lat="44.057381499224455" lon="8.164992308362146"><ele>17.75</ele><time>2026-03-29T10:10:13Z</time></trkpt><trkpt lat="44.057438012144644" lon="8.165186211764606"><ele>17.5</ele><time>2026-03-29T10:10:14Z</time></trkpt><trkpt lat="44.05747765408615" lon="8.165380779325488"><ele>17.25</ele><time>2026-03-29T10:10:15Z</time></trkpt><trkpt lat="44.05750131423813" lon="8.165563252841325"><ele>17.0</ele><time>2026-03-29T10:10:16Z</time></trkpt><trkpt lat="44.05751252245772" lon="8.165746477033979"><ele>17.75</ele><time>2026-03-29T10:10:17Z</time></trkpt><trkpt lat="44.05750648988588" lon="8.165930641168453"><ele>18.5</ele><time>2026-03-29T10:10:18Z</time></trkpt><trkpt lat="44.05748452342942" lon="8.166117985678614"><ele>19.25</ele><time>2026-03-29T10:10:19Z</time></trkpt><trkpt lat="44.05745400718857" lon="8.166308203938247"><ele>20.0</ele><time>2026-03-29T10:10:20Z</time></trkpt><trkpt lat="44.05742456091862" lon="8.166495661746488"><ele>20.5</ele><time>2026-03-29T10:10:21Z</time></trkpt><trkpt lat="44.05739673445092" lon="8.16668894349894"><ele>21.0</ele><time>2026-03-29T10:10:22Z</time></trkpt><trkpt lat="44.057375076149356" lon="8.166873963610978"><ele>21.5</ele><time>2026-03-29T10:10:23Z</time></trkpt><trkpt lat="44.05733185181473" lon="8.167058274334394"><ele>22.0</ele><time>2026-03-29T10:10:24Z</time></trkpt><trkpt lat="44.05730287621294" lon="8.167248338956222"><ele>20.75</ele><time>2026-03-29T10:10:25Z</time></trkpt><trkpt lat="44.05727420063309" lon="8.167435014890316"><ele>19.5</ele><time>2026-03-29T10:10:26Z</time></trkpt><trkpt lat="44.05725917814101" lon="8.167640476167753"><ele>18.25</ele><time>2026-03-29T10:10:27Z</time></trkpt><trkpt lat="44.05721204806583" lon="8.167830954751015"><ele>17.0</ele><time>2026-03-29T10:10:28Z</time></trkpt><trkpt lat="44.057180288861844" lon="8.168028002813683"><ele>17.0</ele><time>2026-03-29T10:10:29Z</time></trkpt><trkpt lat="44.05715759970669" lon="8.168226587227842"><ele>17.0</ele><time>2026-03-29T10:10:30Z</time></trkpt><trkpt lat="44.057114624449646" lon="8.168417700059383"><ele>17.0</ele><time>2026-03-29T10:10:31Z</time></trkpt><trkpt lat="44.05707230022689" lon="8.16861068819267"><ele>17.0</ele><time>2026-03-29T10:10:32Z</time></trkpt><trkpt lat="44.057028758383325" lon="8.16880202934098"><ele>17.0</ele><time>2026-03-29T10:10:33Z</time></trkpt><trkpt lat="44.05698521589595" lon="8.16898999335104"><ele>17.0</ele><time>2026-03-29T10:10:34Z</time></trkpt><trkpt lat="44.05694003518209" lon="8.169182212975779"><ele>17.0</ele><time>2026-03-29T10:10:35Z</time></trkpt><trkpt lat="44.05689528422539" lon="8.169373501462545"><ele>17.0</ele><time>2026-03-29T10:10:36Z</time></trkpt><trkpt lat="44.05685062754519" lon="8.169567685792194"><ele>17.5</ele><time>2026-03-29T10:10:37Z</time></trkpt><trkpt lat="44.05680473579585" lon="8.169757978156559"><ele>18.0</ele><time>2026-03-29T10:10:38Z</time></trkpt><trkpt lat="44.05675954731365" lon="8.1699387847287"><ele>18.5</ele><time>2026-03-29T10:10:39Z</time></trkpt><trkpt lat="44.05671580358867" lon="8.170117800043718"><ele>19.0</ele><time>2026-03-29T10:10:40Z</time></trkpt><trkpt lat="44.05667335999987" lon="8.170294705853658"><ele>19.5</ele><time>2026-03-29T10:10:41Z</time></trkpt><trkpt lat="44.05663420514892" lon="8.170470492846754"><ele>20.0</ele><time>2026-03-29T10:10:42Z</time></trkpt><trkpt lat="44.05659721226215" lon="8.17064318550819"><ele>20.5</ele><time>2026-03-29T10:10:43Z</time></trkpt><trkpt lat="44.05656543800108" lon="8.170816580493156"><ele>21.0</ele><time>2026-03-29T10:10:44Z</time></trkpt><trkpt lat="44.05654765311389" lon="8.170994956089737"><ele>19.25</ele><time>2026-03-29T10:10:45Z</time></trkpt><trkpt lat="44.05652332242838" lon="8.171169661419542"><ele>17.5</ele><time>2026-03-29T10:10:46Z</time></trkpt><trkpt lat="44.056518773535664" lon="8.171335744440077"><ele>15.75</ele><time>2026-03-29T10:10:47Z</time></trkpt><trkpt lat="44.05651550820621" lon="8.171490444708294"><ele>14.0</ele><time>2026-03-29T10:10:48Z</time></trkpt><trkpt lat="44.056511508513715" lon="8.171640362483656"><ele>14.0</ele><time>2026-03-29T10:10:49Z</time></trkpt><trkpt lat="44.056506424105116" lon="8.17178781021516"><ele>13.999999999999998</ele><time>2026-03-29T10:10:50Z</time></trkpt><trkpt lat="44.056502534359964" lon="8.171926242752097"><ele>13.999999999999998</ele><time>2026-03-29T10:10:51Z</time></trkpt><trkpt lat="44.05650004182719" lon="8.172059608154955"><ele>14.0</ele><time>2026-03-29T10:10:52Z</time></trkpt><trkpt lat="44.056513568448324" lon="8.172196166092819"><ele>14.0</ele><time>2026-03-29T10:10:53Z</time></trkpt><trkpt lat="44.0565060317923" lon="8.172334999030642"><ele>14.0</ele><time>2026-03-29T10:10:54Z</time></trkpt><trkpt lat="44.05652456710469" lon="8.172478269187494"><ele>13.999999999999998</ele><time>2026-03-29T10:10:55Z</time></trkpt><trkpt lat="44.05655334576396" lon="8.17262840968009"><ele>13.999999999999998</ele><time>2026-03-29T10:10:56Z</time></trkpt><trkpt lat="44.056588824321935" lon="8.172773321120395"><ele>14.0</ele><time>2026-03-29T10:10:57Z</time></trkpt><trkpt lat="44.05663044938384" lon="8.172915769016601"><ele>14.0</ele><time>2026-03-29T10:10:58Z</time></trkpt><trkpt lat="44.05667288175374" lon="8.173056614858112"><ele>14.799999999999999</ele><time>2026-03-29T10:10:59Z</time></trkpt><trkpt lat="44.05671364743413" lon="8.17319299533821"><ele>15.599999999999998</ele><time>2026-03-29T10:11:00Z</time></trkpt><trkpt lat="44.056768298521504" lon="8.173326434974783"><ele>16.4</ele><time>2026-03-29T10:11:01Z</time></trkpt><trkpt lat="44.056810015918586" lon="8.173469684884811"><ele>17.2</ele><time>2026-03-29T10:11:02Z</time></trkpt><trkpt lat="44.05683791188519" lon="8.173629052652336"><ele>18.0</ele><time>2026-03-29T10:11:03Z</time></trkpt><trkpt lat="44.05688225264865" lon="8.17379134254868"><ele>18.0</ele><time>2026-03-29T10:11:04Z</time></trkpt><trkpt lat="44.056940811096865" lon="8.173953044875617"><ele>18.0</ele><time>2026-03-29T10:11:05Z</time></trkpt><trkpt lat="44.05698371362693" lon="8.174119970749267"><ele>18.0</ele><time>2026-03-29T10:11:06Z</time></trkpt><trkpt lat="44.05702822479561" lon="8.174284458825205"><ele>18.0</ele><time>2026-03-29T10:11:07Z</time></trkpt><trkpt lat="44.057070818323744" lon="8.174444135565386"><ele>17.25</ele><time>2026-03-29T10:11:08Z</time></trkpt><trkpt lat="44.057116058252895" lon="8.174615186120493"><ele>16.5</ele><time>2026-03-29T10:11:09Z</time></trkpt><trkpt lat="44.057164389226706" lon="8.174788587931047"><ele>15.75</ele><time>2026-03-29T10:11:10Z</time></trkpt><trkpt lat="44.05721218682917" lon="8.174957256676514"><ele>15.0</ele><time>2026-03-29T10:11:11Z</time></trkpt><trkpt lat="44.05725631339689" lon="8.175125222658965"><ele>14.75</ele><time>2026-03-29T10:11:12Z</time></trkpt><trkpt lat="44.05730133688148" lon="8.175295859496233"><ele>14.5</ele><time>2026-03-29T10:11:13Z</time></trkpt><trkpt lat="44.05735016922644" lon="8.175464249066765"><ele>14.25</ele><time>2026-03-29T10:11:14Z</time></trkpt><trkpt lat="44.05739560017762" lon="8.175637265458493"><ele>14.0</ele><time>2026-03-29T10:11:15Z</time></trkpt><trkpt lat="44.05744097159327" lon="8.175811992317424"><ele>13.75</ele><time>2026-03-29T10:11:16Z</time></trkpt><trkpt lat="44.057483603601085" lon="8.175985288198397"><ele>13.5</ele><time>2026-03-29T10:11:17Z</time></trkpt><trkpt lat="44.057526642941916" lon="8.176147697684987"><ele>13.25</ele><time>2026-03-29T10:11:18Z</time></trkpt><trkpt lat="44.05757156928165" lon="8.176313981397303"><ele>13.0</ele><time>2026-03-29T10:11:19Z</time></trkpt><trkpt lat="44.057614443533375" lon="8.176474527828356"><ele>12.75</ele><time>2026-03-29T10:11:20Z</time></trkpt><trkpt lat="44.05765561281739" lon="8.176635158379922"><ele>12.5</ele><time>2026-03-29T10:11:21Z</time></trkpt><trkpt lat="44.057697607345204" lon="8.176785620304624"><ele>12.25</ele><time>2026-03-29T10:11:22Z</time></trkpt><trkpt lat="44.05773958405408" lon="8.176933809285364"><ele>12.0</ele><time>2026-03-29T10:11:23Z</time></trkpt><trkpt lat="44.05778025764215" lon="8.1770891735005"><ele>12.0</ele><time>2026-03-29T10:11:24Z</time></trkpt><trkpt lat="44.05780661537778" lon="8.17725650982805"><ele>12.0</ele><time>2026-03-29T10:11:25Z</time></trkpt><trkpt lat="44.05786242244684" lon="8.177401395341494"><ele>12.0</ele><time>2026-03-29T10:11:26Z</time></trkpt><trkpt lat="44.05790016587933" lon="8.17755165293187"><ele>12.0</ele><time>2026-03-29T10:11:27Z</time></trkpt><trkpt lat="44.05794257317947" lon="8.1777009158971"><ele>12.0</ele><time>2026-03-29T10:11:28Z</time></trkpt><trkpt lat="44.0579911460608" lon="8.177853283334501"><ele>12.0</ele><time>2026-03-29T10:11:29Z</time></trkpt><trkpt lat="44.05803912065608" lon="8.177999320882938"><ele>12.0</ele><time>2026-03-29T10:11:30Z</time></trkpt><trkpt lat="44.05809060651985" lon="8.178145797502394"><ele>12.0</ele><time>2026-03-29T10:11:31Z</time></trkpt><trkpt lat="44.05814972898595" lon="8.178292440906134"><ele>12.0</ele><time>2026-03-29T10:11:32Z</time></trkpt><trkpt lat="44.058215745265066" lon="8.178432223587007"><ele>12.0</ele><time>2026-03-29T10:11:33Z</time></trkpt><trkpt lat="44.05828142024587" lon="8.178561860154433"><ele>12.0</ele><time>2026-03-29T10:11:34Z</time></trkpt><trkpt lat="44.05834547843" lon="8.17867493222432"><ele>12.0</ele><time>2026-03-29T10:11:35Z</time></trkpt><trkpt lat="44.05840820393548" lon="8.178780194379605"><ele>12.0</ele><time>2026-03-29T10:11:36Z</time></trkpt><trkpt lat="44.05847385964927" lon="8.178889410389466"><ele>12.2</ele><time>2026-03-29T10:11:37Z</time></trkpt><trkpt lat="44.05854397321887" lon="8.179001901166124"><ele>12.399999999999999</ele><time>2026-03-29T10:11:38Z</time></trkpt><trkpt lat="44.05861465444438" lon="8.179110544555568"><ele>12.600000000000001</ele><time>2026-03-29T10:11:39Z</time></trkpt><trkpt lat="44.05868604304315" lon="8.179216065585974"><ele>12.8</ele><time>2026-03-29T10:11:40Z</time></trkpt><trkpt lat="44.05875701757624" lon="8.17932020415325"><ele>13.0</ele><time>2026-03-29T10:11:41Z</time></trkpt><trkpt lat="44.05883157575655" lon="8.179422743069512"><ele>12.600000000000001</ele><time>2026-03-29T10:11:42Z</time></trkpt><trkpt lat="44.058908256924546" lon="8.179530161645674"><ele>12.200000000000001</ele><time>2026-03-29T10:11:43Z</time></trkpt><trkpt lat="44.05897956183917" lon="8.17963484889116"><ele>11.8</ele><time>2026-03-29T10:11:44Z</time></trkpt><trkpt lat="44.05903642727589" lon="8.179722975120812"><ele>11.4</ele><time>2026-03-29T10:11:45Z</time></trkpt><trkpt lat="44.05909317232084" lon="8.179806597892755"><ele>11.0</ele><time>2026-03-29T10:11:46Z</time></trkpt><trkpt lat="44.05914806536724" lon="8.17989065746434"><ele>11.0</ele><time>2026-03-29T10:11:47Z</time></trkpt><trkpt lat="44.059208292244165" lon="8.179977424949467"><ele>11.0</ele><time>2026-03-29T10:11:48Z</time></trkpt><trkpt lat="44.05926745748075" lon="8.180064065890742"><ele>11.0</ele><time>2026-03-29T10:11:49Z</time></trkpt><trkpt lat="44.05932025344405" lon="8.1801451229719"><ele>11.0</ele><time>2026-03-29T10:11:50Z</time></trkpt><trkpt lat="44.05936570871006" lon="8.18021557343984"><ele>11.0</ele><time>2026-03-29T10:11:51Z</time></trkpt><trkpt lat="44.05943565330163" lon="8.180319086637393"><ele>11.0</ele><time>2026-03-29T10:11:53Z</time></trkpt><trkpt lat="44.05948717164949" lon="8.180390245047649"><ele>11.0</ele><time>2026-03-29T10:11:56Z</time></trkpt><trkpt lat="44.059525089464685" lon="8.180468907017344"><ele>11.0</ele><time>2026-03-29T10:12:01Z</time></trkpt><trkpt lat="44.05957139620282" lon="8.180543904000531"><ele>11.0</ele><time>2026-03-29T10:12:03Z</time></trkpt><trkpt lat="44.05961932801985" lon="8.180632184947978"><ele>11.0</ele><time>2026-03-29T10:12:05Z</time></trkpt><trkpt lat="44.05965676607988" lon="8.180727481507693"><ele>11.0</ele><time>2026-03-29T10:12:10Z</time></trkpt><trkpt lat="44.059600761260626" lon="8.18079763262662"><ele>11.0</ele><time>2026-03-29T10:12:11Z</time></trkpt><trkpt lat="44.05957968240695" lon="8.180901917089194"><ele>11.0</ele><time>2026-03-29T10:12:12Z</time></trkpt><trkpt lat="44.059564376538695" lon="8.181010491570516"><ele>11.0</ele><time>2026-03-29T10:12:13Z</time></trkpt><trkpt lat="44.05950638362538" lon="8.181105087220756"><ele>11.0</ele><time>2026-03-29T10:12:14Z</time></trkpt><trkpt lat="44.0594304568364" lon="8.181208751395594"><ele>11.0</ele><time>2026-03-29T10:12:15Z</time></trkpt><trkpt lat="44.059327085727546" lon="8.181300397173954"><ele>11.0</ele><time>2026-03-29T10:12:16Z</time></trkpt><trkpt lat="44.05922351952275" lon="8.181422186530053"><ele>10.5</ele><time>2026-03-29T10:12:17Z</time></trkpt><trkpt lat="44.05911168545885" lon="8.18154952152934"><ele>10.0</ele><time>2026-03-29T10:12:18Z</time></trkpt><trkpt lat="44.05899595981052" lon="8.18167675190496"><ele>9.5</ele><time>2026-03-29T10:12:19Z</time></trkpt><trkpt lat="44.058892487113695" lon="8.18182011415022"><ele>9.0</ele><time>2026-03-29T10:12:20Z</time></trkpt><trkpt lat="44.05877650934832" lon="8.181943699200879"><ele>9.0</ele><time>2026-03-29T10:12:21Z</time></trkpt><trkpt lat="44.058661756022" lon="8.182064663063104"><ele>9.0</ele><time>2026-03-29T10:12:22Z</time></trkpt><trkpt lat="44.058551985539154" lon="8.182186345336007"><ele>9.0</ele><time>2026-03-29T10:12:23Z</time></trkpt><trkpt lat="44.05844381482694" lon="8.182309611363344"><ele>9.0</ele><time>2026-03-29T10:12:24Z</time></trkpt><trkpt lat="44.0583364009936" lon="8.182439438654672"><ele>9.25</ele><time>2026-03-29T10:12:25Z</time></trkpt><trkpt lat="44.05823132022192" lon="8.182563964397751"><ele>9.5</ele><time>2026-03-29T10:12:26Z</time></trkpt><trkpt lat="44.0581308796062" lon="8.182695016184175"><ele>9.75</ele><time>2026-03-29T10:12:27Z</time></trkpt><trkpt lat="44.05803426911173" lon="8.182823992734686"><ele>10.0</ele><time>2026-03-29T10:12:28Z</time></trkpt><trkpt lat="44.0579410757661" lon="8.182953934442104"><ele>10.0</ele><time>2026-03-29T10:12:29Z</time></trkpt><trkpt lat="44.05785117352823" lon="8.18308331339359"><ele>10.0</ele><time>2026-03-29T10:12:30Z</time></trkpt><trkpt lat="44.05776543562086" lon="8.183209331234867"><ele>10.0</ele><time>2026-03-29T10:12:31Z</time></trkpt><trkpt lat="44.0576822364375" lon="8.183336094751235"><ele>10.0</ele><time>2026-03-29T10:12:32Z</time></trkpt><trkpt lat="44.05758724726321" lon="8.183453533451939"><ele>10.0</ele><time>2026-03-29T10:12:33Z</time></trkpt><trkpt lat="44.05750359975535" lon="8.183586370434732"><ele>10.0</ele><time>2026-03-29T10:12:34Z</time></trkpt><trkpt lat="44.057418125579844" lon="8.183722103163044"><ele>10.0</ele><time>2026-03-29T10:12:35Z</time></trkpt><trkpt lat="44.057330410353785" lon="8.183864796847157"><ele>10.0</ele><time>2026-03-29T10:12:36Z</time></trkpt><trkpt lat="44.05725374015255" lon="8.184022059373257"><ele>9.5</ele><time>2026-03-29T10:12:37Z</time></trkpt><trkpt lat="44.05716344736574" lon="8.184164100187665"><ele>9.0</ele><time>2026-03-29T10:12:38Z</time></trkpt><trkpt lat="44.05707667972185" lon="8.184304115390535"><ele>8.5</ele><time>2026-03-29T10:12:39Z</time></trkpt><trkpt lat="44.0569887761065" lon="8.18444333733884"><ele>8.0</ele><time>2026-03-29T10:12:40Z</time></trkpt><trkpt lat="44.05690178989521" lon="8.184579827517252"><ele>8.0</ele><time>2026-03-29T10:12:41Z</time></trkpt><trkpt lat="44.05682054651483" lon="8.184708695589658"><ele>8.0</ele><time>2026-03-29T10:12:42Z</time></trkpt><trkpt lat="44.05674114234782" lon="8.184838981391879"><ele>8.0</ele><time>2026-03-29T10:12:43Z</time></trkpt><trkpt lat="44.056662819467725" lon="8.18496273179719"><ele>8.0</ele><time>2026-03-29T10:12:44Z</time></trkpt><trkpt lat="44.05659003538772" lon="8.185073425048017"><ele>8.200000000000001</ele><time>2026-03-29T10:12:45Z</time></trkpt><trkpt lat="44.05651927767622" lon="8.185184410744922"><ele>8.4</ele><time>2026-03-29T10:12:46Z</time></trkpt><trkpt lat="44.05644791545167" lon="8.185300391439068"><ele>8.600000000000001</ele><time>2026-03-29T10:12:47Z</time></trkpt><trkpt lat="44.05637899907812" lon="8.185408913068187"><ele>8.8</ele><time>2026-03-29T10:12:48Z</time></trkpt><trkpt lat="44.05631151803447" lon="8.185518837966175"><ele>9.0</ele><time>2026-03-29T10:12:49Z</time></trkpt><trkpt lat="44.05624219850596" lon="8.185632623597462"><ele>9.5</ele><time>2026-03-29T10:12:50Z</time></trkpt><trkpt lat="44.056172761132665" lon="8.185744229313466"><ele>10.0</ele><time>2026-03-29T10:12:51Z</time></trkpt><trkpt lat="44.05608668922285" lon="8.185848860157666"><ele>10.5</ele><time>2026-03-29T10:12:52Z</time></trkpt><trkpt lat="44.056003967659706" lon="8.185979990717993"><ele>11.0</ele><time>2026-03-29T10:12:53Z</time></trkpt><trkpt lat="44.05591427115422" lon="8.186119829964678"><ele>11.0</ele><time>2026-03-29T10:12:54Z</time></trkpt><trkpt lat="44.05581918800319" lon="8.186268967269909"><ele>11.0</ele><time>2026-03-29T10:12:55Z</time></trkpt><trkpt lat="44.0557244537226" lon="8.186423713703025"><ele>11.0</ele><time>2026-03-29T10:12:56Z</time></trkpt><trkpt lat="44.0556374898045" lon="8.186570064127913"><ele>11.0</ele><time>2026-03-29T10:12:57Z</time></trkpt><trkpt lat="44.055569107291014" lon="8.18669914951451"><ele>10.5</ele><time>2026-03-29T10:12:58Z</time></trkpt><trkpt lat="44.055535040248216" lon="8.186823321664608"><ele>10.0</ele><time>2026-03-29T10:12:59Z</time></trkpt><trkpt lat="44.055496202935245" lon="8.18691924199865"><ele>9.5</ele><time>2026-03-29T10:13:00Z</time></trkpt><trkpt lat="44.05546441861977" lon="8.18701928008579"><ele>9.0</ele><time>2026-03-29T10:13:01Z</time></trkpt><trkpt lat="44.055432717739215" lon="8.187116371946153"><ele>8.5</ele><time>2026-03-29T10:13:02Z</time></trkpt><trkpt lat="44.05540110095951" lon="8.187195090759229"><ele>8.0</ele><time>2026-03-29T10:13:03Z</time></trkpt><trkpt lat="44.05531881856284" lon="8.187306196258866"><ele>8.4</ele><time>2026-03-29T10:13:05Z</time></trkpt><trkpt lat="44.05522066937642" lon="8.18738200029092"><ele>8.8</ele><time>2026-03-29T10:13:07Z</time></trkpt><trkpt lat="44.055162933058504" lon="8.187517664177742"><ele>9.2</ele><time>2026-03-29T10:13:09Z</time></trkpt><trkpt lat="44.05516780567004" lon="8.187613436365881"><ele>9.6</ele><time>2026-03-29T10:13:10Z</time></trkpt><trkpt lat="44.05520067921753" lon="8.187719211424872"><ele>10.0</ele><time>2026-03-29T10:13:11Z</time></trkpt><trkpt lat="44.05529100728464" lon="8.187774535948469"><ele>10.0</ele><time>2026-03-29T10:13:12Z</time></trkpt><trkpt lat="44.05538651174871" lon="8.187827446271253"><ele>10.0</ele><time>2026-03-29T10:13:13Z</time></trkpt><trkpt lat="44.055467785686304" lon="8.187933397396502"><ele>10.0</ele><time>2026-03-29T10:13:14Z</time></trkpt><trkpt lat="44.055540554244935" lon="8.188088117096068"><ele>10.0</ele><time>2026-03-29T10:13:15Z</time></trkpt><trkpt lat="44.05561129147034" lon="8.188267009882257"><ele>10.0</ele><time>2026-03-29T10:13:16Z</time></trkpt><trkpt lat="44.05567404324043" lon="8.188457701323168"><ele>10.0</ele><time>2026-03-29T10:13:17Z</time></trkpt><trkpt lat="44.055724941994846" lon="8.188630146355083"><ele>10.0</ele><time>2026-03-29T10:13:18Z</time></trkpt><trkpt lat="44.055775185230324" lon="8.188782897890512"><ele>10.0</ele><time>2026-03-29T10:13:19Z</time></trkpt><trkpt lat="44.05581955922692" lon="8.188950884346346"><ele>9.75</ele><time>2026-03-29T10:13:20Z</time></trkpt><trkpt lat="44.05581982120374" lon="8.189143022315818"><ele>9.5</ele><time>2026-03-29T10:13:21Z</time></trkpt><trkpt lat="44.05583272667226" lon="8.189337199264417"><ele>9.25</ele><time>2026-03-29T10:13:22Z</time></trkpt><trkpt lat="44.05583981899345" lon="8.189539507136926"><ele>9.0</ele><time>2026-03-29T10:13:23Z</time></trkpt><trkpt lat="44.05586103362707" lon="8.18974767909732"><ele>9.0</ele><time>2026-03-29T10:13:24Z</time></trkpt><trkpt lat="44.05586649274795" lon="8.189953534011668"><ele>9.0</ele><time>2026-03-29T10:13:25Z</time></trkpt><trkpt lat="44.05587450991257" lon="8.190152123523138"><ele>9.0</ele><time>2026-03-29T10:13:26Z</time></trkpt><trkpt lat="44.055884014315765" lon="8.190340500259286"><ele>9.0</ele><time>2026-03-29T10:13:27Z</time></trkpt><trkpt lat="44.055892350139395" lon="8.190515132618756"><ele>9.2</ele><time>2026-03-29T10:13:28Z</time></trkpt><trkpt lat="44.05589938801388" lon="8.19067783576362"><ele>9.4</ele><time>2026-03-29T10:13:29Z</time></trkpt><trkpt lat="44.05590637696333" lon="8.190832407365209"><ele>9.6</ele><time>2026-03-29T10:13:30Z</time></trkpt><trkpt lat="44.05591299085709" lon="8.1909875246426"><ele>9.8</ele><time>2026-03-29T10:13:31Z</time></trkpt><trkpt lat="44.05592034227044" lon="8.191139283219533"><ele>10.0</ele><time>2026-03-29T10:13:32Z</time></trkpt><trkpt lat="44.05592615249688" lon="8.191283098991466"><ele>10.0</ele><time>2026-03-29T10:13:33Z</time></trkpt><trkpt lat="44.05592989422651" lon="8.191428466155763"><ele>10.0</ele><time>2026-03-29T10:13:34Z</time></trkpt><trkpt lat="44.05593481024634" lon="8.191568913880086"><ele>10.0</ele><time>2026-03-29T10:13:35Z</time></trkpt><trkpt lat="44.055943803668185" lon="8.191704966739902"><ele>10.0</ele><time>2026-03-29T10:13:36Z</time></trkpt><trkpt lat="44.05595675154743" lon="8.191845393123565"><ele>10.0</ele><time>2026-03-29T10:13:37Z</time></trkpt><trkpt lat="44.05597068697815" lon="8.191999729550139"><ele>10.0</ele><time>2026-03-29T10:13:38Z</time></trkpt><trkpt lat="44.055954228296265" lon="8.1921793595573"><ele>10.0</ele><time>2026-03-29T10:13:39Z</time></trkpt><trkpt lat="44.055963566072066" lon="8.192366158457574"><ele>10.0</ele><time>2026-03-29T10:13:40Z</time></trkpt><trkpt lat="44.0559730018328" lon="8.192558296847567"><ele>10.0</ele><time>2026-03-29T10:13:41Z</time></trkpt><trkpt lat="44.05598213897675" lon="8.192737464679482"><ele>10.25</ele><time>2026-03-29T10:13:42Z</time></trkpt><trkpt lat="44.056006007458464" lon="8.19291089024951"><ele>10.5</ele><time>2026-03-29T10:13:43Z</time></trkpt><trkpt lat="44.05601112581468" lon="8.193080924306017"><ele>10.75</ele><time>2026-03-29T10:13:44Z</time></trkpt><trkpt lat="44.05601502590462" lon="8.193253402112184"><ele>11.0</ele><time>2026-03-29T10:13:45Z</time></trkpt><trkpt lat="44.05602407825929" lon="8.193423952025269"><ele>11.0</ele><time>2026-03-29T10:13:46Z</time></trkpt><trkpt lat="44.056035079136784" lon="8.193590681424057"><ele>11.0</ele><time>2026-03-29T10:13:47Z</time></trkpt><trkpt lat="44.05604422697906" lon="8.1937573402589"><ele>11.0</ele><time>2026-03-29T10:13:48Z</time></trkpt><trkpt lat="44.056051096079294" lon="8.193927196397183"><ele>11.0</ele><time>2026-03-29T10:13:49Z</time></trkpt><trkpt lat="44.05605690415848" lon="8.19410558266401"><ele>10.25</ele><time>2026-03-29T10:13:50Z</time></trkpt><trkpt lat="44.05606589258136" lon="8.1942857039171"><ele>9.5</ele><time>2026-03-29T10:13:51Z</time></trkpt><trkpt lat="44.05607472294742" lon="8.19445514840917"><ele>8.75</ele><time>2026-03-29T10:13:52Z</time></trkpt><trkpt lat="44.056083658139585" lon="8.194616967025535"><ele>8.0</ele><time>2026-03-29T10:13:53Z</time></trkpt><trkpt lat="44.05608987979775" lon="8.194771742243045"><ele>8.166666666666666</ele><time>2026-03-29T10:13:54Z</time></trkpt><trkpt lat="44.05609393489533" lon="8.194913784288431"><ele>8.333333333333332</ele><time>2026-03-29T10:13:55Z</time></trkpt><trkpt lat="44.056100268282194" lon="8.195045397648611"><ele>8.5</ele><time>2026-03-29T10:13:56Z</time></trkpt><trkpt lat="44.05610983545599" lon="8.195178457715743"><ele>8.666666666666666</ele><time>2026-03-29T10:13:57Z</time></trkpt><trkpt lat="44.056116429765254" lon="8.195290750881956"><ele>8.833333333333334</ele><time>2026-03-29T10:13:58Z</time></trkpt><trkpt lat="44.056105165506345" lon="8.195391393631796"><ele>9.0</ele><time>2026-03-29T10:13:59Z</time></trkpt><trkpt lat="44.05610737155522" lon="8.195486478801781"><ele>9.0</ele><time>2026-03-29T10:14:00Z</time></trkpt><trkpt lat="44.056116483201194" lon="8.19563567795698"><ele>9.0</ele><time>2026-03-29T10:14:02Z</time></trkpt><trkpt lat="44.056070784351654" lon="8.195753787574072"><ele>9.0</ele><time>2026-03-29T10:14:04Z</time></trkpt><trkpt lat="44.056022041966735" lon="8.195842426593813"><ele>9.0</ele><time>2026-03-29T10:14:06Z</time></trkpt><trkpt lat="44.05606630072395" lon="8.195941894961981"><ele>9.0</ele><time>2026-03-29T10:14:07Z</time></trkpt><trkpt lat="44.05612349898832" lon="8.19601023879173"><ele>9.0</ele><time>2026-03-29T10:14:08Z</time></trkpt><trkpt lat="44.05613287374641" lon="8.196115595409886"><ele>9.2</ele><time>2026-03-29T10:14:09Z</time></trkpt><trkpt lat="44.05614252119354" lon="8.196256511456985"><ele>9.4</ele><time>2026-03-29T10:14:10Z</time></trkpt><trkpt lat="44.05615205210167" lon="8.196415071215206"><ele>9.6</ele><time>2026-03-29T10:14:11Z</time></trkpt><trkpt lat="44.05615957885682" lon="8.196552682492724"><ele>9.8</ele><time>2026-03-29T10:14:12Z</time></trkpt><trkpt lat="44.05618144988539" lon="8.196670038623058"><ele>10.0</ele><time>2026-03-29T10:14:13Z</time></trkpt><trkpt lat="44.05617053393224" lon="8.1967933176545"><ele>10.0</ele><time>2026-03-29T10:14:14Z</time></trkpt><trkpt lat="44.05617640554769" lon="8.196928060350418"><ele>10.0</ele><time>2026-03-29T10:14:15Z</time></trkpt><trkpt lat="44.05618315882783" lon="8.197083038407776"><ele>10.0</ele><time>2026-03-29T10:14:16Z</time></trkpt><trkpt lat="44.056189496437064" lon="8.197261956022212"><ele>10.0</ele><time>2026-03-29T10:14:17Z</time></trkpt><trkpt lat="44.05621185141563" lon="8.197467078211062"><ele>9.333333333333334</ele><time>2026-03-29T10:14:18Z</time></trkpt><trkpt lat="44.05619281621718" lon="8.197683453845066"><ele>8.666666666666666</ele><time>2026-03-29T10:14:19Z</time></trkpt><trkpt lat="44.056165637848615" lon="8.197898275225032"><ele>8.0</ele><time>2026-03-29T10:14:20Z</time></trkpt><trkpt lat="44.05612904360854" lon="8.198109756005245"><ele>7.5</ele><time>2026-03-29T10:14:21Z</time></trkpt><trkpt lat="44.05608386705926" lon="8.198311065661287"><ele>7.0</ele><time>2026-03-29T10:14:22Z</time></trkpt><trkpt lat="44.0560418731846" lon="8.198485852161358"><ele>6.5</ele><time>2026-03-29T10:14:23Z</time></trkpt><trkpt lat="44.05600279012119" lon="8.198624414101815"><ele>6.0</ele><time>2026-03-29T10:14:24Z</time></trkpt><trkpt lat="44.05596167883107" lon="8.198731144506844"><ele>6.0</ele><time>2026-03-29T10:14:25Z</time></trkpt><trkpt lat="44.05592024865012" lon="8.19882009715015"><ele>6.0</ele><time>2026-03-29T10:14:26Z</time></trkpt><trkpt lat="44.05589571873957" lon="8.198923271324114"><ele>6.0</ele><time>2026-03-29T10:14:27Z</time></trkpt><trkpt lat="44.055901973607654" lon="8.199039952341959"><ele>6.0</ele><time>2026-03-29T10:14:28Z</time></trkpt><trkpt lat="44.05589493342339" lon="8.199150803826113"><ele>6.0</ele><time>2026-03-29T10:14:29Z</time></trkpt><trkpt lat="44.05587755119301" lon="8.199259979028493"><ele>6.0</ele><time>2026-03-29T10:14:30Z</time></trkpt><trkpt lat="44.05586218779397" lon="8.19934662354293"><ele>6.166666666666667</ele><time>2026-03-29T10:14:31Z</time></trkpt><trkpt lat="44.055847209066535" lon="8.199434363765027"><ele>6.333333333333334</ele><time>2026-03-29T10:14:32Z</time></trkpt><trkpt lat="44.05583416522513" lon="8.19953585638756"><ele>6.5</ele><time>2026-03-29T10:14:33Z</time></trkpt><trkpt lat="44.05582739809743" lon="8.199641680678436"><ele>6.666666666666667</ele><time>2026-03-29T10:14:34Z</time></trkpt><trkpt lat="44.055829546624246" lon="8.199759678453056"><ele>6.833333333333334</ele><time>2026-03-29T10:14:35Z</time></trkpt><trkpt lat="44.05583700329704" lon="8.199890011974588"><ele>7.0</ele><time>2026-03-29T10:14:36Z</time></trkpt><trkpt lat="44.0558467712738" lon="8.200027390916507"><ele>7.0</ele><time>2026-03-29T10:14:37Z</time></trkpt><trkpt lat="44.055850943780996" lon="8.200163056880115"><ele>6.999999999999999</ele><time>2026-03-29T10:14:38Z</time></trkpt><trkpt lat="44.05585828090406" lon="8.20031082607979"><ele>6.999999999999999</ele><time>2026-03-29T10:14:39Z</time></trkpt><trkpt lat="44.05586781285469" lon="8.200470593759453"><ele>7.0</ele><time>2026-03-29T10:14:40Z</time></trkpt><trkpt lat="44.055875589223" lon="8.20063415144376"><ele>7.0</ele><time>2026-03-29T10:14:41Z</time></trkpt><trkpt lat="44.05589082602572" lon="8.200802131626968"><ele>6.75</ele><time>2026-03-29T10:14:42Z</time></trkpt><trkpt lat="44.05590790888941" lon="8.200989240637728"><ele>6.5</ele><time>2026-03-29T10:14:43Z</time></trkpt><trkpt lat="44.05592396891623" lon="8.2011957178813"><ele>6.25</ele><time>2026-03-29T10:14:44Z</time></trkpt><trkpt lat="44.05593668380822" lon="8.201412872949751"><ele>6.0</ele><time>2026-03-29T10:14:45Z</time></trkpt><trkpt lat="44.05594745482726" lon="8.201630389332447"><ele>6.0</ele><time>2026-03-29T10:14:46Z</time></trkpt><trkpt lat="44.05593699667061" lon="8.2018511740675"><ele>6.0</ele><time>2026-03-29T10:14:47Z</time></trkpt><trkpt lat="44.055950469075576" lon="8.202070202970317"><ele>6.0</ele><time>2026-03-29T10:14:48Z</time></trkpt><trkpt lat="44.05598101465597" lon="8.202282799788241"><ele>6.0</ele><time>2026-03-29T10:14:49Z</time></trkpt><trkpt lat="44.055985948258304" lon="8.202493397567611"><ele>6.0</ele><time>2026-03-29T10:14:50Z</time></trkpt><trkpt lat="44.055972735792224" lon="8.202703996421368"><ele>6.0</ele><time>2026-03-29T10:14:51Z</time></trkpt><trkpt lat="44.05594166738782" lon="8.2029161133529"><ele>6.0</ele><time>2026-03-29T10:14:52Z</time></trkpt><trkpt lat="44.055897769855385" lon="8.203121594488044"><ele>6.0</ele><time>2026-03-29T10:14:53Z</time></trkpt><trkpt lat="44.05584122564035" lon="8.203321062875034"><ele>6.0</ele><time>2026-03-29T10:14:54Z</time></trkpt><trkpt lat="44.05576887880923" lon="8.203503661566012"><ele>6.666666666666666</ele><time>2026-03-29T10:14:55Z</time></trkpt><trkpt lat="44.05566142640064" lon="8.203656095641003"><ele>7.333333333333333</ele><time>2026-03-29T10:14:56Z</time></trkpt><trkpt lat="44.05555546839903" lon="8.203819007927425"><ele>8.0</ele><time>2026-03-29T10:14:57Z</time></trkpt><trkpt lat="44.05545613176206" lon="8.203994702833386"><ele>6.666666666666666</ele><time>2026-03-29T10:14:58Z</time></trkpt><trkpt lat="44.055345903176146" lon="8.204156347814589"><ele>5.333333333333333</ele><time>2026-03-29T10:14:59Z</time></trkpt><trkpt lat="44.05523883466617" lon="8.204322168194658"><ele>4.0</ele><time>2026-03-29T10:15:00Z</time></trkpt><trkpt lat="44.055138531627485" lon="8.204489275339583"><ele>4.0</ele><time>2026-03-29T10:15:01Z</time></trkpt><trkpt lat="44.05504751626845" lon="8.204661632992782"><ele>4.0</ele><time>2026-03-29T10:15:02Z</time></trkpt><trkpt lat="44.054942641596284" lon="8.204817696591116"><ele>4.0</ele><time>2026-03-29T10:15:03Z</time></trkpt><trkpt lat="44.054851391450796" lon="8.20498598969122"><ele>4.25</ele><time>2026-03-29T10:15:04Z</time></trkpt><trkpt lat="44.05475896162085" lon="8.205151354105093"><ele>4.5</ele><time>2026-03-29T10:15:05Z</time></trkpt><trkpt lat="44.054670662295536" lon="8.205309990150553"><ele>4.75</ele><time>2026-03-29T10:15:06Z</time></trkpt><trkpt lat="44.05459083327343" lon="8.205453412752147"><ele>5.0</ele><time>2026-03-29T10:15:07Z</time></trkpt><trkpt lat="44.05453829728218" lon="8.205604001607192"><ele>5.333333333333334</ele><time>2026-03-29T10:15:08Z</time></trkpt><trkpt lat="44.054482661648436" lon="8.205720386124355"><ele>5.666666666666667</ele><time>2026-03-29T10:15:09Z</time></trkpt><trkpt lat="44.05443527410057" lon="8.205809152005402"><ele>6.0</ele><time>2026-03-29T10:15:10Z</time></trkpt><trkpt lat="44.054388615946195" lon="8.205880405597942"><ele>6.333333333333334</ele><time>2026-03-29T10:15:11Z</time></trkpt><trkpt lat="44.05435521049315" lon="8.20601117364011"><ele>6.666666666666667</ele><time>2026-03-29T10:15:13Z</time></trkpt><trkpt lat="44.054382769387104" lon="8.206091945919262"><ele>7.0</ele><time>2026-03-29T10:15:14Z</time></trkpt><trkpt lat="44.05441823263225" lon="8.206175896443346"><ele>7.0</ele><time>2026-03-29T10:15:15Z</time></trkpt><trkpt lat="44.05442719710222" lon="8.206281215991899"><ele>6.999999999999999</ele><time>2026-03-29T10:15:16Z</time></trkpt><trkpt lat="44.0544184245412" lon="8.206403240662548"><ele>6.999999999999999</ele><time>2026-03-29T10:15:17Z</time></trkpt><trkpt lat="44.05440406822047" lon="8.206535449286482"><ele>7.0</ele><time>2026-03-29T10:15:18Z</time></trkpt><trkpt lat="44.05439043605706" lon="8.206679991671875"><ele>7.0</ele><time>2026-03-29T10:15:19Z</time></trkpt><trkpt lat="44.05437887003192" lon="8.20684138153605"><ele>6.5</ele><time>2026-03-29T10:15:20Z</time></trkpt><trkpt lat="44.054364701394626" lon="8.207016645135058"><ele>6.0</ele><time>2026-03-29T10:15:21Z</time></trkpt><trkpt lat="44.05434818623064" lon="8.207203808788831"><ele>5.5</ele><time>2026-03-29T10:15:22Z</time></trkpt><trkpt lat="44.054331287536" lon="8.20740255584503"><ele>5.0</ele><time>2026-03-29T10:15:23Z</time></trkpt><trkpt lat="44.054315190358714" lon="8.207609980356903"><ele>5.0</ele><time>2026-03-29T10:15:24Z</time></trkpt><trkpt lat="44.05429796945149" lon="8.207824982915907"><ele>5.0</ele><time>2026-03-29T10:15:25Z</time></trkpt><trkpt lat="44.05428112847193" lon="8.208036430003851"><ele>5.0</ele><time>2026-03-29T10:15:26Z</time></trkpt><trkpt lat="44.054265573283494" lon="8.208219076952485"><ele>5.0</ele><time>2026-03-29T10:15:27Z</time></trkpt><trkpt lat="44.054244870816234" lon="8.20837538276267"><ele>5.0</ele><time>2026-03-29T10:15:28Z</time></trkpt><trkpt lat="44.05421087081828" lon="8.208506008712396"><ele>5.0</ele><time>2026-03-29T10:15:29Z</time></trkpt><trkpt lat="44.05415391063888" lon="8.208599309581857"><ele>5.0</ele><time>2026-03-29T10:15:30Z</time></trkpt><trkpt lat="44.05408126274792" lon="8.208660070130264"><ele>5.0</ele><time>2026-03-29T10:15:31Z</time></trkpt><trkpt lat="44.05399809267287" lon="8.208705291499287"><ele>5.0</ele><time>2026-03-29T10:15:32Z</time></trkpt><trkpt lat="44.053895799524064" lon="8.208705864635476"><ele>5.25</ele><time>2026-03-29T10:15:33Z</time></trkpt><trkpt lat="44.05378437756747" lon="8.208662148614499"><ele>5.5</ele><time>2026-03-29T10:15:34Z</time></trkpt><trkpt lat="44.0536590962257" lon="8.208591976447872"><ele>5.75</ele><time>2026-03-29T10:15:35Z</time></trkpt><trkpt lat="44.05352135265088" lon="8.208514209680695"><ele>6.0</ele><time>2026-03-29T10:15:36Z</time></trkpt><trkpt lat="44.053375060551836" lon="8.208439174055185"><ele>6.0</ele><time>2026-03-29T10:15:37Z</time></trkpt><trkpt lat="44.05322405904189" lon="8.20835629055271"><ele>6.0</ele><time>2026-03-29T10:15:38Z</time></trkpt><trkpt lat="44.05306647921667" lon="8.2082695839277"><ele>6.0</ele><time>2026-03-29T10:15:39Z</time></trkpt><trkpt lat="44.05290229089811" lon="8.208179169133206"><ele>6.333333333333334</ele><time>2026-03-29T10:15:40Z</time></trkpt><trkpt lat="44.05272313666398" lon="8.208084433979604"><ele>6.666666666666667</ele><time>2026-03-29T10:15:41Z</time></trkpt><trkpt lat="44.05253379502492" lon="8.207985221697347"><ele>7.0</ele><time>2026-03-29T10:15:42Z</time></trkpt><trkpt lat="44.052350156495486" lon="8.20788891652621"><ele>6.333333333333334</ele><time>2026-03-29T10:15:43Z</time></trkpt><trkpt lat="44.052185574699905" lon="8.207810169614753"><ele>5.666666666666667</ele><time>2026-03-29T10:15:44Z</time></trkpt><trkpt lat="44.05204496493957" lon="8.20774754175044"><ele>5.0</ele><time>2026-03-29T10:15:45Z</time></trkpt><trkpt lat="44.05191298293925" lon="8.207692859874502"><ele>5.0</ele><time>2026-03-29T10:15:46Z</time></trkpt><trkpt lat="44.051784267663265" lon="8.207639676663108"><ele>5.0</ele><time>2026-03-29T10:15:47Z</time></trkpt><trkpt lat="44.051658381460136" lon="8.207591404948673"><ele>5.0</ele><time>2026-03-29T10:15:48Z</time></trkpt><trkpt lat="44.051540231633844" lon="8.207547086120671"><ele>5.0</ele><time>2026-03-29T10:15:49Z</time></trkpt><trkpt lat="44.051427586168394" lon="8.207505693629015"><ele>4.25</ele><time>2026-03-29T10:15:50Z</time></trkpt><trkpt lat="44.05131372079636" lon="8.207458359760214"><ele>3.5</ele><time>2026-03-29T10:15:51Z</time></trkpt><trkpt lat="44.05119598794906" lon="8.207410429611524"><ele>2.75</ele><time>2026-03-29T10:15:52Z</time></trkpt><trkpt lat="44.05108044533073" lon="8.207367638926453"><ele>2.0</ele><time>2026-03-29T10:15:53Z</time></trkpt><trkpt lat="44.05096106671622" lon="8.207324863110031"><ele>2.0</ele><time>2026-03-29T10:15:54Z</time></trkpt><trkpt lat="44.050838870115335" lon="8.207280701032385"><ele>2.0</ele><time>2026-03-29T10:15:55Z</time></trkpt><trkpt lat="44.0507131359032" lon="8.20723441523743"><ele>2.0</ele><time>2026-03-29T10:15:56Z</time></trkpt><trkpt lat="44.050585384169054" lon="8.207187083508687"><ele>2.0</ele><time>2026-03-29T10:15:57Z</time></trkpt><trkpt lat="44.050456104322976" lon="8.207139218780961"><ele>2.75</ele><time>2026-03-29T10:15:58Z</time></trkpt><trkpt lat="44.05032465388977" lon="8.207089092719784"><ele>3.5</ele><time>2026-03-29T10:15:59Z</time></trkpt><trkpt lat="44.050195612069594" lon="8.207039751073264"><ele>4.25</ele><time>2026-03-29T10:16:00Z</time></trkpt><trkpt lat="44.05007362089088" lon="8.206992823711502"><ele>5.0</ele><time>2026-03-29T10:16:01Z</time></trkpt><trkpt lat="44.04994714172058" lon="8.206943810003958"><ele>5.25</ele><time>2026-03-29T10:16:02Z</time></trkpt><trkpt lat="44.04981665191333" lon="8.206894154945827"><ele>5.5</ele><time>2026-03-29T10:16:03Z</time></trkpt><trkpt lat="44.04968218138902" lon="8.206844540937345"><ele>5.75</ele><time>2026-03-29T10:16:04Z</time></trkpt><trkpt lat="44.04954374440341" lon="8.20679668321196"><ele>6.0</ele><time>2026-03-29T10:16:05Z</time></trkpt><trkpt lat="44.04940403341652" lon="8.206753878191295"><ele>6.0</ele><time>2026-03-29T10:16:06Z</time></trkpt><trkpt lat="44.049261533575454" lon="8.206716010782483"><ele>6.0</ele><time>2026-03-29T10:16:07Z</time></trkpt><trkpt lat="44.049115429320594" lon="8.20668837960983"><ele>6.0</ele><time>2026-03-29T10:16:08Z</time></trkpt><trkpt lat="44.04896623042138" lon="8.206665813166797"><ele>6.0</ele><time>2026-03-29T10:16:09Z</time></trkpt><trkpt lat="44.04881470443988" lon="8.206648760491326"><ele>5.5</ele><time>2026-03-29T10:16:10Z</time></trkpt><trkpt lat="44.04866450324635" lon="8.206641608707061"><ele>5.0</ele><time>2026-03-29T10:16:11Z</time></trkpt><trkpt lat="44.048516511951455" lon="8.206640268584628"><ele>4.5</ele><time>2026-03-29T10:16:12Z</time></trkpt><trkpt lat="44.04836909546332" lon="8.20664355195918"><ele>4.0</ele><time>2026-03-29T10:16:13Z</time></trkpt><trkpt lat="44.048221606915476" lon="8.206653740147209"><ele>3.75</ele><time>2026-03-29T10:16:14Z</time></trkpt><trkpt lat="44.04807379136774" lon="8.20667191908644"><ele>3.5</ele><time>2026-03-29T10:16:15Z</time></trkpt><trkpt lat="44.04792593458575" lon="8.206691925605494"><ele>3.25</ele><time>2026-03-29T10:16:16Z</time></trkpt><trkpt lat="44.04777722185091" lon="8.206712515461097"><ele>3.0</ele><time>2026-03-29T10:16:17Z</time></trkpt><trkpt lat="44.04762836892325" lon="8.206733960982167"><ele>3.0</ele><time>2026-03-29T10:16:18Z</time></trkpt><trkpt lat="44.0474791545527" lon="8.206754870525158"><ele>3.0</ele><time>2026-03-29T10:16:19Z</time></trkpt><trkpt lat="44.04732944609761" lon="8.206775205260321"><ele>3.0</ele><time>2026-03-29T10:16:20Z</time></trkpt><trkpt lat="44.04718113618902" lon="8.206799403443608"><ele>3.25</ele><time>2026-03-29T10:16:21Z</time></trkpt><trkpt lat="44.04703312107021" lon="8.206821552973537"><ele>3.5</ele><time>2026-03-29T10:16:22Z</time></trkpt><trkpt lat="44.046886097578785" lon="8.206843858939079"><ele>3.75</ele><time>2026-03-29T10:16:23Z</time></trkpt><trkpt lat="44.04674130249934" lon="8.20686225866284"><ele>4.0</ele><time>2026-03-29T10:16:24Z</time></trkpt><trkpt lat="44.04659598597254" lon="8.206882562532456"><ele>4.0</ele><time>2026-03-29T10:16:25Z</time></trkpt><trkpt lat="44.04644855350794" lon="8.206904466915907"><ele>4.0</ele><time>2026-03-29T10:16:26Z</time></trkpt><trkpt lat="44.0462994214139" lon="8.206926079520333"><ele>4.0</ele><time>2026-03-29T10:16:27Z</time></trkpt><trkpt lat="44.046151484534874" lon="8.2069477829688"><ele>4.0</ele><time>2026-03-29T10:16:28Z</time></trkpt><trkpt lat="44.04600469406379" lon="8.206970139000182"><ele>4.0</ele><time>2026-03-29T10:16:29Z</time></trkpt><trkpt lat="44.045856185869205" lon="8.206990711579014"><ele>4.0</ele><time>2026-03-29T10:16:30Z</time></trkpt><trkpt lat="44.04570528554098" lon="8.207012578002116"><ele>4.0</ele><time>2026-03-29T10:16:31Z</time></trkpt><trkpt lat="44.04555434785047" lon="8.207030818915689"><ele>4.333333333333333</ele><time>2026-03-29T10:16:32Z</time></trkpt><trkpt lat="44.0454041950321" lon="8.20705199226693"><ele>4.666666666666667</ele><time>2026-03-29T10:16:33Z</time></trkpt><trkpt lat="44.04525464932615" lon="8.20707368248477"><ele>5.0</ele><time>2026-03-29T10:16:34Z</time></trkpt><trkpt lat="44.04510318862459" lon="8.20709553216677"><ele>14.0</ele><time>2026-03-29T10:16:35Z</time></trkpt><trkpt lat="44.04495169855427" lon="8.207115163671467"><ele>23.0</ele><time>2026-03-29T10:16:36Z</time></trkpt><trkpt lat="44.04479867859019" lon="8.20713528934326"><ele>32.0</ele><time>2026-03-29T10:16:37Z</time></trkpt><trkpt lat="44.04464435299037" lon="8.20715702797417"><ele>32.0</ele><time>2026-03-29T10:16:38Z</time></trkpt><trkpt lat="44.04448997316002" lon="8.207178797329394"><ele>32.0</ele><time>2026-03-29T10:16:39Z</time></trkpt><trkpt lat="44.04433989953927" lon="8.207200299095756"><ele>32.0</ele><time>2026-03-29T10:16:40Z</time></trkpt><trkpt lat="44.044193578537445" lon="8.207221449217588"><ele>43.5</ele><time>2026-03-29T10:16:41Z</time></trkpt><trkpt lat="44.04404707975177" lon="8.20724040080397"><ele>55.0</ele><time>2026-03-29T10:16:42Z</time></trkpt><trkpt lat="44.04389804093655" lon="8.207265353730056"><ele>66.5</ele><time>2026-03-29T10:16:43Z</time></trkpt><trkpt lat="44.04375229355083" lon="8.207287236871421"><ele>78.0</ele><time>2026-03-29T10:16:44Z</time></trkpt><trkpt lat="44.04360676552512" lon="8.207321530035799"><ele>78.0</ele><time>2026-03-29T10:16:45Z</time></trkpt><trkpt lat="44.04346696019854" lon="8.207342978118154"><ele>78.0</ele><time>2026-03-29T10:16:46Z</time></trkpt><trkpt lat="44.04332860481538" lon="8.207339989649222"><ele>78.0</ele><time>2026-03-29T10:16:47Z</time></trkpt><trkpt lat="44.04318632276185" lon="8.207358839326089"><ele>78.0</ele><time>2026-03-29T10:16:48Z</time></trkpt><trkpt lat="44.043046443829255" lon="8.207377370647482"><ele>78.0</ele><time>2026-03-29T10:16:49Z</time></trkpt><trkpt lat="44.042898638618034" lon="8.207396256449671"><ele>78.0</ele><time>2026-03-29T10:16:50.069Z</time></trkpt><trkpt lat="44.042758509453265" lon="8.207413932494443"><ele>78.0</ele><time>2026-03-29T10:16:51.064Z</time></trkpt><trkpt lat="44.0426178972849" lon="8.207432232441079"><ele>78.0</ele><time>2026-03-29T10:16:52.058Z</time></trkpt><trkpt lat="44.04247834861831" lon="8.207452555674944"><ele>67.5</ele><time>2026-03-29T10:16:53.051Z</time></trkpt><trkpt lat="44.04234454009012" lon="8.20747204295555"><ele>57.0</ele><time>2026-03-29T10:16:54.036Z</time></trkpt><trkpt lat="44.04092541882994" lon="8.207689267609373"><ele>31.0</ele><time>2026-03-29T10:16:57.212Z</time></trkpt><trkpt lat="44.04047772485525" lon="8.20775242580141"><ele>31.0</ele><time>2026-03-29T10:16:58.213Z</time></trkpt><trkpt lat="44.04002995184344" lon="8.207814106643154"><ele>27.5</ele><time>2026-03-29T10:16:59.213Z</time></trkpt><trkpt lat="44.039583189714214" lon="8.207867097219754"><ele>24.0</ele><time>2026-03-29T10:17:00.209Z</time></trkpt><trkpt lat="44.0394019850943" lon="8.207779194378826"><ele>24.0</ele><time>2026-03-29T10:17:17Z</time></trkpt><trkpt lat="44.0392871807244" lon="8.207792536716237"><ele>24.0</ele><time>2026-03-29T10:17:18Z</time></trkpt><trkpt lat="44.03906997218777" lon="8.207900628373157"><ele>24.0</ele><time>2026-03-29T10:17:19Z</time></trkpt><trkpt lat="44.03892185044591" lon="8.207889036111572"><ele>22.8</ele><time>2026-03-29T10:17:21Z</time></trkpt><trkpt lat="44.03882024866366" lon="8.207872537955739"><ele>21.599999999999998</ele><time>2026-03-29T10:17:22Z</time></trkpt><trkpt lat="44.03871288018953" lon="8.207872267358916"><ele>20.4</ele><time>2026-03-29T10:17:23Z</time></trkpt><trkpt lat="44.03861436658842" lon="8.207861329803281"><ele>19.2</ele><time>2026-03-29T10:17:24Z</time></trkpt><trkpt lat="44.03851287194681" lon="8.207853903907385"><ele>18.0</ele><time>2026-03-29T10:17:25Z</time></trkpt><trkpt lat="44.03841812549472" lon="8.20784061561004"><ele>18.0</ele><time>2026-03-29T10:17:26Z</time></trkpt><trkpt lat="44.038322225227525" lon="8.207830968392342"><ele>18.0</ele><time>2026-03-29T10:17:27Z</time></trkpt><trkpt lat="44.03822742871265" lon="8.207820112829028"><ele>18.0</ele><time>2026-03-29T10:17:28Z</time></trkpt><trkpt lat="44.03811958945195" lon="8.20781920143775"><ele>18.0</ele><time>2026-03-29T10:17:29Z</time></trkpt><trkpt lat="44.03800632098428" lon="8.207811665633105"><ele>18.0</ele><time>2026-03-29T10:17:30Z</time></trkpt><trkpt lat="44.03789097057078" lon="8.207796373990076"><ele>18.75</ele><time>2026-03-29T10:17:31Z</time></trkpt><trkpt lat="44.03776695944696" lon="8.207778117643533"><ele>19.5</ele><time>2026-03-29T10:17:32Z</time></trkpt><trkpt lat="44.03763253965451" lon="8.207762434726316"><ele>20.25</ele><time>2026-03-29T10:17:33Z</time></trkpt><trkpt lat="44.037492745689185" lon="8.207753962556193"><ele>21.0</ele><time>2026-03-29T10:17:33.999Z</time></trkpt><trkpt lat="44.03735262526414" lon="8.207748167031099"><ele>21.0</ele><time>2026-03-29T10:17:34.999Z</time></trkpt><trkpt lat="44.03721486378967" lon="8.207741999538113"><ele>21.0</ele><time>2026-03-29T10:17:35.999Z</time></trkpt><trkpt lat="44.03707449378239" lon="8.207741802937525"><ele>21.0</ele><time>2026-03-29T10:17:36.999Z</time></trkpt><trkpt lat="44.03693539481247" lon="8.207738142418357"><ele>21.0</ele><time>2026-03-29T10:17:37.999Z</time></trkpt><trkpt lat="44.03679795930607" lon="8.2077304113935"><ele>21.0</ele><time>2026-03-29T10:17:39Z</time></trkpt><trkpt lat="44.036661383654646" lon="8.207728878372059"><ele>21.0</ele><time>2026-03-29T10:17:40Z</time></trkpt><trkpt lat="44.03652365916327" lon="8.207716458969102"><ele>21.0</ele><time>2026-03-29T10:17:41Z</time></trkpt><trkpt lat="44.03638627606461" lon="8.207682843041537"><ele>21.0</ele><time>2026-03-29T10:17:42Z</time></trkpt><trkpt lat="44.0362527303186" lon="8.20760821223654"><ele>19.25</ele><time>2026-03-29T10:17:43Z</time></trkpt><trkpt lat="44.03612216108183" lon="8.207532603493629"><ele>17.5</ele><time>2026-03-29T10:17:44Z</time></trkpt><trkpt lat="44.03598636670298" lon="8.207491489922274"><ele>15.75</ele><time>2026-03-29T10:17:45Z</time></trkpt><trkpt lat="44.035843778170886" lon="8.207477520869256"><ele>14.0</ele><time>2026-03-29T10:17:46Z</time></trkpt><trkpt lat="44.035699971310315" lon="8.207485051089867"><ele>14.0</ele><time>2026-03-29T10:17:47Z</time></trkpt><trkpt lat="44.035553056427986" lon="8.20750096584028"><ele>14.0</ele><time>2026-03-29T10:17:48Z</time></trkpt><trkpt lat="44.03540524146353" lon="8.207516565967259"><ele>14.0</ele><time>2026-03-29T10:17:49Z</time></trkpt><trkpt lat="44.03525732191896" lon="8.207528167224575"><ele>14.0</ele><time>2026-03-29T10:17:50Z</time></trkpt><trkpt lat="44.03511475663892" lon="8.207540225265"><ele>14.0</ele><time>2026-03-29T10:17:51Z</time></trkpt><trkpt lat="44.03497872126117" lon="8.207553573685718"><ele>14.0</ele><time>2026-03-29T10:17:52Z</time></trkpt><trkpt lat="44.03484802366097" lon="8.207557961200456"><ele>14.0</ele><time>2026-03-29T10:17:53Z</time></trkpt><trkpt lat="44.03471805857874" lon="8.207546480847745"><ele>14.0</ele><time>2026-03-29T10:17:54Z</time></trkpt><trkpt lat="44.03458620370753" lon="8.207505258950016"><ele>14.25</ele><time>2026-03-29T10:17:55Z</time></trkpt><trkpt lat="44.03445505080419" lon="8.207444502828563"><ele>14.5</ele><time>2026-03-29T10:17:56Z</time></trkpt><trkpt lat="44.03432344713789" lon="8.207366889694663"><ele>14.75</ele><time>2026-03-29T10:17:57Z</time></trkpt><trkpt lat="44.03418920477283" lon="8.207279553041658"><ele>15.0</ele><time>2026-03-29T10:17:58Z</time></trkpt><trkpt lat="44.034044453587775" lon="8.207189057187485"><ele>17.333333333333332</ele><time>2026-03-29T10:17:59Z</time></trkpt><trkpt lat="44.03388896074571" lon="8.207090019272792"><ele>19.666666666666664</ele><time>2026-03-29T10:18:00Z</time></trkpt><trkpt lat="44.03373257119239" lon="8.20698506486619"><ele>22.0</ele><time>2026-03-29T10:18:01Z</time></trkpt><trkpt lat="44.03357519099408" lon="8.206873367685269"><ele>22.0</ele><time>2026-03-29T10:18:02Z</time></trkpt><trkpt lat="44.03341500107941" lon="8.206760083229637"><ele>22.0</ele><time>2026-03-29T10:18:03Z</time></trkpt><trkpt lat="44.033249795834536" lon="8.206651408030055"><ele>22.0</ele><time>2026-03-29T10:18:04Z</time></trkpt><trkpt lat="44.03308192529417" lon="8.206541670298014"><ele>21.666666666666664</ele><time>2026-03-29T10:18:05Z</time></trkpt><trkpt lat="44.03291420161454" lon="8.206432394418181"><ele>21.333333333333332</ele><time>2026-03-29T10:18:06Z</time></trkpt><trkpt lat="44.03275178935339" lon="8.206323015895768"><ele>21.0</ele><time>2026-03-29T10:18:07Z</time></trkpt><trkpt lat="44.032607157900166" lon="8.206211658505996"><ele>21.0</ele><time>2026-03-29T10:18:08Z</time></trkpt><trkpt lat="44.03248738653799" lon="8.206080639796488"><ele>21.0</ele><time>2026-03-29T10:18:09Z</time></trkpt><trkpt lat="44.03239660561706" lon="8.205920999233177"><ele>21.0</ele><time>2026-03-29T10:18:10Z</time></trkpt><trkpt lat="44.03233327118023" lon="8.205732737115826"><ele>21.0</ele><time>2026-03-29T10:18:11Z</time></trkpt><trkpt lat="44.03229746022434" lon="8.205543014479108"><ele>16.5</ele><time>2026-03-29T10:18:12Z</time></trkpt><trkpt lat="44.032283602870265" lon="8.205357075271728"><ele>12.0</ele><time>2026-03-29T10:18:13Z</time></trkpt><trkpt lat="44.03229597380876" lon="8.205169208341776"><ele>7.5</ele><time>2026-03-29T10:18:14Z</time></trkpt><trkpt lat="44.03232929161142" lon="8.204980757822584"><ele>3.0</ele><time>2026-03-29T10:18:15Z</time></trkpt><trkpt lat="44.032379320901995" lon="8.204794519220103"><ele>3.0</ele><time>2026-03-29T10:18:16Z</time></trkpt><trkpt lat="44.0324144952897" lon="8.204605289583338"><ele>3.0</ele><time>2026-03-29T10:18:17Z</time></trkpt><trkpt lat="44.03242334841693" lon="8.204410511731995"><ele>3.0</ele><time>2026-03-29T10:18:18Z</time></trkpt><trkpt lat="44.03241350624942" lon="8.2042136193358"><ele>3.0</ele><time>2026-03-29T10:18:19Z</time></trkpt><trkpt lat="44.03238053586701" lon="8.204020136689296"><ele>4.25</ele><time>2026-03-29T10:18:20Z</time></trkpt><trkpt lat="44.03232543295697" lon="8.203836269889818"><ele>5.5</ele><time>2026-03-29T10:18:21Z</time></trkpt><trkpt lat="44.032246861329156" lon="8.203664165134763"><ele>6.75</ele><time>2026-03-29T10:18:22Z</time></trkpt><trkpt lat="44.03215553716098" lon="8.203497864629826"><ele>8.0</ele><time>2026-03-29T10:18:23Z</time></trkpt><trkpt lat="44.032062729018016" lon="8.203327545356599"><ele>14.666666666666668</ele><time>2026-03-29T10:18:24Z</time></trkpt><trkpt lat="44.03196815650291" lon="8.20316180163953"><ele>21.333333333333336</ele><time>2026-03-29T10:18:25Z</time></trkpt><trkpt lat="44.0318610963086" lon="8.203006790915818"><ele>28.0</ele><time>2026-03-29T10:18:26Z</time></trkpt><trkpt lat="44.03174757809862" lon="8.20287284067334"><ele>22.75</ele><time>2026-03-29T10:18:27Z</time></trkpt><trkpt lat="44.031632650081086" lon="8.202747582021928"><ele>17.5</ele><time>2026-03-29T10:18:28Z</time></trkpt><trkpt lat="44.031514446645346" lon="8.202620007981782"><ele>12.25</ele><time>2026-03-29T10:18:29Z</time></trkpt><trkpt lat="44.03139925680254" lon="8.202485942616654"><ele>7.0</ele><time>2026-03-29T10:18:30Z</time></trkpt><trkpt lat="44.03128611748109" lon="8.202352985163442"><ele>7.75</ele><time>2026-03-29T10:18:31Z</time></trkpt><trkpt lat="44.031175937187065" lon="8.202226852611169"><ele>8.5</ele><time>2026-03-29T10:18:32Z</time></trkpt><trkpt lat="44.0310576947875" lon="8.202107608322468"><ele>9.25</ele><time>2026-03-29T10:18:33Z</time></trkpt><trkpt lat="44.030933446535734" lon="8.201989609498199"><ele>10.0</ele><time>2026-03-29T10:18:34Z</time></trkpt><trkpt lat="44.030804852325176" lon="8.201875512014883"><ele>10.0</ele><time>2026-03-29T10:18:35Z</time></trkpt><trkpt lat="44.03068587091193" lon="8.201772643637327"><ele>10.0</ele><time>2026-03-29T10:18:36Z</time></trkpt><trkpt lat="44.030573445673504" lon="8.2016732932267"><ele>10.0</ele><time>2026-03-29T10:18:37Z</time></trkpt><trkpt lat="44.03045958917879" lon="8.201573120573016"><ele>10.0</ele><time>2026-03-29T10:18:38Z</time></trkpt><trkpt lat="44.03034022685764" lon="8.201471194934953"><ele>12.25</ele><time>2026-03-29T10:18:39Z</time></trkpt><trkpt lat="44.03022089725195" lon="8.201369070181237"><ele>14.5</ele><time>2026-03-29T10:18:40Z</time></trkpt><trkpt lat="44.03010731075862" lon="8.201272351416943"><ele>16.75</ele><time>2026-03-29T10:18:41Z</time></trkpt><trkpt lat="44.02999550606375" lon="8.201178041916824"><ele>19.0</ele><time>2026-03-29T10:18:42Z</time></trkpt><trkpt lat="44.029880466983336" lon="8.20108781425675"><ele>19.0</ele><time>2026-03-29T10:18:43Z</time></trkpt><trkpt lat="44.029765526936096" lon="8.200999643385105"><ele>19.0</ele><time>2026-03-29T10:18:44Z</time></trkpt><trkpt lat="44.02965602698557" lon="8.200920760167081"><ele>19.0</ele><time>2026-03-29T10:18:45Z</time></trkpt><trkpt lat="44.02954275999246" lon="8.200839295009558"><ele>19.0</ele><time>2026-03-29T10:18:46Z</time></trkpt><trkpt lat="44.02942654900487" lon="8.200755284432402"><ele>19.0</ele><time>2026-03-29T10:18:47Z</time></trkpt><trkpt lat="44.02931017785899" lon="8.200669786058674"><ele>19.0</ele><time>2026-03-29T10:18:48Z</time></trkpt><trkpt lat="44.029194005004456" lon="8.200582472522735"><ele>19.0</ele><time>2026-03-29T10:18:49Z</time></trkpt><trkpt lat="44.02907378387073" lon="8.200496898590295"><ele>19.0</ele><time>2026-03-29T10:18:50Z</time></trkpt><trkpt lat="44.0289536632408" lon="8.200405524316325"><ele>21.0</ele><time>2026-03-29T10:18:51Z</time></trkpt><trkpt lat="44.028832236478394" lon="8.200314806274749"><ele>23.0</ele><time>2026-03-29T10:18:52Z</time></trkpt><trkpt lat="44.02871104564114" lon="8.200219223591692"><ele>25.0</ele><time>2026-03-29T10:18:53Z</time></trkpt><trkpt lat="44.02859390049918" lon="8.200123648873724"><ele>27.0</ele><time>2026-03-29T10:18:54Z</time></trkpt><trkpt lat="44.02848681747548" lon="8.200030153650314"><ele>27.0</ele><time>2026-03-29T10:18:55Z</time></trkpt><trkpt lat="44.02838619836028" lon="8.199936502143874"><ele>27.0</ele><time>2026-03-29T10:18:56Z</time></trkpt><trkpt lat="44.0282831867619" lon="8.1998385399716"><ele>27.0</ele><time>2026-03-29T10:18:57Z</time></trkpt><trkpt lat="44.02818798140163" lon="8.199728449314179"><ele>27.0</ele><time>2026-03-29T10:18:58Z</time></trkpt><trkpt lat="44.0280995510505" lon="8.19961144134844"><ele>26.0</ele><time>2026-03-29T10:18:59Z</time></trkpt><trkpt lat="44.0280190142261" lon="8.199489460053899"><ele>25.0</ele><time>2026-03-29T10:19:00Z</time></trkpt><trkpt lat="44.027936329090466" lon="8.199378106940653"><ele>24.0</ele><time>2026-03-29T10:19:01Z</time></trkpt><trkpt lat="44.027845698004" lon="8.19927553131529"><ele>23.0</ele><time>2026-03-29T10:19:02Z</time></trkpt><trkpt lat="44.027743406279576" lon="8.199192514435618"><ele>23.0</ele><time>2026-03-29T10:19:03Z</time></trkpt><trkpt lat="44.027638399780685" lon="8.199129617196041"><ele>23.0</ele><time>2026-03-29T10:19:04Z</time></trkpt><trkpt lat="44.02753777183661" lon="8.199086244314179"><ele>23.0</ele><time>2026-03-29T10:19:05Z</time></trkpt><trkpt lat="44.02744103450708" lon="8.199050855010498"><ele>23.0</ele><time>2026-03-29T10:19:06Z</time></trkpt><trkpt lat="44.02733806989392" lon="8.199008454161508"><ele>23.0</ele><time>2026-03-29T10:19:07Z</time></trkpt><trkpt lat="44.02723531026875" lon="8.19894131193281"><ele>23.5</ele><time>2026-03-29T10:19:08Z</time></trkpt><trkpt lat="44.02713462779643" lon="8.198855058251624"><ele>24.0</ele><time>2026-03-29T10:19:09Z</time></trkpt><trkpt lat="44.02703843630589" lon="8.198760409555447"><ele>24.5</ele><time>2026-03-29T10:19:10Z</time></trkpt><trkpt lat="44.0269457938842" lon="8.198676668324614"><ele>25.0</ele><time>2026-03-29T10:19:11Z</time></trkpt><trkpt lat="44.02685776026143" lon="8.198599454842979"><ele>25.0</ele><time>2026-03-29T10:19:12Z</time></trkpt><trkpt lat="44.02676989051359" lon="8.19851411081622"><ele>25.0</ele><time>2026-03-29T10:19:13Z</time></trkpt><trkpt lat="44.02668173660676" lon="8.198415585727954"><ele>25.0</ele><time>2026-03-29T10:19:14Z</time></trkpt><trkpt lat="44.026597905880905" lon="8.198303666497537"><ele>25.0</ele><time>2026-03-29T10:19:15Z</time></trkpt><trkpt lat="44.02651632957057" lon="8.198181147765125"><ele>27.0</ele><time>2026-03-29T10:19:16Z</time></trkpt><trkpt lat="44.02643266812109" lon="8.19805316334399"><ele>29.0</ele><time>2026-03-29T10:19:17Z</time></trkpt><trkpt lat="44.02634432283771" lon="8.197931509820418"><ele>31.0</ele><time>2026-03-29T10:19:18Z</time></trkpt><trkpt lat="44.02625479688775" lon="8.197816724026069"><ele>33.0</ele><time>2026-03-29T10:19:19Z</time></trkpt><trkpt lat="44.026162882772915" lon="8.197711067854677"><ele>33.0</ele><time>2026-03-29T10:19:20Z</time></trkpt><trkpt lat="44.02606172117289" lon="8.197626013025223"><ele>33.0</ele><time>2026-03-29T10:19:21Z</time></trkpt><trkpt lat="44.02595326146319" lon="8.197562611700567"><ele>33.0</ele><time>2026-03-29T10:19:22Z</time></trkpt><trkpt lat="44.025844407349034" lon="8.197498723014391"><ele>33.0</ele><time>2026-03-29T10:19:23Z</time></trkpt><trkpt lat="44.0257407062234" lon="8.197417891493185"><ele>31.4</ele><time>2026-03-29T10:19:24Z</time></trkpt><trkpt lat="44.025659610593834" lon="8.19730483205995"><ele>29.799999999999997</ele><time>2026-03-29T10:19:25Z</time></trkpt><trkpt lat="44.025595598839175" lon="8.197176788495733"><ele>28.2</ele><time>2026-03-29T10:19:26Z</time></trkpt><trkpt lat="44.02554922159312" lon="8.197045342125541"><ele>26.6</ele><time>2026-03-29T10:19:27Z</time></trkpt><trkpt lat="44.02550991317841" lon="8.196938629091473"><ele>25.0</ele><time>2026-03-29T10:19:28Z</time></trkpt><trkpt lat="44.025458785883515" lon="8.196856376032672"><ele>25.0</ele><time>2026-03-29T10:19:29Z</time></trkpt><trkpt lat="44.02540910572331" lon="8.196793333607374"><ele>25.0</ele><time>2026-03-29T10:19:30Z</time></trkpt><trkpt lat="44.025322367499314" lon="8.196710410349763"><ele>25.0</ele><time>2026-03-29T10:19:32Z</time></trkpt><trkpt lat="44.025241576781774" lon="8.196580313531987"><ele>25.0</ele><time>2026-03-29T10:19:34Z</time></trkpt><trkpt lat="44.025208942390975" lon="8.196472907395659"><ele>25.0</ele><time>2026-03-29T10:19:35Z</time></trkpt><trkpt lat="44.02517374450187" lon="8.196339900880158"><ele>27.666666666666668</ele><time>2026-03-29T10:19:36Z</time></trkpt><trkpt lat="44.02514527204746" lon="8.196200291042304"><ele>30.333333333333336</ele><time>2026-03-29T10:19:37Z</time></trkpt><trkpt lat="44.02512109845487" lon="8.196083834919147"><ele>33.0</ele><time>2026-03-29T10:19:37.999Z</time></trkpt><trkpt lat="44.02509610406469" lon="8.195965408511212"><ele>35.666666666666664</ele><time>2026-03-29T10:19:38.999Z</time></trkpt><trkpt lat="44.025071828238076" lon="8.195856873974273"><ele>38.33333333333333</ele><time>2026-03-29T10:19:39.999Z</time></trkpt><trkpt lat="44.02504104124639" lon="8.195757362852078"><ele>41.0</ele><time>2026-03-29T10:19:40.999Z</time></trkpt><trkpt lat="44.024991102498156" lon="8.19567262073081"><ele>36.4</ele><time>2026-03-29T10:19:41.999Z</time></trkpt><trkpt lat="44.024922715166376" lon="8.1955984822877"><ele>31.799999999999997</ele><time>2026-03-29T10:19:42.999Z</time></trkpt><trkpt lat="44.02485433712341" lon="8.195521148489593"><ele>27.2</ele><time>2026-03-29T10:19:43.999Z</time></trkpt><trkpt lat="44.024786445917236" lon="8.195431488509803"><ele>22.6</ele><time>2026-03-29T10:19:45Z</time></trkpt><trkpt lat="44.02472735926154" lon="8.195326188239374"><ele>18.0</ele><time>2026-03-29T10:19:46Z</time></trkpt><trkpt lat="44.02468670947743" lon="8.195194670152388"><ele>18.0</ele><time>2026-03-29T10:19:47Z</time></trkpt><trkpt lat="44.0246688199041" lon="8.195047450634124"><ele>18.0</ele><time>2026-03-29T10:19:48Z</time></trkpt><trkpt lat="44.02464382382821" lon="8.194891968506628"><ele>18.0</ele><time>2026-03-29T10:19:49Z</time></trkpt><trkpt lat="44.0245971081291" lon="8.19476235659882"><ele>18.0</ele><time>2026-03-29T10:19:50Z</time></trkpt><trkpt lat="44.02453383688075" lon="8.194650693328182"><ele>18.0</ele><time>2026-03-29T10:19:51Z</time></trkpt><trkpt lat="44.02445956056118" lon="8.194547010588309"><ele>16.5</ele><time>2026-03-29T10:19:52Z</time></trkpt><trkpt lat="44.0243709362824" lon="8.194451136286116"><ele>15.0</ele><time>2026-03-29T10:19:53Z</time></trkpt><trkpt lat="44.02426972667622" lon="8.194348599028817"><ele>13.5</ele><time>2026-03-29T10:19:54Z</time></trkpt><trkpt lat="44.02415971942088" lon="8.194234080756795"><ele>12.0</ele><time>2026-03-29T10:19:55Z</time></trkpt><trkpt lat="44.02403999202467" lon="8.194115691946683"><ele>19.75</ele><time>2026-03-29T10:19:56Z</time></trkpt><trkpt lat="44.02391990349213" lon="8.193986566457287"><ele>27.5</ele><time>2026-03-29T10:19:57Z</time></trkpt><trkpt lat="44.02380334285492" lon="8.193847897905648"><ele>35.25</ele><time>2026-03-29T10:19:58Z</time></trkpt><trkpt lat="44.02369155725651" lon="8.193727502355507"><ele>43.0</ele><time>2026-03-29T10:19:59Z</time></trkpt><trkpt lat="44.02358605769203" lon="8.193618019528834"><ele>43.0</ele><time>2026-03-29T10:20:00Z</time></trkpt><trkpt lat="44.02348397626664" lon="8.193520298373896"><ele>43.0</ele><time>2026-03-29T10:20:01Z</time></trkpt><trkpt lat="44.02338147563158" lon="8.193440243920815"><ele>43.0</ele><time>2026-03-29T10:20:02Z</time></trkpt><trkpt lat="44.02327460510615" lon="8.193362680061608"><ele>43.0</ele><time>2026-03-29T10:20:03Z</time></trkpt><trkpt lat="44.023172176970434" lon="8.193291183896108"><ele>40.75</ele><time>2026-03-29T10:20:04Z</time></trkpt><trkpt lat="44.02308018618296" lon="8.193212136944247"><ele>38.5</ele><time>2026-03-29T10:20:05Z</time></trkpt><trkpt lat="44.0229998159701" lon="8.19310836429031"><ele>36.25</ele><time>2026-03-29T10:20:06Z</time></trkpt><trkpt lat="44.022934008038106" lon="8.192984751819395"><ele>34.0</ele><time>2026-03-29T10:20:07Z</time></trkpt><trkpt lat="44.02288278918336" lon="8.192831239773849"><ele>34.0</ele><time>2026-03-29T10:20:08Z</time></trkpt><trkpt lat="44.02281821479673" lon="8.192668864117941"><ele>34.0</ele><time>2026-03-29T10:20:09Z</time></trkpt><trkpt lat="44.02274787825512" lon="8.192498534040116"><ele>34.0</ele><time>2026-03-29T10:20:10Z</time></trkpt><trkpt lat="44.02268006367563" lon="8.192320555269456"><ele>34.0</ele><time>2026-03-29T10:20:11Z</time></trkpt><trkpt lat="44.02261914809605" lon="8.192156309118797"><ele>34.5</ele><time>2026-03-29T10:20:12Z</time></trkpt><trkpt lat="44.02256244739909" lon="8.192008591868204"><ele>35.0</ele><time>2026-03-29T10:20:13Z</time></trkpt><trkpt lat="44.02249284569974" lon="8.19187289442912"><ele>35.5</ele><time>2026-03-29T10:20:14Z</time></trkpt><trkpt lat="44.02238974482516" lon="8.191758139387744"><ele>36.0</ele><time>2026-03-29T10:20:15Z</time></trkpt><trkpt lat="44.022275877378" lon="8.191687210684861"><ele>36.0</ele><time>2026-03-29T10:20:16Z</time></trkpt><trkpt lat="44.02214680670566" lon="8.19165246201098"><ele>36.0</ele><time>2026-03-29T10:20:17Z</time></trkpt><trkpt lat="44.022004804957206" lon="8.191595984987297"><ele>36.0</ele><time>2026-03-29T10:20:18Z</time></trkpt><trkpt lat="44.02184550163276" lon="8.191560501692901"><ele>36.0</ele><time>2026-03-29T10:20:19Z</time></trkpt><trkpt lat="44.02168151234058" lon="8.191490375447666"><ele>44.33333333333333</ele><time>2026-03-29T10:20:20Z</time></trkpt><trkpt lat="44.021511234334625" lon="8.191418060652516"><ele>52.666666666666664</ele><time>2026-03-29T10:20:21Z</time></trkpt><trkpt lat="44.02133579585153" lon="8.191348319226762"><ele>61.0</ele><time>2026-03-29T10:20:22Z</time></trkpt><trkpt lat="44.02115509965502" lon="8.191277809724083"><ele>61.0</ele><time>2026-03-29T10:20:23Z</time></trkpt><trkpt lat="44.020968712883416" lon="8.19121004234056"><ele>61.0</ele><time>2026-03-29T10:20:24Z</time></trkpt><trkpt lat="44.020776437492245" lon="8.191150872022797"><ele>61.0</ele><time>2026-03-29T10:20:25Z</time></trkpt><trkpt lat="44.02058253674092" lon="8.191098747688235"><ele>57.666666666666664</ele><time>2026-03-29T10:20:26Z</time></trkpt><trkpt lat="44.020386353888306" lon="8.191046674828339"><ele>54.33333333333333</ele><time>2026-03-29T10:20:27Z</time></trkpt><trkpt lat="44.020190444206904" lon="8.190987569195173"><ele>51.0</ele><time>2026-03-29T10:20:28Z</time></trkpt><trkpt lat="44.01999422032338" lon="8.190926215523573"><ele>48.666666666666664</ele><time>2026-03-29T10:20:29Z</time></trkpt><trkpt lat="44.01979800781734" lon="8.190863807772478"><ele>46.33333333333333</ele><time>2026-03-29T10:20:30Z</time></trkpt><trkpt lat="44.01960257911674" lon="8.190799549896104"><ele>44.0</ele><time>2026-03-29T10:20:31Z</time></trkpt><trkpt lat="44.01940990252959" lon="8.19073602712702"><ele>44.0</ele><time>2026-03-29T10:20:32Z</time></trkpt><trkpt lat="44.01921877148678" lon="8.190678810455342"><ele>44.0</ele><time>2026-03-29T10:20:33Z</time></trkpt><trkpt lat="44.019050250562735" lon="8.19063458176854"><ele>44.0</ele><time>2026-03-29T10:20:34Z</time></trkpt><trkpt lat="44.01890515393875" lon="8.190615735206064"><ele>50.25</ele><time>2026-03-29T10:20:35Z</time></trkpt><trkpt lat="44.018775748791604" lon="8.19065241555084"><ele>56.5</ele><time>2026-03-29T10:20:36Z</time></trkpt><trkpt lat="44.01864288427259" lon="8.190737607660973"><ele>62.75</ele><time>2026-03-29T10:20:37Z</time></trkpt><trkpt lat="44.01851339866321" lon="8.190837925112518"><ele>69.0</ele><time>2026-03-29T10:20:38Z</time></trkpt><trkpt lat="44.01837017907812" lon="8.190922737940193"><ele>71.66666666666667</ele><time>2026-03-29T10:20:39Z</time></trkpt><trkpt lat="44.01822042031479" lon="8.191002897876295"><ele>74.33333333333334</ele><time>2026-03-29T10:20:40Z</time></trkpt><trkpt lat="44.0180649278897" lon="8.191082990435646"><ele>77.0</ele><time>2026-03-29T10:20:41Z</time></trkpt><trkpt lat="44.017903419520486" lon="8.191161321341584"><ele>77.0</ele><time>2026-03-29T10:20:42Z</time></trkpt><trkpt lat="44.01773330061368" lon="8.191247479278948"><ele>77.0</ele><time>2026-03-29T10:20:43Z</time></trkpt><trkpt lat="44.01755541272201" lon="8.191341263721004"><ele>77.0</ele><time>2026-03-29T10:20:44Z</time></trkpt><trkpt lat="44.017373847903514" lon="8.191441588031887"><ele>62.66666666666667</ele><time>2026-03-29T10:20:45Z</time></trkpt><trkpt lat="44.017184032866645" lon="8.191531374140409"><ele>48.333333333333336</ele><time>2026-03-29T10:20:46Z</time></trkpt><trkpt lat="44.01701079294071" lon="8.191608833727063"><ele>34.0</ele><time>2026-03-29T10:20:47Z</time></trkpt><trkpt lat="44.01685170558446" lon="8.191678528321466"><ele>34.0</ele><time>2026-03-29T10:20:48Z</time></trkpt><trkpt lat="44.016711639775394" lon="8.19173534142459"><ele>34.0</ele><time>2026-03-29T10:20:49Z</time></trkpt><trkpt lat="44.01658505238662" lon="8.191764830378323"><ele>34.0</ele><time>2026-03-29T10:20:50Z</time></trkpt><trkpt lat="44.016475757350335" lon="8.19175490814776"><ele>34.0</ele><time>2026-03-29T10:20:51Z</time></trkpt><trkpt lat="44.01637229797166" lon="8.191695198231903"><ele>30.25</ele><time>2026-03-29T10:20:52Z</time></trkpt><trkpt lat="44.01628563098081" lon="8.191583356945957"><ele>26.5</ele><time>2026-03-29T10:20:53Z</time></trkpt><trkpt lat="44.01622206835949" lon="8.191433550411283"><ele>22.75</ele><time>2026-03-29T10:20:54Z</time></trkpt><trkpt lat="44.01619664515033" lon="8.191264988170989"><ele>19.0</ele><time>2026-03-29T10:20:55Z</time></trkpt><trkpt lat="44.01621071144647" lon="8.1910931769275"><ele>19.0</ele><time>2026-03-29T10:20:56Z</time></trkpt><trkpt lat="44.01625071254196" lon="8.190901694848721"><ele>19.0</ele><time>2026-03-29T10:20:57Z</time></trkpt><trkpt lat="44.01627946312698" lon="8.190708084418088"><ele>19.0</ele><time>2026-03-29T10:20:58Z</time></trkpt><trkpt lat="44.01631044447896" lon="8.190510777663476"><ele>19.0</ele><time>2026-03-29T10:20:59Z</time></trkpt><trkpt lat="44.01634627169173" lon="8.190299809489867"><ele>17.0</ele><time>2026-03-29T10:21:00Z</time></trkpt><trkpt lat="44.01637769072467" lon="8.19008322825894"><ele>15.0</ele><time>2026-03-29T10:21:01Z</time></trkpt><trkpt lat="44.016411558985894" lon="8.18985961932263"><ele>13.0</ele><time>2026-03-29T10:21:02Z</time></trkpt><trkpt lat="44.01644106133683" lon="8.189660074893991"><ele>13.25</ele><time>2026-03-29T10:21:03Z</time></trkpt><trkpt lat="44.01645820751352" lon="8.189464751887167"><ele>13.5</ele><time>2026-03-29T10:21:04Z</time></trkpt><trkpt lat="44.01646055546417" lon="8.189273377956443"><ele>13.75</ele><time>2026-03-29T10:21:05Z</time></trkpt><trkpt lat="44.016444909326964" lon="8.18909637651179"><ele>14.0</ele><time>2026-03-29T10:21:06Z</time></trkpt><trkpt lat="44.01639456251603" lon="8.188934637485799"><ele>14.0</ele><time>2026-03-29T10:21:07Z</time></trkpt><trkpt lat="44.016309615047476" lon="8.188780586513017"><ele>14.0</ele><time>2026-03-29T10:21:08Z</time></trkpt><trkpt lat="44.016222903181436" lon="8.188629572462236"><ele>14.0</ele><time>2026-03-29T10:21:09Z</time></trkpt><trkpt lat="44.016170121097815" lon="8.188459202269788"><ele>14.0</ele><time>2026-03-29T10:21:10Z</time></trkpt><trkpt lat="44.01613265244313" lon="8.188262442034459"><ele>15.0</ele><time>2026-03-29T10:21:11Z</time></trkpt><trkpt lat="44.01611035344378" lon="8.18804923683362"><ele>16.0</ele><time>2026-03-29T10:21:12Z</time></trkpt><trkpt lat="44.01608655968182" lon="8.18782986755224"><ele>17.0</ele><time>2026-03-29T10:21:13Z</time></trkpt><trkpt lat="44.01606186037873" lon="8.187612231100408"><ele>17.0</ele><time>2026-03-29T10:21:14Z</time></trkpt><trkpt lat="44.016031493130704" lon="8.18738845743176"><ele>17.0</ele><time>2026-03-29T10:21:15Z</time></trkpt><trkpt lat="44.0159982822503" lon="8.187163026876805"><ele>17.0</ele><time>2026-03-29T10:21:16Z</time></trkpt><trkpt lat="44.01595759495481" lon="8.186934158991606"><ele>17.666666666666668</ele><time>2026-03-29T10:21:17Z</time></trkpt><trkpt lat="44.01591678165597" lon="8.186705765844778"><ele>18.333333333333332</ele><time>2026-03-29T10:21:18Z</time></trkpt><trkpt lat="44.01587492257148" lon="8.186473504726662"><ele>19.0</ele><time>2026-03-29T10:21:19Z</time></trkpt><trkpt lat="44.0158296582053" lon="8.186239895895277"><ele>14.333333333333332</ele><time>2026-03-29T10:21:20Z</time></trkpt><trkpt lat="44.01578042949721" lon="8.186003013227337"><ele>9.666666666666666</ele><time>2026-03-29T10:21:21Z</time></trkpt><trkpt lat="44.015727003425205" lon="8.185761069140352"><ele>5.0</ele><time>2026-03-29T10:21:22Z</time></trkpt><trkpt lat="44.01567369523005" lon="8.18551866548817"><ele>5.0</ele><time>2026-03-29T10:21:23Z</time></trkpt><trkpt lat="44.0156157827083" lon="8.18527850111242"><ele>5.0</ele><time>2026-03-29T10:21:24Z</time></trkpt><trkpt lat="44.015554044879075" lon="8.185037366152015"><ele>5.0</ele><time>2026-03-29T10:21:25Z</time></trkpt><trkpt lat="44.01548767143987" lon="8.184796992426042"><ele>6.666666666666667</ele><time>2026-03-29T10:21:26Z</time></trkpt><trkpt lat="44.01541426110018" lon="8.18455963453979"><ele>8.333333333333334</ele><time>2026-03-29T10:21:27Z</time></trkpt><trkpt lat="44.015339546027164" lon="8.184326024762521"><ele>10.0</ele><time>2026-03-29T10:21:28Z</time></trkpt><trkpt lat="44.01527119482875" lon="8.18411300737327"><ele>12.25</ele><time>2026-03-29T10:21:29Z</time></trkpt><trkpt lat="44.0152094156223" lon="8.183930879781974"><ele>14.5</ele><time>2026-03-29T10:21:30Z</time></trkpt><trkpt lat="44.015148632737954" lon="8.18375697889585"><ele>16.75</ele><time>2026-03-29T10:21:31Z</time></trkpt><trkpt lat="44.01508887858238" lon="8.183592295638746"><ele>19.0</ele><time>2026-03-29T10:21:32Z</time></trkpt><trkpt lat="44.015032598770745" lon="8.183430048215051"><ele>17.0</ele><time>2026-03-29T10:21:33Z</time></trkpt><trkpt lat="44.01497903289186" lon="8.183276528518626"><ele>15.0</ele><time>2026-03-29T10:21:34Z</time></trkpt><trkpt lat="44.01492862899527" lon="8.183137202180408"><ele>13.0</ele><time>2026-03-29T10:21:35Z</time></trkpt><trkpt lat="44.01488252900676" lon="8.18300518288675"><ele>11.0</ele><time>2026-03-29T10:21:36Z</time></trkpt><trkpt lat="44.014836589457296" lon="8.182864699066181"><ele>11.0</ele><time>2026-03-29T10:21:37Z</time></trkpt><trkpt lat="44.01478780055942" lon="8.182724727659075"><ele>11.0</ele><time>2026-03-29T10:21:38Z</time></trkpt><trkpt lat="44.01473714718184" lon="8.1825857729143"><ele>11.0</ele><time>2026-03-29T10:21:38.999Z</time></trkpt><trkpt lat="44.01468244802452" lon="8.182440663161385"><ele>11.0</ele><time>2026-03-29T10:21:39.999Z</time></trkpt><trkpt lat="44.0146176758158" lon="8.18228848133975"><ele>11.75</ele><time>2026-03-29T10:21:40.999Z</time></trkpt><trkpt lat="44.01455711765953" lon="8.182143087408088"><ele>12.5</ele><time>2026-03-29T10:21:41.999Z</time></trkpt><trkpt lat="44.0144990659206" lon="8.182005799582354"><ele>13.25</ele><time>2026-03-29T10:21:42.999Z</time></trkpt><trkpt lat="44.01444353768306" lon="8.181876210557318"><ele>14.0</ele><time>2026-03-29T10:21:43.999Z</time></trkpt><trkpt lat="44.01438798101753" lon="8.181744446081526"><ele>14.0</ele><time>2026-03-29T10:21:44.999Z</time></trkpt><trkpt lat="44.014333906272356" lon="8.18160590372344"><ele>14.0</ele><time>2026-03-29T10:21:45.999Z</time></trkpt><trkpt lat="44.01428059668642" lon="8.181460665248885"><ele>14.0</ele><time>2026-03-29T10:21:46.999Z</time></trkpt><trkpt lat="44.01422505745512" lon="8.181311006305755"><ele>14.0</ele><time>2026-03-29T10:21:47.999Z</time></trkpt><trkpt lat="44.01416770629065" lon="8.181157927544021"><ele>13.25</ele><time>2026-03-29T10:21:48.999Z</time></trkpt><trkpt lat="44.01410802341573" lon="8.180999649719409"><ele>12.5</ele><time>2026-03-29T10:21:50Z</time></trkpt><trkpt lat="44.014046542640294" lon="8.180840957223129"><ele>11.75</ele><time>2026-03-29T10:21:51Z</time></trkpt><trkpt lat="44.013985688694106" lon="8.180680419957758"><ele>11.0</ele><time>2026-03-29T10:21:52Z</time></trkpt><trkpt lat="44.013924110890386" lon="8.180518953194206"><ele>11.0</ele><time>2026-03-29T10:21:53Z</time></trkpt><trkpt lat="44.01386056637123" lon="8.180357291556838"><ele>11.0</ele><time>2026-03-29T10:21:54Z</time></trkpt><trkpt lat="44.01379232193319" lon="8.18019756213014"><ele>11.0</ele><time>2026-03-29T10:21:55Z</time></trkpt><trkpt lat="44.01372197835408" lon="8.180042525005451"><ele>11.0</ele><time>2026-03-29T10:21:56Z</time></trkpt><trkpt lat="44.013648092679304" lon="8.179892030553587"><ele>12.25</ele><time>2026-03-29T10:21:57Z</time></trkpt><trkpt lat="44.01356648300709" lon="8.179746787592704"><ele>13.5</ele><time>2026-03-29T10:21:58Z</time></trkpt><trkpt lat="44.01347952369075" lon="8.179608887078215"><ele>14.75</ele><time>2026-03-29T10:21:59Z</time></trkpt><trkpt lat="44.01339138149191" lon="8.179471719204633"><ele>16.0</ele><time>2026-03-29T10:22:00Z</time></trkpt><trkpt lat="44.01330711489752" lon="8.179331869361508"><ele>16.0</ele><time>2026-03-29T10:22:01Z</time></trkpt><trkpt lat="44.01321993732835" lon="8.179196294703402"><ele>16.0</ele><time>2026-03-29T10:22:02Z</time></trkpt><trkpt lat="44.01313176797823" lon="8.179071079164274"><ele>16.0</ele><time>2026-03-29T10:22:03Z</time></trkpt><trkpt lat="44.01304678750661" lon="8.178957346362962"><ele>16.0</ele><time>2026-03-29T10:22:04Z</time></trkpt><trkpt lat="44.01297166496042" lon="8.178847979839015"><ele>16.2</ele><time>2026-03-29T10:22:05Z</time></trkpt><trkpt lat="44.01289981847779" lon="8.178746588370723"><ele>16.400000000000002</ele><time>2026-03-29T10:22:06Z</time></trkpt><trkpt lat="44.01283175214556" lon="8.17865016400904"><ele>16.6</ele><time>2026-03-29T10:22:07Z</time></trkpt><trkpt lat="44.01276606376924" lon="8.178560049690013"><ele>16.8</ele><time>2026-03-29T10:22:08Z</time></trkpt><trkpt lat="44.012697083100456" lon="8.178473648441399"><ele>17.0</ele><time>2026-03-29T10:22:09Z</time></trkpt><trkpt lat="44.01262668081642" lon="8.178387157447547"><ele>17.0</ele><time>2026-03-29T10:22:10Z</time></trkpt><trkpt lat="44.012555446250545" lon="8.17830223884927"><ele>17.0</ele><time>2026-03-29T10:22:11Z</time></trkpt><trkpt lat="44.01248906828017" lon="8.178214857481281"><ele>17.0</ele><time>2026-03-29T10:22:12Z</time></trkpt><trkpt lat="44.01241662795536" lon="8.17813519796843"><ele>17.0</ele><time>2026-03-29T10:22:13Z</time></trkpt><trkpt lat="44.01234058862559" lon="8.1780543262381"><ele>17.0</ele><time>2026-03-29T10:22:14Z</time></trkpt><trkpt lat="44.01226365910597" lon="8.177971002544616"><ele>16.6</ele><time>2026-03-29T10:22:15Z</time></trkpt><trkpt lat="44.01218778681551" lon="8.177879100608568"><ele>16.2</ele><time>2026-03-29T10:22:16Z</time></trkpt><trkpt lat="44.01211057069236" lon="8.177786152059326"><ele>15.8</ele><time>2026-03-29T10:22:17Z</time></trkpt><trkpt lat="44.012035430951094" lon="8.177697517460432"><ele>15.4</ele><time>2026-03-29T10:22:18Z</time></trkpt><trkpt lat="44.01196601681392" lon="8.17761949833608"><ele>15.0</ele><time>2026-03-29T10:22:19Z</time></trkpt><trkpt lat="44.011902598882145" lon="8.177541507549114"><ele>15.0</ele><time>2026-03-29T10:22:20Z</time></trkpt><trkpt lat="44.011848766566914" lon="8.17747229385259"><ele>15.0</ele><time>2026-03-29T10:22:21Z</time></trkpt><trkpt lat="44.01178566134502" lon="8.177362981359956"><ele>15.0</ele><time>2026-03-29T10:22:23Z</time></trkpt><trkpt lat="44.011689168728395" lon="8.177485616632431"><ele>15.0</ele><time>2026-03-29T10:22:26Z</time></trkpt><trkpt lat="44.011607980560434" lon="8.177610844666564"><ele>15.0</ele><time>2026-03-29T10:22:28Z</time></trkpt><trkpt lat="44.01156679637573" lon="8.177680559518942"><ele>13.833333333333334</ele><time>2026-03-29T10:22:29Z</time></trkpt><trkpt lat="44.01148623162429" lon="8.17779958300001"><ele>12.666666666666666</ele><time>2026-03-29T10:22:31Z</time></trkpt><trkpt lat="44.01143895698409" lon="8.17787899477903"><ele>11.5</ele><time>2026-03-29T10:22:33Z</time></trkpt><trkpt lat="44.01138971310119" lon="8.177944713543601"><ele>10.333333333333332</ele><time>2026-03-29T10:22:43Z</time></trkpt><trkpt lat="44.0113050788296" lon="8.177884442070777"><ele>9.166666666666666</ele><time>2026-03-29T10:22:45Z</time></trkpt><trkpt lat="44.01124366847111" lon="8.177841423977233"><ele>8.0</ele><time>2026-03-29T10:22:46Z</time></trkpt><trkpt lat="44.01117564652736" lon="8.177807721964953"><ele>7.999999999999999</ele><time>2026-03-29T10:22:47Z</time></trkpt><trkpt lat="44.011114206163654" lon="8.177767041050629"><ele>8.0</ele><time>2026-03-29T10:22:48Z</time></trkpt><trkpt lat="44.01102774248401" lon="8.177699148148813"><ele>8.0</ele><time>2026-03-29T10:22:50Z</time></trkpt><trkpt lat="44.010972303320194" lon="8.177636139958636"><ele>8.0</ele><time>2026-03-29T10:22:53Z</time></trkpt><trkpt lat="44.01103059162793" lon="8.17770864167521"><ele>7.999999999999999</ele><time>2026-03-29T10:23:12Z</time></trkpt><trkpt lat="44.011101687511776" lon="8.17773981952792"><ele>8.0</ele><time>2026-03-29T10:23:14Z</time></trkpt><trkpt lat="44.01117657918579" lon="8.177787336332518"><ele>7.999999999999999</ele><time>2026-03-29T10:23:16Z</time></trkpt><trkpt lat="44.01125066027579" lon="8.177838813071062"><ele>8.0</ele><time>2026-03-29T10:23:18Z</time></trkpt><trkpt lat="44.01132152875778" lon="8.177890689295426"><ele>8.0</ele><time>2026-03-29T10:23:20Z</time></trkpt><trkpt lat="44.01138089098914" lon="8.177940260363608"><ele>8.0</ele><time>2026-03-29T10:23:22Z</time></trkpt><trkpt lat="44.01144815980712" lon="8.177996454658496"><ele>7.999999999999999</ele><time>2026-03-29T10:23:24Z</time></trkpt><trkpt lat="44.01152064919064" lon="8.178057009580176"><ele>8.0</ele><time>2026-03-29T10:23:26Z</time></trkpt><trkpt lat="44.011590115733426" lon="8.178115039251855"><ele>7.999999999999999</ele><time>2026-03-29T10:23:29Z</time></trkpt><trkpt lat="44.011494648793125" lon="8.178035289906227"><ele>8.0</ele><time>2026-03-29T10:23:43.999Z</time></trkpt><trkpt lat="44.01143510880927" lon="8.177985552526103"><ele>8.0</ele><time>2026-03-29T10:23:44.999Z</time></trkpt><trkpt lat="44.0113732037163" lon="8.177933838185046"><ele>8.0</ele><time>2026-03-29T10:23:45.999Z</time></trkpt><trkpt lat="44.01130433169076" lon="8.17787764344049"><ele>7.999999999999999</ele><time>2026-03-29T10:23:46.999Z</time></trkpt><trkpt lat="44.01123760272955" lon="8.177829729439646"><ele>8.0</ele><time>2026-03-29T10:23:47.999Z</time></trkpt><trkpt lat="44.011170175557744" lon="8.177782821142609"><ele>7.999999999999999</ele><time>2026-03-29T10:23:48.999Z</time></trkpt><trkpt lat="44.01110825900749" lon="8.177742770370434"><ele>8.0</ele><time>2026-03-29T10:23:49.999Z</time></trkpt><trkpt lat="44.011041050648394" lon="8.177736499363103"><ele>8.0</ele><time>2026-03-29T10:23:50.999Z</time></trkpt><trkpt lat="44.010937365645155" lon="8.177655972449365"><ele>8.0</ele><time>2026-03-29T10:23:52.999Z</time></trkpt><trkpt lat="44.01084589288492" lon="8.177584855674478"><ele>7.999999999999999</ele><time>2026-03-29T10:23:54.999Z</time></trkpt><trkpt lat="44.01079239890398" lon="8.177516669847192"><ele>8.0</ele><time>2026-03-29T10:23:57Z</time></trkpt><trkpt lat="44.010838873660155" lon="8.17738055695215"><ele>8.25</ele><time>2026-03-29T10:24:01Z</time></trkpt><trkpt lat="44.01089982794706" lon="8.177243453069428"><ele>8.5</ele><time>2026-03-29T10:24:03Z</time></trkpt><trkpt lat="44.010956834416824" lon="8.17711523106044"><ele>8.75</ele><time>2026-03-29T10:24:05Z</time></trkpt><trkpt lat="44.011008216941136" lon="8.176965393074541"><ele>9.0</ele><time>2026-03-29T10:24:07Z</time></trkpt><trkpt lat="44.011079562876" lon="8.17682101744428"><ele>9.0</ele><time>2026-03-29T10:24:09Z</time></trkpt><trkpt lat="44.011118548509536" lon="8.176750144421497"><ele>9.0</ele><time>2026-03-29T10:24:10Z</time></trkpt><trkpt lat="44.01118405989872" lon="8.176651647176913"><ele>9.0</ele><time>2026-03-29T10:24:12Z</time></trkpt><trkpt lat="44.01123647667231" lon="8.17660297528133"><ele>9.0</ele><time>2026-03-29T10:24:14Z</time></trkpt><trkpt lat="44.01131629493591" lon="8.176686276195962"><ele>9.0</ele><time>2026-03-29T10:24:49Z</time></trkpt><trkpt lat="44.01136550064547" lon="8.176775918571145"><ele>9.0</ele><time>2026-03-29T10:24:50Z</time></trkpt><trkpt lat="44.011429578678076" lon="8.176884006802501"><ele>9.0</ele><time>2026-03-29T10:24:51Z</time></trkpt><trkpt lat="44.01150425789728" lon="8.176997234854985"><ele>9.0</ele><time>2026-03-29T10:24:52Z</time></trkpt><trkpt lat="44.01158537664578" lon="8.177120808371773"><ele>9.0</ele><time>2026-03-29T10:24:53Z</time></trkpt><trkpt lat="44.01167023786005" lon="8.177253199536448"><ele>9.0</ele><time>2026-03-29T10:24:54Z</time></trkpt><trkpt lat="44.011752860468974" lon="8.177382097943816"><ele>10.5</ele><time>2026-03-29T10:24:55Z</time></trkpt><trkpt lat="44.01183911464207" lon="8.177506271162676"><ele>12.0</ele><time>2026-03-29T10:24:56Z</time></trkpt><trkpt lat="44.011927080210896" lon="8.177627782306311"><ele>13.5</ele><time>2026-03-29T10:24:57Z</time></trkpt><trkpt lat="44.01201642946989" lon="8.177744998024004"><ele>15.0</ele><time>2026-03-29T10:24:58Z</time></trkpt><trkpt lat="44.012106603139316" lon="8.177856259558864"><ele>15.0</ele><time>2026-03-29T10:24:59Z</time></trkpt><trkpt lat="44.012202937155585" lon="8.177963558569934"><ele>15.0</ele><time>2026-03-29T10:25:00Z</time></trkpt><trkpt lat="44.01229988567511" lon="8.178067139640538"><ele>15.0</ele><time>2026-03-29T10:25:01Z</time></trkpt><trkpt lat="44.01240363844238" lon="8.178159898790396"><ele>15.0</ele><time>2026-03-29T10:25:02Z</time></trkpt><trkpt lat="44.01249464802537" lon="8.178282551909128"><ele>15.5</ele><time>2026-03-29T10:25:03Z</time></trkpt><trkpt lat="44.012589816373854" lon="8.178404336645771"><ele>16.0</ele><time>2026-03-29T10:25:04Z</time></trkpt><trkpt lat="44.01268480381198" lon="8.178516902975256"><ele>16.5</ele><time>2026-03-29T10:25:05Z</time></trkpt><trkpt lat="44.012777989240696" lon="8.178622690392723"><ele>17.0</ele><time>2026-03-29T10:25:06Z</time></trkpt><trkpt lat="44.01286350899154" lon="8.178733710053285"><ele>17.0</ele><time>2026-03-29T10:25:07Z</time></trkpt><trkpt lat="44.01294897749696" lon="8.178849884059256"><ele>17.0</ele><time>2026-03-29T10:25:08Z</time></trkpt><trkpt lat="44.01303055248239" lon="8.17897237420063"><ele>17.0</ele><time>2026-03-29T10:25:09Z</time></trkpt><trkpt lat="44.01311402517904" lon="8.179095618380975"><ele>17.0</ele><time>2026-03-29T10:25:10Z</time></trkpt><trkpt lat="44.01320388534409" lon="8.179228154421729"><ele>16.75</ele><time>2026-03-29T10:25:11Z</time></trkpt><trkpt lat="44.013297667202416" lon="8.179362371484038"><ele>16.5</ele><time>2026-03-29T10:25:12Z</time></trkpt><trkpt lat="44.013386073796816" lon="8.179500910525997"><ele>16.25</ele><time>2026-03-29T10:25:13Z</time></trkpt><trkpt lat="44.013466416296254" lon="8.179634713328097"><ele>16.0</ele><time>2026-03-29T10:25:14Z</time></trkpt><trkpt lat="44.01354322999261" lon="8.179772589305635"><ele>14.75</ele><time>2026-03-29T10:25:15Z</time></trkpt><trkpt lat="44.013621893003354" lon="8.17991846351857"><ele>13.5</ele><time>2026-03-29T10:25:16Z</time></trkpt><trkpt lat="44.013701235978544" lon="8.180068773048236"><ele>12.25</ele><time>2026-03-29T10:25:17Z</time></trkpt><trkpt lat="44.013778057440135" lon="8.180225011291029"><ele>11.0</ele><time>2026-03-29T10:25:18Z</time></trkpt><trkpt lat="44.01385197895095" lon="8.180391379609782"><ele>11.0</ele><time>2026-03-29T10:25:19Z</time></trkpt><trkpt lat="44.01392569121967" lon="8.180567529112684"><ele>11.0</ele><time>2026-03-29T10:25:20Z</time></trkpt><trkpt lat="44.013977446734124" lon="8.180761565822083"><ele>11.0</ele><time>2026-03-29T10:25:21Z</time></trkpt><trkpt lat="44.01406383986292" lon="8.18093817675085"><ele>11.0</ele><time>2026-03-29T10:25:22Z</time></trkpt><trkpt lat="44.01413481044874" lon="8.181131908546933"><ele>12.0</ele><time>2026-03-29T10:25:23Z</time></trkpt><trkpt lat="44.01419257756283" lon="8.181336435822965"><ele>13.0</ele><time>2026-03-29T10:25:23.999Z</time></trkpt><trkpt lat="44.01426249146315" lon="8.181532995713273"><ele>14.0</ele><time>2026-03-29T10:25:24.999Z</time></trkpt><trkpt lat="44.0143346728968" lon="8.181730262160151"><ele>14.0</ele><time>2026-03-29T10:25:25.999Z</time></trkpt><trkpt lat="44.01441000107637" lon="8.18192460644014"><ele>14.0</ele><time>2026-03-29T10:25:26.999Z</time></trkpt><trkpt lat="44.01448337779388" lon="8.182097892620344"><ele>14.0</ele><time>2026-03-29T10:25:27.999Z</time></trkpt><trkpt lat="44.01456398524146" lon="8.182249958052944"><ele>14.0</ele><time>2026-03-29T10:25:28.999Z</time></trkpt><trkpt lat="44.014622414296994" lon="8.182398750418859"><ele>13.399999999999999</ele><time>2026-03-29T10:25:29.999Z</time></trkpt><trkpt lat="44.014670051296825" lon="8.182532202235064"><ele>12.799999999999999</ele><time>2026-03-29T10:25:30.999Z</time></trkpt><trkpt lat="44.014710789790264" lon="8.182647513028387"><ele>12.2</ele><time>2026-03-29T10:25:31.999Z</time></trkpt><trkpt lat="44.01473533778589" lon="8.182735106197448"><ele>11.600000000000001</ele><time>2026-03-29T10:25:32.999Z</time></trkpt><trkpt lat="44.01473476086064" lon="8.182849110426364"><ele>11.0</ele><time>2026-03-29T10:25:34.999Z</time></trkpt><trkpt lat="44.01461263203001" lon="8.1828503551799"><ele>11.0</ele><time>2026-03-29T10:25:36.999Z</time></trkpt><trkpt lat="44.01455453379457" lon="8.18288931670654"><ele>11.0</ele><time>2026-03-29T10:25:37.999Z</time></trkpt><trkpt lat="44.01446281767055" lon="8.182954155288465"><ele>11.0</ele><time>2026-03-29T10:25:39.999Z</time></trkpt><trkpt lat="44.014492485826544" lon="8.183183415285876"><ele>11.0</ele><time>2026-03-29T10:25:42.999Z</time></trkpt><trkpt lat="44.01455536968442" lon="8.183263101014216"><ele>11.0</ele><time>2026-03-29T10:25:43.999Z</time></trkpt><trkpt lat="44.01460220780163" lon="8.183354628053982"><ele>10.0</ele><time>2026-03-29T10:25:44.999Z</time></trkpt><trkpt lat="44.01463684513404" lon="8.18343238844072"><ele>9.0</ele><time>2026-03-29T10:25:45.999Z</time></trkpt><trkpt lat="44.01467606855081" lon="8.18356846574269"><ele>8.0</ele><time>2026-03-29T10:25:47.999Z</time></trkpt><trkpt lat="44.01473529003233" lon="8.183706150274334"><ele>7.0</ele><time>2026-03-29T10:25:49.999Z</time></trkpt><trkpt lat="44.014770299962336" lon="8.183793092122679"><ele>6.0</ele><time>2026-03-29T10:25:50.999Z</time></trkpt><trkpt lat="44.01480746769412" lon="8.183885195639691"><ele>5.0</ele><time>2026-03-29T10:25:51.999Z</time></trkpt><trkpt lat="44.014857338834716" lon="8.183967359525212"><ele>4.333333333333334</ele><time>2026-03-29T10:25:52.999Z</time></trkpt><trkpt lat="44.01488541305291" lon="8.1840457592144"><ele>3.666666666666667</ele><time>2026-03-29T10:25:53.999Z</time></trkpt><trkpt lat="44.014935896068934" lon="8.184168821029976"><ele>3.0</ele><time>2026-03-29T10:25:55.999Z</time></trkpt><trkpt lat="44.0149691543934" lon="8.184255811233513"><ele>2.3333333333333335</ele><time>2026-03-29T10:25:57.999Z</time></trkpt><trkpt lat="44.015017450612376" lon="8.184363901965442"><ele>1.6666666666666665</ele><time>2026-03-29T10:26:02Z</time></trkpt><trkpt lat="44.01505951838553" lon="8.184485756904065"><ele>1.0</ele><time>2026-03-29T10:26:04Z</time></trkpt><trkpt lat="44.01510797502298" lon="8.184621306840532"><ele>1.8</ele><time>2026-03-29T10:26:06Z</time></trkpt><trkpt lat="44.0151711558049" lon="8.184783568112135"><ele>2.6</ele><time>2026-03-29T10:26:08Z</time></trkpt><trkpt lat="44.015214204903906" lon="8.184889660167737"><ele>3.4</ele><time>2026-03-29T10:26:09Z</time></trkpt><trkpt lat="44.015260799936364" lon="8.18500445557962"><ele>4.2</ele><time>2026-03-29T10:26:10Z</time></trkpt><trkpt lat="44.01530927286297" lon="8.185123877435943"><ele>5.0</ele><time>2026-03-29T10:26:11Z</time></trkpt><trkpt lat="44.01535840339865" lon="8.185244919765806"><ele>5.0</ele><time>2026-03-29T10:26:12Z</time></trkpt><trkpt lat="44.015415712715956" lon="8.18536063964421"><ele>5.0</ele><time>2026-03-29T10:26:13Z</time></trkpt><trkpt lat="44.01545597272775" lon="8.185464513884739"><ele>5.0</ele><time>2026-03-29T10:26:14Z</time></trkpt><trkpt lat="44.015470217105246" lon="8.185565617278206"><ele>5.0</ele><time>2026-03-29T10:26:15Z</time></trkpt><trkpt lat="44.01549066817018" lon="8.185706856616896"><ele>5.0</ele><time>2026-03-29T10:26:17Z</time></trkpt><trkpt lat="44.01549314361879" lon="8.185806090215646"><ele>5.0</ele><time>2026-03-29T10:26:19Z</time></trkpt><trkpt lat="44.015496795290275" lon="8.18589631270319"><ele>4.4</ele><time>2026-03-29T10:26:36Z</time></trkpt><trkpt lat="44.015500362778575" lon="8.18598445511213"><ele>3.8</ele><time>2026-03-29T10:26:38Z</time></trkpt><trkpt lat="44.0155983619713" lon="8.186073062315101"><ele>3.2</ele><time>2026-03-29T10:30:12.999Z</time></trkpt><trkpt lat="44.015582514230566" lon="8.18617789441674"><ele>2.6</ele><time>2026-03-29T10:30:42Z</time></trkpt><trkpt lat="44.01556430126553" lon="8.186317858613698"><ele>2.0</ele><time>2026-03-29T10:30:46Z</time></trkpt><trkpt lat="44.01555176117559" lon="8.18644177308782"><ele>1.9999999999999998</ele><time>2026-03-29T10:30:48Z</time></trkpt><trkpt lat="44.01555360909604" lon="8.186593395100846"><ele>2.0</ele><time>2026-03-29T10:30:50Z</time></trkpt><trkpt lat="44.01555563938692" lon="8.186685718402016"><ele>2.0</ele><time>2026-03-29T10:30:51Z</time></trkpt><trkpt lat="44.01555815091594" lon="8.186785623195979"><ele>2.0</ele><time>2026-03-29T10:30:52Z</time></trkpt><trkpt lat="44.01556770623692" lon="8.186885839549818"><ele>1.9999999999999998</ele><time>2026-03-29T10:30:53Z</time></trkpt><trkpt lat="44.015583818147874" lon="8.18698977393089"><ele>2.0</ele><time>2026-03-29T10:30:54Z</time></trkpt><trkpt lat="44.01560156863224" lon="8.18708850302292"><ele>1.9999999999999998</ele><time>2026-03-29T10:30:55Z</time></trkpt><trkpt lat="44.01561780404293" lon="8.187188174331798"><ele>2.0</ele><time>2026-03-29T10:30:56Z</time></trkpt><trkpt lat="44.015634788724626" lon="8.18729506907449"><ele>2.0</ele><time>2026-03-29T10:30:57Z</time></trkpt><trkpt lat="44.01562402981641" lon="8.18741137540144"><ele>2.0</ele><time>2026-03-29T10:30:58Z</time></trkpt><trkpt lat="44.01563429522928" lon="8.187521466983354"><ele>1.9999999999999998</ele><time>2026-03-29T10:30:59Z</time></trkpt><trkpt lat="44.015638696082014" lon="8.187636448122815"><ele>2.0</ele><time>2026-03-29T10:31:00Z</time></trkpt><trkpt lat="44.015643708262765" lon="8.187754042961267"><ele>2.1666666666666665</ele><time>2026-03-29T10:31:01Z</time></trkpt><trkpt lat="44.01565072502832" lon="8.187876795782485"><ele>2.333333333333333</ele><time>2026-03-29T10:31:02Z</time></trkpt><trkpt lat="44.015661075329376" lon="8.187998207756877"><ele>2.5</ele><time>2026-03-29T10:31:03Z</time></trkpt><trkpt lat="44.01569195709907" lon="8.188113303602814"><ele>2.6666666666666665</ele><time>2026-03-29T10:31:04Z</time></trkpt><trkpt lat="44.01570843535102" lon="8.188235176719644"><ele>2.8333333333333335</ele><time>2026-03-29T10:31:05Z</time></trkpt><trkpt lat="44.015724689465856" lon="8.188357594731965"><ele>3.0</ele><time>2026-03-29T10:31:06Z</time></trkpt><trkpt lat="44.015742481332694" lon="8.188475944413605"><ele>2.6666666666666665</ele><time>2026-03-29T10:31:07Z</time></trkpt><trkpt lat="44.01575961427276" lon="8.188598606038928"><ele>2.3333333333333335</ele><time>2026-03-29T10:31:08Z</time></trkpt><trkpt lat="44.015779212317376" lon="8.18871919214978"><ele>2.0</ele><time>2026-03-29T10:31:09Z</time></trkpt><trkpt lat="44.01580580341122" lon="8.188833735120218"><ele>1.6666666666666665</ele><time>2026-03-29T10:31:10Z</time></trkpt><trkpt lat="44.01584277335873" lon="8.188947924810813"><ele>1.3333333333333333</ele><time>2026-03-29T10:31:11Z</time></trkpt><trkpt lat="44.015885421269175" lon="8.189057092834782"><ele>1.0</ele><time>2026-03-29T10:31:12Z</time></trkpt><trkpt lat="44.015929588921374" lon="8.189166809382522"><ele>2.6666666666666665</ele><time>2026-03-29T10:31:13Z</time></trkpt><trkpt lat="44.01594617508267" lon="8.1892780404063"><ele>4.333333333333333</ele><time>2026-03-29T10:31:14Z</time></trkpt><trkpt lat="44.01596800145295" lon="8.189372219344252"><ele>6.0</ele><time>2026-03-29T10:31:15Z</time></trkpt><trkpt lat="44.01597979408474" lon="8.189462824494473"><ele>7.666666666666666</ele><time>2026-03-29T10:31:16Z</time></trkpt><trkpt lat="44.01598756560687" lon="8.189605953349824"><ele>9.333333333333332</ele><time>2026-03-29T10:31:18Z</time></trkpt><trkpt lat="44.016059286526776" lon="8.189643038278938"><ele>11.0</ele><time>2026-03-29T10:33:31Z</time></trkpt><trkpt lat="44.01599966429964" lon="8.189576649254926"><ele>11.0</ele><time>2026-03-29T10:34:25Z</time></trkpt><trkpt lat="44.0160834288627" lon="8.189564234499079"><ele>11.0</ele><time>2026-03-29T10:38:08.999Z</time></trkpt><trkpt lat="44.015975095350555" lon="8.189582318906066"><ele>11.0</ele><time>2026-03-29T10:39:03Z</time></trkpt><trkpt lat="44.0160708882859" lon="8.189570400783252"><ele>11.0</ele><time>2026-03-29T10:39:14Z</time></trkpt><trkpt lat="44.01600161193018" lon="8.189588489938243"><ele>11.0</ele><time>2026-03-29T10:39:40Z</time></trkpt><trkpt lat="44.01593474739268" lon="8.189600370088057"><ele>11.0</ele><time>2026-03-29T10:39:59.999Z</time></trkpt></trkseg></trk></gpx>